<?xml version="1.0" encoding="UTF-8"?><gpx creator="Wikiloc - http://www.wikiloc.com" version="1.1" xmlns="http://www.topografix.com/GPX/1/1" xmlns:xsi="http://www.w3.org/2001/XMLSchema-instance" xsi:schemaLocation="http://www.topografix.com/GPX/1/1 http://www.topografix.com/GPX/1/1/gpx.xsd"><trk><name>LAGUARDIA-CRUZ DEL CASTILLO-LAGRAN</name><cmt></cmt><desc></desc><trkseg><trkpt lat="42.564115" lon="-2.584178"><ele>650.0</ele><time>2011-11-30T09:18:44Z</time></trkpt><trkpt lat="42.564120" lon="-2.584167"><ele>650.0</ele><time>2011-11-30T09:18:45Z</time></trkpt><trkpt lat="42.564120" lon="-2.584157"><ele>650.0</ele><time>2011-11-30T09:18:46Z</time></trkpt><trkpt lat="42.564122" lon="-2.584147"><ele>650.0</ele><time>2011-11-30T09:18:48Z</time></trkpt><trkpt lat="42.564125" lon="-2.584125"><ele>650.0</ele><time>2011-11-30T09:18:49Z</time></trkpt><trkpt lat="42.564125" lon="-2.584118"><ele>650.0</ele><time>2011-11-30T09:18:50Z</time></trkpt><trkpt lat="42.564127" lon="-2.584108"><ele>650.0</ele><time>2011-11-30T09:18:51Z</time></trkpt><trkpt lat="42.564128" lon="-2.584098"><ele>650.0</ele><time>2011-11-30T09:18:52Z</time></trkpt><trkpt lat="42.564132" lon="-2.584085"><ele>650.0</ele><time>2011-11-30T09:18:53Z</time></trkpt><trkpt lat="42.564133" lon="-2.584075"><ele>650.0</ele><time>2011-11-30T09:18:54Z</time></trkpt><trkpt lat="42.564137" lon="-2.584062"><ele>650.0</ele><time>2011-11-30T09:18:55Z</time></trkpt><trkpt lat="42.564145" lon="-2.584052"><ele>649.5</ele><time>2011-11-30T09:18:56Z</time></trkpt><trkpt lat="42.564148" lon="-2.584040"><ele>649.5</ele><time>2011-11-30T09:18:57Z</time></trkpt><trkpt lat="42.564155" lon="-2.584030"><ele>649.5</ele><time>2011-11-30T09:18:58Z</time></trkpt><trkpt lat="42.564165" lon="-2.584028"><ele>649.0</ele><time>2011-11-30T09:18:59Z</time></trkpt><trkpt lat="42.564178" lon="-2.584028"><ele>648.0</ele><time>2011-11-30T09:19:00Z</time></trkpt><trkpt lat="42.564190" lon="-2.584032"><ele>648.0</ele><time>2011-11-30T09:19:01Z</time></trkpt><trkpt lat="42.564202" lon="-2.584037"><ele>648.0</ele><time>2011-11-30T09:19:02Z</time></trkpt><trkpt lat="42.564212" lon="-2.584045"><ele>648.0</ele><time>2011-11-30T09:19:03Z</time></trkpt><trkpt lat="42.564218" lon="-2.584055"><ele>647.5</ele><time>2011-11-30T09:19:04Z</time></trkpt><trkpt lat="42.564225" lon="-2.584063"><ele>647.0</ele><time>2011-11-30T09:19:05Z</time></trkpt><trkpt lat="42.564233" lon="-2.584073"><ele>646.5</ele><time>2011-11-30T09:19:06Z</time></trkpt><trkpt lat="42.564245" lon="-2.584078"><ele>646.5</ele><time>2011-11-30T09:19:07Z</time></trkpt><trkpt lat="42.564253" lon="-2.584068"><ele>646.5</ele><time>2011-11-30T09:19:08Z</time></trkpt><trkpt lat="42.564267" lon="-2.584065"><ele>645.5</ele><time>2011-11-30T09:19:09Z</time></trkpt><trkpt lat="42.564278" lon="-2.584062"><ele>645.5</ele><time>2011-11-30T09:19:10Z</time></trkpt><trkpt lat="42.564290" lon="-2.584062"><ele>645.5</ele><time>2011-11-30T09:19:11Z</time></trkpt><trkpt lat="42.564303" lon="-2.584063"><ele>644.5</ele><time>2011-11-30T09:19:12Z</time></trkpt><trkpt lat="42.564312" lon="-2.584067"><ele>645.0</ele><time>2011-11-30T09:19:13Z</time></trkpt><trkpt lat="42.564322" lon="-2.584068"><ele>645.0</ele><time>2011-11-30T09:19:14Z</time></trkpt><trkpt lat="42.564330" lon="-2.584067"><ele>644.0</ele><time>2011-11-30T09:19:15Z</time></trkpt><trkpt lat="42.564342" lon="-2.584070"><ele>643.5</ele><time>2011-11-30T09:19:16Z</time></trkpt><trkpt lat="42.564352" lon="-2.584078"><ele>643.5</ele><time>2011-11-30T09:19:17Z</time></trkpt><trkpt lat="42.564357" lon="-2.584085"><ele>644.0</ele><time>2011-11-30T09:19:18Z</time></trkpt><trkpt lat="42.564363" lon="-2.584088"><ele>644.0</ele><time>2011-11-30T09:19:19Z</time></trkpt><trkpt lat="42.564370" lon="-2.584093"><ele>644.0</ele><time>2011-11-30T09:19:20Z</time></trkpt><trkpt lat="42.564382" lon="-2.584093"><ele>643.5</ele><time>2011-11-30T09:19:21Z</time></trkpt><trkpt lat="42.564392" lon="-2.584095"><ele>643.5</ele><time>2011-11-30T09:19:22Z</time></trkpt><trkpt lat="42.564398" lon="-2.584095"><ele>643.5</ele><time>2011-11-30T09:19:23Z</time></trkpt><trkpt lat="42.564408" lon="-2.584097"><ele>643.5</ele><time>2011-11-30T09:19:24Z</time></trkpt><trkpt lat="42.564418" lon="-2.584110"><ele>644.5</ele><time>2011-11-30T09:19:25Z</time></trkpt><trkpt lat="42.564427" lon="-2.584123"><ele>645.5</ele><time>2011-11-30T09:19:26Z</time></trkpt><trkpt lat="42.564433" lon="-2.584130"><ele>645.5</ele><time>2011-11-30T09:19:27Z</time></trkpt><trkpt lat="42.564443" lon="-2.584135"><ele>645.5</ele><time>2011-11-30T09:19:28Z</time></trkpt><trkpt lat="42.564455" lon="-2.584133"><ele>645.0</ele><time>2011-11-30T09:19:29Z</time></trkpt><trkpt lat="42.564468" lon="-2.584137"><ele>645.0</ele><time>2011-11-30T09:19:30Z</time></trkpt><trkpt lat="42.564478" lon="-2.584142"><ele>645.0</ele><time>2011-11-30T09:19:31Z</time></trkpt><trkpt lat="42.564488" lon="-2.584143"><ele>644.5</ele><time>2011-11-30T09:19:32Z</time></trkpt><trkpt lat="42.564498" lon="-2.584145"><ele>644.5</ele><time>2011-11-30T09:19:33Z</time></trkpt><trkpt lat="42.564508" lon="-2.584147"><ele>644.5</ele><time>2011-11-30T09:19:34Z</time></trkpt><trkpt lat="42.564518" lon="-2.584152"><ele>644.5</ele><time>2011-11-30T09:19:35Z</time></trkpt><trkpt lat="42.564527" lon="-2.584157"><ele>644.5</ele><time>2011-11-30T09:19:36Z</time></trkpt><trkpt lat="42.564537" lon="-2.584162"><ele>644.5</ele><time>2011-11-30T09:19:37Z</time></trkpt><trkpt lat="42.564548" lon="-2.584168"><ele>644.5</ele><time>2011-11-30T09:19:38Z</time></trkpt><trkpt lat="42.564557" lon="-2.584173"><ele>644.5</ele><time>2011-11-30T09:19:39Z</time></trkpt><trkpt lat="42.564567" lon="-2.584177"><ele>644.5</ele><time>2011-11-30T09:19:40Z</time></trkpt><trkpt lat="42.564575" lon="-2.584178"><ele>645.0</ele><time>2011-11-30T09:19:41Z</time></trkpt><trkpt lat="42.564585" lon="-2.584180"><ele>645.0</ele><time>2011-11-30T09:19:42Z</time></trkpt><trkpt lat="42.564597" lon="-2.584182"><ele>645.0</ele><time>2011-11-30T09:19:43Z</time></trkpt><trkpt lat="42.564607" lon="-2.584187"><ele>645.0</ele><time>2011-11-30T09:19:44Z</time></trkpt><trkpt lat="42.564618" lon="-2.584190"><ele>645.5</ele><time>2011-11-30T09:19:45Z</time></trkpt><trkpt lat="42.564630" lon="-2.584195"><ele>645.0</ele><time>2011-11-30T09:19:46Z</time></trkpt><trkpt lat="42.564642" lon="-2.584195"><ele>645.0</ele><time>2011-11-30T09:19:47Z</time></trkpt><trkpt lat="42.564653" lon="-2.584197"><ele>645.0</ele><time>2011-11-30T09:19:48Z</time></trkpt><trkpt lat="42.564663" lon="-2.584203"><ele>644.5</ele><time>2011-11-30T09:19:49Z</time></trkpt><trkpt lat="42.564673" lon="-2.584213"><ele>645.0</ele><time>2011-11-30T09:19:50Z</time></trkpt><trkpt lat="42.564683" lon="-2.584220"><ele>644.5</ele><time>2011-11-30T09:19:51Z</time></trkpt><trkpt lat="42.564693" lon="-2.584228"><ele>644.5</ele><time>2011-11-30T09:19:52Z</time></trkpt><trkpt lat="42.564705" lon="-2.584235"><ele>645.0</ele><time>2011-11-30T09:19:53Z</time></trkpt><trkpt lat="42.564717" lon="-2.584240"><ele>645.0</ele><time>2011-11-30T09:19:54Z</time></trkpt><trkpt lat="42.564728" lon="-2.584245"><ele>645.0</ele><time>2011-11-30T09:19:55Z</time></trkpt><trkpt lat="42.564742" lon="-2.584248"><ele>645.0</ele><time>2011-11-30T09:19:56Z</time></trkpt><trkpt lat="42.564753" lon="-2.584252"><ele>645.0</ele><time>2011-11-30T09:19:57Z</time></trkpt><trkpt lat="42.564767" lon="-2.584255"><ele>645.0</ele><time>2011-11-30T09:19:58Z</time></trkpt><trkpt lat="42.564778" lon="-2.584263"><ele>645.5</ele><time>2011-11-30T09:19:59Z</time></trkpt><trkpt lat="42.564788" lon="-2.584272"><ele>645.0</ele><time>2011-11-30T09:20:00Z</time></trkpt><trkpt lat="42.564800" lon="-2.584277"><ele>645.5</ele><time>2011-11-30T09:20:01Z</time></trkpt><trkpt lat="42.564812" lon="-2.584283"><ele>645.0</ele><time>2011-11-30T09:20:02Z</time></trkpt><trkpt lat="42.564823" lon="-2.584288"><ele>645.0</ele><time>2011-11-30T09:20:03Z</time></trkpt><trkpt lat="42.564837" lon="-2.584295"><ele>645.0</ele><time>2011-11-30T09:20:04Z</time></trkpt><trkpt lat="42.564850" lon="-2.584298"><ele>645.0</ele><time>2011-11-30T09:20:05Z</time></trkpt><trkpt lat="42.564862" lon="-2.584305"><ele>645.0</ele><time>2011-11-30T09:20:06Z</time></trkpt><trkpt lat="42.564873" lon="-2.584313"><ele>645.0</ele><time>2011-11-30T09:20:07Z</time></trkpt><trkpt lat="42.564883" lon="-2.584320"><ele>645.0</ele><time>2011-11-30T09:20:08Z</time></trkpt><trkpt lat="42.564893" lon="-2.584327"><ele>644.5</ele><time>2011-11-30T09:20:09Z</time></trkpt><trkpt lat="42.564905" lon="-2.584335"><ele>644.5</ele><time>2011-11-30T09:20:10Z</time></trkpt><trkpt lat="42.564915" lon="-2.584343"><ele>644.5</ele><time>2011-11-30T09:20:11Z</time></trkpt><trkpt lat="42.564923" lon="-2.584348"><ele>645.0</ele><time>2011-11-30T09:20:12Z</time></trkpt><trkpt lat="42.564933" lon="-2.584353"><ele>645.5</ele><time>2011-11-30T09:20:13Z</time></trkpt><trkpt lat="42.564943" lon="-2.584360"><ele>645.5</ele><time>2011-11-30T09:20:14Z</time></trkpt><trkpt lat="42.564955" lon="-2.584370"><ele>646.0</ele><time>2011-11-30T09:20:15Z</time></trkpt><trkpt lat="42.564967" lon="-2.584378"><ele>646.0</ele><time>2011-11-30T09:20:16Z</time></trkpt><trkpt lat="42.564978" lon="-2.584385"><ele>646.0</ele><time>2011-11-30T09:20:17Z</time></trkpt><trkpt lat="42.564992" lon="-2.584392"><ele>646.0</ele><time>2011-11-30T09:20:18Z</time></trkpt><trkpt lat="42.565005" lon="-2.584400"><ele>646.5</ele><time>2011-11-30T09:20:19Z</time></trkpt><trkpt lat="42.565017" lon="-2.584408"><ele>646.5</ele><time>2011-11-30T09:20:20Z</time></trkpt><trkpt lat="42.565028" lon="-2.584417"><ele>646.5</ele><time>2011-11-30T09:20:21Z</time></trkpt><trkpt lat="42.565042" lon="-2.584425"><ele>647.0</ele><time>2011-11-30T09:20:22Z</time></trkpt><trkpt lat="42.565052" lon="-2.584433"><ele>647.0</ele><time>2011-11-30T09:20:23Z</time></trkpt><trkpt lat="42.565063" lon="-2.584442"><ele>647.5</ele><time>2011-11-30T09:20:24Z</time></trkpt><trkpt lat="42.565073" lon="-2.584448"><ele>647.5</ele><time>2011-11-30T09:20:25Z</time></trkpt><trkpt lat="42.565085" lon="-2.584457"><ele>647.5</ele><time>2011-11-30T09:20:26Z</time></trkpt><trkpt lat="42.565097" lon="-2.584465"><ele>648.0</ele><time>2011-11-30T09:20:27Z</time></trkpt><trkpt lat="42.565108" lon="-2.584472"><ele>648.0</ele><time>2011-11-30T09:20:28Z</time></trkpt><trkpt lat="42.565120" lon="-2.584480"><ele>648.0</ele><time>2011-11-30T09:20:29Z</time></trkpt><trkpt lat="42.565132" lon="-2.584485"><ele>647.5</ele><time>2011-11-30T09:20:30Z</time></trkpt><trkpt lat="42.565143" lon="-2.584493"><ele>648.0</ele><time>2011-11-30T09:20:31Z</time></trkpt><trkpt lat="42.565155" lon="-2.584502"><ele>648.0</ele><time>2011-11-30T09:20:32Z</time></trkpt><trkpt lat="42.565165" lon="-2.584510"><ele>648.5</ele><time>2011-11-30T09:20:33Z</time></trkpt><trkpt lat="42.565177" lon="-2.584520"><ele>648.5</ele><time>2011-11-30T09:20:34Z</time></trkpt><trkpt lat="42.565188" lon="-2.584530"><ele>648.5</ele><time>2011-11-30T09:20:35Z</time></trkpt><trkpt lat="42.565200" lon="-2.584538"><ele>648.5</ele><time>2011-11-30T09:20:36Z</time></trkpt><trkpt lat="42.565208" lon="-2.584547"><ele>648.5</ele><time>2011-11-30T09:20:37Z</time></trkpt><trkpt lat="42.565218" lon="-2.584555"><ele>649.0</ele><time>2011-11-30T09:20:38Z</time></trkpt><trkpt lat="42.565230" lon="-2.584562"><ele>649.5</ele><time>2011-11-30T09:20:39Z</time></trkpt><trkpt lat="42.565243" lon="-2.584567"><ele>649.5</ele><time>2011-11-30T09:20:40Z</time></trkpt><trkpt lat="42.565255" lon="-2.584570"><ele>649.5</ele><time>2011-11-30T09:20:41Z</time></trkpt><trkpt lat="42.565267" lon="-2.584577"><ele>649.5</ele><time>2011-11-30T09:20:42Z</time></trkpt><trkpt lat="42.565278" lon="-2.584587"><ele>649.5</ele><time>2011-11-30T09:20:43Z</time></trkpt><trkpt lat="42.565288" lon="-2.584595"><ele>650.0</ele><time>2011-11-30T09:20:44Z</time></trkpt><trkpt lat="42.565300" lon="-2.584598"><ele>650.0</ele><time>2011-11-30T09:20:45Z</time></trkpt><trkpt lat="42.565310" lon="-2.584603"><ele>650.0</ele><time>2011-11-30T09:20:46Z</time></trkpt><trkpt lat="42.565322" lon="-2.584608"><ele>650.0</ele><time>2011-11-30T09:20:47Z</time></trkpt><trkpt lat="42.565333" lon="-2.584617"><ele>650.0</ele><time>2011-11-30T09:20:48Z</time></trkpt><trkpt lat="42.565343" lon="-2.584625"><ele>650.0</ele><time>2011-11-30T09:20:49Z</time></trkpt><trkpt lat="42.565357" lon="-2.584633"><ele>650.0</ele><time>2011-11-30T09:20:50Z</time></trkpt><trkpt lat="42.565368" lon="-2.584642"><ele>650.0</ele><time>2011-11-30T09:20:51Z</time></trkpt><trkpt lat="42.565380" lon="-2.584647"><ele>650.0</ele><time>2011-11-30T09:20:52Z</time></trkpt><trkpt lat="42.565390" lon="-2.584652"><ele>650.0</ele><time>2011-11-30T09:20:53Z</time></trkpt><trkpt lat="42.565402" lon="-2.584657"><ele>650.5</ele><time>2011-11-30T09:20:54Z</time></trkpt><trkpt lat="42.565412" lon="-2.584665"><ele>650.5</ele><time>2011-11-30T09:20:55Z</time></trkpt><trkpt lat="42.565422" lon="-2.584673"><ele>650.5</ele><time>2011-11-30T09:20:56Z</time></trkpt><trkpt lat="42.565435" lon="-2.584680"><ele>650.5</ele><time>2011-11-30T09:20:57Z</time></trkpt><trkpt lat="42.565447" lon="-2.584685"><ele>651.0</ele><time>2011-11-30T09:20:58Z</time></trkpt><trkpt lat="42.565458" lon="-2.584692"><ele>651.0</ele><time>2011-11-30T09:20:59Z</time></trkpt><trkpt lat="42.565468" lon="-2.584698"><ele>651.0</ele><time>2011-11-30T09:21:00Z</time></trkpt><trkpt lat="42.565478" lon="-2.584707"><ele>651.0</ele><time>2011-11-30T09:21:01Z</time></trkpt><trkpt lat="42.565490" lon="-2.584715"><ele>651.0</ele><time>2011-11-30T09:21:02Z</time></trkpt><trkpt lat="42.565500" lon="-2.584725"><ele>651.0</ele><time>2011-11-30T09:21:03Z</time></trkpt><trkpt lat="42.565513" lon="-2.584732"><ele>651.0</ele><time>2011-11-30T09:21:04Z</time></trkpt><trkpt lat="42.565525" lon="-2.584738"><ele>651.5</ele><time>2011-11-30T09:21:05Z</time></trkpt><trkpt lat="42.565535" lon="-2.584747"><ele>651.5</ele><time>2011-11-30T09:21:06Z</time></trkpt><trkpt lat="42.565545" lon="-2.584755"><ele>651.5</ele><time>2011-11-30T09:21:07Z</time></trkpt><trkpt lat="42.565555" lon="-2.584762"><ele>651.0</ele><time>2011-11-30T09:21:08Z</time></trkpt><trkpt lat="42.565567" lon="-2.584772"><ele>651.5</ele><time>2011-11-30T09:21:09Z</time></trkpt><trkpt lat="42.565580" lon="-2.584782"><ele>651.5</ele><time>2011-11-30T09:21:10Z</time></trkpt><trkpt lat="42.565590" lon="-2.584792"><ele>651.5</ele><time>2011-11-30T09:21:11Z</time></trkpt><trkpt lat="42.565602" lon="-2.584800"><ele>651.5</ele><time>2011-11-30T09:21:12Z</time></trkpt><trkpt lat="42.565612" lon="-2.584805"><ele>651.5</ele><time>2011-11-30T09:21:13Z</time></trkpt><trkpt lat="42.565625" lon="-2.584810"><ele>651.5</ele><time>2011-11-30T09:21:14Z</time></trkpt><trkpt lat="42.565637" lon="-2.584817"><ele>651.5</ele><time>2011-11-30T09:21:15Z</time></trkpt><trkpt lat="42.565648" lon="-2.584822"><ele>651.5</ele><time>2011-11-30T09:21:16Z</time></trkpt><trkpt lat="42.565660" lon="-2.584825"><ele>651.5</ele><time>2011-11-30T09:21:17Z</time></trkpt><trkpt lat="42.565673" lon="-2.584830"><ele>651.5</ele><time>2011-11-30T09:21:18Z</time></trkpt><trkpt lat="42.565685" lon="-2.584837"><ele>651.5</ele><time>2011-11-30T09:21:19Z</time></trkpt><trkpt lat="42.565698" lon="-2.584843"><ele>651.5</ele><time>2011-11-30T09:21:20Z</time></trkpt><trkpt lat="42.565713" lon="-2.584853"><ele>651.5</ele><time>2011-11-30T09:21:21Z</time></trkpt><trkpt lat="42.565725" lon="-2.584862"><ele>652.0</ele><time>2011-11-30T09:21:22Z</time></trkpt><trkpt lat="42.565738" lon="-2.584870"><ele>652.0</ele><time>2011-11-30T09:21:23Z</time></trkpt><trkpt lat="42.565752" lon="-2.584875"><ele>652.0</ele><time>2011-11-30T09:21:24Z</time></trkpt><trkpt lat="42.565765" lon="-2.584880"><ele>652.0</ele><time>2011-11-30T09:21:25Z</time></trkpt><trkpt lat="42.565777" lon="-2.584885"><ele>652.0</ele><time>2011-11-30T09:21:26Z</time></trkpt><trkpt lat="42.565790" lon="-2.584890"><ele>652.0</ele><time>2011-11-30T09:21:27Z</time></trkpt><trkpt lat="42.565803" lon="-2.584895"><ele>652.0</ele><time>2011-11-30T09:21:28Z</time></trkpt><trkpt lat="42.565812" lon="-2.584900"><ele>652.0</ele><time>2011-11-30T09:21:29Z</time></trkpt><trkpt lat="42.565818" lon="-2.584905"><ele>652.0</ele><time>2011-11-30T09:21:30Z</time></trkpt><trkpt lat="42.565827" lon="-2.584910"><ele>651.5</ele><time>2011-11-30T09:21:31Z</time></trkpt><trkpt lat="42.565835" lon="-2.584917"><ele>651.5</ele><time>2011-11-30T09:21:32Z</time></trkpt><trkpt lat="42.565847" lon="-2.584923"><ele>651.5</ele><time>2011-11-30T09:21:33Z</time></trkpt><trkpt lat="42.565860" lon="-2.584925"><ele>651.5</ele><time>2011-11-30T09:21:34Z</time></trkpt><trkpt lat="42.565872" lon="-2.584930"><ele>651.5</ele><time>2011-11-30T09:21:35Z</time></trkpt><trkpt lat="42.565878" lon="-2.584937"><ele>651.0</ele><time>2011-11-30T09:21:36Z</time></trkpt><trkpt lat="42.565888" lon="-2.584938"><ele>651.0</ele><time>2011-11-30T09:21:37Z</time></trkpt><trkpt lat="42.565898" lon="-2.584938"><ele>651.5</ele><time>2011-11-30T09:21:38Z</time></trkpt><trkpt lat="42.565912" lon="-2.584937"><ele>651.5</ele><time>2011-11-30T09:21:39Z</time></trkpt><trkpt lat="42.565923" lon="-2.584937"><ele>652.0</ele><time>2011-11-30T09:21:40Z</time></trkpt><trkpt lat="42.565935" lon="-2.584938"><ele>652.0</ele><time>2011-11-30T09:21:41Z</time></trkpt><trkpt lat="42.565948" lon="-2.584942"><ele>652.0</ele><time>2011-11-30T09:21:42Z</time></trkpt><trkpt lat="42.565962" lon="-2.584945"><ele>652.0</ele><time>2011-11-30T09:21:43Z</time></trkpt><trkpt lat="42.565973" lon="-2.584950"><ele>652.0</ele><time>2011-11-30T09:21:44Z</time></trkpt><trkpt lat="42.565987" lon="-2.584952"><ele>652.0</ele><time>2011-11-30T09:21:45Z</time></trkpt><trkpt lat="42.565998" lon="-2.584953"><ele>652.5</ele><time>2011-11-30T09:21:46Z</time></trkpt><trkpt lat="42.566010" lon="-2.584957"><ele>652.5</ele><time>2011-11-30T09:21:47Z</time></trkpt><trkpt lat="42.566023" lon="-2.584957"><ele>652.5</ele><time>2011-11-30T09:21:48Z</time></trkpt><trkpt lat="42.566033" lon="-2.584960"><ele>652.5</ele><time>2011-11-30T09:21:49Z</time></trkpt><trkpt lat="42.566045" lon="-2.584962"><ele>652.5</ele><time>2011-11-30T09:21:50Z</time></trkpt><trkpt lat="42.566057" lon="-2.584963"><ele>652.5</ele><time>2011-11-30T09:21:51Z</time></trkpt><trkpt lat="42.566065" lon="-2.584967"><ele>652.0</ele><time>2011-11-30T09:21:52Z</time></trkpt><trkpt lat="42.566075" lon="-2.584972"><ele>652.0</ele><time>2011-11-30T09:21:53Z</time></trkpt><trkpt lat="42.566083" lon="-2.584977"><ele>651.5</ele><time>2011-11-30T09:21:54Z</time></trkpt><trkpt lat="42.566090" lon="-2.584983"><ele>651.5</ele><time>2011-11-30T09:21:55Z</time></trkpt><trkpt lat="42.566112" lon="-2.584988"><ele>652.5</ele><time>2011-11-30T09:21:56Z</time></trkpt><trkpt lat="42.566122" lon="-2.584990"><ele>652.5</ele><time>2011-11-30T09:21:57Z</time></trkpt><trkpt lat="42.566137" lon="-2.584992"><ele>652.5</ele><time>2011-11-30T09:21:58Z</time></trkpt><trkpt lat="42.566147" lon="-2.584995"><ele>652.5</ele><time>2011-11-30T09:21:59Z</time></trkpt><trkpt lat="42.566162" lon="-2.584997"><ele>652.5</ele><time>2011-11-30T09:22:00Z</time></trkpt><trkpt lat="42.566175" lon="-2.584998"><ele>652.5</ele><time>2011-11-30T09:22:01Z</time></trkpt><trkpt lat="42.566187" lon="-2.585002"><ele>652.5</ele><time>2011-11-30T09:22:02Z</time></trkpt><trkpt lat="42.566202" lon="-2.585002"><ele>652.5</ele><time>2011-11-30T09:22:03Z</time></trkpt><trkpt lat="42.566217" lon="-2.585003"><ele>652.5</ele><time>2011-11-30T09:22:04Z</time></trkpt><trkpt lat="42.566230" lon="-2.585008"><ele>652.5</ele><time>2011-11-30T09:22:05Z</time></trkpt><trkpt lat="42.566243" lon="-2.585012"><ele>652.5</ele><time>2011-11-30T09:22:06Z</time></trkpt><trkpt lat="42.566258" lon="-2.585018"><ele>652.5</ele><time>2011-11-30T09:22:07Z</time></trkpt><trkpt lat="42.566273" lon="-2.585022"><ele>653.0</ele><time>2011-11-30T09:22:08Z</time></trkpt><trkpt lat="42.566288" lon="-2.585027"><ele>653.0</ele><time>2011-11-30T09:22:09Z</time></trkpt><trkpt lat="42.566302" lon="-2.585033"><ele>653.0</ele><time>2011-11-30T09:22:10Z</time></trkpt><trkpt lat="42.566315" lon="-2.585040"><ele>653.0</ele><time>2011-11-30T09:22:11Z</time></trkpt><trkpt lat="42.566327" lon="-2.585045"><ele>653.0</ele><time>2011-11-30T09:22:12Z</time></trkpt><trkpt lat="42.566340" lon="-2.585052"><ele>653.0</ele><time>2011-11-30T09:22:13Z</time></trkpt><trkpt lat="42.566352" lon="-2.585058"><ele>653.0</ele><time>2011-11-30T09:22:14Z</time></trkpt><trkpt lat="42.566363" lon="-2.585065"><ele>653.0</ele><time>2011-11-30T09:22:15Z</time></trkpt><trkpt lat="42.566375" lon="-2.585072"><ele>653.0</ele><time>2011-11-30T09:22:16Z</time></trkpt><trkpt lat="42.566387" lon="-2.585078"><ele>653.0</ele><time>2011-11-30T09:22:17Z</time></trkpt><trkpt lat="42.566398" lon="-2.585083"><ele>653.0</ele><time>2011-11-30T09:22:18Z</time></trkpt><trkpt lat="42.566410" lon="-2.585088"><ele>653.0</ele><time>2011-11-30T09:22:19Z</time></trkpt><trkpt lat="42.566423" lon="-2.585098"><ele>653.0</ele><time>2011-11-30T09:22:20Z</time></trkpt><trkpt lat="42.566428" lon="-2.585105"><ele>652.5</ele><time>2011-11-30T09:22:21Z</time></trkpt><trkpt lat="42.566450" lon="-2.585115"><ele>652.0</ele><time>2011-11-30T09:22:22Z</time></trkpt><trkpt lat="42.566458" lon="-2.585107"><ele>652.0</ele><time>2011-11-30T09:22:23Z</time></trkpt><trkpt lat="42.566463" lon="-2.585095"><ele>651.5</ele><time>2011-11-30T09:22:24Z</time></trkpt><trkpt lat="42.566477" lon="-2.585088"><ele>651.5</ele><time>2011-11-30T09:22:25Z</time></trkpt><trkpt lat="42.566487" lon="-2.585087"><ele>651.5</ele><time>2011-11-30T09:22:26Z</time></trkpt><trkpt lat="42.566497" lon="-2.585092"><ele>651.5</ele><time>2011-11-30T09:22:27Z</time></trkpt><trkpt lat="42.566505" lon="-2.585100"><ele>651.0</ele><time>2011-11-30T09:22:28Z</time></trkpt><trkpt lat="42.566508" lon="-2.585113"><ele>649.5</ele><time>2011-11-30T09:22:29Z</time></trkpt><trkpt lat="42.566498" lon="-2.585112"><ele>649.5</ele><time>2011-11-30T09:22:30Z</time></trkpt><trkpt lat="42.566485" lon="-2.585105"><ele>650.0</ele><time>2011-11-30T09:22:31Z</time></trkpt><trkpt lat="42.566473" lon="-2.585098"><ele>650.0</ele><time>2011-11-30T09:22:32Z</time></trkpt><trkpt lat="42.566462" lon="-2.585092"><ele>650.0</ele><time>2011-11-30T09:22:33Z</time></trkpt><trkpt lat="42.566450" lon="-2.585088"><ele>650.0</ele><time>2011-11-30T09:22:34Z</time></trkpt><trkpt lat="42.566438" lon="-2.585082"><ele>650.0</ele><time>2011-11-30T09:22:35Z</time></trkpt><trkpt lat="42.566427" lon="-2.585082"><ele>649.5</ele><time>2011-11-30T09:22:36Z</time></trkpt><trkpt lat="42.566417" lon="-2.585083"><ele>649.5</ele><time>2011-11-30T09:22:37Z</time></trkpt><trkpt lat="42.566412" lon="-2.585092"><ele>649.5</ele><time>2011-11-30T09:22:38Z</time></trkpt><trkpt lat="42.566412" lon="-2.585105"><ele>649.0</ele><time>2011-11-30T09:22:39Z</time></trkpt><trkpt lat="42.566412" lon="-2.585117"><ele>648.5</ele><time>2011-11-30T09:22:40Z</time></trkpt><trkpt lat="42.566415" lon="-2.585130"><ele>648.5</ele><time>2011-11-30T09:22:41Z</time></trkpt><trkpt lat="42.566418" lon="-2.585143"><ele>648.5</ele><time>2011-11-30T09:22:42Z</time></trkpt><trkpt lat="42.566422" lon="-2.585155"><ele>648.0</ele><time>2011-11-30T09:22:43Z</time></trkpt><trkpt lat="42.566428" lon="-2.585160"><ele>647.5</ele><time>2011-11-30T09:22:44Z</time></trkpt><trkpt lat="42.566423" lon="-2.585162"><ele>648.5</ele><time>2011-11-30T09:22:45Z</time></trkpt><trkpt lat="42.566415" lon="-2.585160"><ele>649.5</ele><time>2011-11-30T09:22:46Z</time></trkpt><trkpt lat="42.566410" lon="-2.585157"><ele>649.5</ele><time>2011-11-30T09:22:47Z</time></trkpt><trkpt lat="42.566405" lon="-2.585142"><ele>649.0</ele><time>2011-11-30T09:22:48Z</time></trkpt><trkpt lat="42.566415" lon="-2.585147"><ele>649.0</ele><time>2011-11-30T09:22:49Z</time></trkpt><trkpt lat="42.566423" lon="-2.585153"><ele>649.0</ele><time>2011-11-30T09:22:50Z</time></trkpt><trkpt lat="42.566432" lon="-2.585157"><ele>649.0</ele><time>2011-11-30T09:22:51Z</time></trkpt><trkpt lat="42.566443" lon="-2.585158"><ele>649.5</ele><time>2011-11-30T09:22:52Z</time></trkpt><trkpt lat="42.566438" lon="-2.585152"><ele>650.0</ele><time>2011-11-30T09:22:53Z</time></trkpt><trkpt lat="42.566428" lon="-2.585138"><ele>651.5</ele><time>2011-11-30T09:22:54Z</time></trkpt><trkpt lat="42.566420" lon="-2.585135"><ele>651.5</ele><time>2011-11-30T09:22:55Z</time></trkpt><trkpt lat="42.566413" lon="-2.585135"><ele>651.5</ele><time>2011-11-30T09:22:56Z</time></trkpt><trkpt lat="42.566407" lon="-2.585135"><ele>651.5</ele><time>2011-11-30T09:22:57Z</time></trkpt><trkpt lat="42.566400" lon="-2.585132"><ele>651.5</ele><time>2011-11-30T09:22:58Z</time></trkpt><trkpt lat="42.566397" lon="-2.585125"><ele>650.5</ele><time>2011-11-30T09:22:59Z</time></trkpt><trkpt lat="42.566393" lon="-2.585108"><ele>650.0</ele><time>2011-11-30T09:23:00Z</time></trkpt><trkpt lat="42.566395" lon="-2.585095"><ele>650.0</ele><time>2011-11-30T09:23:01Z</time></trkpt><trkpt lat="42.566402" lon="-2.585087"><ele>650.0</ele><time>2011-11-30T09:23:02Z</time></trkpt><trkpt lat="42.566408" lon="-2.585082"><ele>649.5</ele><time>2011-11-30T09:23:03Z</time></trkpt><trkpt lat="42.566418" lon="-2.585083"><ele>649.0</ele><time>2011-11-30T09:23:04Z</time></trkpt><trkpt lat="42.566430" lon="-2.585087"><ele>649.0</ele><time>2011-11-30T09:23:05Z</time></trkpt><trkpt lat="42.566443" lon="-2.585092"><ele>649.0</ele><time>2011-11-30T09:23:06Z</time></trkpt><trkpt lat="42.566457" lon="-2.585097"><ele>649.0</ele><time>2011-11-30T09:23:07Z</time></trkpt><trkpt lat="42.566470" lon="-2.585100"><ele>648.5</ele><time>2011-11-30T09:23:08Z</time></trkpt><trkpt lat="42.566482" lon="-2.585103"><ele>648.5</ele><time>2011-11-30T09:23:09Z</time></trkpt><trkpt lat="42.566495" lon="-2.585108"><ele>648.5</ele><time>2011-11-30T09:23:10Z</time></trkpt><trkpt lat="42.566508" lon="-2.585113"><ele>648.5</ele><time>2011-11-30T09:23:11Z</time></trkpt><trkpt lat="42.566522" lon="-2.585118"><ele>648.5</ele><time>2011-11-30T09:23:12Z</time></trkpt><trkpt lat="42.566535" lon="-2.585122"><ele>648.5</ele><time>2011-11-30T09:23:13Z</time></trkpt><trkpt lat="42.566547" lon="-2.585127"><ele>648.5</ele><time>2011-11-30T09:23:14Z</time></trkpt><trkpt lat="42.566560" lon="-2.585132"><ele>648.5</ele><time>2011-11-30T09:23:15Z</time></trkpt><trkpt lat="42.566573" lon="-2.585133"><ele>648.5</ele><time>2011-11-30T09:23:16Z</time></trkpt><trkpt lat="42.566585" lon="-2.585138"><ele>648.5</ele><time>2011-11-30T09:23:17Z</time></trkpt><trkpt lat="42.566598" lon="-2.585143"><ele>648.5</ele><time>2011-11-30T09:23:18Z</time></trkpt><trkpt lat="42.566613" lon="-2.585147"><ele>648.0</ele><time>2011-11-30T09:23:19Z</time></trkpt><trkpt lat="42.566628" lon="-2.585150"><ele>648.0</ele><time>2011-11-30T09:23:20Z</time></trkpt><trkpt lat="42.566642" lon="-2.585153"><ele>647.5</ele><time>2011-11-30T09:23:21Z</time></trkpt><trkpt lat="42.566657" lon="-2.585155"><ele>647.5</ele><time>2011-11-30T09:23:22Z</time></trkpt><trkpt lat="42.566668" lon="-2.585160"><ele>647.5</ele><time>2011-11-30T09:23:23Z</time></trkpt><trkpt lat="42.566682" lon="-2.585163"><ele>647.5</ele><time>2011-11-30T09:23:24Z</time></trkpt><trkpt lat="42.566693" lon="-2.585167"><ele>647.5</ele><time>2011-11-30T09:23:25Z</time></trkpt><trkpt lat="42.566707" lon="-2.585170"><ele>647.5</ele><time>2011-11-30T09:23:26Z</time></trkpt><trkpt lat="42.566720" lon="-2.585172"><ele>647.5</ele><time>2011-11-30T09:23:27Z</time></trkpt><trkpt lat="42.566733" lon="-2.585172"><ele>647.5</ele><time>2011-11-30T09:23:28Z</time></trkpt><trkpt lat="42.566747" lon="-2.585168"><ele>647.5</ele><time>2011-11-30T09:23:29Z</time></trkpt><trkpt lat="42.566760" lon="-2.585168"><ele>648.0</ele><time>2011-11-30T09:23:30Z</time></trkpt><trkpt lat="42.566770" lon="-2.585170"><ele>648.0</ele><time>2011-11-30T09:23:31Z</time></trkpt><trkpt lat="42.566783" lon="-2.585175"><ele>648.0</ele><time>2011-11-30T09:23:32Z</time></trkpt><trkpt lat="42.566798" lon="-2.585180"><ele>647.5</ele><time>2011-11-30T09:23:33Z</time></trkpt><trkpt lat="42.566813" lon="-2.585182"><ele>648.0</ele><time>2011-11-30T09:23:34Z</time></trkpt><trkpt lat="42.566828" lon="-2.585185"><ele>648.0</ele><time>2011-11-30T09:23:35Z</time></trkpt><trkpt lat="42.566842" lon="-2.585187"><ele>648.0</ele><time>2011-11-30T09:23:36Z</time></trkpt><trkpt lat="42.566857" lon="-2.585187"><ele>648.0</ele><time>2011-11-30T09:23:37Z</time></trkpt><trkpt lat="42.566872" lon="-2.585188"><ele>648.0</ele><time>2011-11-30T09:23:38Z</time></trkpt><trkpt lat="42.566883" lon="-2.585192"><ele>648.0</ele><time>2011-11-30T09:23:39Z</time></trkpt><trkpt lat="42.566895" lon="-2.585197"><ele>648.5</ele><time>2011-11-30T09:23:40Z</time></trkpt><trkpt lat="42.566908" lon="-2.585200"><ele>648.5</ele><time>2011-11-30T09:23:41Z</time></trkpt><trkpt lat="42.566922" lon="-2.585203"><ele>648.5</ele><time>2011-11-30T09:23:42Z</time></trkpt><trkpt lat="42.566935" lon="-2.585205"><ele>648.5</ele><time>2011-11-30T09:23:43Z</time></trkpt><trkpt lat="42.566948" lon="-2.585207"><ele>648.5</ele><time>2011-11-30T09:23:44Z</time></trkpt><trkpt lat="42.566963" lon="-2.585207"><ele>648.5</ele><time>2011-11-30T09:23:45Z</time></trkpt><trkpt lat="42.566978" lon="-2.585207"><ele>648.5</ele><time>2011-11-30T09:23:46Z</time></trkpt><trkpt lat="42.566993" lon="-2.585208"><ele>648.5</ele><time>2011-11-30T09:23:47Z</time></trkpt><trkpt lat="42.567008" lon="-2.585213"><ele>649.0</ele><time>2011-11-30T09:23:48Z</time></trkpt><trkpt lat="42.567020" lon="-2.585217"><ele>648.5</ele><time>2011-11-30T09:23:49Z</time></trkpt><trkpt lat="42.567033" lon="-2.585218"><ele>649.0</ele><time>2011-11-30T09:23:50Z</time></trkpt><trkpt lat="42.567047" lon="-2.585218"><ele>649.0</ele><time>2011-11-30T09:23:51Z</time></trkpt><trkpt lat="42.567060" lon="-2.585218"><ele>649.0</ele><time>2011-11-30T09:23:52Z</time></trkpt><trkpt lat="42.567075" lon="-2.585220"><ele>649.0</ele><time>2011-11-30T09:23:53Z</time></trkpt><trkpt lat="42.567090" lon="-2.585222"><ele>649.0</ele><time>2011-11-30T09:23:54Z</time></trkpt><trkpt lat="42.567105" lon="-2.585225"><ele>649.0</ele><time>2011-11-30T09:23:55Z</time></trkpt><trkpt lat="42.567118" lon="-2.585228"><ele>649.0</ele><time>2011-11-30T09:23:56Z</time></trkpt><trkpt lat="42.567128" lon="-2.585232"><ele>649.5</ele><time>2011-11-30T09:23:57Z</time></trkpt><trkpt lat="42.567133" lon="-2.585232"><ele>649.5</ele><time>2011-11-30T09:23:58Z</time></trkpt><trkpt lat="42.567140" lon="-2.585233"><ele>649.5</ele><time>2011-11-30T09:23:59Z</time></trkpt><trkpt lat="42.567152" lon="-2.585237"><ele>649.5</ele><time>2011-11-30T09:24:00Z</time></trkpt><trkpt lat="42.567165" lon="-2.585243"><ele>650.0</ele><time>2011-11-30T09:24:01Z</time></trkpt><trkpt lat="42.567178" lon="-2.585247"><ele>650.0</ele><time>2011-11-30T09:24:02Z</time></trkpt><trkpt lat="42.567190" lon="-2.585250"><ele>650.0</ele><time>2011-11-30T09:24:03Z</time></trkpt><trkpt lat="42.567207" lon="-2.585252"><ele>650.0</ele><time>2011-11-30T09:24:04Z</time></trkpt><trkpt lat="42.567222" lon="-2.585257"><ele>650.0</ele><time>2011-11-30T09:24:05Z</time></trkpt><trkpt lat="42.567237" lon="-2.585262"><ele>650.0</ele><time>2011-11-30T09:24:06Z</time></trkpt><trkpt lat="42.567250" lon="-2.585263"><ele>650.5</ele><time>2011-11-30T09:24:07Z</time></trkpt><trkpt lat="42.567263" lon="-2.585265"><ele>650.5</ele><time>2011-11-30T09:24:08Z</time></trkpt><trkpt lat="42.567275" lon="-2.585267"><ele>650.5</ele><time>2011-11-30T09:24:09Z</time></trkpt><trkpt lat="42.567290" lon="-2.585268"><ele>650.5</ele><time>2011-11-30T09:24:10Z</time></trkpt><trkpt lat="42.567305" lon="-2.585270"><ele>650.5</ele><time>2011-11-30T09:24:11Z</time></trkpt><trkpt lat="42.567320" lon="-2.585272"><ele>650.5</ele><time>2011-11-30T09:24:12Z</time></trkpt><trkpt lat="42.567333" lon="-2.585273"><ele>650.5</ele><time>2011-11-30T09:24:13Z</time></trkpt><trkpt lat="42.567348" lon="-2.585277"><ele>650.5</ele><time>2011-11-30T09:24:14Z</time></trkpt><trkpt lat="42.567362" lon="-2.585280"><ele>650.5</ele><time>2011-11-30T09:24:15Z</time></trkpt><trkpt lat="42.567377" lon="-2.585285"><ele>650.5</ele><time>2011-11-30T09:24:16Z</time></trkpt><trkpt lat="42.567388" lon="-2.585292"><ele>650.5</ele><time>2011-11-30T09:24:17Z</time></trkpt><trkpt lat="42.567402" lon="-2.585295"><ele>650.5</ele><time>2011-11-30T09:24:18Z</time></trkpt><trkpt lat="42.567415" lon="-2.585297"><ele>650.5</ele><time>2011-11-30T09:24:19Z</time></trkpt><trkpt lat="42.567427" lon="-2.585298"><ele>651.0</ele><time>2011-11-30T09:24:20Z</time></trkpt><trkpt lat="42.567442" lon="-2.585300"><ele>651.0</ele><time>2011-11-30T09:24:21Z</time></trkpt><trkpt lat="42.567455" lon="-2.585300"><ele>651.0</ele><time>2011-11-30T09:24:22Z</time></trkpt><trkpt lat="42.567470" lon="-2.585302"><ele>651.0</ele><time>2011-11-30T09:24:23Z</time></trkpt><trkpt lat="42.567483" lon="-2.585303"><ele>651.0</ele><time>2011-11-30T09:24:24Z</time></trkpt><trkpt lat="42.567498" lon="-2.585305"><ele>651.0</ele><time>2011-11-30T09:24:25Z</time></trkpt><trkpt lat="42.567512" lon="-2.585307"><ele>651.0</ele><time>2011-11-30T09:24:26Z</time></trkpt><trkpt lat="42.567525" lon="-2.585310"><ele>651.0</ele><time>2011-11-30T09:24:27Z</time></trkpt><trkpt lat="42.567538" lon="-2.585315"><ele>651.0</ele><time>2011-11-30T09:24:28Z</time></trkpt><trkpt lat="42.567553" lon="-2.585318"><ele>651.0</ele><time>2011-11-30T09:24:29Z</time></trkpt><trkpt lat="42.567568" lon="-2.585318"><ele>651.0</ele><time>2011-11-30T09:24:30Z</time></trkpt><trkpt lat="42.567582" lon="-2.585320"><ele>651.5</ele><time>2011-11-30T09:24:31Z</time></trkpt><trkpt lat="42.567593" lon="-2.585325"><ele>651.5</ele><time>2011-11-30T09:24:32Z</time></trkpt><trkpt lat="42.567607" lon="-2.585330"><ele>651.5</ele><time>2011-11-30T09:24:33Z</time></trkpt><trkpt lat="42.567618" lon="-2.585332"><ele>651.5</ele><time>2011-11-30T09:24:34Z</time></trkpt><trkpt lat="42.567632" lon="-2.585335"><ele>651.5</ele><time>2011-11-30T09:24:35Z</time></trkpt><trkpt lat="42.567647" lon="-2.585338"><ele>651.5</ele><time>2011-11-30T09:24:36Z</time></trkpt><trkpt lat="42.567658" lon="-2.585340"><ele>651.5</ele><time>2011-11-30T09:24:37Z</time></trkpt><trkpt lat="42.567670" lon="-2.585342"><ele>652.0</ele><time>2011-11-30T09:24:38Z</time></trkpt><trkpt lat="42.567682" lon="-2.585345"><ele>652.0</ele><time>2011-11-30T09:24:39Z</time></trkpt><trkpt lat="42.567695" lon="-2.585347"><ele>652.0</ele><time>2011-11-30T09:24:40Z</time></trkpt><trkpt lat="42.567708" lon="-2.585347"><ele>652.5</ele><time>2011-11-30T09:24:41Z</time></trkpt><trkpt lat="42.567722" lon="-2.585350"><ele>652.5</ele><time>2011-11-30T09:24:42Z</time></trkpt><trkpt lat="42.567732" lon="-2.585352"><ele>653.0</ele><time>2011-11-30T09:24:43Z</time></trkpt><trkpt lat="42.567747" lon="-2.585355"><ele>653.0</ele><time>2011-11-30T09:24:44Z</time></trkpt><trkpt lat="42.567760" lon="-2.585357"><ele>653.5</ele><time>2011-11-30T09:24:45Z</time></trkpt><trkpt lat="42.567772" lon="-2.585358"><ele>653.5</ele><time>2011-11-30T09:24:46Z</time></trkpt><trkpt lat="42.567787" lon="-2.585358"><ele>654.0</ele><time>2011-11-30T09:24:47Z</time></trkpt><trkpt lat="42.567800" lon="-2.585358"><ele>654.5</ele><time>2011-11-30T09:24:48Z</time></trkpt><trkpt lat="42.567813" lon="-2.585362"><ele>654.5</ele><time>2011-11-30T09:24:49Z</time></trkpt><trkpt lat="42.567828" lon="-2.585363"><ele>655.0</ele><time>2011-11-30T09:24:50Z</time></trkpt><trkpt lat="42.567842" lon="-2.585367"><ele>655.0</ele><time>2011-11-30T09:24:51Z</time></trkpt><trkpt lat="42.567855" lon="-2.585367"><ele>655.5</ele><time>2011-11-30T09:24:52Z</time></trkpt><trkpt lat="42.567868" lon="-2.585368"><ele>655.5</ele><time>2011-11-30T09:24:53Z</time></trkpt><trkpt lat="42.567882" lon="-2.585370"><ele>656.0</ele><time>2011-11-30T09:24:54Z</time></trkpt><trkpt lat="42.567895" lon="-2.585372"><ele>656.0</ele><time>2011-11-30T09:24:55Z</time></trkpt><trkpt lat="42.567908" lon="-2.585373"><ele>656.5</ele><time>2011-11-30T09:24:56Z</time></trkpt><trkpt lat="42.567920" lon="-2.585377"><ele>656.5</ele><time>2011-11-30T09:24:57Z</time></trkpt><trkpt lat="42.567933" lon="-2.585382"><ele>657.0</ele><time>2011-11-30T09:24:58Z</time></trkpt><trkpt lat="42.567948" lon="-2.585383"><ele>657.0</ele><time>2011-11-30T09:24:59Z</time></trkpt><trkpt lat="42.567963" lon="-2.585383"><ele>657.0</ele><time>2011-11-30T09:25:00Z</time></trkpt><trkpt lat="42.567977" lon="-2.585383"><ele>656.5</ele><time>2011-11-30T09:25:01Z</time></trkpt><trkpt lat="42.567988" lon="-2.585383"><ele>657.0</ele><time>2011-11-30T09:25:02Z</time></trkpt><trkpt lat="42.568005" lon="-2.585385"><ele>657.0</ele><time>2011-11-30T09:25:03Z</time></trkpt><trkpt lat="42.568018" lon="-2.585387"><ele>657.0</ele><time>2011-11-30T09:25:04Z</time></trkpt><trkpt lat="42.568030" lon="-2.585388"><ele>657.0</ele><time>2011-11-30T09:25:05Z</time></trkpt><trkpt lat="42.568043" lon="-2.585388"><ele>657.0</ele><time>2011-11-30T09:25:06Z</time></trkpt><trkpt lat="42.568055" lon="-2.585392"><ele>657.0</ele><time>2011-11-30T09:25:07Z</time></trkpt><trkpt lat="42.568065" lon="-2.585393"><ele>657.0</ele><time>2011-11-30T09:25:08Z</time></trkpt><trkpt lat="42.568075" lon="-2.585392"><ele>657.5</ele><time>2011-11-30T09:25:09Z</time></trkpt><trkpt lat="42.568087" lon="-2.585393"><ele>657.5</ele><time>2011-11-30T09:25:10Z</time></trkpt><trkpt lat="42.568097" lon="-2.585393"><ele>657.5</ele><time>2011-11-30T09:25:11Z</time></trkpt><trkpt lat="42.568108" lon="-2.585395"><ele>657.5</ele><time>2011-11-30T09:25:12Z</time></trkpt><trkpt lat="42.568120" lon="-2.585393"><ele>657.5</ele><time>2011-11-30T09:25:13Z</time></trkpt><trkpt lat="42.568130" lon="-2.585392"><ele>657.5</ele><time>2011-11-30T09:25:14Z</time></trkpt><trkpt lat="42.568145" lon="-2.585392"><ele>657.0</ele><time>2011-11-30T09:25:15Z</time></trkpt><trkpt lat="42.568155" lon="-2.585390"><ele>657.0</ele><time>2011-11-30T09:25:16Z</time></trkpt><trkpt lat="42.568167" lon="-2.585388"><ele>657.0</ele><time>2011-11-30T09:25:17Z</time></trkpt><trkpt lat="42.568178" lon="-2.585387"><ele>657.0</ele><time>2011-11-30T09:25:18Z</time></trkpt><trkpt lat="42.568190" lon="-2.585385"><ele>657.0</ele><time>2011-11-30T09:25:19Z</time></trkpt><trkpt lat="42.568203" lon="-2.585387"><ele>657.0</ele><time>2011-11-30T09:25:20Z</time></trkpt><trkpt lat="42.568220" lon="-2.585387"><ele>657.0</ele><time>2011-11-30T09:25:21Z</time></trkpt><trkpt lat="42.568233" lon="-2.585388"><ele>657.0</ele><time>2011-11-30T09:25:22Z</time></trkpt><trkpt lat="42.568245" lon="-2.585388"><ele>657.0</ele><time>2011-11-30T09:25:23Z</time></trkpt><trkpt lat="42.568258" lon="-2.585387"><ele>656.5</ele><time>2011-11-30T09:25:24Z</time></trkpt><trkpt lat="42.568273" lon="-2.585388"><ele>656.5</ele><time>2011-11-30T09:25:25Z</time></trkpt><trkpt lat="42.568285" lon="-2.585390"><ele>656.5</ele><time>2011-11-30T09:25:26Z</time></trkpt><trkpt lat="42.568298" lon="-2.585392"><ele>656.5</ele><time>2011-11-30T09:25:27Z</time></trkpt><trkpt lat="42.568312" lon="-2.585397"><ele>656.5</ele><time>2011-11-30T09:25:28Z</time></trkpt><trkpt lat="42.568327" lon="-2.585397"><ele>656.5</ele><time>2011-11-30T09:25:29Z</time></trkpt><trkpt lat="42.568342" lon="-2.585397"><ele>657.0</ele><time>2011-11-30T09:25:30Z</time></trkpt><trkpt lat="42.568357" lon="-2.585397"><ele>657.0</ele><time>2011-11-30T09:25:31Z</time></trkpt><trkpt lat="42.568372" lon="-2.585398"><ele>656.5</ele><time>2011-11-30T09:25:32Z</time></trkpt><trkpt lat="42.568390" lon="-2.585397"><ele>656.5</ele><time>2011-11-30T09:25:33Z</time></trkpt><trkpt lat="42.568402" lon="-2.585395"><ele>656.5</ele><time>2011-11-30T09:25:34Z</time></trkpt><trkpt lat="42.568415" lon="-2.585393"><ele>656.0</ele><time>2011-11-30T09:25:35Z</time></trkpt><trkpt lat="42.568430" lon="-2.585395"><ele>656.0</ele><time>2011-11-30T09:25:36Z</time></trkpt><trkpt lat="42.568443" lon="-2.585395"><ele>655.5</ele><time>2011-11-30T09:25:37Z</time></trkpt><trkpt lat="42.568458" lon="-2.585398"><ele>656.0</ele><time>2011-11-30T09:25:38Z</time></trkpt><trkpt lat="42.568475" lon="-2.585400"><ele>656.0</ele><time>2011-11-30T09:25:39Z</time></trkpt><trkpt lat="42.568490" lon="-2.585402"><ele>656.0</ele><time>2011-11-30T09:25:40Z</time></trkpt><trkpt lat="42.568505" lon="-2.585403"><ele>655.5</ele><time>2011-11-30T09:25:41Z</time></trkpt><trkpt lat="42.568517" lon="-2.585403"><ele>655.5</ele><time>2011-11-30T09:25:42Z</time></trkpt><trkpt lat="42.568530" lon="-2.585407"><ele>656.0</ele><time>2011-11-30T09:25:43Z</time></trkpt><trkpt lat="42.568543" lon="-2.585407"><ele>655.5</ele><time>2011-11-30T09:25:44Z</time></trkpt><trkpt lat="42.568555" lon="-2.585407"><ele>655.5</ele><time>2011-11-30T09:25:45Z</time></trkpt><trkpt lat="42.568568" lon="-2.585405"><ele>655.0</ele><time>2011-11-30T09:25:46Z</time></trkpt><trkpt lat="42.568582" lon="-2.585403"><ele>655.0</ele><time>2011-11-30T09:25:47Z</time></trkpt><trkpt lat="42.568593" lon="-2.585402"><ele>655.0</ele><time>2011-11-30T09:25:48Z</time></trkpt><trkpt lat="42.568603" lon="-2.585403"><ele>655.0</ele><time>2011-11-30T09:25:49Z</time></trkpt><trkpt lat="42.568610" lon="-2.585403"><ele>655.0</ele><time>2011-11-30T09:25:50Z</time></trkpt><trkpt lat="42.568622" lon="-2.585412"><ele>655.0</ele><time>2011-11-30T09:25:51Z</time></trkpt><trkpt lat="42.568630" lon="-2.585423"><ele>656.0</ele><time>2011-11-30T09:25:52Z</time></trkpt><trkpt lat="42.568642" lon="-2.585427"><ele>656.0</ele><time>2011-11-30T09:25:53Z</time></trkpt><trkpt lat="42.568652" lon="-2.585427"><ele>656.5</ele><time>2011-11-30T09:25:54Z</time></trkpt><trkpt lat="42.568665" lon="-2.585430"><ele>656.5</ele><time>2011-11-30T09:25:55Z</time></trkpt><trkpt lat="42.568677" lon="-2.585435"><ele>657.0</ele><time>2011-11-30T09:25:56Z</time></trkpt><trkpt lat="42.568690" lon="-2.585440"><ele>657.0</ele><time>2011-11-30T09:25:57Z</time></trkpt><trkpt lat="42.568700" lon="-2.585443"><ele>657.0</ele><time>2011-11-30T09:25:58Z</time></trkpt><trkpt lat="42.568712" lon="-2.585445"><ele>657.5</ele><time>2011-11-30T09:25:59Z</time></trkpt><trkpt lat="42.568720" lon="-2.585450"><ele>657.5</ele><time>2011-11-30T09:26:00Z</time></trkpt><trkpt lat="42.568725" lon="-2.585453"><ele>657.5</ele><time>2011-11-30T09:26:01Z</time></trkpt><trkpt lat="42.568742" lon="-2.585445"><ele>657.0</ele><time>2011-11-30T09:26:02Z</time></trkpt><trkpt lat="42.568757" lon="-2.585448"><ele>657.5</ele><time>2011-11-30T09:26:03Z</time></trkpt><trkpt lat="42.568768" lon="-2.585452"><ele>657.5</ele><time>2011-11-30T09:26:04Z</time></trkpt><trkpt lat="42.568783" lon="-2.585443"><ele>656.0</ele><time>2011-11-30T09:26:05Z</time></trkpt><trkpt lat="42.568795" lon="-2.585448"><ele>656.0</ele><time>2011-11-30T09:26:06Z</time></trkpt><trkpt lat="42.568808" lon="-2.585458"><ele>656.5</ele><time>2011-11-30T09:26:07Z</time></trkpt><trkpt lat="42.568822" lon="-2.585467"><ele>656.5</ele><time>2011-11-30T09:26:08Z</time></trkpt><trkpt lat="42.568837" lon="-2.585475"><ele>657.0</ele><time>2011-11-30T09:26:09Z</time></trkpt><trkpt lat="42.568850" lon="-2.585485"><ele>657.5</ele><time>2011-11-30T09:26:10Z</time></trkpt><trkpt lat="42.568867" lon="-2.585493"><ele>657.5</ele><time>2011-11-30T09:26:11Z</time></trkpt><trkpt lat="42.568880" lon="-2.585502"><ele>658.0</ele><time>2011-11-30T09:26:12Z</time></trkpt><trkpt lat="42.568892" lon="-2.585510"><ele>658.0</ele><time>2011-11-30T09:26:13Z</time></trkpt><trkpt lat="42.568905" lon="-2.585522"><ele>658.5</ele><time>2011-11-30T09:26:14Z</time></trkpt><trkpt lat="42.568917" lon="-2.585532"><ele>658.5</ele><time>2011-11-30T09:26:15Z</time></trkpt><trkpt lat="42.568930" lon="-2.585540"><ele>659.0</ele><time>2011-11-30T09:26:16Z</time></trkpt><trkpt lat="42.568945" lon="-2.585547"><ele>659.0</ele><time>2011-11-30T09:26:17Z</time></trkpt><trkpt lat="42.568958" lon="-2.585555"><ele>659.0</ele><time>2011-11-30T09:26:18Z</time></trkpt><trkpt lat="42.568970" lon="-2.585565"><ele>659.5</ele><time>2011-11-30T09:26:19Z</time></trkpt><trkpt lat="42.568980" lon="-2.585577"><ele>659.5</ele><time>2011-11-30T09:26:20Z</time></trkpt><trkpt lat="42.568992" lon="-2.585585"><ele>659.5</ele><time>2011-11-30T09:26:21Z</time></trkpt><trkpt lat="42.569003" lon="-2.585592"><ele>659.5</ele><time>2011-11-30T09:26:22Z</time></trkpt><trkpt lat="42.569012" lon="-2.585595"><ele>659.0</ele><time>2011-11-30T09:26:23Z</time></trkpt><trkpt lat="42.569015" lon="-2.585605"><ele>659.0</ele><time>2011-11-30T09:26:24Z</time></trkpt><trkpt lat="42.569028" lon="-2.585620"><ele>659.5</ele><time>2011-11-30T09:26:25Z</time></trkpt><trkpt lat="42.569040" lon="-2.585627"><ele>659.5</ele><time>2011-11-30T09:26:26Z</time></trkpt><trkpt lat="42.569053" lon="-2.585633"><ele>660.0</ele><time>2011-11-30T09:26:27Z</time></trkpt><trkpt lat="42.569068" lon="-2.585638"><ele>660.0</ele><time>2011-11-30T09:26:28Z</time></trkpt><trkpt lat="42.569080" lon="-2.585647"><ele>660.0</ele><time>2011-11-30T09:26:29Z</time></trkpt><trkpt lat="42.569092" lon="-2.585657"><ele>660.0</ele><time>2011-11-30T09:26:30Z</time></trkpt><trkpt lat="42.569105" lon="-2.585665"><ele>660.5</ele><time>2011-11-30T09:26:31Z</time></trkpt><trkpt lat="42.569117" lon="-2.585672"><ele>660.5</ele><time>2011-11-30T09:26:32Z</time></trkpt><trkpt lat="42.569132" lon="-2.585680"><ele>661.0</ele><time>2011-11-30T09:26:33Z</time></trkpt><trkpt lat="42.569145" lon="-2.585683"><ele>661.0</ele><time>2011-11-30T09:26:34Z</time></trkpt><trkpt lat="42.569157" lon="-2.585682"><ele>661.0</ele><time>2011-11-30T09:26:35Z</time></trkpt><trkpt lat="42.569168" lon="-2.585677"><ele>660.5</ele><time>2011-11-30T09:26:36Z</time></trkpt><trkpt lat="42.569178" lon="-2.585678"><ele>661.0</ele><time>2011-11-30T09:26:37Z</time></trkpt><trkpt lat="42.569188" lon="-2.585682"><ele>661.0</ele><time>2011-11-30T09:26:38Z</time></trkpt><trkpt lat="42.569200" lon="-2.585683"><ele>660.5</ele><time>2011-11-30T09:26:39Z</time></trkpt><trkpt lat="42.569212" lon="-2.585688"><ele>661.0</ele><time>2011-11-30T09:26:40Z</time></trkpt><trkpt lat="42.569222" lon="-2.585697"><ele>661.0</ele><time>2011-11-30T09:26:41Z</time></trkpt><trkpt lat="42.569233" lon="-2.585703"><ele>661.5</ele><time>2011-11-30T09:26:42Z</time></trkpt><trkpt lat="42.569247" lon="-2.585710"><ele>661.5</ele><time>2011-11-30T09:26:43Z</time></trkpt><trkpt lat="42.569258" lon="-2.585720"><ele>661.5</ele><time>2011-11-30T09:26:44Z</time></trkpt><trkpt lat="42.569270" lon="-2.585727"><ele>662.0</ele><time>2011-11-30T09:26:45Z</time></trkpt><trkpt lat="42.569278" lon="-2.585738"><ele>662.0</ele><time>2011-11-30T09:26:46Z</time></trkpt><trkpt lat="42.569287" lon="-2.585747"><ele>662.0</ele><time>2011-11-30T09:26:47Z</time></trkpt><trkpt lat="42.569300" lon="-2.585753"><ele>662.0</ele><time>2011-11-30T09:26:48Z</time></trkpt><trkpt lat="42.569315" lon="-2.585760"><ele>662.0</ele><time>2011-11-30T09:26:49Z</time></trkpt><trkpt lat="42.569328" lon="-2.585765"><ele>662.5</ele><time>2011-11-30T09:26:50Z</time></trkpt><trkpt lat="42.569342" lon="-2.585773"><ele>662.5</ele><time>2011-11-30T09:26:51Z</time></trkpt><trkpt lat="42.569352" lon="-2.585783"><ele>662.5</ele><time>2011-11-30T09:26:52Z</time></trkpt><trkpt lat="42.569363" lon="-2.585793"><ele>662.5</ele><time>2011-11-30T09:26:53Z</time></trkpt><trkpt lat="42.569377" lon="-2.585800"><ele>663.0</ele><time>2011-11-30T09:26:54Z</time></trkpt><trkpt lat="42.569388" lon="-2.585807"><ele>663.0</ele><time>2011-11-30T09:26:55Z</time></trkpt><trkpt lat="42.569400" lon="-2.585820"><ele>663.0</ele><time>2011-11-30T09:26:56Z</time></trkpt><trkpt lat="42.569410" lon="-2.585825"><ele>663.0</ele><time>2011-11-30T09:26:57Z</time></trkpt><trkpt lat="42.569422" lon="-2.585832"><ele>663.0</ele><time>2011-11-30T09:26:58Z</time></trkpt><trkpt lat="42.569435" lon="-2.585837"><ele>663.5</ele><time>2011-11-30T09:26:59Z</time></trkpt><trkpt lat="42.569448" lon="-2.585845"><ele>663.5</ele><time>2011-11-30T09:27:00Z</time></trkpt><trkpt lat="42.569460" lon="-2.585858"><ele>664.0</ele><time>2011-11-30T09:27:01Z</time></trkpt><trkpt lat="42.569472" lon="-2.585868"><ele>664.0</ele><time>2011-11-30T09:27:02Z</time></trkpt><trkpt lat="42.569483" lon="-2.585880"><ele>664.0</ele><time>2011-11-30T09:27:03Z</time></trkpt><trkpt lat="42.569495" lon="-2.585892"><ele>664.0</ele><time>2011-11-30T09:27:04Z</time></trkpt><trkpt lat="42.569507" lon="-2.585900"><ele>664.5</ele><time>2011-11-30T09:27:05Z</time></trkpt><trkpt lat="42.569518" lon="-2.585912"><ele>664.5</ele><time>2011-11-30T09:27:06Z</time></trkpt><trkpt lat="42.569530" lon="-2.585922"><ele>664.5</ele><time>2011-11-30T09:27:07Z</time></trkpt><trkpt lat="42.569542" lon="-2.585932"><ele>664.5</ele><time>2011-11-30T09:27:08Z</time></trkpt><trkpt lat="42.569552" lon="-2.585943"><ele>664.5</ele><time>2011-11-30T09:27:09Z</time></trkpt><trkpt lat="42.569562" lon="-2.585953"><ele>664.5</ele><time>2011-11-30T09:27:10Z</time></trkpt><trkpt lat="42.569572" lon="-2.585968"><ele>664.5</ele><time>2011-11-30T09:27:11Z</time></trkpt><trkpt lat="42.569583" lon="-2.585980"><ele>664.5</ele><time>2011-11-30T09:27:12Z</time></trkpt><trkpt lat="42.569595" lon="-2.585990"><ele>664.5</ele><time>2011-11-30T09:27:13Z</time></trkpt><trkpt lat="42.569608" lon="-2.586000"><ele>664.5</ele><time>2011-11-30T09:27:14Z</time></trkpt><trkpt lat="42.569620" lon="-2.586012"><ele>664.5</ele><time>2011-11-30T09:27:15Z</time></trkpt><trkpt lat="42.569632" lon="-2.586022"><ele>665.0</ele><time>2011-11-30T09:27:16Z</time></trkpt><trkpt lat="42.569643" lon="-2.586032"><ele>665.0</ele><time>2011-11-30T09:27:17Z</time></trkpt><trkpt lat="42.569655" lon="-2.586038"><ele>665.0</ele><time>2011-11-30T09:27:18Z</time></trkpt><trkpt lat="42.569667" lon="-2.586045"><ele>665.0</ele><time>2011-11-30T09:27:19Z</time></trkpt><trkpt lat="42.569678" lon="-2.586053"><ele>664.5</ele><time>2011-11-30T09:27:20Z</time></trkpt><trkpt lat="42.569692" lon="-2.586062"><ele>665.0</ele><time>2011-11-30T09:27:21Z</time></trkpt><trkpt lat="42.569703" lon="-2.586068"><ele>665.0</ele><time>2011-11-30T09:27:22Z</time></trkpt><trkpt lat="42.569717" lon="-2.586075"><ele>665.0</ele><time>2011-11-30T09:27:23Z</time></trkpt><trkpt lat="42.569728" lon="-2.586082"><ele>665.5</ele><time>2011-11-30T09:27:24Z</time></trkpt><trkpt lat="42.569742" lon="-2.586087"><ele>665.5</ele><time>2011-11-30T09:27:25Z</time></trkpt><trkpt lat="42.569753" lon="-2.586090"><ele>665.5</ele><time>2011-11-30T09:27:26Z</time></trkpt><trkpt lat="42.569767" lon="-2.586092"><ele>665.5</ele><time>2011-11-30T09:27:27Z</time></trkpt><trkpt lat="42.569782" lon="-2.586090"><ele>665.5</ele><time>2011-11-30T09:27:28Z</time></trkpt><trkpt lat="42.569795" lon="-2.586085"><ele>665.5</ele><time>2011-11-30T09:27:29Z</time></trkpt><trkpt lat="42.569810" lon="-2.586083"><ele>665.5</ele><time>2011-11-30T09:27:30Z</time></trkpt><trkpt lat="42.569823" lon="-2.586085"><ele>665.5</ele><time>2011-11-30T09:27:31Z</time></trkpt><trkpt lat="42.569837" lon="-2.586088"><ele>665.5</ele><time>2011-11-30T09:27:32Z</time></trkpt><trkpt lat="42.569848" lon="-2.586085"><ele>665.5</ele><time>2011-11-30T09:27:33Z</time></trkpt><trkpt lat="42.569862" lon="-2.586080"><ele>665.5</ele><time>2011-11-30T09:27:34Z</time></trkpt><trkpt lat="42.569875" lon="-2.586078"><ele>665.5</ele><time>2011-11-30T09:27:35Z</time></trkpt><trkpt lat="42.569887" lon="-2.586075"><ele>665.5</ele><time>2011-11-30T09:27:36Z</time></trkpt><trkpt lat="42.569902" lon="-2.586070"><ele>665.5</ele><time>2011-11-30T09:27:37Z</time></trkpt><trkpt lat="42.569915" lon="-2.586065"><ele>665.5</ele><time>2011-11-30T09:27:38Z</time></trkpt><trkpt lat="42.569927" lon="-2.586060"><ele>665.5</ele><time>2011-11-30T09:27:39Z</time></trkpt><trkpt lat="42.569942" lon="-2.586058"><ele>665.5</ele><time>2011-11-30T09:27:40Z</time></trkpt><trkpt lat="42.569957" lon="-2.586055"><ele>666.0</ele><time>2011-11-30T09:27:41Z</time></trkpt><trkpt lat="42.569970" lon="-2.586050"><ele>666.0</ele><time>2011-11-30T09:27:42Z</time></trkpt><trkpt lat="42.569983" lon="-2.586043"><ele>666.0</ele><time>2011-11-30T09:27:43Z</time></trkpt><trkpt lat="42.569997" lon="-2.586038"><ele>666.0</ele><time>2011-11-30T09:27:44Z</time></trkpt><trkpt lat="42.570007" lon="-2.586032"><ele>666.0</ele><time>2011-11-30T09:27:45Z</time></trkpt><trkpt lat="42.570020" lon="-2.586027"><ele>665.5</ele><time>2011-11-30T09:27:46Z</time></trkpt><trkpt lat="42.570033" lon="-2.586023"><ele>665.5</ele><time>2011-11-30T09:27:47Z</time></trkpt><trkpt lat="42.570047" lon="-2.586013"><ele>665.0</ele><time>2011-11-30T09:27:48Z</time></trkpt><trkpt lat="42.570052" lon="-2.586002"><ele>664.5</ele><time>2011-11-30T09:27:49Z</time></trkpt><trkpt lat="42.570062" lon="-2.585997"><ele>664.5</ele><time>2011-11-30T09:27:50Z</time></trkpt><trkpt lat="42.570073" lon="-2.585992"><ele>664.5</ele><time>2011-11-30T09:27:51Z</time></trkpt><trkpt lat="42.570088" lon="-2.585985"><ele>664.0</ele><time>2011-11-30T09:27:52Z</time></trkpt><trkpt lat="42.570103" lon="-2.585978"><ele>664.0</ele><time>2011-11-30T09:27:53Z</time></trkpt><trkpt lat="42.570115" lon="-2.585968"><ele>664.0</ele><time>2011-11-30T09:27:54Z</time></trkpt><trkpt lat="42.570128" lon="-2.585958"><ele>664.0</ele><time>2011-11-30T09:27:55Z</time></trkpt><trkpt lat="42.570142" lon="-2.585950"><ele>664.0</ele><time>2011-11-30T09:27:56Z</time></trkpt><trkpt lat="42.570153" lon="-2.585947"><ele>664.0</ele><time>2011-11-30T09:27:57Z</time></trkpt><trkpt lat="42.570168" lon="-2.585940"><ele>664.0</ele><time>2011-11-30T09:27:58Z</time></trkpt><trkpt lat="42.570182" lon="-2.585933"><ele>664.0</ele><time>2011-11-30T09:27:59Z</time></trkpt><trkpt lat="42.570195" lon="-2.585927"><ele>664.0</ele><time>2011-11-30T09:28:00Z</time></trkpt><trkpt lat="42.570207" lon="-2.585918"><ele>664.0</ele><time>2011-11-30T09:28:01Z</time></trkpt><trkpt lat="42.570218" lon="-2.585910"><ele>664.0</ele><time>2011-11-30T09:28:02Z</time></trkpt><trkpt lat="42.570232" lon="-2.585903"><ele>664.0</ele><time>2011-11-30T09:28:03Z</time></trkpt><trkpt lat="42.570248" lon="-2.585897"><ele>664.0</ele><time>2011-11-30T09:28:04Z</time></trkpt><trkpt lat="42.570260" lon="-2.585892"><ele>664.0</ele><time>2011-11-30T09:28:05Z</time></trkpt><trkpt lat="42.570275" lon="-2.585885"><ele>664.0</ele><time>2011-11-30T09:28:06Z</time></trkpt><trkpt lat="42.570288" lon="-2.585880"><ele>664.0</ele><time>2011-11-30T09:28:07Z</time></trkpt><trkpt lat="42.570302" lon="-2.585873"><ele>664.0</ele><time>2011-11-30T09:28:08Z</time></trkpt><trkpt lat="42.570317" lon="-2.585870"><ele>664.0</ele><time>2011-11-30T09:28:09Z</time></trkpt><trkpt lat="42.570327" lon="-2.585865"><ele>664.0</ele><time>2011-11-30T09:28:10Z</time></trkpt><trkpt lat="42.570340" lon="-2.585862"><ele>664.0</ele><time>2011-11-30T09:28:11Z</time></trkpt><trkpt lat="42.570353" lon="-2.585858"><ele>664.0</ele><time>2011-11-30T09:28:12Z</time></trkpt><trkpt lat="42.570367" lon="-2.585855"><ele>664.0</ele><time>2011-11-30T09:28:13Z</time></trkpt><trkpt lat="42.570380" lon="-2.585853"><ele>664.0</ele><time>2011-11-30T09:28:14Z</time></trkpt><trkpt lat="42.570387" lon="-2.585852"><ele>664.0</ele><time>2011-11-30T09:28:15Z</time></trkpt><trkpt lat="42.570397" lon="-2.585848"><ele>664.0</ele><time>2011-11-30T09:28:16Z</time></trkpt><trkpt lat="42.570410" lon="-2.585845"><ele>664.0</ele><time>2011-11-30T09:28:17Z</time></trkpt><trkpt lat="42.570423" lon="-2.585843"><ele>664.0</ele><time>2011-11-30T09:28:18Z</time></trkpt><trkpt lat="42.570437" lon="-2.585842"><ele>664.0</ele><time>2011-11-30T09:28:19Z</time></trkpt><trkpt lat="42.570448" lon="-2.585840"><ele>664.0</ele><time>2011-11-30T09:28:20Z</time></trkpt><trkpt lat="42.570462" lon="-2.585838"><ele>664.0</ele><time>2011-11-30T09:28:21Z</time></trkpt><trkpt lat="42.570472" lon="-2.585833"><ele>664.0</ele><time>2011-11-30T09:28:22Z</time></trkpt><trkpt lat="42.570483" lon="-2.585830"><ele>664.0</ele><time>2011-11-30T09:28:23Z</time></trkpt><trkpt lat="42.570492" lon="-2.585830"><ele>664.5</ele><time>2011-11-30T09:28:24Z</time></trkpt><trkpt lat="42.570500" lon="-2.585832"><ele>664.5</ele><time>2011-11-30T09:28:25Z</time></trkpt><trkpt lat="42.570510" lon="-2.585835"><ele>664.5</ele><time>2011-11-30T09:28:26Z</time></trkpt><trkpt lat="42.570518" lon="-2.585842"><ele>664.5</ele><time>2011-11-30T09:28:27Z</time></trkpt><trkpt lat="42.570528" lon="-2.585850"><ele>665.0</ele><time>2011-11-30T09:28:28Z</time></trkpt><trkpt lat="42.570540" lon="-2.585857"><ele>665.5</ele><time>2011-11-30T09:28:29Z</time></trkpt><trkpt lat="42.570552" lon="-2.585860"><ele>665.5</ele><time>2011-11-30T09:28:30Z</time></trkpt><trkpt lat="42.570557" lon="-2.585862"><ele>665.5</ele><time>2011-11-30T09:28:31Z</time></trkpt><trkpt lat="42.570567" lon="-2.585857"><ele>665.5</ele><time>2011-11-30T09:28:32Z</time></trkpt><trkpt lat="42.570578" lon="-2.585848"><ele>666.0</ele><time>2011-11-30T09:28:33Z</time></trkpt><trkpt lat="42.570593" lon="-2.585840"><ele>666.0</ele><time>2011-11-30T09:28:34Z</time></trkpt><trkpt lat="42.570605" lon="-2.585832"><ele>666.0</ele><time>2011-11-30T09:28:35Z</time></trkpt><trkpt lat="42.570620" lon="-2.585828"><ele>666.0</ele><time>2011-11-30T09:28:36Z</time></trkpt><trkpt lat="42.570632" lon="-2.585827"><ele>666.5</ele><time>2011-11-30T09:28:37Z</time></trkpt><trkpt lat="42.570647" lon="-2.585827"><ele>666.5</ele><time>2011-11-30T09:28:38Z</time></trkpt><trkpt lat="42.570663" lon="-2.585828"><ele>666.5</ele><time>2011-11-30T09:28:39Z</time></trkpt><trkpt lat="42.570678" lon="-2.585830"><ele>666.5</ele><time>2011-11-30T09:28:40Z</time></trkpt><trkpt lat="42.570695" lon="-2.585830"><ele>666.5</ele><time>2011-11-30T09:28:41Z</time></trkpt><trkpt lat="42.570708" lon="-2.585828"><ele>666.5</ele><time>2011-11-30T09:28:42Z</time></trkpt><trkpt lat="42.570725" lon="-2.585828"><ele>667.0</ele><time>2011-11-30T09:28:43Z</time></trkpt><trkpt lat="42.570742" lon="-2.585828"><ele>667.0</ele><time>2011-11-30T09:28:44Z</time></trkpt><trkpt lat="42.570757" lon="-2.585828"><ele>667.0</ele><time>2011-11-30T09:28:45Z</time></trkpt><trkpt lat="42.570770" lon="-2.585828"><ele>667.0</ele><time>2011-11-30T09:28:46Z</time></trkpt><trkpt lat="42.570783" lon="-2.585827"><ele>667.5</ele><time>2011-11-30T09:28:47Z</time></trkpt><trkpt lat="42.570797" lon="-2.585827"><ele>667.5</ele><time>2011-11-30T09:28:48Z</time></trkpt><trkpt lat="42.570812" lon="-2.585827"><ele>667.5</ele><time>2011-11-30T09:28:49Z</time></trkpt><trkpt lat="42.570827" lon="-2.585828"><ele>668.0</ele><time>2011-11-30T09:28:50Z</time></trkpt><trkpt lat="42.570842" lon="-2.585830"><ele>667.5</ele><time>2011-11-30T09:28:51Z</time></trkpt><trkpt lat="42.570857" lon="-2.585832"><ele>668.0</ele><time>2011-11-30T09:28:52Z</time></trkpt><trkpt lat="42.570872" lon="-2.585832"><ele>668.0</ele><time>2011-11-30T09:28:53Z</time></trkpt><trkpt lat="42.570887" lon="-2.585832"><ele>668.5</ele><time>2011-11-30T09:28:54Z</time></trkpt><trkpt lat="42.570902" lon="-2.585830"><ele>668.5</ele><time>2011-11-30T09:28:55Z</time></trkpt><trkpt lat="42.570915" lon="-2.585828"><ele>669.0</ele><time>2011-11-30T09:28:56Z</time></trkpt><trkpt lat="42.570930" lon="-2.585828"><ele>669.0</ele><time>2011-11-30T09:28:57Z</time></trkpt><trkpt lat="42.570943" lon="-2.585828"><ele>669.5</ele><time>2011-11-30T09:28:58Z</time></trkpt><trkpt lat="42.570958" lon="-2.585827"><ele>669.5</ele><time>2011-11-30T09:28:59Z</time></trkpt><trkpt lat="42.570973" lon="-2.585825"><ele>669.5</ele><time>2011-11-30T09:29:00Z</time></trkpt><trkpt lat="42.570987" lon="-2.585825"><ele>669.5</ele><time>2011-11-30T09:29:01Z</time></trkpt><trkpt lat="42.571000" lon="-2.585825"><ele>669.5</ele><time>2011-11-30T09:29:02Z</time></trkpt><trkpt lat="42.571012" lon="-2.585827"><ele>669.5</ele><time>2011-11-30T09:29:03Z</time></trkpt><trkpt lat="42.571027" lon="-2.585828"><ele>669.5</ele><time>2011-11-30T09:29:04Z</time></trkpt><trkpt lat="42.571040" lon="-2.585827"><ele>669.5</ele><time>2011-11-30T09:29:05Z</time></trkpt><trkpt lat="42.571055" lon="-2.585823"><ele>670.0</ele><time>2011-11-30T09:29:06Z</time></trkpt><trkpt lat="42.571067" lon="-2.585822"><ele>669.5</ele><time>2011-11-30T09:29:07Z</time></trkpt><trkpt lat="42.571080" lon="-2.585825"><ele>670.0</ele><time>2011-11-30T09:29:08Z</time></trkpt><trkpt lat="42.571093" lon="-2.585827"><ele>670.0</ele><time>2011-11-30T09:29:09Z</time></trkpt><trkpt lat="42.571108" lon="-2.585823"><ele>670.0</ele><time>2011-11-30T09:29:10Z</time></trkpt><trkpt lat="42.571120" lon="-2.585823"><ele>669.5</ele><time>2011-11-30T09:29:11Z</time></trkpt><trkpt lat="42.571130" lon="-2.585822"><ele>669.0</ele><time>2011-11-30T09:29:12Z</time></trkpt><trkpt lat="42.571138" lon="-2.585827"><ele>668.5</ele><time>2011-11-30T09:29:13Z</time></trkpt><trkpt lat="42.571148" lon="-2.585832"><ele>668.5</ele><time>2011-11-30T09:29:14Z</time></trkpt><trkpt lat="42.571163" lon="-2.585835"><ele>669.0</ele><time>2011-11-30T09:29:15Z</time></trkpt><trkpt lat="42.571172" lon="-2.585835"><ele>669.0</ele><time>2011-11-30T09:29:16Z</time></trkpt><trkpt lat="42.571190" lon="-2.585830"><ele>669.0</ele><time>2011-11-30T09:29:17Z</time></trkpt><trkpt lat="42.571205" lon="-2.585825"><ele>669.0</ele><time>2011-11-30T09:29:18Z</time></trkpt><trkpt lat="42.571220" lon="-2.585822"><ele>669.5</ele><time>2011-11-30T09:29:19Z</time></trkpt><trkpt lat="42.571235" lon="-2.585820"><ele>669.5</ele><time>2011-11-30T09:29:20Z</time></trkpt><trkpt lat="42.571252" lon="-2.585817"><ele>669.5</ele><time>2011-11-30T09:29:21Z</time></trkpt><trkpt lat="42.571267" lon="-2.585813"><ele>670.0</ele><time>2011-11-30T09:29:22Z</time></trkpt><trkpt lat="42.571282" lon="-2.585808"><ele>670.0</ele><time>2011-11-30T09:29:23Z</time></trkpt><trkpt lat="42.571297" lon="-2.585807"><ele>670.0</ele><time>2011-11-30T09:29:24Z</time></trkpt><trkpt lat="42.571312" lon="-2.585805"><ele>670.5</ele><time>2011-11-30T09:29:25Z</time></trkpt><trkpt lat="42.571325" lon="-2.585800"><ele>670.5</ele><time>2011-11-30T09:29:26Z</time></trkpt><trkpt lat="42.571338" lon="-2.585795"><ele>671.0</ele><time>2011-11-30T09:29:27Z</time></trkpt><trkpt lat="42.571353" lon="-2.585793"><ele>671.0</ele><time>2011-11-30T09:29:28Z</time></trkpt><trkpt lat="42.571368" lon="-2.585793"><ele>671.5</ele><time>2011-11-30T09:29:29Z</time></trkpt><trkpt lat="42.571382" lon="-2.585793"><ele>671.5</ele><time>2011-11-30T09:29:30Z</time></trkpt><trkpt lat="42.571397" lon="-2.585797"><ele>671.5</ele><time>2011-11-30T09:29:31Z</time></trkpt><trkpt lat="42.571410" lon="-2.585800"><ele>672.0</ele><time>2011-11-30T09:29:32Z</time></trkpt><trkpt lat="42.571423" lon="-2.585803"><ele>672.0</ele><time>2011-11-30T09:29:33Z</time></trkpt><trkpt lat="42.571438" lon="-2.585805"><ele>672.0</ele><time>2011-11-30T09:29:34Z</time></trkpt><trkpt lat="42.571455" lon="-2.585807"><ele>672.5</ele><time>2011-11-30T09:29:35Z</time></trkpt><trkpt lat="42.571468" lon="-2.585808"><ele>672.5</ele><time>2011-11-30T09:29:36Z</time></trkpt><trkpt lat="42.571483" lon="-2.585810"><ele>672.5</ele><time>2011-11-30T09:29:37Z</time></trkpt><trkpt lat="42.571498" lon="-2.585808"><ele>672.5</ele><time>2011-11-30T09:29:38Z</time></trkpt><trkpt lat="42.571513" lon="-2.585807"><ele>672.5</ele><time>2011-11-30T09:29:39Z</time></trkpt><trkpt lat="42.571528" lon="-2.585805"><ele>672.5</ele><time>2011-11-30T09:29:40Z</time></trkpt><trkpt lat="42.571542" lon="-2.585803"><ele>672.5</ele><time>2011-11-30T09:29:41Z</time></trkpt><trkpt lat="42.571557" lon="-2.585800"><ele>672.0</ele><time>2011-11-30T09:29:42Z</time></trkpt><trkpt lat="42.571572" lon="-2.585798"><ele>672.0</ele><time>2011-11-30T09:29:43Z</time></trkpt><trkpt lat="42.571585" lon="-2.585797"><ele>672.5</ele><time>2011-11-30T09:29:44Z</time></trkpt><trkpt lat="42.571600" lon="-2.585797"><ele>672.5</ele><time>2011-11-30T09:29:45Z</time></trkpt><trkpt lat="42.571615" lon="-2.585797"><ele>672.0</ele><time>2011-11-30T09:29:46Z</time></trkpt><trkpt lat="42.571628" lon="-2.585793"><ele>672.0</ele><time>2011-11-30T09:29:47Z</time></trkpt><trkpt lat="42.571643" lon="-2.585792"><ele>672.0</ele><time>2011-11-30T09:29:48Z</time></trkpt><trkpt lat="42.571657" lon="-2.585790"><ele>672.0</ele><time>2011-11-30T09:29:49Z</time></trkpt><trkpt lat="42.571672" lon="-2.585790"><ele>672.0</ele><time>2011-11-30T09:29:50Z</time></trkpt><trkpt lat="42.571687" lon="-2.585790"><ele>672.0</ele><time>2011-11-30T09:29:51Z</time></trkpt><trkpt lat="42.571700" lon="-2.585790"><ele>672.0</ele><time>2011-11-30T09:29:52Z</time></trkpt><trkpt lat="42.571713" lon="-2.585790"><ele>672.0</ele><time>2011-11-30T09:29:53Z</time></trkpt><trkpt lat="42.571727" lon="-2.585792"><ele>672.0</ele><time>2011-11-30T09:29:54Z</time></trkpt><trkpt lat="42.571742" lon="-2.585795"><ele>672.0</ele><time>2011-11-30T09:29:55Z</time></trkpt><trkpt lat="42.571757" lon="-2.585797"><ele>672.0</ele><time>2011-11-30T09:29:56Z</time></trkpt><trkpt lat="42.571770" lon="-2.585797"><ele>671.5</ele><time>2011-11-30T09:29:57Z</time></trkpt><trkpt lat="42.571783" lon="-2.585798"><ele>671.5</ele><time>2011-11-30T09:29:58Z</time></trkpt><trkpt lat="42.571798" lon="-2.585802"><ele>671.5</ele><time>2011-11-30T09:29:59Z</time></trkpt><trkpt lat="42.571813" lon="-2.585805"><ele>672.0</ele><time>2011-11-30T09:30:00Z</time></trkpt><trkpt lat="42.571827" lon="-2.585808"><ele>672.0</ele><time>2011-11-30T09:30:01Z</time></trkpt><trkpt lat="42.571840" lon="-2.585812"><ele>672.0</ele><time>2011-11-30T09:30:02Z</time></trkpt><trkpt lat="42.571853" lon="-2.585817"><ele>672.0</ele><time>2011-11-30T09:30:03Z</time></trkpt><trkpt lat="42.571868" lon="-2.585822"><ele>672.0</ele><time>2011-11-30T09:30:04Z</time></trkpt><trkpt lat="42.571882" lon="-2.585825"><ele>672.0</ele><time>2011-11-30T09:30:05Z</time></trkpt><trkpt lat="42.571890" lon="-2.585827"><ele>672.0</ele><time>2011-11-30T09:30:06Z</time></trkpt><trkpt lat="42.571898" lon="-2.585833"><ele>672.0</ele><time>2011-11-30T09:30:07Z</time></trkpt><trkpt lat="42.571910" lon="-2.585843"><ele>672.0</ele><time>2011-11-30T09:30:08Z</time></trkpt><trkpt lat="42.571920" lon="-2.585853"><ele>672.5</ele><time>2011-11-30T09:30:09Z</time></trkpt><trkpt lat="42.571928" lon="-2.585860"><ele>672.0</ele><time>2011-11-30T09:30:10Z</time></trkpt><trkpt lat="42.571950" lon="-2.585865"><ele>672.5</ele><time>2011-11-30T09:30:11Z</time></trkpt><trkpt lat="42.571963" lon="-2.585867"><ele>673.0</ele><time>2011-11-30T09:30:12Z</time></trkpt><trkpt lat="42.571978" lon="-2.585872"><ele>673.0</ele><time>2011-11-30T09:30:13Z</time></trkpt><trkpt lat="42.571990" lon="-2.585880"><ele>673.0</ele><time>2011-11-30T09:30:14Z</time></trkpt><trkpt lat="42.572007" lon="-2.585885"><ele>673.0</ele><time>2011-11-30T09:30:15Z</time></trkpt><trkpt lat="42.572022" lon="-2.585888"><ele>673.0</ele><time>2011-11-30T09:30:16Z</time></trkpt><trkpt lat="42.572035" lon="-2.585892"><ele>673.0</ele><time>2011-11-30T09:30:17Z</time></trkpt><trkpt lat="42.572050" lon="-2.585897"><ele>673.0</ele><time>2011-11-30T09:30:18Z</time></trkpt><trkpt lat="42.572067" lon="-2.585900"><ele>673.0</ele><time>2011-11-30T09:30:19Z</time></trkpt><trkpt lat="42.572082" lon="-2.585907"><ele>673.0</ele><time>2011-11-30T09:30:20Z</time></trkpt><trkpt lat="42.572097" lon="-2.585912"><ele>673.0</ele><time>2011-11-30T09:30:21Z</time></trkpt><trkpt lat="42.572112" lon="-2.585915"><ele>672.5</ele><time>2011-11-30T09:30:22Z</time></trkpt><trkpt lat="42.572125" lon="-2.585920"><ele>673.0</ele><time>2011-11-30T09:30:23Z</time></trkpt><trkpt lat="42.572142" lon="-2.585922"><ele>673.0</ele><time>2011-11-30T09:30:24Z</time></trkpt><trkpt lat="42.572157" lon="-2.585925"><ele>673.0</ele><time>2011-11-30T09:30:25Z</time></trkpt><trkpt lat="42.572172" lon="-2.585928"><ele>673.0</ele><time>2011-11-30T09:30:26Z</time></trkpt><trkpt lat="42.572187" lon="-2.585932"><ele>673.0</ele><time>2011-11-30T09:30:27Z</time></trkpt><trkpt lat="42.572200" lon="-2.585935"><ele>673.0</ele><time>2011-11-30T09:30:28Z</time></trkpt><trkpt lat="42.572213" lon="-2.585937"><ele>673.0</ele><time>2011-11-30T09:30:29Z</time></trkpt><trkpt lat="42.572227" lon="-2.585942"><ele>673.0</ele><time>2011-11-30T09:30:30Z</time></trkpt><trkpt lat="42.572242" lon="-2.585947"><ele>673.5</ele><time>2011-11-30T09:30:31Z</time></trkpt><trkpt lat="42.572255" lon="-2.585948"><ele>673.5</ele><time>2011-11-30T09:30:32Z</time></trkpt><trkpt lat="42.572268" lon="-2.585948"><ele>673.0</ele><time>2011-11-30T09:30:33Z</time></trkpt><trkpt lat="42.572282" lon="-2.585952"><ele>673.5</ele><time>2011-11-30T09:30:34Z</time></trkpt><trkpt lat="42.572295" lon="-2.585953"><ele>673.5</ele><time>2011-11-30T09:30:35Z</time></trkpt><trkpt lat="42.572308" lon="-2.585955"><ele>673.0</ele><time>2011-11-30T09:30:36Z</time></trkpt><trkpt lat="42.572323" lon="-2.585958"><ele>673.0</ele><time>2011-11-30T09:30:37Z</time></trkpt><trkpt lat="42.572338" lon="-2.585960"><ele>673.0</ele><time>2011-11-30T09:30:38Z</time></trkpt><trkpt lat="42.572352" lon="-2.585960"><ele>673.0</ele><time>2011-11-30T09:30:39Z</time></trkpt><trkpt lat="42.572365" lon="-2.585960"><ele>672.5</ele><time>2011-11-30T09:30:40Z</time></trkpt><trkpt lat="42.572378" lon="-2.585962"><ele>672.5</ele><time>2011-11-30T09:30:41Z</time></trkpt><trkpt lat="42.572393" lon="-2.585958"><ele>672.5</ele><time>2011-11-30T09:30:42Z</time></trkpt><trkpt lat="42.572408" lon="-2.585957"><ele>672.5</ele><time>2011-11-30T09:30:43Z</time></trkpt><trkpt lat="42.572423" lon="-2.585955"><ele>672.5</ele><time>2011-11-30T09:30:44Z</time></trkpt><trkpt lat="42.572438" lon="-2.585958"><ele>672.5</ele><time>2011-11-30T09:30:45Z</time></trkpt><trkpt lat="42.572452" lon="-2.585960"><ele>672.5</ele><time>2011-11-30T09:30:46Z</time></trkpt><trkpt lat="42.572468" lon="-2.585962"><ele>672.5</ele><time>2011-11-30T09:30:47Z</time></trkpt><trkpt lat="42.572483" lon="-2.585963"><ele>672.0</ele><time>2011-11-30T09:30:48Z</time></trkpt><trkpt lat="42.572498" lon="-2.585965"><ele>672.0</ele><time>2011-11-30T09:30:49Z</time></trkpt><trkpt lat="42.572512" lon="-2.585967"><ele>672.0</ele><time>2011-11-30T09:30:50Z</time></trkpt><trkpt lat="42.572527" lon="-2.585967"><ele>672.0</ele><time>2011-11-30T09:30:51Z</time></trkpt><trkpt lat="42.572542" lon="-2.585968"><ele>672.0</ele><time>2011-11-30T09:30:52Z</time></trkpt><trkpt lat="42.572555" lon="-2.585970"><ele>672.0</ele><time>2011-11-30T09:30:53Z</time></trkpt><trkpt lat="42.572570" lon="-2.585970"><ele>672.0</ele><time>2011-11-30T09:30:54Z</time></trkpt><trkpt lat="42.572583" lon="-2.585968"><ele>672.0</ele><time>2011-11-30T09:30:55Z</time></trkpt><trkpt lat="42.572598" lon="-2.585968"><ele>672.0</ele><time>2011-11-30T09:30:56Z</time></trkpt><trkpt lat="42.572612" lon="-2.585970"><ele>671.5</ele><time>2011-11-30T09:30:57Z</time></trkpt><trkpt lat="42.572623" lon="-2.585972"><ele>672.0</ele><time>2011-11-30T09:30:58Z</time></trkpt><trkpt lat="42.572638" lon="-2.585975"><ele>672.0</ele><time>2011-11-30T09:30:59Z</time></trkpt><trkpt lat="42.572652" lon="-2.585978"><ele>671.5</ele><time>2011-11-30T09:31:00Z</time></trkpt><trkpt lat="42.572665" lon="-2.585980"><ele>672.0</ele><time>2011-11-30T09:31:01Z</time></trkpt><trkpt lat="42.572680" lon="-2.585978"><ele>671.5</ele><time>2011-11-30T09:31:02Z</time></trkpt><trkpt lat="42.572695" lon="-2.585977"><ele>671.5</ele><time>2011-11-30T09:31:03Z</time></trkpt><trkpt lat="42.572708" lon="-2.585977"><ele>672.0</ele><time>2011-11-30T09:31:04Z</time></trkpt><trkpt lat="42.572723" lon="-2.585975"><ele>672.0</ele><time>2011-11-30T09:31:05Z</time></trkpt><trkpt lat="42.572738" lon="-2.585970"><ele>671.5</ele><time>2011-11-30T09:31:06Z</time></trkpt><trkpt lat="42.572750" lon="-2.585962"><ele>672.0</ele><time>2011-11-30T09:31:07Z</time></trkpt><trkpt lat="42.572760" lon="-2.585958"><ele>672.0</ele><time>2011-11-30T09:31:08Z</time></trkpt><trkpt lat="42.572773" lon="-2.585960"><ele>672.0</ele><time>2011-11-30T09:31:09Z</time></trkpt><trkpt lat="42.572787" lon="-2.585962"><ele>672.0</ele><time>2011-11-30T09:31:10Z</time></trkpt><trkpt lat="42.572802" lon="-2.585965"><ele>672.0</ele><time>2011-11-30T09:31:11Z</time></trkpt><trkpt lat="42.572815" lon="-2.585967"><ele>671.5</ele><time>2011-11-30T09:31:12Z</time></trkpt><trkpt lat="42.572830" lon="-2.585967"><ele>672.0</ele><time>2011-11-30T09:31:13Z</time></trkpt><trkpt lat="42.572845" lon="-2.585963"><ele>672.0</ele><time>2011-11-30T09:31:14Z</time></trkpt><trkpt lat="42.572860" lon="-2.585963"><ele>672.0</ele><time>2011-11-30T09:31:15Z</time></trkpt><trkpt lat="42.572873" lon="-2.585967"><ele>672.0</ele><time>2011-11-30T09:31:16Z</time></trkpt><trkpt lat="42.572890" lon="-2.585968"><ele>672.0</ele><time>2011-11-30T09:31:17Z</time></trkpt><trkpt lat="42.572907" lon="-2.585968"><ele>672.0</ele><time>2011-11-30T09:31:18Z</time></trkpt><trkpt lat="42.572922" lon="-2.585968"><ele>672.0</ele><time>2011-11-30T09:31:19Z</time></trkpt><trkpt lat="42.572935" lon="-2.585970"><ele>672.0</ele><time>2011-11-30T09:31:20Z</time></trkpt><trkpt lat="42.572948" lon="-2.585972"><ele>672.0</ele><time>2011-11-30T09:31:21Z</time></trkpt><trkpt lat="42.572965" lon="-2.585972"><ele>672.0</ele><time>2011-11-30T09:31:22Z</time></trkpt><trkpt lat="42.572978" lon="-2.585972"><ele>671.5</ele><time>2011-11-30T09:31:23Z</time></trkpt><trkpt lat="42.572993" lon="-2.585972"><ele>671.5</ele><time>2011-11-30T09:31:24Z</time></trkpt><trkpt lat="42.573007" lon="-2.585972"><ele>671.5</ele><time>2011-11-30T09:31:25Z</time></trkpt><trkpt lat="42.573020" lon="-2.585975"><ele>671.5</ele><time>2011-11-30T09:31:26Z</time></trkpt><trkpt lat="42.573035" lon="-2.585977"><ele>672.0</ele><time>2011-11-30T09:31:27Z</time></trkpt><trkpt lat="42.573048" lon="-2.585977"><ele>672.0</ele><time>2011-11-30T09:31:28Z</time></trkpt><trkpt lat="42.573063" lon="-2.585977"><ele>672.0</ele><time>2011-11-30T09:31:29Z</time></trkpt><trkpt lat="42.573077" lon="-2.585975"><ele>672.0</ele><time>2011-11-30T09:31:30Z</time></trkpt><trkpt lat="42.573088" lon="-2.585975"><ele>672.0</ele><time>2011-11-30T09:31:31Z</time></trkpt><trkpt lat="42.573100" lon="-2.585977"><ele>672.0</ele><time>2011-11-30T09:31:32Z</time></trkpt><trkpt lat="42.573113" lon="-2.585977"><ele>671.5</ele><time>2011-11-30T09:31:33Z</time></trkpt><trkpt lat="42.573127" lon="-2.585978"><ele>672.0</ele><time>2011-11-30T09:31:34Z</time></trkpt><trkpt lat="42.573138" lon="-2.585980"><ele>672.0</ele><time>2011-11-30T09:31:35Z</time></trkpt><trkpt lat="42.573150" lon="-2.585982"><ele>671.5</ele><time>2011-11-30T09:31:36Z</time></trkpt><trkpt lat="42.573163" lon="-2.585982"><ele>671.5</ele><time>2011-11-30T09:31:37Z</time></trkpt><trkpt lat="42.573177" lon="-2.585985"><ele>671.5</ele><time>2011-11-30T09:31:38Z</time></trkpt><trkpt lat="42.573190" lon="-2.585987"><ele>671.5</ele><time>2011-11-30T09:31:39Z</time></trkpt><trkpt lat="42.573203" lon="-2.585988"><ele>671.5</ele><time>2011-11-30T09:31:40Z</time></trkpt><trkpt lat="42.573218" lon="-2.585988"><ele>671.5</ele><time>2011-11-30T09:31:41Z</time></trkpt><trkpt lat="42.573232" lon="-2.585990"><ele>671.5</ele><time>2011-11-30T09:31:42Z</time></trkpt><trkpt lat="42.573245" lon="-2.585992"><ele>671.5</ele><time>2011-11-30T09:31:43Z</time></trkpt><trkpt lat="42.573257" lon="-2.585997"><ele>671.5</ele><time>2011-11-30T09:31:44Z</time></trkpt><trkpt lat="42.573270" lon="-2.585998"><ele>671.5</ele><time>2011-11-30T09:31:45Z</time></trkpt><trkpt lat="42.573283" lon="-2.586000"><ele>671.5</ele><time>2011-11-30T09:31:46Z</time></trkpt><trkpt lat="42.573297" lon="-2.586003"><ele>671.5</ele><time>2011-11-30T09:31:47Z</time></trkpt><trkpt lat="42.573308" lon="-2.586010"><ele>672.0</ele><time>2011-11-30T09:31:48Z</time></trkpt><trkpt lat="42.573322" lon="-2.586015"><ele>672.0</ele><time>2011-11-30T09:31:49Z</time></trkpt><trkpt lat="42.573335" lon="-2.586018"><ele>672.0</ele><time>2011-11-30T09:31:50Z</time></trkpt><trkpt lat="42.573347" lon="-2.586025"><ele>672.0</ele><time>2011-11-30T09:31:51Z</time></trkpt><trkpt lat="42.573360" lon="-2.586033"><ele>672.0</ele><time>2011-11-30T09:31:52Z</time></trkpt><trkpt lat="42.573372" lon="-2.586040"><ele>672.0</ele><time>2011-11-30T09:31:53Z</time></trkpt><trkpt lat="42.573385" lon="-2.586048"><ele>672.0</ele><time>2011-11-30T09:31:54Z</time></trkpt><trkpt lat="42.573397" lon="-2.586057"><ele>672.0</ele><time>2011-11-30T09:31:55Z</time></trkpt><trkpt lat="42.573410" lon="-2.586062"><ele>672.0</ele><time>2011-11-30T09:31:56Z</time></trkpt><trkpt lat="42.573422" lon="-2.586070"><ele>672.0</ele><time>2011-11-30T09:31:57Z</time></trkpt><trkpt lat="42.573433" lon="-2.586078"><ele>672.0</ele><time>2011-11-30T09:31:58Z</time></trkpt><trkpt lat="42.573445" lon="-2.586088"><ele>672.0</ele><time>2011-11-30T09:31:59Z</time></trkpt><trkpt lat="42.573457" lon="-2.586098"><ele>672.0</ele><time>2011-11-30T09:32:00Z</time></trkpt><trkpt lat="42.573470" lon="-2.586108"><ele>672.0</ele><time>2011-11-30T09:32:01Z</time></trkpt><trkpt lat="42.573483" lon="-2.586117"><ele>672.0</ele><time>2011-11-30T09:32:02Z</time></trkpt><trkpt lat="42.573495" lon="-2.586127"><ele>672.0</ele><time>2011-11-30T09:32:03Z</time></trkpt><trkpt lat="42.573507" lon="-2.586137"><ele>672.5</ele><time>2011-11-30T09:32:04Z</time></trkpt><trkpt lat="42.573520" lon="-2.586147"><ele>672.5</ele><time>2011-11-30T09:32:05Z</time></trkpt><trkpt lat="42.573532" lon="-2.586153"><ele>672.5</ele><time>2011-11-30T09:32:06Z</time></trkpt><trkpt lat="42.573542" lon="-2.586163"><ele>673.0</ele><time>2011-11-30T09:32:07Z</time></trkpt><trkpt lat="42.573555" lon="-2.586172"><ele>673.0</ele><time>2011-11-30T09:32:08Z</time></trkpt><trkpt lat="42.573568" lon="-2.586180"><ele>673.0</ele><time>2011-11-30T09:32:09Z</time></trkpt><trkpt lat="42.573580" lon="-2.586192"><ele>673.0</ele><time>2011-11-30T09:32:10Z</time></trkpt><trkpt lat="42.573592" lon="-2.586202"><ele>673.0</ele><time>2011-11-30T09:32:11Z</time></trkpt><trkpt lat="42.573605" lon="-2.586212"><ele>673.0</ele><time>2011-11-30T09:32:12Z</time></trkpt><trkpt lat="42.573617" lon="-2.586223"><ele>673.5</ele><time>2011-11-30T09:32:13Z</time></trkpt><trkpt lat="42.573630" lon="-2.586235"><ele>673.5</ele><time>2011-11-30T09:32:14Z</time></trkpt><trkpt lat="42.573642" lon="-2.586243"><ele>673.5</ele><time>2011-11-30T09:32:15Z</time></trkpt><trkpt lat="42.573653" lon="-2.586253"><ele>673.5</ele><time>2011-11-30T09:32:16Z</time></trkpt><trkpt lat="42.573667" lon="-2.586262"><ele>673.5</ele><time>2011-11-30T09:32:17Z</time></trkpt><trkpt lat="42.573680" lon="-2.586272"><ele>673.5</ele><time>2011-11-30T09:32:18Z</time></trkpt><trkpt lat="42.573693" lon="-2.586282"><ele>673.5</ele><time>2011-11-30T09:32:19Z</time></trkpt><trkpt lat="42.573708" lon="-2.586288"><ele>673.5</ele><time>2011-11-30T09:32:20Z</time></trkpt><trkpt lat="42.573722" lon="-2.586295"><ele>673.5</ele><time>2011-11-30T09:32:21Z</time></trkpt><trkpt lat="42.573733" lon="-2.586302"><ele>673.5</ele><time>2011-11-30T09:32:22Z</time></trkpt><trkpt lat="42.573745" lon="-2.586310"><ele>673.5</ele><time>2011-11-30T09:32:23Z</time></trkpt><trkpt lat="42.573758" lon="-2.586317"><ele>673.5</ele><time>2011-11-30T09:32:24Z</time></trkpt><trkpt lat="42.573772" lon="-2.586322"><ele>673.5</ele><time>2011-11-30T09:32:25Z</time></trkpt><trkpt lat="42.573785" lon="-2.586328"><ele>673.5</ele><time>2011-11-30T09:32:26Z</time></trkpt><trkpt lat="42.573797" lon="-2.586335"><ele>673.5</ele><time>2011-11-30T09:32:27Z</time></trkpt><trkpt lat="42.573807" lon="-2.586343"><ele>673.5</ele><time>2011-11-30T09:32:28Z</time></trkpt><trkpt lat="42.573820" lon="-2.586348"><ele>673.5</ele><time>2011-11-30T09:32:29Z</time></trkpt><trkpt lat="42.573833" lon="-2.586355"><ele>673.5</ele><time>2011-11-30T09:32:30Z</time></trkpt><trkpt lat="42.573847" lon="-2.586357"><ele>673.0</ele><time>2011-11-30T09:32:31Z</time></trkpt><trkpt lat="42.573862" lon="-2.586353"><ele>673.0</ele><time>2011-11-30T09:32:32Z</time></trkpt><trkpt lat="42.573875" lon="-2.586353"><ele>673.0</ele><time>2011-11-30T09:32:33Z</time></trkpt><trkpt lat="42.573890" lon="-2.586357"><ele>672.5</ele><time>2011-11-30T09:32:34Z</time></trkpt><trkpt lat="42.573903" lon="-2.586363"><ele>672.5</ele><time>2011-11-30T09:32:35Z</time></trkpt><trkpt lat="42.573917" lon="-2.586372"><ele>673.0</ele><time>2011-11-30T09:32:36Z</time></trkpt><trkpt lat="42.573930" lon="-2.586377"><ele>673.0</ele><time>2011-11-30T09:32:37Z</time></trkpt><trkpt lat="42.573942" lon="-2.586380"><ele>673.0</ele><time>2011-11-30T09:32:38Z</time></trkpt><trkpt lat="42.573953" lon="-2.586383"><ele>673.0</ele><time>2011-11-30T09:32:39Z</time></trkpt><trkpt lat="42.573967" lon="-2.586388"><ele>673.0</ele><time>2011-11-30T09:32:40Z</time></trkpt><trkpt lat="42.573978" lon="-2.586395"><ele>673.0</ele><time>2011-11-30T09:32:41Z</time></trkpt><trkpt lat="42.574005" lon="-2.586400"><ele>673.0</ele><time>2011-11-30T09:32:43Z</time></trkpt><trkpt lat="42.574017" lon="-2.586405"><ele>673.0</ele><time>2011-11-30T09:32:44Z</time></trkpt><trkpt lat="42.574027" lon="-2.586410"><ele>673.5</ele><time>2011-11-30T09:32:45Z</time></trkpt><trkpt lat="42.574040" lon="-2.586415"><ele>673.5</ele><time>2011-11-30T09:32:46Z</time></trkpt><trkpt lat="42.574052" lon="-2.586418"><ele>673.5</ele><time>2011-11-30T09:32:47Z</time></trkpt><trkpt lat="42.574065" lon="-2.586423"><ele>674.0</ele><time>2011-11-30T09:32:48Z</time></trkpt><trkpt lat="42.574078" lon="-2.586428"><ele>674.0</ele><time>2011-11-30T09:32:49Z</time></trkpt><trkpt lat="42.574105" lon="-2.586437"><ele>673.5</ele><time>2011-11-30T09:32:51Z</time></trkpt><trkpt lat="42.574118" lon="-2.586440"><ele>673.5</ele><time>2011-11-30T09:32:52Z</time></trkpt><trkpt lat="42.574143" lon="-2.586448"><ele>673.0</ele><time>2011-11-30T09:32:54Z</time></trkpt><trkpt lat="42.574158" lon="-2.586452"><ele>673.0</ele><time>2011-11-30T09:32:55Z</time></trkpt><trkpt lat="42.574172" lon="-2.586455"><ele>672.5</ele><time>2011-11-30T09:32:56Z</time></trkpt><trkpt lat="42.574183" lon="-2.586460"><ele>672.5</ele><time>2011-11-30T09:32:57Z</time></trkpt><trkpt lat="42.574197" lon="-2.586463"><ele>672.5</ele><time>2011-11-30T09:32:58Z</time></trkpt><trkpt lat="42.574210" lon="-2.586467"><ele>672.5</ele><time>2011-11-30T09:32:59Z</time></trkpt><trkpt lat="42.574225" lon="-2.586468"><ele>672.5</ele><time>2011-11-30T09:33:00Z</time></trkpt><trkpt lat="42.574237" lon="-2.586472"><ele>672.5</ele><time>2011-11-30T09:33:01Z</time></trkpt><trkpt lat="42.574252" lon="-2.586473"><ele>672.5</ele><time>2011-11-30T09:33:02Z</time></trkpt><trkpt lat="42.574265" lon="-2.586475"><ele>672.0</ele><time>2011-11-30T09:33:03Z</time></trkpt><trkpt lat="42.574278" lon="-2.586477"><ele>672.0</ele><time>2011-11-30T09:33:04Z</time></trkpt><trkpt lat="42.574292" lon="-2.586480"><ele>672.0</ele><time>2011-11-30T09:33:05Z</time></trkpt><trkpt lat="42.574302" lon="-2.586485"><ele>672.0</ele><time>2011-11-30T09:33:06Z</time></trkpt><trkpt lat="42.574313" lon="-2.586492"><ele>672.5</ele><time>2011-11-30T09:33:07Z</time></trkpt><trkpt lat="42.574325" lon="-2.586497"><ele>672.5</ele><time>2011-11-30T09:33:08Z</time></trkpt><trkpt lat="42.574338" lon="-2.586497"><ele>672.0</ele><time>2011-11-30T09:33:09Z</time></trkpt><trkpt lat="42.574352" lon="-2.586497"><ele>672.0</ele><time>2011-11-30T09:33:10Z</time></trkpt><trkpt lat="42.574365" lon="-2.586498"><ele>672.0</ele><time>2011-11-30T09:33:11Z</time></trkpt><trkpt lat="42.574377" lon="-2.586498"><ele>672.0</ele><time>2011-11-30T09:33:12Z</time></trkpt><trkpt lat="42.574390" lon="-2.586502"><ele>672.0</ele><time>2011-11-30T09:33:13Z</time></trkpt><trkpt lat="42.574402" lon="-2.586505"><ele>672.0</ele><time>2011-11-30T09:33:14Z</time></trkpt><trkpt lat="42.574415" lon="-2.586510"><ele>672.0</ele><time>2011-11-30T09:33:15Z</time></trkpt><trkpt lat="42.574428" lon="-2.586512"><ele>672.0</ele><time>2011-11-30T09:33:16Z</time></trkpt><trkpt lat="42.574442" lon="-2.586515"><ele>672.0</ele><time>2011-11-30T09:33:17Z</time></trkpt><trkpt lat="42.574455" lon="-2.586518"><ele>671.5</ele><time>2011-11-30T09:33:18Z</time></trkpt><trkpt lat="42.574468" lon="-2.586523"><ele>671.5</ele><time>2011-11-30T09:33:19Z</time></trkpt><trkpt lat="42.574482" lon="-2.586527"><ele>671.5</ele><time>2011-11-30T09:33:20Z</time></trkpt><trkpt lat="42.574495" lon="-2.586530"><ele>671.5</ele><time>2011-11-30T09:33:21Z</time></trkpt><trkpt lat="42.574508" lon="-2.586535"><ele>671.5</ele><time>2011-11-30T09:33:22Z</time></trkpt><trkpt lat="42.574522" lon="-2.586540"><ele>671.5</ele><time>2011-11-30T09:33:23Z</time></trkpt><trkpt lat="42.574535" lon="-2.586543"><ele>671.5</ele><time>2011-11-30T09:33:24Z</time></trkpt><trkpt lat="42.574548" lon="-2.586545"><ele>671.5</ele><time>2011-11-30T09:33:25Z</time></trkpt><trkpt lat="42.574563" lon="-2.586548"><ele>671.5</ele><time>2011-11-30T09:33:26Z</time></trkpt><trkpt lat="42.574578" lon="-2.586552"><ele>671.5</ele><time>2011-11-30T09:33:27Z</time></trkpt><trkpt lat="42.574592" lon="-2.586555"><ele>671.5</ele><time>2011-11-30T09:33:28Z</time></trkpt><trkpt lat="42.574605" lon="-2.586557"><ele>671.5</ele><time>2011-11-30T09:33:29Z</time></trkpt><trkpt lat="42.574618" lon="-2.586558"><ele>671.5</ele><time>2011-11-30T09:33:30Z</time></trkpt><trkpt lat="42.574632" lon="-2.586560"><ele>671.5</ele><time>2011-11-30T09:33:31Z</time></trkpt><trkpt lat="42.574643" lon="-2.586563"><ele>672.0</ele><time>2011-11-30T09:33:32Z</time></trkpt><trkpt lat="42.574657" lon="-2.586567"><ele>672.0</ele><time>2011-11-30T09:33:33Z</time></trkpt><trkpt lat="42.574672" lon="-2.586568"><ele>672.0</ele><time>2011-11-30T09:33:34Z</time></trkpt><trkpt lat="42.574685" lon="-2.586573"><ele>672.0</ele><time>2011-11-30T09:33:35Z</time></trkpt><trkpt lat="42.574697" lon="-2.586577"><ele>672.0</ele><time>2011-11-30T09:33:36Z</time></trkpt><trkpt lat="42.574708" lon="-2.586582"><ele>672.0</ele><time>2011-11-30T09:33:37Z</time></trkpt><trkpt lat="42.574722" lon="-2.586588"><ele>672.0</ele><time>2011-11-30T09:33:38Z</time></trkpt><trkpt lat="42.574735" lon="-2.586595"><ele>672.0</ele><time>2011-11-30T09:33:39Z</time></trkpt><trkpt lat="42.574748" lon="-2.586598"><ele>672.5</ele><time>2011-11-30T09:33:40Z</time></trkpt><trkpt lat="42.574762" lon="-2.586600"><ele>672.5</ele><time>2011-11-30T09:33:41Z</time></trkpt><trkpt lat="42.574775" lon="-2.586603"><ele>672.5</ele><time>2011-11-30T09:33:42Z</time></trkpt><trkpt lat="42.574788" lon="-2.586607"><ele>672.0</ele><time>2011-11-30T09:33:43Z</time></trkpt><trkpt lat="42.574802" lon="-2.586612"><ele>672.0</ele><time>2011-11-30T09:33:44Z</time></trkpt><trkpt lat="42.574815" lon="-2.586618"><ele>672.0</ele><time>2011-11-30T09:33:45Z</time></trkpt><trkpt lat="42.574830" lon="-2.586622"><ele>672.0</ele><time>2011-11-30T09:33:46Z</time></trkpt><trkpt lat="42.574843" lon="-2.586623"><ele>672.0</ele><time>2011-11-30T09:33:47Z</time></trkpt><trkpt lat="42.574857" lon="-2.586625"><ele>672.0</ele><time>2011-11-30T09:33:48Z</time></trkpt><trkpt lat="42.574870" lon="-2.586627"><ele>672.0</ele><time>2011-11-30T09:33:49Z</time></trkpt><trkpt lat="42.574882" lon="-2.586632"><ele>672.0</ele><time>2011-11-30T09:33:50Z</time></trkpt><trkpt lat="42.574895" lon="-2.586635"><ele>672.0</ele><time>2011-11-30T09:33:51Z</time></trkpt><trkpt lat="42.574908" lon="-2.586638"><ele>672.5</ele><time>2011-11-30T09:33:52Z</time></trkpt><trkpt lat="42.574922" lon="-2.586642"><ele>672.5</ele><time>2011-11-30T09:33:53Z</time></trkpt><trkpt lat="42.574935" lon="-2.586647"><ele>672.0</ele><time>2011-11-30T09:33:54Z</time></trkpt><trkpt lat="42.574948" lon="-2.586650"><ele>672.5</ele><time>2011-11-30T09:33:55Z</time></trkpt><trkpt lat="42.574960" lon="-2.586655"><ele>672.5</ele><time>2011-11-30T09:33:56Z</time></trkpt><trkpt lat="42.574972" lon="-2.586662"><ele>672.5</ele><time>2011-11-30T09:33:57Z</time></trkpt><trkpt lat="42.574985" lon="-2.586665"><ele>672.5</ele><time>2011-11-30T09:33:58Z</time></trkpt><trkpt lat="42.574998" lon="-2.586668"><ele>672.5</ele><time>2011-11-30T09:33:59Z</time></trkpt><trkpt lat="42.575013" lon="-2.586673"><ele>672.5</ele><time>2011-11-30T09:34:00Z</time></trkpt><trkpt lat="42.575027" lon="-2.586680"><ele>672.5</ele><time>2011-11-30T09:34:01Z</time></trkpt><trkpt lat="42.575040" lon="-2.586688"><ele>673.0</ele><time>2011-11-30T09:34:02Z</time></trkpt><trkpt lat="42.575053" lon="-2.586692"><ele>673.0</ele><time>2011-11-30T09:34:03Z</time></trkpt><trkpt lat="42.575068" lon="-2.586692"><ele>673.0</ele><time>2011-11-30T09:34:04Z</time></trkpt><trkpt lat="42.575083" lon="-2.586695"><ele>673.0</ele><time>2011-11-30T09:34:05Z</time></trkpt><trkpt lat="42.575097" lon="-2.586700"><ele>673.0</ele><time>2011-11-30T09:34:06Z</time></trkpt><trkpt lat="42.575110" lon="-2.586705"><ele>673.5</ele><time>2011-11-30T09:34:07Z</time></trkpt><trkpt lat="42.575122" lon="-2.586712"><ele>673.5</ele><time>2011-11-30T09:34:08Z</time></trkpt><trkpt lat="42.575135" lon="-2.586717"><ele>673.5</ele><time>2011-11-30T09:34:09Z</time></trkpt><trkpt lat="42.575148" lon="-2.586722"><ele>673.5</ele><time>2011-11-30T09:34:10Z</time></trkpt><trkpt lat="42.575162" lon="-2.586728"><ele>673.5</ele><time>2011-11-30T09:34:11Z</time></trkpt><trkpt lat="42.575175" lon="-2.586733"><ele>673.5</ele><time>2011-11-30T09:34:12Z</time></trkpt><trkpt lat="42.575188" lon="-2.586737"><ele>673.5</ele><time>2011-11-30T09:34:13Z</time></trkpt><trkpt lat="42.575203" lon="-2.586740"><ele>673.5</ele><time>2011-11-30T09:34:14Z</time></trkpt><trkpt lat="42.575218" lon="-2.586745"><ele>673.5</ele><time>2011-11-30T09:34:15Z</time></trkpt><trkpt lat="42.575232" lon="-2.586750"><ele>673.5</ele><time>2011-11-30T09:34:16Z</time></trkpt><trkpt lat="42.575243" lon="-2.586755"><ele>673.5</ele><time>2011-11-30T09:34:17Z</time></trkpt><trkpt lat="42.575253" lon="-2.586760"><ele>674.0</ele><time>2011-11-30T09:34:18Z</time></trkpt><trkpt lat="42.575263" lon="-2.586767"><ele>674.0</ele><time>2011-11-30T09:34:19Z</time></trkpt><trkpt lat="42.575277" lon="-2.586773"><ele>673.5</ele><time>2011-11-30T09:34:20Z</time></trkpt><trkpt lat="42.575290" lon="-2.586775"><ele>673.5</ele><time>2011-11-30T09:34:21Z</time></trkpt><trkpt lat="42.575302" lon="-2.586780"><ele>673.5</ele><time>2011-11-30T09:34:22Z</time></trkpt><trkpt lat="42.575313" lon="-2.586785"><ele>673.5</ele><time>2011-11-30T09:34:23Z</time></trkpt><trkpt lat="42.575327" lon="-2.586790"><ele>673.5</ele><time>2011-11-30T09:34:24Z</time></trkpt><trkpt lat="42.575342" lon="-2.586795"><ele>673.5</ele><time>2011-11-30T09:34:25Z</time></trkpt><trkpt lat="42.575353" lon="-2.586798"><ele>673.5</ele><time>2011-11-30T09:34:26Z</time></trkpt><trkpt lat="42.575365" lon="-2.586803"><ele>673.0</ele><time>2011-11-30T09:34:27Z</time></trkpt><trkpt lat="42.575378" lon="-2.586812"><ele>673.0</ele><time>2011-11-30T09:34:28Z</time></trkpt><trkpt lat="42.575390" lon="-2.586818"><ele>673.5</ele><time>2011-11-30T09:34:29Z</time></trkpt><trkpt lat="42.575400" lon="-2.586828"><ele>673.5</ele><time>2011-11-30T09:34:30Z</time></trkpt><trkpt lat="42.575412" lon="-2.586835"><ele>673.5</ele><time>2011-11-30T09:34:31Z</time></trkpt><trkpt lat="42.575425" lon="-2.586840"><ele>673.5</ele><time>2011-11-30T09:34:32Z</time></trkpt><trkpt lat="42.575437" lon="-2.586848"><ele>673.5</ele><time>2011-11-30T09:34:33Z</time></trkpt><trkpt lat="42.575450" lon="-2.586855"><ele>673.5</ele><time>2011-11-30T09:34:34Z</time></trkpt><trkpt lat="42.575463" lon="-2.586862"><ele>673.5</ele><time>2011-11-30T09:34:35Z</time></trkpt><trkpt lat="42.575475" lon="-2.586868"><ele>673.5</ele><time>2011-11-30T09:34:36Z</time></trkpt><trkpt lat="42.575485" lon="-2.586877"><ele>673.5</ele><time>2011-11-30T09:34:37Z</time></trkpt><trkpt lat="42.575495" lon="-2.586885"><ele>673.0</ele><time>2011-11-30T09:34:38Z</time></trkpt><trkpt lat="42.575508" lon="-2.586897"><ele>673.5</ele><time>2011-11-30T09:34:39Z</time></trkpt><trkpt lat="42.575520" lon="-2.586902"><ele>673.5</ele><time>2011-11-30T09:34:40Z</time></trkpt><trkpt lat="42.575530" lon="-2.586908"><ele>673.5</ele><time>2011-11-30T09:34:41Z</time></trkpt><trkpt lat="42.575552" lon="-2.586917"><ele>673.0</ele><time>2011-11-30T09:34:42Z</time></trkpt><trkpt lat="42.575567" lon="-2.586927"><ele>673.5</ele><time>2011-11-30T09:34:43Z</time></trkpt><trkpt lat="42.575597" lon="-2.586937"><ele>674.0</ele><time>2011-11-30T09:34:44Z</time></trkpt><trkpt lat="42.575603" lon="-2.586945"><ele>674.0</ele><time>2011-11-30T09:34:45Z</time></trkpt><trkpt lat="42.575613" lon="-2.586958"><ele>674.5</ele><time>2011-11-30T09:34:46Z</time></trkpt><trkpt lat="42.575625" lon="-2.586970"><ele>674.5</ele><time>2011-11-30T09:34:47Z</time></trkpt><trkpt lat="42.575637" lon="-2.586982"><ele>675.0</ele><time>2011-11-30T09:34:48Z</time></trkpt><trkpt lat="42.575647" lon="-2.586992"><ele>675.5</ele><time>2011-11-30T09:34:49Z</time></trkpt><trkpt lat="42.575660" lon="-2.587000"><ele>675.5</ele><time>2011-11-30T09:34:50Z</time></trkpt><trkpt lat="42.575672" lon="-2.587010"><ele>676.0</ele><time>2011-11-30T09:34:51Z</time></trkpt><trkpt lat="42.575683" lon="-2.587020"><ele>676.0</ele><time>2011-11-30T09:34:52Z</time></trkpt><trkpt lat="42.575693" lon="-2.587030"><ele>676.0</ele><time>2011-11-30T09:34:53Z</time></trkpt><trkpt lat="42.575707" lon="-2.587040"><ele>676.5</ele><time>2011-11-30T09:34:54Z</time></trkpt><trkpt lat="42.575718" lon="-2.587048"><ele>676.5</ele><time>2011-11-30T09:34:55Z</time></trkpt><trkpt lat="42.575730" lon="-2.587058"><ele>676.5</ele><time>2011-11-30T09:34:56Z</time></trkpt><trkpt lat="42.575743" lon="-2.587067"><ele>676.5</ele><time>2011-11-30T09:34:57Z</time></trkpt><trkpt lat="42.575755" lon="-2.587077"><ele>676.5</ele><time>2011-11-30T09:34:58Z</time></trkpt><trkpt lat="42.575768" lon="-2.587085"><ele>676.5</ele><time>2011-11-30T09:34:59Z</time></trkpt><trkpt lat="42.575782" lon="-2.587095"><ele>676.5</ele><time>2011-11-30T09:35:00Z</time></trkpt><trkpt lat="42.575793" lon="-2.587107"><ele>677.0</ele><time>2011-11-30T09:35:01Z</time></trkpt><trkpt lat="42.575805" lon="-2.587118"><ele>677.0</ele><time>2011-11-30T09:35:02Z</time></trkpt><trkpt lat="42.575818" lon="-2.587127"><ele>677.0</ele><time>2011-11-30T09:35:03Z</time></trkpt><trkpt lat="42.575832" lon="-2.587137"><ele>677.0</ele><time>2011-11-30T09:35:04Z</time></trkpt><trkpt lat="42.575843" lon="-2.587148"><ele>677.0</ele><time>2011-11-30T09:35:05Z</time></trkpt><trkpt lat="42.575852" lon="-2.587160"><ele>677.0</ele><time>2011-11-30T09:35:06Z</time></trkpt><trkpt lat="42.575863" lon="-2.587172"><ele>677.0</ele><time>2011-11-30T09:35:07Z</time></trkpt><trkpt lat="42.575875" lon="-2.587182"><ele>677.0</ele><time>2011-11-30T09:35:08Z</time></trkpt><trkpt lat="42.575887" lon="-2.587193"><ele>677.0</ele><time>2011-11-30T09:35:09Z</time></trkpt><trkpt lat="42.575898" lon="-2.587207"><ele>677.0</ele><time>2011-11-30T09:35:10Z</time></trkpt><trkpt lat="42.575910" lon="-2.587218"><ele>677.0</ele><time>2011-11-30T09:35:11Z</time></trkpt><trkpt lat="42.575922" lon="-2.587232"><ele>677.0</ele><time>2011-11-30T09:35:12Z</time></trkpt><trkpt lat="42.575932" lon="-2.587250"><ele>677.5</ele><time>2011-11-30T09:35:13Z</time></trkpt><trkpt lat="42.575943" lon="-2.587263"><ele>677.5</ele><time>2011-11-30T09:35:14Z</time></trkpt><trkpt lat="42.575955" lon="-2.587272"><ele>677.5</ele><time>2011-11-30T09:35:15Z</time></trkpt><trkpt lat="42.575967" lon="-2.587285"><ele>677.5</ele><time>2011-11-30T09:35:16Z</time></trkpt><trkpt lat="42.575978" lon="-2.587300"><ele>678.5</ele><time>2011-11-30T09:35:17Z</time></trkpt><trkpt lat="42.575987" lon="-2.587312"><ele>678.5</ele><time>2011-11-30T09:35:18Z</time></trkpt><trkpt lat="42.575997" lon="-2.587323"><ele>678.5</ele><time>2011-11-30T09:35:19Z</time></trkpt><trkpt lat="42.576008" lon="-2.587335"><ele>679.0</ele><time>2011-11-30T09:35:20Z</time></trkpt><trkpt lat="42.576018" lon="-2.587345"><ele>679.0</ele><time>2011-11-30T09:35:21Z</time></trkpt><trkpt lat="42.576032" lon="-2.587355"><ele>679.0</ele><time>2011-11-30T09:35:22Z</time></trkpt><trkpt lat="42.576043" lon="-2.587363"><ele>679.0</ele><time>2011-11-30T09:35:23Z</time></trkpt><trkpt lat="42.576057" lon="-2.587372"><ele>679.0</ele><time>2011-11-30T09:35:24Z</time></trkpt><trkpt lat="42.576068" lon="-2.587382"><ele>679.0</ele><time>2011-11-30T09:35:25Z</time></trkpt><trkpt lat="42.576080" lon="-2.587390"><ele>679.0</ele><time>2011-11-30T09:35:26Z</time></trkpt><trkpt lat="42.576092" lon="-2.587393"><ele>678.0</ele><time>2011-11-30T09:35:27Z</time></trkpt><trkpt lat="42.576103" lon="-2.587405"><ele>678.5</ele><time>2011-11-30T09:35:28Z</time></trkpt><trkpt lat="42.576113" lon="-2.587413"><ele>678.5</ele><time>2011-11-30T09:35:29Z</time></trkpt><trkpt lat="42.576123" lon="-2.587418"><ele>678.5</ele><time>2011-11-30T09:35:30Z</time></trkpt><trkpt lat="42.576133" lon="-2.587418"><ele>678.5</ele><time>2011-11-30T09:35:31Z</time></trkpt><trkpt lat="42.576143" lon="-2.587420"><ele>678.0</ele><time>2011-11-30T09:35:32Z</time></trkpt><trkpt lat="42.576155" lon="-2.587422"><ele>678.0</ele><time>2011-11-30T09:35:33Z</time></trkpt><trkpt lat="42.576167" lon="-2.587427"><ele>677.5</ele><time>2011-11-30T09:35:34Z</time></trkpt><trkpt lat="42.576180" lon="-2.587433"><ele>677.5</ele><time>2011-11-30T09:35:35Z</time></trkpt><trkpt lat="42.576193" lon="-2.587437"><ele>677.5</ele><time>2011-11-30T09:35:36Z</time></trkpt><trkpt lat="42.576207" lon="-2.587440"><ele>677.5</ele><time>2011-11-30T09:35:37Z</time></trkpt><trkpt lat="42.576220" lon="-2.587447"><ele>677.5</ele><time>2011-11-30T09:35:38Z</time></trkpt><trkpt lat="42.576233" lon="-2.587453"><ele>677.5</ele><time>2011-11-30T09:35:39Z</time></trkpt><trkpt lat="42.576248" lon="-2.587462"><ele>677.5</ele><time>2011-11-30T09:35:40Z</time></trkpt><trkpt lat="42.576262" lon="-2.587467"><ele>677.5</ele><time>2011-11-30T09:35:41Z</time></trkpt><trkpt lat="42.576273" lon="-2.587470"><ele>677.5</ele><time>2011-11-30T09:35:42Z</time></trkpt><trkpt lat="42.576287" lon="-2.587470"><ele>677.5</ele><time>2011-11-30T09:35:43Z</time></trkpt><trkpt lat="42.576300" lon="-2.587473"><ele>677.5</ele><time>2011-11-30T09:35:44Z</time></trkpt><trkpt lat="42.576313" lon="-2.587477"><ele>677.5</ele><time>2011-11-30T09:35:45Z</time></trkpt><trkpt lat="42.576327" lon="-2.587480"><ele>677.0</ele><time>2011-11-30T09:35:46Z</time></trkpt><trkpt lat="42.576340" lon="-2.587485"><ele>677.0</ele><time>2011-11-30T09:35:47Z</time></trkpt><trkpt lat="42.576352" lon="-2.587487"><ele>677.0</ele><time>2011-11-30T09:35:48Z</time></trkpt><trkpt lat="42.576362" lon="-2.587485"><ele>677.0</ele><time>2011-11-30T09:35:49Z</time></trkpt><trkpt lat="42.576373" lon="-2.587487"><ele>677.5</ele><time>2011-11-30T09:35:50Z</time></trkpt><trkpt lat="42.576387" lon="-2.587492"><ele>677.5</ele><time>2011-11-30T09:35:51Z</time></trkpt><trkpt lat="42.576402" lon="-2.587497"><ele>677.5</ele><time>2011-11-30T09:35:52Z</time></trkpt><trkpt lat="42.576415" lon="-2.587498"><ele>677.5</ele><time>2011-11-30T09:35:53Z</time></trkpt><trkpt lat="42.576428" lon="-2.587502"><ele>677.5</ele><time>2011-11-30T09:35:54Z</time></trkpt><trkpt lat="42.576440" lon="-2.587505"><ele>677.5</ele><time>2011-11-30T09:35:55Z</time></trkpt><trkpt lat="42.576453" lon="-2.587508"><ele>678.0</ele><time>2011-11-30T09:35:56Z</time></trkpt><trkpt lat="42.576467" lon="-2.587512"><ele>678.0</ele><time>2011-11-30T09:35:57Z</time></trkpt><trkpt lat="42.576478" lon="-2.587517"><ele>678.5</ele><time>2011-11-30T09:35:58Z</time></trkpt><trkpt lat="42.576495" lon="-2.587520"><ele>678.5</ele><time>2011-11-30T09:35:59Z</time></trkpt><trkpt lat="42.576508" lon="-2.587525"><ele>678.5</ele><time>2011-11-30T09:36:00Z</time></trkpt><trkpt lat="42.576520" lon="-2.587528"><ele>678.5</ele><time>2011-11-30T09:36:01Z</time></trkpt><trkpt lat="42.576532" lon="-2.587532"><ele>678.5</ele><time>2011-11-30T09:36:02Z</time></trkpt><trkpt lat="42.576545" lon="-2.587533"><ele>678.5</ele><time>2011-11-30T09:36:03Z</time></trkpt><trkpt lat="42.576557" lon="-2.587537"><ele>678.5</ele><time>2011-11-30T09:36:04Z</time></trkpt><trkpt lat="42.576570" lon="-2.587542"><ele>679.0</ele><time>2011-11-30T09:36:05Z</time></trkpt><trkpt lat="42.576582" lon="-2.587545"><ele>679.0</ele><time>2011-11-30T09:36:06Z</time></trkpt><trkpt lat="42.576593" lon="-2.587550"><ele>679.0</ele><time>2011-11-30T09:36:07Z</time></trkpt><trkpt lat="42.576605" lon="-2.587557"><ele>679.5</ele><time>2011-11-30T09:36:08Z</time></trkpt><trkpt lat="42.576617" lon="-2.587560"><ele>679.5</ele><time>2011-11-30T09:36:09Z</time></trkpt><trkpt lat="42.576628" lon="-2.587562"><ele>680.0</ele><time>2011-11-30T09:36:10Z</time></trkpt><trkpt lat="42.576638" lon="-2.587565"><ele>680.0</ele><time>2011-11-30T09:36:11Z</time></trkpt><trkpt lat="42.576650" lon="-2.587568"><ele>680.0</ele><time>2011-11-30T09:36:12Z</time></trkpt><trkpt lat="42.576662" lon="-2.587573"><ele>680.0</ele><time>2011-11-30T09:36:13Z</time></trkpt><trkpt lat="42.576673" lon="-2.587578"><ele>680.0</ele><time>2011-11-30T09:36:14Z</time></trkpt><trkpt lat="42.576685" lon="-2.587582"><ele>680.0</ele><time>2011-11-30T09:36:15Z</time></trkpt><trkpt lat="42.576697" lon="-2.587587"><ele>680.5</ele><time>2011-11-30T09:36:16Z</time></trkpt><trkpt lat="42.576708" lon="-2.587592"><ele>680.5</ele><time>2011-11-30T09:36:17Z</time></trkpt><trkpt lat="42.576722" lon="-2.587597"><ele>680.5</ele><time>2011-11-30T09:36:18Z</time></trkpt><trkpt lat="42.576733" lon="-2.587598"><ele>680.5</ele><time>2011-11-30T09:36:19Z</time></trkpt><trkpt lat="42.576745" lon="-2.587603"><ele>680.5</ele><time>2011-11-30T09:36:20Z</time></trkpt><trkpt lat="42.576757" lon="-2.587607"><ele>680.5</ele><time>2011-11-30T09:36:21Z</time></trkpt><trkpt lat="42.576768" lon="-2.587610"><ele>680.5</ele><time>2011-11-30T09:36:22Z</time></trkpt><trkpt lat="42.576778" lon="-2.587615"><ele>680.5</ele><time>2011-11-30T09:36:23Z</time></trkpt><trkpt lat="42.576790" lon="-2.587618"><ele>680.5</ele><time>2011-11-30T09:36:24Z</time></trkpt><trkpt lat="42.576803" lon="-2.587625"><ele>680.5</ele><time>2011-11-30T09:36:25Z</time></trkpt><trkpt lat="42.576815" lon="-2.587628"><ele>680.5</ele><time>2011-11-30T09:36:26Z</time></trkpt><trkpt lat="42.576827" lon="-2.587632"><ele>680.5</ele><time>2011-11-30T09:36:27Z</time></trkpt><trkpt lat="42.576837" lon="-2.587635"><ele>680.0</ele><time>2011-11-30T09:36:28Z</time></trkpt><trkpt lat="42.576850" lon="-2.587640"><ele>680.0</ele><time>2011-11-30T09:36:29Z</time></trkpt><trkpt lat="42.576860" lon="-2.587643"><ele>680.0</ele><time>2011-11-30T09:36:30Z</time></trkpt><trkpt lat="42.576870" lon="-2.587647"><ele>680.0</ele><time>2011-11-30T09:36:31Z</time></trkpt><trkpt lat="42.576883" lon="-2.587650"><ele>680.0</ele><time>2011-11-30T09:36:32Z</time></trkpt><trkpt lat="42.576895" lon="-2.587653"><ele>680.0</ele><time>2011-11-30T09:36:33Z</time></trkpt><trkpt lat="42.576907" lon="-2.587657"><ele>680.0</ele><time>2011-11-30T09:36:34Z</time></trkpt><trkpt lat="42.576918" lon="-2.587662"><ele>680.0</ele><time>2011-11-30T09:36:35Z</time></trkpt><trkpt lat="42.576932" lon="-2.587668"><ele>680.0</ele><time>2011-11-30T09:36:36Z</time></trkpt><trkpt lat="42.576945" lon="-2.587673"><ele>680.5</ele><time>2011-11-30T09:36:37Z</time></trkpt><trkpt lat="42.576958" lon="-2.587678"><ele>680.5</ele><time>2011-11-30T09:36:38Z</time></trkpt><trkpt lat="42.576970" lon="-2.587685"><ele>680.5</ele><time>2011-11-30T09:36:39Z</time></trkpt><trkpt lat="42.576982" lon="-2.587690"><ele>680.5</ele><time>2011-11-30T09:36:40Z</time></trkpt><trkpt lat="42.576992" lon="-2.587693"><ele>680.5</ele><time>2011-11-30T09:36:41Z</time></trkpt><trkpt lat="42.577003" lon="-2.587698"><ele>680.5</ele><time>2011-11-30T09:36:42Z</time></trkpt><trkpt lat="42.577018" lon="-2.587705"><ele>681.0</ele><time>2011-11-30T09:36:43Z</time></trkpt><trkpt lat="42.577030" lon="-2.587710"><ele>681.0</ele><time>2011-11-30T09:36:44Z</time></trkpt><trkpt lat="42.577043" lon="-2.587715"><ele>681.0</ele><time>2011-11-30T09:36:45Z</time></trkpt><trkpt lat="42.577055" lon="-2.587720"><ele>681.0</ele><time>2011-11-30T09:36:46Z</time></trkpt><trkpt lat="42.577067" lon="-2.587725"><ele>681.0</ele><time>2011-11-30T09:36:47Z</time></trkpt><trkpt lat="42.577080" lon="-2.587728"><ele>681.0</ele><time>2011-11-30T09:36:48Z</time></trkpt><trkpt lat="42.577093" lon="-2.587733"><ele>681.5</ele><time>2011-11-30T09:36:49Z</time></trkpt><trkpt lat="42.577105" lon="-2.587737"><ele>681.5</ele><time>2011-11-30T09:36:50Z</time></trkpt><trkpt lat="42.577120" lon="-2.587743"><ele>681.5</ele><time>2011-11-30T09:36:51Z</time></trkpt><trkpt lat="42.577130" lon="-2.587750"><ele>681.5</ele><time>2011-11-30T09:36:52Z</time></trkpt><trkpt lat="42.577142" lon="-2.587755"><ele>682.0</ele><time>2011-11-30T09:36:53Z</time></trkpt><trkpt lat="42.577153" lon="-2.587762"><ele>682.0</ele><time>2011-11-30T09:36:54Z</time></trkpt><trkpt lat="42.577165" lon="-2.587767"><ele>682.0</ele><time>2011-11-30T09:36:55Z</time></trkpt><trkpt lat="42.577177" lon="-2.587770"><ele>682.0</ele><time>2011-11-30T09:36:56Z</time></trkpt><trkpt lat="42.577190" lon="-2.587773"><ele>682.5</ele><time>2011-11-30T09:36:57Z</time></trkpt><trkpt lat="42.577202" lon="-2.587777"><ele>682.5</ele><time>2011-11-30T09:36:58Z</time></trkpt><trkpt lat="42.577213" lon="-2.587782"><ele>682.5</ele><time>2011-11-30T09:36:59Z</time></trkpt><trkpt lat="42.577227" lon="-2.587783"><ele>682.5</ele><time>2011-11-30T09:37:00Z</time></trkpt><trkpt lat="42.577238" lon="-2.587788"><ele>682.5</ele><time>2011-11-30T09:37:01Z</time></trkpt><trkpt lat="42.577250" lon="-2.587792"><ele>683.0</ele><time>2011-11-30T09:37:02Z</time></trkpt><trkpt lat="42.577263" lon="-2.587797"><ele>682.5</ele><time>2011-11-30T09:37:03Z</time></trkpt><trkpt lat="42.577275" lon="-2.587802"><ele>683.0</ele><time>2011-11-30T09:37:04Z</time></trkpt><trkpt lat="42.577287" lon="-2.587807"><ele>683.0</ele><time>2011-11-30T09:37:05Z</time></trkpt><trkpt lat="42.577298" lon="-2.587812"><ele>683.0</ele><time>2011-11-30T09:37:06Z</time></trkpt><trkpt lat="42.577312" lon="-2.587818"><ele>683.5</ele><time>2011-11-30T09:37:07Z</time></trkpt><trkpt lat="42.577323" lon="-2.587822"><ele>683.0</ele><time>2011-11-30T09:37:08Z</time></trkpt><trkpt lat="42.577335" lon="-2.587827"><ele>683.5</ele><time>2011-11-30T09:37:09Z</time></trkpt><trkpt lat="42.577347" lon="-2.587833"><ele>683.5</ele><time>2011-11-30T09:37:10Z</time></trkpt><trkpt lat="42.577360" lon="-2.587838"><ele>683.5</ele><time>2011-11-30T09:37:11Z</time></trkpt><trkpt lat="42.577373" lon="-2.587845"><ele>683.5</ele><time>2011-11-30T09:37:12Z</time></trkpt><trkpt lat="42.577387" lon="-2.587850"><ele>683.5</ele><time>2011-11-30T09:37:13Z</time></trkpt><trkpt lat="42.577398" lon="-2.587857"><ele>683.5</ele><time>2011-11-30T09:37:14Z</time></trkpt><trkpt lat="42.577408" lon="-2.587863"><ele>683.5</ele><time>2011-11-30T09:37:15Z</time></trkpt><trkpt lat="42.577427" lon="-2.587872"><ele>683.5</ele><time>2011-11-30T09:37:16Z</time></trkpt><trkpt lat="42.577440" lon="-2.587878"><ele>683.5</ele><time>2011-11-30T09:37:17Z</time></trkpt><trkpt lat="42.577453" lon="-2.587885"><ele>683.5</ele><time>2011-11-30T09:37:18Z</time></trkpt><trkpt lat="42.577465" lon="-2.587893"><ele>684.0</ele><time>2011-11-30T09:37:19Z</time></trkpt><trkpt lat="42.577477" lon="-2.587903"><ele>684.0</ele><time>2011-11-30T09:37:20Z</time></trkpt><trkpt lat="42.577488" lon="-2.587912"><ele>684.0</ele><time>2011-11-30T09:37:21Z</time></trkpt><trkpt lat="42.577500" lon="-2.587920"><ele>684.5</ele><time>2011-11-30T09:37:22Z</time></trkpt><trkpt lat="42.577508" lon="-2.587927"><ele>684.5</ele><time>2011-11-30T09:37:23Z</time></trkpt><trkpt lat="42.577518" lon="-2.587937"><ele>685.0</ele><time>2011-11-30T09:37:24Z</time></trkpt><trkpt lat="42.577527" lon="-2.587943"><ele>685.0</ele><time>2011-11-30T09:37:25Z</time></trkpt><trkpt lat="42.577535" lon="-2.587952"><ele>685.0</ele><time>2011-11-30T09:37:26Z</time></trkpt><trkpt lat="42.577543" lon="-2.587967"><ele>685.0</ele><time>2011-11-30T09:37:27Z</time></trkpt><trkpt lat="42.577550" lon="-2.587980"><ele>685.5</ele><time>2011-11-30T09:37:28Z</time></trkpt><trkpt lat="42.577558" lon="-2.587992"><ele>686.0</ele><time>2011-11-30T09:37:29Z</time></trkpt><trkpt lat="42.577568" lon="-2.588002"><ele>686.5</ele><time>2011-11-30T09:37:30Z</time></trkpt><trkpt lat="42.577578" lon="-2.588012"><ele>686.5</ele><time>2011-11-30T09:37:31Z</time></trkpt><trkpt lat="42.577587" lon="-2.588022"><ele>686.5</ele><time>2011-11-30T09:37:32Z</time></trkpt><trkpt lat="42.577598" lon="-2.588032"><ele>686.5</ele><time>2011-11-30T09:37:33Z</time></trkpt><trkpt lat="42.577607" lon="-2.588042"><ele>686.5</ele><time>2011-11-30T09:37:34Z</time></trkpt><trkpt lat="42.577615" lon="-2.588048"><ele>687.0</ele><time>2011-11-30T09:37:35Z</time></trkpt><trkpt lat="42.577623" lon="-2.588053"><ele>687.0</ele><time>2011-11-30T09:37:36Z</time></trkpt><trkpt lat="42.577632" lon="-2.588060"><ele>687.0</ele><time>2011-11-30T09:37:37Z</time></trkpt><trkpt lat="42.577640" lon="-2.588072"><ele>687.5</ele><time>2011-11-30T09:37:38Z</time></trkpt><trkpt lat="42.577650" lon="-2.588080"><ele>688.0</ele><time>2011-11-30T09:37:39Z</time></trkpt><trkpt lat="42.577662" lon="-2.588083"><ele>687.5</ele><time>2011-11-30T09:37:40Z</time></trkpt><trkpt lat="42.577670" lon="-2.588092"><ele>688.0</ele><time>2011-11-30T09:37:41Z</time></trkpt><trkpt lat="42.577678" lon="-2.588102"><ele>688.5</ele><time>2011-11-30T09:37:42Z</time></trkpt><trkpt lat="42.577685" lon="-2.588113"><ele>689.5</ele><time>2011-11-30T09:37:43Z</time></trkpt><trkpt lat="42.577693" lon="-2.588118"><ele>689.5</ele><time>2011-11-30T09:37:44Z</time></trkpt><trkpt lat="42.577702" lon="-2.588127"><ele>689.5</ele><time>2011-11-30T09:37:45Z</time></trkpt><trkpt lat="42.577708" lon="-2.588137"><ele>689.5</ele><time>2011-11-30T09:37:46Z</time></trkpt><trkpt lat="42.577713" lon="-2.588147"><ele>690.0</ele><time>2011-11-30T09:37:47Z</time></trkpt><trkpt lat="42.577722" lon="-2.588155"><ele>690.0</ele><time>2011-11-30T09:37:48Z</time></trkpt><trkpt lat="42.577730" lon="-2.588165"><ele>690.5</ele><time>2011-11-30T09:37:49Z</time></trkpt><trkpt lat="42.577738" lon="-2.588182"><ele>691.0</ele><time>2011-11-30T09:37:50Z</time></trkpt><trkpt lat="42.577747" lon="-2.588190"><ele>691.5</ele><time>2011-11-30T09:37:51Z</time></trkpt><trkpt lat="42.577757" lon="-2.588200"><ele>692.0</ele><time>2011-11-30T09:37:52Z</time></trkpt><trkpt lat="42.577767" lon="-2.588207"><ele>692.0</ele><time>2011-11-30T09:37:53Z</time></trkpt><trkpt lat="42.577778" lon="-2.588217"><ele>692.0</ele><time>2011-11-30T09:37:54Z</time></trkpt><trkpt lat="42.577788" lon="-2.588223"><ele>692.0</ele><time>2011-11-30T09:37:55Z</time></trkpt><trkpt lat="42.577798" lon="-2.588230"><ele>692.0</ele><time>2011-11-30T09:37:56Z</time></trkpt><trkpt lat="42.577807" lon="-2.588242"><ele>692.5</ele><time>2011-11-30T09:37:57Z</time></trkpt><trkpt lat="42.577812" lon="-2.588257"><ele>692.5</ele><time>2011-11-30T09:37:58Z</time></trkpt><trkpt lat="42.577822" lon="-2.588263"><ele>692.5</ele><time>2011-11-30T09:37:59Z</time></trkpt><trkpt lat="42.577828" lon="-2.588273"><ele>692.5</ele><time>2011-11-30T09:38:00Z</time></trkpt><trkpt lat="42.577835" lon="-2.588287"><ele>692.5</ele><time>2011-11-30T09:38:01Z</time></trkpt><trkpt lat="42.577842" lon="-2.588303"><ele>693.5</ele><time>2011-11-30T09:38:02Z</time></trkpt><trkpt lat="42.577850" lon="-2.588317"><ele>694.5</ele><time>2011-11-30T09:38:03Z</time></trkpt><trkpt lat="42.577858" lon="-2.588328"><ele>694.5</ele><time>2011-11-30T09:38:04Z</time></trkpt><trkpt lat="42.577863" lon="-2.588358"><ele>694.5</ele><time>2011-11-30T09:38:05Z</time></trkpt><trkpt lat="42.577872" lon="-2.588370"><ele>694.0</ele><time>2011-11-30T09:38:06Z</time></trkpt><trkpt lat="42.577880" lon="-2.588380"><ele>694.5</ele><time>2011-11-30T09:38:07Z</time></trkpt><trkpt lat="42.577890" lon="-2.588385"><ele>694.5</ele><time>2011-11-30T09:38:08Z</time></trkpt><trkpt lat="42.577898" lon="-2.588393"><ele>694.0</ele><time>2011-11-30T09:38:09Z</time></trkpt><trkpt lat="42.577905" lon="-2.588403"><ele>694.5</ele><time>2011-11-30T09:38:10Z</time></trkpt><trkpt lat="42.577917" lon="-2.588402"><ele>693.5</ele><time>2011-11-30T09:38:11Z</time></trkpt><trkpt lat="42.577927" lon="-2.588410"><ele>693.5</ele><time>2011-11-30T09:38:12Z</time></trkpt><trkpt lat="42.577938" lon="-2.588413"><ele>693.0</ele><time>2011-11-30T09:38:13Z</time></trkpt><trkpt lat="42.577948" lon="-2.588423"><ele>693.0</ele><time>2011-11-30T09:38:14Z</time></trkpt><trkpt lat="42.577963" lon="-2.588435"><ele>693.5</ele><time>2011-11-30T09:38:15Z</time></trkpt><trkpt lat="42.577978" lon="-2.588455"><ele>694.5</ele><time>2011-11-30T09:38:16Z</time></trkpt><trkpt lat="42.577995" lon="-2.588465"><ele>694.0</ele><time>2011-11-30T09:38:17Z</time></trkpt><trkpt lat="42.578010" lon="-2.588478"><ele>694.0</ele><time>2011-11-30T09:38:18Z</time></trkpt><trkpt lat="42.578022" lon="-2.588492"><ele>694.5</ele><time>2011-11-30T09:38:19Z</time></trkpt><trkpt lat="42.578035" lon="-2.588505"><ele>694.5</ele><time>2011-11-30T09:38:20Z</time></trkpt><trkpt lat="42.578048" lon="-2.588522"><ele>695.0</ele><time>2011-11-30T09:38:21Z</time></trkpt><trkpt lat="42.578060" lon="-2.588537"><ele>695.5</ele><time>2011-11-30T09:38:22Z</time></trkpt><trkpt lat="42.578068" lon="-2.588553"><ele>696.0</ele><time>2011-11-30T09:38:23Z</time></trkpt><trkpt lat="42.578078" lon="-2.588565"><ele>695.0</ele><time>2011-11-30T09:38:24Z</time></trkpt><trkpt lat="42.578088" lon="-2.588580"><ele>695.5</ele><time>2011-11-30T09:38:25Z</time></trkpt><trkpt lat="42.578097" lon="-2.588595"><ele>696.5</ele><time>2011-11-30T09:38:26Z</time></trkpt><trkpt lat="42.578105" lon="-2.588608"><ele>696.5</ele><time>2011-11-30T09:38:27Z</time></trkpt><trkpt lat="42.578113" lon="-2.588620"><ele>697.0</ele><time>2011-11-30T09:38:28Z</time></trkpt><trkpt lat="42.578122" lon="-2.588633"><ele>698.0</ele><time>2011-11-30T09:38:29Z</time></trkpt><trkpt lat="42.578133" lon="-2.588640"><ele>698.0</ele><time>2011-11-30T09:38:30Z</time></trkpt><trkpt lat="42.578145" lon="-2.588648"><ele>698.0</ele><time>2011-11-30T09:38:31Z</time></trkpt><trkpt lat="42.578158" lon="-2.588657"><ele>698.5</ele><time>2011-11-30T09:38:32Z</time></trkpt><trkpt lat="42.578170" lon="-2.588665"><ele>698.5</ele><time>2011-11-30T09:38:33Z</time></trkpt><trkpt lat="42.578178" lon="-2.588675"><ele>698.5</ele><time>2011-11-30T09:38:34Z</time></trkpt><trkpt lat="42.578188" lon="-2.588687"><ele>698.0</ele><time>2011-11-30T09:38:35Z</time></trkpt><trkpt lat="42.578197" lon="-2.588702"><ele>698.5</ele><time>2011-11-30T09:38:36Z</time></trkpt><trkpt lat="42.578207" lon="-2.588717"><ele>699.0</ele><time>2011-11-30T09:38:37Z</time></trkpt><trkpt lat="42.578218" lon="-2.588732"><ele>699.5</ele><time>2011-11-30T09:38:38Z</time></trkpt><trkpt lat="42.578230" lon="-2.588748"><ele>700.0</ele><time>2011-11-30T09:38:39Z</time></trkpt><trkpt lat="42.578240" lon="-2.588767"><ele>701.0</ele><time>2011-11-30T09:38:40Z</time></trkpt><trkpt lat="42.578252" lon="-2.588780"><ele>701.0</ele><time>2011-11-30T09:38:41Z</time></trkpt><trkpt lat="42.578262" lon="-2.588795"><ele>701.5</ele><time>2011-11-30T09:38:42Z</time></trkpt><trkpt lat="42.578272" lon="-2.588810"><ele>701.5</ele><time>2011-11-30T09:38:43Z</time></trkpt><trkpt lat="42.578280" lon="-2.588827"><ele>702.0</ele><time>2011-11-30T09:38:44Z</time></trkpt><trkpt lat="42.578292" lon="-2.588840"><ele>702.5</ele><time>2011-11-30T09:38:45Z</time></trkpt><trkpt lat="42.578302" lon="-2.588855"><ele>703.0</ele><time>2011-11-30T09:38:46Z</time></trkpt><trkpt lat="42.578310" lon="-2.588867"><ele>703.5</ele><time>2011-11-30T09:38:47Z</time></trkpt><trkpt lat="42.578322" lon="-2.588880"><ele>703.5</ele><time>2011-11-30T09:38:48Z</time></trkpt><trkpt lat="42.578332" lon="-2.588893"><ele>703.5</ele><time>2011-11-30T09:38:49Z</time></trkpt><trkpt lat="42.578342" lon="-2.588907"><ele>703.0</ele><time>2011-11-30T09:38:50Z</time></trkpt><trkpt lat="42.578350" lon="-2.588918"><ele>703.0</ele><time>2011-11-30T09:38:51Z</time></trkpt><trkpt lat="42.578358" lon="-2.588930"><ele>703.0</ele><time>2011-11-30T09:38:52Z</time></trkpt><trkpt lat="42.578368" lon="-2.588940"><ele>702.5</ele><time>2011-11-30T09:38:53Z</time></trkpt><trkpt lat="42.578378" lon="-2.588952"><ele>702.5</ele><time>2011-11-30T09:38:54Z</time></trkpt><trkpt lat="42.578388" lon="-2.588960"><ele>702.5</ele><time>2011-11-30T09:38:55Z</time></trkpt><trkpt lat="42.578397" lon="-2.588977"><ele>702.5</ele><time>2011-11-30T09:38:56Z</time></trkpt><trkpt lat="42.578403" lon="-2.588993"><ele>703.0</ele><time>2011-11-30T09:38:57Z</time></trkpt><trkpt lat="42.578410" lon="-2.589017"><ele>704.0</ele><time>2011-11-30T09:38:58Z</time></trkpt><trkpt lat="42.578415" lon="-2.589028"><ele>704.0</ele><time>2011-11-30T09:38:59Z</time></trkpt><trkpt lat="42.578422" lon="-2.589047"><ele>704.5</ele><time>2011-11-30T09:39:00Z</time></trkpt><trkpt lat="42.578425" lon="-2.589067"><ele>705.5</ele><time>2011-11-30T09:39:01Z</time></trkpt><trkpt lat="42.578432" lon="-2.589078"><ele>706.0</ele><time>2011-11-30T09:39:02Z</time></trkpt><trkpt lat="42.578438" lon="-2.589093"><ele>706.5</ele><time>2011-11-30T09:39:03Z</time></trkpt><trkpt lat="42.578447" lon="-2.589108"><ele>707.0</ele><time>2011-11-30T09:39:04Z</time></trkpt><trkpt lat="42.578457" lon="-2.589118"><ele>707.0</ele><time>2011-11-30T09:39:05Z</time></trkpt><trkpt lat="42.578465" lon="-2.589132"><ele>707.5</ele><time>2011-11-30T09:39:06Z</time></trkpt><trkpt lat="42.578473" lon="-2.589143"><ele>707.5</ele><time>2011-11-30T09:39:07Z</time></trkpt><trkpt lat="42.578482" lon="-2.589150"><ele>707.5</ele><time>2011-11-30T09:39:08Z</time></trkpt><trkpt lat="42.578490" lon="-2.589160"><ele>707.5</ele><time>2011-11-30T09:39:09Z</time></trkpt><trkpt lat="42.578500" lon="-2.589170"><ele>707.5</ele><time>2011-11-30T09:39:10Z</time></trkpt><trkpt lat="42.578503" lon="-2.589183"><ele>708.0</ele><time>2011-11-30T09:39:11Z</time></trkpt><trkpt lat="42.578510" lon="-2.589190"><ele>708.0</ele><time>2011-11-30T09:39:12Z</time></trkpt><trkpt lat="42.578517" lon="-2.589197"><ele>707.5</ele><time>2011-11-30T09:39:13Z</time></trkpt><trkpt lat="42.578523" lon="-2.589203"><ele>707.5</ele><time>2011-11-30T09:39:14Z</time></trkpt><trkpt lat="42.578532" lon="-2.589212"><ele>707.5</ele><time>2011-11-30T09:39:15Z</time></trkpt><trkpt lat="42.578542" lon="-2.589220"><ele>707.5</ele><time>2011-11-30T09:39:16Z</time></trkpt><trkpt lat="42.578555" lon="-2.589225"><ele>707.5</ele><time>2011-11-30T09:39:17Z</time></trkpt><trkpt lat="42.578568" lon="-2.589223"><ele>707.0</ele><time>2011-11-30T09:39:18Z</time></trkpt><trkpt lat="42.578580" lon="-2.589218"><ele>707.0</ele><time>2011-11-30T09:39:19Z</time></trkpt><trkpt lat="42.578590" lon="-2.589220"><ele>707.0</ele><time>2011-11-30T09:39:20Z</time></trkpt><trkpt lat="42.578600" lon="-2.589225"><ele>707.0</ele><time>2011-11-30T09:39:21Z</time></trkpt><trkpt lat="42.578610" lon="-2.589233"><ele>707.0</ele><time>2011-11-30T09:39:22Z</time></trkpt><trkpt lat="42.578618" lon="-2.589242"><ele>707.0</ele><time>2011-11-30T09:39:23Z</time></trkpt><trkpt lat="42.578625" lon="-2.589250"><ele>707.5</ele><time>2011-11-30T09:39:24Z</time></trkpt><trkpt lat="42.578632" lon="-2.589257"><ele>707.5</ele><time>2011-11-30T09:39:25Z</time></trkpt><trkpt lat="42.578640" lon="-2.589267"><ele>707.5</ele><time>2011-11-30T09:39:26Z</time></trkpt><trkpt lat="42.578647" lon="-2.589275"><ele>707.5</ele><time>2011-11-30T09:39:27Z</time></trkpt><trkpt lat="42.578653" lon="-2.589285"><ele>707.5</ele><time>2011-11-30T09:39:28Z</time></trkpt><trkpt lat="42.578658" lon="-2.589300"><ele>708.0</ele><time>2011-11-30T09:39:29Z</time></trkpt><trkpt lat="42.578665" lon="-2.589313"><ele>708.0</ele><time>2011-11-30T09:39:30Z</time></trkpt><trkpt lat="42.578673" lon="-2.589323"><ele>708.5</ele><time>2011-11-30T09:39:31Z</time></trkpt><trkpt lat="42.578683" lon="-2.589333"><ele>708.5</ele><time>2011-11-30T09:39:32Z</time></trkpt><trkpt lat="42.578690" lon="-2.589340"><ele>709.0</ele><time>2011-11-30T09:39:33Z</time></trkpt><trkpt lat="42.578697" lon="-2.589350"><ele>709.5</ele><time>2011-11-30T09:39:34Z</time></trkpt><trkpt lat="42.578705" lon="-2.589365"><ele>710.0</ele><time>2011-11-30T09:39:35Z</time></trkpt><trkpt lat="42.578712" lon="-2.589378"><ele>710.5</ele><time>2011-11-30T09:39:36Z</time></trkpt><trkpt lat="42.578717" lon="-2.589392"><ele>711.0</ele><time>2011-11-30T09:39:37Z</time></trkpt><trkpt lat="42.578725" lon="-2.589395"><ele>710.5</ele><time>2011-11-30T09:39:38Z</time></trkpt><trkpt lat="42.578733" lon="-2.589405"><ele>711.0</ele><time>2011-11-30T09:39:39Z</time></trkpt><trkpt lat="42.578742" lon="-2.589417"><ele>711.5</ele><time>2011-11-30T09:39:40Z</time></trkpt><trkpt lat="42.578750" lon="-2.589425"><ele>711.5</ele><time>2011-11-30T09:39:41Z</time></trkpt><trkpt lat="42.578757" lon="-2.589432"><ele>711.5</ele><time>2011-11-30T09:39:42Z</time></trkpt><trkpt lat="42.578765" lon="-2.589443"><ele>711.5</ele><time>2011-11-30T09:39:43Z</time></trkpt><trkpt lat="42.578773" lon="-2.589453"><ele>711.5</ele><time>2011-11-30T09:39:44Z</time></trkpt><trkpt lat="42.578782" lon="-2.589462"><ele>712.0</ele><time>2011-11-30T09:39:45Z</time></trkpt><trkpt lat="42.578792" lon="-2.589473"><ele>712.5</ele><time>2011-11-30T09:39:46Z</time></trkpt><trkpt lat="42.578797" lon="-2.589480"><ele>713.0</ele><time>2011-11-30T09:39:47Z</time></trkpt><trkpt lat="42.578808" lon="-2.589498"><ele>713.5</ele><time>2011-11-30T09:39:48Z</time></trkpt><trkpt lat="42.578815" lon="-2.589512"><ele>713.5</ele><time>2011-11-30T09:39:49Z</time></trkpt><trkpt lat="42.578822" lon="-2.589520"><ele>713.0</ele><time>2011-11-30T09:39:50Z</time></trkpt><trkpt lat="42.578828" lon="-2.589533"><ele>713.5</ele><time>2011-11-30T09:39:51Z</time></trkpt><trkpt lat="42.578835" lon="-2.589550"><ele>714.0</ele><time>2011-11-30T09:39:52Z</time></trkpt><trkpt lat="42.578843" lon="-2.589567"><ele>714.5</ele><time>2011-11-30T09:39:53Z</time></trkpt><trkpt lat="42.578852" lon="-2.589580"><ele>715.0</ele><time>2011-11-30T09:39:54Z</time></trkpt><trkpt lat="42.578860" lon="-2.589595"><ele>715.5</ele><time>2011-11-30T09:39:55Z</time></trkpt><trkpt lat="42.578868" lon="-2.589605"><ele>715.5</ele><time>2011-11-30T09:39:56Z</time></trkpt><trkpt lat="42.578873" lon="-2.589622"><ele>716.0</ele><time>2011-11-30T09:39:57Z</time></trkpt><trkpt lat="42.578882" lon="-2.589633"><ele>716.0</ele><time>2011-11-30T09:39:58Z</time></trkpt><trkpt lat="42.578892" lon="-2.589645"><ele>716.5</ele><time>2011-11-30T09:39:59Z</time></trkpt><trkpt lat="42.578900" lon="-2.589655"><ele>717.0</ele><time>2011-11-30T09:40:00Z</time></trkpt><trkpt lat="42.578905" lon="-2.589672"><ele>718.0</ele><time>2011-11-30T09:40:01Z</time></trkpt><trkpt lat="42.578915" lon="-2.589682"><ele>718.0</ele><time>2011-11-30T09:40:02Z</time></trkpt><trkpt lat="42.578923" lon="-2.589693"><ele>719.0</ele><time>2011-11-30T09:40:03Z</time></trkpt><trkpt lat="42.578932" lon="-2.589707"><ele>719.5</ele><time>2011-11-30T09:40:04Z</time></trkpt><trkpt lat="42.578942" lon="-2.589720"><ele>720.5</ele><time>2011-11-30T09:40:04Z</time></trkpt><trkpt lat="42.578948" lon="-2.589733"><ele>721.0</ele><time>2011-11-30T09:40:05Z</time></trkpt><trkpt lat="42.578952" lon="-2.589747"><ele>721.0</ele><time>2011-11-30T09:40:07Z</time></trkpt><trkpt lat="42.578962" lon="-2.589750"><ele>720.5</ele><time>2011-11-30T09:40:08Z</time></trkpt><trkpt lat="42.578968" lon="-2.589757"><ele>720.5</ele><time>2011-11-30T09:40:09Z</time></trkpt><trkpt lat="42.578987" lon="-2.589753"><ele>720.0</ele><time>2011-11-30T09:40:10Z</time></trkpt><trkpt lat="42.578997" lon="-2.589763"><ele>720.5</ele><time>2011-11-30T09:40:11Z</time></trkpt><trkpt lat="42.579007" lon="-2.589767"><ele>720.0</ele><time>2011-11-30T09:40:11Z</time></trkpt><trkpt lat="42.579017" lon="-2.589778"><ele>720.0</ele><time>2011-11-30T09:40:12Z</time></trkpt><trkpt lat="42.579027" lon="-2.589792"><ele>721.0</ele><time>2011-11-30T09:40:14Z</time></trkpt><trkpt lat="42.579037" lon="-2.589802"><ele>721.0</ele><time>2011-11-30T09:40:15Z</time></trkpt><trkpt lat="42.579045" lon="-2.589812"><ele>721.5</ele><time>2011-11-30T09:40:15Z</time></trkpt><trkpt lat="42.579050" lon="-2.589822"><ele>722.0</ele><time>2011-11-30T09:40:16Z</time></trkpt><trkpt lat="42.579063" lon="-2.589828"><ele>722.0</ele><time>2011-11-30T09:40:17Z</time></trkpt><trkpt lat="42.579075" lon="-2.589833"><ele>722.0</ele><time>2011-11-30T09:40:18Z</time></trkpt><trkpt lat="42.579085" lon="-2.589842"><ele>722.0</ele><time>2011-11-30T09:40:19Z</time></trkpt><trkpt lat="42.579098" lon="-2.589852"><ele>722.0</ele><time>2011-11-30T09:40:20Z</time></trkpt><trkpt lat="42.579110" lon="-2.589860"><ele>722.0</ele><time>2011-11-30T09:40:21Z</time></trkpt><trkpt lat="42.579120" lon="-2.589868"><ele>722.0</ele><time>2011-11-30T09:40:22Z</time></trkpt><trkpt lat="42.579132" lon="-2.589878"><ele>722.0</ele><time>2011-11-30T09:40:23Z</time></trkpt><trkpt lat="42.579145" lon="-2.589890"><ele>722.0</ele><time>2011-11-30T09:40:24Z</time></trkpt><trkpt lat="42.579158" lon="-2.589902"><ele>722.5</ele><time>2011-11-30T09:40:25Z</time></trkpt><trkpt lat="42.579172" lon="-2.589910"><ele>722.5</ele><time>2011-11-30T09:40:26Z</time></trkpt><trkpt lat="42.579183" lon="-2.589917"><ele>722.0</ele><time>2011-11-30T09:40:27Z</time></trkpt><trkpt lat="42.579197" lon="-2.589927"><ele>722.0</ele><time>2011-11-30T09:40:28Z</time></trkpt><trkpt lat="42.579208" lon="-2.589933"><ele>722.0</ele><time>2011-11-30T09:40:29Z</time></trkpt><trkpt lat="42.579220" lon="-2.589942"><ele>722.0</ele><time>2011-11-30T09:40:30Z</time></trkpt><trkpt lat="42.579232" lon="-2.589950"><ele>722.0</ele><time>2011-11-30T09:40:31Z</time></trkpt><trkpt lat="42.579243" lon="-2.589957"><ele>722.5</ele><time>2011-11-30T09:40:32Z</time></trkpt><trkpt lat="42.579255" lon="-2.589963"><ele>722.5</ele><time>2011-11-30T09:40:33Z</time></trkpt><trkpt lat="42.579263" lon="-2.589968"><ele>722.5</ele><time>2011-11-30T09:40:34Z</time></trkpt><trkpt lat="42.579273" lon="-2.589975"><ele>722.5</ele><time>2011-11-30T09:40:35Z</time></trkpt><trkpt lat="42.579283" lon="-2.589982"><ele>722.5</ele><time>2011-11-30T09:40:36Z</time></trkpt><trkpt lat="42.579293" lon="-2.589988"><ele>722.5</ele><time>2011-11-30T09:40:37Z</time></trkpt><trkpt lat="42.579303" lon="-2.589995"><ele>722.0</ele><time>2011-11-30T09:40:38Z</time></trkpt><trkpt lat="42.579315" lon="-2.589998"><ele>721.5</ele><time>2011-11-30T09:40:39Z</time></trkpt><trkpt lat="42.579325" lon="-2.590002"><ele>721.5</ele><time>2011-11-30T09:40:40Z</time></trkpt><trkpt lat="42.579337" lon="-2.590007"><ele>721.0</ele><time>2011-11-30T09:40:41Z</time></trkpt><trkpt lat="42.579350" lon="-2.590008"><ele>720.5</ele><time>2011-11-30T09:40:42Z</time></trkpt><trkpt lat="42.579360" lon="-2.590013"><ele>720.5</ele><time>2011-11-30T09:40:43Z</time></trkpt><trkpt lat="42.579372" lon="-2.590020"><ele>720.0</ele><time>2011-11-30T09:40:44Z</time></trkpt><trkpt lat="42.579383" lon="-2.590023"><ele>719.5</ele><time>2011-11-30T09:40:45Z</time></trkpt><trkpt lat="42.579392" lon="-2.590027"><ele>719.0</ele><time>2011-11-30T09:40:46Z</time></trkpt><trkpt lat="42.579400" lon="-2.590037"><ele>718.5</ele><time>2011-11-30T09:40:47Z</time></trkpt><trkpt lat="42.579408" lon="-2.590048"><ele>718.5</ele><time>2011-11-30T09:40:48Z</time></trkpt><trkpt lat="42.579418" lon="-2.590057"><ele>718.5</ele><time>2011-11-30T09:40:49Z</time></trkpt><trkpt lat="42.579428" lon="-2.590065"><ele>718.0</ele><time>2011-11-30T09:40:50Z</time></trkpt><trkpt lat="42.579438" lon="-2.590073"><ele>718.5</ele><time>2011-11-30T09:40:51Z</time></trkpt><trkpt lat="42.579448" lon="-2.590082"><ele>718.0</ele><time>2011-11-30T09:40:52Z</time></trkpt><trkpt lat="42.579458" lon="-2.590090"><ele>718.0</ele><time>2011-11-30T09:40:53Z</time></trkpt><trkpt lat="42.579468" lon="-2.590098"><ele>718.0</ele><time>2011-11-30T09:40:54Z</time></trkpt><trkpt lat="42.579478" lon="-2.590108"><ele>718.0</ele><time>2011-11-30T09:40:55Z</time></trkpt><trkpt lat="42.579490" lon="-2.590115"><ele>718.0</ele><time>2011-11-30T09:40:56Z</time></trkpt><trkpt lat="42.579500" lon="-2.590123"><ele>718.0</ele><time>2011-11-30T09:40:57Z</time></trkpt><trkpt lat="42.579512" lon="-2.590132"><ele>717.5</ele><time>2011-11-30T09:40:58Z</time></trkpt><trkpt lat="42.579522" lon="-2.590140"><ele>717.5</ele><time>2011-11-30T09:40:59Z</time></trkpt><trkpt lat="42.579538" lon="-2.590147"><ele>718.0</ele><time>2011-11-30T09:41:00Z</time></trkpt><trkpt lat="42.579550" lon="-2.590152"><ele>717.5</ele><time>2011-11-30T09:41:01Z</time></trkpt><trkpt lat="42.579560" lon="-2.590157"><ele>717.5</ele><time>2011-11-30T09:41:02Z</time></trkpt><trkpt lat="42.579570" lon="-2.590158"><ele>717.5</ele><time>2011-11-30T09:41:03Z</time></trkpt><trkpt lat="42.579590" lon="-2.590165"><ele>717.0</ele><time>2011-11-30T09:41:04Z</time></trkpt><trkpt lat="42.579602" lon="-2.590173"><ele>717.5</ele><time>2011-11-30T09:41:05Z</time></trkpt><trkpt lat="42.579615" lon="-2.590183"><ele>717.5</ele><time>2011-11-30T09:41:06Z</time></trkpt><trkpt lat="42.579627" lon="-2.590192"><ele>717.5</ele><time>2011-11-30T09:41:07Z</time></trkpt><trkpt lat="42.579640" lon="-2.590195"><ele>717.0</ele><time>2011-11-30T09:41:08Z</time></trkpt><trkpt lat="42.579652" lon="-2.590203"><ele>717.5</ele><time>2011-11-30T09:41:09Z</time></trkpt><trkpt lat="42.579662" lon="-2.590215"><ele>717.5</ele><time>2011-11-30T09:41:10Z</time></trkpt><trkpt lat="42.579673" lon="-2.590225"><ele>717.5</ele><time>2011-11-30T09:41:11Z</time></trkpt><trkpt lat="42.579685" lon="-2.590233"><ele>717.5</ele><time>2011-11-30T09:41:12Z</time></trkpt><trkpt lat="42.579697" lon="-2.590240"><ele>717.5</ele><time>2011-11-30T09:41:13Z</time></trkpt><trkpt lat="42.579708" lon="-2.590247"><ele>717.5</ele><time>2011-11-30T09:41:14Z</time></trkpt><trkpt lat="42.579718" lon="-2.590255"><ele>717.5</ele><time>2011-11-30T09:41:15Z</time></trkpt><trkpt lat="42.579732" lon="-2.590262"><ele>717.5</ele><time>2011-11-30T09:41:16Z</time></trkpt><trkpt lat="42.579743" lon="-2.590265"><ele>717.5</ele><time>2011-11-30T09:41:17Z</time></trkpt><trkpt lat="42.579755" lon="-2.590268"><ele>717.5</ele><time>2011-11-30T09:41:18Z</time></trkpt><trkpt lat="42.579765" lon="-2.590272"><ele>717.5</ele><time>2011-11-30T09:41:19Z</time></trkpt><trkpt lat="42.579777" lon="-2.590278"><ele>717.0</ele><time>2011-11-30T09:41:20Z</time></trkpt><trkpt lat="42.579787" lon="-2.590287"><ele>717.0</ele><time>2011-11-30T09:41:21Z</time></trkpt><trkpt lat="42.579798" lon="-2.590292"><ele>716.0</ele><time>2011-11-30T09:41:22Z</time></trkpt><trkpt lat="42.579810" lon="-2.590300"><ele>716.0</ele><time>2011-11-30T09:41:23Z</time></trkpt><trkpt lat="42.579823" lon="-2.590308"><ele>716.5</ele><time>2011-11-30T09:41:24Z</time></trkpt><trkpt lat="42.579835" lon="-2.590317"><ele>716.5</ele><time>2011-11-30T09:41:25Z</time></trkpt><trkpt lat="42.579847" lon="-2.590325"><ele>716.5</ele><time>2011-11-30T09:41:26Z</time></trkpt><trkpt lat="42.579860" lon="-2.590332"><ele>716.5</ele><time>2011-11-30T09:41:27Z</time></trkpt><trkpt lat="42.579872" lon="-2.590338"><ele>717.0</ele><time>2011-11-30T09:41:28Z</time></trkpt><trkpt lat="42.579885" lon="-2.590345"><ele>717.0</ele><time>2011-11-30T09:41:29Z</time></trkpt><trkpt lat="42.579897" lon="-2.590350"><ele>717.0</ele><time>2011-11-30T09:41:30Z</time></trkpt><trkpt lat="42.579908" lon="-2.590350"><ele>717.0</ele><time>2011-11-30T09:41:31Z</time></trkpt><trkpt lat="42.579932" lon="-2.590347"><ele>717.0</ele><time>2011-11-30T09:41:32Z</time></trkpt><trkpt lat="42.579947" lon="-2.590345"><ele>717.0</ele><time>2011-11-30T09:41:33Z</time></trkpt><trkpt lat="42.579958" lon="-2.590343"><ele>717.0</ele><time>2011-11-30T09:41:34Z</time></trkpt><trkpt lat="42.579972" lon="-2.590338"><ele>716.5</ele><time>2011-11-30T09:41:35Z</time></trkpt><trkpt lat="42.579982" lon="-2.590328"><ele>716.5</ele><time>2011-11-30T09:41:36Z</time></trkpt><trkpt lat="42.579993" lon="-2.590318"><ele>716.5</ele><time>2011-11-30T09:41:37Z</time></trkpt><trkpt lat="42.580005" lon="-2.590310"><ele>716.5</ele><time>2011-11-30T09:41:38Z</time></trkpt><trkpt lat="42.580017" lon="-2.590302"><ele>716.0</ele><time>2011-11-30T09:41:39Z</time></trkpt><trkpt lat="42.580030" lon="-2.590295"><ele>716.0</ele><time>2011-11-30T09:41:40Z</time></trkpt><trkpt lat="42.580043" lon="-2.590293"><ele>715.5</ele><time>2011-11-30T09:41:41Z</time></trkpt><trkpt lat="42.580058" lon="-2.590293"><ele>716.0</ele><time>2011-11-30T09:41:42Z</time></trkpt><trkpt lat="42.580070" lon="-2.590297"><ele>716.0</ele><time>2011-11-30T09:41:43Z</time></trkpt><trkpt lat="42.580083" lon="-2.590297"><ele>716.5</ele><time>2011-11-30T09:41:44Z</time></trkpt><trkpt lat="42.580097" lon="-2.590293"><ele>716.5</ele><time>2011-11-30T09:41:45Z</time></trkpt><trkpt lat="42.580112" lon="-2.590290"><ele>716.5</ele><time>2011-11-30T09:41:46Z</time></trkpt><trkpt lat="42.580127" lon="-2.590288"><ele>716.5</ele><time>2011-11-30T09:41:47Z</time></trkpt><trkpt lat="42.580138" lon="-2.590293"><ele>716.5</ele><time>2011-11-30T09:41:48Z</time></trkpt><trkpt lat="42.580150" lon="-2.590298"><ele>716.0</ele><time>2011-11-30T09:41:49Z</time></trkpt><trkpt lat="42.580163" lon="-2.590303"><ele>716.5</ele><time>2011-11-30T09:41:50Z</time></trkpt><trkpt lat="42.580175" lon="-2.590310"><ele>716.5</ele><time>2011-11-30T09:41:51Z</time></trkpt><trkpt lat="42.580188" lon="-2.590315"><ele>716.5</ele><time>2011-11-30T09:41:52Z</time></trkpt><trkpt lat="42.580202" lon="-2.590317"><ele>717.0</ele><time>2011-11-30T09:41:53Z</time></trkpt><trkpt lat="42.580215" lon="-2.590320"><ele>717.5</ele><time>2011-11-30T09:41:54Z</time></trkpt><trkpt lat="42.580227" lon="-2.590327"><ele>717.5</ele><time>2011-11-30T09:41:55Z</time></trkpt><trkpt lat="42.580235" lon="-2.590322"><ele>717.5</ele><time>2011-11-30T09:41:56Z</time></trkpt><trkpt lat="42.580242" lon="-2.590310"><ele>717.0</ele><time>2011-11-30T09:41:57Z</time></trkpt><trkpt lat="42.580248" lon="-2.590302"><ele>716.5</ele><time>2011-11-30T09:41:58Z</time></trkpt><trkpt lat="42.580260" lon="-2.590297"><ele>716.0</ele><time>2011-11-30T09:41:59Z</time></trkpt><trkpt lat="42.580270" lon="-2.590288"><ele>715.0</ele><time>2011-11-30T09:42:00Z</time></trkpt><trkpt lat="42.580283" lon="-2.590277"><ele>715.0</ele><time>2011-11-30T09:42:01Z</time></trkpt><trkpt lat="42.580297" lon="-2.590270"><ele>715.0</ele><time>2011-11-30T09:42:02Z</time></trkpt><trkpt lat="42.580308" lon="-2.590272"><ele>714.5</ele><time>2011-11-30T09:42:03Z</time></trkpt><trkpt lat="42.580318" lon="-2.590275"><ele>714.5</ele><time>2011-11-30T09:42:04Z</time></trkpt><trkpt lat="42.580330" lon="-2.590275"><ele>714.5</ele><time>2011-11-30T09:42:05Z</time></trkpt><trkpt lat="42.580343" lon="-2.590272"><ele>714.0</ele><time>2011-11-30T09:42:06Z</time></trkpt><trkpt lat="42.580353" lon="-2.590268"><ele>714.0</ele><time>2011-11-30T09:42:07Z</time></trkpt><trkpt lat="42.580365" lon="-2.590270"><ele>714.5</ele><time>2011-11-30T09:42:08Z</time></trkpt><trkpt lat="42.580377" lon="-2.590270"><ele>714.5</ele><time>2011-11-30T09:42:09Z</time></trkpt><trkpt lat="42.580385" lon="-2.590270"><ele>714.5</ele><time>2011-11-30T09:42:10Z</time></trkpt><trkpt lat="42.580393" lon="-2.590273"><ele>714.5</ele><time>2011-11-30T09:42:11Z</time></trkpt><trkpt lat="42.580400" lon="-2.590278"><ele>714.5</ele><time>2011-11-30T09:42:12Z</time></trkpt><trkpt lat="42.580405" lon="-2.590270"><ele>714.0</ele><time>2011-11-30T09:42:13Z</time></trkpt><trkpt lat="42.580417" lon="-2.590273"><ele>714.5</ele><time>2011-11-30T09:42:14Z</time></trkpt><trkpt lat="42.580425" lon="-2.590273"><ele>714.5</ele><time>2011-11-30T09:42:15Z</time></trkpt><trkpt lat="42.580435" lon="-2.590275"><ele>714.5</ele><time>2011-11-30T09:42:16Z</time></trkpt><trkpt lat="42.580445" lon="-2.590275"><ele>714.5</ele><time>2011-11-30T09:42:17Z</time></trkpt><trkpt lat="42.580457" lon="-2.590277"><ele>714.0</ele><time>2011-11-30T09:42:18Z</time></trkpt><trkpt lat="42.580465" lon="-2.590278"><ele>714.5</ele><time>2011-11-30T09:42:19Z</time></trkpt><trkpt lat="42.580493" lon="-2.590270"><ele>713.0</ele><time>2011-11-30T09:42:20Z</time></trkpt><trkpt lat="42.580500" lon="-2.590270"><ele>713.0</ele><time>2011-11-30T09:42:21Z</time></trkpt><trkpt lat="42.580510" lon="-2.590275"><ele>713.0</ele><time>2011-11-30T09:42:22Z</time></trkpt><trkpt lat="42.580522" lon="-2.590277"><ele>713.5</ele><time>2011-11-30T09:42:23Z</time></trkpt><trkpt lat="42.580535" lon="-2.590277"><ele>713.5</ele><time>2011-11-30T09:42:24Z</time></trkpt><trkpt lat="42.580547" lon="-2.590277"><ele>713.5</ele><time>2011-11-30T09:42:25Z</time></trkpt><trkpt lat="42.580557" lon="-2.590278"><ele>713.5</ele><time>2011-11-30T09:42:26Z</time></trkpt><trkpt lat="42.580565" lon="-2.590278"><ele>713.5</ele><time>2011-11-30T09:42:27Z</time></trkpt><trkpt lat="42.580575" lon="-2.590282"><ele>713.5</ele><time>2011-11-30T09:42:28Z</time></trkpt><trkpt lat="42.580583" lon="-2.590283"><ele>713.5</ele><time>2011-11-30T09:42:29Z</time></trkpt><trkpt lat="42.580593" lon="-2.590285"><ele>713.5</ele><time>2011-11-30T09:42:30Z</time></trkpt><trkpt lat="42.580603" lon="-2.590288"><ele>714.0</ele><time>2011-11-30T09:42:31Z</time></trkpt><trkpt lat="42.580615" lon="-2.590288"><ele>713.5</ele><time>2011-11-30T09:42:32Z</time></trkpt><trkpt lat="42.580623" lon="-2.590287"><ele>713.5</ele><time>2011-11-30T09:42:33Z</time></trkpt><trkpt lat="42.580635" lon="-2.590287"><ele>713.5</ele><time>2011-11-30T09:42:34Z</time></trkpt><trkpt lat="42.580648" lon="-2.590288"><ele>713.5</ele><time>2011-11-30T09:42:35Z</time></trkpt><trkpt lat="42.580662" lon="-2.590292"><ele>713.5</ele><time>2011-11-30T09:42:36Z</time></trkpt><trkpt lat="42.580678" lon="-2.590297"><ele>714.0</ele><time>2011-11-30T09:42:37Z</time></trkpt><trkpt lat="42.580692" lon="-2.590302"><ele>714.5</ele><time>2011-11-30T09:42:38Z</time></trkpt><trkpt lat="42.580707" lon="-2.590307"><ele>714.5</ele><time>2011-11-30T09:42:39Z</time></trkpt><trkpt lat="42.580717" lon="-2.590313"><ele>714.5</ele><time>2011-11-30T09:42:40Z</time></trkpt><trkpt lat="42.580732" lon="-2.590318"><ele>714.5</ele><time>2011-11-30T09:42:41Z</time></trkpt><trkpt lat="42.580745" lon="-2.590318"><ele>714.5</ele><time>2011-11-30T09:42:42Z</time></trkpt><trkpt lat="42.580758" lon="-2.590310"><ele>714.5</ele><time>2011-11-30T09:42:43Z</time></trkpt><trkpt lat="42.580770" lon="-2.590305"><ele>714.5</ele><time>2011-11-30T09:42:44Z</time></trkpt><trkpt lat="42.580785" lon="-2.590307"><ele>714.5</ele><time>2011-11-30T09:42:45Z</time></trkpt><trkpt lat="42.580798" lon="-2.590307"><ele>715.0</ele><time>2011-11-30T09:42:46Z</time></trkpt><trkpt lat="42.580812" lon="-2.590305"><ele>715.0</ele><time>2011-11-30T09:42:47Z</time></trkpt><trkpt lat="42.580822" lon="-2.590303"><ele>714.5</ele><time>2011-11-30T09:42:48Z</time></trkpt><trkpt lat="42.580835" lon="-2.590305"><ele>714.5</ele><time>2011-11-30T09:42:49Z</time></trkpt><trkpt lat="42.580848" lon="-2.590312"><ele>715.0</ele><time>2011-11-30T09:42:50Z</time></trkpt><trkpt lat="42.580860" lon="-2.590320"><ele>714.5</ele><time>2011-11-30T09:42:51Z</time></trkpt><trkpt lat="42.580875" lon="-2.590323"><ele>714.5</ele><time>2011-11-30T09:42:52Z</time></trkpt><trkpt lat="42.580888" lon="-2.590320"><ele>714.5</ele><time>2011-11-30T09:42:53Z</time></trkpt><trkpt lat="42.580902" lon="-2.590315"><ele>714.5</ele><time>2011-11-30T09:42:54Z</time></trkpt><trkpt lat="42.580913" lon="-2.590312"><ele>714.5</ele><time>2011-11-30T09:42:55Z</time></trkpt><trkpt lat="42.580927" lon="-2.590310"><ele>714.5</ele><time>2011-11-30T09:42:56Z</time></trkpt><trkpt lat="42.580940" lon="-2.590308"><ele>714.5</ele><time>2011-11-30T09:42:57Z</time></trkpt><trkpt lat="42.580955" lon="-2.590307"><ele>714.5</ele><time>2011-11-30T09:42:58Z</time></trkpt><trkpt lat="42.580967" lon="-2.590308"><ele>715.0</ele><time>2011-11-30T09:42:59Z</time></trkpt><trkpt lat="42.580982" lon="-2.590307"><ele>714.5</ele><time>2011-11-30T09:43:00Z</time></trkpt><trkpt lat="42.580995" lon="-2.590307"><ele>714.5</ele><time>2011-11-30T09:43:01Z</time></trkpt><trkpt lat="42.581010" lon="-2.590307"><ele>714.5</ele><time>2011-11-30T09:43:02Z</time></trkpt><trkpt lat="42.581023" lon="-2.590310"><ele>714.5</ele><time>2011-11-30T09:43:03Z</time></trkpt><trkpt lat="42.581037" lon="-2.590308"><ele>714.5</ele><time>2011-11-30T09:43:04Z</time></trkpt><trkpt lat="42.581052" lon="-2.590308"><ele>714.5</ele><time>2011-11-30T09:43:05Z</time></trkpt><trkpt lat="42.581063" lon="-2.590310"><ele>714.5</ele><time>2011-11-30T09:43:06Z</time></trkpt><trkpt lat="42.581075" lon="-2.590307"><ele>714.5</ele><time>2011-11-30T09:43:07Z</time></trkpt><trkpt lat="42.581088" lon="-2.590305"><ele>714.5</ele><time>2011-11-30T09:43:08Z</time></trkpt><trkpt lat="42.581102" lon="-2.590303"><ele>714.5</ele><time>2011-11-30T09:43:09Z</time></trkpt><trkpt lat="42.581117" lon="-2.590305"><ele>714.5</ele><time>2011-11-30T09:43:10Z</time></trkpt><trkpt lat="42.581128" lon="-2.590308"><ele>714.5</ele><time>2011-11-30T09:43:11Z</time></trkpt><trkpt lat="42.581142" lon="-2.590312"><ele>714.5</ele><time>2011-11-30T09:43:12Z</time></trkpt><trkpt lat="42.581155" lon="-2.590313"><ele>714.5</ele><time>2011-11-30T09:43:13Z</time></trkpt><trkpt lat="42.581165" lon="-2.590312"><ele>714.5</ele><time>2011-11-30T09:43:14Z</time></trkpt><trkpt lat="42.581178" lon="-2.590310"><ele>714.5</ele><time>2011-11-30T09:43:15Z</time></trkpt><trkpt lat="42.581190" lon="-2.590308"><ele>715.0</ele><time>2011-11-30T09:43:16Z</time></trkpt><trkpt lat="42.581202" lon="-2.590310"><ele>715.0</ele><time>2011-11-30T09:43:17Z</time></trkpt><trkpt lat="42.581213" lon="-2.590310"><ele>715.0</ele><time>2011-11-30T09:43:18Z</time></trkpt><trkpt lat="42.581225" lon="-2.590315"><ele>714.5</ele><time>2011-11-30T09:43:19Z</time></trkpt><trkpt lat="42.581235" lon="-2.590317"><ele>714.5</ele><time>2011-11-30T09:43:20Z</time></trkpt><trkpt lat="42.581248" lon="-2.590318"><ele>714.5</ele><time>2011-11-30T09:43:21Z</time></trkpt><trkpt lat="42.581258" lon="-2.590320"><ele>714.5</ele><time>2011-11-30T09:43:22Z</time></trkpt><trkpt lat="42.581272" lon="-2.590323"><ele>714.5</ele><time>2011-11-30T09:43:23Z</time></trkpt><trkpt lat="42.581283" lon="-2.590327"><ele>714.5</ele><time>2011-11-30T09:43:24Z</time></trkpt><trkpt lat="42.581295" lon="-2.590327"><ele>714.5</ele><time>2011-11-30T09:43:25Z</time></trkpt><trkpt lat="42.581308" lon="-2.590328"><ele>714.5</ele><time>2011-11-30T09:43:26Z</time></trkpt><trkpt lat="42.581322" lon="-2.590330"><ele>714.5</ele><time>2011-11-30T09:43:27Z</time></trkpt><trkpt lat="42.581337" lon="-2.590330"><ele>715.0</ele><time>2011-11-30T09:43:28Z</time></trkpt><trkpt lat="42.581348" lon="-2.590335"><ele>715.0</ele><time>2011-11-30T09:43:29Z</time></trkpt><trkpt lat="42.581363" lon="-2.590338"><ele>715.0</ele><time>2011-11-30T09:43:30Z</time></trkpt><trkpt lat="42.581378" lon="-2.590337"><ele>715.0</ele><time>2011-11-30T09:43:31Z</time></trkpt><trkpt lat="42.581393" lon="-2.590337"><ele>715.0</ele><time>2011-11-30T09:43:32Z</time></trkpt><trkpt lat="42.581407" lon="-2.590337"><ele>715.0</ele><time>2011-11-30T09:43:33Z</time></trkpt><trkpt lat="42.581418" lon="-2.590338"><ele>715.0</ele><time>2011-11-30T09:43:34Z</time></trkpt><trkpt lat="42.581432" lon="-2.590340"><ele>715.0</ele><time>2011-11-30T09:43:35Z</time></trkpt><trkpt lat="42.581445" lon="-2.590338"><ele>715.0</ele><time>2011-11-30T09:43:36Z</time></trkpt><trkpt lat="42.581460" lon="-2.590335"><ele>715.0</ele><time>2011-11-30T09:43:37Z</time></trkpt><trkpt lat="42.581472" lon="-2.590333"><ele>715.5</ele><time>2011-11-30T09:43:38Z</time></trkpt><trkpt lat="42.581485" lon="-2.590335"><ele>715.5</ele><time>2011-11-30T09:43:39Z</time></trkpt><trkpt lat="42.581498" lon="-2.590335"><ele>715.5</ele><time>2011-11-30T09:43:40Z</time></trkpt><trkpt lat="42.581510" lon="-2.590337"><ele>716.0</ele><time>2011-11-30T09:43:41Z</time></trkpt><trkpt lat="42.581525" lon="-2.590340"><ele>716.0</ele><time>2011-11-30T09:43:42Z</time></trkpt><trkpt lat="42.581537" lon="-2.590342"><ele>716.5</ele><time>2011-11-30T09:43:43Z</time></trkpt><trkpt lat="42.581548" lon="-2.590340"><ele>716.5</ele><time>2011-11-30T09:43:44Z</time></trkpt><trkpt lat="42.581563" lon="-2.590340"><ele>716.5</ele><time>2011-11-30T09:43:45Z</time></trkpt><trkpt lat="42.581575" lon="-2.590342"><ele>717.0</ele><time>2011-11-30T09:43:46Z</time></trkpt><trkpt lat="42.581590" lon="-2.590343"><ele>717.0</ele><time>2011-11-30T09:43:47Z</time></trkpt><trkpt lat="42.581605" lon="-2.590345"><ele>717.0</ele><time>2011-11-30T09:43:48Z</time></trkpt><trkpt lat="42.581620" lon="-2.590348"><ele>717.5</ele><time>2011-11-30T09:43:49Z</time></trkpt><trkpt lat="42.581633" lon="-2.590350"><ele>717.0</ele><time>2011-11-30T09:43:50Z</time></trkpt><trkpt lat="42.581648" lon="-2.590348"><ele>717.0</ele><time>2011-11-30T09:43:51Z</time></trkpt><trkpt lat="42.581662" lon="-2.590347"><ele>717.5</ele><time>2011-11-30T09:43:52Z</time></trkpt><trkpt lat="42.581677" lon="-2.590347"><ele>717.5</ele><time>2011-11-30T09:43:53Z</time></trkpt><trkpt lat="42.581690" lon="-2.590345"><ele>717.5</ele><time>2011-11-30T09:43:54Z</time></trkpt><trkpt lat="42.581705" lon="-2.590343"><ele>718.0</ele><time>2011-11-30T09:43:55Z</time></trkpt><trkpt lat="42.581717" lon="-2.590343"><ele>718.0</ele><time>2011-11-30T09:43:56Z</time></trkpt><trkpt lat="42.581728" lon="-2.590343"><ele>718.0</ele><time>2011-11-30T09:43:57Z</time></trkpt><trkpt lat="42.581742" lon="-2.590345"><ele>718.0</ele><time>2011-11-30T09:43:58Z</time></trkpt><trkpt lat="42.581753" lon="-2.590345"><ele>718.0</ele><time>2011-11-30T09:43:59Z</time></trkpt><trkpt lat="42.581765" lon="-2.590343"><ele>718.0</ele><time>2011-11-30T09:44:00Z</time></trkpt><trkpt lat="42.581777" lon="-2.590343"><ele>718.0</ele><time>2011-11-30T09:44:01Z</time></trkpt><trkpt lat="42.581787" lon="-2.590345"><ele>718.0</ele><time>2011-11-30T09:44:02Z</time></trkpt><trkpt lat="42.581800" lon="-2.590345"><ele>718.0</ele><time>2011-11-30T09:44:03Z</time></trkpt><trkpt lat="42.581812" lon="-2.590345"><ele>718.0</ele><time>2011-11-30T09:44:04Z</time></trkpt><trkpt lat="42.581825" lon="-2.590343"><ele>718.0</ele><time>2011-11-30T09:44:05Z</time></trkpt><trkpt lat="42.581838" lon="-2.590342"><ele>718.0</ele><time>2011-11-30T09:44:06Z</time></trkpt><trkpt lat="42.581850" lon="-2.590342"><ele>718.0</ele><time>2011-11-30T09:44:07Z</time></trkpt><trkpt lat="42.581865" lon="-2.590342"><ele>718.0</ele><time>2011-11-30T09:44:08Z</time></trkpt><trkpt lat="42.581880" lon="-2.590342"><ele>718.0</ele><time>2011-11-30T09:44:09Z</time></trkpt><trkpt lat="42.581893" lon="-2.590343"><ele>718.0</ele><time>2011-11-30T09:44:10Z</time></trkpt><trkpt lat="42.581908" lon="-2.590345"><ele>718.5</ele><time>2011-11-30T09:44:11Z</time></trkpt><trkpt lat="42.581925" lon="-2.590347"><ele>718.5</ele><time>2011-11-30T09:44:12Z</time></trkpt><trkpt lat="42.581940" lon="-2.590347"><ele>718.5</ele><time>2011-11-30T09:44:13Z</time></trkpt><trkpt lat="42.581957" lon="-2.590345"><ele>718.5</ele><time>2011-11-30T09:44:14Z</time></trkpt><trkpt lat="42.581972" lon="-2.590348"><ele>719.0</ele><time>2011-11-30T09:44:15Z</time></trkpt><trkpt lat="42.581987" lon="-2.590352"><ele>719.0</ele><time>2011-11-30T09:44:16Z</time></trkpt><trkpt lat="42.582000" lon="-2.590355"><ele>719.0</ele><time>2011-11-30T09:44:17Z</time></trkpt><trkpt lat="42.582012" lon="-2.590355"><ele>719.0</ele><time>2011-11-30T09:44:18Z</time></trkpt><trkpt lat="42.582027" lon="-2.590352"><ele>719.0</ele><time>2011-11-30T09:44:19Z</time></trkpt><trkpt lat="42.582038" lon="-2.590352"><ele>719.0</ele><time>2011-11-30T09:44:20Z</time></trkpt><trkpt lat="42.582053" lon="-2.590352"><ele>719.0</ele><time>2011-11-30T09:44:21Z</time></trkpt><trkpt lat="42.582065" lon="-2.590355"><ele>719.0</ele><time>2011-11-30T09:44:22Z</time></trkpt><trkpt lat="42.582078" lon="-2.590357"><ele>719.0</ele><time>2011-11-30T09:44:23Z</time></trkpt><trkpt lat="42.582092" lon="-2.590358"><ele>719.0</ele><time>2011-11-30T09:44:24Z</time></trkpt><trkpt lat="42.582103" lon="-2.590357"><ele>719.5</ele><time>2011-11-30T09:44:25Z</time></trkpt><trkpt lat="42.582115" lon="-2.590360"><ele>719.5</ele><time>2011-11-30T09:44:26Z</time></trkpt><trkpt lat="42.582127" lon="-2.590363"><ele>719.5</ele><time>2011-11-30T09:44:27Z</time></trkpt><trkpt lat="42.582138" lon="-2.590365"><ele>719.5</ele><time>2011-11-30T09:44:28Z</time></trkpt><trkpt lat="42.582152" lon="-2.590368"><ele>719.5</ele><time>2011-11-30T09:44:29Z</time></trkpt><trkpt lat="42.582163" lon="-2.590372"><ele>720.0</ele><time>2011-11-30T09:44:30Z</time></trkpt><trkpt lat="42.582177" lon="-2.590373"><ele>720.0</ele><time>2011-11-30T09:44:31Z</time></trkpt><trkpt lat="42.582190" lon="-2.590373"><ele>720.5</ele><time>2011-11-30T09:44:32Z</time></trkpt><trkpt lat="42.582202" lon="-2.590373"><ele>720.5</ele><time>2011-11-30T09:44:33Z</time></trkpt><trkpt lat="42.582212" lon="-2.590375"><ele>720.5</ele><time>2011-11-30T09:44:34Z</time></trkpt><trkpt lat="42.582232" lon="-2.590372"><ele>720.5</ele><time>2011-11-30T09:44:35Z</time></trkpt><trkpt lat="42.582245" lon="-2.590370"><ele>720.0</ele><time>2011-11-30T09:44:36Z</time></trkpt><trkpt lat="42.582257" lon="-2.590372"><ele>720.0</ele><time>2011-11-30T09:44:37Z</time></trkpt><trkpt lat="42.582268" lon="-2.590373"><ele>720.0</ele><time>2011-11-30T09:44:38Z</time></trkpt><trkpt lat="42.582280" lon="-2.590375"><ele>720.0</ele><time>2011-11-30T09:44:39Z</time></trkpt><trkpt lat="42.582290" lon="-2.590377"><ele>720.0</ele><time>2011-11-30T09:44:40Z</time></trkpt><trkpt lat="42.582302" lon="-2.590377"><ele>720.5</ele><time>2011-11-30T09:44:41Z</time></trkpt><trkpt lat="42.582312" lon="-2.590382"><ele>720.5</ele><time>2011-11-30T09:44:42Z</time></trkpt><trkpt lat="42.582325" lon="-2.590385"><ele>720.5</ele><time>2011-11-30T09:44:43Z</time></trkpt><trkpt lat="42.582338" lon="-2.590387"><ele>720.5</ele><time>2011-11-30T09:44:44Z</time></trkpt><trkpt lat="42.582350" lon="-2.590390"><ele>720.5</ele><time>2011-11-30T09:44:45Z</time></trkpt><trkpt lat="42.582360" lon="-2.590393"><ele>720.5</ele><time>2011-11-30T09:44:46Z</time></trkpt><trkpt lat="42.582370" lon="-2.590400"><ele>721.0</ele><time>2011-11-30T09:44:47Z</time></trkpt><trkpt lat="42.582378" lon="-2.590403"><ele>721.0</ele><time>2011-11-30T09:44:48Z</time></trkpt><trkpt lat="42.582392" lon="-2.590403"><ele>721.0</ele><time>2011-11-30T09:44:49Z</time></trkpt><trkpt lat="42.582403" lon="-2.590407"><ele>721.0</ele><time>2011-11-30T09:44:50Z</time></trkpt><trkpt lat="42.582417" lon="-2.590408"><ele>721.5</ele><time>2011-11-30T09:44:51Z</time></trkpt><trkpt lat="42.582428" lon="-2.590412"><ele>722.0</ele><time>2011-11-30T09:44:52Z</time></trkpt><trkpt lat="42.582440" lon="-2.590417"><ele>722.0</ele><time>2011-11-30T09:44:53Z</time></trkpt><trkpt lat="42.582450" lon="-2.590422"><ele>722.0</ele><time>2011-11-30T09:44:54Z</time></trkpt><trkpt lat="42.582463" lon="-2.590425"><ele>722.5</ele><time>2011-11-30T09:44:55Z</time></trkpt><trkpt lat="42.582475" lon="-2.590425"><ele>723.0</ele><time>2011-11-30T09:44:56Z</time></trkpt><trkpt lat="42.582485" lon="-2.590428"><ele>723.5</ele><time>2011-11-30T09:44:57Z</time></trkpt><trkpt lat="42.582495" lon="-2.590430"><ele>724.0</ele><time>2011-11-30T09:44:58Z</time></trkpt><trkpt lat="42.582503" lon="-2.590435"><ele>724.5</ele><time>2011-11-30T09:44:59Z</time></trkpt><trkpt lat="42.582513" lon="-2.590442"><ele>724.5</ele><time>2011-11-30T09:45:00Z</time></trkpt><trkpt lat="42.582527" lon="-2.590450"><ele>725.0</ele><time>2011-11-30T09:45:01Z</time></trkpt><trkpt lat="42.582538" lon="-2.590460"><ele>724.5</ele><time>2011-11-30T09:45:02Z</time></trkpt><trkpt lat="42.582550" lon="-2.590467"><ele>724.5</ele><time>2011-11-30T09:45:03Z</time></trkpt><trkpt lat="42.582562" lon="-2.590470"><ele>724.5</ele><time>2011-11-30T09:45:04Z</time></trkpt><trkpt lat="42.582573" lon="-2.590475"><ele>724.5</ele><time>2011-11-30T09:45:05Z</time></trkpt><trkpt lat="42.582585" lon="-2.590482"><ele>724.5</ele><time>2011-11-30T09:45:06Z</time></trkpt><trkpt lat="42.582595" lon="-2.590490"><ele>724.5</ele><time>2011-11-30T09:45:07Z</time></trkpt><trkpt lat="42.582607" lon="-2.590493"><ele>724.5</ele><time>2011-11-30T09:45:08Z</time></trkpt><trkpt lat="42.582617" lon="-2.590497"><ele>724.5</ele><time>2011-11-30T09:45:09Z</time></trkpt><trkpt lat="42.582623" lon="-2.590502"><ele>725.0</ele><time>2011-11-30T09:45:10Z</time></trkpt><trkpt lat="42.582633" lon="-2.590508"><ele>725.0</ele><time>2011-11-30T09:45:11Z</time></trkpt><trkpt lat="42.582645" lon="-2.590513"><ele>725.0</ele><time>2011-11-30T09:45:12Z</time></trkpt><trkpt lat="42.582657" lon="-2.590517"><ele>725.0</ele><time>2011-11-30T09:45:13Z</time></trkpt><trkpt lat="42.582667" lon="-2.590522"><ele>725.0</ele><time>2011-11-30T09:45:14Z</time></trkpt><trkpt lat="42.582675" lon="-2.590527"><ele>725.5</ele><time>2011-11-30T09:45:15Z</time></trkpt><trkpt lat="42.582683" lon="-2.590533"><ele>725.5</ele><time>2011-11-30T09:45:16Z</time></trkpt><trkpt lat="42.582692" lon="-2.590540"><ele>725.5</ele><time>2011-11-30T09:45:17Z</time></trkpt><trkpt lat="42.582700" lon="-2.590543"><ele>725.5</ele><time>2011-11-30T09:45:18Z</time></trkpt><trkpt lat="42.582708" lon="-2.590547"><ele>725.5</ele><time>2011-11-30T09:45:19Z</time></trkpt><trkpt lat="42.582715" lon="-2.590552"><ele>725.5</ele><time>2011-11-30T09:45:20Z</time></trkpt><trkpt lat="42.582723" lon="-2.590557"><ele>725.5</ele><time>2011-11-30T09:45:21Z</time></trkpt><trkpt lat="42.582738" lon="-2.590568"><ele>725.5</ele><time>2011-11-30T09:45:22Z</time></trkpt><trkpt lat="42.582748" lon="-2.590573"><ele>725.5</ele><time>2011-11-30T09:45:23Z</time></trkpt><trkpt lat="42.582758" lon="-2.590578"><ele>726.0</ele><time>2011-11-30T09:45:24Z</time></trkpt><trkpt lat="42.582767" lon="-2.590587"><ele>726.0</ele><time>2011-11-30T09:45:25Z</time></trkpt><trkpt lat="42.582775" lon="-2.590598"><ele>726.0</ele><time>2011-11-30T09:45:26Z</time></trkpt><trkpt lat="42.582783" lon="-2.590612"><ele>726.5</ele><time>2011-11-30T09:45:27Z</time></trkpt><trkpt lat="42.582793" lon="-2.590615"><ele>726.5</ele><time>2011-11-30T09:45:28Z</time></trkpt><trkpt lat="42.582803" lon="-2.590615"><ele>727.0</ele><time>2011-11-30T09:45:29Z</time></trkpt><trkpt lat="42.582813" lon="-2.590617"><ele>727.0</ele><time>2011-11-30T09:45:30Z</time></trkpt><trkpt lat="42.582823" lon="-2.590618"><ele>727.0</ele><time>2011-11-30T09:45:31Z</time></trkpt><trkpt lat="42.582835" lon="-2.590622"><ele>727.5</ele><time>2011-11-30T09:45:32Z</time></trkpt><trkpt lat="42.582845" lon="-2.590627"><ele>727.5</ele><time>2011-11-30T09:45:33Z</time></trkpt><trkpt lat="42.582857" lon="-2.590628"><ele>728.0</ele><time>2011-11-30T09:45:34Z</time></trkpt><trkpt lat="42.582868" lon="-2.590628"><ele>727.5</ele><time>2011-11-30T09:45:35Z</time></trkpt><trkpt lat="42.582877" lon="-2.590632"><ele>728.0</ele><time>2011-11-30T09:45:36Z</time></trkpt><trkpt lat="42.582885" lon="-2.590638"><ele>728.0</ele><time>2011-11-30T09:45:37Z</time></trkpt><trkpt lat="42.582893" lon="-2.590642"><ele>728.0</ele><time>2011-11-30T09:45:38Z</time></trkpt><trkpt lat="42.582905" lon="-2.590647"><ele>728.0</ele><time>2011-11-30T09:45:39Z</time></trkpt><trkpt lat="42.582915" lon="-2.590650"><ele>728.5</ele><time>2011-11-30T09:45:40Z</time></trkpt><trkpt lat="42.582922" lon="-2.590653"><ele>728.5</ele><time>2011-11-30T09:45:41Z</time></trkpt><trkpt lat="42.582927" lon="-2.590658"><ele>728.0</ele><time>2011-11-30T09:45:42Z</time></trkpt><trkpt lat="42.582937" lon="-2.590665"><ele>728.0</ele><time>2011-11-30T09:45:43Z</time></trkpt><trkpt lat="42.582947" lon="-2.590665"><ele>728.5</ele><time>2011-11-30T09:45:44Z</time></trkpt><trkpt lat="42.582957" lon="-2.590668"><ele>728.5</ele><time>2011-11-30T09:45:45Z</time></trkpt><trkpt lat="42.582963" lon="-2.590673"><ele>729.0</ele><time>2011-11-30T09:45:46Z</time></trkpt><trkpt lat="42.582973" lon="-2.590678"><ele>729.0</ele><time>2011-11-30T09:45:47Z</time></trkpt><trkpt lat="42.582983" lon="-2.590685"><ele>729.0</ele><time>2011-11-30T09:45:48Z</time></trkpt><trkpt lat="42.582995" lon="-2.590692"><ele>729.0</ele><time>2011-11-30T09:45:49Z</time></trkpt><trkpt lat="42.583007" lon="-2.590697"><ele>729.5</ele><time>2011-11-30T09:45:50Z</time></trkpt><trkpt lat="42.583015" lon="-2.590702"><ele>729.5</ele><time>2011-11-30T09:45:51Z</time></trkpt><trkpt lat="42.583023" lon="-2.590705"><ele>729.5</ele><time>2011-11-30T09:45:52Z</time></trkpt><trkpt lat="42.583033" lon="-2.590710"><ele>730.0</ele><time>2011-11-30T09:45:53Z</time></trkpt><trkpt lat="42.583042" lon="-2.590715"><ele>730.0</ele><time>2011-11-30T09:45:54Z</time></trkpt><trkpt lat="42.583052" lon="-2.590720"><ele>730.5</ele><time>2011-11-30T09:45:55Z</time></trkpt><trkpt lat="42.583062" lon="-2.590727"><ele>731.0</ele><time>2011-11-30T09:45:56Z</time></trkpt><trkpt lat="42.583072" lon="-2.590732"><ele>731.0</ele><time>2011-11-30T09:45:57Z</time></trkpt><trkpt lat="42.583083" lon="-2.590735"><ele>731.0</ele><time>2011-11-30T09:45:58Z</time></trkpt><trkpt lat="42.583092" lon="-2.590738"><ele>731.0</ele><time>2011-11-30T09:45:59Z</time></trkpt><trkpt lat="42.583102" lon="-2.590747"><ele>731.0</ele><time>2011-11-30T09:46:00Z</time></trkpt><trkpt lat="42.583115" lon="-2.590748"><ele>731.0</ele><time>2011-11-30T09:46:01Z</time></trkpt><trkpt lat="42.583127" lon="-2.590750"><ele>731.0</ele><time>2011-11-30T09:46:02Z</time></trkpt><trkpt lat="42.583137" lon="-2.590757"><ele>731.5</ele><time>2011-11-30T09:46:03Z</time></trkpt><trkpt lat="42.583147" lon="-2.590763"><ele>731.5</ele><time>2011-11-30T09:46:04Z</time></trkpt><trkpt lat="42.583157" lon="-2.590770"><ele>731.5</ele><time>2011-11-30T09:46:05Z</time></trkpt><trkpt lat="42.583167" lon="-2.590773"><ele>731.5</ele><time>2011-11-30T09:46:06Z</time></trkpt><trkpt lat="42.583177" lon="-2.590777"><ele>731.5</ele><time>2011-11-30T09:46:07Z</time></trkpt><trkpt lat="42.583187" lon="-2.590782"><ele>731.5</ele><time>2011-11-30T09:46:08Z</time></trkpt><trkpt lat="42.583195" lon="-2.590787"><ele>732.0</ele><time>2011-11-30T09:46:09Z</time></trkpt><trkpt lat="42.583203" lon="-2.590793"><ele>732.0</ele><time>2011-11-30T09:46:10Z</time></trkpt><trkpt lat="42.583208" lon="-2.590803"><ele>732.0</ele><time>2011-11-30T09:46:11Z</time></trkpt><trkpt lat="42.583218" lon="-2.590808"><ele>732.5</ele><time>2011-11-30T09:46:12Z</time></trkpt><trkpt lat="42.583228" lon="-2.590812"><ele>733.0</ele><time>2011-11-30T09:46:13Z</time></trkpt><trkpt lat="42.583238" lon="-2.590815"><ele>733.0</ele><time>2011-11-30T09:46:14Z</time></trkpt><trkpt lat="42.583248" lon="-2.590820"><ele>733.0</ele><time>2011-11-30T09:46:15Z</time></trkpt><trkpt lat="42.583258" lon="-2.590823"><ele>733.0</ele><time>2011-11-30T09:46:16Z</time></trkpt><trkpt lat="42.583267" lon="-2.590825"><ele>733.0</ele><time>2011-11-30T09:46:17Z</time></trkpt><trkpt lat="42.583275" lon="-2.590832"><ele>733.0</ele><time>2011-11-30T09:46:18Z</time></trkpt><trkpt lat="42.583285" lon="-2.590838"><ele>733.5</ele><time>2011-11-30T09:46:19Z</time></trkpt><trkpt lat="42.583293" lon="-2.590840"><ele>733.5</ele><time>2011-11-30T09:46:20Z</time></trkpt><trkpt lat="42.583303" lon="-2.590843"><ele>733.5</ele><time>2011-11-30T09:46:21Z</time></trkpt><trkpt lat="42.583312" lon="-2.590850"><ele>734.0</ele><time>2011-11-30T09:46:22Z</time></trkpt><trkpt lat="42.583320" lon="-2.590855"><ele>734.0</ele><time>2011-11-30T09:46:23Z</time></trkpt><trkpt lat="42.583330" lon="-2.590863"><ele>734.5</ele><time>2011-11-30T09:46:24Z</time></trkpt><trkpt lat="42.583340" lon="-2.590872"><ele>735.0</ele><time>2011-11-30T09:46:25Z</time></trkpt><trkpt lat="42.583348" lon="-2.590875"><ele>735.0</ele><time>2011-11-30T09:46:26Z</time></trkpt><trkpt lat="42.583360" lon="-2.590883"><ele>736.0</ele><time>2011-11-30T09:46:27Z</time></trkpt><trkpt lat="42.583370" lon="-2.590887"><ele>736.0</ele><time>2011-11-30T09:46:28Z</time></trkpt><trkpt lat="42.583380" lon="-2.590890"><ele>736.0</ele><time>2011-11-30T09:46:29Z</time></trkpt><trkpt lat="42.583390" lon="-2.590893"><ele>736.0</ele><time>2011-11-30T09:46:30Z</time></trkpt><trkpt lat="42.583400" lon="-2.590898"><ele>736.0</ele><time>2011-11-30T09:46:31Z</time></trkpt><trkpt lat="42.583410" lon="-2.590903"><ele>736.5</ele><time>2011-11-30T09:46:32Z</time></trkpt><trkpt lat="42.583418" lon="-2.590910"><ele>736.5</ele><time>2011-11-30T09:46:33Z</time></trkpt><trkpt lat="42.583427" lon="-2.590915"><ele>736.5</ele><time>2011-11-30T09:46:34Z</time></trkpt><trkpt lat="42.583437" lon="-2.590920"><ele>736.5</ele><time>2011-11-30T09:46:35Z</time></trkpt><trkpt lat="42.583445" lon="-2.590923"><ele>736.5</ele><time>2011-11-30T09:46:36Z</time></trkpt><trkpt lat="42.583453" lon="-2.590928"><ele>736.5</ele><time>2011-11-30T09:46:37Z</time></trkpt><trkpt lat="42.583462" lon="-2.590935"><ele>736.5</ele><time>2011-11-30T09:46:38Z</time></trkpt><trkpt lat="42.583470" lon="-2.590940"><ele>737.0</ele><time>2011-11-30T09:46:39Z</time></trkpt><trkpt lat="42.583477" lon="-2.590947"><ele>738.0</ele><time>2011-11-30T09:46:40Z</time></trkpt><trkpt lat="42.583487" lon="-2.590950"><ele>738.0</ele><time>2011-11-30T09:46:41Z</time></trkpt><trkpt lat="42.583497" lon="-2.590952"><ele>738.0</ele><time>2011-11-30T09:46:42Z</time></trkpt><trkpt lat="42.583503" lon="-2.590957"><ele>738.5</ele><time>2011-11-30T09:46:43Z</time></trkpt><trkpt lat="42.583510" lon="-2.590963"><ele>739.0</ele><time>2011-11-30T09:46:44Z</time></trkpt><trkpt lat="42.583522" lon="-2.590968"><ele>738.5</ele><time>2011-11-30T09:46:45Z</time></trkpt><trkpt lat="42.583530" lon="-2.590975"><ele>739.5</ele><time>2011-11-30T09:46:46Z</time></trkpt><trkpt lat="42.583538" lon="-2.590978"><ele>739.5</ele><time>2011-11-30T09:46:47Z</time></trkpt><trkpt lat="42.583547" lon="-2.590985"><ele>740.0</ele><time>2011-11-30T09:46:48Z</time></trkpt><trkpt lat="42.583557" lon="-2.590990"><ele>740.0</ele><time>2011-11-30T09:46:49Z</time></trkpt><trkpt lat="42.583565" lon="-2.590995"><ele>740.0</ele><time>2011-11-30T09:46:50Z</time></trkpt><trkpt lat="42.583572" lon="-2.591000"><ele>740.5</ele><time>2011-11-30T09:46:51Z</time></trkpt><trkpt lat="42.583580" lon="-2.591007"><ele>740.5</ele><time>2011-11-30T09:46:52Z</time></trkpt><trkpt lat="42.583590" lon="-2.591010"><ele>740.5</ele><time>2011-11-30T09:46:53Z</time></trkpt><trkpt lat="42.583598" lon="-2.591013"><ele>740.5</ele><time>2011-11-30T09:46:54Z</time></trkpt><trkpt lat="42.583607" lon="-2.591020"><ele>740.5</ele><time>2011-11-30T09:46:55Z</time></trkpt><trkpt lat="42.583615" lon="-2.591023"><ele>740.5</ele><time>2011-11-30T09:46:56Z</time></trkpt><trkpt lat="42.583625" lon="-2.591027"><ele>740.5</ele><time>2011-11-30T09:46:57Z</time></trkpt><trkpt lat="42.583635" lon="-2.591027"><ele>741.0</ele><time>2011-11-30T09:46:58Z</time></trkpt><trkpt lat="42.583643" lon="-2.591032"><ele>741.0</ele><time>2011-11-30T09:46:59Z</time></trkpt><trkpt lat="42.583653" lon="-2.591038"><ele>741.0</ele><time>2011-11-30T09:47:00Z</time></trkpt><trkpt lat="42.583662" lon="-2.591043"><ele>741.0</ele><time>2011-11-30T09:47:01Z</time></trkpt><trkpt lat="42.583672" lon="-2.591047"><ele>741.5</ele><time>2011-11-30T09:47:02Z</time></trkpt><trkpt lat="42.583682" lon="-2.591050"><ele>741.5</ele><time>2011-11-30T09:47:03Z</time></trkpt><trkpt lat="42.583690" lon="-2.591057"><ele>741.5</ele><time>2011-11-30T09:47:04Z</time></trkpt><trkpt lat="42.583698" lon="-2.591063"><ele>741.5</ele><time>2011-11-30T09:47:05Z</time></trkpt><trkpt lat="42.583708" lon="-2.591072"><ele>741.5</ele><time>2011-11-30T09:47:06Z</time></trkpt><trkpt lat="42.583717" lon="-2.591077"><ele>741.5</ele><time>2011-11-30T09:47:07Z</time></trkpt><trkpt lat="42.583725" lon="-2.591083"><ele>742.0</ele><time>2011-11-30T09:47:08Z</time></trkpt><trkpt lat="42.583737" lon="-2.591090"><ele>741.5</ele><time>2011-11-30T09:47:09Z</time></trkpt><trkpt lat="42.583747" lon="-2.591093"><ele>741.5</ele><time>2011-11-30T09:47:10Z</time></trkpt><trkpt lat="42.583753" lon="-2.591097"><ele>742.0</ele><time>2011-11-30T09:47:11Z</time></trkpt><trkpt lat="42.583765" lon="-2.591098"><ele>742.0</ele><time>2011-11-30T09:47:12Z</time></trkpt><trkpt lat="42.583773" lon="-2.591100"><ele>742.0</ele><time>2011-11-30T09:47:13Z</time></trkpt><trkpt lat="42.583783" lon="-2.591100"><ele>742.0</ele><time>2011-11-30T09:47:14Z</time></trkpt><trkpt lat="42.583792" lon="-2.591105"><ele>742.0</ele><time>2011-11-30T09:47:15Z</time></trkpt><trkpt lat="42.583803" lon="-2.591112"><ele>742.0</ele><time>2011-11-30T09:47:16Z</time></trkpt><trkpt lat="42.583813" lon="-2.591117"><ele>742.0</ele><time>2011-11-30T09:47:17Z</time></trkpt><trkpt lat="42.583825" lon="-2.591120"><ele>742.5</ele><time>2011-11-30T09:47:18Z</time></trkpt><trkpt lat="42.583837" lon="-2.591123"><ele>742.5</ele><time>2011-11-30T09:47:19Z</time></trkpt><trkpt lat="42.583845" lon="-2.591130"><ele>742.5</ele><time>2011-11-30T09:47:20Z</time></trkpt><trkpt lat="42.583855" lon="-2.591138"><ele>742.5</ele><time>2011-11-30T09:47:21Z</time></trkpt><trkpt lat="42.583867" lon="-2.591143"><ele>742.5</ele><time>2011-11-30T09:47:22Z</time></trkpt><trkpt lat="42.583875" lon="-2.591147"><ele>742.5</ele><time>2011-11-30T09:47:23Z</time></trkpt><trkpt lat="42.583887" lon="-2.591150"><ele>743.0</ele><time>2011-11-30T09:47:24Z</time></trkpt><trkpt lat="42.583882" lon="-2.591137"><ele>743.0</ele><time>2011-11-30T09:47:25Z</time></trkpt><trkpt lat="42.583893" lon="-2.591152"><ele>743.0</ele><time>2011-11-30T09:47:26Z</time></trkpt><trkpt lat="42.583902" lon="-2.591158"><ele>743.0</ele><time>2011-11-30T09:47:27Z</time></trkpt><trkpt lat="42.583913" lon="-2.591163"><ele>743.0</ele><time>2011-11-30T09:47:28Z</time></trkpt><trkpt lat="42.583923" lon="-2.591168"><ele>742.5</ele><time>2011-11-30T09:47:29Z</time></trkpt><trkpt lat="42.583927" lon="-2.591183"><ele>744.0</ele><time>2011-11-30T09:47:30Z</time></trkpt><trkpt lat="42.583937" lon="-2.591187"><ele>744.0</ele><time>2011-11-30T09:47:31Z</time></trkpt><trkpt lat="42.583947" lon="-2.591188"><ele>744.0</ele><time>2011-11-30T09:47:32Z</time></trkpt><trkpt lat="42.583955" lon="-2.591192"><ele>744.5</ele><time>2011-11-30T09:47:33Z</time></trkpt><trkpt lat="42.583963" lon="-2.591195"><ele>744.5</ele><time>2011-11-30T09:47:34Z</time></trkpt><trkpt lat="42.583972" lon="-2.591198"><ele>745.0</ele><time>2011-11-30T09:47:35Z</time></trkpt><trkpt lat="42.583983" lon="-2.591202"><ele>745.5</ele><time>2011-11-30T09:47:36Z</time></trkpt><trkpt lat="42.583992" lon="-2.591205"><ele>746.0</ele><time>2011-11-30T09:47:37Z</time></trkpt><trkpt lat="42.584002" lon="-2.591207"><ele>746.5</ele><time>2011-11-30T09:47:38Z</time></trkpt><trkpt lat="42.584013" lon="-2.591210"><ele>746.5</ele><time>2011-11-30T09:47:39Z</time></trkpt><trkpt lat="42.584023" lon="-2.591212"><ele>747.0</ele><time>2011-11-30T09:47:40Z</time></trkpt><trkpt lat="42.584035" lon="-2.591210"><ele>746.0</ele><time>2011-11-30T09:47:41Z</time></trkpt><trkpt lat="42.584045" lon="-2.591213"><ele>746.5</ele><time>2011-11-30T09:47:42Z</time></trkpt><trkpt lat="42.584057" lon="-2.591218"><ele>746.5</ele><time>2011-11-30T09:47:43Z</time></trkpt><trkpt lat="42.584067" lon="-2.591220"><ele>746.5</ele><time>2011-11-30T09:47:44Z</time></trkpt><trkpt lat="42.584077" lon="-2.591222"><ele>746.5</ele><time>2011-11-30T09:47:45Z</time></trkpt><trkpt lat="42.584085" lon="-2.591223"><ele>747.0</ele><time>2011-11-30T09:47:46Z</time></trkpt><trkpt lat="42.584095" lon="-2.591227"><ele>747.0</ele><time>2011-11-30T09:47:47Z</time></trkpt><trkpt lat="42.584105" lon="-2.591232"><ele>747.0</ele><time>2011-11-30T09:47:48Z</time></trkpt><trkpt lat="42.584115" lon="-2.591233"><ele>747.0</ele><time>2011-11-30T09:47:49Z</time></trkpt><trkpt lat="42.584127" lon="-2.591235"><ele>747.0</ele><time>2011-11-30T09:47:50Z</time></trkpt><trkpt lat="42.584137" lon="-2.591237"><ele>747.0</ele><time>2011-11-30T09:47:51Z</time></trkpt><trkpt lat="42.584147" lon="-2.591240"><ele>747.5</ele><time>2011-11-30T09:47:52Z</time></trkpt><trkpt lat="42.584157" lon="-2.591243"><ele>747.5</ele><time>2011-11-30T09:47:53Z</time></trkpt><trkpt lat="42.584165" lon="-2.591250"><ele>748.0</ele><time>2011-11-30T09:47:54Z</time></trkpt><trkpt lat="42.584170" lon="-2.591258"><ele>748.5</ele><time>2011-11-30T09:47:55Z</time></trkpt><trkpt lat="42.584182" lon="-2.591262"><ele>747.5</ele><time>2011-11-30T09:47:56Z</time></trkpt><trkpt lat="42.584192" lon="-2.591267"><ele>748.0</ele><time>2011-11-30T09:47:57Z</time></trkpt><trkpt lat="42.584202" lon="-2.591270"><ele>747.5</ele><time>2011-11-30T09:47:58Z</time></trkpt><trkpt lat="42.584213" lon="-2.591272"><ele>748.0</ele><time>2011-11-30T09:47:59Z</time></trkpt><trkpt lat="42.584222" lon="-2.591272"><ele>748.5</ele><time>2011-11-30T09:48:00Z</time></trkpt><trkpt lat="42.584228" lon="-2.591277"><ele>749.0</ele><time>2011-11-30T09:48:01Z</time></trkpt><trkpt lat="42.584238" lon="-2.591282"><ele>749.0</ele><time>2011-11-30T09:48:02Z</time></trkpt><trkpt lat="42.584248" lon="-2.591287"><ele>749.5</ele><time>2011-11-30T09:48:03Z</time></trkpt><trkpt lat="42.584260" lon="-2.591295"><ele>749.5</ele><time>2011-11-30T09:48:04Z</time></trkpt><trkpt lat="42.584272" lon="-2.591298"><ele>749.5</ele><time>2011-11-30T09:48:05Z</time></trkpt><trkpt lat="42.584282" lon="-2.591302"><ele>749.5</ele><time>2011-11-30T09:48:06Z</time></trkpt><trkpt lat="42.584292" lon="-2.591307"><ele>749.5</ele><time>2011-11-30T09:48:07Z</time></trkpt><trkpt lat="42.584302" lon="-2.591312"><ele>750.5</ele><time>2011-11-30T09:48:08Z</time></trkpt><trkpt lat="42.584312" lon="-2.591320"><ele>750.5</ele><time>2011-11-30T09:48:09Z</time></trkpt><trkpt lat="42.584320" lon="-2.591325"><ele>750.5</ele><time>2011-11-30T09:48:10Z</time></trkpt><trkpt lat="42.584328" lon="-2.591328"><ele>750.5</ele><time>2011-11-30T09:48:11Z</time></trkpt><trkpt lat="42.584337" lon="-2.591332"><ele>750.5</ele><time>2011-11-30T09:48:12Z</time></trkpt><trkpt lat="42.584347" lon="-2.591335"><ele>750.5</ele><time>2011-11-30T09:48:13Z</time></trkpt><trkpt lat="42.584355" lon="-2.591338"><ele>750.5</ele><time>2011-11-30T09:48:14Z</time></trkpt><trkpt lat="42.584363" lon="-2.591342"><ele>750.5</ele><time>2011-11-30T09:48:15Z</time></trkpt><trkpt lat="42.584372" lon="-2.591345"><ele>751.0</ele><time>2011-11-30T09:48:16Z</time></trkpt><trkpt lat="42.584382" lon="-2.591348"><ele>751.5</ele><time>2011-11-30T09:48:17Z</time></trkpt><trkpt lat="42.584388" lon="-2.591352"><ele>752.0</ele><time>2011-11-30T09:48:18Z</time></trkpt><trkpt lat="42.584397" lon="-2.591357"><ele>752.5</ele><time>2011-11-30T09:48:19Z</time></trkpt><trkpt lat="42.584405" lon="-2.591357"><ele>753.0</ele><time>2011-11-30T09:48:20Z</time></trkpt><trkpt lat="42.584413" lon="-2.591360"><ele>753.5</ele><time>2011-11-30T09:48:21Z</time></trkpt><trkpt lat="42.584422" lon="-2.591365"><ele>753.5</ele><time>2011-11-30T09:48:22Z</time></trkpt><trkpt lat="42.584430" lon="-2.591368"><ele>754.0</ele><time>2011-11-30T09:48:23Z</time></trkpt><trkpt lat="42.584438" lon="-2.591372"><ele>754.0</ele><time>2011-11-30T09:48:24Z</time></trkpt><trkpt lat="42.584447" lon="-2.591373"><ele>754.5</ele><time>2011-11-30T09:48:25Z</time></trkpt><trkpt lat="42.584455" lon="-2.591377"><ele>754.5</ele><time>2011-11-30T09:48:26Z</time></trkpt><trkpt lat="42.584465" lon="-2.591378"><ele>754.5</ele><time>2011-11-30T09:48:27Z</time></trkpt><trkpt lat="42.584473" lon="-2.591383"><ele>754.5</ele><time>2011-11-30T09:48:28Z</time></trkpt><trkpt lat="42.584480" lon="-2.591388"><ele>754.5</ele><time>2011-11-30T09:48:29Z</time></trkpt><trkpt lat="42.584490" lon="-2.591393"><ele>754.5</ele><time>2011-11-30T09:48:29Z</time></trkpt><trkpt lat="42.584500" lon="-2.591398"><ele>755.0</ele><time>2011-11-30T09:48:30Z</time></trkpt><trkpt lat="42.584507" lon="-2.591400"><ele>755.0</ele><time>2011-11-30T09:48:31Z</time></trkpt><trkpt lat="42.584517" lon="-2.591403"><ele>755.0</ele><time>2011-11-30T09:48:32Z</time></trkpt><trkpt lat="42.584525" lon="-2.591405"><ele>755.5</ele><time>2011-11-30T09:48:33Z</time></trkpt><trkpt lat="42.584535" lon="-2.591410"><ele>755.5</ele><time>2011-11-30T09:48:34Z</time></trkpt><trkpt lat="42.584543" lon="-2.591415"><ele>755.5</ele><time>2011-11-30T09:48:35Z</time></trkpt><trkpt lat="42.584555" lon="-2.591420"><ele>756.0</ele><time>2011-11-30T09:48:36Z</time></trkpt><trkpt lat="42.584563" lon="-2.591427"><ele>756.0</ele><time>2011-11-30T09:48:37Z</time></trkpt><trkpt lat="42.584572" lon="-2.591433"><ele>756.5</ele><time>2011-11-30T09:48:38Z</time></trkpt><trkpt lat="42.584580" lon="-2.591440"><ele>757.0</ele><time>2011-11-30T09:48:39Z</time></trkpt><trkpt lat="42.584588" lon="-2.591445"><ele>757.0</ele><time>2011-11-30T09:48:40Z</time></trkpt><trkpt lat="42.584595" lon="-2.591448"><ele>757.0</ele><time>2011-11-30T09:48:41Z</time></trkpt><trkpt lat="42.584603" lon="-2.591455"><ele>757.0</ele><time>2011-11-30T09:48:42Z</time></trkpt><trkpt lat="42.584613" lon="-2.591463"><ele>757.0</ele><time>2011-11-30T09:48:43Z</time></trkpt><trkpt lat="42.584623" lon="-2.591465"><ele>757.0</ele><time>2011-11-30T09:48:44Z</time></trkpt><trkpt lat="42.584630" lon="-2.591470"><ele>757.0</ele><time>2011-11-30T09:48:45Z</time></trkpt><trkpt lat="42.584638" lon="-2.591477"><ele>757.0</ele><time>2011-11-30T09:48:46Z</time></trkpt><trkpt lat="42.584648" lon="-2.591480"><ele>757.0</ele><time>2011-11-30T09:48:47Z</time></trkpt><trkpt lat="42.584657" lon="-2.591485"><ele>757.0</ele><time>2011-11-30T09:48:48Z</time></trkpt><trkpt lat="42.584667" lon="-2.591490"><ele>757.5</ele><time>2011-11-30T09:48:49Z</time></trkpt><trkpt lat="42.584678" lon="-2.591493"><ele>757.0</ele><time>2011-11-30T09:48:50Z</time></trkpt><trkpt lat="42.584690" lon="-2.591495"><ele>757.0</ele><time>2011-11-30T09:48:51Z</time></trkpt><trkpt lat="42.584702" lon="-2.591498"><ele>757.0</ele><time>2011-11-30T09:48:52Z</time></trkpt><trkpt lat="42.584713" lon="-2.591505"><ele>757.0</ele><time>2011-11-30T09:48:53Z</time></trkpt><trkpt lat="42.584723" lon="-2.591513"><ele>757.0</ele><time>2011-11-30T09:48:54Z</time></trkpt><trkpt lat="42.584735" lon="-2.591517"><ele>757.0</ele><time>2011-11-30T09:48:55Z</time></trkpt><trkpt lat="42.584747" lon="-2.591523"><ele>757.5</ele><time>2011-11-30T09:48:56Z</time></trkpt><trkpt lat="42.584757" lon="-2.591527"><ele>757.5</ele><time>2011-11-30T09:48:57Z</time></trkpt><trkpt lat="42.584763" lon="-2.591532"><ele>758.0</ele><time>2011-11-30T09:48:58Z</time></trkpt><trkpt lat="42.584772" lon="-2.591538"><ele>758.5</ele><time>2011-11-30T09:48:59Z</time></trkpt><trkpt lat="42.584782" lon="-2.591545"><ele>758.5</ele><time>2011-11-30T09:49:00Z</time></trkpt><trkpt lat="42.584790" lon="-2.591553"><ele>758.5</ele><time>2011-11-30T09:49:01Z</time></trkpt><trkpt lat="42.584797" lon="-2.591562"><ele>759.0</ele><time>2011-11-30T09:49:02Z</time></trkpt><trkpt lat="42.584805" lon="-2.591572"><ele>760.0</ele><time>2011-11-30T09:49:03Z</time></trkpt><trkpt lat="42.584813" lon="-2.591580"><ele>760.0</ele><time>2011-11-30T09:49:04Z</time></trkpt><trkpt lat="42.584822" lon="-2.591585"><ele>760.5</ele><time>2011-11-30T09:49:05Z</time></trkpt><trkpt lat="42.584832" lon="-2.591592"><ele>760.5</ele><time>2011-11-30T09:49:06Z</time></trkpt><trkpt lat="42.584837" lon="-2.591605"><ele>761.5</ele><time>2011-11-30T09:49:07Z</time></trkpt><trkpt lat="42.584845" lon="-2.591608"><ele>761.0</ele><time>2011-11-30T09:49:08Z</time></trkpt><trkpt lat="42.584852" lon="-2.591617"><ele>761.5</ele><time>2011-11-30T09:49:09Z</time></trkpt><trkpt lat="42.584860" lon="-2.591625"><ele>761.5</ele><time>2011-11-30T09:49:10Z</time></trkpt><trkpt lat="42.584867" lon="-2.591633"><ele>762.0</ele><time>2011-11-30T09:49:11Z</time></trkpt><trkpt lat="42.584875" lon="-2.591642"><ele>762.5</ele><time>2011-11-30T09:49:12Z</time></trkpt><trkpt lat="42.584880" lon="-2.591653"><ele>763.5</ele><time>2011-11-30T09:49:13Z</time></trkpt><trkpt lat="42.584887" lon="-2.591663"><ele>763.5</ele><time>2011-11-30T09:49:14Z</time></trkpt><trkpt lat="42.584893" lon="-2.591670"><ele>763.0</ele><time>2011-11-30T09:49:15Z</time></trkpt><trkpt lat="42.584900" lon="-2.591680"><ele>764.0</ele><time>2011-11-30T09:49:16Z</time></trkpt><trkpt lat="42.584905" lon="-2.591690"><ele>764.0</ele><time>2011-11-30T09:49:17Z</time></trkpt><trkpt lat="42.584913" lon="-2.591698"><ele>763.5</ele><time>2011-11-30T09:49:18Z</time></trkpt><trkpt lat="42.584918" lon="-2.591708"><ele>764.0</ele><time>2011-11-30T09:49:19Z</time></trkpt><trkpt lat="42.584923" lon="-2.591717"><ele>764.0</ele><time>2011-11-30T09:49:20Z</time></trkpt><trkpt lat="42.584930" lon="-2.591727"><ele>764.0</ele><time>2011-11-30T09:49:21Z</time></trkpt><trkpt lat="42.584938" lon="-2.591735"><ele>763.5</ele><time>2011-11-30T09:49:22Z</time></trkpt><trkpt lat="42.584945" lon="-2.591742"><ele>763.0</ele><time>2011-11-30T09:49:23Z</time></trkpt><trkpt lat="42.584950" lon="-2.591758"><ele>764.5</ele><time>2011-11-30T09:49:24Z</time></trkpt><trkpt lat="42.584955" lon="-2.591772"><ele>764.5</ele><time>2011-11-30T09:49:25Z</time></trkpt><trkpt lat="42.584962" lon="-2.591785"><ele>765.0</ele><time>2011-11-30T09:49:26Z</time></trkpt><trkpt lat="42.584967" lon="-2.591795"><ele>765.0</ele><time>2011-11-30T09:49:27Z</time></trkpt><trkpt lat="42.584970" lon="-2.591808"><ele>766.0</ele><time>2011-11-30T09:49:28Z</time></trkpt><trkpt lat="42.584978" lon="-2.591822"><ele>766.0</ele><time>2011-11-30T09:49:29Z</time></trkpt><trkpt lat="42.584980" lon="-2.591838"><ele>767.0</ele><time>2011-11-30T09:49:30Z</time></trkpt><trkpt lat="42.584985" lon="-2.591848"><ele>767.5</ele><time>2011-11-30T09:49:31Z</time></trkpt><trkpt lat="42.584990" lon="-2.591860"><ele>768.0</ele><time>2011-11-30T09:49:32Z</time></trkpt><trkpt lat="42.584995" lon="-2.591870"><ele>768.0</ele><time>2011-11-30T09:49:33Z</time></trkpt><trkpt lat="42.584998" lon="-2.591885"><ele>769.0</ele><time>2011-11-30T09:49:34Z</time></trkpt><trkpt lat="42.585002" lon="-2.591897"><ele>769.0</ele><time>2011-11-30T09:49:35Z</time></trkpt><trkpt lat="42.585007" lon="-2.591908"><ele>769.5</ele><time>2011-11-30T09:49:36Z</time></trkpt><trkpt lat="42.585012" lon="-2.591918"><ele>769.5</ele><time>2011-11-30T09:49:37Z</time></trkpt><trkpt lat="42.585017" lon="-2.591930"><ele>770.5</ele><time>2011-11-30T09:49:38Z</time></trkpt><trkpt lat="42.585022" lon="-2.591943"><ele>771.0</ele><time>2011-11-30T09:49:39Z</time></trkpt><trkpt lat="42.585027" lon="-2.591957"><ele>771.5</ele><time>2011-11-30T09:49:40Z</time></trkpt><trkpt lat="42.585033" lon="-2.591968"><ele>772.0</ele><time>2011-11-30T09:49:41Z</time></trkpt><trkpt lat="42.585038" lon="-2.591982"><ele>772.5</ele><time>2011-11-30T09:49:42Z</time></trkpt><trkpt lat="42.585042" lon="-2.591995"><ele>773.0</ele><time>2011-11-30T09:49:43Z</time></trkpt><trkpt lat="42.585048" lon="-2.592000"><ele>772.5</ele><time>2011-11-30T09:49:44Z</time></trkpt><trkpt lat="42.585053" lon="-2.592007"><ele>772.5</ele><time>2011-11-30T09:49:45Z</time></trkpt><trkpt lat="42.585062" lon="-2.592012"><ele>771.5</ele><time>2011-11-30T09:49:46Z</time></trkpt><trkpt lat="42.585063" lon="-2.592023"><ele>772.0</ele><time>2011-11-30T09:49:47Z</time></trkpt><trkpt lat="42.585068" lon="-2.592028"><ele>771.5</ele><time>2011-11-30T09:49:48Z</time></trkpt><trkpt lat="42.585075" lon="-2.592040"><ele>771.5</ele><time>2011-11-30T09:49:49Z</time></trkpt><trkpt lat="42.585080" lon="-2.592053"><ele>772.5</ele><time>2011-11-30T09:49:50Z</time></trkpt><trkpt lat="42.585085" lon="-2.592065"><ele>772.5</ele><time>2011-11-30T09:49:51Z</time></trkpt><trkpt lat="42.585092" lon="-2.592070"><ele>772.0</ele><time>2011-11-30T09:49:52Z</time></trkpt><trkpt lat="42.585098" lon="-2.592078"><ele>772.0</ele><time>2011-11-30T09:49:53Z</time></trkpt><trkpt lat="42.585100" lon="-2.592090"><ele>773.0</ele><time>2011-11-30T09:49:54Z</time></trkpt><trkpt lat="42.585103" lon="-2.592107"><ele>774.0</ele><time>2011-11-30T09:49:55Z</time></trkpt><trkpt lat="42.585113" lon="-2.592107"><ele>772.5</ele><time>2011-11-30T09:49:56Z</time></trkpt><trkpt lat="42.585120" lon="-2.592120"><ele>773.5</ele><time>2011-11-30T09:49:57Z</time></trkpt><trkpt lat="42.585130" lon="-2.592122"><ele>773.5</ele><time>2011-11-30T09:49:58Z</time></trkpt><trkpt lat="42.585145" lon="-2.592117"><ele>772.5</ele><time>2011-11-30T09:49:59Z</time></trkpt><trkpt lat="42.585157" lon="-2.592117"><ele>772.0</ele><time>2011-11-30T09:50:00Z</time></trkpt><trkpt lat="42.585167" lon="-2.592118"><ele>772.0</ele><time>2011-11-30T09:50:01Z</time></trkpt><trkpt lat="42.585175" lon="-2.592122"><ele>772.0</ele><time>2011-11-30T09:50:02Z</time></trkpt><trkpt lat="42.585188" lon="-2.592127"><ele>772.0</ele><time>2011-11-30T09:50:03Z</time></trkpt><trkpt lat="42.585195" lon="-2.592130"><ele>772.5</ele><time>2011-11-30T09:50:04Z</time></trkpt><trkpt lat="42.585203" lon="-2.592132"><ele>772.5</ele><time>2011-11-30T09:50:05Z</time></trkpt><trkpt lat="42.585213" lon="-2.592132"><ele>772.5</ele><time>2011-11-30T09:50:06Z</time></trkpt><trkpt lat="42.585223" lon="-2.592128"><ele>772.0</ele><time>2011-11-30T09:50:07Z</time></trkpt><trkpt lat="42.585233" lon="-2.592125"><ele>772.0</ele><time>2011-11-30T09:50:08Z</time></trkpt><trkpt lat="42.585245" lon="-2.592123"><ele>772.0</ele><time>2011-11-30T09:50:09Z</time></trkpt><trkpt lat="42.585255" lon="-2.592117"><ele>771.5</ele><time>2011-11-30T09:50:10Z</time></trkpt><trkpt lat="42.585267" lon="-2.592112"><ele>771.5</ele><time>2011-11-30T09:50:11Z</time></trkpt><trkpt lat="42.585277" lon="-2.592110"><ele>771.5</ele><time>2011-11-30T09:50:12Z</time></trkpt><trkpt lat="42.585287" lon="-2.592108"><ele>771.5</ele><time>2011-11-30T09:50:13Z</time></trkpt><trkpt lat="42.585298" lon="-2.592107"><ele>771.5</ele><time>2011-11-30T09:50:14Z</time></trkpt><trkpt lat="42.585308" lon="-2.592108"><ele>771.5</ele><time>2011-11-30T09:50:15Z</time></trkpt><trkpt lat="42.585322" lon="-2.592112"><ele>771.5</ele><time>2011-11-30T09:50:16Z</time></trkpt><trkpt lat="42.585335" lon="-2.592117"><ele>771.5</ele><time>2011-11-30T09:50:17Z</time></trkpt><trkpt lat="42.585347" lon="-2.592120"><ele>771.5</ele><time>2011-11-30T09:50:18Z</time></trkpt><trkpt lat="42.585358" lon="-2.592123"><ele>771.5</ele><time>2011-11-30T09:50:19Z</time></trkpt><trkpt lat="42.585370" lon="-2.592127"><ele>771.5</ele><time>2011-11-30T09:50:20Z</time></trkpt><trkpt lat="42.585380" lon="-2.592127"><ele>771.5</ele><time>2011-11-30T09:50:21Z</time></trkpt><trkpt lat="42.585390" lon="-2.592130"><ele>772.5</ele><time>2011-11-30T09:50:22Z</time></trkpt><trkpt lat="42.585398" lon="-2.592135"><ele>773.0</ele><time>2011-11-30T09:50:23Z</time></trkpt><trkpt lat="42.585407" lon="-2.592140"><ele>773.0</ele><time>2011-11-30T09:50:24Z</time></trkpt><trkpt lat="42.585415" lon="-2.592150"><ele>773.0</ele><time>2011-11-30T09:50:25Z</time></trkpt><trkpt lat="42.585423" lon="-2.592157"><ele>773.5</ele><time>2011-11-30T09:50:26Z</time></trkpt><trkpt lat="42.585430" lon="-2.592165"><ele>774.0</ele><time>2011-11-30T09:50:27Z</time></trkpt><trkpt lat="42.585435" lon="-2.592178"><ele>775.0</ele><time>2011-11-30T09:50:28Z</time></trkpt><trkpt lat="42.585443" lon="-2.592187"><ele>775.0</ele><time>2011-11-30T09:50:29Z</time></trkpt><trkpt lat="42.585448" lon="-2.592200"><ele>776.0</ele><time>2011-11-30T09:50:30Z</time></trkpt><trkpt lat="42.585457" lon="-2.592205"><ele>776.5</ele><time>2011-11-30T09:50:31Z</time></trkpt><trkpt lat="42.585463" lon="-2.592213"><ele>776.0</ele><time>2011-11-30T09:50:32Z</time></trkpt><trkpt lat="42.585470" lon="-2.592227"><ele>776.5</ele><time>2011-11-30T09:50:33Z</time></trkpt><trkpt lat="42.585475" lon="-2.592238"><ele>777.0</ele><time>2011-11-30T09:50:34Z</time></trkpt><trkpt lat="42.585483" lon="-2.592243"><ele>776.0</ele><time>2011-11-30T09:50:35Z</time></trkpt><trkpt lat="42.585488" lon="-2.592253"><ele>776.5</ele><time>2011-11-30T09:50:36Z</time></trkpt><trkpt lat="42.585492" lon="-2.592267"><ele>777.0</ele><time>2011-11-30T09:50:37Z</time></trkpt><trkpt lat="42.585497" lon="-2.592272"><ele>776.5</ele><time>2011-11-30T09:50:38Z</time></trkpt><trkpt lat="42.585502" lon="-2.592282"><ele>777.5</ele><time>2011-11-30T09:50:39Z</time></trkpt><trkpt lat="42.585507" lon="-2.592288"><ele>777.5</ele><time>2011-11-30T09:50:40Z</time></trkpt><trkpt lat="42.585510" lon="-2.592298"><ele>778.0</ele><time>2011-11-30T09:50:41Z</time></trkpt><trkpt lat="42.585517" lon="-2.592307"><ele>777.5</ele><time>2011-11-30T09:50:42Z</time></trkpt><trkpt lat="42.585523" lon="-2.592312"><ele>777.5</ele><time>2011-11-30T09:50:43Z</time></trkpt><trkpt lat="42.585528" lon="-2.592315"><ele>778.0</ele><time>2011-11-30T09:50:44Z</time></trkpt><trkpt lat="42.585535" lon="-2.592325"><ele>778.0</ele><time>2011-11-30T09:50:45Z</time></trkpt><trkpt lat="42.585538" lon="-2.592335"><ele>778.0</ele><time>2011-11-30T09:50:46Z</time></trkpt><trkpt lat="42.585542" lon="-2.592342"><ele>778.0</ele><time>2011-11-30T09:50:47Z</time></trkpt><trkpt lat="42.585548" lon="-2.592350"><ele>778.0</ele><time>2011-11-30T09:50:48Z</time></trkpt><trkpt lat="42.585553" lon="-2.592360"><ele>778.5</ele><time>2011-11-30T09:50:49Z</time></trkpt><trkpt lat="42.585558" lon="-2.592363"><ele>778.0</ele><time>2011-11-30T09:50:50Z</time></trkpt><trkpt lat="42.585567" lon="-2.592360"><ele>777.0</ele><time>2011-11-30T09:50:51Z</time></trkpt><trkpt lat="42.585575" lon="-2.592363"><ele>776.5</ele><time>2011-11-30T09:50:52Z</time></trkpt><trkpt lat="42.585582" lon="-2.592370"><ele>776.5</ele><time>2011-11-30T09:50:53Z</time></trkpt><trkpt lat="42.585590" lon="-2.592372"><ele>776.0</ele><time>2011-11-30T09:50:54Z</time></trkpt><trkpt lat="42.585593" lon="-2.592382"><ele>777.0</ele><time>2011-11-30T09:50:55Z</time></trkpt><trkpt lat="42.585597" lon="-2.592393"><ele>777.0</ele><time>2011-11-30T09:50:56Z</time></trkpt><trkpt lat="42.585600" lon="-2.592402"><ele>777.5</ele><time>2011-11-30T09:50:57Z</time></trkpt><trkpt lat="42.585603" lon="-2.592417"><ele>778.5</ele><time>2011-11-30T09:50:58Z</time></trkpt><trkpt lat="42.585612" lon="-2.592423"><ele>778.0</ele><time>2011-11-30T09:50:59Z</time></trkpt><trkpt lat="42.585615" lon="-2.592438"><ele>779.0</ele><time>2011-11-30T09:51:00Z</time></trkpt><trkpt lat="42.585620" lon="-2.592447"><ele>779.0</ele><time>2011-11-30T09:51:01Z</time></trkpt><trkpt lat="42.585628" lon="-2.592445"><ele>778.5</ele><time>2011-11-30T09:51:02Z</time></trkpt><trkpt lat="42.585632" lon="-2.592453"><ele>779.0</ele><time>2011-11-30T09:51:03Z</time></trkpt><trkpt lat="42.585642" lon="-2.592458"><ele>778.5</ele><time>2011-11-30T09:51:04Z</time></trkpt><trkpt lat="42.585648" lon="-2.592465"><ele>778.5</ele><time>2011-11-30T09:51:05Z</time></trkpt><trkpt lat="42.585657" lon="-2.592465"><ele>777.5</ele><time>2011-11-30T09:51:06Z</time></trkpt><trkpt lat="42.585662" lon="-2.592480"><ele>779.0</ele><time>2011-11-30T09:51:07Z</time></trkpt><trkpt lat="42.585667" lon="-2.592482"><ele>778.5</ele><time>2011-11-30T09:51:08Z</time></trkpt><trkpt lat="42.585675" lon="-2.592485"><ele>778.0</ele><time>2011-11-30T09:51:09Z</time></trkpt><trkpt lat="42.585687" lon="-2.592480"><ele>777.0</ele><time>2011-11-30T09:51:10Z</time></trkpt><trkpt lat="42.585692" lon="-2.592483"><ele>777.0</ele><time>2011-11-30T09:51:11Z</time></trkpt><trkpt lat="42.585697" lon="-2.592490"><ele>777.0</ele><time>2011-11-30T09:51:12Z</time></trkpt><trkpt lat="42.585700" lon="-2.592498"><ele>777.5</ele><time>2011-11-30T09:51:13Z</time></trkpt><trkpt lat="42.585702" lon="-2.592513"><ele>778.0</ele><time>2011-11-30T09:51:14Z</time></trkpt><trkpt lat="42.585710" lon="-2.592522"><ele>778.0</ele><time>2011-11-30T09:51:15Z</time></trkpt><trkpt lat="42.585712" lon="-2.592533"><ele>779.0</ele><time>2011-11-30T09:51:16Z</time></trkpt><trkpt lat="42.585717" lon="-2.592543"><ele>779.5</ele><time>2011-11-30T09:51:17Z</time></trkpt><trkpt lat="42.585723" lon="-2.592555"><ele>780.0</ele><time>2011-11-30T09:51:18Z</time></trkpt><trkpt lat="42.585727" lon="-2.592565"><ele>781.0</ele><time>2011-11-30T09:51:19Z</time></trkpt><trkpt lat="42.585733" lon="-2.592570"><ele>780.0</ele><time>2011-11-30T09:51:20Z</time></trkpt><trkpt lat="42.585743" lon="-2.592575"><ele>780.0</ele><time>2011-11-30T09:51:21Z</time></trkpt><trkpt lat="42.585752" lon="-2.592582"><ele>780.0</ele><time>2011-11-30T09:51:22Z</time></trkpt><trkpt lat="42.585758" lon="-2.592583"><ele>779.5</ele><time>2011-11-30T09:51:23Z</time></trkpt><trkpt lat="42.585767" lon="-2.592590"><ele>779.5</ele><time>2011-11-30T09:51:24Z</time></trkpt><trkpt lat="42.585772" lon="-2.592602"><ele>780.5</ele><time>2011-11-30T09:51:25Z</time></trkpt><trkpt lat="42.585777" lon="-2.592612"><ele>780.5</ele><time>2011-11-30T09:51:26Z</time></trkpt><trkpt lat="42.585785" lon="-2.592622"><ele>781.0</ele><time>2011-11-30T09:51:27Z</time></trkpt><trkpt lat="42.585797" lon="-2.592628"><ele>780.5</ele><time>2011-11-30T09:51:28Z</time></trkpt><trkpt lat="42.585805" lon="-2.592633"><ele>780.5</ele><time>2011-11-30T09:51:29Z</time></trkpt><trkpt lat="42.585812" lon="-2.592643"><ele>780.5</ele><time>2011-11-30T09:51:30Z</time></trkpt><trkpt lat="42.585818" lon="-2.592653"><ele>781.0</ele><time>2011-11-30T09:51:31Z</time></trkpt><trkpt lat="42.585828" lon="-2.592660"><ele>781.5</ele><time>2011-11-30T09:51:32Z</time></trkpt><trkpt lat="42.585835" lon="-2.592673"><ele>783.0</ele><time>2011-11-30T09:51:33Z</time></trkpt><trkpt lat="42.585843" lon="-2.592675"><ele>783.0</ele><time>2011-11-30T09:51:34Z</time></trkpt><trkpt lat="42.585850" lon="-2.592685"><ele>784.0</ele><time>2011-11-30T09:51:35Z</time></trkpt><trkpt lat="42.585858" lon="-2.592687"><ele>784.0</ele><time>2011-11-30T09:51:36Z</time></trkpt><trkpt lat="42.585867" lon="-2.592690"><ele>784.0</ele><time>2011-11-30T09:51:37Z</time></trkpt><trkpt lat="42.585873" lon="-2.592697"><ele>784.5</ele><time>2011-11-30T09:51:38Z</time></trkpt><trkpt lat="42.585883" lon="-2.592700"><ele>784.0</ele><time>2011-11-30T09:51:39Z</time></trkpt><trkpt lat="42.585892" lon="-2.592708"><ele>785.0</ele><time>2011-11-30T09:51:40Z</time></trkpt><trkpt lat="42.585900" lon="-2.592710"><ele>784.5</ele><time>2011-11-30T09:51:41Z</time></trkpt><trkpt lat="42.585910" lon="-2.592715"><ele>784.5</ele><time>2011-11-30T09:51:42Z</time></trkpt><trkpt lat="42.585918" lon="-2.592718"><ele>784.5</ele><time>2011-11-30T09:51:43Z</time></trkpt><trkpt lat="42.585925" lon="-2.592723"><ele>785.0</ele><time>2011-11-30T09:51:44Z</time></trkpt><trkpt lat="42.585933" lon="-2.592728"><ele>784.0</ele><time>2011-11-30T09:51:45Z</time></trkpt><trkpt lat="42.585943" lon="-2.592732"><ele>784.0</ele><time>2011-11-30T09:51:46Z</time></trkpt><trkpt lat="42.585948" lon="-2.592735"><ele>785.0</ele><time>2011-11-30T09:51:47Z</time></trkpt><trkpt lat="42.585955" lon="-2.592742"><ele>785.0</ele><time>2011-11-30T09:51:48Z</time></trkpt><trkpt lat="42.585963" lon="-2.592743"><ele>785.5</ele><time>2011-11-30T09:51:49Z</time></trkpt><trkpt lat="42.585970" lon="-2.592748"><ele>785.5</ele><time>2011-11-30T09:51:50Z</time></trkpt><trkpt lat="42.585977" lon="-2.592745"><ele>785.0</ele><time>2011-11-30T09:51:51Z</time></trkpt><trkpt lat="42.585988" lon="-2.592747"><ele>785.0</ele><time>2011-11-30T09:51:52Z</time></trkpt><trkpt lat="42.585995" lon="-2.592748"><ele>784.5</ele><time>2011-11-30T09:51:53Z</time></trkpt><trkpt lat="42.586007" lon="-2.592743"><ele>783.0</ele><time>2011-11-30T09:51:54Z</time></trkpt><trkpt lat="42.586015" lon="-2.592747"><ele>783.0</ele><time>2011-11-30T09:51:55Z</time></trkpt><trkpt lat="42.586020" lon="-2.592748"><ele>783.5</ele><time>2011-11-30T09:51:56Z</time></trkpt><trkpt lat="42.586027" lon="-2.592755"><ele>784.0</ele><time>2011-11-30T09:51:57Z</time></trkpt><trkpt lat="42.586037" lon="-2.592758"><ele>783.0</ele><time>2011-11-30T09:51:58Z</time></trkpt><trkpt lat="42.586045" lon="-2.592763"><ele>783.5</ele><time>2011-11-30T09:51:59Z</time></trkpt><trkpt lat="42.586050" lon="-2.592767"><ele>783.5</ele><time>2011-11-30T09:52:00Z</time></trkpt><trkpt lat="42.586058" lon="-2.592768"><ele>783.5</ele><time>2011-11-30T09:52:01Z</time></trkpt><trkpt lat="42.586065" lon="-2.592775"><ele>784.0</ele><time>2011-11-30T09:52:02Z</time></trkpt><trkpt lat="42.586075" lon="-2.592777"><ele>783.5</ele><time>2011-11-30T09:52:03Z</time></trkpt><trkpt lat="42.586082" lon="-2.592782"><ele>783.5</ele><time>2011-11-30T09:52:04Z</time></trkpt><trkpt lat="42.586090" lon="-2.592787"><ele>784.0</ele><time>2011-11-30T09:52:05Z</time></trkpt><trkpt lat="42.586095" lon="-2.592795"><ele>784.0</ele><time>2011-11-30T09:52:06Z</time></trkpt><trkpt lat="42.586102" lon="-2.592803"><ele>784.5</ele><time>2011-11-30T09:52:07Z</time></trkpt><trkpt lat="42.586115" lon="-2.592802"><ele>782.5</ele><time>2011-11-30T09:52:08Z</time></trkpt><trkpt lat="42.586123" lon="-2.592805"><ele>782.5</ele><time>2011-11-30T09:52:09Z</time></trkpt><trkpt lat="42.586132" lon="-2.592812"><ele>783.0</ele><time>2011-11-30T09:52:10Z</time></trkpt><trkpt lat="42.586140" lon="-2.592817"><ele>782.5</ele><time>2011-11-30T09:52:11Z</time></trkpt><trkpt lat="42.586147" lon="-2.592823"><ele>782.5</ele><time>2011-11-30T09:52:12Z</time></trkpt><trkpt lat="42.586153" lon="-2.592848"><ele>783.0</ele><time>2011-11-30T09:52:13Z</time></trkpt><trkpt lat="42.586157" lon="-2.592868"><ele>784.5</ele><time>2011-11-30T09:52:14Z</time></trkpt><trkpt lat="42.586167" lon="-2.592873"><ele>784.0</ele><time>2011-11-30T09:52:15Z</time></trkpt><trkpt lat="42.586180" lon="-2.592873"><ele>783.0</ele><time>2011-11-30T09:52:16Z</time></trkpt><trkpt lat="42.586188" lon="-2.592878"><ele>783.5</ele><time>2011-11-30T09:52:17Z</time></trkpt><trkpt lat="42.586205" lon="-2.592897"><ele>784.0</ele><time>2011-11-30T09:52:19Z</time></trkpt><trkpt lat="42.586220" lon="-2.592915"><ele>784.0</ele><time>2011-11-30T09:52:21Z</time></trkpt><trkpt lat="42.586232" lon="-2.592920"><ele>783.5</ele><time>2011-11-30T09:52:22Z</time></trkpt><trkpt lat="42.586242" lon="-2.592927"><ele>783.5</ele><time>2011-11-30T09:52:23Z</time></trkpt><trkpt lat="42.586247" lon="-2.592935"><ele>784.0</ele><time>2011-11-30T09:52:24Z</time></trkpt><trkpt lat="42.586257" lon="-2.592942"><ele>784.0</ele><time>2011-11-30T09:52:25Z</time></trkpt><trkpt lat="42.586265" lon="-2.592950"><ele>785.0</ele><time>2011-11-30T09:52:26Z</time></trkpt><trkpt lat="42.586277" lon="-2.592952"><ele>784.5</ele><time>2011-11-30T09:52:27Z</time></trkpt><trkpt lat="42.586292" lon="-2.592963"><ele>785.0</ele><time>2011-11-30T09:52:29Z</time></trkpt><trkpt lat="42.586300" lon="-2.592967"><ele>786.0</ele><time>2011-11-30T09:52:30Z</time></trkpt><trkpt lat="42.586305" lon="-2.592970"><ele>786.5</ele><time>2011-11-30T09:52:31Z</time></trkpt><trkpt lat="42.586312" lon="-2.592980"><ele>786.5</ele><time>2011-11-30T09:52:32Z</time></trkpt><trkpt lat="42.586318" lon="-2.592983"><ele>786.5</ele><time>2011-11-30T09:52:33Z</time></trkpt><trkpt lat="42.586323" lon="-2.592993"><ele>787.5</ele><time>2011-11-30T09:52:34Z</time></trkpt><trkpt lat="42.586330" lon="-2.593005"><ele>788.0</ele><time>2011-11-30T09:52:35Z</time></trkpt><trkpt lat="42.586342" lon="-2.593013"><ele>788.0</ele><time>2011-11-30T09:52:36Z</time></trkpt><trkpt lat="42.586353" lon="-2.593022"><ele>788.5</ele><time>2011-11-30T09:52:37Z</time></trkpt><trkpt lat="42.586365" lon="-2.593032"><ele>789.0</ele><time>2011-11-30T09:52:38Z</time></trkpt><trkpt lat="42.586375" lon="-2.593038"><ele>789.0</ele><time>2011-11-30T09:52:39Z</time></trkpt><trkpt lat="42.586383" lon="-2.593045"><ele>790.0</ele><time>2011-11-30T09:52:40Z</time></trkpt><trkpt lat="42.586390" lon="-2.593053"><ele>790.5</ele><time>2011-11-30T09:52:41Z</time></trkpt><trkpt lat="42.586397" lon="-2.593062"><ele>791.0</ele><time>2011-11-30T09:52:42Z</time></trkpt><trkpt lat="42.586403" lon="-2.593070"><ele>791.5</ele><time>2011-11-30T09:52:43Z</time></trkpt><trkpt lat="42.586412" lon="-2.593073"><ele>791.5</ele><time>2011-11-30T09:52:44Z</time></trkpt><trkpt lat="42.586425" lon="-2.593068"><ele>790.5</ele><time>2011-11-30T09:52:45Z</time></trkpt><trkpt lat="42.586432" lon="-2.593075"><ele>792.0</ele><time>2011-11-30T09:52:46Z</time></trkpt><trkpt lat="42.586437" lon="-2.593083"><ele>793.0</ele><time>2011-11-30T09:52:47Z</time></trkpt><trkpt lat="42.586442" lon="-2.593095"><ele>793.5</ele><time>2011-11-30T09:52:48Z</time></trkpt><trkpt lat="42.586447" lon="-2.593110"><ele>794.5</ele><time>2011-11-30T09:52:49Z</time></trkpt><trkpt lat="42.586455" lon="-2.593115"><ele>795.0</ele><time>2011-11-30T09:52:50Z</time></trkpt><trkpt lat="42.586460" lon="-2.593127"><ele>795.5</ele><time>2011-11-30T09:52:51Z</time></trkpt><trkpt lat="42.586468" lon="-2.593132"><ele>795.5</ele><time>2011-11-30T09:52:52Z</time></trkpt><trkpt lat="42.586475" lon="-2.593135"><ele>795.5</ele><time>2011-11-30T09:52:53Z</time></trkpt><trkpt lat="42.586485" lon="-2.593140"><ele>795.5</ele><time>2011-11-30T09:52:54Z</time></trkpt><trkpt lat="42.586492" lon="-2.593145"><ele>796.0</ele><time>2011-11-30T09:52:55Z</time></trkpt><trkpt lat="42.586500" lon="-2.593148"><ele>795.0</ele><time>2011-11-30T09:52:56Z</time></trkpt><trkpt lat="42.586510" lon="-2.593155"><ele>796.0</ele><time>2011-11-30T09:52:57Z</time></trkpt><trkpt lat="42.586523" lon="-2.593162"><ele>796.0</ele><time>2011-11-30T09:52:58Z</time></trkpt><trkpt lat="42.586538" lon="-2.593165"><ele>796.0</ele><time>2011-11-30T09:52:59Z</time></trkpt><trkpt lat="42.586547" lon="-2.593168"><ele>796.0</ele><time>2011-11-30T09:53:00Z</time></trkpt><trkpt lat="42.586558" lon="-2.593172"><ele>795.5</ele><time>2011-11-30T09:53:01Z</time></trkpt><trkpt lat="42.586572" lon="-2.593177"><ele>795.0</ele><time>2011-11-30T09:53:02Z</time></trkpt><trkpt lat="42.586585" lon="-2.593175"><ele>794.0</ele><time>2011-11-30T09:53:03Z</time></trkpt><trkpt lat="42.586597" lon="-2.593178"><ele>793.5</ele><time>2011-11-30T09:53:04Z</time></trkpt><trkpt lat="42.586608" lon="-2.593178"><ele>792.5</ele><time>2011-11-30T09:53:05Z</time></trkpt><trkpt lat="42.586618" lon="-2.593185"><ele>792.5</ele><time>2011-11-30T09:53:06Z</time></trkpt><trkpt lat="42.586627" lon="-2.593190"><ele>792.5</ele><time>2011-11-30T09:53:07Z</time></trkpt><trkpt lat="42.586637" lon="-2.593193"><ele>792.0</ele><time>2011-11-30T09:53:08Z</time></trkpt><trkpt lat="42.586643" lon="-2.593198"><ele>793.0</ele><time>2011-11-30T09:53:09Z</time></trkpt><trkpt lat="42.586648" lon="-2.593212"><ele>793.5</ele><time>2011-11-30T09:53:10Z</time></trkpt><trkpt lat="42.586658" lon="-2.593215"><ele>793.0</ele><time>2011-11-30T09:53:11Z</time></trkpt><trkpt lat="42.586673" lon="-2.593217"><ele>792.5</ele><time>2011-11-30T09:53:12Z</time></trkpt><trkpt lat="42.586687" lon="-2.593218"><ele>792.5</ele><time>2011-11-30T09:53:13Z</time></trkpt><trkpt lat="42.586700" lon="-2.593220"><ele>792.5</ele><time>2011-11-30T09:53:14Z</time></trkpt><trkpt lat="42.586712" lon="-2.593223"><ele>792.5</ele><time>2011-11-30T09:53:15Z</time></trkpt><trkpt lat="42.586722" lon="-2.593225"><ele>792.5</ele><time>2011-11-30T09:53:16Z</time></trkpt><trkpt lat="42.586732" lon="-2.593225"><ele>792.0</ele><time>2011-11-30T09:53:17Z</time></trkpt><trkpt lat="42.586740" lon="-2.593225"><ele>792.0</ele><time>2011-11-30T09:53:18Z</time></trkpt><trkpt lat="42.586752" lon="-2.593223"><ele>792.5</ele><time>2011-11-30T09:53:19Z</time></trkpt><trkpt lat="42.586767" lon="-2.593218"><ele>793.0</ele><time>2011-11-30T09:53:20Z</time></trkpt><trkpt lat="42.586775" lon="-2.593213"><ele>793.0</ele><time>2011-11-30T09:53:21Z</time></trkpt><trkpt lat="42.586783" lon="-2.593210"><ele>793.0</ele><time>2011-11-30T09:53:22Z</time></trkpt><trkpt lat="42.586793" lon="-2.593207"><ele>793.5</ele><time>2011-11-30T09:53:23Z</time></trkpt><trkpt lat="42.586803" lon="-2.593208"><ele>794.0</ele><time>2011-11-30T09:53:24Z</time></trkpt><trkpt lat="42.586813" lon="-2.593208"><ele>794.5</ele><time>2011-11-30T09:53:25Z</time></trkpt><trkpt lat="42.586822" lon="-2.593207"><ele>795.0</ele><time>2011-11-30T09:53:26Z</time></trkpt><trkpt lat="42.586832" lon="-2.593208"><ele>795.0</ele><time>2011-11-30T09:53:27Z</time></trkpt><trkpt lat="42.586842" lon="-2.593207"><ele>795.0</ele><time>2011-11-30T09:53:28Z</time></trkpt><trkpt lat="42.586852" lon="-2.593207"><ele>795.0</ele><time>2011-11-30T09:53:29Z</time></trkpt><trkpt lat="42.586860" lon="-2.593210"><ele>795.5</ele><time>2011-11-30T09:53:30Z</time></trkpt><trkpt lat="42.586868" lon="-2.593213"><ele>795.5</ele><time>2011-11-30T09:53:31Z</time></trkpt><trkpt lat="42.586875" lon="-2.593217"><ele>795.5</ele><time>2011-11-30T09:53:32Z</time></trkpt><trkpt lat="42.586885" lon="-2.593213"><ele>795.5</ele><time>2011-11-30T09:53:33Z</time></trkpt><trkpt lat="42.586893" lon="-2.593215"><ele>796.0</ele><time>2011-11-30T09:53:34Z</time></trkpt><trkpt lat="42.586902" lon="-2.593217"><ele>796.0</ele><time>2011-11-30T09:53:35Z</time></trkpt><trkpt lat="42.586912" lon="-2.593215"><ele>796.0</ele><time>2011-11-30T09:53:36Z</time></trkpt><trkpt lat="42.586917" lon="-2.593210"><ele>796.5</ele><time>2011-11-30T09:53:37Z</time></trkpt><trkpt lat="42.586925" lon="-2.593205"><ele>796.5</ele><time>2011-11-30T09:53:38Z</time></trkpt><trkpt lat="42.586932" lon="-2.593200"><ele>797.0</ele><time>2011-11-30T09:53:39Z</time></trkpt><trkpt lat="42.586940" lon="-2.593195"><ele>796.5</ele><time>2011-11-30T09:53:40Z</time></trkpt><trkpt lat="42.586953" lon="-2.593190"><ele>797.0</ele><time>2011-11-30T09:53:41Z</time></trkpt><trkpt lat="42.586963" lon="-2.593187"><ele>797.0</ele><time>2011-11-30T09:53:42Z</time></trkpt><trkpt lat="42.586972" lon="-2.593187"><ele>796.5</ele><time>2011-11-30T09:53:43Z</time></trkpt><trkpt lat="42.586980" lon="-2.593185"><ele>796.5</ele><time>2011-11-30T09:53:44Z</time></trkpt><trkpt lat="42.586993" lon="-2.593183"><ele>795.5</ele><time>2011-11-30T09:53:45Z</time></trkpt><trkpt lat="42.587002" lon="-2.593182"><ele>795.5</ele><time>2011-11-30T09:53:46Z</time></trkpt><trkpt lat="42.587010" lon="-2.593178"><ele>796.0</ele><time>2011-11-30T09:53:47Z</time></trkpt><trkpt lat="42.587018" lon="-2.593175"><ele>796.5</ele><time>2011-11-30T09:53:48Z</time></trkpt><trkpt lat="42.587030" lon="-2.593162"><ele>796.5</ele><time>2011-11-30T09:53:49Z</time></trkpt><trkpt lat="42.587040" lon="-2.593158"><ele>796.5</ele><time>2011-11-30T09:53:50Z</time></trkpt><trkpt lat="42.587048" lon="-2.593153"><ele>796.5</ele><time>2011-11-30T09:53:51Z</time></trkpt><trkpt lat="42.587057" lon="-2.593148"><ele>797.0</ele><time>2011-11-30T09:53:52Z</time></trkpt><trkpt lat="42.587067" lon="-2.593142"><ele>797.5</ele><time>2011-11-30T09:53:53Z</time></trkpt><trkpt lat="42.587072" lon="-2.593137"><ele>797.5</ele><time>2011-11-30T09:53:54Z</time></trkpt><trkpt lat="42.587082" lon="-2.593132"><ele>797.5</ele><time>2011-11-30T09:53:55Z</time></trkpt><trkpt lat="42.587088" lon="-2.593127"><ele>798.0</ele><time>2011-11-30T09:53:56Z</time></trkpt><trkpt lat="42.587097" lon="-2.593122"><ele>797.5</ele><time>2011-11-30T09:53:57Z</time></trkpt><trkpt lat="42.587113" lon="-2.593122"><ele>798.0</ele><time>2011-11-30T09:53:58Z</time></trkpt><trkpt lat="42.587120" lon="-2.593110"><ele>798.5</ele><time>2011-11-30T09:53:59Z</time></trkpt><trkpt lat="42.587122" lon="-2.593102"><ele>798.5</ele><time>2011-11-30T09:54:00Z</time></trkpt><trkpt lat="42.587132" lon="-2.593097"><ele>799.0</ele><time>2011-11-30T09:54:01Z</time></trkpt><trkpt lat="42.587138" lon="-2.593092"><ele>799.0</ele><time>2011-11-30T09:54:02Z</time></trkpt><trkpt lat="42.587152" lon="-2.593077"><ele>799.0</ele><time>2011-11-30T09:54:03Z</time></trkpt><trkpt lat="42.587160" lon="-2.593068"><ele>799.0</ele><time>2011-11-30T09:54:04Z</time></trkpt><trkpt lat="42.587163" lon="-2.593060"><ele>799.0</ele><time>2011-11-30T09:54:05Z</time></trkpt><trkpt lat="42.587168" lon="-2.593050"><ele>799.0</ele><time>2011-11-30T09:54:06Z</time></trkpt><trkpt lat="42.587177" lon="-2.593040"><ele>799.0</ele><time>2011-11-30T09:54:07Z</time></trkpt><trkpt lat="42.587182" lon="-2.593033"><ele>799.0</ele><time>2011-11-30T09:54:08Z</time></trkpt><trkpt lat="42.587188" lon="-2.593025"><ele>799.0</ele><time>2011-11-30T09:54:09Z</time></trkpt><trkpt lat="42.587195" lon="-2.593013"><ele>799.5</ele><time>2011-11-30T09:54:10Z</time></trkpt><trkpt lat="42.587202" lon="-2.593003"><ele>800.0</ele><time>2011-11-30T09:54:11Z</time></trkpt><trkpt lat="42.587208" lon="-2.592992"><ele>800.5</ele><time>2011-11-30T09:54:12Z</time></trkpt><trkpt lat="42.587212" lon="-2.592982"><ele>801.0</ele><time>2011-11-30T09:54:13Z</time></trkpt><trkpt lat="42.587215" lon="-2.592970"><ele>801.0</ele><time>2011-11-30T09:54:14Z</time></trkpt><trkpt lat="42.587220" lon="-2.592960"><ele>801.0</ele><time>2011-11-30T09:54:15Z</time></trkpt><trkpt lat="42.587227" lon="-2.592950"><ele>801.5</ele><time>2011-11-30T09:54:16Z</time></trkpt><trkpt lat="42.587232" lon="-2.592943"><ele>802.0</ele><time>2011-11-30T09:54:17Z</time></trkpt><trkpt lat="42.587235" lon="-2.592933"><ele>802.0</ele><time>2011-11-30T09:54:18Z</time></trkpt><trkpt lat="42.587242" lon="-2.592925"><ele>802.5</ele><time>2011-11-30T09:54:19Z</time></trkpt><trkpt lat="42.587245" lon="-2.592917"><ele>802.5</ele><time>2011-11-30T09:54:20Z</time></trkpt><trkpt lat="42.587248" lon="-2.592907"><ele>803.0</ele><time>2011-11-30T09:54:21Z</time></trkpt><trkpt lat="42.587253" lon="-2.592897"><ele>803.0</ele><time>2011-11-30T09:54:22Z</time></trkpt><trkpt lat="42.587257" lon="-2.592888"><ele>803.5</ele><time>2011-11-30T09:54:23Z</time></trkpt><trkpt lat="42.587262" lon="-2.592877"><ele>803.5</ele><time>2011-11-30T09:54:24Z</time></trkpt><trkpt lat="42.587265" lon="-2.592865"><ele>804.0</ele><time>2011-11-30T09:54:25Z</time></trkpt><trkpt lat="42.587270" lon="-2.592855"><ele>804.0</ele><time>2011-11-30T09:54:26Z</time></trkpt><trkpt lat="42.587278" lon="-2.592843"><ele>804.0</ele><time>2011-11-30T09:54:27Z</time></trkpt><trkpt lat="42.587285" lon="-2.592835"><ele>804.0</ele><time>2011-11-30T09:54:28Z</time></trkpt><trkpt lat="42.587293" lon="-2.592827"><ele>804.5</ele><time>2011-11-30T09:54:29Z</time></trkpt><trkpt lat="42.587300" lon="-2.592817"><ele>804.5</ele><time>2011-11-30T09:54:30Z</time></trkpt><trkpt lat="42.587305" lon="-2.592805"><ele>805.0</ele><time>2011-11-30T09:54:31Z</time></trkpt><trkpt lat="42.587308" lon="-2.592797"><ele>805.0</ele><time>2011-11-30T09:54:32Z</time></trkpt><trkpt lat="42.587315" lon="-2.592788"><ele>804.5</ele><time>2011-11-30T09:54:33Z</time></trkpt><trkpt lat="42.587318" lon="-2.592780"><ele>805.0</ele><time>2011-11-30T09:54:34Z</time></trkpt><trkpt lat="42.587323" lon="-2.592770"><ele>805.0</ele><time>2011-11-30T09:54:35Z</time></trkpt><trkpt lat="42.587327" lon="-2.592760"><ele>805.5</ele><time>2011-11-30T09:54:36Z</time></trkpt><trkpt lat="42.587332" lon="-2.592750"><ele>805.5</ele><time>2011-11-30T09:54:37Z</time></trkpt><trkpt lat="42.587338" lon="-2.592740"><ele>806.0</ele><time>2011-11-30T09:54:38Z</time></trkpt><trkpt lat="42.587343" lon="-2.592730"><ele>805.5</ele><time>2011-11-30T09:54:39Z</time></trkpt><trkpt lat="42.587347" lon="-2.592722"><ele>805.5</ele><time>2011-11-30T09:54:40Z</time></trkpt><trkpt lat="42.587348" lon="-2.592712"><ele>805.5</ele><time>2011-11-30T09:54:41Z</time></trkpt><trkpt lat="42.587352" lon="-2.592703"><ele>805.5</ele><time>2011-11-30T09:54:42Z</time></trkpt><trkpt lat="42.587353" lon="-2.592695"><ele>805.5</ele><time>2011-11-30T09:54:43Z</time></trkpt><trkpt lat="42.587355" lon="-2.592685"><ele>805.5</ele><time>2011-11-30T09:54:44Z</time></trkpt><trkpt lat="42.587358" lon="-2.592677"><ele>805.5</ele><time>2011-11-30T09:54:45Z</time></trkpt><trkpt lat="42.587360" lon="-2.592665"><ele>805.5</ele><time>2011-11-30T09:54:46Z</time></trkpt><trkpt lat="42.587362" lon="-2.592657"><ele>805.5</ele><time>2011-11-30T09:54:47Z</time></trkpt><trkpt lat="42.587360" lon="-2.592647"><ele>805.5</ele><time>2011-11-30T09:54:48Z</time></trkpt><trkpt lat="42.587365" lon="-2.592637"><ele>805.5</ele><time>2011-11-30T09:54:49Z</time></trkpt><trkpt lat="42.587375" lon="-2.592628"><ele>806.0</ele><time>2011-11-30T09:54:50Z</time></trkpt><trkpt lat="42.587377" lon="-2.592618"><ele>806.0</ele><time>2011-11-30T09:54:51Z</time></trkpt><trkpt lat="42.587382" lon="-2.592610"><ele>806.0</ele><time>2011-11-30T09:54:52Z</time></trkpt><trkpt lat="42.587388" lon="-2.592600"><ele>806.5</ele><time>2011-11-30T09:54:53Z</time></trkpt><trkpt lat="42.587393" lon="-2.592592"><ele>806.5</ele><time>2011-11-30T09:54:54Z</time></trkpt><trkpt lat="42.587397" lon="-2.592580"><ele>806.5</ele><time>2011-11-30T09:54:55Z</time></trkpt><trkpt lat="42.587403" lon="-2.592570"><ele>807.0</ele><time>2011-11-30T09:54:56Z</time></trkpt><trkpt lat="42.587407" lon="-2.592562"><ele>807.5</ele><time>2011-11-30T09:54:57Z</time></trkpt><trkpt lat="42.587410" lon="-2.592553"><ele>807.0</ele><time>2011-11-30T09:54:58Z</time></trkpt><trkpt lat="42.587415" lon="-2.592543"><ele>807.0</ele><time>2011-11-30T09:54:59Z</time></trkpt><trkpt lat="42.587418" lon="-2.592533"><ele>807.5</ele><time>2011-11-30T09:55:00Z</time></trkpt><trkpt lat="42.587420" lon="-2.592523"><ele>808.0</ele><time>2011-11-30T09:55:01Z</time></trkpt><trkpt lat="42.587428" lon="-2.592515"><ele>808.5</ele><time>2011-11-30T09:55:02Z</time></trkpt><trkpt lat="42.587433" lon="-2.592507"><ele>808.5</ele><time>2011-11-30T09:55:03Z</time></trkpt><trkpt lat="42.587437" lon="-2.592498"><ele>809.0</ele><time>2011-11-30T09:55:04Z</time></trkpt><trkpt lat="42.587448" lon="-2.592485"><ele>810.0</ele><time>2011-11-30T09:55:05Z</time></trkpt><trkpt lat="42.587457" lon="-2.592473"><ele>810.0</ele><time>2011-11-30T09:55:06Z</time></trkpt><trkpt lat="42.587462" lon="-2.592467"><ele>810.0</ele><time>2011-11-30T09:55:07Z</time></trkpt><trkpt lat="42.587462" lon="-2.592450"><ele>810.0</ele><time>2011-11-30T09:55:08Z</time></trkpt><trkpt lat="42.587463" lon="-2.592440"><ele>810.5</ele><time>2011-11-30T09:55:09Z</time></trkpt><trkpt lat="42.587465" lon="-2.592432"><ele>810.5</ele><time>2011-11-30T09:55:10Z</time></trkpt><trkpt lat="42.587470" lon="-2.592420"><ele>810.5</ele><time>2011-11-30T09:55:11Z</time></trkpt><trkpt lat="42.587472" lon="-2.592407"><ele>810.5</ele><time>2011-11-30T09:55:12Z</time></trkpt><trkpt lat="42.587472" lon="-2.592397"><ele>810.5</ele><time>2011-11-30T09:55:13Z</time></trkpt><trkpt lat="42.587473" lon="-2.592387"><ele>810.5</ele><time>2011-11-30T09:55:14Z</time></trkpt><trkpt lat="42.587475" lon="-2.592375"><ele>810.0</ele><time>2011-11-30T09:55:15Z</time></trkpt><trkpt lat="42.587478" lon="-2.592368"><ele>810.0</ele><time>2011-11-30T09:55:16Z</time></trkpt><trkpt lat="42.587478" lon="-2.592357"><ele>810.0</ele><time>2011-11-30T09:55:17Z</time></trkpt><trkpt lat="42.587480" lon="-2.592345"><ele>810.5</ele><time>2011-11-30T09:55:18Z</time></trkpt><trkpt lat="42.587482" lon="-2.592335"><ele>810.0</ele><time>2011-11-30T09:55:19Z</time></trkpt><trkpt lat="42.587483" lon="-2.592327"><ele>810.0</ele><time>2011-11-30T09:55:20Z</time></trkpt><trkpt lat="42.587485" lon="-2.592315"><ele>810.0</ele><time>2011-11-30T09:55:21Z</time></trkpt><trkpt lat="42.587487" lon="-2.592307"><ele>810.0</ele><time>2011-11-30T09:55:22Z</time></trkpt><trkpt lat="42.587487" lon="-2.592298"><ele>809.5</ele><time>2011-11-30T09:55:23Z</time></trkpt><trkpt lat="42.587487" lon="-2.592285"><ele>810.0</ele><time>2011-11-30T09:55:24Z</time></trkpt><trkpt lat="42.587485" lon="-2.592273"><ele>810.0</ele><time>2011-11-30T09:55:25Z</time></trkpt><trkpt lat="42.587487" lon="-2.592260"><ele>810.5</ele><time>2011-11-30T09:55:26Z</time></trkpt><trkpt lat="42.587488" lon="-2.592248"><ele>810.5</ele><time>2011-11-30T09:55:27Z</time></trkpt><trkpt lat="42.587490" lon="-2.592235"><ele>811.0</ele><time>2011-11-30T09:55:28Z</time></trkpt><trkpt lat="42.587492" lon="-2.592223"><ele>811.0</ele><time>2011-11-30T09:55:29Z</time></trkpt><trkpt lat="42.587495" lon="-2.592212"><ele>811.0</ele><time>2011-11-30T09:55:30Z</time></trkpt><trkpt lat="42.587493" lon="-2.592202"><ele>811.0</ele><time>2011-11-30T09:55:31Z</time></trkpt><trkpt lat="42.587492" lon="-2.592190"><ele>811.0</ele><time>2011-11-30T09:55:32Z</time></trkpt><trkpt lat="42.587490" lon="-2.592178"><ele>811.5</ele><time>2011-11-30T09:55:33Z</time></trkpt><trkpt lat="42.587487" lon="-2.592168"><ele>811.0</ele><time>2011-11-30T09:55:34Z</time></trkpt><trkpt lat="42.587485" lon="-2.592157"><ele>811.5</ele><time>2011-11-30T09:55:35Z</time></trkpt><trkpt lat="42.587490" lon="-2.592163"><ele>810.5</ele><time>2011-11-30T09:55:36Z</time></trkpt><trkpt lat="42.587490" lon="-2.592153"><ele>810.5</ele><time>2011-11-30T09:55:37Z</time></trkpt><trkpt lat="42.587490" lon="-2.592140"><ele>811.0</ele><time>2011-11-30T09:55:38Z</time></trkpt><trkpt lat="42.587493" lon="-2.592130"><ele>811.0</ele><time>2011-11-30T09:55:39Z</time></trkpt><trkpt lat="42.587493" lon="-2.592117"><ele>811.0</ele><time>2011-11-30T09:55:40Z</time></trkpt><trkpt lat="42.587493" lon="-2.592103"><ele>811.0</ele><time>2011-11-30T09:55:41Z</time></trkpt><trkpt lat="42.587492" lon="-2.592087"><ele>811.5</ele><time>2011-11-30T09:55:42Z</time></trkpt><trkpt lat="42.587492" lon="-2.592075"><ele>811.5</ele><time>2011-11-30T09:55:43Z</time></trkpt><trkpt lat="42.587492" lon="-2.592063"><ele>812.0</ele><time>2011-11-30T09:55:44Z</time></trkpt><trkpt lat="42.587498" lon="-2.592045"><ele>812.0</ele><time>2011-11-30T09:55:45Z</time></trkpt><trkpt lat="42.587502" lon="-2.592030"><ele>812.5</ele><time>2011-11-30T09:55:46Z</time></trkpt><trkpt lat="42.587505" lon="-2.592017"><ele>813.0</ele><time>2011-11-30T09:55:47Z</time></trkpt><trkpt lat="42.587507" lon="-2.592005"><ele>813.5</ele><time>2011-11-30T09:55:48Z</time></trkpt><trkpt lat="42.587510" lon="-2.591993"><ele>813.5</ele><time>2011-11-30T09:55:49Z</time></trkpt><trkpt lat="42.587515" lon="-2.591985"><ele>814.0</ele><time>2011-11-30T09:55:50Z</time></trkpt><trkpt lat="42.587518" lon="-2.591977"><ele>814.0</ele><time>2011-11-30T09:55:51Z</time></trkpt><trkpt lat="42.587520" lon="-2.591965"><ele>814.0</ele><time>2011-11-30T09:55:52Z</time></trkpt><trkpt lat="42.587523" lon="-2.591957"><ele>814.0</ele><time>2011-11-30T09:55:53Z</time></trkpt><trkpt lat="42.587525" lon="-2.591947"><ele>814.5</ele><time>2011-11-30T09:55:54Z</time></trkpt><trkpt lat="42.587527" lon="-2.591938"><ele>814.5</ele><time>2011-11-30T09:55:55Z</time></trkpt><trkpt lat="42.587530" lon="-2.591932"><ele>815.0</ele><time>2011-11-30T09:55:56Z</time></trkpt><trkpt lat="42.587532" lon="-2.591923"><ele>815.0</ele><time>2011-11-30T09:55:57Z</time></trkpt><trkpt lat="42.587537" lon="-2.591913"><ele>815.0</ele><time>2011-11-30T09:55:58Z</time></trkpt><trkpt lat="42.587550" lon="-2.591897"><ele>815.5</ele><time>2011-11-30T09:55:59Z</time></trkpt><trkpt lat="42.587557" lon="-2.591890"><ele>815.5</ele><time>2011-11-30T09:56:00Z</time></trkpt><trkpt lat="42.587562" lon="-2.591885"><ele>816.0</ele><time>2011-11-30T09:56:01Z</time></trkpt><trkpt lat="42.587570" lon="-2.591878"><ele>816.5</ele><time>2011-11-30T09:56:02Z</time></trkpt><trkpt lat="42.587582" lon="-2.591885"><ele>820.5</ele><time>2011-11-30T09:56:03Z</time></trkpt><trkpt lat="42.587587" lon="-2.591913"><ele>822.5</ele><time>2011-11-30T09:56:04Z</time></trkpt><trkpt lat="42.587595" lon="-2.591910"><ele>822.5</ele><time>2011-11-30T09:56:05Z</time></trkpt><trkpt lat="42.587605" lon="-2.591897"><ele>821.0</ele><time>2011-11-30T09:56:06Z</time></trkpt><trkpt lat="42.587617" lon="-2.591883"><ele>820.0</ele><time>2011-11-30T09:56:07Z</time></trkpt><trkpt lat="42.587625" lon="-2.591870"><ele>819.5</ele><time>2011-11-30T09:56:08Z</time></trkpt><trkpt lat="42.587623" lon="-2.591863"><ele>818.0</ele><time>2011-11-30T09:56:09Z</time></trkpt><trkpt lat="42.587630" lon="-2.591865"><ele>818.5</ele><time>2011-11-30T09:56:10Z</time></trkpt><trkpt lat="42.587638" lon="-2.591865"><ele>818.5</ele><time>2011-11-30T09:56:11Z</time></trkpt><trkpt lat="42.587648" lon="-2.591860"><ele>819.0</ele><time>2011-11-30T09:56:12Z</time></trkpt><trkpt lat="42.587653" lon="-2.591858"><ele>819.0</ele><time>2011-11-30T09:56:13Z</time></trkpt><trkpt lat="42.587663" lon="-2.591860"><ele>819.5</ele><time>2011-11-30T09:56:14Z</time></trkpt><trkpt lat="42.587673" lon="-2.591862"><ele>820.0</ele><time>2011-11-30T09:56:15Z</time></trkpt><trkpt lat="42.587682" lon="-2.591865"><ele>820.5</ele><time>2011-11-30T09:56:16Z</time></trkpt><trkpt lat="42.587688" lon="-2.591858"><ele>820.5</ele><time>2011-11-30T09:56:17Z</time></trkpt><trkpt lat="42.587697" lon="-2.591853"><ele>820.0</ele><time>2011-11-30T09:56:18Z</time></trkpt><trkpt lat="42.587708" lon="-2.591853"><ele>819.0</ele><time>2011-11-30T09:56:19Z</time></trkpt><trkpt lat="42.587717" lon="-2.591855"><ele>818.5</ele><time>2011-11-30T09:56:20Z</time></trkpt><trkpt lat="42.587723" lon="-2.591862"><ele>819.5</ele><time>2011-11-30T09:56:21Z</time></trkpt><trkpt lat="42.587730" lon="-2.591865"><ele>819.5</ele><time>2011-11-30T09:56:22Z</time></trkpt><trkpt lat="42.587737" lon="-2.591872"><ele>820.0</ele><time>2011-11-30T09:56:23Z</time></trkpt><trkpt lat="42.587745" lon="-2.591880"><ele>820.0</ele><time>2011-11-30T09:56:24Z</time></trkpt><trkpt lat="42.587750" lon="-2.591890"><ele>821.0</ele><time>2011-11-30T09:56:25Z</time></trkpt><trkpt lat="42.587755" lon="-2.591893"><ele>821.5</ele><time>2011-11-30T09:56:26Z</time></trkpt><trkpt lat="42.587760" lon="-2.591907"><ele>822.5</ele><time>2011-11-30T09:56:27Z</time></trkpt><trkpt lat="42.587768" lon="-2.591917"><ele>823.0</ele><time>2011-11-30T09:56:28Z</time></trkpt><trkpt lat="42.587772" lon="-2.591927"><ele>823.5</ele><time>2011-11-30T09:56:29Z</time></trkpt><trkpt lat="42.587777" lon="-2.591938"><ele>824.0</ele><time>2011-11-30T09:56:30Z</time></trkpt><trkpt lat="42.587780" lon="-2.591952"><ele>824.5</ele><time>2011-11-30T09:56:31Z</time></trkpt><trkpt lat="42.587782" lon="-2.591967"><ele>825.0</ele><time>2011-11-30T09:56:32Z</time></trkpt><trkpt lat="42.587788" lon="-2.591977"><ele>825.0</ele><time>2011-11-30T09:56:33Z</time></trkpt><trkpt lat="42.587792" lon="-2.591992"><ele>825.0</ele><time>2011-11-30T09:56:34Z</time></trkpt><trkpt lat="42.587793" lon="-2.592003"><ele>825.0</ele><time>2011-11-30T09:56:35Z</time></trkpt><trkpt lat="42.587793" lon="-2.592012"><ele>825.5</ele><time>2011-11-30T09:56:36Z</time></trkpt><trkpt lat="42.587793" lon="-2.592010"><ele>824.5</ele><time>2011-11-30T09:56:37Z</time></trkpt><trkpt lat="42.587795" lon="-2.592028"><ele>827.0</ele><time>2011-11-30T09:56:38Z</time></trkpt><trkpt lat="42.587807" lon="-2.592003"><ele>825.5</ele><time>2011-11-30T09:56:39Z</time></trkpt><trkpt lat="42.587802" lon="-2.591995"><ele>824.0</ele><time>2011-11-30T09:56:40Z</time></trkpt><trkpt lat="42.587787" lon="-2.592050"><ele>837.0</ele><time>2011-11-30T09:56:41Z</time></trkpt><trkpt lat="42.587815" lon="-2.592045"><ele>837.0</ele><time>2011-11-30T09:56:42Z</time></trkpt><trkpt lat="42.587830" lon="-2.592053"><ele>839.5</ele><time>2011-11-30T09:56:44Z</time></trkpt><trkpt lat="42.587840" lon="-2.592070"><ele>839.5</ele><time>2011-11-30T09:56:45Z</time></trkpt><trkpt lat="42.587845" lon="-2.592060"><ele>840.0</ele><time>2011-11-30T09:56:46Z</time></trkpt><trkpt lat="42.587852" lon="-2.592063"><ele>841.0</ele><time>2011-11-30T09:56:47Z</time></trkpt><trkpt lat="42.587858" lon="-2.592070"><ele>841.5</ele><time>2011-11-30T09:56:48Z</time></trkpt><trkpt lat="42.587865" lon="-2.592072"><ele>842.5</ele><time>2011-11-30T09:56:49Z</time></trkpt><trkpt lat="42.587870" lon="-2.592073"><ele>843.0</ele><time>2011-11-30T09:56:50Z</time></trkpt><trkpt lat="42.587877" lon="-2.592077"><ele>843.5</ele><time>2011-11-30T09:56:51Z</time></trkpt><trkpt lat="42.587885" lon="-2.592077"><ele>843.5</ele><time>2011-11-30T09:56:52Z</time></trkpt><trkpt lat="42.587890" lon="-2.592078"><ele>843.0</ele><time>2011-11-30T09:56:53Z</time></trkpt><trkpt lat="42.587898" lon="-2.592082"><ele>842.5</ele><time>2011-11-30T09:56:54Z</time></trkpt><trkpt lat="42.587905" lon="-2.592093"><ele>844.0</ele><time>2011-11-30T09:56:55Z</time></trkpt><trkpt lat="42.587913" lon="-2.592098"><ele>844.0</ele><time>2011-11-30T09:56:56Z</time></trkpt><trkpt lat="42.587918" lon="-2.592102"><ele>844.0</ele><time>2011-11-30T09:56:57Z</time></trkpt><trkpt lat="42.587927" lon="-2.592107"><ele>844.0</ele><time>2011-11-30T09:56:58Z</time></trkpt><trkpt lat="42.587933" lon="-2.592113"><ele>844.5</ele><time>2011-11-30T09:56:59Z</time></trkpt><trkpt lat="42.587945" lon="-2.592127"><ele>844.0</ele><time>2011-11-30T09:57:00Z</time></trkpt><trkpt lat="42.587955" lon="-2.592125"><ele>843.0</ele><time>2011-11-30T09:57:01Z</time></trkpt><trkpt lat="42.587962" lon="-2.592135"><ele>842.5</ele><time>2011-11-30T09:57:02Z</time></trkpt><trkpt lat="42.587968" lon="-2.592128"><ele>842.5</ele><time>2011-11-30T09:57:03Z</time></trkpt><trkpt lat="42.587975" lon="-2.592132"><ele>842.5</ele><time>2011-11-30T09:57:04Z</time></trkpt><trkpt lat="42.587978" lon="-2.592137"><ele>843.0</ele><time>2011-11-30T09:57:05Z</time></trkpt><trkpt lat="42.587987" lon="-2.592143"><ele>843.0</ele><time>2011-11-30T09:57:06Z</time></trkpt><trkpt lat="42.587997" lon="-2.592150"><ele>843.5</ele><time>2011-11-30T09:57:07Z</time></trkpt><trkpt lat="42.588003" lon="-2.592155"><ele>844.0</ele><time>2011-11-30T09:57:08Z</time></trkpt><trkpt lat="42.588010" lon="-2.592158"><ele>844.0</ele><time>2011-11-30T09:57:09Z</time></trkpt><trkpt lat="42.588018" lon="-2.592163"><ele>844.0</ele><time>2011-11-30T09:57:10Z</time></trkpt><trkpt lat="42.588025" lon="-2.592167"><ele>843.5</ele><time>2011-11-30T09:57:11Z</time></trkpt><trkpt lat="42.588035" lon="-2.592167"><ele>842.5</ele><time>2011-11-30T09:57:12Z</time></trkpt><trkpt lat="42.588042" lon="-2.592170"><ele>841.5</ele><time>2011-11-30T09:57:13Z</time></trkpt><trkpt lat="42.588050" lon="-2.592173"><ele>840.5</ele><time>2011-11-30T09:57:14Z</time></trkpt><trkpt lat="42.588055" lon="-2.592182"><ele>840.5</ele><time>2011-11-30T09:57:15Z</time></trkpt><trkpt lat="42.588063" lon="-2.592175"><ele>840.0</ele><time>2011-11-30T09:57:16Z</time></trkpt><trkpt lat="42.588078" lon="-2.592203"><ele>840.5</ele><time>2011-11-30T09:57:17Z</time></trkpt><trkpt lat="42.588080" lon="-2.592213"><ele>840.5</ele><time>2011-11-30T09:57:18Z</time></trkpt><trkpt lat="42.588083" lon="-2.592242"><ele>840.5</ele><time>2011-11-30T09:57:19Z</time></trkpt><trkpt lat="42.588088" lon="-2.592260"><ele>842.0</ele><time>2011-11-30T09:57:20Z</time></trkpt><trkpt lat="42.588095" lon="-2.592272"><ele>842.5</ele><time>2011-11-30T09:57:21Z</time></trkpt><trkpt lat="42.588102" lon="-2.592278"><ele>843.0</ele><time>2011-11-30T09:57:22Z</time></trkpt><trkpt lat="42.588107" lon="-2.592292"><ele>843.5</ele><time>2011-11-30T09:57:23Z</time></trkpt><trkpt lat="42.588115" lon="-2.592298"><ele>843.0</ele><time>2011-11-30T09:57:24Z</time></trkpt><trkpt lat="42.588125" lon="-2.592308"><ele>843.5</ele><time>2011-11-30T09:57:25Z</time></trkpt><trkpt lat="42.588127" lon="-2.592323"><ele>844.5</ele><time>2011-11-30T09:57:26Z</time></trkpt><trkpt lat="42.588128" lon="-2.592343"><ele>846.5</ele><time>2011-11-30T09:57:27Z</time></trkpt><trkpt lat="42.588132" lon="-2.592360"><ele>848.0</ele><time>2011-11-30T09:57:28Z</time></trkpt><trkpt lat="42.588137" lon="-2.592370"><ele>848.5</ele><time>2011-11-30T09:57:29Z</time></trkpt><trkpt lat="42.588143" lon="-2.592375"><ele>848.5</ele><time>2011-11-30T09:57:30Z</time></trkpt><trkpt lat="42.588152" lon="-2.592380"><ele>849.0</ele><time>2011-11-30T09:57:31Z</time></trkpt><trkpt lat="42.588162" lon="-2.592378"><ele>849.0</ele><time>2011-11-30T09:57:32Z</time></trkpt><trkpt lat="42.588170" lon="-2.592377"><ele>848.5</ele><time>2011-11-30T09:57:33Z</time></trkpt><trkpt lat="42.588177" lon="-2.592378"><ele>849.0</ele><time>2011-11-30T09:57:34Z</time></trkpt><trkpt lat="42.588185" lon="-2.592382"><ele>849.0</ele><time>2011-11-30T09:57:35Z</time></trkpt><trkpt lat="42.588193" lon="-2.592385"><ele>849.0</ele><time>2011-11-30T09:57:36Z</time></trkpt><trkpt lat="42.588200" lon="-2.592388"><ele>849.0</ele><time>2011-11-30T09:57:37Z</time></trkpt><trkpt lat="42.588210" lon="-2.592392"><ele>849.0</ele><time>2011-11-30T09:57:38Z</time></trkpt><trkpt lat="42.588223" lon="-2.592392"><ele>848.5</ele><time>2011-11-30T09:57:39Z</time></trkpt><trkpt lat="42.588232" lon="-2.592390"><ele>849.0</ele><time>2011-11-30T09:57:40Z</time></trkpt><trkpt lat="42.588240" lon="-2.592383"><ele>848.5</ele><time>2011-11-30T09:57:41Z</time></trkpt><trkpt lat="42.588255" lon="-2.592367"><ele>847.0</ele><time>2011-11-30T09:57:42Z</time></trkpt><trkpt lat="42.588265" lon="-2.592365"><ele>847.5</ele><time>2011-11-30T09:57:43Z</time></trkpt><trkpt lat="42.588275" lon="-2.592362"><ele>847.5</ele><time>2011-11-30T09:57:44Z</time></trkpt><trkpt lat="42.588283" lon="-2.592357"><ele>847.0</ele><time>2011-11-30T09:57:45Z</time></trkpt><trkpt lat="42.588293" lon="-2.592352"><ele>847.5</ele><time>2011-11-30T09:57:46Z</time></trkpt><trkpt lat="42.588300" lon="-2.592343"><ele>847.5</ele><time>2011-11-30T09:57:47Z</time></trkpt><trkpt lat="42.588307" lon="-2.592338"><ele>847.5</ele><time>2011-11-30T09:57:48Z</time></trkpt><trkpt lat="42.588317" lon="-2.592333"><ele>847.5</ele><time>2011-11-30T09:57:49Z</time></trkpt><trkpt lat="42.588325" lon="-2.592328"><ele>847.5</ele><time>2011-11-30T09:57:50Z</time></trkpt><trkpt lat="42.588340" lon="-2.592322"><ele>848.0</ele><time>2011-11-30T09:57:51Z</time></trkpt><trkpt lat="42.588348" lon="-2.592313"><ele>848.0</ele><time>2011-11-30T09:57:52Z</time></trkpt><trkpt lat="42.588360" lon="-2.592305"><ele>847.5</ele><time>2011-11-30T09:57:53Z</time></trkpt><trkpt lat="42.588375" lon="-2.592297"><ele>847.5</ele><time>2011-11-30T09:57:54Z</time></trkpt><trkpt lat="42.588382" lon="-2.592292"><ele>847.5</ele><time>2011-11-30T09:57:55Z</time></trkpt><trkpt lat="42.588395" lon="-2.592285"><ele>847.0</ele><time>2011-11-30T09:57:56Z</time></trkpt><trkpt lat="42.588400" lon="-2.592280"><ele>846.5</ele><time>2011-11-30T09:57:57Z</time></trkpt><trkpt lat="42.588403" lon="-2.592273"><ele>847.0</ele><time>2011-11-30T09:57:58Z</time></trkpt><trkpt lat="42.588415" lon="-2.592267"><ele>847.0</ele><time>2011-11-30T09:57:59Z</time></trkpt><trkpt lat="42.588425" lon="-2.592262"><ele>847.0</ele><time>2011-11-30T09:58:00Z</time></trkpt><trkpt lat="42.588437" lon="-2.592255"><ele>847.5</ele><time>2011-11-30T09:58:01Z</time></trkpt><trkpt lat="42.588445" lon="-2.592245"><ele>847.5</ele><time>2011-11-30T09:58:02Z</time></trkpt><trkpt lat="42.588455" lon="-2.592235"><ele>848.0</ele><time>2011-11-30T09:58:03Z</time></trkpt><trkpt lat="42.588463" lon="-2.592227"><ele>847.5</ele><time>2011-11-30T09:58:04Z</time></trkpt><trkpt lat="42.588467" lon="-2.592213"><ele>847.0</ele><time>2011-11-30T09:58:05Z</time></trkpt><trkpt lat="42.588473" lon="-2.592202"><ele>847.0</ele><time>2011-11-30T09:58:06Z</time></trkpt><trkpt lat="42.588483" lon="-2.592195"><ele>847.0</ele><time>2011-11-30T09:58:07Z</time></trkpt><trkpt lat="42.588493" lon="-2.592185"><ele>847.0</ele><time>2011-11-30T09:58:08Z</time></trkpt><trkpt lat="42.588500" lon="-2.592177"><ele>847.0</ele><time>2011-11-30T09:58:09Z</time></trkpt><trkpt lat="42.588508" lon="-2.592170"><ele>847.0</ele><time>2011-11-30T09:58:10Z</time></trkpt><trkpt lat="42.588515" lon="-2.592162"><ele>846.5</ele><time>2011-11-30T09:58:11Z</time></trkpt><trkpt lat="42.588522" lon="-2.592147"><ele>847.0</ele><time>2011-11-30T09:58:12Z</time></trkpt><trkpt lat="42.588527" lon="-2.592137"><ele>847.0</ele><time>2011-11-30T09:58:13Z</time></trkpt><trkpt lat="42.588528" lon="-2.592125"><ele>847.5</ele><time>2011-11-30T09:58:14Z</time></trkpt><trkpt lat="42.588530" lon="-2.592113"><ele>847.0</ele><time>2011-11-30T09:58:15Z</time></trkpt><trkpt lat="42.588532" lon="-2.592102"><ele>847.5</ele><time>2011-11-30T09:58:16Z</time></trkpt><trkpt lat="42.588533" lon="-2.592090"><ele>847.5</ele><time>2011-11-30T09:58:17Z</time></trkpt><trkpt lat="42.588537" lon="-2.592080"><ele>847.0</ele><time>2011-11-30T09:58:18Z</time></trkpt><trkpt lat="42.588543" lon="-2.592067"><ele>847.5</ele><time>2011-11-30T09:58:19Z</time></trkpt><trkpt lat="42.588550" lon="-2.592058"><ele>847.5</ele><time>2011-11-30T09:58:20Z</time></trkpt><trkpt lat="42.588552" lon="-2.592047"><ele>847.0</ele><time>2011-11-30T09:58:21Z</time></trkpt><trkpt lat="42.588555" lon="-2.592033"><ele>847.0</ele><time>2011-11-30T09:58:22Z</time></trkpt><trkpt lat="42.588543" lon="-2.592023"><ele>847.0</ele><time>2011-11-30T09:58:23Z</time></trkpt><trkpt lat="42.588542" lon="-2.592013"><ele>846.5</ele><time>2011-11-30T09:58:24Z</time></trkpt><trkpt lat="42.588545" lon="-2.592002"><ele>847.0</ele><time>2011-11-30T09:58:25Z</time></trkpt><trkpt lat="42.588548" lon="-2.591988"><ele>847.0</ele><time>2011-11-30T09:58:26Z</time></trkpt><trkpt lat="42.588553" lon="-2.591977"><ele>847.0</ele><time>2011-11-30T09:58:27Z</time></trkpt><trkpt lat="42.588557" lon="-2.591965"><ele>847.5</ele><time>2011-11-30T09:58:28Z</time></trkpt><trkpt lat="42.588562" lon="-2.591953"><ele>847.5</ele><time>2011-11-30T09:58:29Z</time></trkpt><trkpt lat="42.588565" lon="-2.591940"><ele>847.5</ele><time>2011-11-30T09:58:30Z</time></trkpt><trkpt lat="42.588563" lon="-2.591928"><ele>847.0</ele><time>2011-11-30T09:58:31Z</time></trkpt><trkpt lat="42.588567" lon="-2.591917"><ele>847.5</ele><time>2011-11-30T09:58:32Z</time></trkpt><trkpt lat="42.588570" lon="-2.591903"><ele>847.0</ele><time>2011-11-30T09:58:33Z</time></trkpt><trkpt lat="42.588578" lon="-2.591892"><ele>847.5</ele><time>2011-11-30T09:58:34Z</time></trkpt><trkpt lat="42.588583" lon="-2.591880"><ele>847.5</ele><time>2011-11-30T09:58:35Z</time></trkpt><trkpt lat="42.588592" lon="-2.591868"><ele>848.0</ele><time>2011-11-30T09:58:36Z</time></trkpt><trkpt lat="42.588600" lon="-2.591855"><ele>848.5</ele><time>2011-11-30T09:58:37Z</time></trkpt><trkpt lat="42.588603" lon="-2.591843"><ele>848.5</ele><time>2011-11-30T09:58:38Z</time></trkpt><trkpt lat="42.588608" lon="-2.591835"><ele>848.5</ele><time>2011-11-30T09:58:39Z</time></trkpt><trkpt lat="42.588617" lon="-2.591823"><ele>848.5</ele><time>2011-11-30T09:58:40Z</time></trkpt><trkpt lat="42.588623" lon="-2.591810"><ele>849.0</ele><time>2011-11-30T09:58:41Z</time></trkpt><trkpt lat="42.588630" lon="-2.591800"><ele>849.5</ele><time>2011-11-30T09:58:42Z</time></trkpt><trkpt lat="42.588638" lon="-2.591790"><ele>849.5</ele><time>2011-11-30T09:58:43Z</time></trkpt><trkpt lat="42.588648" lon="-2.591783"><ele>849.0</ele><time>2011-11-30T09:58:44Z</time></trkpt><trkpt lat="42.588657" lon="-2.591777"><ele>849.5</ele><time>2011-11-30T09:58:45Z</time></trkpt><trkpt lat="42.588662" lon="-2.591770"><ele>849.5</ele><time>2011-11-30T09:58:46Z</time></trkpt><trkpt lat="42.588670" lon="-2.591758"><ele>850.0</ele><time>2011-11-30T09:58:47Z</time></trkpt><trkpt lat="42.588677" lon="-2.591748"><ele>850.0</ele><time>2011-11-30T09:58:48Z</time></trkpt><trkpt lat="42.588687" lon="-2.591742"><ele>850.0</ele><time>2011-11-30T09:58:49Z</time></trkpt><trkpt lat="42.588692" lon="-2.591732"><ele>850.5</ele><time>2011-11-30T09:58:50Z</time></trkpt><trkpt lat="42.588700" lon="-2.591723"><ele>850.5</ele><time>2011-11-30T09:58:51Z</time></trkpt><trkpt lat="42.588707" lon="-2.591715"><ele>850.5</ele><time>2011-11-30T09:58:52Z</time></trkpt><trkpt lat="42.588710" lon="-2.591708"><ele>850.5</ele><time>2011-11-30T09:58:53Z</time></trkpt><trkpt lat="42.588720" lon="-2.591703"><ele>851.0</ele><time>2011-11-30T09:58:54Z</time></trkpt><trkpt lat="42.588727" lon="-2.591698"><ele>851.0</ele><time>2011-11-30T09:58:55Z</time></trkpt><trkpt lat="42.588737" lon="-2.591697"><ele>852.0</ele><time>2011-11-30T09:58:56Z</time></trkpt><trkpt lat="42.588745" lon="-2.591693"><ele>852.0</ele><time>2011-11-30T09:58:57Z</time></trkpt><trkpt lat="42.588753" lon="-2.591690"><ele>852.0</ele><time>2011-11-30T09:58:58Z</time></trkpt><trkpt lat="42.588762" lon="-2.591683"><ele>852.5</ele><time>2011-11-30T09:58:59Z</time></trkpt><trkpt lat="42.588768" lon="-2.591682"><ele>852.5</ele><time>2011-11-30T09:59:00Z</time></trkpt><trkpt lat="42.588775" lon="-2.591685"><ele>854.5</ele><time>2011-11-30T09:59:01Z</time></trkpt><trkpt lat="42.588783" lon="-2.591683"><ele>854.0</ele><time>2011-11-30T09:59:02Z</time></trkpt><trkpt lat="42.588793" lon="-2.591682"><ele>854.5</ele><time>2011-11-30T09:59:03Z</time></trkpt><trkpt lat="42.588805" lon="-2.591677"><ele>853.5</ele><time>2011-11-30T09:59:04Z</time></trkpt><trkpt lat="42.588820" lon="-2.591677"><ele>855.0</ele><time>2011-11-30T09:59:05Z</time></trkpt><trkpt lat="42.588828" lon="-2.591675"><ele>855.5</ele><time>2011-11-30T09:59:06Z</time></trkpt><trkpt lat="42.588837" lon="-2.591677"><ele>856.0</ele><time>2011-11-30T09:59:07Z</time></trkpt><trkpt lat="42.588845" lon="-2.591678"><ele>856.5</ele><time>2011-11-30T09:59:08Z</time></trkpt><trkpt lat="42.588858" lon="-2.591678"><ele>856.0</ele><time>2011-11-30T09:59:09Z</time></trkpt><trkpt lat="42.588872" lon="-2.591680"><ele>857.0</ele><time>2011-11-30T09:59:10Z</time></trkpt><trkpt lat="42.588877" lon="-2.591698"><ele>857.0</ele><time>2011-11-30T09:59:11Z</time></trkpt><trkpt lat="42.588885" lon="-2.591700"><ele>857.5</ele><time>2011-11-30T09:59:12Z</time></trkpt><trkpt lat="42.588895" lon="-2.591698"><ele>857.5</ele><time>2011-11-30T09:59:13Z</time></trkpt><trkpt lat="42.588907" lon="-2.591697"><ele>857.5</ele><time>2011-11-30T09:59:14Z</time></trkpt><trkpt lat="42.588917" lon="-2.591693"><ele>857.0</ele><time>2011-11-30T09:59:15Z</time></trkpt><trkpt lat="42.588927" lon="-2.591695"><ele>856.5</ele><time>2011-11-30T09:59:16Z</time></trkpt><trkpt lat="42.588933" lon="-2.591700"><ele>857.5</ele><time>2011-11-30T09:59:17Z</time></trkpt><trkpt lat="42.588945" lon="-2.591702"><ele>857.5</ele><time>2011-11-30T09:59:18Z</time></trkpt><trkpt lat="42.588957" lon="-2.591700"><ele>857.0</ele><time>2011-11-30T09:59:19Z</time></trkpt><trkpt lat="42.588963" lon="-2.591703"><ele>857.5</ele><time>2011-11-30T09:59:20Z</time></trkpt><trkpt lat="42.588973" lon="-2.591712"><ele>858.0</ele><time>2011-11-30T09:59:21Z</time></trkpt><trkpt lat="42.588982" lon="-2.591717"><ele>859.5</ele><time>2011-11-30T09:59:22Z</time></trkpt><trkpt lat="42.588987" lon="-2.591722"><ele>860.5</ele><time>2011-11-30T09:59:23Z</time></trkpt><trkpt lat="42.588995" lon="-2.591725"><ele>860.5</ele><time>2011-11-30T09:59:24Z</time></trkpt><trkpt lat="42.589005" lon="-2.591727"><ele>860.0</ele><time>2011-11-30T09:59:25Z</time></trkpt><trkpt lat="42.589012" lon="-2.591735"><ele>860.5</ele><time>2011-11-30T09:59:26Z</time></trkpt><trkpt lat="42.589020" lon="-2.591737"><ele>860.5</ele><time>2011-11-30T09:59:27Z</time></trkpt><trkpt lat="42.589033" lon="-2.591740"><ele>860.5</ele><time>2011-11-30T09:59:28Z</time></trkpt><trkpt lat="42.589042" lon="-2.591748"><ele>861.0</ele><time>2011-11-30T09:59:29Z</time></trkpt><trkpt lat="42.589047" lon="-2.591757"><ele>862.0</ele><time>2011-11-30T09:59:30Z</time></trkpt><trkpt lat="42.589053" lon="-2.591763"><ele>863.0</ele><time>2011-11-30T09:59:31Z</time></trkpt><trkpt lat="42.589063" lon="-2.591772"><ele>863.5</ele><time>2011-11-30T09:59:32Z</time></trkpt><trkpt lat="42.589070" lon="-2.591777"><ele>864.5</ele><time>2011-11-30T09:59:33Z</time></trkpt><trkpt lat="42.589078" lon="-2.591778"><ele>864.5</ele><time>2011-11-30T09:59:34Z</time></trkpt><trkpt lat="42.589085" lon="-2.591788"><ele>865.0</ele><time>2011-11-30T09:59:35Z</time></trkpt><trkpt lat="42.589095" lon="-2.591795"><ele>865.0</ele><time>2011-11-30T09:59:36Z</time></trkpt><trkpt lat="42.589105" lon="-2.591802"><ele>866.0</ele><time>2011-11-30T09:59:37Z</time></trkpt><trkpt lat="42.589115" lon="-2.591803"><ele>866.0</ele><time>2011-11-30T09:59:38Z</time></trkpt><trkpt lat="42.589125" lon="-2.591810"><ele>865.5</ele><time>2011-11-30T09:59:39Z</time></trkpt><trkpt lat="42.589132" lon="-2.591822"><ele>866.5</ele><time>2011-11-30T09:59:40Z</time></trkpt><trkpt lat="42.589138" lon="-2.591832"><ele>867.5</ele><time>2011-11-30T09:59:41Z</time></trkpt><trkpt lat="42.589147" lon="-2.591835"><ele>867.0</ele><time>2011-11-30T09:59:42Z</time></trkpt><trkpt lat="42.589152" lon="-2.591848"><ele>868.0</ele><time>2011-11-30T09:59:43Z</time></trkpt><trkpt lat="42.589160" lon="-2.591857"><ele>868.5</ele><time>2011-11-30T09:59:44Z</time></trkpt><trkpt lat="42.589170" lon="-2.591865"><ele>868.0</ele><time>2011-11-30T09:59:45Z</time></trkpt><trkpt lat="42.589182" lon="-2.591870"><ele>867.5</ele><time>2011-11-30T09:59:46Z</time></trkpt><trkpt lat="42.589188" lon="-2.591878"><ele>867.5</ele><time>2011-11-30T09:59:47Z</time></trkpt><trkpt lat="42.589197" lon="-2.591890"><ele>867.5</ele><time>2011-11-30T09:59:48Z</time></trkpt><trkpt lat="42.589203" lon="-2.591900"><ele>868.0</ele><time>2011-11-30T09:59:49Z</time></trkpt><trkpt lat="42.589213" lon="-2.591905"><ele>868.0</ele><time>2011-11-30T09:59:50Z</time></trkpt><trkpt lat="42.589218" lon="-2.591915"><ele>868.0</ele><time>2011-11-30T09:59:51Z</time></trkpt><trkpt lat="42.589227" lon="-2.591927"><ele>868.5</ele><time>2011-11-30T09:59:52Z</time></trkpt><trkpt lat="42.589233" lon="-2.591938"><ele>868.5</ele><time>2011-11-30T09:59:53Z</time></trkpt><trkpt lat="42.589242" lon="-2.591948"><ele>868.5</ele><time>2011-11-30T09:59:54Z</time></trkpt><trkpt lat="42.589250" lon="-2.591957"><ele>868.0</ele><time>2011-11-30T09:59:55Z</time></trkpt><trkpt lat="42.589257" lon="-2.591973"><ele>868.5</ele><time>2011-11-30T09:59:56Z</time></trkpt><trkpt lat="42.589267" lon="-2.591985"><ele>868.0</ele><time>2011-11-30T09:59:57Z</time></trkpt><trkpt lat="42.589273" lon="-2.591990"><ele>868.0</ele><time>2011-11-30T09:59:58Z</time></trkpt><trkpt lat="42.589280" lon="-2.592002"><ele>868.5</ele><time>2011-11-30T09:59:59Z</time></trkpt><trkpt lat="42.589287" lon="-2.592025"><ele>868.5</ele><time>2011-11-30T10:00:00Z</time></trkpt><trkpt lat="42.589297" lon="-2.592030"><ele>868.5</ele><time>2011-11-30T10:00:01Z</time></trkpt><trkpt lat="42.589307" lon="-2.592038"><ele>868.0</ele><time>2011-11-30T10:00:02Z</time></trkpt><trkpt lat="42.589318" lon="-2.592042"><ele>867.5</ele><time>2011-11-30T10:00:03Z</time></trkpt><trkpt lat="42.589325" lon="-2.592053"><ele>867.5</ele><time>2011-11-30T10:00:04Z</time></trkpt><trkpt lat="42.589333" lon="-2.592067"><ele>867.5</ele><time>2011-11-30T10:00:05Z</time></trkpt><trkpt lat="42.589337" lon="-2.592083"><ele>869.0</ele><time>2011-11-30T10:00:06Z</time></trkpt><trkpt lat="42.589340" lon="-2.592102"><ele>870.5</ele><time>2011-11-30T10:00:07Z</time></trkpt><trkpt lat="42.589347" lon="-2.592117"><ele>871.0</ele><time>2011-11-30T10:00:08Z</time></trkpt><trkpt lat="42.589353" lon="-2.592133"><ele>871.5</ele><time>2011-11-30T10:00:09Z</time></trkpt><trkpt lat="42.589362" lon="-2.592147"><ele>871.5</ele><time>2011-11-30T10:00:10Z</time></trkpt><trkpt lat="42.589370" lon="-2.592163"><ele>871.5</ele><time>2011-11-30T10:00:11Z</time></trkpt><trkpt lat="42.589383" lon="-2.592170"><ele>870.5</ele><time>2011-11-30T10:00:12Z</time></trkpt><trkpt lat="42.589390" lon="-2.592178"><ele>870.5</ele><time>2011-11-30T10:00:13Z</time></trkpt><trkpt lat="42.589395" lon="-2.592190"><ele>872.0</ele><time>2011-11-30T10:00:14Z</time></trkpt><trkpt lat="42.589403" lon="-2.592203"><ele>873.0</ele><time>2011-11-30T10:00:15Z</time></trkpt><trkpt lat="42.589413" lon="-2.592210"><ele>873.5</ele><time>2011-11-30T10:00:16Z</time></trkpt><trkpt lat="42.589423" lon="-2.592212"><ele>874.0</ele><time>2011-11-30T10:00:17Z</time></trkpt><trkpt lat="42.589428" lon="-2.592220"><ele>874.5</ele><time>2011-11-30T10:00:18Z</time></trkpt><trkpt lat="42.589438" lon="-2.592227"><ele>874.0</ele><time>2011-11-30T10:00:19Z</time></trkpt><trkpt lat="42.589450" lon="-2.592233"><ele>873.5</ele><time>2011-11-30T10:00:20Z</time></trkpt><trkpt lat="42.589462" lon="-2.592238"><ele>874.0</ele><time>2011-11-30T10:00:21Z</time></trkpt><trkpt lat="42.589475" lon="-2.592250"><ele>873.0</ele><time>2011-11-30T10:00:22Z</time></trkpt><trkpt lat="42.589485" lon="-2.592252"><ele>873.5</ele><time>2011-11-30T10:00:23Z</time></trkpt><trkpt lat="42.589492" lon="-2.592255"><ele>874.0</ele><time>2011-11-30T10:00:24Z</time></trkpt><trkpt lat="42.589502" lon="-2.592252"><ele>874.5</ele><time>2011-11-30T10:00:25Z</time></trkpt><trkpt lat="42.589512" lon="-2.592245"><ele>874.0</ele><time>2011-11-30T10:00:26Z</time></trkpt><trkpt lat="42.589507" lon="-2.592247"><ele>876.0</ele><time>2011-11-30T10:00:27Z</time></trkpt><trkpt lat="42.589513" lon="-2.592247"><ele>876.5</ele><time>2011-11-30T10:00:28Z</time></trkpt><trkpt lat="42.589517" lon="-2.592240"><ele>877.0</ele><time>2011-11-30T10:00:29Z</time></trkpt><trkpt lat="42.589525" lon="-2.592230"><ele>877.5</ele><time>2011-11-30T10:00:30Z</time></trkpt><trkpt lat="42.589530" lon="-2.592222"><ele>878.0</ele><time>2011-11-30T10:00:31Z</time></trkpt><trkpt lat="42.589535" lon="-2.592208"><ele>878.0</ele><time>2011-11-30T10:00:32Z</time></trkpt><trkpt lat="42.589542" lon="-2.592193"><ele>878.0</ele><time>2011-11-30T10:00:33Z</time></trkpt><trkpt lat="42.589547" lon="-2.592178"><ele>878.0</ele><time>2011-11-30T10:00:34Z</time></trkpt><trkpt lat="42.589555" lon="-2.592163"><ele>877.5</ele><time>2011-11-30T10:00:35Z</time></trkpt><trkpt lat="42.589562" lon="-2.592152"><ele>877.5</ele><time>2011-11-30T10:00:36Z</time></trkpt><trkpt lat="42.589568" lon="-2.592137"><ele>877.5</ele><time>2011-11-30T10:00:37Z</time></trkpt><trkpt lat="42.589573" lon="-2.592123"><ele>878.0</ele><time>2011-11-30T10:00:38Z</time></trkpt><trkpt lat="42.589577" lon="-2.592108"><ele>878.0</ele><time>2011-11-30T10:00:39Z</time></trkpt><trkpt lat="42.589580" lon="-2.592097"><ele>878.0</ele><time>2011-11-30T10:00:40Z</time></trkpt><trkpt lat="42.589588" lon="-2.592083"><ele>878.0</ele><time>2011-11-30T10:00:41Z</time></trkpt><trkpt lat="42.589595" lon="-2.592073"><ele>878.0</ele><time>2011-11-30T10:00:42Z</time></trkpt><trkpt lat="42.589610" lon="-2.592047"><ele>878.0</ele><time>2011-11-30T10:00:43Z</time></trkpt><trkpt lat="42.589612" lon="-2.592030"><ele>878.0</ele><time>2011-11-30T10:00:44Z</time></trkpt><trkpt lat="42.589617" lon="-2.592015"><ele>878.0</ele><time>2011-11-30T10:00:45Z</time></trkpt><trkpt lat="42.589623" lon="-2.592002"><ele>878.0</ele><time>2011-11-30T10:00:46Z</time></trkpt><trkpt lat="42.589628" lon="-2.591988"><ele>878.5</ele><time>2011-11-30T10:00:47Z</time></trkpt><trkpt lat="42.589633" lon="-2.591973"><ele>878.0</ele><time>2011-11-30T10:00:48Z</time></trkpt><trkpt lat="42.589642" lon="-2.591958"><ele>878.0</ele><time>2011-11-30T10:00:49Z</time></trkpt><trkpt lat="42.589648" lon="-2.591942"><ele>878.0</ele><time>2011-11-30T10:00:50Z</time></trkpt><trkpt lat="42.589652" lon="-2.591925"><ele>878.5</ele><time>2011-11-30T10:00:51Z</time></trkpt><trkpt lat="42.589655" lon="-2.591908"><ele>878.5</ele><time>2011-11-30T10:00:52Z</time></trkpt><trkpt lat="42.589658" lon="-2.591892"><ele>878.0</ele><time>2011-11-30T10:00:53Z</time></trkpt><trkpt lat="42.589658" lon="-2.591875"><ele>878.0</ele><time>2011-11-30T10:00:54Z</time></trkpt><trkpt lat="42.589663" lon="-2.591860"><ele>878.0</ele><time>2011-11-30T10:00:55Z</time></trkpt><trkpt lat="42.589675" lon="-2.591837"><ele>878.0</ele><time>2011-11-30T10:00:56Z</time></trkpt><trkpt lat="42.589673" lon="-2.591818"><ele>878.0</ele><time>2011-11-30T10:00:57Z</time></trkpt><trkpt lat="42.589675" lon="-2.591802"><ele>877.5</ele><time>2011-11-30T10:00:58Z</time></trkpt><trkpt lat="42.589680" lon="-2.591785"><ele>878.0</ele><time>2011-11-30T10:00:59Z</time></trkpt><trkpt lat="42.589687" lon="-2.591772"><ele>877.5</ele><time>2011-11-30T10:01:00Z</time></trkpt><trkpt lat="42.589690" lon="-2.591757"><ele>877.5</ele><time>2011-11-30T10:01:01Z</time></trkpt><trkpt lat="42.589700" lon="-2.591728"><ele>877.0</ele><time>2011-11-30T10:01:03Z</time></trkpt><trkpt lat="42.589707" lon="-2.591717"><ele>877.5</ele><time>2011-11-30T10:01:04Z</time></trkpt><trkpt lat="42.589712" lon="-2.591707"><ele>877.0</ele><time>2011-11-30T10:01:05Z</time></trkpt><trkpt lat="42.589718" lon="-2.591695"><ele>877.0</ele><time>2011-11-30T10:01:06Z</time></trkpt><trkpt lat="42.589728" lon="-2.591685"><ele>877.5</ele><time>2011-11-30T10:01:07Z</time></trkpt><trkpt lat="42.589738" lon="-2.591675"><ele>877.5</ele><time>2011-11-30T10:01:08Z</time></trkpt><trkpt lat="42.589748" lon="-2.591665"><ele>877.5</ele><time>2011-11-30T10:01:09Z</time></trkpt><trkpt lat="42.589760" lon="-2.591652"><ele>877.5</ele><time>2011-11-30T10:01:10Z</time></trkpt><trkpt lat="42.589765" lon="-2.591637"><ele>877.5</ele><time>2011-11-30T10:01:11Z</time></trkpt><trkpt lat="42.589773" lon="-2.591623"><ele>877.5</ele><time>2011-11-30T10:01:12Z</time></trkpt><trkpt lat="42.589778" lon="-2.591608"><ele>877.5</ele><time>2011-11-30T10:01:13Z</time></trkpt><trkpt lat="42.589782" lon="-2.591593"><ele>877.5</ele><time>2011-11-30T10:01:14Z</time></trkpt><trkpt lat="42.589787" lon="-2.591578"><ele>877.5</ele><time>2011-11-30T10:01:15Z</time></trkpt><trkpt lat="42.589790" lon="-2.591567"><ele>878.0</ele><time>2011-11-30T10:01:16Z</time></trkpt><trkpt lat="42.589795" lon="-2.591555"><ele>878.0</ele><time>2011-11-30T10:01:17Z</time></trkpt><trkpt lat="42.589805" lon="-2.591542"><ele>879.0</ele><time>2011-11-30T10:01:18Z</time></trkpt><trkpt lat="42.589808" lon="-2.591525"><ele>879.0</ele><time>2011-11-30T10:01:19Z</time></trkpt><trkpt lat="42.589810" lon="-2.591512"><ele>879.5</ele><time>2011-11-30T10:01:20Z</time></trkpt><trkpt lat="42.589815" lon="-2.591500"><ele>879.0</ele><time>2011-11-30T10:01:21Z</time></trkpt><trkpt lat="42.589822" lon="-2.591483"><ele>879.5</ele><time>2011-11-30T10:01:22Z</time></trkpt><trkpt lat="42.589828" lon="-2.591465"><ele>880.0</ele><time>2011-11-30T10:01:23Z</time></trkpt><trkpt lat="42.589833" lon="-2.591450"><ele>880.0</ele><time>2011-11-30T10:01:24Z</time></trkpt><trkpt lat="42.589840" lon="-2.591438"><ele>880.0</ele><time>2011-11-30T10:01:25Z</time></trkpt><trkpt lat="42.589843" lon="-2.591425"><ele>879.5</ele><time>2011-11-30T10:01:26Z</time></trkpt><trkpt lat="42.589847" lon="-2.591410"><ele>880.0</ele><time>2011-11-30T10:01:27Z</time></trkpt><trkpt lat="42.589848" lon="-2.591395"><ele>879.5</ele><time>2011-11-30T10:01:28Z</time></trkpt><trkpt lat="42.589853" lon="-2.591377"><ele>880.0</ele><time>2011-11-30T10:01:29Z</time></trkpt><trkpt lat="42.589858" lon="-2.591362"><ele>880.0</ele><time>2011-11-30T10:01:30Z</time></trkpt><trkpt lat="42.589865" lon="-2.591347"><ele>880.0</ele><time>2011-11-30T10:01:31Z</time></trkpt><trkpt lat="42.589870" lon="-2.591332"><ele>880.0</ele><time>2011-11-30T10:01:32Z</time></trkpt><trkpt lat="42.589873" lon="-2.591315"><ele>880.0</ele><time>2011-11-30T10:01:33Z</time></trkpt><trkpt lat="42.589880" lon="-2.591300"><ele>880.0</ele><time>2011-11-30T10:01:34Z</time></trkpt><trkpt lat="42.589885" lon="-2.591285"><ele>880.0</ele><time>2011-11-30T10:01:35Z</time></trkpt><trkpt lat="42.589892" lon="-2.591272"><ele>880.5</ele><time>2011-11-30T10:01:36Z</time></trkpt><trkpt lat="42.589895" lon="-2.591260"><ele>880.0</ele><time>2011-11-30T10:01:37Z</time></trkpt><trkpt lat="42.589902" lon="-2.591245"><ele>880.5</ele><time>2011-11-30T10:01:38Z</time></trkpt><trkpt lat="42.589905" lon="-2.591230"><ele>880.0</ele><time>2011-11-30T10:01:39Z</time></trkpt><trkpt lat="42.589907" lon="-2.591213"><ele>880.5</ele><time>2011-11-30T10:01:40Z</time></trkpt><trkpt lat="42.589912" lon="-2.591200"><ele>880.5</ele><time>2011-11-30T10:01:41Z</time></trkpt><trkpt lat="42.589918" lon="-2.591185"><ele>880.5</ele><time>2011-11-30T10:01:42Z</time></trkpt><trkpt lat="42.589923" lon="-2.591172"><ele>880.5</ele><time>2011-11-30T10:01:43Z</time></trkpt><trkpt lat="42.589930" lon="-2.591157"><ele>880.5</ele><time>2011-11-30T10:01:44Z</time></trkpt><trkpt lat="42.589933" lon="-2.591143"><ele>880.5</ele><time>2011-11-30T10:01:45Z</time></trkpt><trkpt lat="42.589938" lon="-2.591130"><ele>880.5</ele><time>2011-11-30T10:01:46Z</time></trkpt><trkpt lat="42.589942" lon="-2.591115"><ele>880.5</ele><time>2011-11-30T10:01:47Z</time></trkpt><trkpt lat="42.589943" lon="-2.591098"><ele>880.5</ele><time>2011-11-30T10:01:48Z</time></trkpt><trkpt lat="42.589947" lon="-2.591083"><ele>880.5</ele><time>2011-11-30T10:01:49Z</time></trkpt><trkpt lat="42.589948" lon="-2.591067"><ele>881.0</ele><time>2011-11-30T10:01:50Z</time></trkpt><trkpt lat="42.589952" lon="-2.591053"><ele>881.0</ele><time>2011-11-30T10:01:51Z</time></trkpt><trkpt lat="42.589955" lon="-2.591037"><ele>881.5</ele><time>2011-11-30T10:01:52Z</time></trkpt><trkpt lat="42.589955" lon="-2.591022"><ele>881.5</ele><time>2011-11-30T10:01:53Z</time></trkpt><trkpt lat="42.589955" lon="-2.591005"><ele>881.5</ele><time>2011-11-30T10:01:54Z</time></trkpt><trkpt lat="42.589958" lon="-2.590990"><ele>881.5</ele><time>2011-11-30T10:01:55Z</time></trkpt><trkpt lat="42.589958" lon="-2.590977"><ele>882.0</ele><time>2011-11-30T10:01:56Z</time></trkpt><trkpt lat="42.589958" lon="-2.590963"><ele>882.0</ele><time>2011-11-30T10:01:57Z</time></trkpt><trkpt lat="42.589958" lon="-2.590948"><ele>882.0</ele><time>2011-11-30T10:01:58Z</time></trkpt><trkpt lat="42.589957" lon="-2.590952"><ele>883.0</ele><time>2011-11-30T10:01:59Z</time></trkpt><trkpt lat="42.589952" lon="-2.590958"><ele>883.5</ele><time>2011-11-30T10:02:00Z</time></trkpt><trkpt lat="42.589935" lon="-2.590943"><ele>885.5</ele><time>2011-11-30T10:02:01Z</time></trkpt><trkpt lat="42.589947" lon="-2.590930"><ele>885.5</ele><time>2011-11-30T10:02:02Z</time></trkpt><trkpt lat="42.589955" lon="-2.590918"><ele>885.5</ele><time>2011-11-30T10:02:03Z</time></trkpt><trkpt lat="42.589957" lon="-2.590907"><ele>886.0</ele><time>2011-11-30T10:02:04Z</time></trkpt><trkpt lat="42.589960" lon="-2.590895"><ele>886.0</ele><time>2011-11-30T10:02:05Z</time></trkpt><trkpt lat="42.589963" lon="-2.590880"><ele>886.5</ele><time>2011-11-30T10:02:06Z</time></trkpt><trkpt lat="42.589958" lon="-2.590867"><ele>886.0</ele><time>2011-11-30T10:02:07Z</time></trkpt><trkpt lat="42.589950" lon="-2.590853"><ele>886.0</ele><time>2011-11-30T10:02:08Z</time></trkpt><trkpt lat="42.589950" lon="-2.590842"><ele>886.0</ele><time>2011-11-30T10:02:09Z</time></trkpt><trkpt lat="42.589952" lon="-2.590830"><ele>886.0</ele><time>2011-11-30T10:02:10Z</time></trkpt><trkpt lat="42.589955" lon="-2.590818"><ele>886.5</ele><time>2011-11-30T10:02:11Z</time></trkpt><trkpt lat="42.589955" lon="-2.590805"><ele>886.0</ele><time>2011-11-30T10:02:12Z</time></trkpt><trkpt lat="42.589957" lon="-2.590793"><ele>886.0</ele><time>2011-11-30T10:02:13Z</time></trkpt><trkpt lat="42.589958" lon="-2.590780"><ele>886.0</ele><time>2011-11-30T10:02:14Z</time></trkpt><trkpt lat="42.589962" lon="-2.590763"><ele>886.5</ele><time>2011-11-30T10:02:15Z</time></trkpt><trkpt lat="42.589965" lon="-2.590750"><ele>887.0</ele><time>2011-11-30T10:02:16Z</time></trkpt><trkpt lat="42.589967" lon="-2.590737"><ele>887.0</ele><time>2011-11-30T10:02:17Z</time></trkpt><trkpt lat="42.589965" lon="-2.590722"><ele>887.5</ele><time>2011-11-30T10:02:18Z</time></trkpt><trkpt lat="42.589967" lon="-2.590712"><ele>887.0</ele><time>2011-11-30T10:02:19Z</time></trkpt><trkpt lat="42.589968" lon="-2.590697"><ele>887.0</ele><time>2011-11-30T10:02:20Z</time></trkpt><trkpt lat="42.589968" lon="-2.590682"><ele>887.0</ele><time>2011-11-30T10:02:21Z</time></trkpt><trkpt lat="42.589968" lon="-2.590670"><ele>887.0</ele><time>2011-11-30T10:02:22Z</time></trkpt><trkpt lat="42.589972" lon="-2.590653"><ele>887.0</ele><time>2011-11-30T10:02:23Z</time></trkpt><trkpt lat="42.589973" lon="-2.590640"><ele>887.0</ele><time>2011-11-30T10:02:24Z</time></trkpt><trkpt lat="42.589973" lon="-2.590627"><ele>886.5</ele><time>2011-11-30T10:02:25Z</time></trkpt><trkpt lat="42.589970" lon="-2.590615"><ele>886.0</ele><time>2011-11-30T10:02:26Z</time></trkpt><trkpt lat="42.589968" lon="-2.590602"><ele>886.0</ele><time>2011-11-30T10:02:27Z</time></trkpt><trkpt lat="42.589965" lon="-2.590580"><ele>886.5</ele><time>2011-11-30T10:02:28Z</time></trkpt><trkpt lat="42.589962" lon="-2.590568"><ele>886.5</ele><time>2011-11-30T10:02:29Z</time></trkpt><trkpt lat="42.589957" lon="-2.590558"><ele>886.5</ele><time>2011-11-30T10:02:30Z</time></trkpt><trkpt lat="42.589955" lon="-2.590545"><ele>886.0</ele><time>2011-11-30T10:02:31Z</time></trkpt><trkpt lat="42.589952" lon="-2.590532"><ele>886.0</ele><time>2011-11-30T10:02:32Z</time></trkpt><trkpt lat="42.589947" lon="-2.590520"><ele>886.0</ele><time>2011-11-30T10:02:33Z</time></trkpt><trkpt lat="42.589942" lon="-2.590508"><ele>885.5</ele><time>2011-11-30T10:02:34Z</time></trkpt><trkpt lat="42.589942" lon="-2.590493"><ele>885.5</ele><time>2011-11-30T10:02:35Z</time></trkpt><trkpt lat="42.589938" lon="-2.590480"><ele>885.0</ele><time>2011-11-30T10:02:36Z</time></trkpt><trkpt lat="42.589933" lon="-2.590467"><ele>885.0</ele><time>2011-11-30T10:02:37Z</time></trkpt><trkpt lat="42.589930" lon="-2.590455"><ele>885.0</ele><time>2011-11-30T10:02:38Z</time></trkpt><trkpt lat="42.589925" lon="-2.590442"><ele>885.0</ele><time>2011-11-30T10:02:39Z</time></trkpt><trkpt lat="42.589925" lon="-2.590433"><ele>884.0</ele><time>2011-11-30T10:02:40Z</time></trkpt><trkpt lat="42.589923" lon="-2.590420"><ele>883.5</ele><time>2011-11-30T10:02:41Z</time></trkpt><trkpt lat="42.589923" lon="-2.590402"><ele>883.5</ele><time>2011-11-30T10:02:42Z</time></trkpt><trkpt lat="42.589922" lon="-2.590387"><ele>883.5</ele><time>2011-11-30T10:02:43Z</time></trkpt><trkpt lat="42.589920" lon="-2.590373"><ele>883.5</ele><time>2011-11-30T10:02:44Z</time></trkpt><trkpt lat="42.589913" lon="-2.590360"><ele>883.5</ele><time>2011-11-30T10:02:45Z</time></trkpt><trkpt lat="42.589910" lon="-2.590345"><ele>884.0</ele><time>2011-11-30T10:02:46Z</time></trkpt><trkpt lat="42.589903" lon="-2.590333"><ele>884.0</ele><time>2011-11-30T10:02:47Z</time></trkpt><trkpt lat="42.589900" lon="-2.590320"><ele>884.0</ele><time>2011-11-30T10:02:48Z</time></trkpt><trkpt lat="42.589900" lon="-2.590308"><ele>883.5</ele><time>2011-11-30T10:02:49Z</time></trkpt><trkpt lat="42.589897" lon="-2.590297"><ele>883.5</ele><time>2011-11-30T10:02:50Z</time></trkpt><trkpt lat="42.589893" lon="-2.590283"><ele>883.0</ele><time>2011-11-30T10:02:51Z</time></trkpt><trkpt lat="42.589890" lon="-2.590275"><ele>882.5</ele><time>2011-11-30T10:02:52Z</time></trkpt><trkpt lat="42.589888" lon="-2.590263"><ele>882.5</ele><time>2011-11-30T10:02:53Z</time></trkpt><trkpt lat="42.589885" lon="-2.590255"><ele>882.5</ele><time>2011-11-30T10:02:54Z</time></trkpt><trkpt lat="42.589885" lon="-2.590243"><ele>882.0</ele><time>2011-11-30T10:02:55Z</time></trkpt><trkpt lat="42.589885" lon="-2.590228"><ele>882.0</ele><time>2011-11-30T10:02:56Z</time></trkpt><trkpt lat="42.589887" lon="-2.590210"><ele>882.5</ele><time>2011-11-30T10:02:57Z</time></trkpt><trkpt lat="42.589887" lon="-2.590195"><ele>882.5</ele><time>2011-11-30T10:02:58Z</time></trkpt><trkpt lat="42.589885" lon="-2.590178"><ele>883.0</ele><time>2011-11-30T10:02:59Z</time></trkpt><trkpt lat="42.589883" lon="-2.590168"><ele>882.5</ele><time>2011-11-30T10:03:00Z</time></trkpt><trkpt lat="42.589885" lon="-2.590157"><ele>880.5</ele><time>2011-11-30T10:03:01Z</time></trkpt><trkpt lat="42.589880" lon="-2.590148"><ele>880.0</ele><time>2011-11-30T10:03:02Z</time></trkpt><trkpt lat="42.589883" lon="-2.590137"><ele>880.0</ele><time>2011-11-30T10:03:03Z</time></trkpt><trkpt lat="42.589887" lon="-2.590125"><ele>880.0</ele><time>2011-11-30T10:03:04Z</time></trkpt><trkpt lat="42.589888" lon="-2.590107"><ele>880.0</ele><time>2011-11-30T10:03:05Z</time></trkpt><trkpt lat="42.589888" lon="-2.590088"><ele>880.0</ele><time>2011-11-30T10:03:06Z</time></trkpt><trkpt lat="42.589890" lon="-2.590075"><ele>880.0</ele><time>2011-11-30T10:03:07Z</time></trkpt><trkpt lat="42.589895" lon="-2.590057"><ele>880.5</ele><time>2011-11-30T10:03:08Z</time></trkpt><trkpt lat="42.589897" lon="-2.590045"><ele>880.0</ele><time>2011-11-30T10:03:09Z</time></trkpt><trkpt lat="42.589898" lon="-2.590028"><ele>880.5</ele><time>2011-11-30T10:03:10Z</time></trkpt><trkpt lat="42.589898" lon="-2.590005"><ele>881.0</ele><time>2011-11-30T10:03:11Z</time></trkpt><trkpt lat="42.589897" lon="-2.589985"><ele>881.5</ele><time>2011-11-30T10:03:12Z</time></trkpt><trkpt lat="42.589895" lon="-2.589973"><ele>881.0</ele><time>2011-11-30T10:03:13Z</time></trkpt><trkpt lat="42.589893" lon="-2.589960"><ele>881.0</ele><time>2011-11-30T10:03:14Z</time></trkpt><trkpt lat="42.589892" lon="-2.589943"><ele>881.0</ele><time>2011-11-30T10:03:15Z</time></trkpt><trkpt lat="42.589890" lon="-2.589930"><ele>881.0</ele><time>2011-11-30T10:03:16Z</time></trkpt><trkpt lat="42.589890" lon="-2.589915"><ele>881.0</ele><time>2011-11-30T10:03:17Z</time></trkpt><trkpt lat="42.589892" lon="-2.589895"><ele>881.5</ele><time>2011-11-30T10:03:18Z</time></trkpt><trkpt lat="42.589892" lon="-2.589877"><ele>881.5</ele><time>2011-11-30T10:03:19Z</time></trkpt><trkpt lat="42.589892" lon="-2.589865"><ele>881.5</ele><time>2011-11-30T10:03:20Z</time></trkpt><trkpt lat="42.589892" lon="-2.589852"><ele>880.5</ele><time>2011-11-30T10:03:21Z</time></trkpt><trkpt lat="42.589893" lon="-2.589842"><ele>880.0</ele><time>2011-11-30T10:03:22Z</time></trkpt><trkpt lat="42.589893" lon="-2.589833"><ele>879.5</ele><time>2011-11-30T10:03:23Z</time></trkpt><trkpt lat="42.589895" lon="-2.589815"><ele>879.0</ele><time>2011-11-30T10:03:24Z</time></trkpt><trkpt lat="42.589893" lon="-2.589797"><ele>879.0</ele><time>2011-11-30T10:03:25Z</time></trkpt><trkpt lat="42.589890" lon="-2.589780"><ele>879.5</ele><time>2011-11-30T10:03:26Z</time></trkpt><trkpt lat="42.589887" lon="-2.589762"><ele>880.0</ele><time>2011-11-30T10:03:27Z</time></trkpt><trkpt lat="42.589885" lon="-2.589747"><ele>880.0</ele><time>2011-11-30T10:03:28Z</time></trkpt><trkpt lat="42.589887" lon="-2.589730"><ele>880.0</ele><time>2011-11-30T10:03:29Z</time></trkpt><trkpt lat="42.589887" lon="-2.589722"><ele>879.0</ele><time>2011-11-30T10:03:30Z</time></trkpt><trkpt lat="42.589887" lon="-2.589708"><ele>878.5</ele><time>2011-11-30T10:03:31Z</time></trkpt><trkpt lat="42.589885" lon="-2.589698"><ele>877.5</ele><time>2011-11-30T10:03:32Z</time></trkpt><trkpt lat="42.589880" lon="-2.589687"><ele>877.0</ele><time>2011-11-30T10:03:33Z</time></trkpt><trkpt lat="42.589878" lon="-2.589678"><ele>876.5</ele><time>2011-11-30T10:03:34Z</time></trkpt><trkpt lat="42.589877" lon="-2.589665"><ele>876.0</ele><time>2011-11-30T10:03:35Z</time></trkpt><trkpt lat="42.589872" lon="-2.589653"><ele>875.5</ele><time>2011-11-30T10:03:36Z</time></trkpt><trkpt lat="42.589867" lon="-2.589638"><ele>875.5</ele><time>2011-11-30T10:03:37Z</time></trkpt><trkpt lat="42.589863" lon="-2.589623"><ele>875.5</ele><time>2011-11-30T10:03:38Z</time></trkpt><trkpt lat="42.589858" lon="-2.589608"><ele>875.5</ele><time>2011-11-30T10:03:39Z</time></trkpt><trkpt lat="42.589855" lon="-2.589588"><ele>876.0</ele><time>2011-11-30T10:03:40Z</time></trkpt><trkpt lat="42.589853" lon="-2.589573"><ele>875.5</ele><time>2011-11-30T10:03:41Z</time></trkpt><trkpt lat="42.589852" lon="-2.589560"><ele>875.0</ele><time>2011-11-30T10:03:42Z</time></trkpt><trkpt lat="42.589848" lon="-2.589550"><ele>874.5</ele><time>2011-11-30T10:03:43Z</time></trkpt><trkpt lat="42.589838" lon="-2.589538"><ele>874.5</ele><time>2011-11-30T10:03:44Z</time></trkpt><trkpt lat="42.589830" lon="-2.589528"><ele>874.0</ele><time>2011-11-30T10:03:45Z</time></trkpt><trkpt lat="42.589823" lon="-2.589513"><ele>874.0</ele><time>2011-11-30T10:03:46Z</time></trkpt><trkpt lat="42.589820" lon="-2.589500"><ele>874.0</ele><time>2011-11-30T10:03:47Z</time></trkpt><trkpt lat="42.589817" lon="-2.589483"><ele>873.5</ele><time>2011-11-30T10:03:48Z</time></trkpt><trkpt lat="42.589812" lon="-2.589467"><ele>873.5</ele><time>2011-11-30T10:03:49Z</time></trkpt><trkpt lat="42.589807" lon="-2.589452"><ele>873.0</ele><time>2011-11-30T10:03:50Z</time></trkpt><trkpt lat="42.589803" lon="-2.589437"><ele>873.0</ele><time>2011-11-30T10:03:51Z</time></trkpt><trkpt lat="42.589797" lon="-2.589420"><ele>873.0</ele><time>2011-11-30T10:03:52Z</time></trkpt><trkpt lat="42.589793" lon="-2.589403"><ele>873.0</ele><time>2011-11-30T10:03:53Z</time></trkpt><trkpt lat="42.589790" lon="-2.589387"><ele>873.0</ele><time>2011-11-30T10:03:54Z</time></trkpt><trkpt lat="42.589787" lon="-2.589368"><ele>873.0</ele><time>2011-11-30T10:03:55Z</time></trkpt><trkpt lat="42.589787" lon="-2.589348"><ele>873.0</ele><time>2011-11-30T10:03:56Z</time></trkpt><trkpt lat="42.589785" lon="-2.589332"><ele>873.0</ele><time>2011-11-30T10:03:57Z</time></trkpt><trkpt lat="42.589783" lon="-2.589313"><ele>873.0</ele><time>2011-11-30T10:03:58Z</time></trkpt><trkpt lat="42.589782" lon="-2.589297"><ele>873.0</ele><time>2011-11-30T10:03:59Z</time></trkpt><trkpt lat="42.589782" lon="-2.589278"><ele>872.5</ele><time>2011-11-30T10:04:00Z</time></trkpt><trkpt lat="42.589782" lon="-2.589262"><ele>872.5</ele><time>2011-11-30T10:04:01Z</time></trkpt><trkpt lat="42.589783" lon="-2.589240"><ele>872.5</ele><time>2011-11-30T10:04:02Z</time></trkpt><trkpt lat="42.589782" lon="-2.589222"><ele>872.0</ele><time>2011-11-30T10:04:03Z</time></trkpt><trkpt lat="42.589783" lon="-2.589205"><ele>872.0</ele><time>2011-11-30T10:04:04Z</time></trkpt><trkpt lat="42.589783" lon="-2.589188"><ele>872.0</ele><time>2011-11-30T10:04:05Z</time></trkpt><trkpt lat="42.589783" lon="-2.589172"><ele>872.0</ele><time>2011-11-30T10:04:06Z</time></trkpt><trkpt lat="42.589780" lon="-2.589153"><ele>872.0</ele><time>2011-11-30T10:04:07Z</time></trkpt><trkpt lat="42.589780" lon="-2.589133"><ele>871.5</ele><time>2011-11-30T10:04:08Z</time></trkpt><trkpt lat="42.589780" lon="-2.589115"><ele>871.5</ele><time>2011-11-30T10:04:09Z</time></trkpt><trkpt lat="42.589782" lon="-2.589097"><ele>871.5</ele><time>2011-11-30T10:04:10Z</time></trkpt><trkpt lat="42.589783" lon="-2.589080"><ele>871.5</ele><time>2011-11-30T10:04:11Z</time></trkpt><trkpt lat="42.589787" lon="-2.589062"><ele>872.0</ele><time>2011-11-30T10:04:12Z</time></trkpt><trkpt lat="42.589787" lon="-2.589043"><ele>872.0</ele><time>2011-11-30T10:04:13Z</time></trkpt><trkpt lat="42.589788" lon="-2.589025"><ele>872.0</ele><time>2011-11-30T10:04:14Z</time></trkpt><trkpt lat="42.589787" lon="-2.589005"><ele>872.0</ele><time>2011-11-30T10:04:15Z</time></trkpt><trkpt lat="42.589785" lon="-2.588985"><ele>872.5</ele><time>2011-11-30T10:04:16Z</time></trkpt><trkpt lat="42.589780" lon="-2.588965"><ele>872.5</ele><time>2011-11-30T10:04:17Z</time></trkpt><trkpt lat="42.589777" lon="-2.588947"><ele>873.0</ele><time>2011-11-30T10:04:18Z</time></trkpt><trkpt lat="42.589773" lon="-2.588928"><ele>873.0</ele><time>2011-11-30T10:04:19Z</time></trkpt><trkpt lat="42.589772" lon="-2.588910"><ele>873.0</ele><time>2011-11-30T10:04:20Z</time></trkpt><trkpt lat="42.589768" lon="-2.588897"><ele>872.5</ele><time>2011-11-30T10:04:21Z</time></trkpt><trkpt lat="42.589765" lon="-2.588878"><ele>872.5</ele><time>2011-11-30T10:04:22Z</time></trkpt><trkpt lat="42.589765" lon="-2.588860"><ele>872.5</ele><time>2011-11-30T10:04:23Z</time></trkpt><trkpt lat="42.589763" lon="-2.588842"><ele>872.0</ele><time>2011-11-30T10:04:24Z</time></trkpt><trkpt lat="42.589763" lon="-2.588822"><ele>872.5</ele><time>2011-11-30T10:04:25Z</time></trkpt><trkpt lat="42.589762" lon="-2.588805"><ele>872.0</ele><time>2011-11-30T10:04:26Z</time></trkpt><trkpt lat="42.589760" lon="-2.588788"><ele>872.0</ele><time>2011-11-30T10:04:27Z</time></trkpt><trkpt lat="42.589760" lon="-2.588767"><ele>872.5</ele><time>2011-11-30T10:04:28Z</time></trkpt><trkpt lat="42.589760" lon="-2.588748"><ele>872.5</ele><time>2011-11-30T10:04:29Z</time></trkpt><trkpt lat="42.589762" lon="-2.588733"><ele>872.5</ele><time>2011-11-30T10:04:30Z</time></trkpt><trkpt lat="42.589760" lon="-2.588717"><ele>872.5</ele><time>2011-11-30T10:04:31Z</time></trkpt><trkpt lat="42.589760" lon="-2.588698"><ele>872.5</ele><time>2011-11-30T10:04:32Z</time></trkpt><trkpt lat="42.589762" lon="-2.588680"><ele>872.0</ele><time>2011-11-30T10:04:33Z</time></trkpt><trkpt lat="42.589760" lon="-2.588652"><ele>872.5</ele><time>2011-11-30T10:04:34Z</time></trkpt><trkpt lat="42.589753" lon="-2.588622"><ele>873.5</ele><time>2011-11-30T10:04:35Z</time></trkpt><trkpt lat="42.589750" lon="-2.588605"><ele>873.0</ele><time>2011-11-30T10:04:36Z</time></trkpt><trkpt lat="42.589743" lon="-2.588590"><ele>872.5</ele><time>2011-11-30T10:04:37Z</time></trkpt><trkpt lat="42.589733" lon="-2.588577"><ele>872.5</ele><time>2011-11-30T10:04:38Z</time></trkpt><trkpt lat="42.589730" lon="-2.588568"><ele>871.5</ele><time>2011-11-30T10:04:39Z</time></trkpt><trkpt lat="42.589705" lon="-2.588535"><ele>871.0</ele><time>2011-11-30T10:04:40Z</time></trkpt><trkpt lat="42.589697" lon="-2.588520"><ele>871.0</ele><time>2011-11-30T10:04:41Z</time></trkpt><trkpt lat="42.589690" lon="-2.588507"><ele>870.5</ele><time>2011-11-30T10:04:42Z</time></trkpt><trkpt lat="42.589690" lon="-2.588473"><ele>872.0</ele><time>2011-11-30T10:04:43Z</time></trkpt><trkpt lat="42.589690" lon="-2.588440"><ele>873.5</ele><time>2011-11-30T10:04:44Z</time></trkpt><trkpt lat="42.589688" lon="-2.588425"><ele>872.0</ele><time>2011-11-30T10:04:45Z</time></trkpt><trkpt lat="42.589683" lon="-2.588403"><ele>872.5</ele><time>2011-11-30T10:04:46Z</time></trkpt><trkpt lat="42.589677" lon="-2.588388"><ele>872.5</ele><time>2011-11-30T10:04:47Z</time></trkpt><trkpt lat="42.589672" lon="-2.588373"><ele>872.0</ele><time>2011-11-30T10:04:48Z</time></trkpt><trkpt lat="42.589667" lon="-2.588353"><ele>872.5</ele><time>2011-11-30T10:04:49Z</time></trkpt><trkpt lat="42.589663" lon="-2.588337"><ele>872.5</ele><time>2011-11-30T10:04:50Z</time></trkpt><trkpt lat="42.589657" lon="-2.588320"><ele>872.5</ele><time>2011-11-30T10:04:51Z</time></trkpt><trkpt lat="42.589650" lon="-2.588303"><ele>872.0</ele><time>2011-11-30T10:04:52Z</time></trkpt><trkpt lat="42.589643" lon="-2.588288"><ele>872.0</ele><time>2011-11-30T10:04:53Z</time></trkpt><trkpt lat="42.589635" lon="-2.588270"><ele>872.0</ele><time>2011-11-30T10:04:54Z</time></trkpt><trkpt lat="42.589630" lon="-2.588255"><ele>872.0</ele><time>2011-11-30T10:04:55Z</time></trkpt><trkpt lat="42.589623" lon="-2.588237"><ele>872.0</ele><time>2011-11-30T10:04:56Z</time></trkpt><trkpt lat="42.589618" lon="-2.588223"><ele>871.5</ele><time>2011-11-30T10:04:57Z</time></trkpt><trkpt lat="42.589612" lon="-2.588207"><ele>871.5</ele><time>2011-11-30T10:04:58Z</time></trkpt><trkpt lat="42.589602" lon="-2.588192"><ele>871.5</ele><time>2011-11-30T10:04:59Z</time></trkpt><trkpt lat="42.589593" lon="-2.588173"><ele>872.0</ele><time>2011-11-30T10:05:00Z</time></trkpt><trkpt lat="42.589592" lon="-2.588147"><ele>872.5</ele><time>2011-11-30T10:05:01Z</time></trkpt><trkpt lat="42.589585" lon="-2.588120"><ele>873.0</ele><time>2011-11-30T10:05:02Z</time></trkpt><trkpt lat="42.589585" lon="-2.588090"><ele>874.5</ele><time>2011-11-30T10:05:03Z</time></trkpt><trkpt lat="42.589577" lon="-2.588077"><ele>874.0</ele><time>2011-11-30T10:05:04Z</time></trkpt><trkpt lat="42.589572" lon="-2.588060"><ele>874.0</ele><time>2011-11-30T10:05:05Z</time></trkpt><trkpt lat="42.589562" lon="-2.588042"><ele>874.0</ele><time>2011-11-30T10:05:06Z</time></trkpt><trkpt lat="42.589553" lon="-2.588032"><ele>873.5</ele><time>2011-11-30T10:05:07Z</time></trkpt><trkpt lat="42.589545" lon="-2.588015"><ele>874.0</ele><time>2011-11-30T10:05:08Z</time></trkpt><trkpt lat="42.589545" lon="-2.587997"><ele>874.0</ele><time>2011-11-30T10:05:09Z</time></trkpt><trkpt lat="42.589540" lon="-2.587972"><ele>875.0</ele><time>2011-11-30T10:05:10Z</time></trkpt><trkpt lat="42.589532" lon="-2.587943"><ele>876.0</ele><time>2011-11-30T10:05:11Z</time></trkpt><trkpt lat="42.589532" lon="-2.587925"><ele>876.5</ele><time>2011-11-30T10:05:12Z</time></trkpt><trkpt lat="42.589527" lon="-2.587905"><ele>877.0</ele><time>2011-11-30T10:05:13Z</time></trkpt><trkpt lat="42.589522" lon="-2.587882"><ele>877.5</ele><time>2011-11-30T10:05:14Z</time></trkpt><trkpt lat="42.589520" lon="-2.587873"><ele>876.5</ele><time>2011-11-30T10:05:15Z</time></trkpt><trkpt lat="42.589513" lon="-2.587855"><ele>876.5</ele><time>2011-11-30T10:05:16Z</time></trkpt><trkpt lat="42.589507" lon="-2.587842"><ele>876.0</ele><time>2011-11-30T10:05:17Z</time></trkpt><trkpt lat="42.589505" lon="-2.587827"><ele>876.0</ele><time>2011-11-30T10:05:18Z</time></trkpt><trkpt lat="42.589505" lon="-2.587805"><ele>876.0</ele><time>2011-11-30T10:05:19Z</time></trkpt><trkpt lat="42.589505" lon="-2.587785"><ele>875.5</ele><time>2011-11-30T10:05:20Z</time></trkpt><trkpt lat="42.589500" lon="-2.587772"><ele>875.0</ele><time>2011-11-30T10:05:21Z</time></trkpt><trkpt lat="42.589495" lon="-2.587755"><ele>874.5</ele><time>2011-11-30T10:05:22Z</time></trkpt><trkpt lat="42.589493" lon="-2.587743"><ele>874.0</ele><time>2011-11-30T10:05:23Z</time></trkpt><trkpt lat="42.589490" lon="-2.587723"><ele>874.5</ele><time>2011-11-30T10:05:24Z</time></trkpt><trkpt lat="42.589485" lon="-2.587698"><ele>875.0</ele><time>2011-11-30T10:05:25Z</time></trkpt><trkpt lat="42.589480" lon="-2.587683"><ele>874.5</ele><time>2011-11-30T10:05:26Z</time></trkpt><trkpt lat="42.589473" lon="-2.587662"><ele>875.0</ele><time>2011-11-30T10:05:27Z</time></trkpt><trkpt lat="42.589468" lon="-2.587645"><ele>874.5</ele><time>2011-11-30T10:05:28Z</time></trkpt><trkpt lat="42.589465" lon="-2.587628"><ele>875.0</ele><time>2011-11-30T10:05:29Z</time></trkpt><trkpt lat="42.589450" lon="-2.587602"><ele>876.5</ele><time>2011-11-30T10:05:30Z</time></trkpt><trkpt lat="42.589448" lon="-2.587583"><ele>876.5</ele><time>2011-11-30T10:05:31Z</time></trkpt><trkpt lat="42.589440" lon="-2.587562"><ele>878.0</ele><time>2011-11-30T10:05:32Z</time></trkpt><trkpt lat="42.589432" lon="-2.587537"><ele>879.5</ele><time>2011-11-30T10:05:33Z</time></trkpt><trkpt lat="42.589422" lon="-2.587513"><ele>880.5</ele><time>2011-11-30T10:05:34Z</time></trkpt><trkpt lat="42.589418" lon="-2.587498"><ele>880.5</ele><time>2011-11-30T10:05:35Z</time></trkpt><trkpt lat="42.589412" lon="-2.587485"><ele>881.0</ele><time>2011-11-30T10:05:36Z</time></trkpt><trkpt lat="42.589403" lon="-2.587468"><ele>881.0</ele><time>2011-11-30T10:05:37Z</time></trkpt><trkpt lat="42.589395" lon="-2.587450"><ele>881.5</ele><time>2011-11-30T10:05:38Z</time></trkpt><trkpt lat="42.589387" lon="-2.587430"><ele>882.5</ele><time>2011-11-30T10:05:39Z</time></trkpt><trkpt lat="42.589382" lon="-2.587412"><ele>883.5</ele><time>2011-11-30T10:05:40Z</time></trkpt><trkpt lat="42.589375" lon="-2.587392"><ele>884.0</ele><time>2011-11-30T10:05:41Z</time></trkpt><trkpt lat="42.589368" lon="-2.587367"><ele>885.5</ele><time>2011-11-30T10:05:42Z</time></trkpt><trkpt lat="42.589365" lon="-2.587342"><ele>886.5</ele><time>2011-11-30T10:05:43Z</time></trkpt><trkpt lat="42.589357" lon="-2.587320"><ele>887.5</ele><time>2011-11-30T10:05:44Z</time></trkpt><trkpt lat="42.589352" lon="-2.587302"><ele>888.0</ele><time>2011-11-30T10:05:45Z</time></trkpt><trkpt lat="42.589353" lon="-2.587275"><ele>886.5</ele><time>2011-11-30T10:05:46Z</time></trkpt><trkpt lat="42.589353" lon="-2.587257"><ele>887.0</ele><time>2011-11-30T10:05:47Z</time></trkpt><trkpt lat="42.589355" lon="-2.587243"><ele>887.0</ele><time>2011-11-30T10:05:48Z</time></trkpt><trkpt lat="42.589352" lon="-2.587222"><ele>887.5</ele><time>2011-11-30T10:05:49Z</time></trkpt><trkpt lat="42.589347" lon="-2.587205"><ele>888.0</ele><time>2011-11-30T10:05:50Z</time></trkpt><trkpt lat="42.589343" lon="-2.587188"><ele>888.0</ele><time>2011-11-30T10:05:51Z</time></trkpt><trkpt lat="42.589342" lon="-2.587172"><ele>888.0</ele><time>2011-11-30T10:05:52Z</time></trkpt><trkpt lat="42.589343" lon="-2.587160"><ele>888.0</ele><time>2011-11-30T10:05:53Z</time></trkpt><trkpt lat="42.589342" lon="-2.587147"><ele>888.0</ele><time>2011-11-30T10:05:54Z</time></trkpt><trkpt lat="42.589338" lon="-2.587133"><ele>887.5</ele><time>2011-11-30T10:05:55Z</time></trkpt><trkpt lat="42.589337" lon="-2.587122"><ele>887.5</ele><time>2011-11-30T10:05:56Z</time></trkpt><trkpt lat="42.589333" lon="-2.587108"><ele>887.5</ele><time>2011-11-30T10:05:57Z</time></trkpt><trkpt lat="42.589332" lon="-2.587095"><ele>887.5</ele><time>2011-11-30T10:05:58Z</time></trkpt><trkpt lat="42.589335" lon="-2.587080"><ele>887.5</ele><time>2011-11-30T10:05:59Z</time></trkpt><trkpt lat="42.589332" lon="-2.587065"><ele>887.5</ele><time>2011-11-30T10:06:00Z</time></trkpt><trkpt lat="42.589332" lon="-2.587050"><ele>887.5</ele><time>2011-11-30T10:06:01Z</time></trkpt><trkpt lat="42.589332" lon="-2.587037"><ele>887.0</ele><time>2011-11-30T10:06:02Z</time></trkpt><trkpt lat="42.589332" lon="-2.587023"><ele>887.0</ele><time>2011-11-30T10:06:03Z</time></trkpt><trkpt lat="42.589330" lon="-2.587010"><ele>888.0</ele><time>2011-11-30T10:06:04Z</time></trkpt><trkpt lat="42.589328" lon="-2.586997"><ele>888.5</ele><time>2011-11-30T10:06:05Z</time></trkpt><trkpt lat="42.589327" lon="-2.586980"><ele>889.0</ele><time>2011-11-30T10:06:06Z</time></trkpt><trkpt lat="42.589327" lon="-2.586965"><ele>889.5</ele><time>2011-11-30T10:06:07Z</time></trkpt><trkpt lat="42.589325" lon="-2.586950"><ele>889.5</ele><time>2011-11-30T10:06:08Z</time></trkpt><trkpt lat="42.589322" lon="-2.586940"><ele>889.5</ele><time>2011-11-30T10:06:09Z</time></trkpt><trkpt lat="42.589322" lon="-2.586928"><ele>889.5</ele><time>2011-11-30T10:06:10Z</time></trkpt><trkpt lat="42.589318" lon="-2.586920"><ele>889.0</ele><time>2011-11-30T10:06:11Z</time></trkpt><trkpt lat="42.589313" lon="-2.586905"><ele>890.0</ele><time>2011-11-30T10:06:12Z</time></trkpt><trkpt lat="42.589310" lon="-2.586893"><ele>890.5</ele><time>2011-11-30T10:06:13Z</time></trkpt><trkpt lat="42.589305" lon="-2.586880"><ele>891.0</ele><time>2011-11-30T10:06:14Z</time></trkpt><trkpt lat="42.589303" lon="-2.586868"><ele>891.0</ele><time>2011-11-30T10:06:15Z</time></trkpt><trkpt lat="42.589298" lon="-2.586860"><ele>891.0</ele><time>2011-11-30T10:06:16Z</time></trkpt><trkpt lat="42.589293" lon="-2.586850"><ele>891.5</ele><time>2011-11-30T10:06:17Z</time></trkpt><trkpt lat="42.589293" lon="-2.586842"><ele>891.5</ele><time>2011-11-30T10:06:18Z</time></trkpt><trkpt lat="42.589292" lon="-2.586832"><ele>891.0</ele><time>2011-11-30T10:06:19Z</time></trkpt><trkpt lat="42.589288" lon="-2.586820"><ele>891.0</ele><time>2011-11-30T10:06:20Z</time></trkpt><trkpt lat="42.589285" lon="-2.586810"><ele>891.5</ele><time>2011-11-30T10:06:21Z</time></trkpt><trkpt lat="42.589282" lon="-2.586800"><ele>891.5</ele><time>2011-11-30T10:06:22Z</time></trkpt><trkpt lat="42.589282" lon="-2.586788"><ele>891.0</ele><time>2011-11-30T10:06:23Z</time></trkpt><trkpt lat="42.589277" lon="-2.586778"><ele>891.5</ele><time>2011-11-30T10:06:24Z</time></trkpt><trkpt lat="42.589272" lon="-2.586765"><ele>892.5</ele><time>2011-11-30T10:06:25Z</time></trkpt><trkpt lat="42.589270" lon="-2.586753"><ele>893.0</ele><time>2011-11-30T10:06:26Z</time></trkpt><trkpt lat="42.589265" lon="-2.586745"><ele>893.0</ele><time>2011-11-30T10:06:27Z</time></trkpt><trkpt lat="42.589260" lon="-2.586740"><ele>893.0</ele><time>2011-11-30T10:06:28Z</time></trkpt><trkpt lat="42.589253" lon="-2.586728"><ele>893.0</ele><time>2011-11-30T10:06:29Z</time></trkpt><trkpt lat="42.589248" lon="-2.586722"><ele>893.0</ele><time>2011-11-30T10:06:30Z</time></trkpt><trkpt lat="42.589248" lon="-2.586705"><ele>893.0</ele><time>2011-11-30T10:06:31Z</time></trkpt><trkpt lat="42.589243" lon="-2.586690"><ele>893.5</ele><time>2011-11-30T10:06:32Z</time></trkpt><trkpt lat="42.589240" lon="-2.586677"><ele>893.5</ele><time>2011-11-30T10:06:33Z</time></trkpt><trkpt lat="42.589237" lon="-2.586665"><ele>893.5</ele><time>2011-11-30T10:06:34Z</time></trkpt><trkpt lat="42.589233" lon="-2.586657"><ele>893.5</ele><time>2011-11-30T10:06:35Z</time></trkpt><trkpt lat="42.589228" lon="-2.586647"><ele>893.5</ele><time>2011-11-30T10:06:36Z</time></trkpt><trkpt lat="42.589227" lon="-2.586637"><ele>894.0</ele><time>2011-11-30T10:06:37Z</time></trkpt><trkpt lat="42.589225" lon="-2.586617"><ele>893.5</ele><time>2011-11-30T10:06:38Z</time></trkpt><trkpt lat="42.589225" lon="-2.586605"><ele>893.5</ele><time>2011-11-30T10:06:39Z</time></trkpt><trkpt lat="42.589225" lon="-2.586593"><ele>894.0</ele><time>2011-11-30T10:06:40Z</time></trkpt><trkpt lat="42.589225" lon="-2.586578"><ele>894.0</ele><time>2011-11-30T10:06:41Z</time></trkpt><trkpt lat="42.589223" lon="-2.586565"><ele>894.5</ele><time>2011-11-30T10:06:42Z</time></trkpt><trkpt lat="42.589222" lon="-2.586550"><ele>894.5</ele><time>2011-11-30T10:06:43Z</time></trkpt><trkpt lat="42.589215" lon="-2.586540"><ele>895.0</ele><time>2011-11-30T10:06:44Z</time></trkpt><trkpt lat="42.589212" lon="-2.586532"><ele>895.0</ele><time>2011-11-30T10:06:45Z</time></trkpt><trkpt lat="42.589210" lon="-2.586522"><ele>895.0</ele><time>2011-11-30T10:06:46Z</time></trkpt><trkpt lat="42.589208" lon="-2.586510"><ele>895.0</ele><time>2011-11-30T10:06:47Z</time></trkpt><trkpt lat="42.589205" lon="-2.586498"><ele>895.5</ele><time>2011-11-30T10:06:48Z</time></trkpt><trkpt lat="42.589202" lon="-2.586487"><ele>895.5</ele><time>2011-11-30T10:06:49Z</time></trkpt><trkpt lat="42.589202" lon="-2.586477"><ele>895.5</ele><time>2011-11-30T10:06:50Z</time></trkpt><trkpt lat="42.589198" lon="-2.586467"><ele>896.0</ele><time>2011-11-30T10:06:51Z</time></trkpt><trkpt lat="42.589197" lon="-2.586453"><ele>896.0</ele><time>2011-11-30T10:06:52Z</time></trkpt><trkpt lat="42.589195" lon="-2.586445"><ele>896.0</ele><time>2011-11-30T10:06:53Z</time></trkpt><trkpt lat="42.589188" lon="-2.586433"><ele>896.0</ele><time>2011-11-30T10:06:54Z</time></trkpt><trkpt lat="42.589183" lon="-2.586425"><ele>896.0</ele><time>2011-11-30T10:06:55Z</time></trkpt><trkpt lat="42.589180" lon="-2.586408"><ele>895.5</ele><time>2011-11-30T10:06:56Z</time></trkpt><trkpt lat="42.589180" lon="-2.586397"><ele>895.5</ele><time>2011-11-30T10:06:57Z</time></trkpt><trkpt lat="42.589175" lon="-2.586387"><ele>895.5</ele><time>2011-11-30T10:06:58Z</time></trkpt><trkpt lat="42.589170" lon="-2.586380"><ele>895.5</ele><time>2011-11-30T10:06:59Z</time></trkpt><trkpt lat="42.589167" lon="-2.586372"><ele>895.5</ele><time>2011-11-30T10:07:00Z</time></trkpt><trkpt lat="42.589162" lon="-2.586363"><ele>895.5</ele><time>2011-11-30T10:07:01Z</time></trkpt><trkpt lat="42.589157" lon="-2.586357"><ele>895.5</ele><time>2011-11-30T10:07:02Z</time></trkpt><trkpt lat="42.589132" lon="-2.586305"><ele>897.0</ele><time>2011-11-30T10:07:03Z</time></trkpt><trkpt lat="42.589125" lon="-2.586280"><ele>897.5</ele><time>2011-11-30T10:07:04Z</time></trkpt><trkpt lat="42.589130" lon="-2.586275"><ele>898.0</ele><time>2011-11-30T10:07:05Z</time></trkpt><trkpt lat="42.589125" lon="-2.586265"><ele>898.0</ele><time>2011-11-30T10:07:06Z</time></trkpt><trkpt lat="42.589118" lon="-2.586258"><ele>898.5</ele><time>2011-11-30T10:07:07Z</time></trkpt><trkpt lat="42.589108" lon="-2.586248"><ele>899.5</ele><time>2011-11-30T10:07:08Z</time></trkpt><trkpt lat="42.589103" lon="-2.586230"><ele>899.5</ele><time>2011-11-30T10:07:09Z</time></trkpt><trkpt lat="42.589097" lon="-2.586220"><ele>899.5</ele><time>2011-11-30T10:07:10Z</time></trkpt><trkpt lat="42.589092" lon="-2.586212"><ele>899.5</ele><time>2011-11-30T10:07:11Z</time></trkpt><trkpt lat="42.589087" lon="-2.586203"><ele>899.5</ele><time>2011-11-30T10:07:12Z</time></trkpt><trkpt lat="42.589082" lon="-2.586197"><ele>899.0</ele><time>2011-11-30T10:07:13Z</time></trkpt><trkpt lat="42.589078" lon="-2.586190"><ele>899.0</ele><time>2011-11-30T10:07:14Z</time></trkpt><trkpt lat="42.589072" lon="-2.586177"><ele>899.5</ele><time>2011-11-30T10:07:15Z</time></trkpt><trkpt lat="42.589067" lon="-2.586168"><ele>900.0</ele><time>2011-11-30T10:07:16Z</time></trkpt><trkpt lat="42.589062" lon="-2.586162"><ele>900.0</ele><time>2011-11-30T10:07:17Z</time></trkpt><trkpt lat="42.589058" lon="-2.586152"><ele>900.0</ele><time>2011-11-30T10:07:18Z</time></trkpt><trkpt lat="42.589053" lon="-2.586145"><ele>900.0</ele><time>2011-11-30T10:07:19Z</time></trkpt><trkpt lat="42.589047" lon="-2.586138"><ele>900.5</ele><time>2011-11-30T10:07:20Z</time></trkpt><trkpt lat="42.589043" lon="-2.586130"><ele>900.5</ele><time>2011-11-30T10:07:21Z</time></trkpt><trkpt lat="42.589037" lon="-2.586125"><ele>900.0</ele><time>2011-11-30T10:07:22Z</time></trkpt><trkpt lat="42.589030" lon="-2.586115"><ele>900.5</ele><time>2011-11-30T10:07:23Z</time></trkpt><trkpt lat="42.589025" lon="-2.586107"><ele>901.0</ele><time>2011-11-30T10:07:24Z</time></trkpt><trkpt lat="42.589022" lon="-2.586098"><ele>901.5</ele><time>2011-11-30T10:07:25Z</time></trkpt><trkpt lat="42.589013" lon="-2.586085"><ele>902.0</ele><time>2011-11-30T10:07:26Z</time></trkpt><trkpt lat="42.589008" lon="-2.586075"><ele>902.5</ele><time>2011-11-30T10:07:27Z</time></trkpt><trkpt lat="42.589002" lon="-2.586062"><ele>903.0</ele><time>2011-11-30T10:07:28Z</time></trkpt><trkpt lat="42.588998" lon="-2.586053"><ele>903.0</ele><time>2011-11-30T10:07:29Z</time></trkpt><trkpt lat="42.588995" lon="-2.586042"><ele>903.5</ele><time>2011-11-30T10:07:30Z</time></trkpt><trkpt lat="42.588990" lon="-2.586030"><ele>904.0</ele><time>2011-11-30T10:07:31Z</time></trkpt><trkpt lat="42.588987" lon="-2.586020"><ele>904.5</ele><time>2011-11-30T10:07:32Z</time></trkpt><trkpt lat="42.588980" lon="-2.586010"><ele>905.0</ele><time>2011-11-30T10:07:33Z</time></trkpt><trkpt lat="42.588980" lon="-2.586000"><ele>904.5</ele><time>2011-11-30T10:07:34Z</time></trkpt><trkpt lat="42.588977" lon="-2.585993"><ele>905.0</ele><time>2011-11-30T10:07:35Z</time></trkpt><trkpt lat="42.588972" lon="-2.585985"><ele>905.5</ele><time>2011-11-30T10:07:36Z</time></trkpt><trkpt lat="42.588967" lon="-2.585975"><ele>905.5</ele><time>2011-11-30T10:07:37Z</time></trkpt><trkpt lat="42.588963" lon="-2.585967"><ele>906.0</ele><time>2011-11-30T10:07:38Z</time></trkpt><trkpt lat="42.588958" lon="-2.585960"><ele>905.5</ele><time>2011-11-30T10:07:39Z</time></trkpt><trkpt lat="42.588955" lon="-2.585943"><ele>906.0</ele><time>2011-11-30T10:07:40Z</time></trkpt><trkpt lat="42.588952" lon="-2.585933"><ele>906.5</ele><time>2011-11-30T10:07:41Z</time></trkpt><trkpt lat="42.588948" lon="-2.585925"><ele>906.5</ele><time>2011-11-30T10:07:42Z</time></trkpt><trkpt lat="42.588945" lon="-2.585918"><ele>906.5</ele><time>2011-11-30T10:07:43Z</time></trkpt><trkpt lat="42.588943" lon="-2.585910"><ele>906.5</ele><time>2011-11-30T10:07:44Z</time></trkpt><trkpt lat="42.588942" lon="-2.585900"><ele>906.5</ele><time>2011-11-30T10:07:45Z</time></trkpt><trkpt lat="42.588937" lon="-2.585895"><ele>906.5</ele><time>2011-11-30T10:07:46Z</time></trkpt><trkpt lat="42.588932" lon="-2.585887"><ele>906.5</ele><time>2011-11-30T10:07:47Z</time></trkpt><trkpt lat="42.588927" lon="-2.585883"><ele>906.5</ele><time>2011-11-30T10:07:48Z</time></trkpt><trkpt lat="42.588922" lon="-2.585875"><ele>906.5</ele><time>2011-11-30T10:07:49Z</time></trkpt><trkpt lat="42.588920" lon="-2.585863"><ele>907.0</ele><time>2011-11-30T10:07:50Z</time></trkpt><trkpt lat="42.588917" lon="-2.585855"><ele>907.5</ele><time>2011-11-30T10:07:51Z</time></trkpt><trkpt lat="42.588915" lon="-2.585843"><ele>907.5</ele><time>2011-11-30T10:07:52Z</time></trkpt><trkpt lat="42.588912" lon="-2.585832"><ele>907.5</ele><time>2011-11-30T10:07:53Z</time></trkpt><trkpt lat="42.588917" lon="-2.585818"><ele>908.5</ele><time>2011-11-30T10:07:54Z</time></trkpt><trkpt lat="42.588908" lon="-2.585792"><ele>908.0</ele><time>2011-11-30T10:07:55Z</time></trkpt><trkpt lat="42.588903" lon="-2.585780"><ele>908.0</ele><time>2011-11-30T10:07:56Z</time></trkpt><trkpt lat="42.588903" lon="-2.585770"><ele>908.0</ele><time>2011-11-30T10:07:57Z</time></trkpt><trkpt lat="42.588900" lon="-2.585758"><ele>908.0</ele><time>2011-11-30T10:07:58Z</time></trkpt><trkpt lat="42.588898" lon="-2.585748"><ele>908.5</ele><time>2011-11-30T10:07:59Z</time></trkpt><trkpt lat="42.588897" lon="-2.585735"><ele>908.5</ele><time>2011-11-30T10:08:00Z</time></trkpt><trkpt lat="42.588893" lon="-2.585725"><ele>909.5</ele><time>2011-11-30T10:08:01Z</time></trkpt><trkpt lat="42.588893" lon="-2.585715"><ele>909.5</ele><time>2011-11-30T10:08:02Z</time></trkpt><trkpt lat="42.588890" lon="-2.585698"><ele>910.0</ele><time>2011-11-30T10:08:03Z</time></trkpt><trkpt lat="42.588887" lon="-2.585688"><ele>910.0</ele><time>2011-11-30T10:08:04Z</time></trkpt><trkpt lat="42.588883" lon="-2.585677"><ele>910.5</ele><time>2011-11-30T10:08:05Z</time></trkpt><trkpt lat="42.588885" lon="-2.585670"><ele>909.0</ele><time>2011-11-30T10:08:06Z</time></trkpt><trkpt lat="42.588883" lon="-2.585660"><ele>909.5</ele><time>2011-11-30T10:08:07Z</time></trkpt><trkpt lat="42.588878" lon="-2.585652"><ele>910.0</ele><time>2011-11-30T10:08:08Z</time></trkpt><trkpt lat="42.588873" lon="-2.585642"><ele>910.5</ele><time>2011-11-30T10:08:09Z</time></trkpt><trkpt lat="42.588867" lon="-2.585622"><ele>910.5</ele><time>2011-11-30T10:08:10Z</time></trkpt><trkpt lat="42.588855" lon="-2.585607"><ele>912.5</ele><time>2011-11-30T10:08:11Z</time></trkpt><trkpt lat="42.588848" lon="-2.585598"><ele>913.0</ele><time>2011-11-30T10:08:12Z</time></trkpt><trkpt lat="42.588843" lon="-2.585590"><ele>913.5</ele><time>2011-11-30T10:08:13Z</time></trkpt><trkpt lat="42.588840" lon="-2.585568"><ele>914.5</ele><time>2011-11-30T10:08:14Z</time></trkpt><trkpt lat="42.588828" lon="-2.585548"><ele>915.5</ele><time>2011-11-30T10:08:15Z</time></trkpt><trkpt lat="42.588823" lon="-2.585540"><ele>915.5</ele><time>2011-11-30T10:08:16Z</time></trkpt><trkpt lat="42.588820" lon="-2.585532"><ele>915.5</ele><time>2011-11-30T10:08:17Z</time></trkpt><trkpt lat="42.588818" lon="-2.585527"><ele>915.5</ele><time>2011-11-30T10:08:18Z</time></trkpt><trkpt lat="42.588812" lon="-2.585517"><ele>915.5</ele><time>2011-11-30T10:08:19Z</time></trkpt><trkpt lat="42.588800" lon="-2.585503"><ele>915.0</ele><time>2011-11-30T10:08:20Z</time></trkpt><trkpt lat="42.588793" lon="-2.585500"><ele>915.5</ele><time>2011-11-30T10:08:21Z</time></trkpt><trkpt lat="42.588788" lon="-2.585495"><ele>915.5</ele><time>2011-11-30T10:08:22Z</time></trkpt><trkpt lat="42.588780" lon="-2.585487"><ele>915.0</ele><time>2011-11-30T10:08:23Z</time></trkpt><trkpt lat="42.588773" lon="-2.585480"><ele>915.5</ele><time>2011-11-30T10:08:24Z</time></trkpt><trkpt lat="42.588767" lon="-2.585472"><ele>916.0</ele><time>2011-11-30T10:08:25Z</time></trkpt><trkpt lat="42.588758" lon="-2.585462"><ele>917.0</ele><time>2011-11-30T10:08:26Z</time></trkpt><trkpt lat="42.588752" lon="-2.585455"><ele>917.5</ele><time>2011-11-30T10:08:27Z</time></trkpt><trkpt lat="42.588745" lon="-2.585447"><ele>918.0</ele><time>2011-11-30T10:08:28Z</time></trkpt><trkpt lat="42.588727" lon="-2.585428"><ele>918.5</ele><time>2011-11-30T10:08:29Z</time></trkpt><trkpt lat="42.588713" lon="-2.585420"><ele>918.5</ele><time>2011-11-30T10:08:30Z</time></trkpt><trkpt lat="42.588707" lon="-2.585417"><ele>918.5</ele><time>2011-11-30T10:08:31Z</time></trkpt><trkpt lat="42.588697" lon="-2.585405"><ele>918.5</ele><time>2011-11-30T10:08:32Z</time></trkpt><trkpt lat="42.588683" lon="-2.585385"><ele>919.0</ele><time>2011-11-30T10:08:33Z</time></trkpt><trkpt lat="42.588675" lon="-2.585373"><ele>919.0</ele><time>2011-11-30T10:08:34Z</time></trkpt><trkpt lat="42.588672" lon="-2.585368"><ele>919.0</ele><time>2011-11-30T10:08:35Z</time></trkpt><trkpt lat="42.588668" lon="-2.585360"><ele>919.5</ele><time>2011-11-30T10:08:36Z</time></trkpt><trkpt lat="42.588655" lon="-2.585350"><ele>920.5</ele><time>2011-11-30T10:08:37Z</time></trkpt><trkpt lat="42.588650" lon="-2.585342"><ele>920.5</ele><time>2011-11-30T10:08:38Z</time></trkpt><trkpt lat="42.588643" lon="-2.585332"><ele>920.5</ele><time>2011-11-30T10:08:39Z</time></trkpt><trkpt lat="42.588632" lon="-2.585315"><ele>921.5</ele><time>2011-11-30T10:08:40Z</time></trkpt><trkpt lat="42.588623" lon="-2.585297"><ele>922.0</ele><time>2011-11-30T10:08:41Z</time></trkpt><trkpt lat="42.588615" lon="-2.585287"><ele>923.0</ele><time>2011-11-30T10:08:42Z</time></trkpt><trkpt lat="42.588603" lon="-2.585265"><ele>923.5</ele><time>2011-11-30T10:08:43Z</time></trkpt><trkpt lat="42.588598" lon="-2.585248"><ele>924.0</ele><time>2011-11-30T10:08:44Z</time></trkpt><trkpt lat="42.588597" lon="-2.585240"><ele>924.0</ele><time>2011-11-30T10:08:45Z</time></trkpt><trkpt lat="42.588598" lon="-2.585223"><ele>924.5</ele><time>2011-11-30T10:08:46Z</time></trkpt><trkpt lat="42.588600" lon="-2.585212"><ele>924.5</ele><time>2011-11-30T10:08:47Z</time></trkpt><trkpt lat="42.588603" lon="-2.585203"><ele>924.5</ele><time>2011-11-30T10:08:48Z</time></trkpt><trkpt lat="42.588608" lon="-2.585187"><ele>925.5</ele><time>2011-11-30T10:08:49Z</time></trkpt><trkpt lat="42.588612" lon="-2.585173"><ele>926.0</ele><time>2011-11-30T10:08:50Z</time></trkpt><trkpt lat="42.588618" lon="-2.585167"><ele>926.5</ele><time>2011-11-30T10:08:51Z</time></trkpt><trkpt lat="42.588625" lon="-2.585155"><ele>927.5</ele><time>2011-11-30T10:08:52Z</time></trkpt><trkpt lat="42.588632" lon="-2.585153"><ele>928.0</ele><time>2011-11-30T10:08:53Z</time></trkpt><trkpt lat="42.588637" lon="-2.585148"><ele>928.0</ele><time>2011-11-30T10:08:54Z</time></trkpt><trkpt lat="42.588645" lon="-2.585145"><ele>928.5</ele><time>2011-11-30T10:08:55Z</time></trkpt><trkpt lat="42.588648" lon="-2.585145"><ele>929.0</ele><time>2011-11-30T10:08:56Z</time></trkpt><trkpt lat="42.588652" lon="-2.585153"><ele>930.0</ele><time>2011-11-30T10:08:57Z</time></trkpt><trkpt lat="42.588658" lon="-2.585152"><ele>930.5</ele><time>2011-11-30T10:08:58Z</time></trkpt><trkpt lat="42.588670" lon="-2.585148"><ele>932.0</ele><time>2011-11-30T10:08:59Z</time></trkpt><trkpt lat="42.588680" lon="-2.585148"><ele>932.0</ele><time>2011-11-30T10:09:00Z</time></trkpt><trkpt lat="42.588690" lon="-2.585140"><ele>931.5</ele><time>2011-11-30T10:09:01Z</time></trkpt><trkpt lat="42.588698" lon="-2.585137"><ele>931.5</ele><time>2011-11-30T10:09:02Z</time></trkpt><trkpt lat="42.588707" lon="-2.585135"><ele>931.5</ele><time>2011-11-30T10:09:03Z</time></trkpt><trkpt lat="42.588715" lon="-2.585127"><ele>931.5</ele><time>2011-11-30T10:09:04Z</time></trkpt><trkpt lat="42.588732" lon="-2.585125"><ele>935.0</ele><time>2011-11-30T10:09:05Z</time></trkpt><trkpt lat="42.588757" lon="-2.585120"><ele>936.0</ele><time>2011-11-30T10:09:06Z</time></trkpt><trkpt lat="42.588768" lon="-2.585117"><ele>935.0</ele><time>2011-11-30T10:09:07Z</time></trkpt><trkpt lat="42.588777" lon="-2.585112"><ele>934.5</ele><time>2011-11-30T10:09:08Z</time></trkpt><trkpt lat="42.588787" lon="-2.585108"><ele>934.0</ele><time>2011-11-30T10:09:09Z</time></trkpt><trkpt lat="42.588795" lon="-2.585108"><ele>934.5</ele><time>2011-11-30T10:09:10Z</time></trkpt><trkpt lat="42.588802" lon="-2.585110"><ele>935.5</ele><time>2011-11-30T10:09:11Z</time></trkpt><trkpt lat="42.588797" lon="-2.585122"><ele>936.0</ele><time>2011-11-30T10:09:12Z</time></trkpt><trkpt lat="42.588803" lon="-2.585122"><ele>935.5</ele><time>2011-11-30T10:09:13Z</time></trkpt><trkpt lat="42.588807" lon="-2.585123"><ele>936.0</ele><time>2011-11-30T10:09:14Z</time></trkpt><trkpt lat="42.588813" lon="-2.585128"><ele>938.5</ele><time>2011-11-30T10:09:15Z</time></trkpt><trkpt lat="42.588818" lon="-2.585130"><ele>939.5</ele><time>2011-11-30T10:09:16Z</time></trkpt><trkpt lat="42.588832" lon="-2.585127"><ele>940.0</ele><time>2011-11-30T10:09:17Z</time></trkpt><trkpt lat="42.588840" lon="-2.585125"><ele>940.5</ele><time>2011-11-30T10:09:18Z</time></trkpt><trkpt lat="42.588850" lon="-2.585123"><ele>940.5</ele><time>2011-11-30T10:09:19Z</time></trkpt><trkpt lat="42.588870" lon="-2.585115"><ele>940.5</ele><time>2011-11-30T10:09:20Z</time></trkpt><trkpt lat="42.588887" lon="-2.585100"><ele>939.5</ele><time>2011-11-30T10:09:21Z</time></trkpt><trkpt lat="42.588900" lon="-2.585095"><ele>939.5</ele><time>2011-11-30T10:09:22Z</time></trkpt><trkpt lat="42.588912" lon="-2.585088"><ele>939.0</ele><time>2011-11-30T10:09:23Z</time></trkpt><trkpt lat="42.588923" lon="-2.585082"><ele>938.5</ele><time>2011-11-30T10:09:24Z</time></trkpt><trkpt lat="42.588938" lon="-2.585077"><ele>938.5</ele><time>2011-11-30T10:09:25Z</time></trkpt><trkpt lat="42.588943" lon="-2.585068"><ele>938.0</ele><time>2011-11-30T10:09:26Z</time></trkpt><trkpt lat="42.588953" lon="-2.585063"><ele>938.0</ele><time>2011-11-30T10:09:27Z</time></trkpt><trkpt lat="42.588963" lon="-2.585058"><ele>938.0</ele><time>2011-11-30T10:09:28Z</time></trkpt><trkpt lat="42.588973" lon="-2.585052"><ele>938.0</ele><time>2011-11-30T10:09:29Z</time></trkpt><trkpt lat="42.588982" lon="-2.585043"><ele>938.0</ele><time>2011-11-30T10:09:30Z</time></trkpt><trkpt lat="42.588992" lon="-2.585035"><ele>938.0</ele><time>2011-11-30T10:09:31Z</time></trkpt><trkpt lat="42.589003" lon="-2.585030"><ele>938.5</ele><time>2011-11-30T10:09:32Z</time></trkpt><trkpt lat="42.589015" lon="-2.585023"><ele>939.0</ele><time>2011-11-30T10:09:33Z</time></trkpt><trkpt lat="42.589025" lon="-2.585013"><ele>939.0</ele><time>2011-11-30T10:09:34Z</time></trkpt><trkpt lat="42.589035" lon="-2.585008"><ele>939.5</ele><time>2011-11-30T10:09:35Z</time></trkpt><trkpt lat="42.589047" lon="-2.585000"><ele>939.5</ele><time>2011-11-30T10:09:36Z</time></trkpt><trkpt lat="42.589065" lon="-2.584995"><ele>941.0</ele><time>2011-11-30T10:09:37Z</time></trkpt><trkpt lat="42.589075" lon="-2.584987"><ele>941.5</ele><time>2011-11-30T10:09:38Z</time></trkpt><trkpt lat="42.589090" lon="-2.584980"><ele>942.0</ele><time>2011-11-30T10:09:39Z</time></trkpt><trkpt lat="42.589098" lon="-2.584975"><ele>942.0</ele><time>2011-11-30T10:09:40Z</time></trkpt><trkpt lat="42.589103" lon="-2.584967"><ele>942.0</ele><time>2011-11-30T10:09:41Z</time></trkpt><trkpt lat="42.589113" lon="-2.584958"><ele>943.0</ele><time>2011-11-30T10:09:42Z</time></trkpt><trkpt lat="42.589120" lon="-2.584950"><ele>943.0</ele><time>2011-11-30T10:09:43Z</time></trkpt><trkpt lat="42.589133" lon="-2.584942"><ele>944.0</ele><time>2011-11-30T10:09:44Z</time></trkpt><trkpt lat="42.589145" lon="-2.584933"><ele>944.0</ele><time>2011-11-30T10:09:45Z</time></trkpt><trkpt lat="42.589162" lon="-2.584928"><ele>943.5</ele><time>2011-11-30T10:09:46Z</time></trkpt><trkpt lat="42.589173" lon="-2.584923"><ele>943.0</ele><time>2011-11-30T10:09:47Z</time></trkpt><trkpt lat="42.589183" lon="-2.584918"><ele>943.0</ele><time>2011-11-30T10:09:48Z</time></trkpt><trkpt lat="42.589197" lon="-2.584915"><ele>942.5</ele><time>2011-11-30T10:09:49Z</time></trkpt><trkpt lat="42.589207" lon="-2.584910"><ele>942.5</ele><time>2011-11-30T10:09:50Z</time></trkpt><trkpt lat="42.589218" lon="-2.584902"><ele>942.5</ele><time>2011-11-30T10:09:51Z</time></trkpt><trkpt lat="42.589227" lon="-2.584897"><ele>942.5</ele><time>2011-11-30T10:09:52Z</time></trkpt><trkpt lat="42.589238" lon="-2.584892"><ele>942.5</ele><time>2011-11-30T10:09:53Z</time></trkpt><trkpt lat="42.589248" lon="-2.584883"><ele>942.5</ele><time>2011-11-30T10:09:54Z</time></trkpt><trkpt lat="42.589255" lon="-2.584877"><ele>942.5</ele><time>2011-11-30T10:09:55Z</time></trkpt><trkpt lat="42.589262" lon="-2.584872"><ele>942.5</ele><time>2011-11-30T10:09:56Z</time></trkpt><trkpt lat="42.589268" lon="-2.584862"><ele>942.5</ele><time>2011-11-30T10:09:57Z</time></trkpt><trkpt lat="42.589278" lon="-2.584848"><ele>943.0</ele><time>2011-11-30T10:09:58Z</time></trkpt><trkpt lat="42.589285" lon="-2.584838"><ele>942.5</ele><time>2011-11-30T10:09:59Z</time></trkpt><trkpt lat="42.589293" lon="-2.584828"><ele>943.0</ele><time>2011-11-30T10:10:00Z</time></trkpt><trkpt lat="42.589295" lon="-2.584818"><ele>942.5</ele><time>2011-11-30T10:10:01Z</time></trkpt><trkpt lat="42.589302" lon="-2.584808"><ele>942.0</ele><time>2011-11-30T10:10:02Z</time></trkpt><trkpt lat="42.589308" lon="-2.584798"><ele>942.0</ele><time>2011-11-30T10:10:03Z</time></trkpt><trkpt lat="42.589312" lon="-2.584788"><ele>941.5</ele><time>2011-11-30T10:10:04Z</time></trkpt><trkpt lat="42.589317" lon="-2.584772"><ele>941.5</ele><time>2011-11-30T10:10:05Z</time></trkpt><trkpt lat="42.589322" lon="-2.584758"><ele>941.5</ele><time>2011-11-30T10:10:06Z</time></trkpt><trkpt lat="42.589325" lon="-2.584748"><ele>941.5</ele><time>2011-11-30T10:10:07Z</time></trkpt><trkpt lat="42.589327" lon="-2.584737"><ele>941.0</ele><time>2011-11-30T10:10:08Z</time></trkpt><trkpt lat="42.589332" lon="-2.584727"><ele>940.5</ele><time>2011-11-30T10:10:09Z</time></trkpt><trkpt lat="42.589333" lon="-2.584717"><ele>940.5</ele><time>2011-11-30T10:10:10Z</time></trkpt><trkpt lat="42.589335" lon="-2.584707"><ele>939.5</ele><time>2011-11-30T10:10:11Z</time></trkpt><trkpt lat="42.589338" lon="-2.584693"><ele>939.5</ele><time>2011-11-30T10:10:12Z</time></trkpt><trkpt lat="42.589342" lon="-2.584685"><ele>939.5</ele><time>2011-11-30T10:10:13Z</time></trkpt><trkpt lat="42.589348" lon="-2.584673"><ele>939.0</ele><time>2011-11-30T10:10:14Z</time></trkpt><trkpt lat="42.589352" lon="-2.584665"><ele>939.0</ele><time>2011-11-30T10:10:15Z</time></trkpt><trkpt lat="42.589357" lon="-2.584653"><ele>939.0</ele><time>2011-11-30T10:10:16Z</time></trkpt><trkpt lat="42.589358" lon="-2.584640"><ele>938.5</ele><time>2011-11-30T10:10:17Z</time></trkpt><trkpt lat="42.589360" lon="-2.584625"><ele>938.5</ele><time>2011-11-30T10:10:18Z</time></trkpt><trkpt lat="42.589363" lon="-2.584612"><ele>939.0</ele><time>2011-11-30T10:10:19Z</time></trkpt><trkpt lat="42.589367" lon="-2.584587"><ele>939.5</ele><time>2011-11-30T10:10:20Z</time></trkpt><trkpt lat="42.589367" lon="-2.584573"><ele>939.5</ele><time>2011-11-30T10:10:21Z</time></trkpt><trkpt lat="42.589370" lon="-2.584563"><ele>939.5</ele><time>2011-11-30T10:10:22Z</time></trkpt><trkpt lat="42.589378" lon="-2.584535"><ele>939.5</ele><time>2011-11-30T10:10:24Z</time></trkpt><trkpt lat="42.589380" lon="-2.584520"><ele>939.5</ele><time>2011-11-30T10:10:25Z</time></trkpt><trkpt lat="42.589382" lon="-2.584507"><ele>939.5</ele><time>2011-11-30T10:10:26Z</time></trkpt><trkpt lat="42.589390" lon="-2.584487"><ele>938.5</ele><time>2011-11-30T10:10:28Z</time></trkpt><trkpt lat="42.589392" lon="-2.584472"><ele>938.5</ele><time>2011-11-30T10:10:29Z</time></trkpt><trkpt lat="42.589397" lon="-2.584455"><ele>938.5</ele><time>2011-11-30T10:10:30Z</time></trkpt><trkpt lat="42.589400" lon="-2.584443"><ele>938.5</ele><time>2011-11-30T10:10:31Z</time></trkpt><trkpt lat="42.589402" lon="-2.584430"><ele>938.5</ele><time>2011-11-30T10:10:32Z</time></trkpt><trkpt lat="42.589403" lon="-2.584418"><ele>938.0</ele><time>2011-11-30T10:10:33Z</time></trkpt><trkpt lat="42.589407" lon="-2.584403"><ele>938.0</ele><time>2011-11-30T10:10:34Z</time></trkpt><trkpt lat="42.589410" lon="-2.584392"><ele>938.0</ele><time>2011-11-30T10:10:35Z</time></trkpt><trkpt lat="42.589412" lon="-2.584382"><ele>938.0</ele><time>2011-11-30T10:10:36Z</time></trkpt><trkpt lat="42.589418" lon="-2.584372"><ele>938.0</ele><time>2011-11-30T10:10:37Z</time></trkpt><trkpt lat="42.589425" lon="-2.584357"><ele>937.0</ele><time>2011-11-30T10:10:38Z</time></trkpt><trkpt lat="42.589433" lon="-2.584343"><ele>936.5</ele><time>2011-11-30T10:10:39Z</time></trkpt><trkpt lat="42.589437" lon="-2.584332"><ele>936.5</ele><time>2011-11-30T10:10:40Z</time></trkpt><trkpt lat="42.589442" lon="-2.584317"><ele>937.0</ele><time>2011-11-30T10:10:41Z</time></trkpt><trkpt lat="42.589447" lon="-2.584312"><ele>936.5</ele><time>2011-11-30T10:10:42Z</time></trkpt><trkpt lat="42.589437" lon="-2.584288"><ele>936.5</ele><time>2011-11-30T10:10:43Z</time></trkpt><trkpt lat="42.589440" lon="-2.584273"><ele>937.0</ele><time>2011-11-30T10:10:44Z</time></trkpt><trkpt lat="42.589440" lon="-2.584262"><ele>936.5</ele><time>2011-11-30T10:10:45Z</time></trkpt><trkpt lat="42.589445" lon="-2.584247"><ele>937.0</ele><time>2011-11-30T10:10:46Z</time></trkpt><trkpt lat="42.589448" lon="-2.584233"><ele>937.0</ele><time>2011-11-30T10:10:47Z</time></trkpt><trkpt lat="42.589450" lon="-2.584222"><ele>936.5</ele><time>2011-11-30T10:10:48Z</time></trkpt><trkpt lat="42.589455" lon="-2.584213"><ele>936.5</ele><time>2011-11-30T10:10:49Z</time></trkpt><trkpt lat="42.589458" lon="-2.584202"><ele>936.5</ele><time>2011-11-30T10:10:50Z</time></trkpt><trkpt lat="42.589458" lon="-2.584185"><ele>936.5</ele><time>2011-11-30T10:10:51Z</time></trkpt><trkpt lat="42.589458" lon="-2.584168"><ele>937.0</ele><time>2011-11-30T10:10:52Z</time></trkpt><trkpt lat="42.589460" lon="-2.584153"><ele>937.0</ele><time>2011-11-30T10:10:53Z</time></trkpt><trkpt lat="42.589462" lon="-2.584138"><ele>937.0</ele><time>2011-11-30T10:10:54Z</time></trkpt><trkpt lat="42.589463" lon="-2.584122"><ele>937.5</ele><time>2011-11-30T10:10:55Z</time></trkpt><trkpt lat="42.589467" lon="-2.584107"><ele>937.5</ele><time>2011-11-30T10:10:56Z</time></trkpt><trkpt lat="42.589472" lon="-2.584080"><ele>938.0</ele><time>2011-11-30T10:10:58Z</time></trkpt><trkpt lat="42.589475" lon="-2.584065"><ele>938.0</ele><time>2011-11-30T10:10:59Z</time></trkpt><trkpt lat="42.589478" lon="-2.584047"><ele>938.5</ele><time>2011-11-30T10:11:00Z</time></trkpt><trkpt lat="42.589482" lon="-2.584032"><ele>939.0</ele><time>2011-11-30T10:11:01Z</time></trkpt><trkpt lat="42.589483" lon="-2.584018"><ele>939.0</ele><time>2011-11-30T10:11:02Z</time></trkpt><trkpt lat="42.589490" lon="-2.584002"><ele>940.0</ele><time>2011-11-30T10:11:03Z</time></trkpt><trkpt lat="42.589492" lon="-2.583988"><ele>940.0</ele><time>2011-11-30T10:11:04Z</time></trkpt><trkpt lat="42.589495" lon="-2.583975"><ele>940.0</ele><time>2011-11-30T10:11:05Z</time></trkpt><trkpt lat="42.589498" lon="-2.583965"><ele>940.5</ele><time>2011-11-30T10:11:06Z</time></trkpt><trkpt lat="42.589502" lon="-2.583952"><ele>941.0</ele><time>2011-11-30T10:11:07Z</time></trkpt><trkpt lat="42.589508" lon="-2.583940"><ele>941.5</ele><time>2011-11-30T10:11:08Z</time></trkpt><trkpt lat="42.589510" lon="-2.583927"><ele>941.5</ele><time>2011-11-30T10:11:09Z</time></trkpt><trkpt lat="42.589515" lon="-2.583915"><ele>941.5</ele><time>2011-11-30T10:11:10Z</time></trkpt><trkpt lat="42.589518" lon="-2.583903"><ele>942.0</ele><time>2011-11-30T10:11:11Z</time></trkpt><trkpt lat="42.589520" lon="-2.583892"><ele>942.0</ele><time>2011-11-30T10:11:12Z</time></trkpt><trkpt lat="42.589525" lon="-2.583878"><ele>941.5</ele><time>2011-11-30T10:11:13Z</time></trkpt><trkpt lat="42.589528" lon="-2.583865"><ele>941.5</ele><time>2011-11-30T10:11:14Z</time></trkpt><trkpt lat="42.589530" lon="-2.583853"><ele>941.5</ele><time>2011-11-30T10:11:15Z</time></trkpt><trkpt lat="42.589533" lon="-2.583842"><ele>941.5</ele><time>2011-11-30T10:11:16Z</time></trkpt><trkpt lat="42.589540" lon="-2.583830"><ele>941.5</ele><time>2011-11-30T10:11:17Z</time></trkpt><trkpt lat="42.589542" lon="-2.583820"><ele>941.5</ele><time>2011-11-30T10:11:18Z</time></trkpt><trkpt lat="42.589545" lon="-2.583812"><ele>941.5</ele><time>2011-11-30T10:11:19Z</time></trkpt><trkpt lat="42.589550" lon="-2.583802"><ele>941.5</ele><time>2011-11-30T10:11:20Z</time></trkpt><trkpt lat="42.589553" lon="-2.583792"><ele>941.5</ele><time>2011-11-30T10:11:21Z</time></trkpt><trkpt lat="42.589557" lon="-2.583783"><ele>941.5</ele><time>2011-11-30T10:11:22Z</time></trkpt><trkpt lat="42.589558" lon="-2.583772"><ele>941.5</ele><time>2011-11-30T10:11:23Z</time></trkpt><trkpt lat="42.589563" lon="-2.583762"><ele>941.5</ele><time>2011-11-30T10:11:24Z</time></trkpt><trkpt lat="42.589568" lon="-2.583752"><ele>942.0</ele><time>2011-11-30T10:11:25Z</time></trkpt><trkpt lat="42.589570" lon="-2.583742"><ele>942.0</ele><time>2011-11-30T10:11:26Z</time></trkpt><trkpt lat="42.589570" lon="-2.583730"><ele>942.0</ele><time>2011-11-30T10:11:27Z</time></trkpt><trkpt lat="42.589577" lon="-2.583720"><ele>942.0</ele><time>2011-11-30T10:11:28Z</time></trkpt><trkpt lat="42.589582" lon="-2.583712"><ele>942.5</ele><time>2011-11-30T10:11:29Z</time></trkpt><trkpt lat="42.589588" lon="-2.583700"><ele>942.0</ele><time>2011-11-30T10:11:30Z</time></trkpt><trkpt lat="42.589597" lon="-2.583688"><ele>942.5</ele><time>2011-11-30T10:11:31Z</time></trkpt><trkpt lat="42.589603" lon="-2.583677"><ele>942.5</ele><time>2011-11-30T10:11:32Z</time></trkpt><trkpt lat="42.589610" lon="-2.583665"><ele>942.5</ele><time>2011-11-30T10:11:33Z</time></trkpt><trkpt lat="42.589612" lon="-2.583655"><ele>942.5</ele><time>2011-11-30T10:11:34Z</time></trkpt><trkpt lat="42.589617" lon="-2.583645"><ele>942.5</ele><time>2011-11-30T10:11:35Z</time></trkpt><trkpt lat="42.589620" lon="-2.583633"><ele>942.5</ele><time>2011-11-30T10:11:36Z</time></trkpt><trkpt lat="42.589625" lon="-2.583622"><ele>942.5</ele><time>2011-11-30T10:11:37Z</time></trkpt><trkpt lat="42.589628" lon="-2.583610"><ele>942.5</ele><time>2011-11-30T10:11:38Z</time></trkpt><trkpt lat="42.589632" lon="-2.583598"><ele>942.5</ele><time>2011-11-30T10:11:39Z</time></trkpt><trkpt lat="42.589635" lon="-2.583590"><ele>942.5</ele><time>2011-11-30T10:11:40Z</time></trkpt><trkpt lat="42.589640" lon="-2.583580"><ele>942.5</ele><time>2011-11-30T10:11:41Z</time></trkpt><trkpt lat="42.589648" lon="-2.583563"><ele>943.0</ele><time>2011-11-30T10:11:42Z</time></trkpt><trkpt lat="42.589655" lon="-2.583550"><ele>943.5</ele><time>2011-11-30T10:11:43Z</time></trkpt><trkpt lat="42.589660" lon="-2.583538"><ele>944.0</ele><time>2011-11-30T10:11:44Z</time></trkpt><trkpt lat="42.589662" lon="-2.583527"><ele>944.5</ele><time>2011-11-30T10:11:45Z</time></trkpt><trkpt lat="42.589667" lon="-2.583517"><ele>945.0</ele><time>2011-11-30T10:11:46Z</time></trkpt><trkpt lat="42.589673" lon="-2.583507"><ele>945.0</ele><time>2011-11-30T10:11:47Z</time></trkpt><trkpt lat="42.589678" lon="-2.583497"><ele>944.5</ele><time>2011-11-30T10:11:48Z</time></trkpt><trkpt lat="42.589678" lon="-2.583487"><ele>944.5</ele><time>2011-11-30T10:11:49Z</time></trkpt><trkpt lat="42.589677" lon="-2.583475"><ele>944.5</ele><time>2011-11-30T10:11:50Z</time></trkpt><trkpt lat="42.589680" lon="-2.583465"><ele>944.0</ele><time>2011-11-30T10:11:51Z</time></trkpt><trkpt lat="42.589682" lon="-2.583455"><ele>944.0</ele><time>2011-11-30T10:11:52Z</time></trkpt><trkpt lat="42.589685" lon="-2.583443"><ele>944.0</ele><time>2011-11-30T10:11:53Z</time></trkpt><trkpt lat="42.589688" lon="-2.583435"><ele>943.5</ele><time>2011-11-30T10:11:54Z</time></trkpt><trkpt lat="42.589693" lon="-2.583425"><ele>943.5</ele><time>2011-11-30T10:11:55Z</time></trkpt><trkpt lat="42.589695" lon="-2.583417"><ele>943.5</ele><time>2011-11-30T10:11:56Z</time></trkpt><trkpt lat="42.589700" lon="-2.583408"><ele>943.5</ele><time>2011-11-30T10:11:57Z</time></trkpt><trkpt lat="42.589703" lon="-2.583402"><ele>943.0</ele><time>2011-11-30T10:11:58Z</time></trkpt><trkpt lat="42.589710" lon="-2.583392"><ele>943.5</ele><time>2011-11-30T10:11:59Z</time></trkpt><trkpt lat="42.589713" lon="-2.583383"><ele>943.5</ele><time>2011-11-30T10:12:00Z</time></trkpt><trkpt lat="42.589717" lon="-2.583373"><ele>943.5</ele><time>2011-11-30T10:12:01Z</time></trkpt><trkpt lat="42.589717" lon="-2.583367"><ele>943.5</ele><time>2011-11-30T10:12:02Z</time></trkpt><trkpt lat="42.589722" lon="-2.583357"><ele>943.5</ele><time>2011-11-30T10:12:03Z</time></trkpt><trkpt lat="42.589727" lon="-2.583347"><ele>943.5</ele><time>2011-11-30T10:12:04Z</time></trkpt><trkpt lat="42.589725" lon="-2.583338"><ele>943.5</ele><time>2011-11-30T10:12:05Z</time></trkpt><trkpt lat="42.589728" lon="-2.583327"><ele>943.5</ele><time>2011-11-30T10:12:06Z</time></trkpt><trkpt lat="42.589732" lon="-2.583317"><ele>944.0</ele><time>2011-11-30T10:12:07Z</time></trkpt><trkpt lat="42.589735" lon="-2.583303"><ele>944.0</ele><time>2011-11-30T10:12:08Z</time></trkpt><trkpt lat="42.589737" lon="-2.583293"><ele>944.0</ele><time>2011-11-30T10:12:09Z</time></trkpt><trkpt lat="42.589740" lon="-2.583283"><ele>944.0</ele><time>2011-11-30T10:12:10Z</time></trkpt><trkpt lat="42.589743" lon="-2.583272"><ele>944.5</ele><time>2011-11-30T10:12:11Z</time></trkpt><trkpt lat="42.589747" lon="-2.583262"><ele>945.0</ele><time>2011-11-30T10:12:12Z</time></trkpt><trkpt lat="42.589750" lon="-2.583252"><ele>945.0</ele><time>2011-11-30T10:12:13Z</time></trkpt><trkpt lat="42.589757" lon="-2.583242"><ele>945.0</ele><time>2011-11-30T10:12:14Z</time></trkpt><trkpt lat="42.589765" lon="-2.583232"><ele>945.5</ele><time>2011-11-30T10:12:15Z</time></trkpt><trkpt lat="42.589768" lon="-2.583222"><ele>945.5</ele><time>2011-11-30T10:12:16Z</time></trkpt><trkpt lat="42.589772" lon="-2.583208"><ele>946.0</ele><time>2011-11-30T10:12:17Z</time></trkpt><trkpt lat="42.589780" lon="-2.583195"><ele>946.0</ele><time>2011-11-30T10:12:18Z</time></trkpt><trkpt lat="42.589787" lon="-2.583180"><ele>945.5</ele><time>2011-11-30T10:12:19Z</time></trkpt><trkpt lat="42.589790" lon="-2.583168"><ele>945.5</ele><time>2011-11-30T10:12:20Z</time></trkpt><trkpt lat="42.589798" lon="-2.583157"><ele>946.0</ele><time>2011-11-30T10:12:21Z</time></trkpt><trkpt lat="42.589803" lon="-2.583143"><ele>946.5</ele><time>2011-11-30T10:12:22Z</time></trkpt><trkpt lat="42.589808" lon="-2.583132"><ele>947.0</ele><time>2011-11-30T10:12:23Z</time></trkpt><trkpt lat="42.589813" lon="-2.583122"><ele>947.0</ele><time>2011-11-30T10:12:24Z</time></trkpt><trkpt lat="42.589818" lon="-2.583112"><ele>947.5</ele><time>2011-11-30T10:12:25Z</time></trkpt><trkpt lat="42.589822" lon="-2.583102"><ele>947.5</ele><time>2011-11-30T10:12:26Z</time></trkpt><trkpt lat="42.589823" lon="-2.583092"><ele>948.0</ele><time>2011-11-30T10:12:27Z</time></trkpt><trkpt lat="42.589827" lon="-2.583082"><ele>948.0</ele><time>2011-11-30T10:12:28Z</time></trkpt><trkpt lat="42.589828" lon="-2.583073"><ele>948.0</ele><time>2011-11-30T10:12:29Z</time></trkpt><trkpt lat="42.589833" lon="-2.583062"><ele>948.0</ele><time>2011-11-30T10:12:30Z</time></trkpt><trkpt lat="42.589837" lon="-2.583053"><ele>948.5</ele><time>2011-11-30T10:12:31Z</time></trkpt><trkpt lat="42.589840" lon="-2.583043"><ele>949.0</ele><time>2011-11-30T10:12:32Z</time></trkpt><trkpt lat="42.589845" lon="-2.583033"><ele>949.0</ele><time>2011-11-30T10:12:33Z</time></trkpt><trkpt lat="42.589848" lon="-2.583025"><ele>949.5</ele><time>2011-11-30T10:12:34Z</time></trkpt><trkpt lat="42.589855" lon="-2.583017"><ele>949.5</ele><time>2011-11-30T10:12:35Z</time></trkpt><trkpt lat="42.589862" lon="-2.583008"><ele>950.0</ele><time>2011-11-30T10:12:36Z</time></trkpt><trkpt lat="42.589868" lon="-2.583000"><ele>950.0</ele><time>2011-11-30T10:12:37Z</time></trkpt><trkpt lat="42.589872" lon="-2.582990"><ele>950.0</ele><time>2011-11-30T10:12:38Z</time></trkpt><trkpt lat="42.589875" lon="-2.582978"><ele>950.0</ele><time>2011-11-30T10:12:39Z</time></trkpt><trkpt lat="42.589878" lon="-2.582968"><ele>950.5</ele><time>2011-11-30T10:12:40Z</time></trkpt><trkpt lat="42.589882" lon="-2.582958"><ele>950.5</ele><time>2011-11-30T10:12:41Z</time></trkpt><trkpt lat="42.589887" lon="-2.582950"><ele>950.5</ele><time>2011-11-30T10:12:42Z</time></trkpt><trkpt lat="42.589888" lon="-2.582940"><ele>950.5</ele><time>2011-11-30T10:12:43Z</time></trkpt><trkpt lat="42.589890" lon="-2.582928"><ele>950.5</ele><time>2011-11-30T10:12:44Z</time></trkpt><trkpt lat="42.589893" lon="-2.582918"><ele>951.0</ele><time>2011-11-30T10:12:45Z</time></trkpt><trkpt lat="42.589895" lon="-2.582907"><ele>951.0</ele><time>2011-11-30T10:12:46Z</time></trkpt><trkpt lat="42.589902" lon="-2.582893"><ele>951.0</ele><time>2011-11-30T10:12:47Z</time></trkpt><trkpt lat="42.589908" lon="-2.582882"><ele>951.5</ele><time>2011-11-30T10:12:48Z</time></trkpt><trkpt lat="42.589918" lon="-2.582867"><ele>951.5</ele><time>2011-11-30T10:12:49Z</time></trkpt><trkpt lat="42.589920" lon="-2.582847"><ele>950.5</ele><time>2011-11-30T10:12:50Z</time></trkpt><trkpt lat="42.589920" lon="-2.582837"><ele>950.0</ele><time>2011-11-30T10:12:51Z</time></trkpt><trkpt lat="42.589925" lon="-2.582823"><ele>950.5</ele><time>2011-11-30T10:12:52Z</time></trkpt><trkpt lat="42.589928" lon="-2.582810"><ele>950.5</ele><time>2011-11-30T10:12:53Z</time></trkpt><trkpt lat="42.589930" lon="-2.582800"><ele>951.0</ele><time>2011-11-30T10:12:54Z</time></trkpt><trkpt lat="42.589937" lon="-2.582790"><ele>951.0</ele><time>2011-11-30T10:12:55Z</time></trkpt><trkpt lat="42.589940" lon="-2.582778"><ele>950.5</ele><time>2011-11-30T10:12:56Z</time></trkpt><trkpt lat="42.589945" lon="-2.582785"><ele>949.5</ele><time>2011-11-30T10:12:57Z</time></trkpt><trkpt lat="42.589948" lon="-2.582775"><ele>949.5</ele><time>2011-11-30T10:12:58Z</time></trkpt><trkpt lat="42.589952" lon="-2.582762"><ele>949.5</ele><time>2011-11-30T10:12:59Z</time></trkpt><trkpt lat="42.589953" lon="-2.582747"><ele>950.0</ele><time>2011-11-30T10:13:00Z</time></trkpt><trkpt lat="42.589953" lon="-2.582735"><ele>950.5</ele><time>2011-11-30T10:13:01Z</time></trkpt><trkpt lat="42.589957" lon="-2.582722"><ele>950.5</ele><time>2011-11-30T10:13:02Z</time></trkpt><trkpt lat="42.589957" lon="-2.582710"><ele>951.0</ele><time>2011-11-30T10:13:03Z</time></trkpt><trkpt lat="42.589960" lon="-2.582700"><ele>950.5</ele><time>2011-11-30T10:13:04Z</time></trkpt><trkpt lat="42.589962" lon="-2.582683"><ele>951.0</ele><time>2011-11-30T10:13:05Z</time></trkpt><trkpt lat="42.589963" lon="-2.582672"><ele>951.5</ele><time>2011-11-30T10:13:06Z</time></trkpt><trkpt lat="42.589965" lon="-2.582662"><ele>951.5</ele><time>2011-11-30T10:13:07Z</time></trkpt><trkpt lat="42.589967" lon="-2.582652"><ele>951.0</ele><time>2011-11-30T10:13:08Z</time></trkpt><trkpt lat="42.589967" lon="-2.582635"><ele>952.0</ele><time>2011-11-30T10:13:09Z</time></trkpt><trkpt lat="42.589968" lon="-2.582618"><ele>952.0</ele><time>2011-11-30T10:13:10Z</time></trkpt><trkpt lat="42.589968" lon="-2.582607"><ele>952.0</ele><time>2011-11-30T10:13:11Z</time></trkpt><trkpt lat="42.589972" lon="-2.582595"><ele>952.0</ele><time>2011-11-30T10:13:12Z</time></trkpt><trkpt lat="42.589975" lon="-2.582585"><ele>952.0</ele><time>2011-11-30T10:13:13Z</time></trkpt><trkpt lat="42.589980" lon="-2.582573"><ele>952.0</ele><time>2011-11-30T10:13:14Z</time></trkpt><trkpt lat="42.589985" lon="-2.582557"><ele>951.5</ele><time>2011-11-30T10:13:15Z</time></trkpt><trkpt lat="42.589988" lon="-2.582547"><ele>951.5</ele><time>2011-11-30T10:13:16Z</time></trkpt><trkpt lat="42.589992" lon="-2.582535"><ele>951.5</ele><time>2011-11-30T10:13:17Z</time></trkpt><trkpt lat="42.589993" lon="-2.582523"><ele>952.0</ele><time>2011-11-30T10:13:18Z</time></trkpt><trkpt lat="42.589995" lon="-2.582508"><ele>952.0</ele><time>2011-11-30T10:13:19Z</time></trkpt><trkpt lat="42.589998" lon="-2.582498"><ele>952.0</ele><time>2011-11-30T10:13:20Z</time></trkpt><trkpt lat="42.590002" lon="-2.582487"><ele>952.5</ele><time>2011-11-30T10:13:21Z</time></trkpt><trkpt lat="42.590002" lon="-2.582473"><ele>953.0</ele><time>2011-11-30T10:13:22Z</time></trkpt><trkpt lat="42.590003" lon="-2.582460"><ele>952.5</ele><time>2011-11-30T10:13:23Z</time></trkpt><trkpt lat="42.590005" lon="-2.582443"><ele>953.5</ele><time>2011-11-30T10:13:24Z</time></trkpt><trkpt lat="42.590008" lon="-2.582433"><ele>954.0</ele><time>2011-11-30T10:13:25Z</time></trkpt><trkpt lat="42.590010" lon="-2.582420"><ele>954.0</ele><time>2011-11-30T10:13:26Z</time></trkpt><trkpt lat="42.590013" lon="-2.582408"><ele>954.5</ele><time>2011-11-30T10:13:27Z</time></trkpt><trkpt lat="42.590018" lon="-2.582388"><ele>955.5</ele><time>2011-11-30T10:13:28Z</time></trkpt><trkpt lat="42.590022" lon="-2.582377"><ele>955.5</ele><time>2011-11-30T10:13:29Z</time></trkpt><trkpt lat="42.590023" lon="-2.582367"><ele>955.5</ele><time>2011-11-30T10:13:30Z</time></trkpt><trkpt lat="42.590027" lon="-2.582355"><ele>955.5</ele><time>2011-11-30T10:13:31Z</time></trkpt><trkpt lat="42.590030" lon="-2.582347"><ele>956.0</ele><time>2011-11-30T10:13:32Z</time></trkpt><trkpt lat="42.590033" lon="-2.582335"><ele>956.5</ele><time>2011-11-30T10:13:33Z</time></trkpt><trkpt lat="42.590035" lon="-2.582323"><ele>956.5</ele><time>2011-11-30T10:13:34Z</time></trkpt><trkpt lat="42.590043" lon="-2.582312"><ele>956.5</ele><time>2011-11-30T10:13:35Z</time></trkpt><trkpt lat="42.590047" lon="-2.582303"><ele>957.0</ele><time>2011-11-30T10:13:36Z</time></trkpt><trkpt lat="42.590048" lon="-2.582293"><ele>957.5</ele><time>2011-11-30T10:13:37Z</time></trkpt><trkpt lat="42.590057" lon="-2.582280"><ele>958.0</ele><time>2011-11-30T10:13:38Z</time></trkpt><trkpt lat="42.590058" lon="-2.582270"><ele>958.0</ele><time>2011-11-30T10:13:39Z</time></trkpt><trkpt lat="42.590063" lon="-2.582260"><ele>958.5</ele><time>2011-11-30T10:13:40Z</time></trkpt><trkpt lat="42.590065" lon="-2.582248"><ele>959.0</ele><time>2011-11-30T10:13:41Z</time></trkpt><trkpt lat="42.590070" lon="-2.582240"><ele>959.5</ele><time>2011-11-30T10:13:42Z</time></trkpt><trkpt lat="42.590072" lon="-2.582228"><ele>960.0</ele><time>2011-11-30T10:13:43Z</time></trkpt><trkpt lat="42.590073" lon="-2.582218"><ele>960.0</ele><time>2011-11-30T10:13:44Z</time></trkpt><trkpt lat="42.590077" lon="-2.582210"><ele>960.5</ele><time>2011-11-30T10:13:45Z</time></trkpt><trkpt lat="42.590075" lon="-2.582200"><ele>960.5</ele><time>2011-11-30T10:13:46Z</time></trkpt><trkpt lat="42.590073" lon="-2.582188"><ele>960.5</ele><time>2011-11-30T10:13:47Z</time></trkpt><trkpt lat="42.590072" lon="-2.582178"><ele>961.0</ele><time>2011-11-30T10:13:48Z</time></trkpt><trkpt lat="42.590073" lon="-2.582165"><ele>961.5</ele><time>2011-11-30T10:13:49Z</time></trkpt><trkpt lat="42.590080" lon="-2.582152"><ele>962.0</ele><time>2011-11-30T10:13:50Z</time></trkpt><trkpt lat="42.590080" lon="-2.582142"><ele>962.0</ele><time>2011-11-30T10:13:51Z</time></trkpt><trkpt lat="42.590078" lon="-2.582128"><ele>962.0</ele><time>2011-11-30T10:13:52Z</time></trkpt><trkpt lat="42.590077" lon="-2.582113"><ele>962.0</ele><time>2011-11-30T10:13:53Z</time></trkpt><trkpt lat="42.590080" lon="-2.582102"><ele>962.5</ele><time>2011-11-30T10:13:54Z</time></trkpt><trkpt lat="42.590080" lon="-2.582088"><ele>962.5</ele><time>2011-11-30T10:13:55Z</time></trkpt><trkpt lat="42.590080" lon="-2.582075"><ele>962.5</ele><time>2011-11-30T10:13:56Z</time></trkpt><trkpt lat="42.590082" lon="-2.582068"><ele>962.5</ele><time>2011-11-30T10:13:57Z</time></trkpt><trkpt lat="42.590082" lon="-2.582055"><ele>962.0</ele><time>2011-11-30T10:13:58Z</time></trkpt><trkpt lat="42.590082" lon="-2.582043"><ele>962.0</ele><time>2011-11-30T10:13:59Z</time></trkpt><trkpt lat="42.590083" lon="-2.582032"><ele>962.0</ele><time>2011-11-30T10:14:00Z</time></trkpt><trkpt lat="42.590087" lon="-2.582020"><ele>962.0</ele><time>2011-11-30T10:14:01Z</time></trkpt><trkpt lat="42.590087" lon="-2.582008"><ele>962.0</ele><time>2011-11-30T10:14:02Z</time></trkpt><trkpt lat="42.590093" lon="-2.582000"><ele>962.0</ele><time>2011-11-30T10:14:03Z</time></trkpt><trkpt lat="42.590095" lon="-2.581990"><ele>962.0</ele><time>2011-11-30T10:14:04Z</time></trkpt><trkpt lat="42.590097" lon="-2.581978"><ele>962.5</ele><time>2011-11-30T10:14:05Z</time></trkpt><trkpt lat="42.590100" lon="-2.581970"><ele>962.5</ele><time>2011-11-30T10:14:06Z</time></trkpt><trkpt lat="42.590100" lon="-2.581960"><ele>962.0</ele><time>2011-11-30T10:14:07Z</time></trkpt><trkpt lat="42.590105" lon="-2.581950"><ele>962.5</ele><time>2011-11-30T10:14:08Z</time></trkpt><trkpt lat="42.590107" lon="-2.581940"><ele>962.5</ele><time>2011-11-30T10:14:09Z</time></trkpt><trkpt lat="42.590112" lon="-2.581927"><ele>962.5</ele><time>2011-11-30T10:14:10Z</time></trkpt><trkpt lat="42.590113" lon="-2.581917"><ele>963.0</ele><time>2011-11-30T10:14:11Z</time></trkpt><trkpt lat="42.590118" lon="-2.581908"><ele>963.0</ele><time>2011-11-30T10:14:12Z</time></trkpt><trkpt lat="42.590118" lon="-2.581897"><ele>963.0</ele><time>2011-11-30T10:14:13Z</time></trkpt><trkpt lat="42.590122" lon="-2.581885"><ele>963.5</ele><time>2011-11-30T10:14:14Z</time></trkpt><trkpt lat="42.590127" lon="-2.581877"><ele>963.5</ele><time>2011-11-30T10:14:15Z</time></trkpt><trkpt lat="42.590128" lon="-2.581867"><ele>964.0</ele><time>2011-11-30T10:14:16Z</time></trkpt><trkpt lat="42.590137" lon="-2.581852"><ele>964.0</ele><time>2011-11-30T10:14:17Z</time></trkpt><trkpt lat="42.590140" lon="-2.581842"><ele>964.5</ele><time>2011-11-30T10:14:18Z</time></trkpt><trkpt lat="42.590145" lon="-2.581835"><ele>964.5</ele><time>2011-11-30T10:14:19Z</time></trkpt><trkpt lat="42.590148" lon="-2.581823"><ele>965.0</ele><time>2011-11-30T10:14:20Z</time></trkpt><trkpt lat="42.590152" lon="-2.581815"><ele>964.5</ele><time>2011-11-30T10:14:21Z</time></trkpt><trkpt lat="42.590160" lon="-2.581787"><ele>965.5</ele><time>2011-11-30T10:14:22Z</time></trkpt><trkpt lat="42.590163" lon="-2.581778"><ele>965.0</ele><time>2011-11-30T10:14:23Z</time></trkpt><trkpt lat="42.590163" lon="-2.581767"><ele>965.5</ele><time>2011-11-30T10:14:24Z</time></trkpt><trkpt lat="42.590177" lon="-2.581747"><ele>966.0</ele><time>2011-11-30T10:14:25Z</time></trkpt><trkpt lat="42.590182" lon="-2.581735"><ele>966.0</ele><time>2011-11-30T10:14:26Z</time></trkpt><trkpt lat="42.590182" lon="-2.581727"><ele>966.0</ele><time>2011-11-30T10:14:27Z</time></trkpt><trkpt lat="42.590187" lon="-2.581717"><ele>966.5</ele><time>2011-11-30T10:14:28Z</time></trkpt><trkpt lat="42.590192" lon="-2.581707"><ele>967.0</ele><time>2011-11-30T10:14:29Z</time></trkpt><trkpt lat="42.590198" lon="-2.581695"><ele>967.5</ele><time>2011-11-30T10:14:30Z</time></trkpt><trkpt lat="42.590207" lon="-2.581683"><ele>968.0</ele><time>2011-11-30T10:14:31Z</time></trkpt><trkpt lat="42.590208" lon="-2.581672"><ele>968.0</ele><time>2011-11-30T10:14:32Z</time></trkpt><trkpt lat="42.590212" lon="-2.581662"><ele>968.0</ele><time>2011-11-30T10:14:33Z</time></trkpt><trkpt lat="42.590215" lon="-2.581650"><ele>968.0</ele><time>2011-11-30T10:14:34Z</time></trkpt><trkpt lat="42.590217" lon="-2.581640"><ele>968.0</ele><time>2011-11-30T10:14:35Z</time></trkpt><trkpt lat="42.590222" lon="-2.581630"><ele>967.5</ele><time>2011-11-30T10:14:36Z</time></trkpt><trkpt lat="42.590228" lon="-2.581618"><ele>967.5</ele><time>2011-11-30T10:14:37Z</time></trkpt><trkpt lat="42.590235" lon="-2.581605"><ele>968.0</ele><time>2011-11-30T10:14:38Z</time></trkpt><trkpt lat="42.590242" lon="-2.581592"><ele>968.0</ele><time>2011-11-30T10:14:39Z</time></trkpt><trkpt lat="42.590243" lon="-2.581580"><ele>968.5</ele><time>2011-11-30T10:14:40Z</time></trkpt><trkpt lat="42.590250" lon="-2.581570"><ele>968.0</ele><time>2011-11-30T10:14:41Z</time></trkpt><trkpt lat="42.590253" lon="-2.581558"><ele>968.0</ele><time>2011-11-30T10:14:42Z</time></trkpt><trkpt lat="42.590258" lon="-2.581545"><ele>968.0</ele><time>2011-11-30T10:14:43Z</time></trkpt><trkpt lat="42.590263" lon="-2.581535"><ele>968.0</ele><time>2011-11-30T10:14:44Z</time></trkpt><trkpt lat="42.590267" lon="-2.581522"><ele>968.0</ele><time>2011-11-30T10:14:45Z</time></trkpt><trkpt lat="42.590265" lon="-2.581510"><ele>968.0</ele><time>2011-11-30T10:14:46Z</time></trkpt><trkpt lat="42.590270" lon="-2.581500"><ele>968.0</ele><time>2011-11-30T10:14:47Z</time></trkpt><trkpt lat="42.590270" lon="-2.581490"><ele>968.5</ele><time>2011-11-30T10:14:48Z</time></trkpt><trkpt lat="42.590270" lon="-2.581482"><ele>968.5</ele><time>2011-11-30T10:14:49Z</time></trkpt><trkpt lat="42.590273" lon="-2.581470"><ele>969.0</ele><time>2011-11-30T10:14:50Z</time></trkpt><trkpt lat="42.590273" lon="-2.581458"><ele>969.5</ele><time>2011-11-30T10:14:51Z</time></trkpt><trkpt lat="42.590277" lon="-2.581448"><ele>970.0</ele><time>2011-11-30T10:14:52Z</time></trkpt><trkpt lat="42.590282" lon="-2.581440"><ele>970.0</ele><time>2011-11-30T10:14:53Z</time></trkpt><trkpt lat="42.590288" lon="-2.581425"><ele>970.0</ele><time>2011-11-30T10:14:54Z</time></trkpt><trkpt lat="42.590292" lon="-2.581412"><ele>970.5</ele><time>2011-11-30T10:14:55Z</time></trkpt><trkpt lat="42.590295" lon="-2.581400"><ele>970.5</ele><time>2011-11-30T10:14:56Z</time></trkpt><trkpt lat="42.590298" lon="-2.581383"><ele>970.5</ele><time>2011-11-30T10:14:57Z</time></trkpt><trkpt lat="42.590300" lon="-2.581372"><ele>970.5</ele><time>2011-11-30T10:14:58Z</time></trkpt><trkpt lat="42.590303" lon="-2.581358"><ele>970.5</ele><time>2011-11-30T10:14:59Z</time></trkpt><trkpt lat="42.590308" lon="-2.581345"><ele>969.5</ele><time>2011-11-30T10:15:00Z</time></trkpt><trkpt lat="42.590310" lon="-2.581332"><ele>970.0</ele><time>2011-11-30T10:15:01Z</time></trkpt><trkpt lat="42.590313" lon="-2.581322"><ele>970.0</ele><time>2011-11-30T10:15:02Z</time></trkpt><trkpt lat="42.590313" lon="-2.581310"><ele>970.0</ele><time>2011-11-30T10:15:03Z</time></trkpt><trkpt lat="42.590315" lon="-2.581302"><ele>970.0</ele><time>2011-11-30T10:15:04Z</time></trkpt><trkpt lat="42.590318" lon="-2.581285"><ele>970.5</ele><time>2011-11-30T10:15:05Z</time></trkpt><trkpt lat="42.590322" lon="-2.581275"><ele>970.5</ele><time>2011-11-30T10:15:06Z</time></trkpt><trkpt lat="42.590327" lon="-2.581263"><ele>970.5</ele><time>2011-11-30T10:15:07Z</time></trkpt><trkpt lat="42.590330" lon="-2.581253"><ele>971.0</ele><time>2011-11-30T10:15:08Z</time></trkpt><trkpt lat="42.590333" lon="-2.581242"><ele>971.0</ele><time>2011-11-30T10:15:09Z</time></trkpt><trkpt lat="42.590337" lon="-2.581227"><ele>971.0</ele><time>2011-11-30T10:15:10Z</time></trkpt><trkpt lat="42.590342" lon="-2.581215"><ele>971.0</ele><time>2011-11-30T10:15:11Z</time></trkpt><trkpt lat="42.590347" lon="-2.581203"><ele>971.5</ele><time>2011-11-30T10:15:12Z</time></trkpt><trkpt lat="42.590350" lon="-2.581190"><ele>971.5</ele><time>2011-11-30T10:15:13Z</time></trkpt><trkpt lat="42.590350" lon="-2.581178"><ele>971.5</ele><time>2011-11-30T10:15:14Z</time></trkpt><trkpt lat="42.590353" lon="-2.581167"><ele>971.5</ele><time>2011-11-30T10:15:15Z</time></trkpt><trkpt lat="42.590355" lon="-2.581150"><ele>972.0</ele><time>2011-11-30T10:15:16Z</time></trkpt><trkpt lat="42.590357" lon="-2.581137"><ele>972.0</ele><time>2011-11-30T10:15:17Z</time></trkpt><trkpt lat="42.590358" lon="-2.581122"><ele>972.5</ele><time>2011-11-30T10:15:18Z</time></trkpt><trkpt lat="42.590360" lon="-2.581107"><ele>973.0</ele><time>2011-11-30T10:15:19Z</time></trkpt><trkpt lat="42.590362" lon="-2.581095"><ele>973.0</ele><time>2011-11-30T10:15:20Z</time></trkpt><trkpt lat="42.590365" lon="-2.581082"><ele>972.5</ele><time>2011-11-30T10:15:21Z</time></trkpt><trkpt lat="42.590368" lon="-2.581068"><ele>972.5</ele><time>2011-11-30T10:15:22Z</time></trkpt><trkpt lat="42.590370" lon="-2.581057"><ele>973.0</ele><time>2011-11-30T10:15:23Z</time></trkpt><trkpt lat="42.590372" lon="-2.581042"><ele>973.0</ele><time>2011-11-30T10:15:24Z</time></trkpt><trkpt lat="42.590375" lon="-2.581030"><ele>973.0</ele><time>2011-11-30T10:15:25Z</time></trkpt><trkpt lat="42.590377" lon="-2.581017"><ele>973.0</ele><time>2011-11-30T10:15:26Z</time></trkpt><trkpt lat="42.590380" lon="-2.581003"><ele>973.0</ele><time>2011-11-30T10:15:27Z</time></trkpt><trkpt lat="42.590383" lon="-2.580993"><ele>973.0</ele><time>2011-11-30T10:15:28Z</time></trkpt><trkpt lat="42.590385" lon="-2.580982"><ele>973.0</ele><time>2011-11-30T10:15:29Z</time></trkpt><trkpt lat="42.590390" lon="-2.580968"><ele>973.0</ele><time>2011-11-30T10:15:30Z</time></trkpt><trkpt lat="42.590392" lon="-2.580960"><ele>973.0</ele><time>2011-11-30T10:15:31Z</time></trkpt><trkpt lat="42.590393" lon="-2.580950"><ele>973.5</ele><time>2011-11-30T10:15:32Z</time></trkpt><trkpt lat="42.590397" lon="-2.580938"><ele>973.5</ele><time>2011-11-30T10:15:33Z</time></trkpt><trkpt lat="42.590400" lon="-2.580927"><ele>974.0</ele><time>2011-11-30T10:15:34Z</time></trkpt><trkpt lat="42.590407" lon="-2.580918"><ele>974.0</ele><time>2011-11-30T10:15:35Z</time></trkpt><trkpt lat="42.590410" lon="-2.580908"><ele>974.0</ele><time>2011-11-30T10:15:36Z</time></trkpt><trkpt lat="42.590417" lon="-2.580895"><ele>974.0</ele><time>2011-11-30T10:15:37Z</time></trkpt><trkpt lat="42.590423" lon="-2.580883"><ele>974.0</ele><time>2011-11-30T10:15:38Z</time></trkpt><trkpt lat="42.590430" lon="-2.580873"><ele>974.0</ele><time>2011-11-30T10:15:39Z</time></trkpt><trkpt lat="42.590435" lon="-2.580863"><ele>974.5</ele><time>2011-11-30T10:15:40Z</time></trkpt><trkpt lat="42.590443" lon="-2.580853"><ele>974.0</ele><time>2011-11-30T10:15:41Z</time></trkpt><trkpt lat="42.590448" lon="-2.580843"><ele>974.0</ele><time>2011-11-30T10:15:42Z</time></trkpt><trkpt lat="42.590455" lon="-2.580833"><ele>974.0</ele><time>2011-11-30T10:15:43Z</time></trkpt><trkpt lat="42.590462" lon="-2.580822"><ele>974.0</ele><time>2011-11-30T10:15:44Z</time></trkpt><trkpt lat="42.590468" lon="-2.580808"><ele>974.0</ele><time>2011-11-30T10:15:45Z</time></trkpt><trkpt lat="42.590472" lon="-2.580795"><ele>974.0</ele><time>2011-11-30T10:15:46Z</time></trkpt><trkpt lat="42.590475" lon="-2.580783"><ele>974.0</ele><time>2011-11-30T10:15:47Z</time></trkpt><trkpt lat="42.590480" lon="-2.580773"><ele>974.5</ele><time>2011-11-30T10:15:48Z</time></trkpt><trkpt lat="42.590487" lon="-2.580763"><ele>974.5</ele><time>2011-11-30T10:15:49Z</time></trkpt><trkpt lat="42.590492" lon="-2.580748"><ele>974.5</ele><time>2011-11-30T10:15:50Z</time></trkpt><trkpt lat="42.590497" lon="-2.580737"><ele>974.5</ele><time>2011-11-30T10:15:51Z</time></trkpt><trkpt lat="42.590502" lon="-2.580727"><ele>974.5</ele><time>2011-11-30T10:15:52Z</time></trkpt><trkpt lat="42.590507" lon="-2.580717"><ele>975.0</ele><time>2011-11-30T10:15:53Z</time></trkpt><trkpt lat="42.590515" lon="-2.580703"><ele>975.0</ele><time>2011-11-30T10:15:54Z</time></trkpt><trkpt lat="42.590522" lon="-2.580692"><ele>975.0</ele><time>2011-11-30T10:15:55Z</time></trkpt><trkpt lat="42.590528" lon="-2.580680"><ele>975.5</ele><time>2011-11-30T10:15:56Z</time></trkpt><trkpt lat="42.590535" lon="-2.580667"><ele>975.5</ele><time>2011-11-30T10:15:57Z</time></trkpt><trkpt lat="42.590542" lon="-2.580657"><ele>976.0</ele><time>2011-11-30T10:15:58Z</time></trkpt><trkpt lat="42.590553" lon="-2.580647"><ele>976.0</ele><time>2011-11-30T10:15:59Z</time></trkpt><trkpt lat="42.590560" lon="-2.580638"><ele>976.0</ele><time>2011-11-30T10:16:00Z</time></trkpt><trkpt lat="42.590567" lon="-2.580627"><ele>976.5</ele><time>2011-11-30T10:16:01Z</time></trkpt><trkpt lat="42.590572" lon="-2.580615"><ele>976.5</ele><time>2011-11-30T10:16:02Z</time></trkpt><trkpt lat="42.590577" lon="-2.580602"><ele>976.5</ele><time>2011-11-30T10:16:03Z</time></trkpt><trkpt lat="42.590582" lon="-2.580592"><ele>976.5</ele><time>2011-11-30T10:16:04Z</time></trkpt><trkpt lat="42.590588" lon="-2.580582"><ele>977.0</ele><time>2011-11-30T10:16:05Z</time></trkpt><trkpt lat="42.590593" lon="-2.580570"><ele>977.0</ele><time>2011-11-30T10:16:06Z</time></trkpt><trkpt lat="42.590600" lon="-2.580560"><ele>977.0</ele><time>2011-11-30T10:16:07Z</time></trkpt><trkpt lat="42.590607" lon="-2.580552"><ele>977.0</ele><time>2011-11-30T10:16:08Z</time></trkpt><trkpt lat="42.590617" lon="-2.580542"><ele>977.0</ele><time>2011-11-30T10:16:09Z</time></trkpt><trkpt lat="42.590627" lon="-2.580533"><ele>976.5</ele><time>2011-11-30T10:16:10Z</time></trkpt><trkpt lat="42.590632" lon="-2.580527"><ele>976.5</ele><time>2011-11-30T10:16:11Z</time></trkpt><trkpt lat="42.590640" lon="-2.580517"><ele>976.5</ele><time>2011-11-30T10:16:12Z</time></trkpt><trkpt lat="42.590647" lon="-2.580507"><ele>976.5</ele><time>2011-11-30T10:16:13Z</time></trkpt><trkpt lat="42.590653" lon="-2.580498"><ele>976.5</ele><time>2011-11-30T10:16:14Z</time></trkpt><trkpt lat="42.590662" lon="-2.580490"><ele>976.5</ele><time>2011-11-30T10:16:15Z</time></trkpt><trkpt lat="42.590668" lon="-2.580480"><ele>977.0</ele><time>2011-11-30T10:16:16Z</time></trkpt><trkpt lat="42.590673" lon="-2.580470"><ele>977.0</ele><time>2011-11-30T10:16:17Z</time></trkpt><trkpt lat="42.590678" lon="-2.580462"><ele>977.0</ele><time>2011-11-30T10:16:18Z</time></trkpt><trkpt lat="42.590687" lon="-2.580453"><ele>977.5</ele><time>2011-11-30T10:16:19Z</time></trkpt><trkpt lat="42.590692" lon="-2.580447"><ele>977.5</ele><time>2011-11-30T10:16:20Z</time></trkpt><trkpt lat="42.590697" lon="-2.580440"><ele>977.5</ele><time>2011-11-30T10:16:21Z</time></trkpt><trkpt lat="42.590705" lon="-2.580435"><ele>977.5</ele><time>2011-11-30T10:16:22Z</time></trkpt><trkpt lat="42.590715" lon="-2.580428"><ele>977.5</ele><time>2011-11-30T10:16:23Z</time></trkpt><trkpt lat="42.590722" lon="-2.580420"><ele>977.5</ele><time>2011-11-30T10:16:24Z</time></trkpt><trkpt lat="42.590725" lon="-2.580412"><ele>977.0</ele><time>2011-11-30T10:16:25Z</time></trkpt><trkpt lat="42.590733" lon="-2.580405"><ele>977.0</ele><time>2011-11-30T10:16:26Z</time></trkpt><trkpt lat="42.590742" lon="-2.580395"><ele>977.5</ele><time>2011-11-30T10:16:27Z</time></trkpt><trkpt lat="42.590750" lon="-2.580385"><ele>977.5</ele><time>2011-11-30T10:16:28Z</time></trkpt><trkpt lat="42.590758" lon="-2.580378"><ele>977.5</ele><time>2011-11-30T10:16:29Z</time></trkpt><trkpt lat="42.590770" lon="-2.580370"><ele>978.0</ele><time>2011-11-30T10:16:30Z</time></trkpt><trkpt lat="42.590777" lon="-2.580365"><ele>978.0</ele><time>2011-11-30T10:16:31Z</time></trkpt><trkpt lat="42.590785" lon="-2.580358"><ele>978.5</ele><time>2011-11-30T10:16:32Z</time></trkpt><trkpt lat="42.590790" lon="-2.580352"><ele>978.0</ele><time>2011-11-30T10:16:33Z</time></trkpt><trkpt lat="42.590797" lon="-2.580343"><ele>978.5</ele><time>2011-11-30T10:16:34Z</time></trkpt><trkpt lat="42.590805" lon="-2.580333"><ele>978.5</ele><time>2011-11-30T10:16:35Z</time></trkpt><trkpt lat="42.590812" lon="-2.580328"><ele>978.5</ele><time>2011-11-30T10:16:36Z</time></trkpt><trkpt lat="42.590818" lon="-2.580323"><ele>978.0</ele><time>2011-11-30T10:16:37Z</time></trkpt><trkpt lat="42.590823" lon="-2.580317"><ele>977.5</ele><time>2011-11-30T10:16:38Z</time></trkpt><trkpt lat="42.590832" lon="-2.580307"><ele>977.5</ele><time>2011-11-30T10:16:39Z</time></trkpt><trkpt lat="42.590838" lon="-2.580298"><ele>977.5</ele><time>2011-11-30T10:16:40Z</time></trkpt><trkpt lat="42.590845" lon="-2.580288"><ele>977.5</ele><time>2011-11-30T10:16:41Z</time></trkpt><trkpt lat="42.590850" lon="-2.580278"><ele>978.0</ele><time>2011-11-30T10:16:42Z</time></trkpt><trkpt lat="42.590853" lon="-2.580272"><ele>978.5</ele><time>2011-11-30T10:16:43Z</time></trkpt><trkpt lat="42.590862" lon="-2.580263"><ele>978.5</ele><time>2011-11-30T10:16:44Z</time></trkpt><trkpt lat="42.590868" lon="-2.580255"><ele>978.5</ele><time>2011-11-30T10:16:45Z</time></trkpt><trkpt lat="42.590878" lon="-2.580245"><ele>978.5</ele><time>2011-11-30T10:16:46Z</time></trkpt><trkpt lat="42.590888" lon="-2.580237"><ele>979.0</ele><time>2011-11-30T10:16:47Z</time></trkpt><trkpt lat="42.590895" lon="-2.580232"><ele>979.5</ele><time>2011-11-30T10:16:48Z</time></trkpt><trkpt lat="42.590905" lon="-2.580222"><ele>979.5</ele><time>2011-11-30T10:16:49Z</time></trkpt><trkpt lat="42.590912" lon="-2.580213"><ele>979.5</ele><time>2011-11-30T10:16:50Z</time></trkpt><trkpt lat="42.590917" lon="-2.580207"><ele>980.0</ele><time>2011-11-30T10:16:51Z</time></trkpt><trkpt lat="42.590927" lon="-2.580198"><ele>979.5</ele><time>2011-11-30T10:16:52Z</time></trkpt><trkpt lat="42.590932" lon="-2.580192"><ele>980.0</ele><time>2011-11-30T10:16:53Z</time></trkpt><trkpt lat="42.590938" lon="-2.580185"><ele>980.0</ele><time>2011-11-30T10:16:54Z</time></trkpt><trkpt lat="42.590947" lon="-2.580175"><ele>980.0</ele><time>2011-11-30T10:16:55Z</time></trkpt><trkpt lat="42.590952" lon="-2.580167"><ele>980.5</ele><time>2011-11-30T10:16:56Z</time></trkpt><trkpt lat="42.590957" lon="-2.580157"><ele>981.0</ele><time>2011-11-30T10:16:57Z</time></trkpt><trkpt lat="42.590965" lon="-2.580152"><ele>981.0</ele><time>2011-11-30T10:16:58Z</time></trkpt><trkpt lat="42.590977" lon="-2.580143"><ele>981.5</ele><time>2011-11-30T10:16:59Z</time></trkpt><trkpt lat="42.590985" lon="-2.580135"><ele>982.0</ele><time>2011-11-30T10:17:00Z</time></trkpt><trkpt lat="42.590992" lon="-2.580125"><ele>982.5</ele><time>2011-11-30T10:17:01Z</time></trkpt><trkpt lat="42.591000" lon="-2.580115"><ele>983.0</ele><time>2011-11-30T10:17:02Z</time></trkpt><trkpt lat="42.591008" lon="-2.580103"><ele>983.0</ele><time>2011-11-30T10:17:03Z</time></trkpt><trkpt lat="42.591015" lon="-2.580095"><ele>983.5</ele><time>2011-11-30T10:17:04Z</time></trkpt><trkpt lat="42.591022" lon="-2.580087"><ele>983.0</ele><time>2011-11-30T10:17:05Z</time></trkpt><trkpt lat="42.591030" lon="-2.580078"><ele>983.0</ele><time>2011-11-30T10:17:06Z</time></trkpt><trkpt lat="42.591037" lon="-2.580070"><ele>983.0</ele><time>2011-11-30T10:17:07Z</time></trkpt><trkpt lat="42.591043" lon="-2.580062"><ele>983.0</ele><time>2011-11-30T10:17:08Z</time></trkpt><trkpt lat="42.591050" lon="-2.580053"><ele>983.5</ele><time>2011-11-30T10:17:09Z</time></trkpt><trkpt lat="42.591058" lon="-2.580040"><ele>984.0</ele><time>2011-11-30T10:17:10Z</time></trkpt><trkpt lat="42.591068" lon="-2.580030"><ele>984.5</ele><time>2011-11-30T10:17:11Z</time></trkpt><trkpt lat="42.591077" lon="-2.580020"><ele>984.5</ele><time>2011-11-30T10:17:12Z</time></trkpt><trkpt lat="42.591085" lon="-2.580012"><ele>984.5</ele><time>2011-11-30T10:17:13Z</time></trkpt><trkpt lat="42.591090" lon="-2.580003"><ele>985.0</ele><time>2011-11-30T10:17:14Z</time></trkpt><trkpt lat="42.591097" lon="-2.579993"><ele>985.0</ele><time>2011-11-30T10:17:15Z</time></trkpt><trkpt lat="42.591103" lon="-2.579985"><ele>985.5</ele><time>2011-11-30T10:17:16Z</time></trkpt><trkpt lat="42.591107" lon="-2.579977"><ele>985.5</ele><time>2011-11-30T10:17:17Z</time></trkpt><trkpt lat="42.591112" lon="-2.579968"><ele>985.5</ele><time>2011-11-30T10:17:18Z</time></trkpt><trkpt lat="42.591118" lon="-2.579960"><ele>986.0</ele><time>2011-11-30T10:17:19Z</time></trkpt><trkpt lat="42.591130" lon="-2.579947"><ele>985.5</ele><time>2011-11-30T10:17:20Z</time></trkpt><trkpt lat="42.591137" lon="-2.579940"><ele>985.5</ele><time>2011-11-30T10:17:21Z</time></trkpt><trkpt lat="42.591148" lon="-2.579935"><ele>985.5</ele><time>2011-11-30T10:17:22Z</time></trkpt><trkpt lat="42.591160" lon="-2.579928"><ele>986.0</ele><time>2011-11-30T10:17:23Z</time></trkpt><trkpt lat="42.591168" lon="-2.579925"><ele>985.5</ele><time>2011-11-30T10:17:24Z</time></trkpt><trkpt lat="42.591175" lon="-2.579922"><ele>985.5</ele><time>2011-11-30T10:17:25Z</time></trkpt><trkpt lat="42.591203" lon="-2.579922"><ele>985.5</ele><time>2011-11-30T10:17:26Z</time></trkpt><trkpt lat="42.591257" lon="-2.579877"><ele>990.5</ele><time>2011-11-30T10:17:27Z</time></trkpt><trkpt lat="42.591292" lon="-2.579865"><ele>987.5</ele><time>2011-11-30T10:17:28Z</time></trkpt><trkpt lat="42.591305" lon="-2.579855"><ele>989.0</ele><time>2011-11-30T10:17:29Z</time></trkpt><trkpt lat="42.591315" lon="-2.579848"><ele>989.5</ele><time>2011-11-30T10:17:30Z</time></trkpt><trkpt lat="42.591330" lon="-2.579835"><ele>990.5</ele><time>2011-11-30T10:17:31Z</time></trkpt><trkpt lat="42.591333" lon="-2.579828"><ele>991.0</ele><time>2011-11-30T10:17:32Z</time></trkpt><trkpt lat="42.591337" lon="-2.579822"><ele>991.5</ele><time>2011-11-30T10:17:33Z</time></trkpt><trkpt lat="42.591342" lon="-2.579815"><ele>991.5</ele><time>2011-11-30T10:17:34Z</time></trkpt><trkpt lat="42.591340" lon="-2.579807"><ele>992.0</ele><time>2011-11-30T10:17:35Z</time></trkpt><trkpt lat="42.591350" lon="-2.579788"><ele>992.0</ele><time>2011-11-30T10:17:36Z</time></trkpt><trkpt lat="42.591353" lon="-2.579782"><ele>992.0</ele><time>2011-11-30T10:17:37Z</time></trkpt><trkpt lat="42.591362" lon="-2.579775"><ele>992.0</ele><time>2011-11-30T10:17:38Z</time></trkpt><trkpt lat="42.591370" lon="-2.579768"><ele>992.0</ele><time>2011-11-30T10:17:39Z</time></trkpt><trkpt lat="42.591375" lon="-2.579760"><ele>992.5</ele><time>2011-11-30T10:17:40Z</time></trkpt><trkpt lat="42.591380" lon="-2.579750"><ele>992.5</ele><time>2011-11-30T10:17:41Z</time></trkpt><trkpt lat="42.591387" lon="-2.579742"><ele>992.5</ele><time>2011-11-30T10:17:42Z</time></trkpt><trkpt lat="42.591392" lon="-2.579733"><ele>992.5</ele><time>2011-11-30T10:17:43Z</time></trkpt><trkpt lat="42.591395" lon="-2.579723"><ele>992.5</ele><time>2011-11-30T10:17:44Z</time></trkpt><trkpt lat="42.591403" lon="-2.579707"><ele>993.0</ele><time>2011-11-30T10:17:45Z</time></trkpt><trkpt lat="42.591407" lon="-2.579698"><ele>993.0</ele><time>2011-11-30T10:17:46Z</time></trkpt><trkpt lat="42.591412" lon="-2.579680"><ele>993.5</ele><time>2011-11-30T10:17:47Z</time></trkpt><trkpt lat="42.591423" lon="-2.579668"><ele>993.5</ele><time>2011-11-30T10:17:48Z</time></trkpt><trkpt lat="42.591428" lon="-2.579660"><ele>993.5</ele><time>2011-11-30T10:17:49Z</time></trkpt><trkpt lat="42.591433" lon="-2.579648"><ele>993.5</ele><time>2011-11-30T10:17:50Z</time></trkpt><trkpt lat="42.591437" lon="-2.579638"><ele>993.5</ele><time>2011-11-30T10:17:51Z</time></trkpt><trkpt lat="42.591443" lon="-2.579625"><ele>994.0</ele><time>2011-11-30T10:17:52Z</time></trkpt><trkpt lat="42.591450" lon="-2.579615"><ele>994.0</ele><time>2011-11-30T10:17:53Z</time></trkpt><trkpt lat="42.591457" lon="-2.579608"><ele>994.0</ele><time>2011-11-30T10:17:54Z</time></trkpt><trkpt lat="42.591462" lon="-2.579600"><ele>994.0</ele><time>2011-11-30T10:17:55Z</time></trkpt><trkpt lat="42.591468" lon="-2.579592"><ele>994.5</ele><time>2011-11-30T10:17:56Z</time></trkpt><trkpt lat="42.591488" lon="-2.579575"><ele>996.0</ele><time>2011-11-30T10:17:57Z</time></trkpt><trkpt lat="42.591503" lon="-2.579573"><ele>996.5</ele><time>2011-11-30T10:17:58Z</time></trkpt><trkpt lat="42.591532" lon="-2.579590"><ele>999.0</ele><time>2011-11-30T10:17:59Z</time></trkpt><trkpt lat="42.591537" lon="-2.579597"><ele>1000.0</ele><time>2011-11-30T10:18:00Z</time></trkpt><trkpt lat="42.591543" lon="-2.579598"><ele>1000.0</ele><time>2011-11-30T10:18:01Z</time></trkpt><trkpt lat="42.591558" lon="-2.579603"><ele>1000.0</ele><time>2011-11-30T10:18:02Z</time></trkpt><trkpt lat="42.591565" lon="-2.579607"><ele>1000.5</ele><time>2011-11-30T10:18:03Z</time></trkpt><trkpt lat="42.591568" lon="-2.579613"><ele>1001.0</ele><time>2011-11-30T10:18:04Z</time></trkpt><trkpt lat="42.591565" lon="-2.579620"><ele>1001.5</ele><time>2011-11-30T10:18:05Z</time></trkpt><trkpt lat="42.591562" lon="-2.579637"><ele>1002.5</ele><time>2011-11-30T10:18:06Z</time></trkpt><trkpt lat="42.591567" lon="-2.579645"><ele>1003.0</ele><time>2011-11-30T10:18:07Z</time></trkpt><trkpt lat="42.591572" lon="-2.579650"><ele>1003.0</ele><time>2011-11-30T10:18:08Z</time></trkpt><trkpt lat="42.591580" lon="-2.579655"><ele>1002.5</ele><time>2011-11-30T10:18:09Z</time></trkpt><trkpt lat="42.591585" lon="-2.579667"><ele>1003.0</ele><time>2011-11-30T10:18:10Z</time></trkpt><trkpt lat="42.591593" lon="-2.579677"><ele>1003.0</ele><time>2011-11-30T10:18:11Z</time></trkpt><trkpt lat="42.591593" lon="-2.579690"><ele>1004.0</ele><time>2011-11-30T10:18:12Z</time></trkpt><trkpt lat="42.591598" lon="-2.579697"><ele>1004.0</ele><time>2011-11-30T10:18:13Z</time></trkpt><trkpt lat="42.591607" lon="-2.579705"><ele>1003.5</ele><time>2011-11-30T10:18:14Z</time></trkpt><trkpt lat="42.591612" lon="-2.579715"><ele>1003.5</ele><time>2011-11-30T10:18:15Z</time></trkpt><trkpt lat="42.591618" lon="-2.579720"><ele>1003.5</ele><time>2011-11-30T10:18:16Z</time></trkpt><trkpt lat="42.591627" lon="-2.579727"><ele>1003.0</ele><time>2011-11-30T10:18:17Z</time></trkpt><trkpt lat="42.591632" lon="-2.579738"><ele>1003.5</ele><time>2011-11-30T10:18:18Z</time></trkpt><trkpt lat="42.591637" lon="-2.579747"><ele>1003.5</ele><time>2011-11-30T10:18:19Z</time></trkpt><trkpt lat="42.591642" lon="-2.579757"><ele>1003.5</ele><time>2011-11-30T10:18:20Z</time></trkpt><trkpt lat="42.591647" lon="-2.579767"><ele>1003.5</ele><time>2011-11-30T10:18:21Z</time></trkpt><trkpt lat="42.591650" lon="-2.579777"><ele>1004.0</ele><time>2011-11-30T10:18:22Z</time></trkpt><trkpt lat="42.591655" lon="-2.579785"><ele>1003.5</ele><time>2011-11-30T10:18:23Z</time></trkpt><trkpt lat="42.591658" lon="-2.579795"><ele>1003.5</ele><time>2011-11-30T10:18:24Z</time></trkpt><trkpt lat="42.591663" lon="-2.579805"><ele>1003.5</ele><time>2011-11-30T10:18:25Z</time></trkpt><trkpt lat="42.591668" lon="-2.579813"><ele>1003.0</ele><time>2011-11-30T10:18:26Z</time></trkpt><trkpt lat="42.591670" lon="-2.579827"><ele>1003.0</ele><time>2011-11-30T10:18:27Z</time></trkpt><trkpt lat="42.591675" lon="-2.579837"><ele>1003.0</ele><time>2011-11-30T10:18:28Z</time></trkpt><trkpt lat="42.591680" lon="-2.579847"><ele>1002.5</ele><time>2011-11-30T10:18:29Z</time></trkpt><trkpt lat="42.591682" lon="-2.579860"><ele>1003.0</ele><time>2011-11-30T10:18:30Z</time></trkpt><trkpt lat="42.591688" lon="-2.579868"><ele>1002.5</ele><time>2011-11-30T10:18:31Z</time></trkpt><trkpt lat="42.591698" lon="-2.579872"><ele>1002.0</ele><time>2011-11-30T10:18:32Z</time></trkpt><trkpt lat="42.591707" lon="-2.579875"><ele>1001.0</ele><time>2011-11-30T10:18:33Z</time></trkpt><trkpt lat="42.591708" lon="-2.579887"><ele>1001.5</ele><time>2011-11-30T10:18:34Z</time></trkpt><trkpt lat="42.591713" lon="-2.579897"><ele>1001.5</ele><time>2011-11-30T10:18:35Z</time></trkpt><trkpt lat="42.591720" lon="-2.579905"><ele>1001.5</ele><time>2011-11-30T10:18:36Z</time></trkpt><trkpt lat="42.591722" lon="-2.579917"><ele>1001.5</ele><time>2011-11-30T10:18:37Z</time></trkpt><trkpt lat="42.591725" lon="-2.579928"><ele>1001.5</ele><time>2011-11-30T10:18:38Z</time></trkpt><trkpt lat="42.591728" lon="-2.579940"><ele>1001.5</ele><time>2011-11-30T10:18:39Z</time></trkpt><trkpt lat="42.591728" lon="-2.579952"><ele>1002.0</ele><time>2011-11-30T10:18:40Z</time></trkpt><trkpt lat="42.591728" lon="-2.579963"><ele>1002.5</ele><time>2011-11-30T10:18:41Z</time></trkpt><trkpt lat="42.591732" lon="-2.579973"><ele>1002.5</ele><time>2011-11-30T10:18:42Z</time></trkpt><trkpt lat="42.591733" lon="-2.579983"><ele>1002.5</ele><time>2011-11-30T10:18:43Z</time></trkpt><trkpt lat="42.591738" lon="-2.579990"><ele>1002.5</ele><time>2011-11-30T10:18:44Z</time></trkpt><trkpt lat="42.591745" lon="-2.579997"><ele>1002.5</ele><time>2011-11-30T10:18:45Z</time></trkpt><trkpt lat="42.591750" lon="-2.580008"><ele>1002.5</ele><time>2011-11-30T10:18:46Z</time></trkpt><trkpt lat="42.591757" lon="-2.580018"><ele>1003.0</ele><time>2011-11-30T10:18:47Z</time></trkpt><trkpt lat="42.591762" lon="-2.580027"><ele>1002.5</ele><time>2011-11-30T10:18:48Z</time></trkpt><trkpt lat="42.591768" lon="-2.580033"><ele>1002.5</ele><time>2011-11-30T10:18:49Z</time></trkpt><trkpt lat="42.591773" lon="-2.580043"><ele>1002.5</ele><time>2011-11-30T10:18:50Z</time></trkpt><trkpt lat="42.591778" lon="-2.580053"><ele>1003.0</ele><time>2011-11-30T10:18:51Z</time></trkpt><trkpt lat="42.591787" lon="-2.580062"><ele>1003.0</ele><time>2011-11-30T10:18:52Z</time></trkpt><trkpt lat="42.591792" lon="-2.580070"><ele>1003.0</ele><time>2011-11-30T10:18:53Z</time></trkpt><trkpt lat="42.591797" lon="-2.580078"><ele>1003.0</ele><time>2011-11-30T10:18:54Z</time></trkpt><trkpt lat="42.591802" lon="-2.580085"><ele>1003.5</ele><time>2011-11-30T10:18:55Z</time></trkpt><trkpt lat="42.591808" lon="-2.580088"><ele>1003.5</ele><time>2011-11-30T10:18:56Z</time></trkpt><trkpt lat="42.591813" lon="-2.580093"><ele>1003.5</ele><time>2011-11-30T10:18:57Z</time></trkpt><trkpt lat="42.591817" lon="-2.580103"><ele>1004.0</ele><time>2011-11-30T10:18:58Z</time></trkpt><trkpt lat="42.591823" lon="-2.580107"><ele>1003.5</ele><time>2011-11-30T10:18:59Z</time></trkpt><trkpt lat="42.591825" lon="-2.580117"><ele>1004.5</ele><time>2011-11-30T10:19:00Z</time></trkpt><trkpt lat="42.591832" lon="-2.580125"><ele>1005.0</ele><time>2011-11-30T10:19:01Z</time></trkpt><trkpt lat="42.591837" lon="-2.580140"><ele>1005.5</ele><time>2011-11-30T10:19:02Z</time></trkpt><trkpt lat="42.591842" lon="-2.580142"><ele>1005.5</ele><time>2011-11-30T10:19:03Z</time></trkpt><trkpt lat="42.591848" lon="-2.580148"><ele>1005.5</ele><time>2011-11-30T10:19:04Z</time></trkpt><trkpt lat="42.591855" lon="-2.580158"><ele>1005.0</ele><time>2011-11-30T10:19:05Z</time></trkpt><trkpt lat="42.591865" lon="-2.580165"><ele>1004.0</ele><time>2011-11-30T10:19:06Z</time></trkpt><trkpt lat="42.591873" lon="-2.580170"><ele>1003.5</ele><time>2011-11-30T10:19:07Z</time></trkpt><trkpt lat="42.591880" lon="-2.580177"><ele>1003.5</ele><time>2011-11-30T10:19:08Z</time></trkpt><trkpt lat="42.591883" lon="-2.580187"><ele>1004.0</ele><time>2011-11-30T10:19:09Z</time></trkpt><trkpt lat="42.591888" lon="-2.580195"><ele>1004.0</ele><time>2011-11-30T10:19:10Z</time></trkpt><trkpt lat="42.591895" lon="-2.580202"><ele>1003.5</ele><time>2011-11-30T10:19:11Z</time></trkpt><trkpt lat="42.591898" lon="-2.580208"><ele>1004.0</ele><time>2011-11-30T10:19:12Z</time></trkpt><trkpt lat="42.591900" lon="-2.580218"><ele>1004.0</ele><time>2011-11-30T10:19:13Z</time></trkpt><trkpt lat="42.591902" lon="-2.580230"><ele>1004.0</ele><time>2011-11-30T10:19:14Z</time></trkpt><trkpt lat="42.591905" lon="-2.580238"><ele>1004.5</ele><time>2011-11-30T10:19:15Z</time></trkpt><trkpt lat="42.591907" lon="-2.580248"><ele>1005.0</ele><time>2011-11-30T10:19:16Z</time></trkpt><trkpt lat="42.591908" lon="-2.580258"><ele>1005.0</ele><time>2011-11-30T10:19:17Z</time></trkpt><trkpt lat="42.591910" lon="-2.580267"><ele>1005.5</ele><time>2011-11-30T10:19:18Z</time></trkpt><trkpt lat="42.591910" lon="-2.580280"><ele>1006.5</ele><time>2011-11-30T10:19:19Z</time></trkpt><trkpt lat="42.591908" lon="-2.580295"><ele>1007.0</ele><time>2011-11-30T10:19:20Z</time></trkpt><trkpt lat="42.591912" lon="-2.580305"><ele>1007.0</ele><time>2011-11-30T10:19:21Z</time></trkpt><trkpt lat="42.591910" lon="-2.580318"><ele>1008.0</ele><time>2011-11-30T10:19:22Z</time></trkpt><trkpt lat="42.591913" lon="-2.580325"><ele>1008.0</ele><time>2011-11-30T10:19:23Z</time></trkpt><trkpt lat="42.591908" lon="-2.580347"><ele>1009.5</ele><time>2011-11-30T10:19:24Z</time></trkpt><trkpt lat="42.591913" lon="-2.580353"><ele>1009.5</ele><time>2011-11-30T10:19:25Z</time></trkpt><trkpt lat="42.591907" lon="-2.580373"><ele>1011.0</ele><time>2011-11-30T10:19:26Z</time></trkpt><trkpt lat="42.591908" lon="-2.580385"><ele>1011.5</ele><time>2011-11-30T10:19:27Z</time></trkpt><trkpt lat="42.591912" lon="-2.580392"><ele>1011.0</ele><time>2011-11-30T10:19:28Z</time></trkpt><trkpt lat="42.591905" lon="-2.580412"><ele>1012.0</ele><time>2011-11-30T10:19:29Z</time></trkpt><trkpt lat="42.591915" lon="-2.580415"><ele>1011.0</ele><time>2011-11-30T10:19:30Z</time></trkpt><trkpt lat="42.591908" lon="-2.580442"><ele>1012.5</ele><time>2011-11-30T10:19:31Z</time></trkpt><trkpt lat="42.591912" lon="-2.580452"><ele>1012.5</ele><time>2011-11-30T10:19:32Z</time></trkpt><trkpt lat="42.591918" lon="-2.580457"><ele>1012.0</ele><time>2011-11-30T10:19:33Z</time></trkpt><trkpt lat="42.591920" lon="-2.580468"><ele>1012.5</ele><time>2011-11-30T10:19:34Z</time></trkpt><trkpt lat="42.591922" lon="-2.580478"><ele>1012.5</ele><time>2011-11-30T10:19:35Z</time></trkpt><trkpt lat="42.591930" lon="-2.580478"><ele>1011.5</ele><time>2011-11-30T10:19:36Z</time></trkpt><trkpt lat="42.591933" lon="-2.580483"><ele>1011.0</ele><time>2011-11-30T10:19:37Z</time></trkpt><trkpt lat="42.591942" lon="-2.580490"><ele>1011.0</ele><time>2011-11-30T10:19:38Z</time></trkpt><trkpt lat="42.591943" lon="-2.580502"><ele>1011.0</ele><time>2011-11-30T10:19:39Z</time></trkpt><trkpt lat="42.591942" lon="-2.580515"><ele>1011.5</ele><time>2011-11-30T10:19:40Z</time></trkpt><trkpt lat="42.591948" lon="-2.580525"><ele>1011.5</ele><time>2011-11-30T10:19:41Z</time></trkpt><trkpt lat="42.591948" lon="-2.580540"><ele>1012.0</ele><time>2011-11-30T10:19:42Z</time></trkpt><trkpt lat="42.591952" lon="-2.580552"><ele>1012.0</ele><time>2011-11-30T10:19:43Z</time></trkpt><trkpt lat="42.591955" lon="-2.580563"><ele>1012.0</ele><time>2011-11-30T10:19:44Z</time></trkpt><trkpt lat="42.591960" lon="-2.580575"><ele>1012.0</ele><time>2011-11-30T10:19:45Z</time></trkpt><trkpt lat="42.591953" lon="-2.580597"><ele>1013.0</ele><time>2011-11-30T10:19:46Z</time></trkpt><trkpt lat="42.591953" lon="-2.580612"><ele>1014.0</ele><time>2011-11-30T10:19:47Z</time></trkpt><trkpt lat="42.591960" lon="-2.580620"><ele>1013.5</ele><time>2011-11-30T10:19:48Z</time></trkpt><trkpt lat="42.591967" lon="-2.580625"><ele>1013.0</ele><time>2011-11-30T10:19:49Z</time></trkpt><trkpt lat="42.591970" lon="-2.580637"><ele>1013.0</ele><time>2011-11-30T10:19:50Z</time></trkpt><trkpt lat="42.591972" lon="-2.580645"><ele>1013.0</ele><time>2011-11-30T10:19:51Z</time></trkpt><trkpt lat="42.591980" lon="-2.580653"><ele>1012.5</ele><time>2011-11-30T10:19:52Z</time></trkpt><trkpt lat="42.591987" lon="-2.580662"><ele>1012.0</ele><time>2011-11-30T10:19:53Z</time></trkpt><trkpt lat="42.591992" lon="-2.580672"><ele>1012.0</ele><time>2011-11-30T10:19:54Z</time></trkpt><trkpt lat="42.591993" lon="-2.580685"><ele>1012.5</ele><time>2011-11-30T10:19:55Z</time></trkpt><trkpt lat="42.592000" lon="-2.580695"><ele>1013.0</ele><time>2011-11-30T10:19:56Z</time></trkpt><trkpt lat="42.592003" lon="-2.580708"><ele>1013.0</ele><time>2011-11-30T10:19:57Z</time></trkpt><trkpt lat="42.592010" lon="-2.580715"><ele>1013.0</ele><time>2011-11-30T10:19:58Z</time></trkpt><trkpt lat="42.592012" lon="-2.580728"><ele>1013.0</ele><time>2011-11-30T10:19:59Z</time></trkpt><trkpt lat="42.592017" lon="-2.580737"><ele>1013.0</ele><time>2011-11-30T10:20:00Z</time></trkpt><trkpt lat="42.592022" lon="-2.580747"><ele>1012.5</ele><time>2011-11-30T10:20:01Z</time></trkpt><trkpt lat="42.592027" lon="-2.580758"><ele>1012.5</ele><time>2011-11-30T10:20:02Z</time></trkpt><trkpt lat="42.592030" lon="-2.580772"><ele>1013.0</ele><time>2011-11-30T10:20:03Z</time></trkpt><trkpt lat="42.592025" lon="-2.580793"><ele>1014.0</ele><time>2011-11-30T10:20:04Z</time></trkpt><trkpt lat="42.592028" lon="-2.580810"><ele>1014.5</ele><time>2011-11-30T10:20:05Z</time></trkpt><trkpt lat="42.592032" lon="-2.580818"><ele>1014.5</ele><time>2011-11-30T10:20:06Z</time></trkpt><trkpt lat="42.592030" lon="-2.580840"><ele>1015.5</ele><time>2011-11-30T10:20:07Z</time></trkpt><trkpt lat="42.592035" lon="-2.580848"><ele>1015.5</ele><time>2011-11-30T10:20:08Z</time></trkpt><trkpt lat="42.592042" lon="-2.580860"><ele>1015.5</ele><time>2011-11-30T10:20:09Z</time></trkpt><trkpt lat="42.592045" lon="-2.580870"><ele>1015.5</ele><time>2011-11-30T10:20:10Z</time></trkpt><trkpt lat="42.592052" lon="-2.580882"><ele>1015.0</ele><time>2011-11-30T10:20:11Z</time></trkpt><trkpt lat="42.592057" lon="-2.580890"><ele>1015.0</ele><time>2011-11-30T10:20:12Z</time></trkpt><trkpt lat="42.592060" lon="-2.580898"><ele>1015.0</ele><time>2011-11-30T10:20:13Z</time></trkpt><trkpt lat="42.592065" lon="-2.580908"><ele>1015.0</ele><time>2011-11-30T10:20:14Z</time></trkpt><trkpt lat="42.592072" lon="-2.580913"><ele>1015.0</ele><time>2011-11-30T10:20:15Z</time></trkpt><trkpt lat="42.592073" lon="-2.580927"><ele>1015.5</ele><time>2011-11-30T10:20:16Z</time></trkpt><trkpt lat="42.592073" lon="-2.580942"><ele>1016.0</ele><time>2011-11-30T10:20:17Z</time></trkpt><trkpt lat="42.592078" lon="-2.580953"><ele>1016.5</ele><time>2011-11-30T10:20:18Z</time></trkpt><trkpt lat="42.592088" lon="-2.580953"><ele>1015.0</ele><time>2011-11-30T10:20:19Z</time></trkpt><trkpt lat="42.592092" lon="-2.580965"><ele>1015.5</ele><time>2011-11-30T10:20:20Z</time></trkpt><trkpt lat="42.592080" lon="-2.581002"><ele>1018.5</ele><time>2011-11-30T10:20:21Z</time></trkpt><trkpt lat="42.592077" lon="-2.581022"><ele>1020.0</ele><time>2011-11-30T10:20:22Z</time></trkpt><trkpt lat="42.592078" lon="-2.581037"><ele>1020.5</ele><time>2011-11-30T10:20:23Z</time></trkpt><trkpt lat="42.592078" lon="-2.581050"><ele>1021.0</ele><time>2011-11-30T10:20:24Z</time></trkpt><trkpt lat="42.592080" lon="-2.581063"><ele>1021.0</ele><time>2011-11-30T10:20:25Z</time></trkpt><trkpt lat="42.592080" lon="-2.581077"><ele>1021.5</ele><time>2011-11-30T10:20:26Z</time></trkpt><trkpt lat="42.592092" lon="-2.581077"><ele>1020.5</ele><time>2011-11-30T10:20:27Z</time></trkpt><trkpt lat="42.592097" lon="-2.581085"><ele>1020.0</ele><time>2011-11-30T10:20:28Z</time></trkpt><trkpt lat="42.592103" lon="-2.581090"><ele>1019.5</ele><time>2011-11-30T10:20:29Z</time></trkpt><trkpt lat="42.592108" lon="-2.581098"><ele>1019.5</ele><time>2011-11-30T10:20:30Z</time></trkpt><trkpt lat="42.592113" lon="-2.581105"><ele>1019.0</ele><time>2011-11-30T10:20:31Z</time></trkpt><trkpt lat="42.592122" lon="-2.581110"><ele>1018.5</ele><time>2011-11-30T10:20:32Z</time></trkpt><trkpt lat="42.592123" lon="-2.581122"><ele>1018.5</ele><time>2011-11-30T10:20:33Z</time></trkpt><trkpt lat="42.592127" lon="-2.581130"><ele>1018.5</ele><time>2011-11-30T10:20:34Z</time></trkpt><trkpt lat="42.592130" lon="-2.581142"><ele>1018.5</ele><time>2011-11-30T10:20:35Z</time></trkpt><trkpt lat="42.592128" lon="-2.581160"><ele>1019.5</ele><time>2011-11-30T10:20:36Z</time></trkpt><trkpt lat="42.592130" lon="-2.581170"><ele>1019.5</ele><time>2011-11-30T10:20:37Z</time></trkpt><trkpt lat="42.592132" lon="-2.581185"><ele>1020.0</ele><time>2011-11-30T10:20:38Z</time></trkpt><trkpt lat="42.592128" lon="-2.581210"><ele>1021.0</ele><time>2011-11-30T10:20:39Z</time></trkpt><trkpt lat="42.592120" lon="-2.581240"><ele>1023.0</ele><time>2011-11-30T10:20:40Z</time></trkpt><trkpt lat="42.592115" lon="-2.581265"><ele>1025.0</ele><time>2011-11-30T10:20:41Z</time></trkpt><trkpt lat="42.592108" lon="-2.581293"><ele>1026.5</ele><time>2011-11-30T10:20:42Z</time></trkpt><trkpt lat="42.592105" lon="-2.581318"><ele>1028.0</ele><time>2011-11-30T10:20:43Z</time></trkpt><trkpt lat="42.592103" lon="-2.581340"><ele>1029.5</ele><time>2011-11-30T10:20:44Z</time></trkpt><trkpt lat="42.592098" lon="-2.581362"><ele>1031.0</ele><time>2011-11-30T10:20:45Z</time></trkpt><trkpt lat="42.592127" lon="-2.581358"><ele>1028.5</ele><time>2011-11-30T10:20:46Z</time></trkpt><trkpt lat="42.592125" lon="-2.581370"><ele>1028.0</ele><time>2011-11-30T10:20:47Z</time></trkpt><trkpt lat="42.592130" lon="-2.581377"><ele>1027.5</ele><time>2011-11-30T10:20:48Z</time></trkpt><trkpt lat="42.592138" lon="-2.581385"><ele>1027.0</ele><time>2011-11-30T10:20:49Z</time></trkpt><trkpt lat="42.592137" lon="-2.581407"><ele>1027.5</ele><time>2011-11-30T10:20:50Z</time></trkpt><trkpt lat="42.592147" lon="-2.581408"><ele>1026.5</ele><time>2011-11-30T10:20:51Z</time></trkpt><trkpt lat="42.592148" lon="-2.581418"><ele>1026.5</ele><time>2011-11-30T10:20:52Z</time></trkpt><trkpt lat="42.592153" lon="-2.581425"><ele>1026.0</ele><time>2011-11-30T10:20:53Z</time></trkpt><trkpt lat="42.592160" lon="-2.581430"><ele>1025.5</ele><time>2011-11-30T10:20:54Z</time></trkpt><trkpt lat="42.592163" lon="-2.581437"><ele>1025.0</ele><time>2011-11-30T10:20:55Z</time></trkpt><trkpt lat="42.592170" lon="-2.581448"><ele>1025.0</ele><time>2011-11-30T10:20:56Z</time></trkpt><trkpt lat="42.592178" lon="-2.581453"><ele>1024.0</ele><time>2011-11-30T10:20:57Z</time></trkpt><trkpt lat="42.592185" lon="-2.581465"><ele>1023.5</ele><time>2011-11-30T10:20:58Z</time></trkpt><trkpt lat="42.592188" lon="-2.581475"><ele>1023.5</ele><time>2011-11-30T10:20:59Z</time></trkpt><trkpt lat="42.592193" lon="-2.581485"><ele>1023.0</ele><time>2011-11-30T10:21:00Z</time></trkpt><trkpt lat="42.592203" lon="-2.581490"><ele>1022.5</ele><time>2011-11-30T10:21:01Z</time></trkpt><trkpt lat="42.592207" lon="-2.581498"><ele>1022.0</ele><time>2011-11-30T10:21:02Z</time></trkpt><trkpt lat="42.592217" lon="-2.581503"><ele>1021.5</ele><time>2011-11-30T10:21:03Z</time></trkpt><trkpt lat="42.592222" lon="-2.581515"><ele>1021.0</ele><time>2011-11-30T10:21:04Z</time></trkpt><trkpt lat="42.592225" lon="-2.581527"><ele>1021.0</ele><time>2011-11-30T10:21:05Z</time></trkpt><trkpt lat="42.592228" lon="-2.581537"><ele>1021.0</ele><time>2011-11-30T10:21:06Z</time></trkpt><trkpt lat="42.592237" lon="-2.581547"><ele>1020.5</ele><time>2011-11-30T10:21:07Z</time></trkpt><trkpt lat="42.592242" lon="-2.581557"><ele>1021.0</ele><time>2011-11-30T10:21:08Z</time></trkpt><trkpt lat="42.592247" lon="-2.581567"><ele>1020.5</ele><time>2011-11-30T10:21:09Z</time></trkpt><trkpt lat="42.592253" lon="-2.581575"><ele>1020.5</ele><time>2011-11-30T10:21:10Z</time></trkpt><trkpt lat="42.592255" lon="-2.581583"><ele>1020.0</ele><time>2011-11-30T10:21:11Z</time></trkpt><trkpt lat="42.592263" lon="-2.581590"><ele>1019.5</ele><time>2011-11-30T10:21:12Z</time></trkpt><trkpt lat="42.592263" lon="-2.581603"><ele>1020.0</ele><time>2011-11-30T10:21:13Z</time></trkpt><trkpt lat="42.592275" lon="-2.581600"><ele>1018.0</ele><time>2011-11-30T10:21:14Z</time></trkpt><trkpt lat="42.592287" lon="-2.581608"><ele>1020.0</ele><time>2011-11-30T10:21:15Z</time></trkpt><trkpt lat="42.592282" lon="-2.581625"><ele>1020.0</ele><time>2011-11-30T10:21:16Z</time></trkpt><trkpt lat="42.592277" lon="-2.581653"><ele>1021.5</ele><time>2011-11-30T10:21:17Z</time></trkpt><trkpt lat="42.592275" lon="-2.581670"><ele>1021.5</ele><time>2011-11-30T10:21:18Z</time></trkpt><trkpt lat="42.592272" lon="-2.581687"><ele>1022.5</ele><time>2011-11-30T10:21:19Z</time></trkpt><trkpt lat="42.592270" lon="-2.581703"><ele>1023.0</ele><time>2011-11-30T10:21:20Z</time></trkpt><trkpt lat="42.592273" lon="-2.581717"><ele>1023.0</ele><time>2011-11-30T10:21:21Z</time></trkpt><trkpt lat="42.592275" lon="-2.581732"><ele>1023.0</ele><time>2011-11-30T10:21:22Z</time></trkpt><trkpt lat="42.592277" lon="-2.581745"><ele>1023.5</ele><time>2011-11-30T10:21:23Z</time></trkpt><trkpt lat="42.592282" lon="-2.581755"><ele>1023.5</ele><time>2011-11-30T10:21:24Z</time></trkpt><trkpt lat="42.592285" lon="-2.581765"><ele>1023.0</ele><time>2011-11-30T10:21:25Z</time></trkpt><trkpt lat="42.592285" lon="-2.581782"><ele>1023.5</ele><time>2011-11-30T10:21:26Z</time></trkpt><trkpt lat="42.592282" lon="-2.581802"><ele>1024.5</ele><time>2011-11-30T10:21:27Z</time></trkpt><trkpt lat="42.592288" lon="-2.581810"><ele>1024.0</ele><time>2011-11-30T10:21:28Z</time></trkpt><trkpt lat="42.592290" lon="-2.581825"><ele>1024.5</ele><time>2011-11-30T10:21:29Z</time></trkpt><trkpt lat="42.592288" lon="-2.581840"><ele>1025.0</ele><time>2011-11-30T10:21:30Z</time></trkpt><trkpt lat="42.592287" lon="-2.581870"><ele>1026.0</ele><time>2011-11-30T10:21:31Z</time></trkpt><trkpt lat="42.592285" lon="-2.581885"><ele>1026.0</ele><time>2011-11-30T10:21:32Z</time></trkpt><trkpt lat="42.592285" lon="-2.581895"><ele>1026.0</ele><time>2011-11-30T10:21:33Z</time></trkpt><trkpt lat="42.592287" lon="-2.581905"><ele>1026.0</ele><time>2011-11-30T10:21:34Z</time></trkpt><trkpt lat="42.592288" lon="-2.581918"><ele>1026.0</ele><time>2011-11-30T10:21:35Z</time></trkpt><trkpt lat="42.592287" lon="-2.581930"><ele>1026.0</ele><time>2011-11-30T10:21:36Z</time></trkpt><trkpt lat="42.592283" lon="-2.581943"><ele>1026.5</ele><time>2011-11-30T10:21:37Z</time></trkpt><trkpt lat="42.592282" lon="-2.581958"><ele>1027.0</ele><time>2011-11-30T10:21:38Z</time></trkpt><trkpt lat="42.592283" lon="-2.581968"><ele>1027.0</ele><time>2011-11-30T10:21:39Z</time></trkpt><trkpt lat="42.592283" lon="-2.581978"><ele>1027.0</ele><time>2011-11-30T10:21:40Z</time></trkpt><trkpt lat="42.592282" lon="-2.581992"><ele>1027.0</ele><time>2011-11-30T10:21:41Z</time></trkpt><trkpt lat="42.592287" lon="-2.582002"><ele>1027.0</ele><time>2011-11-30T10:21:42Z</time></trkpt><trkpt lat="42.592288" lon="-2.582013"><ele>1027.0</ele><time>2011-11-30T10:21:43Z</time></trkpt><trkpt lat="42.592282" lon="-2.582035"><ele>1028.5</ele><time>2011-11-30T10:21:44Z</time></trkpt><trkpt lat="42.592287" lon="-2.582048"><ele>1028.5</ele><time>2011-11-30T10:21:45Z</time></trkpt><trkpt lat="42.592287" lon="-2.582062"><ele>1028.5</ele><time>2011-11-30T10:21:46Z</time></trkpt><trkpt lat="42.592293" lon="-2.582072"><ele>1028.0</ele><time>2011-11-30T10:21:47Z</time></trkpt><trkpt lat="42.592302" lon="-2.582078"><ele>1027.5</ele><time>2011-11-30T10:21:48Z</time></trkpt><trkpt lat="42.592307" lon="-2.582088"><ele>1027.5</ele><time>2011-11-30T10:21:49Z</time></trkpt><trkpt lat="42.592310" lon="-2.582098"><ele>1027.5</ele><time>2011-11-30T10:21:50Z</time></trkpt><trkpt lat="42.592315" lon="-2.582108"><ele>1027.5</ele><time>2011-11-30T10:21:51Z</time></trkpt><trkpt lat="42.592322" lon="-2.582117"><ele>1027.0</ele><time>2011-11-30T10:21:52Z</time></trkpt><trkpt lat="42.592320" lon="-2.582142"><ele>1028.5</ele><time>2011-11-30T10:21:53Z</time></trkpt><trkpt lat="42.592308" lon="-2.582175"><ele>1031.0</ele><time>2011-11-30T10:21:54Z</time></trkpt><trkpt lat="42.592310" lon="-2.582190"><ele>1031.0</ele><time>2011-11-30T10:21:55Z</time></trkpt><trkpt lat="42.592317" lon="-2.582200"><ele>1030.5</ele><time>2011-11-30T10:21:56Z</time></trkpt><trkpt lat="42.592317" lon="-2.582210"><ele>1030.0</ele><time>2011-11-30T10:21:57Z</time></trkpt><trkpt lat="42.592317" lon="-2.582223"><ele>1030.5</ele><time>2011-11-30T10:21:58Z</time></trkpt><trkpt lat="42.592317" lon="-2.582235"><ele>1030.5</ele><time>2011-11-30T10:21:59Z</time></trkpt><trkpt lat="42.592312" lon="-2.582260"><ele>1031.5</ele><time>2011-11-30T10:22:00Z</time></trkpt><trkpt lat="42.592317" lon="-2.582262"><ele>1030.5</ele><time>2011-11-30T10:22:01Z</time></trkpt><trkpt lat="42.592318" lon="-2.582268"><ele>1030.0</ele><time>2011-11-30T10:22:02Z</time></trkpt><trkpt lat="42.592322" lon="-2.582275"><ele>1029.5</ele><time>2011-11-30T10:22:03Z</time></trkpt><trkpt lat="42.592327" lon="-2.582290"><ele>1029.0</ele><time>2011-11-30T10:22:04Z</time></trkpt><trkpt lat="42.592325" lon="-2.582307"><ele>1029.0</ele><time>2011-11-30T10:22:05Z</time></trkpt><trkpt lat="42.592327" lon="-2.582315"><ele>1028.5</ele><time>2011-11-30T10:22:06Z</time></trkpt><trkpt lat="42.592330" lon="-2.582325"><ele>1028.5</ele><time>2011-11-30T10:22:07Z</time></trkpt><trkpt lat="42.592330" lon="-2.582338"><ele>1028.5</ele><time>2011-11-30T10:22:08Z</time></trkpt><trkpt lat="42.592330" lon="-2.582350"><ele>1028.5</ele><time>2011-11-30T10:22:09Z</time></trkpt><trkpt lat="42.592328" lon="-2.582367"><ele>1029.0</ele><time>2011-11-30T10:22:10Z</time></trkpt><trkpt lat="42.592330" lon="-2.582375"><ele>1029.0</ele><time>2011-11-30T10:22:11Z</time></trkpt><trkpt lat="42.592332" lon="-2.582387"><ele>1028.5</ele><time>2011-11-30T10:22:12Z</time></trkpt><trkpt lat="42.592333" lon="-2.582418"><ele>1029.5</ele><time>2011-11-30T10:22:14Z</time></trkpt><trkpt lat="42.592342" lon="-2.582427"><ele>1029.0</ele><time>2011-11-30T10:22:15Z</time></trkpt><trkpt lat="42.592342" lon="-2.582438"><ele>1029.0</ele><time>2011-11-30T10:22:16Z</time></trkpt><trkpt lat="42.592343" lon="-2.582452"><ele>1028.5</ele><time>2011-11-30T10:22:17Z</time></trkpt><trkpt lat="42.592345" lon="-2.582465"><ele>1029.0</ele><time>2011-11-30T10:22:18Z</time></trkpt><trkpt lat="42.592345" lon="-2.582483"><ele>1029.5</ele><time>2011-11-30T10:22:19Z</time></trkpt><trkpt lat="42.592353" lon="-2.582495"><ele>1029.5</ele><time>2011-11-30T10:22:20Z</time></trkpt><trkpt lat="42.592357" lon="-2.582503"><ele>1029.5</ele><time>2011-11-30T10:22:21Z</time></trkpt><trkpt lat="42.592355" lon="-2.582513"><ele>1029.0</ele><time>2011-11-30T10:22:22Z</time></trkpt><trkpt lat="42.592358" lon="-2.582522"><ele>1029.0</ele><time>2011-11-30T10:22:23Z</time></trkpt><trkpt lat="42.592363" lon="-2.582530"><ele>1029.0</ele><time>2011-11-30T10:22:24Z</time></trkpt><trkpt lat="42.592363" lon="-2.582547"><ele>1029.5</ele><time>2011-11-30T10:22:25Z</time></trkpt><trkpt lat="42.592367" lon="-2.582553"><ele>1029.0</ele><time>2011-11-30T10:22:26Z</time></trkpt><trkpt lat="42.592373" lon="-2.582560"><ele>1028.5</ele><time>2011-11-30T10:22:27Z</time></trkpt><trkpt lat="42.592380" lon="-2.582570"><ele>1029.0</ele><time>2011-11-30T10:22:28Z</time></trkpt><trkpt lat="42.592378" lon="-2.582588"><ele>1030.0</ele><time>2011-11-30T10:22:29Z</time></trkpt><trkpt lat="42.592385" lon="-2.582593"><ele>1030.0</ele><time>2011-11-30T10:22:30Z</time></trkpt><trkpt lat="42.592392" lon="-2.582603"><ele>1030.5</ele><time>2011-11-30T10:22:31Z</time></trkpt><trkpt lat="42.592398" lon="-2.582613"><ele>1030.5</ele><time>2011-11-30T10:22:32Z</time></trkpt><trkpt lat="42.592398" lon="-2.582627"><ele>1031.0</ele><time>2011-11-30T10:22:33Z</time></trkpt><trkpt lat="42.592397" lon="-2.582645"><ele>1032.5</ele><time>2011-11-30T10:22:34Z</time></trkpt><trkpt lat="42.592408" lon="-2.582660"><ele>1032.0</ele><time>2011-11-30T10:22:35Z</time></trkpt><trkpt lat="42.592408" lon="-2.582678"><ele>1033.5</ele><time>2011-11-30T10:22:36Z</time></trkpt><trkpt lat="42.592410" lon="-2.582688"><ele>1034.0</ele><time>2011-11-30T10:22:37Z</time></trkpt><trkpt lat="42.592415" lon="-2.582697"><ele>1034.0</ele><time>2011-11-30T10:22:38Z</time></trkpt><trkpt lat="42.592413" lon="-2.582718"><ele>1036.0</ele><time>2011-11-30T10:22:39Z</time></trkpt><trkpt lat="42.592410" lon="-2.582735"><ele>1037.0</ele><time>2011-11-30T10:22:40Z</time></trkpt><trkpt lat="42.592400" lon="-2.582785"><ele>1040.5</ele><time>2011-11-30T10:22:42Z</time></trkpt><trkpt lat="42.592408" lon="-2.582787"><ele>1040.0</ele><time>2011-11-30T10:22:43Z</time></trkpt><trkpt lat="42.592413" lon="-2.582793"><ele>1040.0</ele><time>2011-11-30T10:22:44Z</time></trkpt><trkpt lat="42.592418" lon="-2.582798"><ele>1040.0</ele><time>2011-11-30T10:22:45Z</time></trkpt><trkpt lat="42.592425" lon="-2.582803"><ele>1039.5</ele><time>2011-11-30T10:22:46Z</time></trkpt><trkpt lat="42.592433" lon="-2.582805"><ele>1039.0</ele><time>2011-11-30T10:22:47Z</time></trkpt><trkpt lat="42.592437" lon="-2.582815"><ele>1039.0</ele><time>2011-11-30T10:22:48Z</time></trkpt><trkpt lat="42.592443" lon="-2.582825"><ele>1039.0</ele><time>2011-11-30T10:22:49Z</time></trkpt><trkpt lat="42.592453" lon="-2.582830"><ele>1038.0</ele><time>2011-11-30T10:22:50Z</time></trkpt><trkpt lat="42.592465" lon="-2.582830"><ele>1037.0</ele><time>2011-11-30T10:22:51Z</time></trkpt><trkpt lat="42.592470" lon="-2.582835"><ele>1037.0</ele><time>2011-11-30T10:22:52Z</time></trkpt><trkpt lat="42.592472" lon="-2.582842"><ele>1036.5</ele><time>2011-11-30T10:22:53Z</time></trkpt><trkpt lat="42.592475" lon="-2.582852"><ele>1036.5</ele><time>2011-11-30T10:22:54Z</time></trkpt><trkpt lat="42.592477" lon="-2.582865"><ele>1036.5</ele><time>2011-11-30T10:22:55Z</time></trkpt><trkpt lat="42.592475" lon="-2.582880"><ele>1037.0</ele><time>2011-11-30T10:22:56Z</time></trkpt><trkpt lat="42.592477" lon="-2.582892"><ele>1037.0</ele><time>2011-11-30T10:22:57Z</time></trkpt><trkpt lat="42.592480" lon="-2.582907"><ele>1037.5</ele><time>2011-11-30T10:22:58Z</time></trkpt><trkpt lat="42.592487" lon="-2.582912"><ele>1037.5</ele><time>2011-11-30T10:22:59Z</time></trkpt><trkpt lat="42.592495" lon="-2.582917"><ele>1037.5</ele><time>2011-11-30T10:23:00Z</time></trkpt><trkpt lat="42.592497" lon="-2.582928"><ele>1037.5</ele><time>2011-11-30T10:23:01Z</time></trkpt><trkpt lat="42.592495" lon="-2.582938"><ele>1038.0</ele><time>2011-11-30T10:23:02Z</time></trkpt><trkpt lat="42.592500" lon="-2.582943"><ele>1038.0</ele><time>2011-11-30T10:23:03Z</time></trkpt><trkpt lat="42.592502" lon="-2.582962"><ele>1038.5</ele><time>2011-11-30T10:23:04Z</time></trkpt><trkpt lat="42.592500" lon="-2.582982"><ele>1040.0</ele><time>2011-11-30T10:23:05Z</time></trkpt><trkpt lat="42.592503" lon="-2.582998"><ele>1040.5</ele><time>2011-11-30T10:23:06Z</time></trkpt><trkpt lat="42.592508" lon="-2.583008"><ele>1041.0</ele><time>2011-11-30T10:23:07Z</time></trkpt><trkpt lat="42.592513" lon="-2.583030"><ele>1041.5</ele><time>2011-11-30T10:23:08Z</time></trkpt><trkpt lat="42.592515" lon="-2.583043"><ele>1042.0</ele><time>2011-11-30T10:23:09Z</time></trkpt><trkpt lat="42.592515" lon="-2.583053"><ele>1042.0</ele><time>2011-11-30T10:23:10Z</time></trkpt><trkpt lat="42.592522" lon="-2.583072"><ele>1042.0</ele><time>2011-11-30T10:23:11Z</time></trkpt><trkpt lat="42.592523" lon="-2.583093"><ele>1042.0</ele><time>2011-11-30T10:23:12Z</time></trkpt><trkpt lat="42.592528" lon="-2.583100"><ele>1041.5</ele><time>2011-11-30T10:23:13Z</time></trkpt><trkpt lat="42.592532" lon="-2.583112"><ele>1041.5</ele><time>2011-11-30T10:23:14Z</time></trkpt><trkpt lat="42.592533" lon="-2.583123"><ele>1042.0</ele><time>2011-11-30T10:23:15Z</time></trkpt><trkpt lat="42.592538" lon="-2.583130"><ele>1041.5</ele><time>2011-11-30T10:23:16Z</time></trkpt><trkpt lat="42.592538" lon="-2.583145"><ele>1041.5</ele><time>2011-11-30T10:23:17Z</time></trkpt><trkpt lat="42.592542" lon="-2.583158"><ele>1041.5</ele><time>2011-11-30T10:23:18Z</time></trkpt><trkpt lat="42.592542" lon="-2.583175"><ele>1042.5</ele><time>2011-11-30T10:23:19Z</time></trkpt><trkpt lat="42.592557" lon="-2.583182"><ele>1040.0</ele><time>2011-11-30T10:23:20Z</time></trkpt><trkpt lat="42.592565" lon="-2.583185"><ele>1039.0</ele><time>2011-11-30T10:23:21Z</time></trkpt><trkpt lat="42.592558" lon="-2.583203"><ele>1039.5</ele><time>2011-11-30T10:23:22Z</time></trkpt><trkpt lat="42.592562" lon="-2.583213"><ele>1039.5</ele><time>2011-11-30T10:23:23Z</time></trkpt><trkpt lat="42.592570" lon="-2.583220"><ele>1039.0</ele><time>2011-11-30T10:23:24Z</time></trkpt><trkpt lat="42.592570" lon="-2.583238"><ele>1039.5</ele><time>2011-11-30T10:23:25Z</time></trkpt><trkpt lat="42.592570" lon="-2.583253"><ele>1040.0</ele><time>2011-11-30T10:23:26Z</time></trkpt><trkpt lat="42.592577" lon="-2.583275"><ele>1040.5</ele><time>2011-11-30T10:23:27Z</time></trkpt><trkpt lat="42.592580" lon="-2.583285"><ele>1040.5</ele><time>2011-11-30T10:23:28Z</time></trkpt><trkpt lat="42.592573" lon="-2.583307"><ele>1042.5</ele><time>2011-11-30T10:23:29Z</time></trkpt><trkpt lat="42.592572" lon="-2.583318"><ele>1043.0</ele><time>2011-11-30T10:23:30Z</time></trkpt><trkpt lat="42.592563" lon="-2.583338"><ele>1044.5</ele><time>2011-11-30T10:23:31Z</time></trkpt><trkpt lat="42.592568" lon="-2.583352"><ele>1045.0</ele><time>2011-11-30T10:23:32Z</time></trkpt><trkpt lat="42.592570" lon="-2.583360"><ele>1045.5</ele><time>2011-11-30T10:23:33Z</time></trkpt><trkpt lat="42.592585" lon="-2.583362"><ele>1044.0</ele><time>2011-11-30T10:23:34Z</time></trkpt><trkpt lat="42.592595" lon="-2.583363"><ele>1043.5</ele><time>2011-11-30T10:23:35Z</time></trkpt><trkpt lat="42.592598" lon="-2.583373"><ele>1043.5</ele><time>2011-11-30T10:23:36Z</time></trkpt><trkpt lat="42.592608" lon="-2.583377"><ele>1042.5</ele><time>2011-11-30T10:23:37Z</time></trkpt><trkpt lat="42.592607" lon="-2.583392"><ele>1043.5</ele><time>2011-11-30T10:23:38Z</time></trkpt><trkpt lat="42.592603" lon="-2.583415"><ele>1045.0</ele><time>2011-11-30T10:23:39Z</time></trkpt><trkpt lat="42.592597" lon="-2.583433"><ele>1046.0</ele><time>2011-11-30T10:23:40Z</time></trkpt><trkpt lat="42.592598" lon="-2.583447"><ele>1046.0</ele><time>2011-11-30T10:23:41Z</time></trkpt><trkpt lat="42.592603" lon="-2.583455"><ele>1046.0</ele><time>2011-11-30T10:23:42Z</time></trkpt><trkpt lat="42.592617" lon="-2.583467"><ele>1045.5</ele><time>2011-11-30T10:23:43Z</time></trkpt><trkpt lat="42.592618" lon="-2.583482"><ele>1046.5</ele><time>2011-11-30T10:23:44Z</time></trkpt><trkpt lat="42.592635" lon="-2.583480"><ele>1049.0</ele><time>2011-11-30T10:23:45Z</time></trkpt><trkpt lat="42.592652" lon="-2.583470"><ele>1047.0</ele><time>2011-11-30T10:23:46Z</time></trkpt><trkpt lat="42.592658" lon="-2.583472"><ele>1047.0</ele><time>2011-11-30T10:23:47Z</time></trkpt><trkpt lat="42.592652" lon="-2.583515"><ele>1049.5</ele><time>2011-11-30T10:23:49Z</time></trkpt><trkpt lat="42.592655" lon="-2.583527"><ele>1049.5</ele><time>2011-11-30T10:23:50Z</time></trkpt><trkpt lat="42.592658" lon="-2.583548"><ele>1050.0</ele><time>2011-11-30T10:23:51Z</time></trkpt><trkpt lat="42.592652" lon="-2.583575"><ele>1051.5</ele><time>2011-11-30T10:23:52Z</time></trkpt><trkpt lat="42.592640" lon="-2.583613"><ele>1054.5</ele><time>2011-11-30T10:23:53Z</time></trkpt><trkpt lat="42.592633" lon="-2.583640"><ele>1055.5</ele><time>2011-11-30T10:23:54Z</time></trkpt><trkpt lat="42.592640" lon="-2.583645"><ele>1054.5</ele><time>2011-11-30T10:23:55Z</time></trkpt><trkpt lat="42.592648" lon="-2.583662"><ele>1053.5</ele><time>2011-11-30T10:23:56Z</time></trkpt><trkpt lat="42.592653" lon="-2.583678"><ele>1052.5</ele><time>2011-11-30T10:23:57Z</time></trkpt><trkpt lat="42.592660" lon="-2.583687"><ele>1052.0</ele><time>2011-11-30T10:23:58Z</time></trkpt><trkpt lat="42.592660" lon="-2.583703"><ele>1052.5</ele><time>2011-11-30T10:23:59Z</time></trkpt><trkpt lat="42.592668" lon="-2.583710"><ele>1052.0</ele><time>2011-11-30T10:24:00Z</time></trkpt><trkpt lat="42.592670" lon="-2.583723"><ele>1052.5</ele><time>2011-11-30T10:24:01Z</time></trkpt><trkpt lat="42.592678" lon="-2.583728"><ele>1052.0</ele><time>2011-11-30T10:24:02Z</time></trkpt><trkpt lat="42.592685" lon="-2.583733"><ele>1051.0</ele><time>2011-11-30T10:24:03Z</time></trkpt><trkpt lat="42.592688" lon="-2.583742"><ele>1051.0</ele><time>2011-11-30T10:24:04Z</time></trkpt><trkpt lat="42.592697" lon="-2.583743"><ele>1050.5</ele><time>2011-11-30T10:24:05Z</time></trkpt><trkpt lat="42.592692" lon="-2.583758"><ele>1051.5</ele><time>2011-11-30T10:24:06Z</time></trkpt><trkpt lat="42.592702" lon="-2.583765"><ele>1050.5</ele><time>2011-11-30T10:24:07Z</time></trkpt><trkpt lat="42.592723" lon="-2.583778"><ele>1049.5</ele><time>2011-11-30T10:24:08Z</time></trkpt><trkpt lat="42.592737" lon="-2.583775"><ele>1049.0</ele><time>2011-11-30T10:24:09Z</time></trkpt><trkpt lat="42.592750" lon="-2.583783"><ele>1049.5</ele><time>2011-11-30T10:24:10Z</time></trkpt><trkpt lat="42.592750" lon="-2.583803"><ele>1051.0</ele><time>2011-11-30T10:24:11Z</time></trkpt><trkpt lat="42.592750" lon="-2.583823"><ele>1052.5</ele><time>2011-11-30T10:24:12Z</time></trkpt><trkpt lat="42.592745" lon="-2.583838"><ele>1053.0</ele><time>2011-11-30T10:24:13Z</time></trkpt><trkpt lat="42.592760" lon="-2.583840"><ele>1052.5</ele><time>2011-11-30T10:24:14Z</time></trkpt><trkpt lat="42.592767" lon="-2.583850"><ele>1053.0</ele><time>2011-11-30T10:24:15Z</time></trkpt><trkpt lat="42.592785" lon="-2.583855"><ele>1052.5</ele><time>2011-11-30T10:24:16Z</time></trkpt><trkpt lat="42.592813" lon="-2.583887"><ele>1054.5</ele><time>2011-11-30T10:24:18Z</time></trkpt><trkpt lat="42.592835" lon="-2.583883"><ele>1053.5</ele><time>2011-11-30T10:24:19Z</time></trkpt><trkpt lat="42.592893" lon="-2.583877"><ele>1050.5</ele><time>2011-11-30T10:24:20Z</time></trkpt><trkpt lat="42.592897" lon="-2.583890"><ele>1051.0</ele><time>2011-11-30T10:24:21Z</time></trkpt><trkpt lat="42.592922" lon="-2.583878"><ele>1048.5</ele><time>2011-11-30T10:24:22Z</time></trkpt><trkpt lat="42.592943" lon="-2.583870"><ele>1047.0</ele><time>2011-11-30T10:24:23Z</time></trkpt><trkpt lat="42.592957" lon="-2.583867"><ele>1046.5</ele><time>2011-11-30T10:24:24Z</time></trkpt><trkpt lat="42.592962" lon="-2.583885"><ele>1047.5</ele><time>2011-11-30T10:24:25Z</time></trkpt><trkpt lat="42.592958" lon="-2.583897"><ele>1049.0</ele><time>2011-11-30T10:24:26Z</time></trkpt><trkpt lat="42.592968" lon="-2.583898"><ele>1048.0</ele><time>2011-11-30T10:24:27Z</time></trkpt><trkpt lat="42.592968" lon="-2.583905"><ele>1048.5</ele><time>2011-11-30T10:24:28Z</time></trkpt><trkpt lat="42.592972" lon="-2.583910"><ele>1048.0</ele><time>2011-11-30T10:24:29Z</time></trkpt><trkpt lat="42.592977" lon="-2.583915"><ele>1048.5</ele><time>2011-11-30T10:24:30Z</time></trkpt><trkpt lat="42.592988" lon="-2.583920"><ele>1048.0</ele><time>2011-11-30T10:24:31Z</time></trkpt><trkpt lat="42.593005" lon="-2.583925"><ele>1047.5</ele><time>2011-11-30T10:24:32Z</time></trkpt><trkpt lat="42.593028" lon="-2.583925"><ele>1047.5</ele><time>2011-11-30T10:24:32Z</time></trkpt><trkpt lat="42.593035" lon="-2.583933"><ele>1048.0</ele><time>2011-11-30T10:24:33Z</time></trkpt><trkpt lat="42.593072" lon="-2.583910"><ele>1045.5</ele><time>2011-11-30T10:24:35Z</time></trkpt><trkpt lat="42.593102" lon="-2.583903"><ele>1045.5</ele><time>2011-11-30T10:24:36Z</time></trkpt><trkpt lat="42.593110" lon="-2.583898"><ele>1045.0</ele><time>2011-11-30T10:24:37Z</time></trkpt><trkpt lat="42.593125" lon="-2.583895"><ele>1044.5</ele><time>2011-11-30T10:24:38Z</time></trkpt><trkpt lat="42.593133" lon="-2.583900"><ele>1045.5</ele><time>2011-11-30T10:24:39Z</time></trkpt><trkpt lat="42.593143" lon="-2.583902"><ele>1045.5</ele><time>2011-11-30T10:24:40Z</time></trkpt><trkpt lat="42.593152" lon="-2.583907"><ele>1046.0</ele><time>2011-11-30T10:24:41Z</time></trkpt><trkpt lat="42.593177" lon="-2.583900"><ele>1046.0</ele><time>2011-11-30T10:24:42Z</time></trkpt><trkpt lat="42.593185" lon="-2.583902"><ele>1046.0</ele><time>2011-11-30T10:24:43Z</time></trkpt><trkpt lat="42.593197" lon="-2.583900"><ele>1046.0</ele><time>2011-11-30T10:24:44Z</time></trkpt><trkpt lat="42.593225" lon="-2.583897"><ele>1045.0</ele><time>2011-11-30T10:24:45Z</time></trkpt><trkpt lat="42.593250" lon="-2.583887"><ele>1045.0</ele><time>2011-11-30T10:24:46Z</time></trkpt><trkpt lat="42.593262" lon="-2.583883"><ele>1045.0</ele><time>2011-11-30T10:24:47Z</time></trkpt><trkpt lat="42.593287" lon="-2.583870"><ele>1045.0</ele><time>2011-11-30T10:24:48Z</time></trkpt><trkpt lat="42.593325" lon="-2.583845"><ele>1044.5</ele><time>2011-11-30T10:24:49Z</time></trkpt><trkpt lat="42.593332" lon="-2.583838"><ele>1044.5</ele><time>2011-11-30T10:24:50Z</time></trkpt><trkpt lat="42.593353" lon="-2.583828"><ele>1044.0</ele><time>2011-11-30T10:24:51Z</time></trkpt><trkpt lat="42.593358" lon="-2.583822"><ele>1044.0</ele><time>2011-11-30T10:24:52Z</time></trkpt><trkpt lat="42.593363" lon="-2.583817"><ele>1044.0</ele><time>2011-11-30T10:24:53Z</time></trkpt><trkpt lat="42.593367" lon="-2.583810"><ele>1044.0</ele><time>2011-11-30T10:24:54Z</time></trkpt><trkpt lat="42.593370" lon="-2.583803"><ele>1044.0</ele><time>2011-11-30T10:24:55Z</time></trkpt><trkpt lat="42.593395" lon="-2.583785"><ele>1044.0</ele><time>2011-11-30T10:24:56Z</time></trkpt><trkpt lat="42.593400" lon="-2.583780"><ele>1044.0</ele><time>2011-11-30T10:24:57Z</time></trkpt><trkpt lat="42.593413" lon="-2.583772"><ele>1044.5</ele><time>2011-11-30T10:24:58Z</time></trkpt><trkpt lat="42.593422" lon="-2.583772"><ele>1045.5</ele><time>2011-11-30T10:24:59Z</time></trkpt><trkpt lat="42.593435" lon="-2.583765"><ele>1044.5</ele><time>2011-11-30T10:25:00Z</time></trkpt><trkpt lat="42.593445" lon="-2.583760"><ele>1044.5</ele><time>2011-11-30T10:25:01Z</time></trkpt><trkpt lat="42.593453" lon="-2.583757"><ele>1044.5</ele><time>2011-11-30T10:25:02Z</time></trkpt><trkpt lat="42.593467" lon="-2.583752"><ele>1044.0</ele><time>2011-11-30T10:25:03Z</time></trkpt><trkpt lat="42.593488" lon="-2.583752"><ele>1044.5</ele><time>2011-11-30T10:25:04Z</time></trkpt><trkpt lat="42.593513" lon="-2.583747"><ele>1044.0</ele><time>2011-11-30T10:25:05Z</time></trkpt><trkpt lat="42.593522" lon="-2.583743"><ele>1044.5</ele><time>2011-11-30T10:25:06Z</time></trkpt><trkpt lat="42.593545" lon="-2.583747"><ele>1044.5</ele><time>2011-11-30T10:25:07Z</time></trkpt><trkpt lat="42.593555" lon="-2.583750"><ele>1044.5</ele><time>2011-11-30T10:25:08Z</time></trkpt><trkpt lat="42.593555" lon="-2.583758"><ele>1045.5</ele><time>2011-11-30T10:25:09Z</time></trkpt><trkpt lat="42.593557" lon="-2.583762"><ele>1045.5</ele><time>2011-11-30T10:25:10Z</time></trkpt><trkpt lat="42.593562" lon="-2.583767"><ele>1046.0</ele><time>2011-11-30T10:25:11Z</time></trkpt><trkpt lat="42.593558" lon="-2.583782"><ele>1047.0</ele><time>2011-11-30T10:25:12Z</time></trkpt><trkpt lat="42.593527" lon="-2.583850"><ele>1055.0</ele><time>2011-11-30T10:25:13Z</time></trkpt><trkpt lat="42.593522" lon="-2.583868"><ele>1057.0</ele><time>2011-11-30T10:25:14Z</time></trkpt><trkpt lat="42.593518" lon="-2.583877"><ele>1058.0</ele><time>2011-11-30T10:25:15Z</time></trkpt><trkpt lat="42.593522" lon="-2.583883"><ele>1058.0</ele><time>2011-11-30T10:25:16Z</time></trkpt><trkpt lat="42.593527" lon="-2.583888"><ele>1058.5</ele><time>2011-11-30T10:25:17Z</time></trkpt><trkpt lat="42.593538" lon="-2.583897"><ele>1058.5</ele><time>2011-11-30T10:25:18Z</time></trkpt><trkpt lat="42.593545" lon="-2.583903"><ele>1058.5</ele><time>2011-11-30T10:25:19Z</time></trkpt><trkpt lat="42.593550" lon="-2.583912"><ele>1058.0</ele><time>2011-11-30T10:25:20Z</time></trkpt><trkpt lat="42.593547" lon="-2.583923"><ele>1059.0</ele><time>2011-11-30T10:25:21Z</time></trkpt><trkpt lat="42.593543" lon="-2.583935"><ele>1059.5</ele><time>2011-11-30T10:25:22Z</time></trkpt><trkpt lat="42.593542" lon="-2.583942"><ele>1060.0</ele><time>2011-11-30T10:25:23Z</time></trkpt><trkpt lat="42.593548" lon="-2.583943"><ele>1060.0</ele><time>2011-11-30T10:25:24Z</time></trkpt><trkpt lat="42.593550" lon="-2.583950"><ele>1060.0</ele><time>2011-11-30T10:25:25Z</time></trkpt><trkpt lat="42.593577" lon="-2.583945"><ele>1059.0</ele><time>2011-11-30T10:25:26Z</time></trkpt><trkpt lat="42.593585" lon="-2.583950"><ele>1059.0</ele><time>2011-11-30T10:25:27Z</time></trkpt><trkpt lat="42.593590" lon="-2.583957"><ele>1059.0</ele><time>2011-11-30T10:25:28Z</time></trkpt><trkpt lat="42.593600" lon="-2.583958"><ele>1058.5</ele><time>2011-11-30T10:25:29Z</time></trkpt><trkpt lat="42.593605" lon="-2.583963"><ele>1058.5</ele><time>2011-11-30T10:25:30Z</time></trkpt><trkpt lat="42.593615" lon="-2.583962"><ele>1058.5</ele><time>2011-11-30T10:25:31Z</time></trkpt><trkpt lat="42.593637" lon="-2.583963"><ele>1057.5</ele><time>2011-11-30T10:25:32Z</time></trkpt><trkpt lat="42.593660" lon="-2.583958"><ele>1057.0</ele><time>2011-11-30T10:25:33Z</time></trkpt><trkpt lat="42.593672" lon="-2.583957"><ele>1056.5</ele><time>2011-11-30T10:25:34Z</time></trkpt><trkpt lat="42.593687" lon="-2.583963"><ele>1056.5</ele><time>2011-11-30T10:25:35Z</time></trkpt><trkpt lat="42.593693" lon="-2.583963"><ele>1056.0</ele><time>2011-11-30T10:25:36Z</time></trkpt><trkpt lat="42.593703" lon="-2.583963"><ele>1055.5</ele><time>2011-11-30T10:25:37Z</time></trkpt><trkpt lat="42.593710" lon="-2.583965"><ele>1055.5</ele><time>2011-11-30T10:25:38Z</time></trkpt><trkpt lat="42.593720" lon="-2.583965"><ele>1055.5</ele><time>2011-11-30T10:25:39Z</time></trkpt><trkpt lat="42.593722" lon="-2.583975"><ele>1056.5</ele><time>2011-11-30T10:25:40Z</time></trkpt><trkpt lat="42.593727" lon="-2.583980"><ele>1056.5</ele><time>2011-11-30T10:25:41Z</time></trkpt><trkpt lat="42.593733" lon="-2.583983"><ele>1057.0</ele><time>2011-11-30T10:25:42Z</time></trkpt><trkpt lat="42.593742" lon="-2.583987"><ele>1057.5</ele><time>2011-11-30T10:25:43Z</time></trkpt><trkpt lat="42.593778" lon="-2.583972"><ele>1059.0</ele><time>2011-11-30T10:25:44Z</time></trkpt><trkpt lat="42.593783" lon="-2.583970"><ele>1059.5</ele><time>2011-11-30T10:25:45Z</time></trkpt><trkpt lat="42.593790" lon="-2.583970"><ele>1059.5</ele><time>2011-11-30T10:25:46Z</time></trkpt><trkpt lat="42.593797" lon="-2.583967"><ele>1059.5</ele><time>2011-11-30T10:25:47Z</time></trkpt><trkpt lat="42.593807" lon="-2.583962"><ele>1059.5</ele><time>2011-11-30T10:25:48Z</time></trkpt><trkpt lat="42.593815" lon="-2.583958"><ele>1059.5</ele><time>2011-11-30T10:25:49Z</time></trkpt><trkpt lat="42.593820" lon="-2.583952"><ele>1060.0</ele><time>2011-11-30T10:25:50Z</time></trkpt><trkpt lat="42.593832" lon="-2.583945"><ele>1060.5</ele><time>2011-11-30T10:25:51Z</time></trkpt><trkpt lat="42.593842" lon="-2.583945"><ele>1061.0</ele><time>2011-11-30T10:25:52Z</time></trkpt><trkpt lat="42.593865" lon="-2.583935"><ele>1061.0</ele><time>2011-11-30T10:25:53Z</time></trkpt><trkpt lat="42.593900" lon="-2.583913"><ele>1061.5</ele><time>2011-11-30T10:25:54Z</time></trkpt><trkpt lat="42.593957" lon="-2.583893"><ele>1062.0</ele><time>2011-11-30T10:25:55Z</time></trkpt><trkpt lat="42.593965" lon="-2.583883"><ele>1063.0</ele><time>2011-11-30T10:25:56Z</time></trkpt><trkpt lat="42.593973" lon="-2.583875"><ele>1063.5</ele><time>2011-11-30T10:25:57Z</time></trkpt><trkpt lat="42.593980" lon="-2.583860"><ele>1065.0</ele><time>2011-11-30T10:25:58Z</time></trkpt><trkpt lat="42.593985" lon="-2.583857"><ele>1064.5</ele><time>2011-11-30T10:25:59Z</time></trkpt><trkpt lat="42.593987" lon="-2.583850"><ele>1065.0</ele><time>2011-11-30T10:26:00Z</time></trkpt><trkpt lat="42.593992" lon="-2.583835"><ele>1065.5</ele><time>2011-11-30T10:26:01Z</time></trkpt><trkpt lat="42.593997" lon="-2.583825"><ele>1065.5</ele><time>2011-11-30T10:26:02Z</time></trkpt><trkpt lat="42.594000" lon="-2.583818"><ele>1066.0</ele><time>2011-11-30T10:26:03Z</time></trkpt><trkpt lat="42.594005" lon="-2.583805"><ele>1067.5</ele><time>2011-11-30T10:26:04Z</time></trkpt><trkpt lat="42.594012" lon="-2.583792"><ele>1068.0</ele><time>2011-11-30T10:26:05Z</time></trkpt><trkpt lat="42.594015" lon="-2.583773"><ele>1068.5</ele><time>2011-11-30T10:26:06Z</time></trkpt><trkpt lat="42.594018" lon="-2.583765"><ele>1069.0</ele><time>2011-11-30T10:26:07Z</time></trkpt><trkpt lat="42.594023" lon="-2.583757"><ele>1069.0</ele><time>2011-11-30T10:26:08Z</time></trkpt><trkpt lat="42.594030" lon="-2.583750"><ele>1069.0</ele><time>2011-11-30T10:26:09Z</time></trkpt><trkpt lat="42.594035" lon="-2.583742"><ele>1068.5</ele><time>2011-11-30T10:26:10Z</time></trkpt><trkpt lat="42.594083" lon="-2.583732"><ele>1069.5</ele><time>2011-11-30T10:26:12Z</time></trkpt><trkpt lat="42.594085" lon="-2.583720"><ele>1070.0</ele><time>2011-11-30T10:26:13Z</time></trkpt><trkpt lat="42.594090" lon="-2.583712"><ele>1070.5</ele><time>2011-11-30T10:26:14Z</time></trkpt><trkpt lat="42.594095" lon="-2.583703"><ele>1070.5</ele><time>2011-11-30T10:26:15Z</time></trkpt><trkpt lat="42.594103" lon="-2.583693"><ele>1070.5</ele><time>2011-11-30T10:26:16Z</time></trkpt><trkpt lat="42.594107" lon="-2.583685"><ele>1070.5</ele><time>2011-11-30T10:26:17Z</time></trkpt><trkpt lat="42.594113" lon="-2.583668"><ele>1070.0</ele><time>2011-11-30T10:26:18Z</time></trkpt><trkpt lat="42.594122" lon="-2.583657"><ele>1070.5</ele><time>2011-11-30T10:26:19Z</time></trkpt><trkpt lat="42.594125" lon="-2.583650"><ele>1070.5</ele><time>2011-11-30T10:26:20Z</time></trkpt><trkpt lat="42.594133" lon="-2.583637"><ele>1071.0</ele><time>2011-11-30T10:26:21Z</time></trkpt><trkpt lat="42.594137" lon="-2.583628"><ele>1071.5</ele><time>2011-11-30T10:26:22Z</time></trkpt><trkpt lat="42.594155" lon="-2.583613"><ele>1069.5</ele><time>2011-11-30T10:26:23Z</time></trkpt><trkpt lat="42.594162" lon="-2.583607"><ele>1069.5</ele><time>2011-11-30T10:26:24Z</time></trkpt><trkpt lat="42.594175" lon="-2.583593"><ele>1069.0</ele><time>2011-11-30T10:26:25Z</time></trkpt><trkpt lat="42.594180" lon="-2.583588"><ele>1069.0</ele><time>2011-11-30T10:26:26Z</time></trkpt><trkpt lat="42.594187" lon="-2.583577"><ele>1069.0</ele><time>2011-11-30T10:26:27Z</time></trkpt><trkpt lat="42.594203" lon="-2.583552"><ele>1069.5</ele><time>2011-11-30T10:26:28Z</time></trkpt><trkpt lat="42.594208" lon="-2.583542"><ele>1070.0</ele><time>2011-11-30T10:26:29Z</time></trkpt><trkpt lat="42.594217" lon="-2.583533"><ele>1070.0</ele><time>2011-11-30T10:26:30Z</time></trkpt><trkpt lat="42.594220" lon="-2.583523"><ele>1071.0</ele><time>2011-11-30T10:26:31Z</time></trkpt><trkpt lat="42.594220" lon="-2.583515"><ele>1070.5</ele><time>2011-11-30T10:26:32Z</time></trkpt><trkpt lat="42.594228" lon="-2.583508"><ele>1070.5</ele><time>2011-11-30T10:26:33Z</time></trkpt><trkpt lat="42.594232" lon="-2.583497"><ele>1071.5</ele><time>2011-11-30T10:26:34Z</time></trkpt><trkpt lat="42.594245" lon="-2.583488"><ele>1071.5</ele><time>2011-11-30T10:26:35Z</time></trkpt><trkpt lat="42.594257" lon="-2.583475"><ele>1072.0</ele><time>2011-11-30T10:26:36Z</time></trkpt><trkpt lat="42.594262" lon="-2.583468"><ele>1072.0</ele><time>2011-11-30T10:26:37Z</time></trkpt><trkpt lat="42.594280" lon="-2.583457"><ele>1072.5</ele><time>2011-11-30T10:26:38Z</time></trkpt><trkpt lat="42.594283" lon="-2.583452"><ele>1072.5</ele><time>2011-11-30T10:26:39Z</time></trkpt><trkpt lat="42.594293" lon="-2.583442"><ele>1073.0</ele><time>2011-11-30T10:26:40Z</time></trkpt><trkpt lat="42.594300" lon="-2.583435"><ele>1072.5</ele><time>2011-11-30T10:26:41Z</time></trkpt><trkpt lat="42.594307" lon="-2.583422"><ele>1073.0</ele><time>2011-11-30T10:26:42Z</time></trkpt><trkpt lat="42.594317" lon="-2.583408"><ele>1073.5</ele><time>2011-11-30T10:26:43Z</time></trkpt><trkpt lat="42.594322" lon="-2.583403"><ele>1074.0</ele><time>2011-11-30T10:26:44Z</time></trkpt><trkpt lat="42.594362" lon="-2.583358"><ele>1075.0</ele><time>2011-11-30T10:26:45Z</time></trkpt><trkpt lat="42.594368" lon="-2.583355"><ele>1075.0</ele><time>2011-11-30T10:26:46Z</time></trkpt><trkpt lat="42.594378" lon="-2.583348"><ele>1074.0</ele><time>2011-11-30T10:26:47Z</time></trkpt><trkpt lat="42.594383" lon="-2.583340"><ele>1074.0</ele><time>2011-11-30T10:26:48Z</time></trkpt><trkpt lat="42.594393" lon="-2.583327"><ele>1075.0</ele><time>2011-11-30T10:26:49Z</time></trkpt><trkpt lat="42.594397" lon="-2.583318"><ele>1075.0</ele><time>2011-11-30T10:26:50Z</time></trkpt><trkpt lat="42.594402" lon="-2.583312"><ele>1075.0</ele><time>2011-11-30T10:26:51Z</time></trkpt><trkpt lat="42.594407" lon="-2.583302"><ele>1075.0</ele><time>2011-11-30T10:26:52Z</time></trkpt><trkpt lat="42.594423" lon="-2.583278"><ele>1073.5</ele><time>2011-11-30T10:26:53Z</time></trkpt><trkpt lat="42.594432" lon="-2.583272"><ele>1074.0</ele><time>2011-11-30T10:26:54Z</time></trkpt><trkpt lat="42.594438" lon="-2.583265"><ele>1074.5</ele><time>2011-11-30T10:26:55Z</time></trkpt><trkpt lat="42.594443" lon="-2.583257"><ele>1075.0</ele><time>2011-11-30T10:26:56Z</time></trkpt><trkpt lat="42.594465" lon="-2.583230"><ele>1077.0</ele><time>2011-11-30T10:26:57Z</time></trkpt><trkpt lat="42.594473" lon="-2.583222"><ele>1077.0</ele><time>2011-11-30T10:26:58Z</time></trkpt><trkpt lat="42.594482" lon="-2.583205"><ele>1077.5</ele><time>2011-11-30T10:26:59Z</time></trkpt><trkpt lat="42.594492" lon="-2.583190"><ele>1078.5</ele><time>2011-11-30T10:27:00Z</time></trkpt><trkpt lat="42.594497" lon="-2.583178"><ele>1078.5</ele><time>2011-11-30T10:27:01Z</time></trkpt><trkpt lat="42.594498" lon="-2.583170"><ele>1078.0</ele><time>2011-11-30T10:27:02Z</time></trkpt><trkpt lat="42.594503" lon="-2.583157"><ele>1077.5</ele><time>2011-11-30T10:27:03Z</time></trkpt><trkpt lat="42.594507" lon="-2.583147"><ele>1078.5</ele><time>2011-11-30T10:27:04Z</time></trkpt><trkpt lat="42.594513" lon="-2.583135"><ele>1079.0</ele><time>2011-11-30T10:27:05Z</time></trkpt><trkpt lat="42.594513" lon="-2.583125"><ele>1079.5</ele><time>2011-11-30T10:27:06Z</time></trkpt><trkpt lat="42.594518" lon="-2.583115"><ele>1079.5</ele><time>2011-11-30T10:27:07Z</time></trkpt><trkpt lat="42.594520" lon="-2.583105"><ele>1079.5</ele><time>2011-11-30T10:27:08Z</time></trkpt><trkpt lat="42.594520" lon="-2.583095"><ele>1080.0</ele><time>2011-11-30T10:27:09Z</time></trkpt><trkpt lat="42.594523" lon="-2.583083"><ele>1081.0</ele><time>2011-11-30T10:27:10Z</time></trkpt><trkpt lat="42.594528" lon="-2.583073"><ele>1081.5</ele><time>2011-11-30T10:27:11Z</time></trkpt><trkpt lat="42.594533" lon="-2.583063"><ele>1082.0</ele><time>2011-11-30T10:27:12Z</time></trkpt><trkpt lat="42.594540" lon="-2.583050"><ele>1082.5</ele><time>2011-11-30T10:27:13Z</time></trkpt><trkpt lat="42.594543" lon="-2.583040"><ele>1083.5</ele><time>2011-11-30T10:27:14Z</time></trkpt><trkpt lat="42.594548" lon="-2.583028"><ele>1083.5</ele><time>2011-11-30T10:27:15Z</time></trkpt><trkpt lat="42.594552" lon="-2.583018"><ele>1084.5</ele><time>2011-11-30T10:27:16Z</time></trkpt><trkpt lat="42.594557" lon="-2.583008"><ele>1085.5</ele><time>2011-11-30T10:27:17Z</time></trkpt><trkpt lat="42.594560" lon="-2.582997"><ele>1086.5</ele><time>2011-11-30T10:27:18Z</time></trkpt><trkpt lat="42.594568" lon="-2.582987"><ele>1087.0</ele><time>2011-11-30T10:27:19Z</time></trkpt><trkpt lat="42.594580" lon="-2.582973"><ele>1088.0</ele><time>2011-11-30T10:27:20Z</time></trkpt><trkpt lat="42.594595" lon="-2.582953"><ele>1087.0</ele><time>2011-11-30T10:27:21Z</time></trkpt><trkpt lat="42.594600" lon="-2.582947"><ele>1087.0</ele><time>2011-11-30T10:27:22Z</time></trkpt><trkpt lat="42.594605" lon="-2.582938"><ele>1086.5</ele><time>2011-11-30T10:27:23Z</time></trkpt><trkpt lat="42.594612" lon="-2.582930"><ele>1086.0</ele><time>2011-11-30T10:27:24Z</time></trkpt><trkpt lat="42.594617" lon="-2.582923"><ele>1085.5</ele><time>2011-11-30T10:27:25Z</time></trkpt><trkpt lat="42.594625" lon="-2.582918"><ele>1085.0</ele><time>2011-11-30T10:27:26Z</time></trkpt><trkpt lat="42.594632" lon="-2.582912"><ele>1085.0</ele><time>2011-11-30T10:27:27Z</time></trkpt><trkpt lat="42.594637" lon="-2.582905"><ele>1084.5</ele><time>2011-11-30T10:27:28Z</time></trkpt><trkpt lat="42.594640" lon="-2.582897"><ele>1085.0</ele><time>2011-11-30T10:27:29Z</time></trkpt><trkpt lat="42.594643" lon="-2.582888"><ele>1085.5</ele><time>2011-11-30T10:27:30Z</time></trkpt><trkpt lat="42.594648" lon="-2.582882"><ele>1085.0</ele><time>2011-11-30T10:27:31Z</time></trkpt><trkpt lat="42.594655" lon="-2.582870"><ele>1084.5</ele><time>2011-11-30T10:27:32Z</time></trkpt><trkpt lat="42.594662" lon="-2.582863"><ele>1084.0</ele><time>2011-11-30T10:27:33Z</time></trkpt><trkpt lat="42.594678" lon="-2.582850"><ele>1083.5</ele><time>2011-11-30T10:27:34Z</time></trkpt><trkpt lat="42.594687" lon="-2.582843"><ele>1083.0</ele><time>2011-11-30T10:27:35Z</time></trkpt><trkpt lat="42.594695" lon="-2.582827"><ele>1083.0</ele><time>2011-11-30T10:27:36Z</time></trkpt><trkpt lat="42.594700" lon="-2.582812"><ele>1083.0</ele><time>2011-11-30T10:27:37Z</time></trkpt><trkpt lat="42.594703" lon="-2.582803"><ele>1083.0</ele><time>2011-11-30T10:27:38Z</time></trkpt><trkpt lat="42.594692" lon="-2.582790"><ele>1085.0</ele><time>2011-11-30T10:27:39Z</time></trkpt><trkpt lat="42.594690" lon="-2.582782"><ele>1086.0</ele><time>2011-11-30T10:27:40Z</time></trkpt><trkpt lat="42.594693" lon="-2.582773"><ele>1085.5</ele><time>2011-11-30T10:27:41Z</time></trkpt><trkpt lat="42.594700" lon="-2.582762"><ele>1085.0</ele><time>2011-11-30T10:27:42Z</time></trkpt><trkpt lat="42.594703" lon="-2.582753"><ele>1085.0</ele><time>2011-11-30T10:27:43Z</time></trkpt><trkpt lat="42.594703" lon="-2.582745"><ele>1085.5</ele><time>2011-11-30T10:27:44Z</time></trkpt><trkpt lat="42.594712" lon="-2.582718"><ele>1086.0</ele><time>2011-11-30T10:27:45Z</time></trkpt><trkpt lat="42.594713" lon="-2.582710"><ele>1086.5</ele><time>2011-11-30T10:27:46Z</time></trkpt><trkpt lat="42.594723" lon="-2.582695"><ele>1085.5</ele><time>2011-11-30T10:27:47Z</time></trkpt><trkpt lat="42.594732" lon="-2.582678"><ele>1084.5</ele><time>2011-11-30T10:27:48Z</time></trkpt><trkpt lat="42.594735" lon="-2.582670"><ele>1085.5</ele><time>2011-11-30T10:27:49Z</time></trkpt><trkpt lat="42.594740" lon="-2.582662"><ele>1085.0</ele><time>2011-11-30T10:27:50Z</time></trkpt><trkpt lat="42.594748" lon="-2.582652"><ele>1085.5</ele><time>2011-11-30T10:27:51Z</time></trkpt><trkpt lat="42.594752" lon="-2.582643"><ele>1085.5</ele><time>2011-11-30T10:27:52Z</time></trkpt><trkpt lat="42.594755" lon="-2.582635"><ele>1086.0</ele><time>2011-11-30T10:27:53Z</time></trkpt><trkpt lat="42.594762" lon="-2.582623"><ele>1085.5</ele><time>2011-11-30T10:27:54Z</time></trkpt><trkpt lat="42.594767" lon="-2.582613"><ele>1085.5</ele><time>2011-11-30T10:27:55Z</time></trkpt><trkpt lat="42.594770" lon="-2.582603"><ele>1086.0</ele><time>2011-11-30T10:27:56Z</time></trkpt><trkpt lat="42.594773" lon="-2.582593"><ele>1086.0</ele><time>2011-11-30T10:27:57Z</time></trkpt><trkpt lat="42.594780" lon="-2.582578"><ele>1086.0</ele><time>2011-11-30T10:27:58Z</time></trkpt><trkpt lat="42.594782" lon="-2.582570"><ele>1086.0</ele><time>2011-11-30T10:27:59Z</time></trkpt><trkpt lat="42.594787" lon="-2.582562"><ele>1085.5</ele><time>2011-11-30T10:28:00Z</time></trkpt><trkpt lat="42.594792" lon="-2.582553"><ele>1085.5</ele><time>2011-11-30T10:28:01Z</time></trkpt><trkpt lat="42.594797" lon="-2.582538"><ele>1085.5</ele><time>2011-11-30T10:28:02Z</time></trkpt><trkpt lat="42.594800" lon="-2.582532"><ele>1086.0</ele><time>2011-11-30T10:28:03Z</time></trkpt><trkpt lat="42.594803" lon="-2.582525"><ele>1086.5</ele><time>2011-11-30T10:28:04Z</time></trkpt><trkpt lat="42.594812" lon="-2.582517"><ele>1086.0</ele><time>2011-11-30T10:28:05Z</time></trkpt><trkpt lat="42.594815" lon="-2.582510"><ele>1086.0</ele><time>2011-11-30T10:28:06Z</time></trkpt><trkpt lat="42.594818" lon="-2.582502"><ele>1086.0</ele><time>2011-11-30T10:28:07Z</time></trkpt><trkpt lat="42.594823" lon="-2.582487"><ele>1086.5</ele><time>2011-11-30T10:28:08Z</time></trkpt><trkpt lat="42.594827" lon="-2.582478"><ele>1087.0</ele><time>2011-11-30T10:28:09Z</time></trkpt><trkpt lat="42.594833" lon="-2.582467"><ele>1086.5</ele><time>2011-11-30T10:28:10Z</time></trkpt><trkpt lat="42.594847" lon="-2.582450"><ele>1086.5</ele><time>2011-11-30T10:28:11Z</time></trkpt><trkpt lat="42.594852" lon="-2.582437"><ele>1087.0</ele><time>2011-11-30T10:28:12Z</time></trkpt><trkpt lat="42.594862" lon="-2.582417"><ele>1087.0</ele><time>2011-11-30T10:28:13Z</time></trkpt><trkpt lat="42.594867" lon="-2.582410"><ele>1086.5</ele><time>2011-11-30T10:28:14Z</time></trkpt><trkpt lat="42.594873" lon="-2.582402"><ele>1086.5</ele><time>2011-11-30T10:28:15Z</time></trkpt><trkpt lat="42.594882" lon="-2.582388"><ele>1086.5</ele><time>2011-11-30T10:28:16Z</time></trkpt><trkpt lat="42.594887" lon="-2.582380"><ele>1086.0</ele><time>2011-11-30T10:28:17Z</time></trkpt><trkpt lat="42.594890" lon="-2.582373"><ele>1086.0</ele><time>2011-11-30T10:28:18Z</time></trkpt><trkpt lat="42.594897" lon="-2.582363"><ele>1086.5</ele><time>2011-11-30T10:28:19Z</time></trkpt><trkpt lat="42.594900" lon="-2.582353"><ele>1087.5</ele><time>2011-11-30T10:28:20Z</time></trkpt><trkpt lat="42.594905" lon="-2.582345"><ele>1088.0</ele><time>2011-11-30T10:28:21Z</time></trkpt><trkpt lat="42.594912" lon="-2.582338"><ele>1087.5</ele><time>2011-11-30T10:28:22Z</time></trkpt><trkpt lat="42.594925" lon="-2.582325"><ele>1086.5</ele><time>2011-11-30T10:28:23Z</time></trkpt><trkpt lat="42.594928" lon="-2.582313"><ele>1087.5</ele><time>2011-11-30T10:28:24Z</time></trkpt><trkpt lat="42.594930" lon="-2.582305"><ele>1088.0</ele><time>2011-11-30T10:28:25Z</time></trkpt><trkpt lat="42.594933" lon="-2.582297"><ele>1088.5</ele><time>2011-11-30T10:28:26Z</time></trkpt><trkpt lat="42.594937" lon="-2.582277"><ele>1090.0</ele><time>2011-11-30T10:28:27Z</time></trkpt><trkpt lat="42.594943" lon="-2.582268"><ele>1092.0</ele><time>2011-11-30T10:28:28Z</time></trkpt><trkpt lat="42.594945" lon="-2.582260"><ele>1092.0</ele><time>2011-11-30T10:28:29Z</time></trkpt><trkpt lat="42.594955" lon="-2.582252"><ele>1091.5</ele><time>2011-11-30T10:28:30Z</time></trkpt><trkpt lat="42.594963" lon="-2.582245"><ele>1091.5</ele><time>2011-11-30T10:28:31Z</time></trkpt><trkpt lat="42.594973" lon="-2.582238"><ele>1091.0</ele><time>2011-11-30T10:28:32Z</time></trkpt><trkpt lat="42.594978" lon="-2.582230"><ele>1090.5</ele><time>2011-11-30T10:28:33Z</time></trkpt><trkpt lat="42.594987" lon="-2.582217"><ele>1091.0</ele><time>2011-11-30T10:28:34Z</time></trkpt><trkpt lat="42.594997" lon="-2.582210"><ele>1090.0</ele><time>2011-11-30T10:28:35Z</time></trkpt><trkpt lat="42.595002" lon="-2.582193"><ele>1091.0</ele><time>2011-11-30T10:28:36Z</time></trkpt><trkpt lat="42.595012" lon="-2.582183"><ele>1090.5</ele><time>2011-11-30T10:28:37Z</time></trkpt><trkpt lat="42.595020" lon="-2.582177"><ele>1090.0</ele><time>2011-11-30T10:28:38Z</time></trkpt><trkpt lat="42.595025" lon="-2.582167"><ele>1090.5</ele><time>2011-11-30T10:28:39Z</time></trkpt><trkpt lat="42.595027" lon="-2.582157"><ele>1092.0</ele><time>2011-11-30T10:28:40Z</time></trkpt><trkpt lat="42.595030" lon="-2.582147"><ele>1093.5</ele><time>2011-11-30T10:28:41Z</time></trkpt><trkpt lat="42.595038" lon="-2.582140"><ele>1093.5</ele><time>2011-11-30T10:28:42Z</time></trkpt><trkpt lat="42.595052" lon="-2.582127"><ele>1093.5</ele><time>2011-11-30T10:28:43Z</time></trkpt><trkpt lat="42.595058" lon="-2.582120"><ele>1094.0</ele><time>2011-11-30T10:28:44Z</time></trkpt><trkpt lat="42.595098" lon="-2.582082"><ele>1096.0</ele><time>2011-11-30T10:28:45Z</time></trkpt><trkpt lat="42.595108" lon="-2.582072"><ele>1096.0</ele><time>2011-11-30T10:28:46Z</time></trkpt><trkpt lat="42.595112" lon="-2.582063"><ele>1096.5</ele><time>2011-11-30T10:28:47Z</time></trkpt><trkpt lat="42.595130" lon="-2.582037"><ele>1097.5</ele><time>2011-11-30T10:28:48Z</time></trkpt><trkpt lat="42.595140" lon="-2.582027"><ele>1096.5</ele><time>2011-11-30T10:28:49Z</time></trkpt><trkpt lat="42.595145" lon="-2.582018"><ele>1097.0</ele><time>2011-11-30T10:28:50Z</time></trkpt><trkpt lat="42.595167" lon="-2.581970"><ele>1100.5</ele><time>2011-11-30T10:28:51Z</time></trkpt><trkpt lat="42.595175" lon="-2.581957"><ele>1100.5</ele><time>2011-11-30T10:28:52Z</time></trkpt><trkpt lat="42.595180" lon="-2.581947"><ele>1099.5</ele><time>2011-11-30T10:28:53Z</time></trkpt><trkpt lat="42.595187" lon="-2.581930"><ele>1099.0</ele><time>2011-11-30T10:28:54Z</time></trkpt><trkpt lat="42.595195" lon="-2.581922"><ele>1098.5</ele><time>2011-11-30T10:28:55Z</time></trkpt><trkpt lat="42.595202" lon="-2.581913"><ele>1098.0</ele><time>2011-11-30T10:28:56Z</time></trkpt><trkpt lat="42.595210" lon="-2.581905"><ele>1097.5</ele><time>2011-11-30T10:28:57Z</time></trkpt><trkpt lat="42.595223" lon="-2.581897"><ele>1097.5</ele><time>2011-11-30T10:28:58Z</time></trkpt><trkpt lat="42.595228" lon="-2.581887"><ele>1099.0</ele><time>2011-11-30T10:28:59Z</time></trkpt><trkpt lat="42.595232" lon="-2.581870"><ele>1101.0</ele><time>2011-11-30T10:29:00Z</time></trkpt><trkpt lat="42.595245" lon="-2.581845"><ele>1103.0</ele><time>2011-11-30T10:29:01Z</time></trkpt><trkpt lat="42.595255" lon="-2.581827"><ele>1104.0</ele><time>2011-11-30T10:29:02Z</time></trkpt><trkpt lat="42.595257" lon="-2.581817"><ele>1104.5</ele><time>2011-11-30T10:29:03Z</time></trkpt><trkpt lat="42.595265" lon="-2.581807"><ele>1104.0</ele><time>2011-11-30T10:29:04Z</time></trkpt><trkpt lat="42.595277" lon="-2.581788"><ele>1104.0</ele><time>2011-11-30T10:29:05Z</time></trkpt><trkpt lat="42.595282" lon="-2.581778"><ele>1103.5</ele><time>2011-11-30T10:29:06Z</time></trkpt><trkpt lat="42.595285" lon="-2.581767"><ele>1104.0</ele><time>2011-11-30T10:29:07Z</time></trkpt><trkpt lat="42.595287" lon="-2.581758"><ele>1103.5</ele><time>2011-11-30T10:29:08Z</time></trkpt><trkpt lat="42.595290" lon="-2.581747"><ele>1103.5</ele><time>2011-11-30T10:29:09Z</time></trkpt><trkpt lat="42.595297" lon="-2.581732"><ele>1104.0</ele><time>2011-11-30T10:29:10Z</time></trkpt><trkpt lat="42.595298" lon="-2.581720"><ele>1104.0</ele><time>2011-11-30T10:29:11Z</time></trkpt><trkpt lat="42.595303" lon="-2.581700"><ele>1104.5</ele><time>2011-11-30T10:29:12Z</time></trkpt><trkpt lat="42.595310" lon="-2.581690"><ele>1105.0</ele><time>2011-11-30T10:29:13Z</time></trkpt><trkpt lat="42.595313" lon="-2.581682"><ele>1105.0</ele><time>2011-11-30T10:29:14Z</time></trkpt><trkpt lat="42.595312" lon="-2.581668"><ele>1105.5</ele><time>2011-11-30T10:29:15Z</time></trkpt><trkpt lat="42.595318" lon="-2.581652"><ele>1107.0</ele><time>2011-11-30T10:29:16Z</time></trkpt><trkpt lat="42.595323" lon="-2.581638"><ele>1107.5</ele><time>2011-11-30T10:29:17Z</time></trkpt><trkpt lat="42.595323" lon="-2.581625"><ele>1109.0</ele><time>2011-11-30T10:29:18Z</time></trkpt><trkpt lat="42.595327" lon="-2.581613"><ele>1109.5</ele><time>2011-11-30T10:29:19Z</time></trkpt><trkpt lat="42.595333" lon="-2.581602"><ele>1110.5</ele><time>2011-11-30T10:29:20Z</time></trkpt><trkpt lat="42.595335" lon="-2.581592"><ele>1111.0</ele><time>2011-11-30T10:29:21Z</time></trkpt><trkpt lat="42.595348" lon="-2.581565"><ele>1110.0</ele><time>2011-11-30T10:29:22Z</time></trkpt><trkpt lat="42.595352" lon="-2.581552"><ele>1110.0</ele><time>2011-11-30T10:29:23Z</time></trkpt><trkpt lat="42.595353" lon="-2.581543"><ele>1110.5</ele><time>2011-11-30T10:29:24Z</time></trkpt><trkpt lat="42.595357" lon="-2.581533"><ele>1110.5</ele><time>2011-11-30T10:29:25Z</time></trkpt><trkpt lat="42.595362" lon="-2.581523"><ele>1110.5</ele><time>2011-11-30T10:29:26Z</time></trkpt><trkpt lat="42.595363" lon="-2.581512"><ele>1108.0</ele><time>2011-11-30T10:29:27Z</time></trkpt><trkpt lat="42.595368" lon="-2.581498"><ele>1108.5</ele><time>2011-11-30T10:29:28Z</time></trkpt><trkpt lat="42.595375" lon="-2.581487"><ele>1110.0</ele><time>2011-11-30T10:29:29Z</time></trkpt><trkpt lat="42.595383" lon="-2.581472"><ele>1110.5</ele><time>2011-11-30T10:29:30Z</time></trkpt><trkpt lat="42.595390" lon="-2.581462"><ele>1111.0</ele><time>2011-11-30T10:29:31Z</time></trkpt><trkpt lat="42.595398" lon="-2.581452"><ele>1111.0</ele><time>2011-11-30T10:29:32Z</time></trkpt><trkpt lat="42.595410" lon="-2.581438"><ele>1110.0</ele><time>2011-11-30T10:29:33Z</time></trkpt><trkpt lat="42.595418" lon="-2.581427"><ele>1109.5</ele><time>2011-11-30T10:29:34Z</time></trkpt><trkpt lat="42.595433" lon="-2.581413"><ele>1110.0</ele><time>2011-11-30T10:29:35Z</time></trkpt><trkpt lat="42.595445" lon="-2.581398"><ele>1111.0</ele><time>2011-11-30T10:29:36Z</time></trkpt><trkpt lat="42.595455" lon="-2.581380"><ele>1113.5</ele><time>2011-11-30T10:29:37Z</time></trkpt><trkpt lat="42.595465" lon="-2.581363"><ele>1114.5</ele><time>2011-11-30T10:29:38Z</time></trkpt><trkpt lat="42.595472" lon="-2.581352"><ele>1115.0</ele><time>2011-11-30T10:29:39Z</time></trkpt><trkpt lat="42.595482" lon="-2.581338"><ele>1115.5</ele><time>2011-11-30T10:29:40Z</time></trkpt><trkpt lat="42.595488" lon="-2.581325"><ele>1116.0</ele><time>2011-11-30T10:29:41Z</time></trkpt><trkpt lat="42.595498" lon="-2.581313"><ele>1115.5</ele><time>2011-11-30T10:29:42Z</time></trkpt><trkpt lat="42.595503" lon="-2.581298"><ele>1116.0</ele><time>2011-11-30T10:29:43Z</time></trkpt><trkpt lat="42.595507" lon="-2.581287"><ele>1116.5</ele><time>2011-11-30T10:29:44Z</time></trkpt><trkpt lat="42.595517" lon="-2.581277"><ele>1117.0</ele><time>2011-11-30T10:29:45Z</time></trkpt><trkpt lat="42.595537" lon="-2.581275"><ele>1118.0</ele><time>2011-11-30T10:29:46Z</time></trkpt><trkpt lat="42.595567" lon="-2.581260"><ele>1119.0</ele><time>2011-11-30T10:29:47Z</time></trkpt><trkpt lat="42.595607" lon="-2.581262"><ele>1119.0</ele><time>2011-11-30T10:29:48Z</time></trkpt><trkpt lat="42.595613" lon="-2.581250"><ele>1118.5</ele><time>2011-11-30T10:29:49Z</time></trkpt><trkpt lat="42.595618" lon="-2.581242"><ele>1119.0</ele><time>2011-11-30T10:29:50Z</time></trkpt><trkpt lat="42.595622" lon="-2.581232"><ele>1118.5</ele><time>2011-11-30T10:29:51Z</time></trkpt><trkpt lat="42.595615" lon="-2.581223"><ele>1118.5</ele><time>2011-11-30T10:29:52Z</time></trkpt><trkpt lat="42.595622" lon="-2.581213"><ele>1119.0</ele><time>2011-11-30T10:29:53Z</time></trkpt><trkpt lat="42.595627" lon="-2.581207"><ele>1119.0</ele><time>2011-11-30T10:29:54Z</time></trkpt><trkpt lat="42.595630" lon="-2.581198"><ele>1120.0</ele><time>2011-11-30T10:29:55Z</time></trkpt><trkpt lat="42.595643" lon="-2.581183"><ele>1120.5</ele><time>2011-11-30T10:29:56Z</time></trkpt><trkpt lat="42.595648" lon="-2.581170"><ele>1121.0</ele><time>2011-11-30T10:29:57Z</time></trkpt><trkpt lat="42.595655" lon="-2.581162"><ele>1121.0</ele><time>2011-11-30T10:29:58Z</time></trkpt><trkpt lat="42.595663" lon="-2.581150"><ele>1121.5</ele><time>2011-11-30T10:29:59Z</time></trkpt><trkpt lat="42.595668" lon="-2.581138"><ele>1122.5</ele><time>2011-11-30T10:30:00Z</time></trkpt><trkpt lat="42.595673" lon="-2.581125"><ele>1124.0</ele><time>2011-11-30T10:30:01Z</time></trkpt><trkpt lat="42.595678" lon="-2.581112"><ele>1125.5</ele><time>2011-11-30T10:30:02Z</time></trkpt><trkpt lat="42.595683" lon="-2.581102"><ele>1126.0</ele><time>2011-11-30T10:30:03Z</time></trkpt><trkpt lat="42.595688" lon="-2.581090"><ele>1126.0</ele><time>2011-11-30T10:30:04Z</time></trkpt><trkpt lat="42.595695" lon="-2.581078"><ele>1125.5</ele><time>2011-11-30T10:30:05Z</time></trkpt><trkpt lat="42.595698" lon="-2.581068"><ele>1125.0</ele><time>2011-11-30T10:30:06Z</time></trkpt><trkpt lat="42.595713" lon="-2.581057"><ele>1124.0</ele><time>2011-11-30T10:30:07Z</time></trkpt><trkpt lat="42.595730" lon="-2.581043"><ele>1123.5</ele><time>2011-11-30T10:30:08Z</time></trkpt><trkpt lat="42.595743" lon="-2.581030"><ele>1123.0</ele><time>2011-11-30T10:30:09Z</time></trkpt><trkpt lat="42.595757" lon="-2.581015"><ele>1124.0</ele><time>2011-11-30T10:30:10Z</time></trkpt><trkpt lat="42.595767" lon="-2.581005"><ele>1124.0</ele><time>2011-11-30T10:30:11Z</time></trkpt><trkpt lat="42.595775" lon="-2.580995"><ele>1124.0</ele><time>2011-11-30T10:30:12Z</time></trkpt><trkpt lat="42.595787" lon="-2.580983"><ele>1124.5</ele><time>2011-11-30T10:30:13Z</time></trkpt><trkpt lat="42.595792" lon="-2.580972"><ele>1124.5</ele><time>2011-11-30T10:30:14Z</time></trkpt><trkpt lat="42.595802" lon="-2.580963"><ele>1124.0</ele><time>2011-11-30T10:30:15Z</time></trkpt><trkpt lat="42.595813" lon="-2.580950"><ele>1124.0</ele><time>2011-11-30T10:30:16Z</time></trkpt><trkpt lat="42.595822" lon="-2.580940"><ele>1123.5</ele><time>2011-11-30T10:30:17Z</time></trkpt><trkpt lat="42.595847" lon="-2.580917"><ele>1123.0</ele><time>2011-11-30T10:30:18Z</time></trkpt><trkpt lat="42.595857" lon="-2.580903"><ele>1123.5</ele><time>2011-11-30T10:30:19Z</time></trkpt><trkpt lat="42.595863" lon="-2.580893"><ele>1124.0</ele><time>2011-11-30T10:30:20Z</time></trkpt><trkpt lat="42.595872" lon="-2.580887"><ele>1124.0</ele><time>2011-11-30T10:30:21Z</time></trkpt><trkpt lat="42.595877" lon="-2.580880"><ele>1123.5</ele><time>2011-11-30T10:30:22Z</time></trkpt><trkpt lat="42.595885" lon="-2.580870"><ele>1125.0</ele><time>2011-11-30T10:30:23Z</time></trkpt><trkpt lat="42.595895" lon="-2.580858"><ele>1125.0</ele><time>2011-11-30T10:30:24Z</time></trkpt><trkpt lat="42.595903" lon="-2.580852"><ele>1125.0</ele><time>2011-11-30T10:30:25Z</time></trkpt><trkpt lat="42.595910" lon="-2.580843"><ele>1125.0</ele><time>2011-11-30T10:30:26Z</time></trkpt><trkpt lat="42.595923" lon="-2.580832"><ele>1125.0</ele><time>2011-11-30T10:30:27Z</time></trkpt><trkpt lat="42.595933" lon="-2.580822"><ele>1125.0</ele><time>2011-11-30T10:30:28Z</time></trkpt><trkpt lat="42.595950" lon="-2.580812"><ele>1125.5</ele><time>2011-11-30T10:30:29Z</time></trkpt><trkpt lat="42.595962" lon="-2.580805"><ele>1126.0</ele><time>2011-11-30T10:30:30Z</time></trkpt><trkpt lat="42.595985" lon="-2.580793"><ele>1126.0</ele><time>2011-11-30T10:30:32Z</time></trkpt><trkpt lat="42.595995" lon="-2.580788"><ele>1126.0</ele><time>2011-11-30T10:30:33Z</time></trkpt><trkpt lat="42.596007" lon="-2.580780"><ele>1126.5</ele><time>2011-11-30T10:30:35Z</time></trkpt><trkpt lat="42.596027" lon="-2.580763"><ele>1127.5</ele><time>2011-11-30T10:30:36Z</time></trkpt><trkpt lat="42.596037" lon="-2.580757"><ele>1128.0</ele><time>2011-11-30T10:30:37Z</time></trkpt><trkpt lat="42.596045" lon="-2.580748"><ele>1129.0</ele><time>2011-11-30T10:30:38Z</time></trkpt><trkpt lat="42.596053" lon="-2.580743"><ele>1129.5</ele><time>2011-11-30T10:30:40Z</time></trkpt><trkpt lat="42.596075" lon="-2.580737"><ele>1128.5</ele><time>2011-11-30T10:30:41Z</time></trkpt><trkpt lat="42.596083" lon="-2.580732"><ele>1128.5</ele><time>2011-11-30T10:30:42Z</time></trkpt><trkpt lat="42.596128" lon="-2.580710"><ele>1129.5</ele><time>2011-11-30T10:30:46Z</time></trkpt><trkpt lat="42.596188" lon="-2.580693"><ele>1130.0</ele><time>2011-11-30T10:30:48Z</time></trkpt><trkpt lat="42.596200" lon="-2.580685"><ele>1129.5</ele><time>2011-11-30T10:30:49Z</time></trkpt><trkpt lat="42.596210" lon="-2.580680"><ele>1129.5</ele><time>2011-11-30T10:30:50Z</time></trkpt><trkpt lat="42.596222" lon="-2.580675"><ele>1129.0</ele><time>2011-11-30T10:30:51Z</time></trkpt><trkpt lat="42.596250" lon="-2.580667"><ele>1127.0</ele><time>2011-11-30T10:30:52Z</time></trkpt><trkpt lat="42.596257" lon="-2.580655"><ele>1127.5</ele><time>2011-11-30T10:30:53Z</time></trkpt><trkpt lat="42.596263" lon="-2.580643"><ele>1128.5</ele><time>2011-11-30T10:30:54Z</time></trkpt><trkpt lat="42.596277" lon="-2.580632"><ele>1129.5</ele><time>2011-11-30T10:30:55Z</time></trkpt><trkpt lat="42.596288" lon="-2.580620"><ele>1129.0</ele><time>2011-11-30T10:30:56Z</time></trkpt><trkpt lat="42.596302" lon="-2.580610"><ele>1129.0</ele><time>2011-11-30T10:30:57Z</time></trkpt><trkpt lat="42.596312" lon="-2.580598"><ele>1130.0</ele><time>2011-11-30T10:30:58Z</time></trkpt><trkpt lat="42.596325" lon="-2.580588"><ele>1129.5</ele><time>2011-11-30T10:30:59Z</time></trkpt><trkpt lat="42.596340" lon="-2.580580"><ele>1129.0</ele><time>2011-11-30T10:31:00Z</time></trkpt><trkpt lat="42.596355" lon="-2.580568"><ele>1129.0</ele><time>2011-11-30T10:31:01Z</time></trkpt><trkpt lat="42.596368" lon="-2.580557"><ele>1129.0</ele><time>2011-11-30T10:31:02Z</time></trkpt><trkpt lat="42.596383" lon="-2.580543"><ele>1129.0</ele><time>2011-11-30T10:31:03Z</time></trkpt><trkpt lat="42.596400" lon="-2.580533"><ele>1128.5</ele><time>2011-11-30T10:31:04Z</time></trkpt><trkpt lat="42.596415" lon="-2.580522"><ele>1127.5</ele><time>2011-11-30T10:31:05Z</time></trkpt><trkpt lat="42.596430" lon="-2.580510"><ele>1128.0</ele><time>2011-11-30T10:31:06Z</time></trkpt><trkpt lat="42.596440" lon="-2.580498"><ele>1128.0</ele><time>2011-11-30T10:31:08Z</time></trkpt><trkpt lat="42.596457" lon="-2.580485"><ele>1128.0</ele><time>2011-11-30T10:31:09Z</time></trkpt><trkpt lat="42.596468" lon="-2.580475"><ele>1127.5</ele><time>2011-11-30T10:31:10Z</time></trkpt><trkpt lat="42.596477" lon="-2.580468"><ele>1127.5</ele><time>2011-11-30T10:31:11Z</time></trkpt><trkpt lat="42.596487" lon="-2.580457"><ele>1127.5</ele><time>2011-11-30T10:31:12Z</time></trkpt><trkpt lat="42.596495" lon="-2.580448"><ele>1127.5</ele><time>2011-11-30T10:31:13Z</time></trkpt><trkpt lat="42.596510" lon="-2.580430"><ele>1129.0</ele><time>2011-11-30T10:31:14Z</time></trkpt><trkpt lat="42.596520" lon="-2.580417"><ele>1129.5</ele><time>2011-11-30T10:31:15Z</time></trkpt><trkpt lat="42.596530" lon="-2.580407"><ele>1130.5</ele><time>2011-11-30T10:31:16Z</time></trkpt><trkpt lat="42.596535" lon="-2.580398"><ele>1130.5</ele><time>2011-11-30T10:31:17Z</time></trkpt><trkpt lat="42.596545" lon="-2.580382"><ele>1131.0</ele><time>2011-11-30T10:31:18Z</time></trkpt><trkpt lat="42.596557" lon="-2.580365"><ele>1131.5</ele><time>2011-11-30T10:31:19Z</time></trkpt><trkpt lat="42.596565" lon="-2.580352"><ele>1132.0</ele><time>2011-11-30T10:31:20Z</time></trkpt><trkpt lat="42.596573" lon="-2.580338"><ele>1132.0</ele><time>2011-11-30T10:31:21Z</time></trkpt><trkpt lat="42.596580" lon="-2.580328"><ele>1132.0</ele><time>2011-11-30T10:31:22Z</time></trkpt><trkpt lat="42.596595" lon="-2.580312"><ele>1131.5</ele><time>2011-11-30T10:31:23Z</time></trkpt><trkpt lat="42.596603" lon="-2.580303"><ele>1131.5</ele><time>2011-11-30T10:31:24Z</time></trkpt><trkpt lat="42.596612" lon="-2.580295"><ele>1131.5</ele><time>2011-11-30T10:31:25Z</time></trkpt><trkpt lat="42.596618" lon="-2.580285"><ele>1132.0</ele><time>2011-11-30T10:31:26Z</time></trkpt><trkpt lat="42.596625" lon="-2.580277"><ele>1131.5</ele><time>2011-11-30T10:31:27Z</time></trkpt><trkpt lat="42.596632" lon="-2.580268"><ele>1132.0</ele><time>2011-11-30T10:31:28Z</time></trkpt><trkpt lat="42.596637" lon="-2.580263"><ele>1132.0</ele><time>2011-11-30T10:31:29Z</time></trkpt><trkpt lat="42.596648" lon="-2.580257"><ele>1132.0</ele><time>2011-11-30T10:31:30Z</time></trkpt><trkpt lat="42.596660" lon="-2.580250"><ele>1132.0</ele><time>2011-11-30T10:31:31Z</time></trkpt><trkpt lat="42.596673" lon="-2.580240"><ele>1132.5</ele><time>2011-11-30T10:31:32Z</time></trkpt><trkpt lat="42.596682" lon="-2.580232"><ele>1133.0</ele><time>2011-11-30T10:31:33Z</time></trkpt><trkpt lat="42.596690" lon="-2.580228"><ele>1133.0</ele><time>2011-11-30T10:31:34Z</time></trkpt><trkpt lat="42.596697" lon="-2.580225"><ele>1133.5</ele><time>2011-11-30T10:31:35Z</time></trkpt><trkpt lat="42.596707" lon="-2.580215"><ele>1133.5</ele><time>2011-11-30T10:31:36Z</time></trkpt><trkpt lat="42.596717" lon="-2.580203"><ele>1134.0</ele><time>2011-11-30T10:31:37Z</time></trkpt><trkpt lat="42.596730" lon="-2.580195"><ele>1134.5</ele><time>2011-11-30T10:31:38Z</time></trkpt><trkpt lat="42.596737" lon="-2.580185"><ele>1134.5</ele><time>2011-11-30T10:31:39Z</time></trkpt><trkpt lat="42.596745" lon="-2.580175"><ele>1135.0</ele><time>2011-11-30T10:31:40Z</time></trkpt><trkpt lat="42.596753" lon="-2.580163"><ele>1135.0</ele><time>2011-11-30T10:31:41Z</time></trkpt><trkpt lat="42.596765" lon="-2.580155"><ele>1135.0</ele><time>2011-11-30T10:31:42Z</time></trkpt><trkpt lat="42.596777" lon="-2.580145"><ele>1135.0</ele><time>2011-11-30T10:31:43Z</time></trkpt><trkpt lat="42.596780" lon="-2.580140"><ele>1135.0</ele><time>2011-11-30T10:31:44Z</time></trkpt><trkpt lat="42.596793" lon="-2.580130"><ele>1135.0</ele><time>2011-11-30T10:31:45Z</time></trkpt><trkpt lat="42.596808" lon="-2.580118"><ele>1135.0</ele><time>2011-11-30T10:31:46Z</time></trkpt><trkpt lat="42.596818" lon="-2.580105"><ele>1135.0</ele><time>2011-11-30T10:31:47Z</time></trkpt><trkpt lat="42.596832" lon="-2.580092"><ele>1135.0</ele><time>2011-11-30T10:31:48Z</time></trkpt><trkpt lat="42.596845" lon="-2.580083"><ele>1135.0</ele><time>2011-11-30T10:31:49Z</time></trkpt><trkpt lat="42.596853" lon="-2.580073"><ele>1135.5</ele><time>2011-11-30T10:31:50Z</time></trkpt><trkpt lat="42.596863" lon="-2.580062"><ele>1135.5</ele><time>2011-11-30T10:31:51Z</time></trkpt><trkpt lat="42.596868" lon="-2.580052"><ele>1135.5</ele><time>2011-11-30T10:31:52Z</time></trkpt><trkpt lat="42.596875" lon="-2.580047"><ele>1136.5</ele><time>2011-11-30T10:31:53Z</time></trkpt><trkpt lat="42.596892" lon="-2.580042"><ele>1136.0</ele><time>2011-11-30T10:31:54Z</time></trkpt><trkpt lat="42.596905" lon="-2.580032"><ele>1136.0</ele><time>2011-11-30T10:31:55Z</time></trkpt><trkpt lat="42.596913" lon="-2.580023"><ele>1136.0</ele><time>2011-11-30T10:31:56Z</time></trkpt><trkpt lat="42.596925" lon="-2.580010"><ele>1135.5</ele><time>2011-11-30T10:31:57Z</time></trkpt><trkpt lat="42.596935" lon="-2.580002"><ele>1136.5</ele><time>2011-11-30T10:31:58Z</time></trkpt><trkpt lat="42.596947" lon="-2.579997"><ele>1136.5</ele><time>2011-11-30T10:31:59Z</time></trkpt><trkpt lat="42.596965" lon="-2.579987"><ele>1136.5</ele><time>2011-11-30T10:32:00Z</time></trkpt><trkpt lat="42.596975" lon="-2.579977"><ele>1137.0</ele><time>2011-11-30T10:32:01Z</time></trkpt><trkpt lat="42.596990" lon="-2.579968"><ele>1137.5</ele><time>2011-11-30T10:32:02Z</time></trkpt><trkpt lat="42.596998" lon="-2.579958"><ele>1138.0</ele><time>2011-11-30T10:32:03Z</time></trkpt><trkpt lat="42.597008" lon="-2.579955"><ele>1138.0</ele><time>2011-11-30T10:32:04Z</time></trkpt><trkpt lat="42.597018" lon="-2.579947"><ele>1138.5</ele><time>2011-11-30T10:32:05Z</time></trkpt><trkpt lat="42.597020" lon="-2.579938"><ele>1138.5</ele><time>2011-11-30T10:32:06Z</time></trkpt><trkpt lat="42.597027" lon="-2.579928"><ele>1139.0</ele><time>2011-11-30T10:32:07Z</time></trkpt><trkpt lat="42.597035" lon="-2.579917"><ele>1139.0</ele><time>2011-11-30T10:32:08Z</time></trkpt><trkpt lat="42.597048" lon="-2.579897"><ele>1140.0</ele><time>2011-11-30T10:32:09Z</time></trkpt><trkpt lat="42.597058" lon="-2.579890"><ele>1140.0</ele><time>2011-11-30T10:32:10Z</time></trkpt><trkpt lat="42.597067" lon="-2.579883"><ele>1140.5</ele><time>2011-11-30T10:32:11Z</time></trkpt><trkpt lat="42.597080" lon="-2.579870"><ele>1141.0</ele><time>2011-11-30T10:32:12Z</time></trkpt><trkpt lat="42.597090" lon="-2.579857"><ele>1141.5</ele><time>2011-11-30T10:32:13Z</time></trkpt><trkpt lat="42.597100" lon="-2.579848"><ele>1141.0</ele><time>2011-11-30T10:32:14Z</time></trkpt><trkpt lat="42.597107" lon="-2.579842"><ele>1140.5</ele><time>2011-11-30T10:32:15Z</time></trkpt><trkpt lat="42.597130" lon="-2.579817"><ele>1140.0</ele><time>2011-11-30T10:32:16Z</time></trkpt><trkpt lat="42.597140" lon="-2.579810"><ele>1140.5</ele><time>2011-11-30T10:32:17Z</time></trkpt><trkpt lat="42.597157" lon="-2.579792"><ele>1141.5</ele><time>2011-11-30T10:32:18Z</time></trkpt><trkpt lat="42.597163" lon="-2.579785"><ele>1142.0</ele><time>2011-11-30T10:32:19Z</time></trkpt><trkpt lat="42.597168" lon="-2.579777"><ele>1143.0</ele><time>2011-11-30T10:32:20Z</time></trkpt><trkpt lat="42.597178" lon="-2.579773"><ele>1142.5</ele><time>2011-11-30T10:32:21Z</time></trkpt><trkpt lat="42.597202" lon="-2.579750"><ele>1141.5</ele><time>2011-11-30T10:32:22Z</time></trkpt><trkpt lat="42.597207" lon="-2.579743"><ele>1142.0</ele><time>2011-11-30T10:32:23Z</time></trkpt><trkpt lat="42.597210" lon="-2.579733"><ele>1143.0</ele><time>2011-11-30T10:32:24Z</time></trkpt><trkpt lat="42.597217" lon="-2.579727"><ele>1143.5</ele><time>2011-11-30T10:32:25Z</time></trkpt><trkpt lat="42.597230" lon="-2.579718"><ele>1143.0</ele><time>2011-11-30T10:32:26Z</time></trkpt><trkpt lat="42.597242" lon="-2.579700"><ele>1143.5</ele><time>2011-11-30T10:32:27Z</time></trkpt><trkpt lat="42.597250" lon="-2.579693"><ele>1144.0</ele><time>2011-11-30T10:32:28Z</time></trkpt><trkpt lat="42.597255" lon="-2.579688"><ele>1144.0</ele><time>2011-11-30T10:32:29Z</time></trkpt><trkpt lat="42.597260" lon="-2.579678"><ele>1144.0</ele><time>2011-11-30T10:32:30Z</time></trkpt><trkpt lat="42.597268" lon="-2.579675"><ele>1143.5</ele><time>2011-11-30T10:32:31Z</time></trkpt><trkpt lat="42.597287" lon="-2.579655"><ele>1144.5</ele><time>2011-11-30T10:32:32Z</time></trkpt><trkpt lat="42.597295" lon="-2.579647"><ele>1144.5</ele><time>2011-11-30T10:32:33Z</time></trkpt><trkpt lat="42.597305" lon="-2.579637"><ele>1144.0</ele><time>2011-11-30T10:32:34Z</time></trkpt><trkpt lat="42.597333" lon="-2.579612"><ele>1143.0</ele><time>2011-11-30T10:32:35Z</time></trkpt><trkpt lat="42.597357" lon="-2.579610"><ele>1141.5</ele><time>2011-11-30T10:32:36Z</time></trkpt><trkpt lat="42.597365" lon="-2.579602"><ele>1142.0</ele><time>2011-11-30T10:32:37Z</time></trkpt><trkpt lat="42.597370" lon="-2.579597"><ele>1141.5</ele><time>2011-11-30T10:32:38Z</time></trkpt><trkpt lat="42.597377" lon="-2.579592"><ele>1141.5</ele><time>2011-11-30T10:32:39Z</time></trkpt><trkpt lat="42.597385" lon="-2.579583"><ele>1142.0</ele><time>2011-11-30T10:32:40Z</time></trkpt><trkpt lat="42.597393" lon="-2.579578"><ele>1141.5</ele><time>2011-11-30T10:32:41Z</time></trkpt><trkpt lat="42.597405" lon="-2.579568"><ele>1141.5</ele><time>2011-11-30T10:32:42Z</time></trkpt><trkpt lat="42.597408" lon="-2.579560"><ele>1141.0</ele><time>2011-11-30T10:32:43Z</time></trkpt><trkpt lat="42.597415" lon="-2.579550"><ele>1141.5</ele><time>2011-11-30T10:32:44Z</time></trkpt><trkpt lat="42.597422" lon="-2.579543"><ele>1141.0</ele><time>2011-11-30T10:32:45Z</time></trkpt><trkpt lat="42.597428" lon="-2.579535"><ele>1142.0</ele><time>2011-11-30T10:32:46Z</time></trkpt><trkpt lat="42.597435" lon="-2.579527"><ele>1142.0</ele><time>2011-11-30T10:32:47Z</time></trkpt><trkpt lat="42.597442" lon="-2.579520"><ele>1142.5</ele><time>2011-11-30T10:32:48Z</time></trkpt><trkpt lat="42.597442" lon="-2.579508"><ele>1143.5</ele><time>2011-11-30T10:32:49Z</time></trkpt><trkpt lat="42.597462" lon="-2.579498"><ele>1143.5</ele><time>2011-11-30T10:32:50Z</time></trkpt><trkpt lat="42.597465" lon="-2.579492"><ele>1143.5</ele><time>2011-11-30T10:32:51Z</time></trkpt><trkpt lat="42.597475" lon="-2.579485"><ele>1143.5</ele><time>2011-11-30T10:32:52Z</time></trkpt><trkpt lat="42.597482" lon="-2.579480"><ele>1143.5</ele><time>2011-11-30T10:32:53Z</time></trkpt><trkpt lat="42.597493" lon="-2.579473"><ele>1142.0</ele><time>2011-11-30T10:32:54Z</time></trkpt><trkpt lat="42.597498" lon="-2.579465"><ele>1141.0</ele><time>2011-11-30T10:32:55Z</time></trkpt><trkpt lat="42.597515" lon="-2.579448"><ele>1140.5</ele><time>2011-11-30T10:32:56Z</time></trkpt><trkpt lat="42.597525" lon="-2.579440"><ele>1139.5</ele><time>2011-11-30T10:32:57Z</time></trkpt><trkpt lat="42.597560" lon="-2.579422"><ele>1138.5</ele><time>2011-11-30T10:32:58Z</time></trkpt><trkpt lat="42.597570" lon="-2.579420"><ele>1138.5</ele><time>2011-11-30T10:32:59Z</time></trkpt><trkpt lat="42.597613" lon="-2.579387"><ele>1140.5</ele><time>2011-11-30T10:33:00Z</time></trkpt><trkpt lat="42.597630" lon="-2.579378"><ele>1142.0</ele><time>2011-11-30T10:33:01Z</time></trkpt><trkpt lat="42.597687" lon="-2.579317"><ele>1143.5</ele><time>2011-11-30T10:33:02Z</time></trkpt><trkpt lat="42.597702" lon="-2.579307"><ele>1142.5</ele><time>2011-11-30T10:33:03Z</time></trkpt><trkpt lat="42.597720" lon="-2.579298"><ele>1141.0</ele><time>2011-11-30T10:33:04Z</time></trkpt><trkpt lat="42.597727" lon="-2.579288"><ele>1141.5</ele><time>2011-11-30T10:33:05Z</time></trkpt><trkpt lat="42.597748" lon="-2.579262"><ele>1141.5</ele><time>2011-11-30T10:33:06Z</time></trkpt><trkpt lat="42.597755" lon="-2.579253"><ele>1142.0</ele><time>2011-11-30T10:33:07Z</time></trkpt><trkpt lat="42.597807" lon="-2.579170"><ele>1153.0</ele><time>2011-11-30T10:33:08Z</time></trkpt><trkpt lat="42.597813" lon="-2.579152"><ele>1154.0</ele><time>2011-11-30T10:33:09Z</time></trkpt><trkpt lat="42.597832" lon="-2.579133"><ele>1155.0</ele><time>2011-11-30T10:33:10Z</time></trkpt><trkpt lat="42.597828" lon="-2.579118"><ele>1157.5</ele><time>2011-11-30T10:33:11Z</time></trkpt><trkpt lat="42.597848" lon="-2.579098"><ele>1158.5</ele><time>2011-11-30T10:33:12Z</time></trkpt><trkpt lat="42.597862" lon="-2.579092"><ele>1157.0</ele><time>2011-11-30T10:33:13Z</time></trkpt><trkpt lat="42.597875" lon="-2.579078"><ele>1156.0</ele><time>2011-11-30T10:33:14Z</time></trkpt><trkpt lat="42.597882" lon="-2.579067"><ele>1156.0</ele><time>2011-11-30T10:33:15Z</time></trkpt><trkpt lat="42.597910" lon="-2.579032"><ele>1158.0</ele><time>2011-11-30T10:33:16Z</time></trkpt><trkpt lat="42.597930" lon="-2.579018"><ele>1159.5</ele><time>2011-11-30T10:33:17Z</time></trkpt><trkpt lat="42.597995" lon="-2.578977"><ele>1157.5</ele><time>2011-11-30T10:33:20Z</time></trkpt><trkpt lat="42.598025" lon="-2.578937"><ele>1159.0</ele><time>2011-11-30T10:33:21Z</time></trkpt><trkpt lat="42.598033" lon="-2.578915"><ele>1160.0</ele><time>2011-11-30T10:33:22Z</time></trkpt><trkpt lat="42.598037" lon="-2.578908"><ele>1160.0</ele><time>2011-11-30T10:33:23Z</time></trkpt><trkpt lat="42.598038" lon="-2.578893"><ele>1161.0</ele><time>2011-11-30T10:33:24Z</time></trkpt><trkpt lat="42.598042" lon="-2.578875"><ele>1163.0</ele><time>2011-11-30T10:33:25Z</time></trkpt><trkpt lat="42.598043" lon="-2.578862"><ele>1163.0</ele><time>2011-11-30T10:33:26Z</time></trkpt><trkpt lat="42.598047" lon="-2.578852"><ele>1163.5</ele><time>2011-11-30T10:33:28Z</time></trkpt><trkpt lat="42.598050" lon="-2.578842"><ele>1163.5</ele><time>2011-11-30T10:33:28Z</time></trkpt><trkpt lat="42.598060" lon="-2.578823"><ele>1163.5</ele><time>2011-11-30T10:33:30Z</time></trkpt><trkpt lat="42.598073" lon="-2.578805"><ele>1162.5</ele><time>2011-11-30T10:33:32Z</time></trkpt><trkpt lat="42.598082" lon="-2.578785"><ele>1163.5</ele><time>2011-11-30T10:33:34Z</time></trkpt><trkpt lat="42.598092" lon="-2.578770"><ele>1163.5</ele><time>2011-11-30T10:33:36Z</time></trkpt><trkpt lat="42.598103" lon="-2.578758"><ele>1163.0</ele><time>2011-11-30T10:33:38Z</time></trkpt><trkpt lat="42.598125" lon="-2.578725"><ele>1164.0</ele><time>2011-11-30T10:33:40Z</time></trkpt><trkpt lat="42.598140" lon="-2.578710"><ele>1164.5</ele><time>2011-11-30T10:33:42Z</time></trkpt><trkpt lat="42.598145" lon="-2.578703"><ele>1164.0</ele><time>2011-11-30T10:33:43Z</time></trkpt><trkpt lat="42.598150" lon="-2.578695"><ele>1164.0</ele><time>2011-11-30T10:33:44Z</time></trkpt><trkpt lat="42.598153" lon="-2.578688"><ele>1164.0</ele><time>2011-11-30T10:33:45Z</time></trkpt><trkpt lat="42.598160" lon="-2.578678"><ele>1165.0</ele><time>2011-11-30T10:33:46Z</time></trkpt><trkpt lat="42.598163" lon="-2.578668"><ele>1166.0</ele><time>2011-11-30T10:33:47Z</time></trkpt><trkpt lat="42.598167" lon="-2.578658"><ele>1166.5</ele><time>2011-11-30T10:33:48Z</time></trkpt><trkpt lat="42.598172" lon="-2.578650"><ele>1166.0</ele><time>2011-11-30T10:33:49Z</time></trkpt><trkpt lat="42.598180" lon="-2.578633"><ele>1167.0</ele><time>2011-11-30T10:33:51Z</time></trkpt><trkpt lat="42.598183" lon="-2.578622"><ele>1168.0</ele><time>2011-11-30T10:33:52Z</time></trkpt><trkpt lat="42.598190" lon="-2.578613"><ele>1168.0</ele><time>2011-11-30T10:33:53Z</time></trkpt><trkpt lat="42.598198" lon="-2.578605"><ele>1168.5</ele><time>2011-11-30T10:33:54Z</time></trkpt><trkpt lat="42.598203" lon="-2.578595"><ele>1168.5</ele><time>2011-11-30T10:33:55Z</time></trkpt><trkpt lat="42.598210" lon="-2.578585"><ele>1169.5</ele><time>2011-11-30T10:33:56Z</time></trkpt><trkpt lat="42.598217" lon="-2.578578"><ele>1169.5</ele><time>2011-11-30T10:33:57Z</time></trkpt><trkpt lat="42.598220" lon="-2.578567"><ele>1170.5</ele><time>2011-11-30T10:33:58Z</time></trkpt><trkpt lat="42.598223" lon="-2.578558"><ele>1170.5</ele><time>2011-11-30T10:33:59Z</time></trkpt><trkpt lat="42.598233" lon="-2.578547"><ele>1170.5</ele><time>2011-11-30T10:34:00Z</time></trkpt><trkpt lat="42.598240" lon="-2.578538"><ele>1170.5</ele><time>2011-11-30T10:34:01Z</time></trkpt><trkpt lat="42.598243" lon="-2.578532"><ele>1170.0</ele><time>2011-11-30T10:34:02Z</time></trkpt><trkpt lat="42.598248" lon="-2.578525"><ele>1170.0</ele><time>2011-11-30T10:34:03Z</time></trkpt><trkpt lat="42.598253" lon="-2.578515"><ele>1170.0</ele><time>2011-11-30T10:34:04Z</time></trkpt><trkpt lat="42.598265" lon="-2.578498"><ele>1167.0</ele><time>2011-11-30T10:34:05Z</time></trkpt><trkpt lat="42.598278" lon="-2.578490"><ele>1167.0</ele><time>2011-11-30T10:34:06Z</time></trkpt><trkpt lat="42.598283" lon="-2.578482"><ele>1166.5</ele><time>2011-11-30T10:34:07Z</time></trkpt><trkpt lat="42.598287" lon="-2.578472"><ele>1167.0</ele><time>2011-11-30T10:34:08Z</time></trkpt><trkpt lat="42.598287" lon="-2.578462"><ele>1168.0</ele><time>2011-11-30T10:34:09Z</time></trkpt><trkpt lat="42.598292" lon="-2.578453"><ele>1168.0</ele><time>2011-11-30T10:34:10Z</time></trkpt><trkpt lat="42.598298" lon="-2.578448"><ele>1167.0</ele><time>2011-11-30T10:34:11Z</time></trkpt><trkpt lat="42.598303" lon="-2.578437"><ele>1167.0</ele><time>2011-11-30T10:34:12Z</time></trkpt><trkpt lat="42.598305" lon="-2.578425"><ele>1167.5</ele><time>2011-11-30T10:34:13Z</time></trkpt><trkpt lat="42.598307" lon="-2.578415"><ele>1168.0</ele><time>2011-11-30T10:34:14Z</time></trkpt><trkpt lat="42.598308" lon="-2.578405"><ele>1168.5</ele><time>2011-11-30T10:34:15Z</time></trkpt><trkpt lat="42.598313" lon="-2.578390"><ele>1168.5</ele><time>2011-11-30T10:34:16Z</time></trkpt><trkpt lat="42.598320" lon="-2.578380"><ele>1168.5</ele><time>2011-11-30T10:34:17Z</time></trkpt><trkpt lat="42.598328" lon="-2.578365"><ele>1169.0</ele><time>2011-11-30T10:34:18Z</time></trkpt><trkpt lat="42.598345" lon="-2.578347"><ele>1168.5</ele><time>2011-11-30T10:34:19Z</time></trkpt><trkpt lat="42.598350" lon="-2.578338"><ele>1169.0</ele><time>2011-11-30T10:34:20Z</time></trkpt><trkpt lat="42.598358" lon="-2.578332"><ele>1168.5</ele><time>2011-11-30T10:34:21Z</time></trkpt><trkpt lat="42.598367" lon="-2.578327"><ele>1168.0</ele><time>2011-11-30T10:34:22Z</time></trkpt><trkpt lat="42.598373" lon="-2.578320"><ele>1168.5</ele><time>2011-11-30T10:34:23Z</time></trkpt><trkpt lat="42.598378" lon="-2.578312"><ele>1169.0</ele><time>2011-11-30T10:34:24Z</time></trkpt><trkpt lat="42.598385" lon="-2.578305"><ele>1168.5</ele><time>2011-11-30T10:34:25Z</time></trkpt><trkpt lat="42.598388" lon="-2.578295"><ele>1168.5</ele><time>2011-11-30T10:34:26Z</time></trkpt><trkpt lat="42.598393" lon="-2.578285"><ele>1169.0</ele><time>2011-11-30T10:34:27Z</time></trkpt><trkpt lat="42.598398" lon="-2.578278"><ele>1169.0</ele><time>2011-11-30T10:34:28Z</time></trkpt><trkpt lat="42.598407" lon="-2.578270"><ele>1168.5</ele><time>2011-11-30T10:34:29Z</time></trkpt><trkpt lat="42.598410" lon="-2.578257"><ele>1170.0</ele><time>2011-11-30T10:34:30Z</time></trkpt><trkpt lat="42.598423" lon="-2.578245"><ele>1169.0</ele><time>2011-11-30T10:34:31Z</time></trkpt><trkpt lat="42.598430" lon="-2.578240"><ele>1169.0</ele><time>2011-11-30T10:34:32Z</time></trkpt><trkpt lat="42.598437" lon="-2.578237"><ele>1169.0</ele><time>2011-11-30T10:34:33Z</time></trkpt><trkpt lat="42.598440" lon="-2.578227"><ele>1170.0</ele><time>2011-11-30T10:34:34Z</time></trkpt><trkpt lat="42.598445" lon="-2.578220"><ele>1170.5</ele><time>2011-11-30T10:34:35Z</time></trkpt><trkpt lat="42.598455" lon="-2.578210"><ele>1169.5</ele><time>2011-11-30T10:34:36Z</time></trkpt><trkpt lat="42.598460" lon="-2.578205"><ele>1169.0</ele><time>2011-11-30T10:34:37Z</time></trkpt><trkpt lat="42.598463" lon="-2.578198"><ele>1169.5</ele><time>2011-11-30T10:34:38Z</time></trkpt><trkpt lat="42.598470" lon="-2.578192"><ele>1169.5</ele><time>2011-11-30T10:34:39Z</time></trkpt><trkpt lat="42.598475" lon="-2.578185"><ele>1169.5</ele><time>2011-11-30T10:34:40Z</time></trkpt><trkpt lat="42.598478" lon="-2.578177"><ele>1170.5</ele><time>2011-11-30T10:34:41Z</time></trkpt><trkpt lat="42.598482" lon="-2.578165"><ele>1172.0</ele><time>2011-11-30T10:34:42Z</time></trkpt><trkpt lat="42.598485" lon="-2.578158"><ele>1172.0</ele><time>2011-11-30T10:34:43Z</time></trkpt><trkpt lat="42.598490" lon="-2.578150"><ele>1172.0</ele><time>2011-11-30T10:34:44Z</time></trkpt><trkpt lat="42.598497" lon="-2.578142"><ele>1172.0</ele><time>2011-11-30T10:34:45Z</time></trkpt><trkpt lat="42.598503" lon="-2.578135"><ele>1172.0</ele><time>2011-11-30T10:34:46Z</time></trkpt><trkpt lat="42.598510" lon="-2.578130"><ele>1171.5</ele><time>2011-11-30T10:34:47Z</time></trkpt><trkpt lat="42.598518" lon="-2.578125"><ele>1170.5</ele><time>2011-11-30T10:34:48Z</time></trkpt><trkpt lat="42.598523" lon="-2.578115"><ele>1171.0</ele><time>2011-11-30T10:34:49Z</time></trkpt><trkpt lat="42.598530" lon="-2.578103"><ele>1171.5</ele><time>2011-11-30T10:34:50Z</time></trkpt><trkpt lat="42.598535" lon="-2.578088"><ele>1173.0</ele><time>2011-11-30T10:34:51Z</time></trkpt><trkpt lat="42.598540" lon="-2.578075"><ele>1174.0</ele><time>2011-11-30T10:34:52Z</time></trkpt><trkpt lat="42.598545" lon="-2.578065"><ele>1174.0</ele><time>2011-11-30T10:34:53Z</time></trkpt><trkpt lat="42.598550" lon="-2.578057"><ele>1173.5</ele><time>2011-11-30T10:34:54Z</time></trkpt><trkpt lat="42.598557" lon="-2.578050"><ele>1173.5</ele><time>2011-11-30T10:34:55Z</time></trkpt><trkpt lat="42.598560" lon="-2.578040"><ele>1175.5</ele><time>2011-11-30T10:34:56Z</time></trkpt><trkpt lat="42.598577" lon="-2.578015"><ele>1176.0</ele><time>2011-11-30T10:34:57Z</time></trkpt><trkpt lat="42.598583" lon="-2.578007"><ele>1176.5</ele><time>2011-11-30T10:34:58Z</time></trkpt><trkpt lat="42.598588" lon="-2.577998"><ele>1176.5</ele><time>2011-11-30T10:34:59Z</time></trkpt><trkpt lat="42.598595" lon="-2.577992"><ele>1176.5</ele><time>2011-11-30T10:35:00Z</time></trkpt><trkpt lat="42.598602" lon="-2.577980"><ele>1178.0</ele><time>2011-11-30T10:35:01Z</time></trkpt><trkpt lat="42.598607" lon="-2.577970"><ele>1178.5</ele><time>2011-11-30T10:35:02Z</time></trkpt><trkpt lat="42.598613" lon="-2.577960"><ele>1179.5</ele><time>2011-11-30T10:35:03Z</time></trkpt><trkpt lat="42.598618" lon="-2.577953"><ele>1180.0</ele><time>2011-11-30T10:35:04Z</time></trkpt><trkpt lat="42.598627" lon="-2.577945"><ele>1180.5</ele><time>2011-11-30T10:35:05Z</time></trkpt><trkpt lat="42.598635" lon="-2.577927"><ele>1181.0</ele><time>2011-11-30T10:35:06Z</time></trkpt><trkpt lat="42.598642" lon="-2.577922"><ele>1180.5</ele><time>2011-11-30T10:35:07Z</time></trkpt><trkpt lat="42.598647" lon="-2.577915"><ele>1179.5</ele><time>2011-11-30T10:35:08Z</time></trkpt><trkpt lat="42.598662" lon="-2.577902"><ele>1178.5</ele><time>2011-11-30T10:35:09Z</time></trkpt><trkpt lat="42.598683" lon="-2.577872"><ele>1177.5</ele><time>2011-11-30T10:35:10Z</time></trkpt><trkpt lat="42.598688" lon="-2.577863"><ele>1177.0</ele><time>2011-11-30T10:35:11Z</time></trkpt><trkpt lat="42.598700" lon="-2.577852"><ele>1177.0</ele><time>2011-11-30T10:35:12Z</time></trkpt><trkpt lat="42.598712" lon="-2.577840"><ele>1176.5</ele><time>2011-11-30T10:35:13Z</time></trkpt><trkpt lat="42.598718" lon="-2.577832"><ele>1177.0</ele><time>2011-11-30T10:35:14Z</time></trkpt><trkpt lat="42.598723" lon="-2.577823"><ele>1177.5</ele><time>2011-11-30T10:35:15Z</time></trkpt><trkpt lat="42.598735" lon="-2.577812"><ele>1176.5</ele><time>2011-11-30T10:35:16Z</time></trkpt><trkpt lat="42.598740" lon="-2.577805"><ele>1176.5</ele><time>2011-11-30T10:35:17Z</time></trkpt><trkpt lat="42.598760" lon="-2.577792"><ele>1176.0</ele><time>2011-11-30T10:35:18Z</time></trkpt><trkpt lat="42.598783" lon="-2.577788"><ele>1173.0</ele><time>2011-11-30T10:35:19Z</time></trkpt><trkpt lat="42.598790" lon="-2.577783"><ele>1172.5</ele><time>2011-11-30T10:35:20Z</time></trkpt><trkpt lat="42.598797" lon="-2.577780"><ele>1172.5</ele><time>2011-11-30T10:35:21Z</time></trkpt><trkpt lat="42.598810" lon="-2.577762"><ele>1172.5</ele><time>2011-11-30T10:35:22Z</time></trkpt><trkpt lat="42.598817" lon="-2.577755"><ele>1172.5</ele><time>2011-11-30T10:35:23Z</time></trkpt><trkpt lat="42.598835" lon="-2.577738"><ele>1174.0</ele><time>2011-11-30T10:35:24Z</time></trkpt><trkpt lat="42.598843" lon="-2.577732"><ele>1174.0</ele><time>2011-11-30T10:35:25Z</time></trkpt><trkpt lat="42.598857" lon="-2.577717"><ele>1174.5</ele><time>2011-11-30T10:35:26Z</time></trkpt><trkpt lat="42.598868" lon="-2.577710"><ele>1174.0</ele><time>2011-11-30T10:35:27Z</time></trkpt><trkpt lat="42.598922" lon="-2.577683"><ele>1174.0</ele><time>2011-11-30T10:35:28Z</time></trkpt><trkpt lat="42.598930" lon="-2.577682"><ele>1174.0</ele><time>2011-11-30T10:35:29Z</time></trkpt><trkpt lat="42.598938" lon="-2.577677"><ele>1174.5</ele><time>2011-11-30T10:35:30Z</time></trkpt><trkpt lat="42.598947" lon="-2.577672"><ele>1174.5</ele><time>2011-11-30T10:35:31Z</time></trkpt><trkpt lat="42.598955" lon="-2.577670"><ele>1174.5</ele><time>2011-11-30T10:35:32Z</time></trkpt><trkpt lat="42.599007" lon="-2.577643"><ele>1173.0</ele><time>2011-11-30T10:35:33Z</time></trkpt><trkpt lat="42.599023" lon="-2.577630"><ele>1172.0</ele><time>2011-11-30T10:35:34Z</time></trkpt><trkpt lat="42.599057" lon="-2.577615"><ele>1170.5</ele><time>2011-11-30T10:35:35Z</time></trkpt><trkpt lat="42.599070" lon="-2.577607"><ele>1171.5</ele><time>2011-11-30T10:35:36Z</time></trkpt><trkpt lat="42.599083" lon="-2.577600"><ele>1170.5</ele><time>2011-11-30T10:35:37Z</time></trkpt><trkpt lat="42.599082" lon="-2.577595"><ele>1170.5</ele><time>2011-11-30T10:35:38Z</time></trkpt><trkpt lat="42.599092" lon="-2.577590"><ele>1170.5</ele><time>2011-11-30T10:35:39Z</time></trkpt><trkpt lat="42.599102" lon="-2.577582"><ele>1170.0</ele><time>2011-11-30T10:35:40Z</time></trkpt><trkpt lat="42.599122" lon="-2.577537"><ele>1173.5</ele><time>2011-11-30T10:35:41Z</time></trkpt><trkpt lat="42.599128" lon="-2.577523"><ele>1174.5</ele><time>2011-11-30T10:35:42Z</time></trkpt><trkpt lat="42.599138" lon="-2.577522"><ele>1173.0</ele><time>2011-11-30T10:35:43Z</time></trkpt><trkpt lat="42.599147" lon="-2.577513"><ele>1173.0</ele><time>2011-11-30T10:35:44Z</time></trkpt><trkpt lat="42.599153" lon="-2.577507"><ele>1174.0</ele><time>2011-11-30T10:35:45Z</time></trkpt><trkpt lat="42.599173" lon="-2.577488"><ele>1175.0</ele><time>2011-11-30T10:35:46Z</time></trkpt><trkpt lat="42.599187" lon="-2.577482"><ele>1175.5</ele><time>2011-11-30T10:35:47Z</time></trkpt><trkpt lat="42.599213" lon="-2.577470"><ele>1176.5</ele><time>2011-11-30T10:35:49Z</time></trkpt><trkpt lat="42.599222" lon="-2.577460"><ele>1177.0</ele><time>2011-11-30T10:35:50Z</time></trkpt><trkpt lat="42.599223" lon="-2.577452"><ele>1176.0</ele><time>2011-11-30T10:35:51Z</time></trkpt><trkpt lat="42.599228" lon="-2.577445"><ele>1176.5</ele><time>2011-11-30T10:35:52Z</time></trkpt><trkpt lat="42.599237" lon="-2.577440"><ele>1177.0</ele><time>2011-11-30T10:35:53Z</time></trkpt><trkpt lat="42.599247" lon="-2.577432"><ele>1177.0</ele><time>2011-11-30T10:35:54Z</time></trkpt><trkpt lat="42.599253" lon="-2.577425"><ele>1177.0</ele><time>2011-11-30T10:35:55Z</time></trkpt><trkpt lat="42.599257" lon="-2.577418"><ele>1178.0</ele><time>2011-11-30T10:35:56Z</time></trkpt><trkpt lat="42.599262" lon="-2.577412"><ele>1177.5</ele><time>2011-11-30T10:35:57Z</time></trkpt><trkpt lat="42.599268" lon="-2.577402"><ele>1178.5</ele><time>2011-11-30T10:35:58Z</time></trkpt><trkpt lat="42.599282" lon="-2.577380"><ele>1179.5</ele><time>2011-11-30T10:35:59Z</time></trkpt><trkpt lat="42.599307" lon="-2.577377"><ele>1178.5</ele><time>2011-11-30T10:36:00Z</time></trkpt><trkpt lat="42.599325" lon="-2.577413"><ele>1176.0</ele><time>2011-11-30T10:36:01Z</time></trkpt><trkpt lat="42.599322" lon="-2.577420"><ele>1177.5</ele><time>2011-11-30T10:36:02Z</time></trkpt><trkpt lat="42.599323" lon="-2.577422"><ele>1179.5</ele><time>2011-11-30T10:36:03Z</time></trkpt><trkpt lat="42.599320" lon="-2.577430"><ele>1179.0</ele><time>2011-11-30T10:36:04Z</time></trkpt><trkpt lat="42.599322" lon="-2.577440"><ele>1179.0</ele><time>2011-11-30T10:36:05Z</time></trkpt><trkpt lat="42.599323" lon="-2.577452"><ele>1179.0</ele><time>2011-11-30T10:36:06Z</time></trkpt><trkpt lat="42.599320" lon="-2.577467"><ele>1179.5</ele><time>2011-11-30T10:36:07Z</time></trkpt><trkpt lat="42.599318" lon="-2.577497"><ele>1179.0</ele><time>2011-11-30T10:36:08Z</time></trkpt><trkpt lat="42.599317" lon="-2.577503"><ele>1179.0</ele><time>2011-11-30T10:36:09Z</time></trkpt><trkpt lat="42.599312" lon="-2.577513"><ele>1179.0</ele><time>2011-11-30T10:36:10Z</time></trkpt><trkpt lat="42.599308" lon="-2.577518"><ele>1179.0</ele><time>2011-11-30T10:36:11Z</time></trkpt><trkpt lat="42.599308" lon="-2.577527"><ele>1179.5</ele><time>2011-11-30T10:36:12Z</time></trkpt><trkpt lat="42.599307" lon="-2.577548"><ele>1180.0</ele><time>2011-11-30T10:36:13Z</time></trkpt><trkpt lat="42.599307" lon="-2.577567"><ele>1179.5</ele><time>2011-11-30T10:36:14Z</time></trkpt><trkpt lat="42.599312" lon="-2.577582"><ele>1178.5</ele><time>2011-11-30T10:36:15Z</time></trkpt><trkpt lat="42.599333" lon="-2.577612"><ele>1178.5</ele><time>2011-11-30T10:36:16Z</time></trkpt><trkpt lat="42.599340" lon="-2.577602"><ele>1178.5</ele><time>2011-11-30T10:36:17Z</time></trkpt><trkpt lat="42.599343" lon="-2.577597"><ele>1178.5</ele><time>2011-11-30T10:36:18Z</time></trkpt><trkpt lat="42.599345" lon="-2.577588"><ele>1179.0</ele><time>2011-11-30T10:36:19Z</time></trkpt><trkpt lat="42.599348" lon="-2.577580"><ele>1179.5</ele><time>2011-11-30T10:36:20Z</time></trkpt><trkpt lat="42.599353" lon="-2.577572"><ele>1180.0</ele><time>2011-11-30T10:36:21Z</time></trkpt><trkpt lat="42.599358" lon="-2.577563"><ele>1180.5</ele><time>2011-11-30T10:36:22Z</time></trkpt><trkpt lat="42.599373" lon="-2.577543"><ele>1182.0</ele><time>2011-11-30T10:36:23Z</time></trkpt><trkpt lat="42.599385" lon="-2.577528"><ele>1183.0</ele><time>2011-11-30T10:36:24Z</time></trkpt><trkpt lat="42.599393" lon="-2.577517"><ele>1183.0</ele><time>2011-11-30T10:36:25Z</time></trkpt><trkpt lat="42.599398" lon="-2.577508"><ele>1183.5</ele><time>2011-11-30T10:36:26Z</time></trkpt><trkpt lat="42.599407" lon="-2.577500"><ele>1184.0</ele><time>2011-11-30T10:36:27Z</time></trkpt><trkpt lat="42.599410" lon="-2.577490"><ele>1184.5</ele><time>2011-11-30T10:36:28Z</time></trkpt><trkpt lat="42.599413" lon="-2.577482"><ele>1185.0</ele><time>2011-11-30T10:36:29Z</time></trkpt><trkpt lat="42.599417" lon="-2.577475"><ele>1185.0</ele><time>2011-11-30T10:36:30Z</time></trkpt><trkpt lat="42.599422" lon="-2.577468"><ele>1185.0</ele><time>2011-11-30T10:36:31Z</time></trkpt><trkpt lat="42.599442" lon="-2.577442"><ele>1183.5</ele><time>2011-11-30T10:36:32Z</time></trkpt><trkpt lat="42.599443" lon="-2.577423"><ele>1183.5</ele><time>2011-11-30T10:36:33Z</time></trkpt><trkpt lat="42.599443" lon="-2.577408"><ele>1183.5</ele><time>2011-11-30T10:36:34Z</time></trkpt><trkpt lat="42.599447" lon="-2.577392"><ele>1181.0</ele><time>2011-11-30T10:36:35Z</time></trkpt><trkpt lat="42.599452" lon="-2.577365"><ele>1181.0</ele><time>2011-11-30T10:36:36Z</time></trkpt><trkpt lat="42.599450" lon="-2.577352"><ele>1181.5</ele><time>2011-11-30T10:36:37Z</time></trkpt><trkpt lat="42.599452" lon="-2.577343"><ele>1182.0</ele><time>2011-11-30T10:36:38Z</time></trkpt><trkpt lat="42.599453" lon="-2.577333"><ele>1182.0</ele><time>2011-11-30T10:36:39Z</time></trkpt><trkpt lat="42.599457" lon="-2.577328"><ele>1181.5</ele><time>2011-11-30T10:36:40Z</time></trkpt><trkpt lat="42.599463" lon="-2.577318"><ele>1181.0</ele><time>2011-11-30T10:36:41Z</time></trkpt><trkpt lat="42.599463" lon="-2.577310"><ele>1181.5</ele><time>2011-11-30T10:36:42Z</time></trkpt><trkpt lat="42.599467" lon="-2.577297"><ele>1181.5</ele><time>2011-11-30T10:36:43Z</time></trkpt><trkpt lat="42.599467" lon="-2.577285"><ele>1182.5</ele><time>2011-11-30T10:36:44Z</time></trkpt><trkpt lat="42.599472" lon="-2.577272"><ele>1183.0</ele><time>2011-11-30T10:36:45Z</time></trkpt><trkpt lat="42.599475" lon="-2.577263"><ele>1183.0</ele><time>2011-11-30T10:36:46Z</time></trkpt><trkpt lat="42.599478" lon="-2.577255"><ele>1183.0</ele><time>2011-11-30T10:36:47Z</time></trkpt><trkpt lat="42.599482" lon="-2.577248"><ele>1183.5</ele><time>2011-11-30T10:36:48Z</time></trkpt><trkpt lat="42.599490" lon="-2.577238"><ele>1184.0</ele><time>2011-11-30T10:36:49Z</time></trkpt><trkpt lat="42.599493" lon="-2.577232"><ele>1184.0</ele><time>2011-11-30T10:36:50Z</time></trkpt><trkpt lat="42.599508" lon="-2.577217"><ele>1185.5</ele><time>2011-11-30T10:36:51Z</time></trkpt><trkpt lat="42.599513" lon="-2.577210"><ele>1186.0</ele><time>2011-11-30T10:36:52Z</time></trkpt><trkpt lat="42.599517" lon="-2.577203"><ele>1186.0</ele><time>2011-11-30T10:36:53Z</time></trkpt><trkpt lat="42.599527" lon="-2.577188"><ele>1186.5</ele><time>2011-11-30T10:36:54Z</time></trkpt><trkpt lat="42.599528" lon="-2.577172"><ele>1188.5</ele><time>2011-11-30T10:36:55Z</time></trkpt><trkpt lat="42.599533" lon="-2.577152"><ele>1190.0</ele><time>2011-11-30T10:36:56Z</time></trkpt><trkpt lat="42.599535" lon="-2.577145"><ele>1189.5</ele><time>2011-11-30T10:36:57Z</time></trkpt><trkpt lat="42.599537" lon="-2.577137"><ele>1190.0</ele><time>2011-11-30T10:36:58Z</time></trkpt><trkpt lat="42.599540" lon="-2.577130"><ele>1190.5</ele><time>2011-11-30T10:36:59Z</time></trkpt><trkpt lat="42.599552" lon="-2.577107"><ele>1190.0</ele><time>2011-11-30T10:37:00Z</time></trkpt><trkpt lat="42.599552" lon="-2.577098"><ele>1190.0</ele><time>2011-11-30T10:37:01Z</time></trkpt><trkpt lat="42.599552" lon="-2.577090"><ele>1190.0</ele><time>2011-11-30T10:37:02Z</time></trkpt><trkpt lat="42.599550" lon="-2.577082"><ele>1190.0</ele><time>2011-11-30T10:37:03Z</time></trkpt><trkpt lat="42.599548" lon="-2.577072"><ele>1189.5</ele><time>2011-11-30T10:37:04Z</time></trkpt><trkpt lat="42.599550" lon="-2.577058"><ele>1188.0</ele><time>2011-11-30T10:37:05Z</time></trkpt><trkpt lat="42.599548" lon="-2.577050"><ele>1188.0</ele><time>2011-11-30T10:37:06Z</time></trkpt><trkpt lat="42.599552" lon="-2.577037"><ele>1187.0</ele><time>2011-11-30T10:37:07Z</time></trkpt><trkpt lat="42.599557" lon="-2.577032"><ele>1186.0</ele><time>2011-11-30T10:37:08Z</time></trkpt><trkpt lat="42.599563" lon="-2.577018"><ele>1185.5</ele><time>2011-11-30T10:37:09Z</time></trkpt><trkpt lat="42.599567" lon="-2.577012"><ele>1185.0</ele><time>2011-11-30T10:37:10Z</time></trkpt><trkpt lat="42.599587" lon="-2.576985"><ele>1185.5</ele><time>2011-11-30T10:37:11Z</time></trkpt><trkpt lat="42.599585" lon="-2.576977"><ele>1186.0</ele><time>2011-11-30T10:37:12Z</time></trkpt><trkpt lat="42.599590" lon="-2.576972"><ele>1186.5</ele><time>2011-11-30T10:37:13Z</time></trkpt><trkpt lat="42.599593" lon="-2.576962"><ele>1186.5</ele><time>2011-11-30T10:37:14Z</time></trkpt><trkpt lat="42.599613" lon="-2.576958"><ele>1186.0</ele><time>2011-11-30T10:37:15Z</time></trkpt><trkpt lat="42.599625" lon="-2.576968"><ele>1184.5</ele><time>2011-11-30T10:37:16Z</time></trkpt><trkpt lat="42.599628" lon="-2.576987"><ele>1183.0</ele><time>2011-11-30T10:37:17Z</time></trkpt><trkpt lat="42.599647" lon="-2.577037"><ele>1182.5</ele><time>2011-11-30T10:37:18Z</time></trkpt><trkpt lat="42.599648" lon="-2.577045"><ele>1182.0</ele><time>2011-11-30T10:37:19Z</time></trkpt><trkpt lat="42.599658" lon="-2.577070"><ele>1183.5</ele><time>2011-11-30T10:37:20Z</time></trkpt><trkpt lat="42.599658" lon="-2.577085"><ele>1182.5</ele><time>2011-11-30T10:37:21Z</time></trkpt><trkpt lat="42.599655" lon="-2.577097"><ele>1182.5</ele><time>2011-11-30T10:37:22Z</time></trkpt><trkpt lat="42.599655" lon="-2.577105"><ele>1182.5</ele><time>2011-11-30T10:37:23Z</time></trkpt><trkpt lat="42.599655" lon="-2.577125"><ele>1182.0</ele><time>2011-11-30T10:37:24Z</time></trkpt><trkpt lat="42.599660" lon="-2.577147"><ele>1181.0</ele><time>2011-11-30T10:37:25Z</time></trkpt><trkpt lat="42.599665" lon="-2.577213"><ele>1179.5</ele><time>2011-11-30T10:37:26Z</time></trkpt><trkpt lat="42.599668" lon="-2.577228"><ele>1179.5</ele><time>2011-11-30T10:37:27Z</time></trkpt><trkpt lat="42.599670" lon="-2.577238"><ele>1178.5</ele><time>2011-11-30T10:37:28Z</time></trkpt><trkpt lat="42.599675" lon="-2.577242"><ele>1178.5</ele><time>2011-11-30T10:37:29Z</time></trkpt><trkpt lat="42.599685" lon="-2.577257"><ele>1177.0</ele><time>2011-11-30T10:37:30Z</time></trkpt><trkpt lat="42.599683" lon="-2.577275"><ele>1177.0</ele><time>2011-11-30T10:37:31Z</time></trkpt><trkpt lat="42.599688" lon="-2.577287"><ele>1177.5</ele><time>2011-11-30T10:37:32Z</time></trkpt><trkpt lat="42.599707" lon="-2.577292"><ele>1177.5</ele><time>2011-11-30T10:37:33Z</time></trkpt><trkpt lat="42.599712" lon="-2.577292"><ele>1177.5</ele><time>2011-11-30T10:37:34Z</time></trkpt><trkpt lat="42.599720" lon="-2.577288"><ele>1177.0</ele><time>2011-11-30T10:37:35Z</time></trkpt><trkpt lat="42.599722" lon="-2.577270"><ele>1178.0</ele><time>2011-11-30T10:37:36Z</time></trkpt><trkpt lat="42.599728" lon="-2.577248"><ele>1181.0</ele><time>2011-11-30T10:37:37Z</time></trkpt><trkpt lat="42.599732" lon="-2.577230"><ele>1184.0</ele><time>2011-11-30T10:37:38Z</time></trkpt><trkpt lat="42.599735" lon="-2.577222"><ele>1184.5</ele><time>2011-11-30T10:37:39Z</time></trkpt><trkpt lat="42.599735" lon="-2.577213"><ele>1185.0</ele><time>2011-11-30T10:37:40Z</time></trkpt><trkpt lat="42.599733" lon="-2.577192"><ele>1186.0</ele><time>2011-11-30T10:37:41Z</time></trkpt><trkpt lat="42.599735" lon="-2.577182"><ele>1186.5</ele><time>2011-11-30T10:37:42Z</time></trkpt><trkpt lat="42.599740" lon="-2.577173"><ele>1187.0</ele><time>2011-11-30T10:37:43Z</time></trkpt><trkpt lat="42.599743" lon="-2.577165"><ele>1188.0</ele><time>2011-11-30T10:37:44Z</time></trkpt><trkpt lat="42.599748" lon="-2.577157"><ele>1188.5</ele><time>2011-11-30T10:37:45Z</time></trkpt><trkpt lat="42.599753" lon="-2.577148"><ele>1189.5</ele><time>2011-11-30T10:37:46Z</time></trkpt><trkpt lat="42.599758" lon="-2.577135"><ele>1191.0</ele><time>2011-11-30T10:37:47Z</time></trkpt><trkpt lat="42.599762" lon="-2.577132"><ele>1191.0</ele><time>2011-11-30T10:37:48Z</time></trkpt><trkpt lat="42.599765" lon="-2.577122"><ele>1192.0</ele><time>2011-11-30T10:37:49Z</time></trkpt><trkpt lat="42.599767" lon="-2.577110"><ele>1192.5</ele><time>2011-11-30T10:37:50Z</time></trkpt><trkpt lat="42.599767" lon="-2.577105"><ele>1193.0</ele><time>2011-11-30T10:37:51Z</time></trkpt><trkpt lat="42.599768" lon="-2.577095"><ele>1193.5</ele><time>2011-11-30T10:37:52Z</time></trkpt><trkpt lat="42.599772" lon="-2.577088"><ele>1194.0</ele><time>2011-11-30T10:37:53Z</time></trkpt><trkpt lat="42.599777" lon="-2.577078"><ele>1194.5</ele><time>2011-11-30T10:37:54Z</time></trkpt><trkpt lat="42.599777" lon="-2.577068"><ele>1194.5</ele><time>2011-11-30T10:37:55Z</time></trkpt><trkpt lat="42.599782" lon="-2.577060"><ele>1194.0</ele><time>2011-11-30T10:37:56Z</time></trkpt><trkpt lat="42.599787" lon="-2.577050"><ele>1194.5</ele><time>2011-11-30T10:37:57Z</time></trkpt><trkpt lat="42.599790" lon="-2.577043"><ele>1194.5</ele><time>2011-11-30T10:37:58Z</time></trkpt><trkpt lat="42.599793" lon="-2.577038"><ele>1194.5</ele><time>2011-11-30T10:37:59Z</time></trkpt><trkpt lat="42.599798" lon="-2.577032"><ele>1195.0</ele><time>2011-11-30T10:38:00Z</time></trkpt><trkpt lat="42.599805" lon="-2.577022"><ele>1195.0</ele><time>2011-11-30T10:38:01Z</time></trkpt><trkpt lat="42.599813" lon="-2.577008"><ele>1196.0</ele><time>2011-11-30T10:38:02Z</time></trkpt><trkpt lat="42.599815" lon="-2.576995"><ele>1198.0</ele><time>2011-11-30T10:38:03Z</time></trkpt><trkpt lat="42.599823" lon="-2.576990"><ele>1197.0</ele><time>2011-11-30T10:38:04Z</time></trkpt><trkpt lat="42.599827" lon="-2.576980"><ele>1199.0</ele><time>2011-11-30T10:38:05Z</time></trkpt><trkpt lat="42.599830" lon="-2.576975"><ele>1200.0</ele><time>2011-11-30T10:38:06Z</time></trkpt><trkpt lat="42.599833" lon="-2.576968"><ele>1200.5</ele><time>2011-11-30T10:38:07Z</time></trkpt><trkpt lat="42.599843" lon="-2.576948"><ele>1202.0</ele><time>2011-11-30T10:38:08Z</time></trkpt><trkpt lat="42.599847" lon="-2.576938"><ele>1203.0</ele><time>2011-11-30T10:38:09Z</time></trkpt><trkpt lat="42.599853" lon="-2.576927"><ele>1204.0</ele><time>2011-11-30T10:38:10Z</time></trkpt><trkpt lat="42.599865" lon="-2.576915"><ele>1202.5</ele><time>2011-11-30T10:38:11Z</time></trkpt><trkpt lat="42.599872" lon="-2.576908"><ele>1202.5</ele><time>2011-11-30T10:38:12Z</time></trkpt><trkpt lat="42.599875" lon="-2.576898"><ele>1202.5</ele><time>2011-11-30T10:38:13Z</time></trkpt><trkpt lat="42.599880" lon="-2.576892"><ele>1202.5</ele><time>2011-11-30T10:38:14Z</time></trkpt><trkpt lat="42.599882" lon="-2.576877"><ele>1204.0</ele><time>2011-11-30T10:38:15Z</time></trkpt><trkpt lat="42.599885" lon="-2.576867"><ele>1204.0</ele><time>2011-11-30T10:38:16Z</time></trkpt><trkpt lat="42.599888" lon="-2.576860"><ele>1204.0</ele><time>2011-11-30T10:38:17Z</time></trkpt><trkpt lat="42.599892" lon="-2.576850"><ele>1205.0</ele><time>2011-11-30T10:38:18Z</time></trkpt><trkpt lat="42.599897" lon="-2.576837"><ele>1205.0</ele><time>2011-11-30T10:38:19Z</time></trkpt><trkpt lat="42.599903" lon="-2.576823"><ele>1204.5</ele><time>2011-11-30T10:38:20Z</time></trkpt><trkpt lat="42.599905" lon="-2.576817"><ele>1205.0</ele><time>2011-11-30T10:38:21Z</time></trkpt><trkpt lat="42.599907" lon="-2.576802"><ele>1206.5</ele><time>2011-11-30T10:38:22Z</time></trkpt><trkpt lat="42.599905" lon="-2.576792"><ele>1207.0</ele><time>2011-11-30T10:38:23Z</time></trkpt><trkpt lat="42.599905" lon="-2.576783"><ele>1207.5</ele><time>2011-11-30T10:38:24Z</time></trkpt><trkpt lat="42.599903" lon="-2.576772"><ele>1207.5</ele><time>2011-11-30T10:38:25Z</time></trkpt><trkpt lat="42.599902" lon="-2.576767"><ele>1207.0</ele><time>2011-11-30T10:38:26Z</time></trkpt><trkpt lat="42.599902" lon="-2.576760"><ele>1206.5</ele><time>2011-11-30T10:38:27Z</time></trkpt><trkpt lat="42.599902" lon="-2.576747"><ele>1207.0</ele><time>2011-11-30T10:38:28Z</time></trkpt><trkpt lat="42.599910" lon="-2.576735"><ele>1205.0</ele><time>2011-11-30T10:38:29Z</time></trkpt><trkpt lat="42.599913" lon="-2.576723"><ele>1205.5</ele><time>2011-11-30T10:38:30Z</time></trkpt><trkpt lat="42.599917" lon="-2.576715"><ele>1205.0</ele><time>2011-11-30T10:38:31Z</time></trkpt><trkpt lat="42.599937" lon="-2.576730"><ele>1203.0</ele><time>2011-11-30T10:38:32Z</time></trkpt><trkpt lat="42.599938" lon="-2.576743"><ele>1203.0</ele><time>2011-11-30T10:38:33Z</time></trkpt><trkpt lat="42.599938" lon="-2.576762"><ele>1203.5</ele><time>2011-11-30T10:38:34Z</time></trkpt><trkpt lat="42.599935" lon="-2.576783"><ele>1204.0</ele><time>2011-11-30T10:38:35Z</time></trkpt><trkpt lat="42.599937" lon="-2.576802"><ele>1204.0</ele><time>2011-11-30T10:38:36Z</time></trkpt><trkpt lat="42.599937" lon="-2.576818"><ele>1204.5</ele><time>2011-11-30T10:38:37Z</time></trkpt><trkpt lat="42.599935" lon="-2.576835"><ele>1204.5</ele><time>2011-11-30T10:38:38Z</time></trkpt><trkpt lat="42.599938" lon="-2.576848"><ele>1204.5</ele><time>2011-11-30T10:38:39Z</time></trkpt><trkpt lat="42.599938" lon="-2.576862"><ele>1204.5</ele><time>2011-11-30T10:38:40Z</time></trkpt><trkpt lat="42.599942" lon="-2.576872"><ele>1204.5</ele><time>2011-11-30T10:38:41Z</time></trkpt><trkpt lat="42.599945" lon="-2.576883"><ele>1204.0</ele><time>2011-11-30T10:38:42Z</time></trkpt><trkpt lat="42.599943" lon="-2.576893"><ele>1204.0</ele><time>2011-11-30T10:38:43Z</time></trkpt><trkpt lat="42.599935" lon="-2.576912"><ele>1204.5</ele><time>2011-11-30T10:38:44Z</time></trkpt><trkpt lat="42.599933" lon="-2.576928"><ele>1205.0</ele><time>2011-11-30T10:38:45Z</time></trkpt><trkpt lat="42.599933" lon="-2.576938"><ele>1205.0</ele><time>2011-11-30T10:38:46Z</time></trkpt><trkpt lat="42.599933" lon="-2.576947"><ele>1205.0</ele><time>2011-11-30T10:38:47Z</time></trkpt><trkpt lat="42.599930" lon="-2.576953"><ele>1205.0</ele><time>2011-11-30T10:38:48Z</time></trkpt><trkpt lat="42.599930" lon="-2.576960"><ele>1205.0</ele><time>2011-11-30T10:38:49Z</time></trkpt><trkpt lat="42.599932" lon="-2.576968"><ele>1204.5</ele><time>2011-11-30T10:38:50Z</time></trkpt><trkpt lat="42.599937" lon="-2.576977"><ele>1204.5</ele><time>2011-11-30T10:38:51Z</time></trkpt><trkpt lat="42.599943" lon="-2.576997"><ele>1203.5</ele><time>2011-11-30T10:38:52Z</time></trkpt><trkpt lat="42.599943" lon="-2.577005"><ele>1203.5</ele><time>2011-11-30T10:38:53Z</time></trkpt><trkpt lat="42.599945" lon="-2.577045"><ele>1203.5</ele><time>2011-11-30T10:38:54Z</time></trkpt><trkpt lat="42.599945" lon="-2.577070"><ele>1204.0</ele><time>2011-11-30T10:38:55Z</time></trkpt><trkpt lat="42.599947" lon="-2.577080"><ele>1204.5</ele><time>2011-11-30T10:38:56Z</time></trkpt><trkpt lat="42.599952" lon="-2.577088"><ele>1204.0</ele><time>2011-11-30T10:38:57Z</time></trkpt><trkpt lat="42.599952" lon="-2.577095"><ele>1204.0</ele><time>2011-11-30T10:38:58Z</time></trkpt><trkpt lat="42.599948" lon="-2.577108"><ele>1204.0</ele><time>2011-11-30T10:38:59Z</time></trkpt><trkpt lat="42.599962" lon="-2.577135"><ele>1203.0</ele><time>2011-11-30T10:39:00Z</time></trkpt><trkpt lat="42.599962" lon="-2.577150"><ele>1202.5</ele><time>2011-11-30T10:39:01Z</time></trkpt><trkpt lat="42.599957" lon="-2.577162"><ele>1202.0</ele><time>2011-11-30T10:39:02Z</time></trkpt><trkpt lat="42.599957" lon="-2.577170"><ele>1202.0</ele><time>2011-11-30T10:39:03Z</time></trkpt><trkpt lat="42.599953" lon="-2.577182"><ele>1202.5</ele><time>2011-11-30T10:39:04Z</time></trkpt><trkpt lat="42.599943" lon="-2.577202"><ele>1203.0</ele><time>2011-11-30T10:39:05Z</time></trkpt><trkpt lat="42.599937" lon="-2.577207"><ele>1204.0</ele><time>2011-11-30T10:39:06Z</time></trkpt><trkpt lat="42.599932" lon="-2.577215"><ele>1204.5</ele><time>2011-11-30T10:39:07Z</time></trkpt><trkpt lat="42.599927" lon="-2.577225"><ele>1205.0</ele><time>2011-11-30T10:39:08Z</time></trkpt><trkpt lat="42.599922" lon="-2.577232"><ele>1205.0</ele><time>2011-11-30T10:39:09Z</time></trkpt><trkpt lat="42.599908" lon="-2.577280"><ele>1206.5</ele><time>2011-11-30T10:39:10Z</time></trkpt><trkpt lat="42.599908" lon="-2.577290"><ele>1206.0</ele><time>2011-11-30T10:39:11Z</time></trkpt><trkpt lat="42.599910" lon="-2.577307"><ele>1205.0</ele><time>2011-11-30T10:39:12Z</time></trkpt><trkpt lat="42.599912" lon="-2.577315"><ele>1205.0</ele><time>2011-11-30T10:39:13Z</time></trkpt><trkpt lat="42.599912" lon="-2.577330"><ele>1204.5</ele><time>2011-11-30T10:39:14Z</time></trkpt><trkpt lat="42.599910" lon="-2.577338"><ele>1204.5</ele><time>2011-11-30T10:39:15Z</time></trkpt><trkpt lat="42.599900" lon="-2.577347"><ele>1204.5</ele><time>2011-11-30T10:39:16Z</time></trkpt><trkpt lat="42.599897" lon="-2.577382"><ele>1204.5</ele><time>2011-11-30T10:39:17Z</time></trkpt><trkpt lat="42.599892" lon="-2.577400"><ele>1204.5</ele><time>2011-11-30T10:39:18Z</time></trkpt><trkpt lat="42.599890" lon="-2.577417"><ele>1204.5</ele><time>2011-11-30T10:39:19Z</time></trkpt><trkpt lat="42.599892" lon="-2.577430"><ele>1204.5</ele><time>2011-11-30T10:39:20Z</time></trkpt><trkpt lat="42.599895" lon="-2.577447"><ele>1205.0</ele><time>2011-11-30T10:39:21Z</time></trkpt><trkpt lat="42.599903" lon="-2.577500"><ele>1206.5</ele><time>2011-11-30T10:39:22Z</time></trkpt><trkpt lat="42.599902" lon="-2.577508"><ele>1207.0</ele><time>2011-11-30T10:39:23Z</time></trkpt><trkpt lat="42.599910" lon="-2.577525"><ele>1206.5</ele><time>2011-11-30T10:39:24Z</time></trkpt><trkpt lat="42.599910" lon="-2.577543"><ele>1207.0</ele><time>2011-11-30T10:39:25Z</time></trkpt><trkpt lat="42.599913" lon="-2.577557"><ele>1207.5</ele><time>2011-11-30T10:39:26Z</time></trkpt><trkpt lat="42.599917" lon="-2.577568"><ele>1208.0</ele><time>2011-11-30T10:39:27Z</time></trkpt><trkpt lat="42.599928" lon="-2.577585"><ele>1209.5</ele><time>2011-11-30T10:39:28Z</time></trkpt><trkpt lat="42.599930" lon="-2.577600"><ele>1210.0</ele><time>2011-11-30T10:39:29Z</time></trkpt><trkpt lat="42.599935" lon="-2.577617"><ele>1210.0</ele><time>2011-11-30T10:39:30Z</time></trkpt><trkpt lat="42.599938" lon="-2.577632"><ele>1211.0</ele><time>2011-11-30T10:39:31Z</time></trkpt><trkpt lat="42.599942" lon="-2.577640"><ele>1211.5</ele><time>2011-11-30T10:39:32Z</time></trkpt><trkpt lat="42.599945" lon="-2.577648"><ele>1211.0</ele><time>2011-11-30T10:39:33Z</time></trkpt><trkpt lat="42.599948" lon="-2.577657"><ele>1211.5</ele><time>2011-11-30T10:39:34Z</time></trkpt><trkpt lat="42.599958" lon="-2.577677"><ele>1212.0</ele><time>2011-11-30T10:39:35Z</time></trkpt><trkpt lat="42.599958" lon="-2.577693"><ele>1213.0</ele><time>2011-11-30T10:39:36Z</time></trkpt><trkpt lat="42.599958" lon="-2.577703"><ele>1213.5</ele><time>2011-11-30T10:39:37Z</time></trkpt><trkpt lat="42.599962" lon="-2.577723"><ele>1214.0</ele><time>2011-11-30T10:39:38Z</time></trkpt><trkpt lat="42.599970" lon="-2.577763"><ele>1216.5</ele><time>2011-11-30T10:39:39Z</time></trkpt><trkpt lat="42.599980" lon="-2.577780"><ele>1217.0</ele><time>2011-11-30T10:39:40Z</time></trkpt><trkpt lat="42.599983" lon="-2.577787"><ele>1217.5</ele><time>2011-11-30T10:39:41Z</time></trkpt><trkpt lat="42.599988" lon="-2.577797"><ele>1217.5</ele><time>2011-11-30T10:39:42Z</time></trkpt><trkpt lat="42.599987" lon="-2.577813"><ele>1218.0</ele><time>2011-11-30T10:39:43Z</time></trkpt><trkpt lat="42.599985" lon="-2.577827"><ele>1218.5</ele><time>2011-11-30T10:39:44Z</time></trkpt><trkpt lat="42.599982" lon="-2.577842"><ele>1219.0</ele><time>2011-11-30T10:39:45Z</time></trkpt><trkpt lat="42.599977" lon="-2.577852"><ele>1219.5</ele><time>2011-11-30T10:39:46Z</time></trkpt><trkpt lat="42.599973" lon="-2.577860"><ele>1220.0</ele><time>2011-11-30T10:39:47Z</time></trkpt><trkpt lat="42.599967" lon="-2.577877"><ele>1221.0</ele><time>2011-11-30T10:39:48Z</time></trkpt><trkpt lat="42.599975" lon="-2.577897"><ele>1220.5</ele><time>2011-11-30T10:39:49Z</time></trkpt><trkpt lat="42.599980" lon="-2.577907"><ele>1220.5</ele><time>2011-11-30T10:39:50Z</time></trkpt><trkpt lat="42.599982" lon="-2.577920"><ele>1220.5</ele><time>2011-11-30T10:39:51Z</time></trkpt><trkpt lat="42.599982" lon="-2.577937"><ele>1221.0</ele><time>2011-11-30T10:39:52Z</time></trkpt><trkpt lat="42.599982" lon="-2.577950"><ele>1221.0</ele><time>2011-11-30T10:39:53Z</time></trkpt><trkpt lat="42.599980" lon="-2.577963"><ele>1221.0</ele><time>2011-11-30T10:39:54Z</time></trkpt><trkpt lat="42.599983" lon="-2.577973"><ele>1221.0</ele><time>2011-11-30T10:39:55Z</time></trkpt><trkpt lat="42.599987" lon="-2.577983"><ele>1221.0</ele><time>2011-11-30T10:39:56Z</time></trkpt><trkpt lat="42.599992" lon="-2.577995"><ele>1221.0</ele><time>2011-11-30T10:39:57Z</time></trkpt><trkpt lat="42.599993" lon="-2.578005"><ele>1221.0</ele><time>2011-11-30T10:39:58Z</time></trkpt><trkpt lat="42.599993" lon="-2.578020"><ele>1221.5</ele><time>2011-11-30T10:39:59Z</time></trkpt><trkpt lat="42.599995" lon="-2.578030"><ele>1221.5</ele><time>2011-11-30T10:40:00Z</time></trkpt><trkpt lat="42.599992" lon="-2.578045"><ele>1222.0</ele><time>2011-11-30T10:40:01Z</time></trkpt><trkpt lat="42.599990" lon="-2.578057"><ele>1222.5</ele><time>2011-11-30T10:40:02Z</time></trkpt><trkpt lat="42.599990" lon="-2.578067"><ele>1222.0</ele><time>2011-11-30T10:40:03Z</time></trkpt><trkpt lat="42.599988" lon="-2.578083"><ele>1222.5</ele><time>2011-11-30T10:40:04Z</time></trkpt><trkpt lat="42.599988" lon="-2.578095"><ele>1222.5</ele><time>2011-11-30T10:40:05Z</time></trkpt><trkpt lat="42.599982" lon="-2.578108"><ele>1223.5</ele><time>2011-11-30T10:40:06Z</time></trkpt><trkpt lat="42.599980" lon="-2.578123"><ele>1223.5</ele><time>2011-11-30T10:40:07Z</time></trkpt><trkpt lat="42.599980" lon="-2.578137"><ele>1223.5</ele><time>2011-11-30T10:40:08Z</time></trkpt><trkpt lat="42.599978" lon="-2.578152"><ele>1223.5</ele><time>2011-11-30T10:40:09Z</time></trkpt><trkpt lat="42.599977" lon="-2.578167"><ele>1224.0</ele><time>2011-11-30T10:40:10Z</time></trkpt><trkpt lat="42.599975" lon="-2.578178"><ele>1224.0</ele><time>2011-11-30T10:40:11Z</time></trkpt><trkpt lat="42.599972" lon="-2.578187"><ele>1224.0</ele><time>2011-11-30T10:40:12Z</time></trkpt><trkpt lat="42.599970" lon="-2.578197"><ele>1224.0</ele><time>2011-11-30T10:40:13Z</time></trkpt><trkpt lat="42.599967" lon="-2.578205"><ele>1224.5</ele><time>2011-11-30T10:40:14Z</time></trkpt><trkpt lat="42.599962" lon="-2.578215"><ele>1224.5</ele><time>2011-11-30T10:40:15Z</time></trkpt><trkpt lat="42.599958" lon="-2.578223"><ele>1225.0</ele><time>2011-11-30T10:40:16Z</time></trkpt><trkpt lat="42.599953" lon="-2.578233"><ele>1225.5</ele><time>2011-11-30T10:40:17Z</time></trkpt><trkpt lat="42.599953" lon="-2.578245"><ele>1225.5</ele><time>2011-11-30T10:40:18Z</time></trkpt><trkpt lat="42.599952" lon="-2.578253"><ele>1225.5</ele><time>2011-11-30T10:40:19Z</time></trkpt><trkpt lat="42.599952" lon="-2.578263"><ele>1226.0</ele><time>2011-11-30T10:40:20Z</time></trkpt><trkpt lat="42.599950" lon="-2.578277"><ele>1226.5</ele><time>2011-11-30T10:40:21Z</time></trkpt><trkpt lat="42.599945" lon="-2.578290"><ele>1227.0</ele><time>2011-11-30T10:40:21Z</time></trkpt><trkpt lat="42.599943" lon="-2.578297"><ele>1227.0</ele><time>2011-11-30T10:40:22Z</time></trkpt><trkpt lat="42.599938" lon="-2.578310"><ele>1227.0</ele><time>2011-11-30T10:40:23Z</time></trkpt><trkpt lat="42.599935" lon="-2.578320"><ele>1227.5</ele><time>2011-11-30T10:40:24Z</time></trkpt><trkpt lat="42.599932" lon="-2.578332"><ele>1228.0</ele><time>2011-11-30T10:40:25Z</time></trkpt><trkpt lat="42.599932" lon="-2.578340"><ele>1228.5</ele><time>2011-11-30T10:40:26Z</time></trkpt><trkpt lat="42.599932" lon="-2.578347"><ele>1228.5</ele><time>2011-11-30T10:40:27Z</time></trkpt><trkpt lat="42.599932" lon="-2.578355"><ele>1228.5</ele><time>2011-11-30T10:40:28Z</time></trkpt><trkpt lat="42.599930" lon="-2.578362"><ele>1228.5</ele><time>2011-11-30T10:40:29Z</time></trkpt><trkpt lat="42.599928" lon="-2.578372"><ele>1228.0</ele><time>2011-11-30T10:40:30Z</time></trkpt><trkpt lat="42.599928" lon="-2.578380"><ele>1228.5</ele><time>2011-11-30T10:40:31Z</time></trkpt><trkpt lat="42.599933" lon="-2.578387"><ele>1228.0</ele><time>2011-11-30T10:40:32Z</time></trkpt><trkpt lat="42.599930" lon="-2.578398"><ele>1228.5</ele><time>2011-11-30T10:40:33Z</time></trkpt><trkpt lat="42.599925" lon="-2.578405"><ele>1228.5</ele><time>2011-11-30T10:40:34Z</time></trkpt><trkpt lat="42.599922" lon="-2.578413"><ele>1228.5</ele><time>2011-11-30T10:40:35Z</time></trkpt><trkpt lat="42.599918" lon="-2.578417"><ele>1228.5</ele><time>2011-11-30T10:40:36Z</time></trkpt><trkpt lat="42.599917" lon="-2.578425"><ele>1228.0</ele><time>2011-11-30T10:40:37Z</time></trkpt><trkpt lat="42.599920" lon="-2.578432"><ele>1228.0</ele><time>2011-11-30T10:40:38Z</time></trkpt><trkpt lat="42.599920" lon="-2.578443"><ele>1228.0</ele><time>2011-11-30T10:40:39Z</time></trkpt><trkpt lat="42.599920" lon="-2.578453"><ele>1228.0</ele><time>2011-11-30T10:40:40Z</time></trkpt><trkpt lat="42.599923" lon="-2.578467"><ele>1228.0</ele><time>2011-11-30T10:40:41Z</time></trkpt><trkpt lat="42.599927" lon="-2.578478"><ele>1228.0</ele><time>2011-11-30T10:40:42Z</time></trkpt><trkpt lat="42.599933" lon="-2.578495"><ele>1228.0</ele><time>2011-11-30T10:40:43Z</time></trkpt><trkpt lat="42.599930" lon="-2.578518"><ele>1228.0</ele><time>2011-11-30T10:40:44Z</time></trkpt><trkpt lat="42.599928" lon="-2.578537"><ele>1228.5</ele><time>2011-11-30T10:40:45Z</time></trkpt><trkpt lat="42.599923" lon="-2.578553"><ele>1229.0</ele><time>2011-11-30T10:40:46Z</time></trkpt><trkpt lat="42.599920" lon="-2.578573"><ele>1229.5</ele><time>2011-11-30T10:40:47Z</time></trkpt><trkpt lat="42.599917" lon="-2.578588"><ele>1229.5</ele><time>2011-11-30T10:40:48Z</time></trkpt><trkpt lat="42.599912" lon="-2.578598"><ele>1229.5</ele><time>2011-11-30T10:40:49Z</time></trkpt><trkpt lat="42.599907" lon="-2.578605"><ele>1230.0</ele><time>2011-11-30T10:40:50Z</time></trkpt><trkpt lat="42.599900" lon="-2.578613"><ele>1230.5</ele><time>2011-11-30T10:40:51Z</time></trkpt><trkpt lat="42.599898" lon="-2.578627"><ele>1231.0</ele><time>2011-11-30T10:40:52Z</time></trkpt><trkpt lat="42.599895" lon="-2.578643"><ele>1231.0</ele><time>2011-11-30T10:40:53Z</time></trkpt><trkpt lat="42.599893" lon="-2.578665"><ele>1231.5</ele><time>2011-11-30T10:40:54Z</time></trkpt><trkpt lat="42.599890" lon="-2.578682"><ele>1232.0</ele><time>2011-11-30T10:40:55Z</time></trkpt><trkpt lat="42.599890" lon="-2.578702"><ele>1232.0</ele><time>2011-11-30T10:40:56Z</time></trkpt><trkpt lat="42.599887" lon="-2.578713"><ele>1232.0</ele><time>2011-11-30T10:40:57Z</time></trkpt><trkpt lat="42.599890" lon="-2.578723"><ele>1232.0</ele><time>2011-11-30T10:40:58Z</time></trkpt><trkpt lat="42.599895" lon="-2.578737"><ele>1231.5</ele><time>2011-11-30T10:40:59Z</time></trkpt><trkpt lat="42.599893" lon="-2.578752"><ele>1232.0</ele><time>2011-11-30T10:41:00Z</time></trkpt><trkpt lat="42.599893" lon="-2.578763"><ele>1232.5</ele><time>2011-11-30T10:41:01Z</time></trkpt><trkpt lat="42.599892" lon="-2.578773"><ele>1232.5</ele><time>2011-11-30T10:41:02Z</time></trkpt><trkpt lat="42.599892" lon="-2.578797"><ele>1232.5</ele><time>2011-11-30T10:41:03Z</time></trkpt><trkpt lat="42.599890" lon="-2.578812"><ele>1232.5</ele><time>2011-11-30T10:41:04Z</time></trkpt><trkpt lat="42.599887" lon="-2.578832"><ele>1232.0</ele><time>2011-11-30T10:41:05Z</time></trkpt><trkpt lat="42.599887" lon="-2.578848"><ele>1232.0</ele><time>2011-11-30T10:41:06Z</time></trkpt><trkpt lat="42.599885" lon="-2.578865"><ele>1232.0</ele><time>2011-11-30T10:41:07Z</time></trkpt><trkpt lat="42.599882" lon="-2.578878"><ele>1232.0</ele><time>2011-11-30T10:41:08Z</time></trkpt><trkpt lat="42.599880" lon="-2.578893"><ele>1232.5</ele><time>2011-11-30T10:41:09Z</time></trkpt><trkpt lat="42.599878" lon="-2.578907"><ele>1232.5</ele><time>2011-11-30T10:41:10Z</time></trkpt><trkpt lat="42.599875" lon="-2.578920"><ele>1232.5</ele><time>2011-11-30T10:41:11Z</time></trkpt><trkpt lat="42.599872" lon="-2.578930"><ele>1233.0</ele><time>2011-11-30T10:41:12Z</time></trkpt><trkpt lat="42.599865" lon="-2.578933"><ele>1233.5</ele><time>2011-11-30T10:41:13Z</time></trkpt><trkpt lat="42.599857" lon="-2.578942"><ele>1233.5</ele><time>2011-11-30T10:41:14Z</time></trkpt><trkpt lat="42.599852" lon="-2.578950"><ele>1234.5</ele><time>2011-11-30T10:41:15Z</time></trkpt><trkpt lat="42.599845" lon="-2.578967"><ele>1234.5</ele><time>2011-11-30T10:41:16Z</time></trkpt><trkpt lat="42.599845" lon="-2.578982"><ele>1234.5</ele><time>2011-11-30T10:41:17Z</time></trkpt><trkpt lat="42.599843" lon="-2.578998"><ele>1235.0</ele><time>2011-11-30T10:41:18Z</time></trkpt><trkpt lat="42.599843" lon="-2.579013"><ele>1235.0</ele><time>2011-11-30T10:41:19Z</time></trkpt><trkpt lat="42.599840" lon="-2.579028"><ele>1235.0</ele><time>2011-11-30T10:41:20Z</time></trkpt><trkpt lat="42.599838" lon="-2.579040"><ele>1235.0</ele><time>2011-11-30T10:41:21Z</time></trkpt><trkpt lat="42.599837" lon="-2.579057"><ele>1235.5</ele><time>2011-11-30T10:41:22Z</time></trkpt><trkpt lat="42.599840" lon="-2.579070"><ele>1236.5</ele><time>2011-11-30T10:41:23Z</time></trkpt><trkpt lat="42.599835" lon="-2.579083"><ele>1236.5</ele><time>2011-11-30T10:41:24Z</time></trkpt><trkpt lat="42.599833" lon="-2.579098"><ele>1236.5</ele><time>2011-11-30T10:41:25Z</time></trkpt><trkpt lat="42.599832" lon="-2.579113"><ele>1237.0</ele><time>2011-11-30T10:41:26Z</time></trkpt><trkpt lat="42.599830" lon="-2.579130"><ele>1237.5</ele><time>2011-11-30T10:41:27Z</time></trkpt><trkpt lat="42.599828" lon="-2.579147"><ele>1237.5</ele><time>2011-11-30T10:41:28Z</time></trkpt><trkpt lat="42.599830" lon="-2.579157"><ele>1237.0</ele><time>2011-11-30T10:41:29Z</time></trkpt><trkpt lat="42.599828" lon="-2.579168"><ele>1237.0</ele><time>2011-11-30T10:41:30Z</time></trkpt><trkpt lat="42.599823" lon="-2.579182"><ele>1237.5</ele><time>2011-11-30T10:41:31Z</time></trkpt><trkpt lat="42.599822" lon="-2.579195"><ele>1237.0</ele><time>2011-11-30T10:41:32Z</time></trkpt><trkpt lat="42.599822" lon="-2.579210"><ele>1237.0</ele><time>2011-11-30T10:41:33Z</time></trkpt><trkpt lat="42.599817" lon="-2.579228"><ele>1237.5</ele><time>2011-11-30T10:41:34Z</time></trkpt><trkpt lat="42.599818" lon="-2.579238"><ele>1237.0</ele><time>2011-11-30T10:41:35Z</time></trkpt><trkpt lat="42.599817" lon="-2.579253"><ele>1237.0</ele><time>2011-11-30T10:41:36Z</time></trkpt><trkpt lat="42.599820" lon="-2.579265"><ele>1236.5</ele><time>2011-11-30T10:41:37Z</time></trkpt><trkpt lat="42.599815" lon="-2.579280"><ele>1237.0</ele><time>2011-11-30T10:41:38Z</time></trkpt><trkpt lat="42.599812" lon="-2.579290"><ele>1237.0</ele><time>2011-11-30T10:41:39Z</time></trkpt><trkpt lat="42.599808" lon="-2.579302"><ele>1237.0</ele><time>2011-11-30T10:41:40Z</time></trkpt><trkpt lat="42.599808" lon="-2.579317"><ele>1237.5</ele><time>2011-11-30T10:41:41Z</time></trkpt><trkpt lat="42.599807" lon="-2.579332"><ele>1237.5</ele><time>2011-11-30T10:41:42Z</time></trkpt><trkpt lat="42.599805" lon="-2.579343"><ele>1237.5</ele><time>2011-11-30T10:41:43Z</time></trkpt><trkpt lat="42.599807" lon="-2.579355"><ele>1237.5</ele><time>2011-11-30T10:41:44Z</time></trkpt><trkpt lat="42.599807" lon="-2.579367"><ele>1237.0</ele><time>2011-11-30T10:41:45Z</time></trkpt><trkpt lat="42.599807" lon="-2.579377"><ele>1237.0</ele><time>2011-11-30T10:41:46Z</time></trkpt><trkpt lat="42.599805" lon="-2.579388"><ele>1237.0</ele><time>2011-11-30T10:41:47Z</time></trkpt><trkpt lat="42.599802" lon="-2.579400"><ele>1237.5</ele><time>2011-11-30T10:41:48Z</time></trkpt><trkpt lat="42.599797" lon="-2.579410"><ele>1237.5</ele><time>2011-11-30T10:41:49Z</time></trkpt><trkpt lat="42.599797" lon="-2.579418"><ele>1237.0</ele><time>2011-11-30T10:41:50Z</time></trkpt><trkpt lat="42.599797" lon="-2.579430"><ele>1237.5</ele><time>2011-11-30T10:41:51Z</time></trkpt><trkpt lat="42.599793" lon="-2.579445"><ele>1237.0</ele><time>2011-11-30T10:41:52Z</time></trkpt><trkpt lat="42.599792" lon="-2.579458"><ele>1237.0</ele><time>2011-11-30T10:41:53Z</time></trkpt><trkpt lat="42.599790" lon="-2.579472"><ele>1237.5</ele><time>2011-11-30T10:41:54Z</time></trkpt><trkpt lat="42.599793" lon="-2.579482"><ele>1237.5</ele><time>2011-11-30T10:41:55Z</time></trkpt><trkpt lat="42.599798" lon="-2.579485"><ele>1237.0</ele><time>2011-11-30T10:41:56Z</time></trkpt><trkpt lat="42.599805" lon="-2.579488"><ele>1236.0</ele><time>2011-11-30T10:41:57Z</time></trkpt><trkpt lat="42.599808" lon="-2.579498"><ele>1236.0</ele><time>2011-11-30T10:41:58Z</time></trkpt><trkpt lat="42.599810" lon="-2.579508"><ele>1236.0</ele><time>2011-11-30T10:41:59Z</time></trkpt><trkpt lat="42.599808" lon="-2.579520"><ele>1236.5</ele><time>2011-11-30T10:42:00Z</time></trkpt><trkpt lat="42.599808" lon="-2.579530"><ele>1236.5</ele><time>2011-11-30T10:42:01Z</time></trkpt><trkpt lat="42.599805" lon="-2.579542"><ele>1236.5</ele><time>2011-11-30T10:42:02Z</time></trkpt><trkpt lat="42.599802" lon="-2.579553"><ele>1237.0</ele><time>2011-11-30T10:42:03Z</time></trkpt><trkpt lat="42.599802" lon="-2.579562"><ele>1237.0</ele><time>2011-11-30T10:42:04Z</time></trkpt><trkpt lat="42.599802" lon="-2.579575"><ele>1237.0</ele><time>2011-11-30T10:42:05Z</time></trkpt><trkpt lat="42.599798" lon="-2.579587"><ele>1237.5</ele><time>2011-11-30T10:42:06Z</time></trkpt><trkpt lat="42.599795" lon="-2.579600"><ele>1238.0</ele><time>2011-11-30T10:42:07Z</time></trkpt><trkpt lat="42.599792" lon="-2.579613"><ele>1238.0</ele><time>2011-11-30T10:42:08Z</time></trkpt><trkpt lat="42.599787" lon="-2.579628"><ele>1238.5</ele><time>2011-11-30T10:42:09Z</time></trkpt><trkpt lat="42.599792" lon="-2.579643"><ele>1239.0</ele><time>2011-11-30T10:42:10Z</time></trkpt><trkpt lat="42.599802" lon="-2.579662"><ele>1238.5</ele><time>2011-11-30T10:42:11Z</time></trkpt><trkpt lat="42.599803" lon="-2.579675"><ele>1239.0</ele><time>2011-11-30T10:42:12Z</time></trkpt><trkpt lat="42.599802" lon="-2.579685"><ele>1239.0</ele><time>2011-11-30T10:42:13Z</time></trkpt><trkpt lat="42.599800" lon="-2.579695"><ele>1239.0</ele><time>2011-11-30T10:42:14Z</time></trkpt><trkpt lat="42.599798" lon="-2.579705"><ele>1239.5</ele><time>2011-11-30T10:42:15Z</time></trkpt><trkpt lat="42.599802" lon="-2.579717"><ele>1239.5</ele><time>2011-11-30T10:42:16Z</time></trkpt><trkpt lat="42.599803" lon="-2.579728"><ele>1240.0</ele><time>2011-11-30T10:42:17Z</time></trkpt><trkpt lat="42.599803" lon="-2.579740"><ele>1240.0</ele><time>2011-11-30T10:42:18Z</time></trkpt><trkpt lat="42.599803" lon="-2.579752"><ele>1240.5</ele><time>2011-11-30T10:42:19Z</time></trkpt><trkpt lat="42.599800" lon="-2.579758"><ele>1241.0</ele><time>2011-11-30T10:42:20Z</time></trkpt><trkpt lat="42.599803" lon="-2.579768"><ele>1241.0</ele><time>2011-11-30T10:42:21Z</time></trkpt><trkpt lat="42.599805" lon="-2.579777"><ele>1240.5</ele><time>2011-11-30T10:42:22Z</time></trkpt><trkpt lat="42.599803" lon="-2.579785"><ele>1241.0</ele><time>2011-11-30T10:42:23Z</time></trkpt><trkpt lat="42.599803" lon="-2.579797"><ele>1241.0</ele><time>2011-11-30T10:42:24Z</time></trkpt><trkpt lat="42.599798" lon="-2.579815"><ele>1241.5</ele><time>2011-11-30T10:42:25Z</time></trkpt><trkpt lat="42.599797" lon="-2.579822"><ele>1241.5</ele><time>2011-11-30T10:42:26Z</time></trkpt><trkpt lat="42.599797" lon="-2.579833"><ele>1241.5</ele><time>2011-11-30T10:42:27Z</time></trkpt><trkpt lat="42.599795" lon="-2.579843"><ele>1241.5</ele><time>2011-11-30T10:42:28Z</time></trkpt><trkpt lat="42.599795" lon="-2.579852"><ele>1241.0</ele><time>2011-11-30T10:42:29Z</time></trkpt><trkpt lat="42.599792" lon="-2.579863"><ele>1241.0</ele><time>2011-11-30T10:42:30Z</time></trkpt><trkpt lat="42.599790" lon="-2.579873"><ele>1241.5</ele><time>2011-11-30T10:42:31Z</time></trkpt><trkpt lat="42.599788" lon="-2.579887"><ele>1241.5</ele><time>2011-11-30T10:42:32Z</time></trkpt><trkpt lat="42.599793" lon="-2.579895"><ele>1242.0</ele><time>2011-11-30T10:42:33Z</time></trkpt><trkpt lat="42.599792" lon="-2.579910"><ele>1242.5</ele><time>2011-11-30T10:42:34Z</time></trkpt><trkpt lat="42.599792" lon="-2.579923"><ele>1242.5</ele><time>2011-11-30T10:42:35Z</time></trkpt><trkpt lat="42.599793" lon="-2.579935"><ele>1242.5</ele><time>2011-11-30T10:42:36Z</time></trkpt><trkpt lat="42.599793" lon="-2.579945"><ele>1242.5</ele><time>2011-11-30T10:42:37Z</time></trkpt><trkpt lat="42.599793" lon="-2.579957"><ele>1242.5</ele><time>2011-11-30T10:42:38Z</time></trkpt><trkpt lat="42.599797" lon="-2.579970"><ele>1242.0</ele><time>2011-11-30T10:42:39Z</time></trkpt><trkpt lat="42.599795" lon="-2.579980"><ele>1242.0</ele><time>2011-11-30T10:42:40Z</time></trkpt><trkpt lat="42.599797" lon="-2.579987"><ele>1242.0</ele><time>2011-11-30T10:42:41Z</time></trkpt><trkpt lat="42.599798" lon="-2.580002"><ele>1241.5</ele><time>2011-11-30T10:42:42Z</time></trkpt><trkpt lat="42.599802" lon="-2.580012"><ele>1242.0</ele><time>2011-11-30T10:42:43Z</time></trkpt><trkpt lat="42.599803" lon="-2.580022"><ele>1242.0</ele><time>2011-11-30T10:42:44Z</time></trkpt><trkpt lat="42.599808" lon="-2.580032"><ele>1241.5</ele><time>2011-11-30T10:42:45Z</time></trkpt><trkpt lat="42.599812" lon="-2.580038"><ele>1241.5</ele><time>2011-11-30T10:42:46Z</time></trkpt><trkpt lat="42.599812" lon="-2.580052"><ele>1242.0</ele><time>2011-11-30T10:42:47Z</time></trkpt><trkpt lat="42.599810" lon="-2.580067"><ele>1242.0</ele><time>2011-11-30T10:42:48Z</time></trkpt><trkpt lat="42.599815" lon="-2.580075"><ele>1242.0</ele><time>2011-11-30T10:42:49Z</time></trkpt><trkpt lat="42.599817" lon="-2.580085"><ele>1242.0</ele><time>2011-11-30T10:42:50Z</time></trkpt><trkpt lat="42.599822" lon="-2.580095"><ele>1242.0</ele><time>2011-11-30T10:42:51Z</time></trkpt><trkpt lat="42.599825" lon="-2.580107"><ele>1241.0</ele><time>2011-11-30T10:42:52Z</time></trkpt><trkpt lat="42.599825" lon="-2.580122"><ele>1241.5</ele><time>2011-11-30T10:42:53Z</time></trkpt><trkpt lat="42.599825" lon="-2.580137"><ele>1242.0</ele><time>2011-11-30T10:42:54Z</time></trkpt><trkpt lat="42.599832" lon="-2.580143"><ele>1242.0</ele><time>2011-11-30T10:42:55Z</time></trkpt><trkpt lat="42.599833" lon="-2.580153"><ele>1241.5</ele><time>2011-11-30T10:42:56Z</time></trkpt><trkpt lat="42.599838" lon="-2.580163"><ele>1241.0</ele><time>2011-11-30T10:42:57Z</time></trkpt><trkpt lat="42.599842" lon="-2.580173"><ele>1241.0</ele><time>2011-11-30T10:42:58Z</time></trkpt><trkpt lat="42.599842" lon="-2.580185"><ele>1241.0</ele><time>2011-11-30T10:42:59Z</time></trkpt><trkpt lat="42.599843" lon="-2.580200"><ele>1241.0</ele><time>2011-11-30T10:43:00Z</time></trkpt><trkpt lat="42.599845" lon="-2.580210"><ele>1240.5</ele><time>2011-11-30T10:43:01Z</time></trkpt><trkpt lat="42.599845" lon="-2.580218"><ele>1240.5</ele><time>2011-11-30T10:43:02Z</time></trkpt><trkpt lat="42.599843" lon="-2.580228"><ele>1241.0</ele><time>2011-11-30T10:43:03Z</time></trkpt><trkpt lat="42.599840" lon="-2.580245"><ele>1241.5</ele><time>2011-11-30T10:43:04Z</time></trkpt><trkpt lat="42.599847" lon="-2.580250"><ele>1241.0</ele><time>2011-11-30T10:43:05Z</time></trkpt><trkpt lat="42.599852" lon="-2.580258"><ele>1241.0</ele><time>2011-11-30T10:43:06Z</time></trkpt><trkpt lat="42.599855" lon="-2.580268"><ele>1240.5</ele><time>2011-11-30T10:43:07Z</time></trkpt><trkpt lat="42.599855" lon="-2.580282"><ele>1240.5</ele><time>2011-11-30T10:43:08Z</time></trkpt><trkpt lat="42.599862" lon="-2.580288"><ele>1240.5</ele><time>2011-11-30T10:43:09Z</time></trkpt><trkpt lat="42.599863" lon="-2.580302"><ele>1240.5</ele><time>2011-11-30T10:43:10Z</time></trkpt><trkpt lat="42.599862" lon="-2.580313"><ele>1241.0</ele><time>2011-11-30T10:43:11Z</time></trkpt><trkpt lat="42.599862" lon="-2.580323"><ele>1241.0</ele><time>2011-11-30T10:43:12Z</time></trkpt><trkpt lat="42.599863" lon="-2.580335"><ele>1241.0</ele><time>2011-11-30T10:43:13Z</time></trkpt><trkpt lat="42.599867" lon="-2.580343"><ele>1241.0</ele><time>2011-11-30T10:43:14Z</time></trkpt><trkpt lat="42.599867" lon="-2.580357"><ele>1241.0</ele><time>2011-11-30T10:43:15Z</time></trkpt><trkpt lat="42.599868" lon="-2.580363"><ele>1241.0</ele><time>2011-11-30T10:43:16Z</time></trkpt><trkpt lat="42.599868" lon="-2.580387"><ele>1241.5</ele><time>2011-11-30T10:43:17Z</time></trkpt><trkpt lat="42.599868" lon="-2.580403"><ele>1241.5</ele><time>2011-11-30T10:43:18Z</time></trkpt><trkpt lat="42.599868" lon="-2.580417"><ele>1242.0</ele><time>2011-11-30T10:43:19Z</time></trkpt><trkpt lat="42.599868" lon="-2.580427"><ele>1242.5</ele><time>2011-11-30T10:43:20Z</time></trkpt><trkpt lat="42.599867" lon="-2.580438"><ele>1242.5</ele><time>2011-11-30T10:43:21Z</time></trkpt><trkpt lat="42.599867" lon="-2.580448"><ele>1243.0</ele><time>2011-11-30T10:43:22Z</time></trkpt><trkpt lat="42.599868" lon="-2.580457"><ele>1243.0</ele><time>2011-11-30T10:43:23Z</time></trkpt><trkpt lat="42.599865" lon="-2.580473"><ele>1243.5</ele><time>2011-11-30T10:43:24Z</time></trkpt><trkpt lat="42.599862" lon="-2.580490"><ele>1244.0</ele><time>2011-11-30T10:43:25Z</time></trkpt><trkpt lat="42.599860" lon="-2.580505"><ele>1244.5</ele><time>2011-11-30T10:43:26Z</time></trkpt><trkpt lat="42.599860" lon="-2.580520"><ele>1245.0</ele><time>2011-11-30T10:43:27Z</time></trkpt><trkpt lat="42.599863" lon="-2.580530"><ele>1245.0</ele><time>2011-11-30T10:43:28Z</time></trkpt><trkpt lat="42.599867" lon="-2.580540"><ele>1245.0</ele><time>2011-11-30T10:43:29Z</time></trkpt><trkpt lat="42.599870" lon="-2.580550"><ele>1244.5</ele><time>2011-11-30T10:43:30Z</time></trkpt><trkpt lat="42.599868" lon="-2.580565"><ele>1245.0</ele><time>2011-11-30T10:43:31Z</time></trkpt><trkpt lat="42.599868" lon="-2.580573"><ele>1245.0</ele><time>2011-11-30T10:43:32Z</time></trkpt><trkpt lat="42.599868" lon="-2.580585"><ele>1245.0</ele><time>2011-11-30T10:43:33Z</time></trkpt><trkpt lat="42.599867" lon="-2.580597"><ele>1245.5</ele><time>2011-11-30T10:43:34Z</time></trkpt><trkpt lat="42.599867" lon="-2.580605"><ele>1245.5</ele><time>2011-11-30T10:43:35Z</time></trkpt><trkpt lat="42.599863" lon="-2.580622"><ele>1246.0</ele><time>2011-11-30T10:43:36Z</time></trkpt><trkpt lat="42.599867" lon="-2.580632"><ele>1245.5</ele><time>2011-11-30T10:43:37Z</time></trkpt><trkpt lat="42.599867" lon="-2.580642"><ele>1245.5</ele><time>2011-11-30T10:43:38Z</time></trkpt><trkpt lat="42.599865" lon="-2.580652"><ele>1246.0</ele><time>2011-11-30T10:43:39Z</time></trkpt><trkpt lat="42.599867" lon="-2.580662"><ele>1246.0</ele><time>2011-11-30T10:43:40Z</time></trkpt><trkpt lat="42.599872" lon="-2.580672"><ele>1246.0</ele><time>2011-11-30T10:43:41Z</time></trkpt><trkpt lat="42.599872" lon="-2.580688"><ele>1246.0</ele><time>2011-11-30T10:43:42Z</time></trkpt><trkpt lat="42.599870" lon="-2.580702"><ele>1246.5</ele><time>2011-11-30T10:43:43Z</time></trkpt><trkpt lat="42.599873" lon="-2.580710"><ele>1246.5</ele><time>2011-11-30T10:43:44Z</time></trkpt><trkpt lat="42.599875" lon="-2.580718"><ele>1247.0</ele><time>2011-11-30T10:43:45Z</time></trkpt><trkpt lat="42.599875" lon="-2.580730"><ele>1247.0</ele><time>2011-11-30T10:43:46Z</time></trkpt><trkpt lat="42.599877" lon="-2.580743"><ele>1247.0</ele><time>2011-11-30T10:43:47Z</time></trkpt><trkpt lat="42.599878" lon="-2.580758"><ele>1247.0</ele><time>2011-11-30T10:43:48Z</time></trkpt><trkpt lat="42.599880" lon="-2.580770"><ele>1247.0</ele><time>2011-11-30T10:43:49Z</time></trkpt><trkpt lat="42.599880" lon="-2.580783"><ele>1247.0</ele><time>2011-11-30T10:43:50Z</time></trkpt><trkpt lat="42.599878" lon="-2.580800"><ele>1247.5</ele><time>2011-11-30T10:43:51Z</time></trkpt><trkpt lat="42.599878" lon="-2.580812"><ele>1247.5</ele><time>2011-11-30T10:43:52Z</time></trkpt><trkpt lat="42.599882" lon="-2.580823"><ele>1247.5</ele><time>2011-11-30T10:43:53Z</time></trkpt><trkpt lat="42.599883" lon="-2.580832"><ele>1247.0</ele><time>2011-11-30T10:43:54Z</time></trkpt><trkpt lat="42.599883" lon="-2.580843"><ele>1247.5</ele><time>2011-11-30T10:43:55Z</time></trkpt><trkpt lat="42.599882" lon="-2.580855"><ele>1247.5</ele><time>2011-11-30T10:43:56Z</time></trkpt><trkpt lat="42.599877" lon="-2.580870"><ele>1248.0</ele><time>2011-11-30T10:43:57Z</time></trkpt><trkpt lat="42.599875" lon="-2.580882"><ele>1248.0</ele><time>2011-11-30T10:43:58Z</time></trkpt><trkpt lat="42.599875" lon="-2.580890"><ele>1248.0</ele><time>2011-11-30T10:43:59Z</time></trkpt><trkpt lat="42.599873" lon="-2.580900"><ele>1248.0</ele><time>2011-11-30T10:44:00Z</time></trkpt><trkpt lat="42.599873" lon="-2.580912"><ele>1248.0</ele><time>2011-11-30T10:44:01Z</time></trkpt><trkpt lat="42.599872" lon="-2.580923"><ele>1248.0</ele><time>2011-11-30T10:44:02Z</time></trkpt><trkpt lat="42.599868" lon="-2.580940"><ele>1248.5</ele><time>2011-11-30T10:44:03Z</time></trkpt><trkpt lat="42.599865" lon="-2.580960"><ele>1249.0</ele><time>2011-11-30T10:44:04Z</time></trkpt><trkpt lat="42.599868" lon="-2.580967"><ele>1248.5</ele><time>2011-11-30T10:44:05Z</time></trkpt><trkpt lat="42.599863" lon="-2.581000"><ele>1249.0</ele><time>2011-11-30T10:44:07Z</time></trkpt><trkpt lat="42.599865" lon="-2.581015"><ele>1249.0</ele><time>2011-11-30T10:44:08Z</time></trkpt><trkpt lat="42.599868" lon="-2.581025"><ele>1249.5</ele><time>2011-11-30T10:44:09Z</time></trkpt><trkpt lat="42.599860" lon="-2.581053"><ele>1251.0</ele><time>2011-11-30T10:44:10Z</time></trkpt><trkpt lat="42.599867" lon="-2.581057"><ele>1251.5</ele><time>2011-11-30T10:44:11Z</time></trkpt><trkpt lat="42.599872" lon="-2.581062"><ele>1251.0</ele><time>2011-11-30T10:44:12Z</time></trkpt><trkpt lat="42.599873" lon="-2.581070"><ele>1250.5</ele><time>2011-11-30T10:44:13Z</time></trkpt><trkpt lat="42.599870" lon="-2.581085"><ele>1250.0</ele><time>2011-11-30T10:44:14Z</time></trkpt><trkpt lat="42.599868" lon="-2.581100"><ele>1249.5</ele><time>2011-11-30T10:44:15Z</time></trkpt><trkpt lat="42.599868" lon="-2.581118"><ele>1250.0</ele><time>2011-11-30T10:44:16Z</time></trkpt><trkpt lat="42.599867" lon="-2.581142"><ele>1250.5</ele><time>2011-11-30T10:44:17Z</time></trkpt><trkpt lat="42.599867" lon="-2.581165"><ele>1251.5</ele><time>2011-11-30T10:44:18Z</time></trkpt><trkpt lat="42.599863" lon="-2.581185"><ele>1252.5</ele><time>2011-11-30T10:44:19Z</time></trkpt><trkpt lat="42.599865" lon="-2.581205"><ele>1253.0</ele><time>2011-11-30T10:44:20Z</time></trkpt><trkpt lat="42.599865" lon="-2.581222"><ele>1253.0</ele><time>2011-11-30T10:44:21Z</time></trkpt><trkpt lat="42.599868" lon="-2.581243"><ele>1253.5</ele><time>2011-11-30T10:44:22Z</time></trkpt><trkpt lat="42.599868" lon="-2.581263"><ele>1254.0</ele><time>2011-11-30T10:44:23Z</time></trkpt><trkpt lat="42.599868" lon="-2.581282"><ele>1254.0</ele><time>2011-11-30T10:44:24Z</time></trkpt><trkpt lat="42.599868" lon="-2.581298"><ele>1253.5</ele><time>2011-11-30T10:44:25Z</time></trkpt><trkpt lat="42.599870" lon="-2.581315"><ele>1253.5</ele><time>2011-11-30T10:44:26Z</time></trkpt><trkpt lat="42.599870" lon="-2.581335"><ele>1254.0</ele><time>2011-11-30T10:44:27Z</time></trkpt><trkpt lat="42.599870" lon="-2.581353"><ele>1254.0</ele><time>2011-11-30T10:44:28Z</time></trkpt><trkpt lat="42.599870" lon="-2.581373"><ele>1254.0</ele><time>2011-11-30T10:44:29Z</time></trkpt><trkpt lat="42.599873" lon="-2.581387"><ele>1253.5</ele><time>2011-11-30T10:44:30Z</time></trkpt><trkpt lat="42.599875" lon="-2.581403"><ele>1253.5</ele><time>2011-11-30T10:44:31Z</time></trkpt><trkpt lat="42.599873" lon="-2.581420"><ele>1253.5</ele><time>2011-11-30T10:44:32Z</time></trkpt><trkpt lat="42.599877" lon="-2.581430"><ele>1253.5</ele><time>2011-11-30T10:44:33Z</time></trkpt><trkpt lat="42.599875" lon="-2.581447"><ele>1253.5</ele><time>2011-11-30T10:44:34Z</time></trkpt><trkpt lat="42.599873" lon="-2.581463"><ele>1253.0</ele><time>2011-11-30T10:44:35Z</time></trkpt><trkpt lat="42.599867" lon="-2.581488"><ele>1253.0</ele><time>2011-11-30T10:44:36Z</time></trkpt><trkpt lat="42.599867" lon="-2.581505"><ele>1252.5</ele><time>2011-11-30T10:44:37Z</time></trkpt><trkpt lat="42.599863" lon="-2.581523"><ele>1252.0</ele><time>2011-11-30T10:44:38Z</time></trkpt><trkpt lat="42.599863" lon="-2.581537"><ele>1251.5</ele><time>2011-11-30T10:44:39Z</time></trkpt><trkpt lat="42.599868" lon="-2.581545"><ele>1251.5</ele><time>2011-11-30T10:44:40Z</time></trkpt><trkpt lat="42.599867" lon="-2.581563"><ele>1251.5</ele><time>2011-11-30T10:44:41Z</time></trkpt><trkpt lat="42.599877" lon="-2.581567"><ele>1250.0</ele><time>2011-11-30T10:44:42Z</time></trkpt><trkpt lat="42.599877" lon="-2.581583"><ele>1249.5</ele><time>2011-11-30T10:44:43Z</time></trkpt><trkpt lat="42.599877" lon="-2.581602"><ele>1249.5</ele><time>2011-11-30T10:44:44Z</time></trkpt><trkpt lat="42.599875" lon="-2.581615"><ele>1249.5</ele><time>2011-11-30T10:44:45Z</time></trkpt><trkpt lat="42.599872" lon="-2.581627"><ele>1249.0</ele><time>2011-11-30T10:44:46Z</time></trkpt><trkpt lat="42.599868" lon="-2.581638"><ele>1249.0</ele><time>2011-11-30T10:44:47Z</time></trkpt><trkpt lat="42.599865" lon="-2.581648"><ele>1248.5</ele><time>2011-11-30T10:44:48Z</time></trkpt><trkpt lat="42.599862" lon="-2.581658"><ele>1248.5</ele><time>2011-11-30T10:44:49Z</time></trkpt><trkpt lat="42.599860" lon="-2.581667"><ele>1248.0</ele><time>2011-11-30T10:44:50Z</time></trkpt><trkpt lat="42.599857" lon="-2.581677"><ele>1247.5</ele><time>2011-11-30T10:44:51Z</time></trkpt><trkpt lat="42.599862" lon="-2.581705"><ele>1247.0</ele><time>2011-11-30T10:44:52Z</time></trkpt><trkpt lat="42.599862" lon="-2.581718"><ele>1247.0</ele><time>2011-11-30T10:44:53Z</time></trkpt><trkpt lat="42.599862" lon="-2.581728"><ele>1246.0</ele><time>2011-11-30T10:44:54Z</time></trkpt><trkpt lat="42.599863" lon="-2.581738"><ele>1245.5</ele><time>2011-11-30T10:44:55Z</time></trkpt><trkpt lat="42.599868" lon="-2.581747"><ele>1245.5</ele><time>2011-11-30T10:44:56Z</time></trkpt><trkpt lat="42.599872" lon="-2.581755"><ele>1245.0</ele><time>2011-11-30T10:44:57Z</time></trkpt><trkpt lat="42.599875" lon="-2.581763"><ele>1245.0</ele><time>2011-11-30T10:44:58Z</time></trkpt><trkpt lat="42.599875" lon="-2.581775"><ele>1244.5</ele><time>2011-11-30T10:44:59Z</time></trkpt><trkpt lat="42.599877" lon="-2.581790"><ele>1245.0</ele><time>2011-11-30T10:45:00Z</time></trkpt><trkpt lat="42.599880" lon="-2.581802"><ele>1245.0</ele><time>2011-11-30T10:45:01Z</time></trkpt><trkpt lat="42.599883" lon="-2.581835"><ele>1245.5</ele><time>2011-11-30T10:45:02Z</time></trkpt><trkpt lat="42.599892" lon="-2.581860"><ele>1244.0</ele><time>2011-11-30T10:45:03Z</time></trkpt><trkpt lat="42.599898" lon="-2.581870"><ele>1243.5</ele><time>2011-11-30T10:45:04Z</time></trkpt><trkpt lat="42.599902" lon="-2.581883"><ele>1242.5</ele><time>2011-11-30T10:45:05Z</time></trkpt><trkpt lat="42.599903" lon="-2.581895"><ele>1243.0</ele><time>2011-11-30T10:45:06Z</time></trkpt><trkpt lat="42.599905" lon="-2.581905"><ele>1242.5</ele><time>2011-11-30T10:45:07Z</time></trkpt><trkpt lat="42.599908" lon="-2.581913"><ele>1242.0</ele><time>2011-11-30T10:45:08Z</time></trkpt><trkpt lat="42.599915" lon="-2.581920"><ele>1241.5</ele><time>2011-11-30T10:45:09Z</time></trkpt><trkpt lat="42.599927" lon="-2.581932"><ele>1240.5</ele><time>2011-11-30T10:45:10Z</time></trkpt><trkpt lat="42.599925" lon="-2.581942"><ele>1240.5</ele><time>2011-11-30T10:45:11Z</time></trkpt><trkpt lat="42.599930" lon="-2.581962"><ele>1240.5</ele><time>2011-11-30T10:45:12Z</time></trkpt><trkpt lat="42.599935" lon="-2.581970"><ele>1240.0</ele><time>2011-11-30T10:45:13Z</time></trkpt><trkpt lat="42.599938" lon="-2.581980"><ele>1239.5</ele><time>2011-11-30T10:45:14Z</time></trkpt><trkpt lat="42.599938" lon="-2.581990"><ele>1239.5</ele><time>2011-11-30T10:45:15Z</time></trkpt><trkpt lat="42.599940" lon="-2.582003"><ele>1239.0</ele><time>2011-11-30T10:45:16Z</time></trkpt><trkpt lat="42.599942" lon="-2.582013"><ele>1239.0</ele><time>2011-11-30T10:45:17Z</time></trkpt><trkpt lat="42.599948" lon="-2.582023"><ele>1238.5</ele><time>2011-11-30T10:45:18Z</time></trkpt><trkpt lat="42.599953" lon="-2.582030"><ele>1238.0</ele><time>2011-11-30T10:45:19Z</time></trkpt><trkpt lat="42.599960" lon="-2.582038"><ele>1237.5</ele><time>2011-11-30T10:45:20Z</time></trkpt><trkpt lat="42.599965" lon="-2.582045"><ele>1237.0</ele><time>2011-11-30T10:45:21Z</time></trkpt><trkpt lat="42.599972" lon="-2.582050"><ele>1236.5</ele><time>2011-11-30T10:45:22Z</time></trkpt><trkpt lat="42.599977" lon="-2.582053"><ele>1236.5</ele><time>2011-11-30T10:45:23Z</time></trkpt><trkpt lat="42.599977" lon="-2.582065"><ele>1236.0</ele><time>2011-11-30T10:45:24Z</time></trkpt><trkpt lat="42.599987" lon="-2.582070"><ele>1235.0</ele><time>2011-11-30T10:45:25Z</time></trkpt><trkpt lat="42.599995" lon="-2.582082"><ele>1234.5</ele><time>2011-11-30T10:45:26Z</time></trkpt><trkpt lat="42.599977" lon="-2.582167"><ele>1241.5</ele><time>2011-11-30T10:45:27Z</time></trkpt><trkpt lat="42.599973" lon="-2.582192"><ele>1243.0</ele><time>2011-11-30T10:45:28Z</time></trkpt><trkpt lat="42.599970" lon="-2.582213"><ele>1245.5</ele><time>2011-11-30T10:45:29Z</time></trkpt><trkpt lat="42.599977" lon="-2.582220"><ele>1245.5</ele><time>2011-11-30T10:45:30Z</time></trkpt><trkpt lat="42.599970" lon="-2.582245"><ele>1247.0</ele><time>2011-11-30T10:45:31Z</time></trkpt><trkpt lat="42.599978" lon="-2.582252"><ele>1246.5</ele><time>2011-11-30T10:45:32Z</time></trkpt><trkpt lat="42.599982" lon="-2.582272"><ele>1246.5</ele><time>2011-11-30T10:45:33Z</time></trkpt><trkpt lat="42.599990" lon="-2.582300"><ele>1247.0</ele><time>2011-11-30T10:45:34Z</time></trkpt><trkpt lat="42.600002" lon="-2.582307"><ele>1247.0</ele><time>2011-11-30T10:45:35Z</time></trkpt><trkpt lat="42.600003" lon="-2.582323"><ele>1247.5</ele><time>2011-11-30T10:45:36Z</time></trkpt><trkpt lat="42.600010" lon="-2.582337"><ele>1248.0</ele><time>2011-11-30T10:45:37Z</time></trkpt><trkpt lat="42.600022" lon="-2.582345"><ele>1248.5</ele><time>2011-11-30T10:45:38Z</time></trkpt><trkpt lat="42.600032" lon="-2.582355"><ele>1248.0</ele><time>2011-11-30T10:45:39Z</time></trkpt><trkpt lat="42.600035" lon="-2.582367"><ele>1247.5</ele><time>2011-11-30T10:45:40Z</time></trkpt><trkpt lat="42.600037" lon="-2.582385"><ele>1247.5</ele><time>2011-11-30T10:45:41Z</time></trkpt><trkpt lat="42.600040" lon="-2.582397"><ele>1247.0</ele><time>2011-11-30T10:45:42Z</time></trkpt><trkpt lat="42.600053" lon="-2.582413"><ele>1246.0</ele><time>2011-11-30T10:45:43Z</time></trkpt><trkpt lat="42.600060" lon="-2.582432"><ele>1245.5</ele><time>2011-11-30T10:45:44Z</time></trkpt><trkpt lat="42.600063" lon="-2.582435"><ele>1245.0</ele><time>2011-11-30T10:45:45Z</time></trkpt><trkpt lat="42.600070" lon="-2.582442"><ele>1244.5</ele><time>2011-11-30T10:45:46Z</time></trkpt><trkpt lat="42.600077" lon="-2.582447"><ele>1245.0</ele><time>2011-11-30T10:45:47Z</time></trkpt><trkpt lat="42.600087" lon="-2.582452"><ele>1246.0</ele><time>2011-11-30T10:45:48Z</time></trkpt><trkpt lat="42.600137" lon="-2.582467"><ele>1246.0</ele><time>2011-11-30T10:45:49Z</time></trkpt><trkpt lat="42.600157" lon="-2.582490"><ele>1246.5</ele><time>2011-11-30T10:45:50Z</time></trkpt><trkpt lat="42.600168" lon="-2.582515"><ele>1246.0</ele><time>2011-11-30T10:45:51Z</time></trkpt><trkpt lat="42.600173" lon="-2.582525"><ele>1246.5</ele><time>2011-11-30T10:45:52Z</time></trkpt><trkpt lat="42.600192" lon="-2.582532"><ele>1248.5</ele><time>2011-11-30T10:45:53Z</time></trkpt><trkpt lat="42.600198" lon="-2.582568"><ele>1256.0</ele><time>2011-11-30T10:45:55Z</time></trkpt><trkpt lat="42.600215" lon="-2.582575"><ele>1255.5</ele><time>2011-11-30T10:45:56Z</time></trkpt><trkpt lat="42.600270" lon="-2.582563"><ele>1255.0</ele><time>2011-11-30T10:45:57Z</time></trkpt><trkpt lat="42.600297" lon="-2.582577"><ele>1259.5</ele><time>2011-11-30T10:45:58Z</time></trkpt><trkpt lat="42.600295" lon="-2.582588"><ele>1260.0</ele><time>2011-11-30T10:45:59Z</time></trkpt><trkpt lat="42.600295" lon="-2.582598"><ele>1258.0</ele><time>2011-11-30T10:46:00Z</time></trkpt><trkpt lat="42.600290" lon="-2.582610"><ele>1257.5</ele><time>2011-11-30T10:46:01Z</time></trkpt><trkpt lat="42.600282" lon="-2.582618"><ele>1257.5</ele><time>2011-11-30T10:46:02Z</time></trkpt><trkpt lat="42.600275" lon="-2.582630"><ele>1257.5</ele><time>2011-11-30T10:46:03Z</time></trkpt><trkpt lat="42.600270" lon="-2.582637"><ele>1257.5</ele><time>2011-11-30T10:46:04Z</time></trkpt><trkpt lat="42.600263" lon="-2.582642"><ele>1258.0</ele><time>2011-11-30T10:46:05Z</time></trkpt><trkpt lat="42.600258" lon="-2.582652"><ele>1257.5</ele><time>2011-11-30T10:46:06Z</time></trkpt><trkpt lat="42.600253" lon="-2.582663"><ele>1256.5</ele><time>2011-11-30T10:46:07Z</time></trkpt><trkpt lat="42.600250" lon="-2.582677"><ele>1255.5</ele><time>2011-11-30T10:46:08Z</time></trkpt><trkpt lat="42.600243" lon="-2.582683"><ele>1255.5</ele><time>2011-11-30T10:46:09Z</time></trkpt><trkpt lat="42.600240" lon="-2.582690"><ele>1256.0</ele><time>2011-11-30T10:46:10Z</time></trkpt><trkpt lat="42.600233" lon="-2.582682"><ele>1261.0</ele><time>2011-11-30T10:46:11Z</time></trkpt><trkpt lat="42.600237" lon="-2.582683"><ele>1260.5</ele><time>2011-11-30T10:46:12Z</time></trkpt><trkpt lat="42.600240" lon="-2.582692"><ele>1261.0</ele><time>2011-11-30T10:46:13Z</time></trkpt><trkpt lat="42.600242" lon="-2.582698"><ele>1261.5</ele><time>2011-11-30T10:46:14Z</time></trkpt><trkpt lat="42.600245" lon="-2.582712"><ele>1261.0</ele><time>2011-11-30T10:46:15Z</time></trkpt><trkpt lat="42.600250" lon="-2.582722"><ele>1260.0</ele><time>2011-11-30T10:46:16Z</time></trkpt><trkpt lat="42.600255" lon="-2.582732"><ele>1259.0</ele><time>2011-11-30T10:46:17Z</time></trkpt><trkpt lat="42.600255" lon="-2.582743"><ele>1259.0</ele><time>2011-11-30T10:46:18Z</time></trkpt><trkpt lat="42.600260" lon="-2.582755"><ele>1258.5</ele><time>2011-11-30T10:46:19Z</time></trkpt><trkpt lat="42.600265" lon="-2.582763"><ele>1258.0</ele><time>2011-11-30T10:46:20Z</time></trkpt><trkpt lat="42.600267" lon="-2.582777"><ele>1258.0</ele><time>2011-11-30T10:46:21Z</time></trkpt><trkpt lat="42.600267" lon="-2.582788"><ele>1257.5</ele><time>2011-11-30T10:46:22Z</time></trkpt><trkpt lat="42.600267" lon="-2.582800"><ele>1256.5</ele><time>2011-11-30T10:46:23Z</time></trkpt><trkpt lat="42.600280" lon="-2.582842"><ele>1255.5</ele><time>2011-11-30T10:46:24Z</time></trkpt><trkpt lat="42.600282" lon="-2.582872"><ele>1255.0</ele><time>2011-11-30T10:46:25Z</time></trkpt><trkpt lat="42.600283" lon="-2.582895"><ele>1255.0</ele><time>2011-11-30T10:46:26Z</time></trkpt><trkpt lat="42.600285" lon="-2.582907"><ele>1255.0</ele><time>2011-11-30T10:46:27Z</time></trkpt><trkpt lat="42.600280" lon="-2.582933"><ele>1257.5</ele><time>2011-11-30T10:46:28Z</time></trkpt><trkpt lat="42.600287" lon="-2.582960"><ele>1254.0</ele><time>2011-11-30T10:46:29Z</time></trkpt><trkpt lat="42.600293" lon="-2.582992"><ele>1251.0</ele><time>2011-11-30T10:46:30Z</time></trkpt><trkpt lat="42.600290" lon="-2.583007"><ele>1252.5</ele><time>2011-11-30T10:46:31Z</time></trkpt><trkpt lat="42.600292" lon="-2.583025"><ele>1252.0</ele><time>2011-11-30T10:46:32Z</time></trkpt><trkpt lat="42.600288" lon="-2.583040"><ele>1252.0</ele><time>2011-11-30T10:46:33Z</time></trkpt><trkpt lat="42.600292" lon="-2.583050"><ele>1252.0</ele><time>2011-11-30T10:46:34Z</time></trkpt><trkpt lat="42.600292" lon="-2.583062"><ele>1252.0</ele><time>2011-11-30T10:46:35Z</time></trkpt><trkpt lat="42.600287" lon="-2.583082"><ele>1253.0</ele><time>2011-11-30T10:46:36Z</time></trkpt><trkpt lat="42.600283" lon="-2.583088"><ele>1254.5</ele><time>2011-11-30T10:46:37Z</time></trkpt><trkpt lat="42.600277" lon="-2.583100"><ele>1254.0</ele><time>2011-11-30T10:46:38Z</time></trkpt><trkpt lat="42.600275" lon="-2.583132"><ele>1256.5</ele><time>2011-11-30T10:46:39Z</time></trkpt><trkpt lat="42.600270" lon="-2.583143"><ele>1258.0</ele><time>2011-11-30T10:46:40Z</time></trkpt><trkpt lat="42.600267" lon="-2.583157"><ele>1257.5</ele><time>2011-11-30T10:46:41Z</time></trkpt><trkpt lat="42.600257" lon="-2.583178"><ele>1258.5</ele><time>2011-11-30T10:46:42Z</time></trkpt><trkpt lat="42.600253" lon="-2.583238"><ele>1259.0</ele><time>2011-11-30T10:46:43Z</time></trkpt><trkpt lat="42.600248" lon="-2.583263"><ele>1258.0</ele><time>2011-11-30T10:46:44Z</time></trkpt><trkpt lat="42.600233" lon="-2.583332"><ele>1258.0</ele><time>2011-11-30T10:46:45Z</time></trkpt><trkpt lat="42.600232" lon="-2.583342"><ele>1258.0</ele><time>2011-11-30T10:46:46Z</time></trkpt><trkpt lat="42.600222" lon="-2.583372"><ele>1258.0</ele><time>2011-11-30T10:46:47Z</time></trkpt><trkpt lat="42.600218" lon="-2.583383"><ele>1258.5</ele><time>2011-11-30T10:46:48Z</time></trkpt><trkpt lat="42.600217" lon="-2.583395"><ele>1258.0</ele><time>2011-11-30T10:46:49Z</time></trkpt><trkpt lat="42.600213" lon="-2.583405"><ele>1258.0</ele><time>2011-11-30T10:46:50Z</time></trkpt><trkpt lat="42.600210" lon="-2.583422"><ele>1260.5</ele><time>2011-11-30T10:46:51Z</time></trkpt><trkpt lat="42.600202" lon="-2.583445"><ele>1260.5</ele><time>2011-11-30T10:46:52Z</time></trkpt><trkpt lat="42.600195" lon="-2.583457"><ele>1264.0</ele><time>2011-11-30T10:46:53Z</time></trkpt><trkpt lat="42.600190" lon="-2.583465"><ele>1265.0</ele><time>2011-11-30T10:46:54Z</time></trkpt><trkpt lat="42.600190" lon="-2.583478"><ele>1266.5</ele><time>2011-11-30T10:46:55Z</time></trkpt><trkpt lat="42.600180" lon="-2.583510"><ele>1268.0</ele><time>2011-11-30T10:46:56Z</time></trkpt><trkpt lat="42.600158" lon="-2.583548"><ele>1269.5</ele><time>2011-11-30T10:46:57Z</time></trkpt><trkpt lat="42.600148" lon="-2.583567"><ele>1271.5</ele><time>2011-11-30T10:46:58Z</time></trkpt><trkpt lat="42.600147" lon="-2.583582"><ele>1271.0</ele><time>2011-11-30T10:46:59Z</time></trkpt><trkpt lat="42.600138" lon="-2.583607"><ele>1272.5</ele><time>2011-11-30T10:47:00Z</time></trkpt><trkpt lat="42.600138" lon="-2.583620"><ele>1273.0</ele><time>2011-11-30T10:47:01Z</time></trkpt><trkpt lat="42.600128" lon="-2.583635"><ele>1273.0</ele><time>2011-11-30T10:47:02Z</time></trkpt><trkpt lat="42.600123" lon="-2.583647"><ele>1273.5</ele><time>2011-11-30T10:47:03Z</time></trkpt><trkpt lat="42.600087" lon="-2.583707"><ele>1276.0</ele><time>2011-11-30T10:47:04Z</time></trkpt><trkpt lat="42.600083" lon="-2.583725"><ele>1275.5</ele><time>2011-11-30T10:47:05Z</time></trkpt><trkpt lat="42.600073" lon="-2.583737"><ele>1275.5</ele><time>2011-11-30T10:47:06Z</time></trkpt><trkpt lat="42.600068" lon="-2.583750"><ele>1275.5</ele><time>2011-11-30T10:47:07Z</time></trkpt><trkpt lat="42.600052" lon="-2.583778"><ele>1276.5</ele><time>2011-11-30T10:47:08Z</time></trkpt><trkpt lat="42.600055" lon="-2.583790"><ele>1275.5</ele><time>2011-11-30T10:47:09Z</time></trkpt><trkpt lat="42.600038" lon="-2.583820"><ele>1276.5</ele><time>2011-11-30T10:47:10Z</time></trkpt><trkpt lat="42.600020" lon="-2.583820"><ele>1276.5</ele><time>2011-11-30T10:47:11Z</time></trkpt><trkpt lat="42.600007" lon="-2.583837"><ele>1276.0</ele><time>2011-11-30T10:47:12Z</time></trkpt><trkpt lat="42.599988" lon="-2.583882"><ele>1277.5</ele><time>2011-11-30T10:47:13Z</time></trkpt><trkpt lat="42.599988" lon="-2.583890"><ele>1278.5</ele><time>2011-11-30T10:47:14Z</time></trkpt><trkpt lat="42.599995" lon="-2.583910"><ele>1277.5</ele><time>2011-11-30T10:47:15Z</time></trkpt><trkpt lat="42.599968" lon="-2.584048"><ele>1277.0</ele><time>2011-11-30T10:47:16Z</time></trkpt><trkpt lat="42.599928" lon="-2.584150"><ele>1285.5</ele><time>2011-11-30T10:47:17Z</time></trkpt><trkpt lat="42.599918" lon="-2.584163"><ele>1289.0</ele><time>2011-11-30T10:47:18Z</time></trkpt><trkpt lat="42.599910" lon="-2.584208"><ele>1287.5</ele><time>2011-11-30T10:47:19Z</time></trkpt><trkpt lat="42.599847" lon="-2.584320"><ele>1290.0</ele><time>2011-11-30T10:47:20Z</time></trkpt><trkpt lat="42.599842" lon="-2.584317"><ele>1292.0</ele><time>2011-11-30T10:47:21Z</time></trkpt><trkpt lat="42.599843" lon="-2.584375"><ele>1286.5</ele><time>2011-11-30T10:47:22Z</time></trkpt><trkpt lat="42.599807" lon="-2.584450"><ele>1289.5</ele><time>2011-11-30T10:47:23Z</time></trkpt><trkpt lat="42.599792" lon="-2.584493"><ele>1286.0</ele><time>2011-11-30T10:47:24Z</time></trkpt><trkpt lat="42.599788" lon="-2.584523"><ele>1281.5</ele><time>2011-11-30T10:47:25Z</time></trkpt><trkpt lat="42.599768" lon="-2.584528"><ele>1282.0</ele><time>2011-11-30T10:47:26Z</time></trkpt><trkpt lat="42.599725" lon="-2.584643"><ele>1286.0</ele><time>2011-11-30T10:47:27Z</time></trkpt><trkpt lat="42.599718" lon="-2.584652"><ele>1288.0</ele><time>2011-11-30T10:47:28Z</time></trkpt><trkpt lat="42.599717" lon="-2.584660"><ele>1288.0</ele><time>2011-11-30T10:47:29Z</time></trkpt><trkpt lat="42.599707" lon="-2.584677"><ele>1289.0</ele><time>2011-11-30T10:47:30Z</time></trkpt><trkpt lat="42.599702" lon="-2.584687"><ele>1291.5</ele><time>2011-11-30T10:47:31Z</time></trkpt><trkpt lat="42.599683" lon="-2.584715"><ele>1291.5</ele><time>2011-11-30T10:47:32Z</time></trkpt><trkpt lat="42.599683" lon="-2.584735"><ele>1289.5</ele><time>2011-11-30T10:47:33Z</time></trkpt><trkpt lat="42.599682" lon="-2.584743"><ele>1288.5</ele><time>2011-11-30T10:47:34Z</time></trkpt><trkpt lat="42.599677" lon="-2.584740"><ele>1290.0</ele><time>2011-11-30T10:47:35Z</time></trkpt><trkpt lat="42.599660" lon="-2.584760"><ele>1294.0</ele><time>2011-11-30T10:47:36Z</time></trkpt><trkpt lat="42.599622" lon="-2.584803"><ele>1297.0</ele><time>2011-11-30T10:47:37Z</time></trkpt><trkpt lat="42.599622" lon="-2.584812"><ele>1297.0</ele><time>2011-11-30T10:47:38Z</time></trkpt><trkpt lat="42.599597" lon="-2.584823"><ele>1301.0</ele><time>2011-11-30T10:47:39Z</time></trkpt><trkpt lat="42.599590" lon="-2.584830"><ele>1301.0</ele><time>2011-11-30T10:47:40Z</time></trkpt><trkpt lat="42.599580" lon="-2.584830"><ele>1301.5</ele><time>2011-11-30T10:47:41Z</time></trkpt><trkpt lat="42.599500" lon="-2.584868"><ele>1308.0</ele><time>2011-11-30T10:47:42Z</time></trkpt><trkpt lat="42.599498" lon="-2.584892"><ele>1305.5</ele><time>2011-11-30T10:47:43Z</time></trkpt><trkpt lat="42.599493" lon="-2.584902"><ele>1305.5</ele><time>2011-11-30T10:47:44Z</time></trkpt><trkpt lat="42.599487" lon="-2.584925"><ele>1304.5</ele><time>2011-11-30T10:47:45Z</time></trkpt><trkpt lat="42.599485" lon="-2.584940"><ele>1303.5</ele><time>2011-11-30T10:47:46Z</time></trkpt><trkpt lat="42.599482" lon="-2.584955"><ele>1301.5</ele><time>2011-11-30T10:47:47Z</time></trkpt><trkpt lat="42.599483" lon="-2.584985"><ele>1297.5</ele><time>2011-11-30T10:47:48Z</time></trkpt><trkpt lat="42.599473" lon="-2.584983"><ele>1297.5</ele><time>2011-11-30T10:47:49Z</time></trkpt><trkpt lat="42.599468" lon="-2.584977"><ele>1299.5</ele><time>2011-11-30T10:47:50Z</time></trkpt><trkpt lat="42.599465" lon="-2.584997"><ele>1297.0</ele><time>2011-11-30T10:47:51Z</time></trkpt><trkpt lat="42.599462" lon="-2.585013"><ele>1295.0</ele><time>2011-11-30T10:47:52Z</time></trkpt><trkpt lat="42.599465" lon="-2.585037"><ele>1293.5</ele><time>2011-11-30T10:47:53Z</time></trkpt><trkpt lat="42.599457" lon="-2.585023"><ele>1295.5</ele><time>2011-11-30T10:47:54Z</time></trkpt><trkpt lat="42.599445" lon="-2.585058"><ele>1300.0</ele><time>2011-11-30T10:47:55Z</time></trkpt><trkpt lat="42.599432" lon="-2.585098"><ele>1300.0</ele><time>2011-11-30T10:47:56Z</time></trkpt><trkpt lat="42.599423" lon="-2.585103"><ele>1300.0</ele><time>2011-11-30T10:47:57Z</time></trkpt><trkpt lat="42.599403" lon="-2.585123"><ele>1302.5</ele><time>2011-11-30T10:47:58Z</time></trkpt><trkpt lat="42.599395" lon="-2.585133"><ele>1302.5</ele><time>2011-11-30T10:47:59Z</time></trkpt><trkpt lat="42.599373" lon="-2.585172"><ele>1304.0</ele><time>2011-11-30T10:48:00Z</time></trkpt><trkpt lat="42.599362" lon="-2.585202"><ele>1302.0</ele><time>2011-11-30T10:48:01Z</time></trkpt><trkpt lat="42.599352" lon="-2.585210"><ele>1303.0</ele><time>2011-11-30T10:48:02Z</time></trkpt><trkpt lat="42.599347" lon="-2.585217"><ele>1303.0</ele><time>2011-11-30T10:48:03Z</time></trkpt><trkpt lat="42.599343" lon="-2.585228"><ele>1303.0</ele><time>2011-11-30T10:48:04Z</time></trkpt><trkpt lat="42.599333" lon="-2.585233"><ele>1304.0</ele><time>2011-11-30T10:48:05Z</time></trkpt><trkpt lat="42.599330" lon="-2.585243"><ele>1304.0</ele><time>2011-11-30T10:48:10Z</time></trkpt><trkpt lat="42.599325" lon="-2.585272"><ele>1301.0</ele><time>2011-11-30T10:48:11Z</time></trkpt><trkpt lat="42.599323" lon="-2.585280"><ele>1300.5</ele><time>2011-11-30T10:48:12Z</time></trkpt><trkpt lat="42.599292" lon="-2.585300"><ele>1309.0</ele><time>2011-11-30T10:48:13Z</time></trkpt><trkpt lat="42.599293" lon="-2.585323"><ele>1308.0</ele><time>2011-11-30T10:48:14Z</time></trkpt><trkpt lat="42.599267" lon="-2.585402"><ele>1308.0</ele><time>2011-11-30T10:48:15Z</time></trkpt><trkpt lat="42.599267" lon="-2.585415"><ele>1308.5</ele><time>2011-11-30T10:48:16Z</time></trkpt><trkpt lat="42.599262" lon="-2.585437"><ele>1308.5</ele><time>2011-11-30T10:48:17Z</time></trkpt><trkpt lat="42.599248" lon="-2.585473"><ele>1308.5</ele><time>2011-11-30T10:48:18Z</time></trkpt><trkpt lat="42.599247" lon="-2.585537"><ele>1306.0</ele><time>2011-11-30T10:48:19Z</time></trkpt><trkpt lat="42.599245" lon="-2.585562"><ele>1304.5</ele><time>2011-11-30T10:48:20Z</time></trkpt><trkpt lat="42.599242" lon="-2.585590"><ele>1307.0</ele><time>2011-11-30T10:48:21Z</time></trkpt><trkpt lat="42.599240" lon="-2.585630"><ele>1305.5</ele><time>2011-11-30T10:48:22Z</time></trkpt><trkpt lat="42.599248" lon="-2.585642"><ele>1305.0</ele><time>2011-11-30T10:48:23Z</time></trkpt><trkpt lat="42.599257" lon="-2.585653"><ele>1305.0</ele><time>2011-11-30T10:48:24Z</time></trkpt><trkpt lat="42.599298" lon="-2.585750"><ele>1301.5</ele><time>2011-11-30T10:48:25Z</time></trkpt><trkpt lat="42.599310" lon="-2.585758"><ele>1301.0</ele><time>2011-11-30T10:48:26Z</time></trkpt><trkpt lat="42.599317" lon="-2.585768"><ele>1301.5</ele><time>2011-11-30T10:48:27Z</time></trkpt><trkpt lat="42.599305" lon="-2.585825"><ele>1307.0</ele><time>2011-11-30T10:48:28Z</time></trkpt><trkpt lat="42.599282" lon="-2.585857"><ele>1311.0</ele><time>2011-11-30T10:48:29Z</time></trkpt><trkpt lat="42.599268" lon="-2.585867"><ele>1314.5</ele><time>2011-11-30T10:48:30Z</time></trkpt><trkpt lat="42.599260" lon="-2.585875"><ele>1315.5</ele><time>2011-11-30T10:48:31Z</time></trkpt><trkpt lat="42.599253" lon="-2.585877"><ele>1316.5</ele><time>2011-11-30T10:48:32Z</time></trkpt><trkpt lat="42.599247" lon="-2.585880"><ele>1316.5</ele><time>2011-11-30T10:48:33Z</time></trkpt><trkpt lat="42.599240" lon="-2.585890"><ele>1315.5</ele><time>2011-11-30T10:48:34Z</time></trkpt><trkpt lat="42.599235" lon="-2.585897"><ele>1315.5</ele><time>2011-11-30T10:48:35Z</time></trkpt><trkpt lat="42.599227" lon="-2.585908"><ele>1316.0</ele><time>2011-11-30T10:48:36Z</time></trkpt><trkpt lat="42.599217" lon="-2.585922"><ele>1315.0</ele><time>2011-11-30T10:48:37Z</time></trkpt><trkpt lat="42.599215" lon="-2.585930"><ele>1314.5</ele><time>2011-11-30T10:48:38Z</time></trkpt><trkpt lat="42.599212" lon="-2.585937"><ele>1314.0</ele><time>2011-11-30T10:48:39Z</time></trkpt><trkpt lat="42.599198" lon="-2.585948"><ele>1313.5</ele><time>2011-11-30T10:48:40Z</time></trkpt><trkpt lat="42.599195" lon="-2.585953"><ele>1312.5</ele><time>2011-11-30T10:48:41Z</time></trkpt><trkpt lat="42.599190" lon="-2.585958"><ele>1312.5</ele><time>2011-11-30T10:48:42Z</time></trkpt><trkpt lat="42.599190" lon="-2.585973"><ele>1311.0</ele><time>2011-11-30T10:48:43Z</time></trkpt><trkpt lat="42.599198" lon="-2.585998"><ele>1314.0</ele><time>2011-11-30T10:48:44Z</time></trkpt><trkpt lat="42.599220" lon="-2.586035"><ele>1314.0</ele><time>2011-11-30T10:48:45Z</time></trkpt><trkpt lat="42.599218" lon="-2.586060"><ele>1316.5</ele><time>2011-11-30T10:48:46Z</time></trkpt><trkpt lat="42.599227" lon="-2.586050"><ele>1317.5</ele><time>2011-11-30T10:48:47Z</time></trkpt><trkpt lat="42.599238" lon="-2.586052"><ele>1320.0</ele><time>2011-11-30T10:48:48Z</time></trkpt><trkpt lat="42.599233" lon="-2.586067"><ele>1320.0</ele><time>2011-11-30T10:48:49Z</time></trkpt><trkpt lat="42.599250" lon="-2.586102"><ele>1317.0</ele><time>2011-11-30T10:48:50Z</time></trkpt><trkpt lat="42.599258" lon="-2.586123"><ele>1316.0</ele><time>2011-11-30T10:48:51Z</time></trkpt><trkpt lat="42.599267" lon="-2.586133"><ele>1314.0</ele><time>2011-11-30T10:48:52Z</time></trkpt><trkpt lat="42.599275" lon="-2.586148"><ele>1316.5</ele><time>2011-11-30T10:48:53Z</time></trkpt><trkpt lat="42.599303" lon="-2.586175"><ele>1312.0</ele><time>2011-11-30T10:48:54Z</time></trkpt><trkpt lat="42.599323" lon="-2.586225"><ele>1308.0</ele><time>2011-11-30T10:48:55Z</time></trkpt><trkpt lat="42.599313" lon="-2.586258"><ele>1308.0</ele><time>2011-11-30T10:48:56Z</time></trkpt><trkpt lat="42.599317" lon="-2.586287"><ele>1308.0</ele><time>2011-11-30T10:48:58Z</time></trkpt><trkpt lat="42.599325" lon="-2.586327"><ele>1320.5</ele><time>2011-11-30T10:48:59Z</time></trkpt><trkpt lat="42.599328" lon="-2.586362"><ele>1318.0</ele><time>2011-11-30T10:49:00Z</time></trkpt><trkpt lat="42.599412" lon="-2.586438"><ele>1321.0</ele><time>2011-11-30T10:49:01Z</time></trkpt><trkpt lat="42.599413" lon="-2.586437"><ele>1325.5</ele><time>2011-11-30T10:49:02Z</time></trkpt><trkpt lat="42.599408" lon="-2.586430"><ele>1334.5</ele><time>2011-11-30T10:49:03Z</time></trkpt><trkpt lat="42.599410" lon="-2.586442"><ele>1333.5</ele><time>2011-11-30T10:49:04Z</time></trkpt><trkpt lat="42.599402" lon="-2.586427"><ele>1338.0</ele><time>2011-11-30T10:49:05Z</time></trkpt><trkpt lat="42.599400" lon="-2.586437"><ele>1337.5</ele><time>2011-11-30T10:49:06Z</time></trkpt><trkpt lat="42.599400" lon="-2.586447"><ele>1336.5</ele><time>2011-11-30T10:49:07Z</time></trkpt><trkpt lat="42.599400" lon="-2.586453"><ele>1337.5</ele><time>2011-11-30T10:49:08Z</time></trkpt><trkpt lat="42.599378" lon="-2.586468"><ele>1342.0</ele><time>2011-11-30T10:49:09Z</time></trkpt><trkpt lat="42.599375" lon="-2.586477"><ele>1342.0</ele><time>2011-11-30T10:49:10Z</time></trkpt><trkpt lat="42.599370" lon="-2.586483"><ele>1343.0</ele><time>2011-11-30T10:49:11Z</time></trkpt><trkpt lat="42.599367" lon="-2.586500"><ele>1343.0</ele><time>2011-11-30T10:49:12Z</time></trkpt><trkpt lat="42.599365" lon="-2.586512"><ele>1342.0</ele><time>2011-11-30T10:49:13Z</time></trkpt><trkpt lat="42.599335" lon="-2.586510"><ele>1357.5</ele><time>2011-11-30T10:49:14Z</time></trkpt><trkpt lat="42.599340" lon="-2.586513"><ele>1358.0</ele><time>2011-11-30T10:49:15Z</time></trkpt><trkpt lat="42.599350" lon="-2.586513"><ele>1357.5</ele><time>2011-11-30T10:49:16Z</time></trkpt><trkpt lat="42.599333" lon="-2.586563"><ele>1360.0</ele><time>2011-11-30T10:49:17Z</time></trkpt><trkpt lat="42.599328" lon="-2.586567"><ele>1360.5</ele><time>2011-11-30T10:49:18Z</time></trkpt><trkpt lat="42.599307" lon="-2.586582"><ele>1366.0</ele><time>2011-11-30T10:49:19Z</time></trkpt><trkpt lat="42.599297" lon="-2.586595"><ele>1366.5</ele><time>2011-11-30T10:49:20Z</time></trkpt><trkpt lat="42.599282" lon="-2.586630"><ele>1365.5</ele><time>2011-11-30T10:49:21Z</time></trkpt><trkpt lat="42.599280" lon="-2.586720"><ele>1359.5</ele><time>2011-11-30T10:49:22Z</time></trkpt><trkpt lat="42.599278" lon="-2.586822"><ele>1355.5</ele><time>2011-11-30T10:49:23Z</time></trkpt><trkpt lat="42.599292" lon="-2.586837"><ele>1353.5</ele><time>2011-11-30T10:49:24Z</time></trkpt><trkpt lat="42.599295" lon="-2.586850"><ele>1352.5</ele><time>2011-11-30T10:49:25Z</time></trkpt><trkpt lat="42.599302" lon="-2.586858"><ele>1351.5</ele><time>2011-11-30T10:49:26Z</time></trkpt><trkpt lat="42.599297" lon="-2.586897"><ele>1351.5</ele><time>2011-11-30T10:49:27Z</time></trkpt><trkpt lat="42.599283" lon="-2.586910"><ele>1354.5</ele><time>2011-11-30T10:49:28Z</time></trkpt><trkpt lat="42.599273" lon="-2.586947"><ele>1351.0</ele><time>2011-11-30T10:49:29Z</time></trkpt><trkpt lat="42.599275" lon="-2.586970"><ele>1348.5</ele><time>2011-11-30T10:49:30Z</time></trkpt><trkpt lat="42.599265" lon="-2.587018"><ele>1349.5</ele><time>2011-11-30T10:49:31Z</time></trkpt><trkpt lat="42.599240" lon="-2.587102"><ele>1355.0</ele><time>2011-11-30T10:49:32Z</time></trkpt><trkpt lat="42.599238" lon="-2.587135"><ele>1353.0</ele><time>2011-11-30T10:49:33Z</time></trkpt><trkpt lat="42.599240" lon="-2.587145"><ele>1352.5</ele><time>2011-11-30T10:49:34Z</time></trkpt><trkpt lat="42.599240" lon="-2.587212"><ele>1365.5</ele><time>2011-11-30T10:49:35Z</time></trkpt><trkpt lat="42.599240" lon="-2.587230"><ele>1366.0</ele><time>2011-11-30T10:49:36Z</time></trkpt><trkpt lat="42.599227" lon="-2.587242"><ele>1365.5</ele><time>2011-11-30T10:49:37Z</time></trkpt><trkpt lat="42.599212" lon="-2.587250"><ele>1371.5</ele><time>2011-11-30T10:49:38Z</time></trkpt><trkpt lat="42.599158" lon="-2.587270"><ele>1381.5</ele><time>2011-11-30T10:49:39Z</time></trkpt><trkpt lat="42.599148" lon="-2.587277"><ele>1382.0</ele><time>2011-11-30T10:49:40Z</time></trkpt><trkpt lat="42.599142" lon="-2.587283"><ele>1383.0</ele><time>2011-11-30T10:49:41Z</time></trkpt><trkpt lat="42.599125" lon="-2.587362"><ele>1378.0</ele><time>2011-11-30T10:49:42Z</time></trkpt><trkpt lat="42.599132" lon="-2.587373"><ele>1378.5</ele><time>2011-11-30T10:49:43Z</time></trkpt><trkpt lat="42.599112" lon="-2.587425"><ele>1380.0</ele><time>2011-11-30T10:49:44Z</time></trkpt><trkpt lat="42.599112" lon="-2.587440"><ele>1379.5</ele><time>2011-11-30T10:49:45Z</time></trkpt><trkpt lat="42.599117" lon="-2.587457"><ele>1378.0</ele><time>2011-11-30T10:49:46Z</time></trkpt><trkpt lat="42.599108" lon="-2.587472"><ele>1378.5</ele><time>2011-11-30T10:49:47Z</time></trkpt><trkpt lat="42.599098" lon="-2.587478"><ele>1379.5</ele><time>2011-11-30T10:49:48Z</time></trkpt><trkpt lat="42.599097" lon="-2.587490"><ele>1378.5</ele><time>2011-11-30T10:49:49Z</time></trkpt><trkpt lat="42.599083" lon="-2.587522"><ele>1381.5</ele><time>2011-11-30T10:49:50Z</time></trkpt><trkpt lat="42.599088" lon="-2.587540"><ele>1380.5</ele><time>2011-11-30T10:49:51Z</time></trkpt><trkpt lat="42.599080" lon="-2.587555"><ele>1381.5</ele><time>2011-11-30T10:49:52Z</time></trkpt><trkpt lat="42.599070" lon="-2.587578"><ele>1381.5</ele><time>2011-11-30T10:49:53Z</time></trkpt><trkpt lat="42.599065" lon="-2.587597"><ele>1381.0</ele><time>2011-11-30T10:49:54Z</time></trkpt><trkpt lat="42.599052" lon="-2.587610"><ele>1382.5</ele><time>2011-11-30T10:49:55Z</time></trkpt><trkpt lat="42.599050" lon="-2.587618"><ele>1381.5</ele><time>2011-11-30T10:49:56Z</time></trkpt><trkpt lat="42.599045" lon="-2.587623"><ele>1381.0</ele><time>2011-11-30T10:49:57Z</time></trkpt><trkpt lat="42.599042" lon="-2.587628"><ele>1380.5</ele><time>2011-11-30T10:49:58Z</time></trkpt><trkpt lat="42.599038" lon="-2.587635"><ele>1379.5</ele><time>2011-11-30T10:49:59Z</time></trkpt><trkpt lat="42.599035" lon="-2.587648"><ele>1377.5</ele><time>2011-11-30T10:50:00Z</time></trkpt><trkpt lat="42.599030" lon="-2.587653"><ele>1377.5</ele><time>2011-11-30T10:50:01Z</time></trkpt><trkpt lat="42.599000" lon="-2.587662"><ele>1383.0</ele><time>2011-11-30T10:50:02Z</time></trkpt><trkpt lat="42.598997" lon="-2.587685"><ele>1382.5</ele><time>2011-11-30T10:50:03Z</time></trkpt><trkpt lat="42.598990" lon="-2.587718"><ele>1385.0</ele><time>2011-11-30T10:50:04Z</time></trkpt><trkpt lat="42.599000" lon="-2.587702"><ele>1385.5</ele><time>2011-11-30T10:50:05Z</time></trkpt><trkpt lat="42.599025" lon="-2.587770"><ele>1378.5</ele><time>2011-11-30T10:50:06Z</time></trkpt><trkpt lat="42.599033" lon="-2.587787"><ele>1377.0</ele><time>2011-11-30T10:50:07Z</time></trkpt><trkpt lat="42.599042" lon="-2.587802"><ele>1378.0</ele><time>2011-11-30T10:50:08Z</time></trkpt><trkpt lat="42.599040" lon="-2.587822"><ele>1379.5</ele><time>2011-11-30T10:50:09Z</time></trkpt><trkpt lat="42.599033" lon="-2.587865"><ele>1379.5</ele><time>2011-11-30T10:50:10Z</time></trkpt><trkpt lat="42.599007" lon="-2.587882"><ele>1387.0</ele><time>2011-11-30T10:50:11Z</time></trkpt><trkpt lat="42.599000" lon="-2.587893"><ele>1388.0</ele><time>2011-11-30T10:50:12Z</time></trkpt><trkpt lat="42.598997" lon="-2.587903"><ele>1387.5</ele><time>2011-11-30T10:50:13Z</time></trkpt><trkpt lat="42.598982" lon="-2.587937"><ele>1385.5</ele><time>2011-11-30T10:50:14Z</time></trkpt><trkpt lat="42.598980" lon="-2.587948"><ele>1384.5</ele><time>2011-11-30T10:50:15Z</time></trkpt><trkpt lat="42.598970" lon="-2.587958"><ele>1386.0</ele><time>2011-11-30T10:50:16Z</time></trkpt><trkpt lat="42.598968" lon="-2.587980"><ele>1385.5</ele><time>2011-11-30T10:50:17Z</time></trkpt><trkpt lat="42.599028" lon="-2.588097"><ele>1377.5</ele><time>2011-11-30T10:50:18Z</time></trkpt><trkpt lat="42.599025" lon="-2.588177"><ele>1376.0</ele><time>2011-11-30T10:50:19Z</time></trkpt><trkpt lat="42.599027" lon="-2.588187"><ele>1375.0</ele><time>2011-11-30T10:50:20Z</time></trkpt><trkpt lat="42.599013" lon="-2.588125"><ele>1400.5</ele><time>2011-11-30T10:50:21Z</time></trkpt><trkpt lat="42.599043" lon="-2.588223"><ele>1399.0</ele><time>2011-11-30T10:50:22Z</time></trkpt><trkpt lat="42.599050" lon="-2.588242"><ele>1397.5</ele><time>2011-11-30T10:50:23Z</time></trkpt><trkpt lat="42.599055" lon="-2.588255"><ele>1399.0</ele><time>2011-11-30T10:50:24Z</time></trkpt><trkpt lat="42.599077" lon="-2.588273"><ele>1400.0</ele><time>2011-11-30T10:50:25Z</time></trkpt><trkpt lat="42.599085" lon="-2.588298"><ele>1399.5</ele><time>2011-11-30T10:50:26Z</time></trkpt><trkpt lat="42.599130" lon="-2.588297"><ele>1405.0</ele><time>2011-11-30T10:50:27Z</time></trkpt><trkpt lat="42.599142" lon="-2.588283"><ele>1408.5</ele><time>2011-11-30T10:50:28Z</time></trkpt><trkpt lat="42.599153" lon="-2.588275"><ele>1410.5</ele><time>2011-11-30T10:50:29Z</time></trkpt><trkpt lat="42.599175" lon="-2.588265"><ele>1411.0</ele><time>2011-11-30T10:50:30Z</time></trkpt><trkpt lat="42.599210" lon="-2.588213"><ele>1412.0</ele><time>2011-11-30T10:50:31Z</time></trkpt><trkpt lat="42.599225" lon="-2.588198"><ele>1415.0</ele><time>2011-11-30T10:50:32Z</time></trkpt><trkpt lat="42.599230" lon="-2.588195"><ele>1416.0</ele><time>2011-11-30T10:50:33Z</time></trkpt><trkpt lat="42.599237" lon="-2.588193"><ele>1417.0</ele><time>2011-11-30T10:50:34Z</time></trkpt><trkpt lat="42.599262" lon="-2.588243"><ele>1419.5</ele><time>2011-11-30T10:50:35Z</time></trkpt><trkpt lat="42.599252" lon="-2.588282"><ele>1420.0</ele><time>2011-11-30T10:50:36Z</time></trkpt><trkpt lat="42.599237" lon="-2.588303"><ele>1421.0</ele><time>2011-11-30T10:50:37Z</time></trkpt><trkpt lat="42.599233" lon="-2.588313"><ele>1421.0</ele><time>2011-11-30T10:50:38Z</time></trkpt><trkpt lat="42.599245" lon="-2.588297"><ele>1421.0</ele><time>2011-11-30T10:50:39Z</time></trkpt><trkpt lat="42.599245" lon="-2.588317"><ele>1420.0</ele><time>2011-11-30T10:50:40Z</time></trkpt><trkpt lat="42.599257" lon="-2.588343"><ele>1415.5</ele><time>2011-11-30T10:50:41Z</time></trkpt><trkpt lat="42.599275" lon="-2.588420"><ele>1409.5</ele><time>2011-11-30T10:50:42Z</time></trkpt><trkpt lat="42.599285" lon="-2.588420"><ele>1409.5</ele><time>2011-11-30T10:50:43Z</time></trkpt><trkpt lat="42.599303" lon="-2.588438"><ele>1405.5</ele><time>2011-11-30T10:50:44Z</time></trkpt><trkpt lat="42.599295" lon="-2.588433"><ele>1407.5</ele><time>2011-11-30T10:50:45Z</time></trkpt><trkpt lat="42.599292" lon="-2.588455"><ele>1410.5</ele><time>2011-11-30T10:50:46Z</time></trkpt><trkpt lat="42.599292" lon="-2.588463"><ele>1410.5</ele><time>2011-11-30T10:50:47Z</time></trkpt><trkpt lat="42.599277" lon="-2.588458"><ele>1418.0</ele><time>2011-11-30T10:50:48Z</time></trkpt><trkpt lat="42.599260" lon="-2.588502"><ele>1418.0</ele><time>2011-11-30T10:50:49Z</time></trkpt><trkpt lat="42.599263" lon="-2.588512"><ele>1417.5</ele><time>2011-11-30T10:50:50Z</time></trkpt><trkpt lat="42.599263" lon="-2.588518"><ele>1417.5</ele><time>2011-11-30T10:50:51Z</time></trkpt><trkpt lat="42.599263" lon="-2.588527"><ele>1416.5</ele><time>2011-11-30T10:50:52Z</time></trkpt><trkpt lat="42.599250" lon="-2.588538"><ele>1417.5</ele><time>2011-11-30T10:50:53Z</time></trkpt><trkpt lat="42.599245" lon="-2.588548"><ele>1417.0</ele><time>2011-11-30T10:50:54Z</time></trkpt><trkpt lat="42.599245" lon="-2.588557"><ele>1416.0</ele><time>2011-11-30T10:50:55Z</time></trkpt><trkpt lat="42.599243" lon="-2.588565"><ele>1415.5</ele><time>2011-11-30T10:50:56Z</time></trkpt><trkpt lat="42.599243" lon="-2.588575"><ele>1415.0</ele><time>2011-11-30T10:50:57Z</time></trkpt><trkpt lat="42.599237" lon="-2.588560"><ele>1420.0</ele><time>2011-11-30T10:50:58Z</time></trkpt><trkpt lat="42.599230" lon="-2.588562"><ele>1420.5</ele><time>2011-11-30T10:50:59Z</time></trkpt><trkpt lat="42.599223" lon="-2.588560"><ele>1422.0</ele><time>2011-11-30T10:51:00Z</time></trkpt><trkpt lat="42.599223" lon="-2.588590"><ele>1419.5</ele><time>2011-11-30T10:51:01Z</time></trkpt><trkpt lat="42.599233" lon="-2.588610"><ele>1417.0</ele><time>2011-11-30T10:51:02Z</time></trkpt><trkpt lat="42.599245" lon="-2.588613"><ele>1416.0</ele><time>2011-11-30T10:51:03Z</time></trkpt><trkpt lat="42.599238" lon="-2.588622"><ele>1417.0</ele><time>2011-11-30T10:51:04Z</time></trkpt><trkpt lat="42.599233" lon="-2.588638"><ele>1417.5</ele><time>2011-11-30T10:51:05Z</time></trkpt><trkpt lat="42.599232" lon="-2.588648"><ele>1417.5</ele><time>2011-11-30T10:51:06Z</time></trkpt><trkpt lat="42.599232" lon="-2.588660"><ele>1417.5</ele><time>2011-11-30T10:51:07Z</time></trkpt><trkpt lat="42.599247" lon="-2.588707"><ele>1414.5</ele><time>2011-11-30T10:51:08Z</time></trkpt><trkpt lat="42.599255" lon="-2.588712"><ele>1413.0</ele><time>2011-11-30T10:51:09Z</time></trkpt><trkpt lat="42.599258" lon="-2.588720"><ele>1413.0</ele><time>2011-11-30T10:51:10Z</time></trkpt><trkpt lat="42.599258" lon="-2.588747"><ele>1414.5</ele><time>2011-11-30T10:51:11Z</time></trkpt><trkpt lat="42.599215" lon="-2.588798"><ele>1423.0</ele><time>2011-11-30T10:51:13Z</time></trkpt><trkpt lat="42.599197" lon="-2.588825"><ele>1425.5</ele><time>2011-11-30T10:51:14Z</time></trkpt><trkpt lat="42.599202" lon="-2.588865"><ele>1422.5</ele><time>2011-11-30T10:51:15Z</time></trkpt><trkpt lat="42.599198" lon="-2.588880"><ele>1422.5</ele><time>2011-11-30T10:51:16Z</time></trkpt><trkpt lat="42.599193" lon="-2.588897"><ele>1422.5</ele><time>2011-11-30T10:51:17Z</time></trkpt><trkpt lat="42.599187" lon="-2.588913"><ele>1422.5</ele><time>2011-11-30T10:51:18Z</time></trkpt><trkpt lat="42.599180" lon="-2.588925"><ele>1423.0</ele><time>2011-11-30T10:51:19Z</time></trkpt><trkpt lat="42.599178" lon="-2.588945"><ele>1421.5</ele><time>2011-11-30T10:51:20Z</time></trkpt><trkpt lat="42.599175" lon="-2.588960"><ele>1422.0</ele><time>2011-11-30T10:51:21Z</time></trkpt><trkpt lat="42.599168" lon="-2.588977"><ele>1423.0</ele><time>2011-11-30T10:51:22Z</time></trkpt><trkpt lat="42.599163" lon="-2.588992"><ele>1423.0</ele><time>2011-11-30T10:51:23Z</time></trkpt><trkpt lat="42.599162" lon="-2.589002"><ele>1423.5</ele><time>2011-11-30T10:51:24Z</time></trkpt><trkpt lat="42.599160" lon="-2.589012"><ele>1424.0</ele><time>2011-11-30T10:51:25Z</time></trkpt><trkpt lat="42.599157" lon="-2.589022"><ele>1424.0</ele><time>2011-11-30T10:51:26Z</time></trkpt><trkpt lat="42.599155" lon="-2.589040"><ele>1424.0</ele><time>2011-11-30T10:51:27Z</time></trkpt><trkpt lat="42.599157" lon="-2.589048"><ele>1424.0</ele><time>2011-11-30T10:51:28Z</time></trkpt><trkpt lat="42.599157" lon="-2.589057"><ele>1424.5</ele><time>2011-11-30T10:51:29Z</time></trkpt><trkpt lat="42.599158" lon="-2.589068"><ele>1424.5</ele><time>2011-11-30T10:51:30Z</time></trkpt><trkpt lat="42.599160" lon="-2.589080"><ele>1425.0</ele><time>2011-11-30T10:51:31Z</time></trkpt><trkpt lat="42.599160" lon="-2.589105"><ele>1425.5</ele><time>2011-11-30T10:51:32Z</time></trkpt><trkpt lat="42.599157" lon="-2.589117"><ele>1425.5</ele><time>2011-11-30T10:51:33Z</time></trkpt><trkpt lat="42.599155" lon="-2.589133"><ele>1426.5</ele><time>2011-11-30T10:51:34Z</time></trkpt><trkpt lat="42.599157" lon="-2.589162"><ele>1428.5</ele><time>2011-11-30T10:51:35Z</time></trkpt><trkpt lat="42.599163" lon="-2.589163"><ele>1428.0</ele><time>2011-11-30T10:51:36Z</time></trkpt><trkpt lat="42.599167" lon="-2.589180"><ele>1428.5</ele><time>2011-11-30T10:51:37Z</time></trkpt><trkpt lat="42.599173" lon="-2.589228"><ele>1431.5</ele><time>2011-11-30T10:51:38Z</time></trkpt><trkpt lat="42.599183" lon="-2.589260"><ele>1434.5</ele><time>2011-11-30T10:51:39Z</time></trkpt><trkpt lat="42.599188" lon="-2.589370"><ele>1438.5</ele><time>2011-11-30T10:51:40Z</time></trkpt><trkpt lat="42.599187" lon="-2.589378"><ele>1439.0</ele><time>2011-11-30T10:51:41Z</time></trkpt><trkpt lat="42.599207" lon="-2.589420"><ele>1439.5</ele><time>2011-11-30T10:51:42Z</time></trkpt><trkpt lat="42.599210" lon="-2.589437"><ele>1440.0</ele><time>2011-11-30T10:51:43Z</time></trkpt><trkpt lat="42.599227" lon="-2.589497"><ele>1442.0</ele><time>2011-11-30T10:51:44Z</time></trkpt><trkpt lat="42.599225" lon="-2.589513"><ele>1442.0</ele><time>2011-11-30T10:51:45Z</time></trkpt><trkpt lat="42.599225" lon="-2.589523"><ele>1442.0</ele><time>2011-11-30T10:51:46Z</time></trkpt><trkpt lat="42.599227" lon="-2.589537"><ele>1443.0</ele><time>2011-11-30T10:51:47Z</time></trkpt><trkpt lat="42.599225" lon="-2.589548"><ele>1442.5</ele><time>2011-11-30T10:51:48Z</time></trkpt><trkpt lat="42.599233" lon="-2.589580"><ele>1442.5</ele><time>2011-11-30T10:51:49Z</time></trkpt><trkpt lat="42.599233" lon="-2.589597"><ele>1443.0</ele><time>2011-11-30T10:51:50Z</time></trkpt><trkpt lat="42.599233" lon="-2.589630"><ele>1444.0</ele><time>2011-11-30T10:51:51Z</time></trkpt><trkpt lat="42.599253" lon="-2.589670"><ele>1445.5</ele><time>2011-11-30T10:51:52Z</time></trkpt><trkpt lat="42.599257" lon="-2.589688"><ele>1445.5</ele><time>2011-11-30T10:51:53Z</time></trkpt><trkpt lat="42.599255" lon="-2.589698"><ele>1446.0</ele><time>2011-11-30T10:51:54Z</time></trkpt><trkpt lat="42.599255" lon="-2.589708"><ele>1446.5</ele><time>2011-11-30T10:51:55Z</time></trkpt><trkpt lat="42.599250" lon="-2.589727"><ele>1448.0</ele><time>2011-11-30T10:51:56Z</time></trkpt><trkpt lat="42.599250" lon="-2.589738"><ele>1448.0</ele><time>2011-11-30T10:51:57Z</time></trkpt><trkpt lat="42.599235" lon="-2.589785"><ele>1449.5</ele><time>2011-11-30T10:51:58Z</time></trkpt><trkpt lat="42.599233" lon="-2.589793"><ele>1449.5</ele><time>2011-11-30T10:51:59Z</time></trkpt><trkpt lat="42.599232" lon="-2.589810"><ele>1450.0</ele><time>2011-11-30T10:52:00Z</time></trkpt><trkpt lat="42.599237" lon="-2.589818"><ele>1450.5</ele><time>2011-11-30T10:52:01Z</time></trkpt><trkpt lat="42.599238" lon="-2.589827"><ele>1450.5</ele><time>2011-11-30T10:52:02Z</time></trkpt><trkpt lat="42.599245" lon="-2.589843"><ele>1450.5</ele><time>2011-11-30T10:52:03Z</time></trkpt><trkpt lat="42.599243" lon="-2.589888"><ele>1451.0</ele><time>2011-11-30T10:52:04Z</time></trkpt><trkpt lat="42.599240" lon="-2.589897"><ele>1451.5</ele><time>2011-11-30T10:52:05Z</time></trkpt><trkpt lat="42.599235" lon="-2.589940"><ele>1452.0</ele><time>2011-11-30T10:52:06Z</time></trkpt><trkpt lat="42.599235" lon="-2.589953"><ele>1451.5</ele><time>2011-11-30T10:52:07Z</time></trkpt><trkpt lat="42.599228" lon="-2.589972"><ele>1451.5</ele><time>2011-11-30T10:52:08Z</time></trkpt><trkpt lat="42.599222" lon="-2.589980"><ele>1452.0</ele><time>2011-11-30T10:52:09Z</time></trkpt><trkpt lat="42.599220" lon="-2.590000"><ele>1452.5</ele><time>2011-11-30T10:52:10Z</time></trkpt><trkpt lat="42.599225" lon="-2.590007"><ele>1452.5</ele><time>2011-11-30T10:52:11Z</time></trkpt><trkpt lat="42.599230" lon="-2.590010"><ele>1452.5</ele><time>2011-11-30T10:52:12Z</time></trkpt><trkpt lat="42.599230" lon="-2.590023"><ele>1453.5</ele><time>2011-11-30T10:52:13Z</time></trkpt><trkpt lat="42.599230" lon="-2.590033"><ele>1454.5</ele><time>2011-11-30T10:52:14Z</time></trkpt><trkpt lat="42.599230" lon="-2.590048"><ele>1455.0</ele><time>2011-11-30T10:52:15Z</time></trkpt><trkpt lat="42.599230" lon="-2.590065"><ele>1455.0</ele><time>2011-11-30T10:52:16Z</time></trkpt><trkpt lat="42.599228" lon="-2.590073"><ele>1455.0</ele><time>2011-11-30T10:52:17Z</time></trkpt><trkpt lat="42.599233" lon="-2.590082"><ele>1455.0</ele><time>2011-11-30T10:52:18Z</time></trkpt><trkpt lat="42.599253" lon="-2.590090"><ele>1455.0</ele><time>2011-11-30T10:52:19Z</time></trkpt><trkpt lat="42.599250" lon="-2.590082"><ele>1455.0</ele><time>2011-11-30T10:52:20Z</time></trkpt><trkpt lat="42.599282" lon="-2.590070"><ele>1456.0</ele><time>2011-11-30T10:52:21Z</time></trkpt><trkpt lat="42.599297" lon="-2.590068"><ele>1455.5</ele><time>2011-11-30T10:52:22Z</time></trkpt><trkpt lat="42.599305" lon="-2.590072"><ele>1456.0</ele><time>2011-11-30T10:52:23Z</time></trkpt><trkpt lat="42.599320" lon="-2.590078"><ele>1456.5</ele><time>2011-11-30T10:52:24Z</time></trkpt><trkpt lat="42.599333" lon="-2.590075"><ele>1456.5</ele><time>2011-11-30T10:52:25Z</time></trkpt><trkpt lat="42.599347" lon="-2.590077"><ele>1456.5</ele><time>2011-11-30T10:52:26Z</time></trkpt><trkpt lat="42.599358" lon="-2.590070"><ele>1456.0</ele><time>2011-11-30T10:52:27Z</time></trkpt><trkpt lat="42.599372" lon="-2.590067"><ele>1456.0</ele><time>2011-11-30T10:52:28Z</time></trkpt><trkpt lat="42.599397" lon="-2.590067"><ele>1456.0</ele><time>2011-11-30T10:52:29Z</time></trkpt><trkpt lat="42.599433" lon="-2.590063"><ele>1457.5</ele><time>2011-11-30T10:52:30Z</time></trkpt><trkpt lat="42.599457" lon="-2.590060"><ele>1458.5</ele><time>2011-11-30T10:52:31Z</time></trkpt><trkpt lat="42.599458" lon="-2.590058"><ele>1459.0</ele><time>2011-11-30T10:52:32Z</time></trkpt><trkpt lat="42.599468" lon="-2.590058"><ele>1459.5</ele><time>2011-11-30T10:52:33Z</time></trkpt><trkpt lat="42.599490" lon="-2.590063"><ele>1460.0</ele><time>2011-11-30T10:52:34Z</time></trkpt><trkpt lat="42.599492" lon="-2.590070"><ele>1460.5</ele><time>2011-11-30T10:52:35Z</time></trkpt><trkpt lat="42.599492" lon="-2.590072"><ele>1461.0</ele><time>2011-11-30T10:52:36Z</time></trkpt><trkpt lat="42.599495" lon="-2.590078"><ele>1461.5</ele><time>2011-11-30T10:52:37Z</time></trkpt><trkpt lat="42.599498" lon="-2.590085"><ele>1462.0</ele><time>2011-11-30T10:52:38Z</time></trkpt><trkpt lat="42.599502" lon="-2.590088"><ele>1462.0</ele><time>2011-11-30T10:52:39Z</time></trkpt><trkpt lat="42.599507" lon="-2.590095"><ele>1463.5</ele><time>2011-11-30T10:52:40Z</time></trkpt><trkpt lat="42.599502" lon="-2.590075"><ele>1465.0</ele><time>2011-11-30T10:52:41Z</time></trkpt><trkpt lat="42.599500" lon="-2.590065"><ele>1464.5</ele><time>2011-11-30T10:52:42Z</time></trkpt><trkpt lat="42.599493" lon="-2.590060"><ele>1465.0</ele><time>2011-11-30T10:52:43Z</time></trkpt><trkpt lat="42.599490" lon="-2.590052"><ele>1464.0</ele><time>2011-11-30T10:52:44Z</time></trkpt><trkpt lat="42.599487" lon="-2.590042"><ele>1463.0</ele><time>2011-11-30T10:52:45Z</time></trkpt><trkpt lat="42.599487" lon="-2.590030"><ele>1462.0</ele><time>2011-11-30T10:52:46Z</time></trkpt><trkpt lat="42.599477" lon="-2.590027"><ele>1463.5</ele><time>2011-11-30T10:52:47Z</time></trkpt><trkpt lat="42.599475" lon="-2.590013"><ele>1463.0</ele><time>2011-11-30T10:52:48Z</time></trkpt><trkpt lat="42.599470" lon="-2.590003"><ele>1463.5</ele><time>2011-11-30T10:52:49Z</time></trkpt><trkpt lat="42.599475" lon="-2.589997"><ele>1464.5</ele><time>2011-11-30T10:52:50Z</time></trkpt><trkpt lat="42.599482" lon="-2.589995"><ele>1464.5</ele><time>2011-11-30T10:52:51Z</time></trkpt><trkpt lat="42.599487" lon="-2.589985"><ele>1465.0</ele><time>2011-11-30T10:52:52Z</time></trkpt><trkpt lat="42.599492" lon="-2.589982"><ele>1465.0</ele><time>2011-11-30T10:52:53Z</time></trkpt><trkpt lat="42.599497" lon="-2.589972"><ele>1465.5</ele><time>2011-11-30T10:52:54Z</time></trkpt><trkpt lat="42.599490" lon="-2.589965"><ele>1466.0</ele><time>2011-11-30T10:52:55Z</time></trkpt><trkpt lat="42.599485" lon="-2.589960"><ele>1466.5</ele><time>2011-11-30T10:52:56Z</time></trkpt><trkpt lat="42.599485" lon="-2.589948"><ele>1467.0</ele><time>2011-11-30T10:52:57Z</time></trkpt><trkpt lat="42.599482" lon="-2.589940"><ele>1467.5</ele><time>2011-11-30T10:52:58Z</time></trkpt><trkpt lat="42.599478" lon="-2.589932"><ele>1467.5</ele><time>2011-11-30T10:52:59Z</time></trkpt><trkpt lat="42.599477" lon="-2.589923"><ele>1468.0</ele><time>2011-11-30T10:53:00Z</time></trkpt><trkpt lat="42.599477" lon="-2.589912"><ele>1468.5</ele><time>2011-11-30T10:53:01Z</time></trkpt><trkpt lat="42.599478" lon="-2.589903"><ele>1468.0</ele><time>2011-11-30T10:53:02Z</time></trkpt><trkpt lat="42.599482" lon="-2.589892"><ele>1469.0</ele><time>2011-11-30T10:53:03Z</time></trkpt><trkpt lat="42.599477" lon="-2.589877"><ele>1470.0</ele><time>2011-11-30T10:53:04Z</time></trkpt><trkpt lat="42.599472" lon="-2.589863"><ele>1471.5</ele><time>2011-11-30T10:53:05Z</time></trkpt><trkpt lat="42.599463" lon="-2.589853"><ele>1472.0</ele><time>2011-11-30T10:53:06Z</time></trkpt><trkpt lat="42.599462" lon="-2.589847"><ele>1473.0</ele><time>2011-11-30T10:53:07Z</time></trkpt><trkpt lat="42.599453" lon="-2.589837"><ele>1474.0</ele><time>2011-11-30T10:53:08Z</time></trkpt><trkpt lat="42.599447" lon="-2.589835"><ele>1475.0</ele><time>2011-11-30T10:53:09Z</time></trkpt><trkpt lat="42.599447" lon="-2.589815"><ele>1478.0</ele><time>2011-11-30T10:53:10Z</time></trkpt><trkpt lat="42.599453" lon="-2.589805"><ele>1478.5</ele><time>2011-11-30T10:53:11Z</time></trkpt><trkpt lat="42.599452" lon="-2.589802"><ele>1479.0</ele><time>2011-11-30T10:53:12Z</time></trkpt><trkpt lat="42.599445" lon="-2.589782"><ele>1480.0</ele><time>2011-11-30T10:53:13Z</time></trkpt><trkpt lat="42.599462" lon="-2.589710"><ele>1483.0</ele><time>2011-11-30T10:53:14Z</time></trkpt><trkpt lat="42.599467" lon="-2.589705"><ele>1483.5</ele><time>2011-11-30T10:53:15Z</time></trkpt><trkpt lat="42.599472" lon="-2.589703"><ele>1485.0</ele><time>2011-11-30T10:53:16Z</time></trkpt><trkpt lat="42.599475" lon="-2.589693"><ele>1485.5</ele><time>2011-11-30T10:53:18Z</time></trkpt><trkpt lat="42.599478" lon="-2.589687"><ele>1485.5</ele><time>2011-11-30T10:53:19Z</time></trkpt><trkpt lat="42.599477" lon="-2.589672"><ele>1485.0</ele><time>2011-11-30T10:53:20Z</time></trkpt><trkpt lat="42.599485" lon="-2.589662"><ele>1489.0</ele><time>2011-11-30T10:53:21Z</time></trkpt><trkpt lat="42.599498" lon="-2.589657"><ele>1488.5</ele><time>2011-11-30T10:53:22Z</time></trkpt><trkpt lat="42.599498" lon="-2.589618"><ele>1488.5</ele><time>2011-11-30T10:53:23Z</time></trkpt><trkpt lat="42.599492" lon="-2.589587"><ele>1485.0</ele><time>2011-11-30T10:53:24Z</time></trkpt><trkpt lat="42.599488" lon="-2.589582"><ele>1485.5</ele><time>2011-11-30T10:53:25Z</time></trkpt><trkpt lat="42.599498" lon="-2.589548"><ele>1485.0</ele><time>2011-11-30T10:53:26Z</time></trkpt><trkpt lat="42.599488" lon="-2.589570"><ele>1486.0</ele><time>2011-11-30T10:53:27Z</time></trkpt><trkpt lat="42.599483" lon="-2.589577"><ele>1485.5</ele><time>2011-11-30T10:53:28Z</time></trkpt><trkpt lat="42.599502" lon="-2.589638"><ele>1486.0</ele><time>2011-11-30T10:53:29Z</time></trkpt><trkpt lat="42.599502" lon="-2.589648"><ele>1486.5</ele><time>2011-11-30T10:53:30Z</time></trkpt><trkpt lat="42.599503" lon="-2.589643"><ele>1485.5</ele><time>2011-11-30T10:53:31Z</time></trkpt><trkpt lat="42.599488" lon="-2.589660"><ele>1488.5</ele><time>2011-11-30T10:53:32Z</time></trkpt><trkpt lat="42.599478" lon="-2.589658"><ele>1488.0</ele><time>2011-11-30T10:53:33Z</time></trkpt><trkpt lat="42.599468" lon="-2.589667"><ele>1488.5</ele><time>2011-11-30T10:53:34Z</time></trkpt><trkpt lat="42.599455" lon="-2.589685"><ele>1487.0</ele><time>2011-11-30T10:53:35Z</time></trkpt><trkpt lat="42.599452" lon="-2.589693"><ele>1486.5</ele><time>2011-11-30T10:53:36Z</time></trkpt><trkpt lat="42.599472" lon="-2.589767"><ele>1482.5</ele><time>2011-11-30T10:53:37Z</time></trkpt><trkpt lat="42.599467" lon="-2.589777"><ele>1481.5</ele><time>2011-11-30T10:53:38Z</time></trkpt><trkpt lat="42.599455" lon="-2.589780"><ele>1480.5</ele><time>2011-11-30T10:53:39Z</time></trkpt><trkpt lat="42.599452" lon="-2.589782"><ele>1480.0</ele><time>2011-11-30T10:53:40Z</time></trkpt><trkpt lat="42.599455" lon="-2.589800"><ele>1476.5</ele><time>2011-11-30T10:53:41Z</time></trkpt><trkpt lat="42.599463" lon="-2.589840"><ele>1476.5</ele><time>2011-11-30T10:53:42Z</time></trkpt><trkpt lat="42.599463" lon="-2.589852"><ele>1477.0</ele><time>2011-11-30T10:53:43Z</time></trkpt><trkpt lat="42.599465" lon="-2.589863"><ele>1476.5</ele><time>2011-11-30T10:53:44Z</time></trkpt><trkpt lat="42.599465" lon="-2.589873"><ele>1476.5</ele><time>2011-11-30T10:53:45Z</time></trkpt><trkpt lat="42.599490" lon="-2.589893"><ele>1474.5</ele><time>2011-11-30T10:53:46Z</time></trkpt><trkpt lat="42.599492" lon="-2.589902"><ele>1474.5</ele><time>2011-11-30T10:53:47Z</time></trkpt><trkpt lat="42.599522" lon="-2.589973"><ele>1472.0</ele><time>2011-11-30T10:53:48Z</time></trkpt><trkpt lat="42.599523" lon="-2.589982"><ele>1472.0</ele><time>2011-11-30T10:53:49Z</time></trkpt><trkpt lat="42.599508" lon="-2.589988"><ele>1472.5</ele><time>2011-11-30T10:53:50Z</time></trkpt><trkpt lat="42.599495" lon="-2.589992"><ele>1471.5</ele><time>2011-11-30T10:53:51Z</time></trkpt><trkpt lat="42.599487" lon="-2.589993"><ele>1470.5</ele><time>2011-11-30T10:53:52Z</time></trkpt><trkpt lat="42.599477" lon="-2.590010"><ele>1470.5</ele><time>2011-11-30T10:53:53Z</time></trkpt><trkpt lat="42.599482" lon="-2.590018"><ele>1471.0</ele><time>2011-11-30T10:53:54Z</time></trkpt><trkpt lat="42.599488" lon="-2.590032"><ele>1470.5</ele><time>2011-11-30T10:53:55Z</time></trkpt><trkpt lat="42.599488" lon="-2.590042"><ele>1471.0</ele><time>2011-11-30T10:53:56Z</time></trkpt><trkpt lat="42.599472" lon="-2.590058"><ele>1470.5</ele><time>2011-11-30T10:53:57Z</time></trkpt><trkpt lat="42.599465" lon="-2.590057"><ele>1470.0</ele><time>2011-11-30T10:53:58Z</time></trkpt><trkpt lat="42.599457" lon="-2.590052"><ele>1469.5</ele><time>2011-11-30T10:53:59Z</time></trkpt><trkpt lat="42.599450" lon="-2.590053"><ele>1469.5</ele><time>2011-11-30T10:54:00Z</time></trkpt><trkpt lat="42.599445" lon="-2.590048"><ele>1469.0</ele><time>2011-11-30T10:54:01Z</time></trkpt><trkpt lat="42.599433" lon="-2.590043"><ele>1468.5</ele><time>2011-11-30T10:54:02Z</time></trkpt><trkpt lat="42.599425" lon="-2.590043"><ele>1468.5</ele><time>2011-11-30T10:54:03Z</time></trkpt><trkpt lat="42.599418" lon="-2.590047"><ele>1468.5</ele><time>2011-11-30T10:54:04Z</time></trkpt><trkpt lat="42.599413" lon="-2.590050"><ele>1468.0</ele><time>2011-11-30T10:54:05Z</time></trkpt><trkpt lat="42.599407" lon="-2.590057"><ele>1468.0</ele><time>2011-11-30T10:54:06Z</time></trkpt><trkpt lat="42.599398" lon="-2.590060"><ele>1467.5</ele><time>2011-11-30T10:54:07Z</time></trkpt><trkpt lat="42.599388" lon="-2.590065"><ele>1467.5</ele><time>2011-11-30T10:54:08Z</time></trkpt><trkpt lat="42.599382" lon="-2.590067"><ele>1467.5</ele><time>2011-11-30T10:54:09Z</time></trkpt><trkpt lat="42.599373" lon="-2.590065"><ele>1467.5</ele><time>2011-11-30T10:54:10Z</time></trkpt><trkpt lat="42.599365" lon="-2.590065"><ele>1467.5</ele><time>2011-11-30T10:54:11Z</time></trkpt><trkpt lat="42.599360" lon="-2.590070"><ele>1467.5</ele><time>2011-11-30T10:54:12Z</time></trkpt><trkpt lat="42.599353" lon="-2.590072"><ele>1467.0</ele><time>2011-11-30T10:54:13Z</time></trkpt><trkpt lat="42.599343" lon="-2.590072"><ele>1467.0</ele><time>2011-11-30T10:54:14Z</time></trkpt><trkpt lat="42.599333" lon="-2.590068"><ele>1467.5</ele><time>2011-11-30T10:54:15Z</time></trkpt><trkpt lat="42.599327" lon="-2.590068"><ele>1467.5</ele><time>2011-11-30T10:54:16Z</time></trkpt><trkpt lat="42.599318" lon="-2.590067"><ele>1467.5</ele><time>2011-11-30T10:54:17Z</time></trkpt><trkpt lat="42.599312" lon="-2.590065"><ele>1467.0</ele><time>2011-11-30T10:54:18Z</time></trkpt><trkpt lat="42.599303" lon="-2.590063"><ele>1467.0</ele><time>2011-11-30T10:54:19Z</time></trkpt><trkpt lat="42.599297" lon="-2.590067"><ele>1467.0</ele><time>2011-11-30T10:54:20Z</time></trkpt><trkpt lat="42.599292" lon="-2.590072"><ele>1467.0</ele><time>2011-11-30T10:54:21Z</time></trkpt><trkpt lat="42.599287" lon="-2.590077"><ele>1467.0</ele><time>2011-11-30T10:54:22Z</time></trkpt><trkpt lat="42.599282" lon="-2.590080"><ele>1467.0</ele><time>2011-11-30T10:54:23Z</time></trkpt><trkpt lat="42.599273" lon="-2.590078"><ele>1467.0</ele><time>2011-11-30T10:54:24Z</time></trkpt><trkpt lat="42.599265" lon="-2.590080"><ele>1467.0</ele><time>2011-11-30T10:54:25Z</time></trkpt><trkpt lat="42.599260" lon="-2.590075"><ele>1467.0</ele><time>2011-11-30T10:54:26Z</time></trkpt><trkpt lat="42.599257" lon="-2.590068"><ele>1466.5</ele><time>2011-11-30T10:54:27Z</time></trkpt><trkpt lat="42.599273" lon="-2.590055"><ele>1463.5</ele><time>2011-11-30T10:54:28Z</time></trkpt><trkpt lat="42.599285" lon="-2.590052"><ele>1462.5</ele><time>2011-11-30T10:54:29Z</time></trkpt><trkpt lat="42.599295" lon="-2.590047"><ele>1461.5</ele><time>2011-11-30T10:54:30Z</time></trkpt><trkpt lat="42.599312" lon="-2.590012"><ele>1461.5</ele><time>2011-11-30T10:54:31Z</time></trkpt><trkpt lat="42.599312" lon="-2.589997"><ele>1461.5</ele><time>2011-11-30T10:54:32Z</time></trkpt><trkpt lat="42.599303" lon="-2.589977"><ele>1459.5</ele><time>2011-11-30T10:54:33Z</time></trkpt><trkpt lat="42.599298" lon="-2.589970"><ele>1459.0</ele><time>2011-11-30T10:54:34Z</time></trkpt><trkpt lat="42.599290" lon="-2.589928"><ele>1458.0</ele><time>2011-11-30T10:54:35Z</time></trkpt><trkpt lat="42.599292" lon="-2.589915"><ele>1458.5</ele><time>2011-11-30T10:54:36Z</time></trkpt><trkpt lat="42.599290" lon="-2.589908"><ele>1458.5</ele><time>2011-11-30T10:54:37Z</time></trkpt><trkpt lat="42.599287" lon="-2.589907"><ele>1458.0</ele><time>2011-11-30T10:54:38Z</time></trkpt><trkpt lat="42.599283" lon="-2.589898"><ele>1457.5</ele><time>2011-11-30T10:54:39Z</time></trkpt><trkpt lat="42.599283" lon="-2.589865"><ele>1455.5</ele><time>2011-11-30T10:54:40Z</time></trkpt><trkpt lat="42.599283" lon="-2.589855"><ele>1455.5</ele><time>2011-11-30T10:54:41Z</time></trkpt><trkpt lat="42.599283" lon="-2.589847"><ele>1455.5</ele><time>2011-11-30T10:54:42Z</time></trkpt><trkpt lat="42.599285" lon="-2.589832"><ele>1455.0</ele><time>2011-11-30T10:54:43Z</time></trkpt><trkpt lat="42.599292" lon="-2.589805"><ele>1454.5</ele><time>2011-11-30T10:54:43Z</time></trkpt><trkpt lat="42.599295" lon="-2.589775"><ele>1455.0</ele><time>2011-11-30T10:54:44Z</time></trkpt><trkpt lat="42.599288" lon="-2.589762"><ele>1455.5</ele><time>2011-11-30T10:54:45Z</time></trkpt><trkpt lat="42.599287" lon="-2.589755"><ele>1456.5</ele><time>2011-11-30T10:54:46Z</time></trkpt><trkpt lat="42.599278" lon="-2.589750"><ele>1457.5</ele><time>2011-11-30T10:54:47Z</time></trkpt><trkpt lat="42.599277" lon="-2.589743"><ele>1458.0</ele><time>2011-11-30T10:54:48Z</time></trkpt><trkpt lat="42.599275" lon="-2.589735"><ele>1458.0</ele><time>2011-11-30T10:54:49Z</time></trkpt><trkpt lat="42.599270" lon="-2.589722"><ele>1458.5</ele><time>2011-11-30T10:54:50Z</time></trkpt><trkpt lat="42.599265" lon="-2.589697"><ele>1459.5</ele><time>2011-11-30T10:54:51Z</time></trkpt><trkpt lat="42.599263" lon="-2.589685"><ele>1460.5</ele><time>2011-11-30T10:54:52Z</time></trkpt><trkpt lat="42.599258" lon="-2.589675"><ele>1460.5</ele><time>2011-11-30T10:54:53Z</time></trkpt><trkpt lat="42.599218" lon="-2.589640"><ele>1463.0</ele><time>2011-11-30T10:54:55Z</time></trkpt><trkpt lat="42.599210" lon="-2.589637"><ele>1464.0</ele><time>2011-11-30T10:54:56Z</time></trkpt><trkpt lat="42.599213" lon="-2.589623"><ele>1462.5</ele><time>2011-11-30T10:54:57Z</time></trkpt><trkpt lat="42.599210" lon="-2.589612"><ele>1462.0</ele><time>2011-11-30T10:54:58Z</time></trkpt><trkpt lat="42.599207" lon="-2.589605"><ele>1462.0</ele><time>2011-11-30T10:54:59Z</time></trkpt><trkpt lat="42.599210" lon="-2.589590"><ele>1460.5</ele><time>2011-11-30T10:55:00Z</time></trkpt><trkpt lat="42.599215" lon="-2.589577"><ele>1459.5</ele><time>2011-11-30T10:55:01Z</time></trkpt><trkpt lat="42.599218" lon="-2.589568"><ele>1458.5</ele><time>2011-11-30T10:55:02Z</time></trkpt><trkpt lat="42.599223" lon="-2.589558"><ele>1457.5</ele><time>2011-11-30T10:55:03Z</time></trkpt><trkpt lat="42.599227" lon="-2.589545"><ele>1457.5</ele><time>2011-11-30T10:55:05Z</time></trkpt><trkpt lat="42.599243" lon="-2.589510"><ele>1453.0</ele><time>2011-11-30T10:55:06Z</time></trkpt><trkpt lat="42.599253" lon="-2.589480"><ele>1448.5</ele><time>2011-11-30T10:55:07Z</time></trkpt><trkpt lat="42.599255" lon="-2.589472"><ele>1447.5</ele><time>2011-11-30T10:55:08Z</time></trkpt><trkpt lat="42.599257" lon="-2.589463"><ele>1447.0</ele><time>2011-11-30T10:55:09Z</time></trkpt><trkpt lat="42.599260" lon="-2.589457"><ele>1446.0</ele><time>2011-11-30T10:55:10Z</time></trkpt><trkpt lat="42.599262" lon="-2.589447"><ele>1445.5</ele><time>2011-11-30T10:55:11Z</time></trkpt><trkpt lat="42.599268" lon="-2.589433"><ele>1444.5</ele><time>2011-11-30T10:55:12Z</time></trkpt><trkpt lat="42.599285" lon="-2.589390"><ele>1445.5</ele><time>2011-11-30T10:55:13Z</time></trkpt><trkpt lat="42.599285" lon="-2.589367"><ele>1446.5</ele><time>2011-11-30T10:55:14Z</time></trkpt><trkpt lat="42.599303" lon="-2.589345"><ele>1447.5</ele><time>2011-11-30T10:55:16Z</time></trkpt><trkpt lat="42.599308" lon="-2.589337"><ele>1447.5</ele><time>2011-11-30T10:55:17Z</time></trkpt><trkpt lat="42.599312" lon="-2.589332"><ele>1447.5</ele><time>2011-11-30T10:55:18Z</time></trkpt><trkpt lat="42.599315" lon="-2.589328"><ele>1448.0</ele><time>2011-11-30T10:55:19Z</time></trkpt><trkpt lat="42.599317" lon="-2.589325"><ele>1448.0</ele><time>2011-11-30T10:55:20Z</time></trkpt><trkpt lat="42.599322" lon="-2.589333"><ele>1448.0</ele><time>2011-11-30T10:55:21Z</time></trkpt><trkpt lat="42.599275" lon="-2.589358"><ele>1447.5</ele><time>2011-11-30T10:55:23Z</time></trkpt><trkpt lat="42.599282" lon="-2.589352"><ele>1447.5</ele><time>2011-11-30T10:55:24Z</time></trkpt><trkpt lat="42.599318" lon="-2.589305"><ele>1447.5</ele><time>2011-11-30T10:55:25Z</time></trkpt><trkpt lat="42.599323" lon="-2.589292"><ele>1447.5</ele><time>2011-11-30T10:55:26Z</time></trkpt><trkpt lat="42.599328" lon="-2.589277"><ele>1447.5</ele><time>2011-11-30T10:55:27Z</time></trkpt><trkpt lat="42.599332" lon="-2.589265"><ele>1447.5</ele><time>2011-11-30T10:55:28Z</time></trkpt><trkpt lat="42.599335" lon="-2.589257"><ele>1447.5</ele><time>2011-11-30T10:55:29Z</time></trkpt><trkpt lat="42.599337" lon="-2.589252"><ele>1447.5</ele><time>2011-11-30T10:55:30Z</time></trkpt><trkpt lat="42.599325" lon="-2.589257"><ele>1447.5</ele><time>2011-11-30T10:55:31Z</time></trkpt><trkpt lat="42.599315" lon="-2.589260"><ele>1447.5</ele><time>2011-11-30T10:55:32Z</time></trkpt><trkpt lat="42.599283" lon="-2.589263"><ele>1447.5</ele><time>2011-11-30T10:55:33Z</time></trkpt><trkpt lat="42.599205" lon="-2.589433"><ele>1447.5</ele><time>2011-11-30T10:55:34Z</time></trkpt><trkpt lat="42.599157" lon="-2.589427"><ele>1447.5</ele><time>2011-11-30T10:55:36Z</time></trkpt><trkpt lat="42.599228" lon="-2.589288"><ele>1447.5</ele><time>2011-11-30T10:55:39Z</time></trkpt><trkpt lat="42.599220" lon="-2.589272"><ele>1447.5</ele><time>2011-11-30T10:55:40Z</time></trkpt><trkpt lat="42.599212" lon="-2.589262"><ele>1447.5</ele><time>2011-11-30T10:55:41Z</time></trkpt><trkpt lat="42.599215" lon="-2.589245"><ele>1447.5</ele><time>2011-11-30T10:55:42Z</time></trkpt><trkpt lat="42.599213" lon="-2.589233"><ele>1447.5</ele><time>2011-11-30T10:55:43Z</time></trkpt><trkpt lat="42.599208" lon="-2.589220"><ele>1447.5</ele><time>2011-11-30T10:55:45Z</time></trkpt><trkpt lat="42.599218" lon="-2.589210"><ele>1447.5</ele><time>2011-11-30T10:55:46Z</time></trkpt><trkpt lat="42.599218" lon="-2.589205"><ele>1447.5</ele><time>2011-11-30T10:55:48Z</time></trkpt><trkpt lat="42.599242" lon="-2.589192"><ele>1447.5</ele><time>2011-11-30T10:55:50Z</time></trkpt><trkpt lat="42.599278" lon="-2.589247"><ele>1447.5</ele><time>2011-11-30T10:55:52Z</time></trkpt><trkpt lat="42.599277" lon="-2.589250"><ele>1447.5</ele><time>2011-11-30T10:55:53Z</time></trkpt><trkpt lat="42.599273" lon="-2.589253"><ele>1447.5</ele><time>2011-11-30T10:55:54Z</time></trkpt><trkpt lat="42.599287" lon="-2.589247"><ele>1447.5</ele><time>2011-11-30T10:55:55Z</time></trkpt><trkpt lat="42.599300" lon="-2.589242"><ele>1447.5</ele><time>2011-11-30T10:55:56Z</time></trkpt><trkpt lat="42.599313" lon="-2.589243"><ele>1447.5</ele><time>2011-11-30T10:55:57Z</time></trkpt><trkpt lat="42.599312" lon="-2.589242"><ele>1447.5</ele><time>2011-11-30T10:55:58Z</time></trkpt><trkpt lat="42.599312" lon="-2.589243"><ele>1447.5</ele><time>2011-11-30T10:55:59Z</time></trkpt><trkpt lat="42.599313" lon="-2.589248"><ele>1447.5</ele><time>2011-11-30T10:56:00Z</time></trkpt><trkpt lat="42.599317" lon="-2.589253"><ele>1447.5</ele><time>2011-11-30T10:56:01Z</time></trkpt><trkpt lat="42.599322" lon="-2.589258"><ele>1447.5</ele><time>2011-11-30T10:56:02Z</time></trkpt><trkpt lat="42.599327" lon="-2.589257"><ele>1447.5</ele><time>2011-11-30T10:56:03Z</time></trkpt><trkpt lat="42.599330" lon="-2.589258"><ele>1447.5</ele><time>2011-11-30T10:56:04Z</time></trkpt><trkpt lat="42.599330" lon="-2.589260"><ele>1447.5</ele><time>2011-11-30T10:56:05Z</time></trkpt><trkpt lat="42.599332" lon="-2.589263"><ele>1447.5</ele><time>2011-11-30T10:56:06Z</time></trkpt><trkpt lat="42.599348" lon="-2.589268"><ele>1447.5</ele><time>2011-11-30T10:56:07Z</time></trkpt><trkpt lat="42.599355" lon="-2.589275"><ele>1447.5</ele><time>2011-11-30T10:56:08Z</time></trkpt><trkpt lat="42.599375" lon="-2.589292"><ele>1447.5</ele><time>2011-11-30T10:56:09Z</time></trkpt><trkpt lat="42.599390" lon="-2.589305"><ele>1447.5</ele><time>2011-11-30T10:56:10Z</time></trkpt><trkpt lat="42.599393" lon="-2.589325"><ele>1447.5</ele><time>2011-11-30T10:56:11Z</time></trkpt><trkpt lat="42.599387" lon="-2.589353"><ele>1447.5</ele><time>2011-11-30T10:56:12Z</time></trkpt><trkpt lat="42.599397" lon="-2.589357"><ele>1447.5</ele><time>2011-11-30T10:56:13Z</time></trkpt><trkpt lat="42.599403" lon="-2.589357"><ele>1447.5</ele><time>2011-11-30T10:56:14Z</time></trkpt><trkpt lat="42.599398" lon="-2.589317"><ele>1447.5</ele><time>2011-11-30T10:56:16Z</time></trkpt><trkpt lat="42.599383" lon="-2.589328"><ele>1447.5</ele><time>2011-11-30T10:56:17Z</time></trkpt><trkpt lat="42.599372" lon="-2.589313"><ele>1447.5</ele><time>2011-11-30T10:56:18Z</time></trkpt><trkpt lat="42.599383" lon="-2.589288"><ele>1447.5</ele><time>2011-11-30T10:56:19Z</time></trkpt><trkpt lat="42.599378" lon="-2.589313"><ele>1447.5</ele><time>2011-11-30T10:56:21Z</time></trkpt><trkpt lat="42.599397" lon="-2.589303"><ele>1447.5</ele><time>2011-11-30T10:56:22Z</time></trkpt><trkpt lat="42.599395" lon="-2.589303"><ele>1447.5</ele><time>2011-11-30T10:56:23Z</time></trkpt><trkpt lat="42.599392" lon="-2.589292"><ele>1447.5</ele><time>2011-11-30T10:56:24Z</time></trkpt><trkpt lat="42.599385" lon="-2.589290"><ele>1447.5</ele><time>2011-11-30T10:56:25Z</time></trkpt><trkpt lat="42.599380" lon="-2.589287"><ele>1447.5</ele><time>2011-11-30T10:56:26Z</time></trkpt><trkpt lat="42.599375" lon="-2.589283"><ele>1447.5</ele><time>2011-11-30T10:56:27Z</time></trkpt><trkpt lat="42.599370" lon="-2.589283"><ele>1447.5</ele><time>2011-11-30T10:56:28Z</time></trkpt><trkpt lat="42.599325" lon="-2.589302"><ele>1447.5</ele><time>2011-11-30T10:56:29Z</time></trkpt><trkpt lat="42.599325" lon="-2.589297"><ele>1447.5</ele><time>2011-11-30T10:56:30Z</time></trkpt><trkpt lat="42.599320" lon="-2.589305"><ele>1447.5</ele><time>2011-11-30T10:56:31Z</time></trkpt><trkpt lat="42.599325" lon="-2.589287"><ele>1447.5</ele><time>2011-11-30T10:56:32Z</time></trkpt><trkpt lat="42.599327" lon="-2.589277"><ele>1447.5</ele><time>2011-11-30T10:56:33Z</time></trkpt><trkpt lat="42.599343" lon="-2.589240"><ele>1447.5</ele><time>2011-11-30T10:56:34Z</time></trkpt><trkpt lat="42.599365" lon="-2.589193"><ele>1447.5</ele><time>2011-11-30T10:56:35Z</time></trkpt><trkpt lat="42.599360" lon="-2.589205"><ele>1447.5</ele><time>2011-11-30T10:56:36Z</time></trkpt><trkpt lat="42.599358" lon="-2.589208"><ele>1447.5</ele><time>2011-11-30T10:56:37Z</time></trkpt><trkpt lat="42.599357" lon="-2.589213"><ele>1447.5</ele><time>2011-11-30T10:56:38Z</time></trkpt><trkpt lat="42.599363" lon="-2.589180"><ele>1447.5</ele><time>2011-11-30T10:56:39Z</time></trkpt><trkpt lat="42.599355" lon="-2.589185"><ele>1447.5</ele><time>2011-11-30T10:56:40Z</time></trkpt><trkpt lat="42.599352" lon="-2.589192"><ele>1447.5</ele><time>2011-11-30T10:56:41Z</time></trkpt><trkpt lat="42.599365" lon="-2.589187"><ele>1447.5</ele><time>2011-11-30T10:56:42Z</time></trkpt><trkpt lat="42.599388" lon="-2.589167"><ele>1447.5</ele><time>2011-11-30T10:56:43Z</time></trkpt><trkpt lat="42.599382" lon="-2.589163"><ele>1447.5</ele><time>2011-11-30T10:56:44Z</time></trkpt><trkpt lat="42.599387" lon="-2.589152"><ele>1447.5</ele><time>2011-11-30T10:56:46Z</time></trkpt><trkpt lat="42.599393" lon="-2.589133"><ele>1447.5</ele><time>2011-11-30T10:56:47Z</time></trkpt><trkpt lat="42.599398" lon="-2.589120"><ele>1447.5</ele><time>2011-11-30T10:56:48Z</time></trkpt><trkpt lat="42.599402" lon="-2.589110"><ele>1447.5</ele><time>2011-11-30T10:56:49Z</time></trkpt><trkpt lat="42.599390" lon="-2.589118"><ele>1447.5</ele><time>2011-11-30T10:56:50Z</time></trkpt><trkpt lat="42.599387" lon="-2.589118"><ele>1447.5</ele><time>2011-11-30T10:56:51Z</time></trkpt><trkpt lat="42.599387" lon="-2.589117"><ele>1447.5</ele><time>2011-11-30T10:56:52Z</time></trkpt><trkpt lat="42.599387" lon="-2.589113"><ele>1447.5</ele><time>2011-11-30T10:56:53Z</time></trkpt><trkpt lat="42.599372" lon="-2.589133"><ele>1447.5</ele><time>2011-11-30T10:56:54Z</time></trkpt><trkpt lat="42.599367" lon="-2.589140"><ele>1447.5</ele><time>2011-11-30T10:56:55Z</time></trkpt><trkpt lat="42.599363" lon="-2.589140"><ele>1447.5</ele><time>2011-11-30T10:56:56Z</time></trkpt><trkpt lat="42.599363" lon="-2.589140"><ele>1447.5</ele><time>2011-11-30T10:56:57Z</time></trkpt><trkpt lat="42.599362" lon="-2.589143"><ele>1447.5</ele><time>2011-11-30T10:56:58Z</time></trkpt><trkpt lat="42.599347" lon="-2.589173"><ele>1447.5</ele><time>2011-11-30T10:56:59Z</time></trkpt><trkpt lat="42.599353" lon="-2.589165"><ele>1447.5</ele><time>2011-11-30T10:57:00Z</time></trkpt><trkpt lat="42.599313" lon="-2.589238"><ele>1447.5</ele><time>2011-11-30T10:57:01Z</time></trkpt><trkpt lat="42.599303" lon="-2.589280"><ele>1447.5</ele><time>2011-11-30T10:57:02Z</time></trkpt><trkpt lat="42.599297" lon="-2.589297"><ele>1447.5</ele><time>2011-11-30T10:57:03Z</time></trkpt><trkpt lat="42.599292" lon="-2.589307"><ele>1447.5</ele><time>2011-11-30T10:57:04Z</time></trkpt><trkpt lat="42.599305" lon="-2.589282"><ele>1447.5</ele><time>2011-11-30T10:57:05Z</time></trkpt><trkpt lat="42.599308" lon="-2.589270"><ele>1447.5</ele><time>2011-11-30T10:57:06Z</time></trkpt><trkpt lat="42.599310" lon="-2.589263"><ele>1447.5</ele><time>2011-11-30T10:57:07Z</time></trkpt><trkpt lat="42.599312" lon="-2.589258"><ele>1447.5</ele><time>2011-11-30T10:57:08Z</time></trkpt><trkpt lat="42.599318" lon="-2.589248"><ele>1447.5</ele><time>2011-11-30T10:57:09Z</time></trkpt><trkpt lat="42.599322" lon="-2.589250"><ele>1447.5</ele><time>2011-11-30T10:57:10Z</time></trkpt><trkpt lat="42.599322" lon="-2.589257"><ele>1447.5</ele><time>2011-11-30T10:57:11Z</time></trkpt><trkpt lat="42.599320" lon="-2.589257"><ele>1447.5</ele><time>2011-11-30T10:57:12Z</time></trkpt><trkpt lat="42.599333" lon="-2.589240"><ele>1447.5</ele><time>2011-11-30T10:57:13Z</time></trkpt><trkpt lat="42.599338" lon="-2.589237"><ele>1447.5</ele><time>2011-11-30T10:57:14Z</time></trkpt><trkpt lat="42.599333" lon="-2.589255"><ele>1447.5</ele><time>2011-11-30T10:57:15Z</time></trkpt><trkpt lat="42.599335" lon="-2.589263"><ele>1447.5</ele><time>2011-11-30T10:57:16Z</time></trkpt><trkpt lat="42.599342" lon="-2.589248"><ele>1447.5</ele><time>2011-11-30T10:57:17Z</time></trkpt><trkpt lat="42.599345" lon="-2.589235"><ele>1447.5</ele><time>2011-11-30T10:57:18Z</time></trkpt><trkpt lat="42.599347" lon="-2.589223"><ele>1447.5</ele><time>2011-11-30T10:57:19Z</time></trkpt><trkpt lat="42.599345" lon="-2.589220"><ele>1447.5</ele><time>2011-11-30T10:57:20Z</time></trkpt><trkpt lat="42.599375" lon="-2.589170"><ele>1447.5</ele><time>2011-11-30T10:57:21Z</time></trkpt><trkpt lat="42.599373" lon="-2.589135"><ele>1447.5</ele><time>2011-11-30T10:57:22Z</time></trkpt><trkpt lat="42.599378" lon="-2.589125"><ele>1447.5</ele><time>2011-11-30T10:57:23Z</time></trkpt><trkpt lat="42.599378" lon="-2.589130"><ele>1447.5</ele><time>2011-11-30T10:57:24Z</time></trkpt><trkpt lat="42.599385" lon="-2.589110"><ele>1447.5</ele><time>2011-11-30T10:57:25Z</time></trkpt><trkpt lat="42.599383" lon="-2.589115"><ele>1447.5</ele><time>2011-11-30T10:57:26Z</time></trkpt><trkpt lat="42.599380" lon="-2.589122"><ele>1447.5</ele><time>2011-11-30T10:57:27Z</time></trkpt><trkpt lat="42.599377" lon="-2.589128"><ele>1447.5</ele><time>2011-11-30T10:57:28Z</time></trkpt><trkpt lat="42.599375" lon="-2.589130"><ele>1447.5</ele><time>2011-11-30T10:57:29Z</time></trkpt><trkpt lat="42.599375" lon="-2.589132"><ele>1447.5</ele><time>2011-11-30T10:57:30Z</time></trkpt><trkpt lat="42.599377" lon="-2.589135"><ele>1447.5</ele><time>2011-11-30T10:57:31Z</time></trkpt><trkpt lat="42.599385" lon="-2.589120"><ele>1447.5</ele><time>2011-11-30T10:57:32Z</time></trkpt><trkpt lat="42.599388" lon="-2.589113"><ele>1447.5</ele><time>2011-11-30T10:57:33Z</time></trkpt><trkpt lat="42.599390" lon="-2.589113"><ele>1447.5</ele><time>2011-11-30T10:57:34Z</time></trkpt><trkpt lat="42.599390" lon="-2.589113"><ele>1447.5</ele><time>2011-11-30T10:57:35Z</time></trkpt><trkpt lat="42.599388" lon="-2.589118"><ele>1447.5</ele><time>2011-11-30T10:57:36Z</time></trkpt><trkpt lat="42.599378" lon="-2.589137"><ele>1447.5</ele><time>2011-11-30T10:57:37Z</time></trkpt><trkpt lat="42.599373" lon="-2.589148"><ele>1447.5</ele><time>2011-11-30T10:57:38Z</time></trkpt><trkpt lat="42.599370" lon="-2.589155"><ele>1447.5</ele><time>2011-11-30T10:57:39Z</time></trkpt><trkpt lat="42.599338" lon="-2.589290"><ele>1447.5</ele><time>2011-11-30T10:57:40Z</time></trkpt><trkpt lat="42.599335" lon="-2.589295"><ele>1447.5</ele><time>2011-11-30T10:57:41Z</time></trkpt><trkpt lat="42.599332" lon="-2.589303"><ele>1447.5</ele><time>2011-11-30T10:57:42Z</time></trkpt><trkpt lat="42.599330" lon="-2.589318"><ele>1447.5</ele><time>2011-11-30T10:57:43Z</time></trkpt><trkpt lat="42.599327" lon="-2.589337"><ele>1447.5</ele><time>2011-11-30T10:57:44Z</time></trkpt><trkpt lat="42.599320" lon="-2.589350"><ele>1447.5</ele><time>2011-11-30T10:57:45Z</time></trkpt><trkpt lat="42.599318" lon="-2.589362"><ele>1447.5</ele><time>2011-11-30T10:57:46Z</time></trkpt><trkpt lat="42.599318" lon="-2.589358"><ele>1447.5</ele><time>2011-11-30T10:57:47Z</time></trkpt><trkpt lat="42.599320" lon="-2.589377"><ele>1447.5</ele><time>2011-11-30T10:57:48Z</time></trkpt><trkpt lat="42.599320" lon="-2.589383"><ele>1447.5</ele><time>2011-11-30T10:57:49Z</time></trkpt><trkpt lat="42.599317" lon="-2.589392"><ele>1447.5</ele><time>2011-11-30T10:57:50Z</time></trkpt><trkpt lat="42.599332" lon="-2.589333"><ele>1447.5</ele><time>2011-11-30T10:57:51Z</time></trkpt><trkpt lat="42.599367" lon="-2.589225"><ele>1447.5</ele><time>2011-11-30T10:57:53Z</time></trkpt><trkpt lat="42.599357" lon="-2.589337"><ele>1447.5</ele><time>2011-11-30T10:57:54Z</time></trkpt><trkpt lat="42.599360" lon="-2.589363"><ele>1447.5</ele><time>2011-11-30T10:57:55Z</time></trkpt><trkpt lat="42.599353" lon="-2.589387"><ele>1447.5</ele><time>2011-11-30T10:57:56Z</time></trkpt><trkpt lat="42.599333" lon="-2.589227"><ele>1447.5</ele><time>2011-11-30T10:57:58Z</time></trkpt><trkpt lat="42.599327" lon="-2.589217"><ele>1447.5</ele><time>2011-11-30T10:57:59Z</time></trkpt><trkpt lat="42.599337" lon="-2.589235"><ele>1447.5</ele><time>2011-11-30T10:58:00Z</time></trkpt><trkpt lat="42.599328" lon="-2.589225"><ele>1447.5</ele><time>2011-11-30T10:58:01Z</time></trkpt><trkpt lat="42.599303" lon="-2.589248"><ele>1447.5</ele><time>2011-11-30T10:58:02Z</time></trkpt><trkpt lat="42.599303" lon="-2.589252"><ele>1447.5</ele><time>2011-11-30T10:58:03Z</time></trkpt><trkpt lat="42.599300" lon="-2.589248"><ele>1447.5</ele><time>2011-11-30T10:58:04Z</time></trkpt><trkpt lat="42.599307" lon="-2.589262"><ele>1447.5</ele><time>2011-11-30T10:58:05Z</time></trkpt><trkpt lat="42.599315" lon="-2.589280"><ele>1447.5</ele><time>2011-11-30T10:58:06Z</time></trkpt><trkpt lat="42.599320" lon="-2.589295"><ele>1447.5</ele><time>2011-11-30T10:58:07Z</time></trkpt><trkpt lat="42.599325" lon="-2.589307"><ele>1447.5</ele><time>2011-11-30T10:58:08Z</time></trkpt><trkpt lat="42.599330" lon="-2.589317"><ele>1447.5</ele><time>2011-11-30T10:58:09Z</time></trkpt><trkpt lat="42.599333" lon="-2.589323"><ele>1447.5</ele><time>2011-11-30T10:58:10Z</time></trkpt><trkpt lat="42.599335" lon="-2.589330"><ele>1447.5</ele><time>2011-11-30T10:58:11Z</time></trkpt><trkpt lat="42.599347" lon="-2.589355"><ele>1447.5</ele><time>2011-11-30T10:58:12Z</time></trkpt><trkpt lat="42.599355" lon="-2.589373"><ele>1447.5</ele><time>2011-11-30T10:58:13Z</time></trkpt><trkpt lat="42.599363" lon="-2.589390"><ele>1447.5</ele><time>2011-11-30T10:58:14Z</time></trkpt><trkpt lat="42.599367" lon="-2.589407"><ele>1447.5</ele><time>2011-11-30T10:58:15Z</time></trkpt><trkpt lat="42.599370" lon="-2.589417"><ele>1447.5</ele><time>2011-11-30T10:58:16Z</time></trkpt><trkpt lat="42.599383" lon="-2.589438"><ele>1447.5</ele><time>2011-11-30T10:58:17Z</time></trkpt><trkpt lat="42.599388" lon="-2.589445"><ele>1447.5</ele><time>2011-11-30T10:58:18Z</time></trkpt><trkpt lat="42.599393" lon="-2.589450"><ele>1447.5</ele><time>2011-11-30T10:58:19Z</time></trkpt><trkpt lat="42.599397" lon="-2.589452"><ele>1447.5</ele><time>2011-11-30T10:58:20Z</time></trkpt><trkpt lat="42.599397" lon="-2.589445"><ele>1447.5</ele><time>2011-11-30T10:58:21Z</time></trkpt><trkpt lat="42.599393" lon="-2.589438"><ele>1447.5</ele><time>2011-11-30T10:58:22Z</time></trkpt><trkpt lat="42.599390" lon="-2.589425"><ele>1447.5</ele><time>2011-11-30T10:58:23Z</time></trkpt><trkpt lat="42.599373" lon="-2.589393"><ele>1447.5</ele><time>2011-11-30T10:58:24Z</time></trkpt><trkpt lat="42.599380" lon="-2.589402"><ele>1447.5</ele><time>2011-11-30T10:58:25Z</time></trkpt><trkpt lat="42.599390" lon="-2.589417"><ele>1447.5</ele><time>2011-11-30T10:58:26Z</time></trkpt><trkpt lat="42.599392" lon="-2.589415"><ele>1447.5</ele><time>2011-11-30T10:58:28Z</time></trkpt><trkpt lat="42.599407" lon="-2.589437"><ele>1447.5</ele><time>2011-11-30T10:58:29Z</time></trkpt><trkpt lat="42.599417" lon="-2.589453"><ele>1447.5</ele><time>2011-11-30T10:58:30Z</time></trkpt><trkpt lat="42.599425" lon="-2.589467"><ele>1447.5</ele><time>2011-11-30T10:58:31Z</time></trkpt><trkpt lat="42.599437" lon="-2.589482"><ele>1447.5</ele><time>2011-11-30T10:58:33Z</time></trkpt><trkpt lat="42.599440" lon="-2.589487"><ele>1447.5</ele><time>2011-11-30T10:58:35Z</time></trkpt><trkpt lat="42.599417" lon="-2.589438"><ele>1447.5</ele><time>2011-11-30T10:58:37Z</time></trkpt><trkpt lat="42.599392" lon="-2.589390"><ele>1447.5</ele><time>2011-11-30T10:58:39Z</time></trkpt><trkpt lat="42.599365" lon="-2.589330"><ele>1447.5</ele><time>2011-11-30T10:58:40Z</time></trkpt><trkpt lat="42.599363" lon="-2.589325"><ele>1447.5</ele><time>2011-11-30T10:58:41Z</time></trkpt><trkpt lat="42.599362" lon="-2.589322"><ele>1447.5</ele><time>2011-11-30T10:58:42Z</time></trkpt><trkpt lat="42.599368" lon="-2.589292"><ele>1447.5</ele><time>2011-11-30T10:58:43Z</time></trkpt><trkpt lat="42.599360" lon="-2.589277"><ele>1447.5</ele><time>2011-11-30T10:58:44Z</time></trkpt><trkpt lat="42.599353" lon="-2.589305"><ele>1447.5</ele><time>2011-11-30T10:58:45Z</time></trkpt><trkpt lat="42.599388" lon="-2.589360"><ele>1447.5</ele><time>2011-11-30T10:58:47Z</time></trkpt><trkpt lat="42.599390" lon="-2.589362"><ele>1447.5</ele><time>2011-11-30T10:58:48Z</time></trkpt><trkpt lat="42.599392" lon="-2.589362"><ele>1447.5</ele><time>2011-11-30T10:58:49Z</time></trkpt><trkpt lat="42.599390" lon="-2.589358"><ele>1447.5</ele><time>2011-11-30T10:58:50Z</time></trkpt><trkpt lat="42.599388" lon="-2.589355"><ele>1447.5</ele><time>2011-11-30T10:58:51Z</time></trkpt><trkpt lat="42.599387" lon="-2.589352"><ele>1447.5</ele><time>2011-11-30T10:58:52Z</time></trkpt><trkpt lat="42.599398" lon="-2.589352"><ele>1447.5</ele><time>2011-11-30T10:58:53Z</time></trkpt><trkpt lat="42.599400" lon="-2.589345"><ele>1447.5</ele><time>2011-11-30T10:58:54Z</time></trkpt><trkpt lat="42.599398" lon="-2.589342"><ele>1447.5</ele><time>2011-11-30T10:58:55Z</time></trkpt><trkpt lat="42.599397" lon="-2.589342"><ele>1447.5</ele><time>2011-11-30T10:58:56Z</time></trkpt><trkpt lat="42.599402" lon="-2.589338"><ele>1447.5</ele><time>2011-11-30T10:58:57Z</time></trkpt><trkpt lat="42.599393" lon="-2.589325"><ele>1447.5</ele><time>2011-11-30T10:58:58Z</time></trkpt><trkpt lat="42.599395" lon="-2.589333"><ele>1447.5</ele><time>2011-11-30T10:58:59Z</time></trkpt><trkpt lat="42.599400" lon="-2.589358"><ele>1447.5</ele><time>2011-11-30T10:59:00Z</time></trkpt><trkpt lat="42.599362" lon="-2.589315"><ele>1447.5</ele><time>2011-11-30T10:59:01Z</time></trkpt><trkpt lat="42.599367" lon="-2.589322"><ele>1447.5</ele><time>2011-11-30T10:59:02Z</time></trkpt><trkpt lat="42.599335" lon="-2.589252"><ele>1447.0</ele><time>2011-11-30T10:59:03Z</time></trkpt><trkpt lat="42.599330" lon="-2.589238"><ele>1447.0</ele><time>2011-11-30T10:59:04Z</time></trkpt><trkpt lat="42.599287" lon="-2.589140"><ele>1447.0</ele><time>2011-11-30T10:59:05Z</time></trkpt><trkpt lat="42.599350" lon="-2.589243"><ele>1447.0</ele><time>2011-11-30T10:59:06Z</time></trkpt><trkpt lat="42.599345" lon="-2.589242"><ele>1447.0</ele><time>2011-11-30T10:59:07Z</time></trkpt><trkpt lat="42.599350" lon="-2.589273"><ele>1447.0</ele><time>2011-11-30T10:59:08Z</time></trkpt><trkpt lat="42.599353" lon="-2.589295"><ele>1447.0</ele><time>2011-11-30T10:59:09Z</time></trkpt><trkpt lat="42.599357" lon="-2.589303"><ele>1447.0</ele><time>2011-11-30T10:59:10Z</time></trkpt><trkpt lat="42.599365" lon="-2.589312"><ele>1447.0</ele><time>2011-11-30T10:59:11Z</time></trkpt><trkpt lat="42.599372" lon="-2.589317"><ele>1447.0</ele><time>2011-11-30T10:59:12Z</time></trkpt><trkpt lat="42.599378" lon="-2.589320"><ele>1447.0</ele><time>2011-11-30T10:59:13Z</time></trkpt><trkpt lat="42.599385" lon="-2.589325"><ele>1447.0</ele><time>2011-11-30T10:59:14Z</time></trkpt><trkpt lat="42.599390" lon="-2.589330"><ele>1447.0</ele><time>2011-11-30T10:59:15Z</time></trkpt><trkpt lat="42.599393" lon="-2.589333"><ele>1447.0</ele><time>2011-11-30T10:59:16Z</time></trkpt><trkpt lat="42.599398" lon="-2.589337"><ele>1447.0</ele><time>2011-11-30T10:59:17Z</time></trkpt><trkpt lat="42.599502" lon="-2.589273"><ele>1447.0</ele><time>2011-11-30T10:59:19Z</time></trkpt><trkpt lat="42.599542" lon="-2.589238"><ele>1447.0</ele><time>2011-11-30T10:59:21Z</time></trkpt><trkpt lat="42.599550" lon="-2.589240"><ele>1447.0</ele><time>2011-11-30T10:59:22Z</time></trkpt><trkpt lat="42.599558" lon="-2.589247"><ele>1447.0</ele><time>2011-11-30T10:59:23Z</time></trkpt><trkpt lat="42.599563" lon="-2.589257"><ele>1447.0</ele><time>2011-11-30T10:59:24Z</time></trkpt><trkpt lat="42.599565" lon="-2.589265"><ele>1447.0</ele><time>2011-11-30T10:59:25Z</time></trkpt><trkpt lat="42.599560" lon="-2.589272"><ele>1447.0</ele><time>2011-11-30T10:59:26Z</time></trkpt><trkpt lat="42.599558" lon="-2.589278"><ele>1447.0</ele><time>2011-11-30T10:59:27Z</time></trkpt><trkpt lat="42.599550" lon="-2.589290"><ele>1447.0</ele><time>2011-11-30T10:59:28Z</time></trkpt><trkpt lat="42.599542" lon="-2.589300"><ele>1447.0</ele><time>2011-11-30T10:59:29Z</time></trkpt><trkpt lat="42.599545" lon="-2.589302"><ele>1447.0</ele><time>2011-11-30T10:59:30Z</time></trkpt><trkpt lat="42.599550" lon="-2.589310"><ele>1447.0</ele><time>2011-11-30T10:59:31Z</time></trkpt><trkpt lat="42.599548" lon="-2.589312"><ele>1447.0</ele><time>2011-11-30T10:59:32Z</time></trkpt><trkpt lat="42.599542" lon="-2.589313"><ele>1447.0</ele><time>2011-11-30T10:59:33Z</time></trkpt><trkpt lat="42.599537" lon="-2.589317"><ele>1447.0</ele><time>2011-11-30T10:59:34Z</time></trkpt><trkpt lat="42.599532" lon="-2.589317"><ele>1447.0</ele><time>2011-11-30T10:59:35Z</time></trkpt><trkpt lat="42.599537" lon="-2.589317"><ele>1447.0</ele><time>2011-11-30T10:59:36Z</time></trkpt><trkpt lat="42.599537" lon="-2.589315"><ele>1447.0</ele><time>2011-11-30T10:59:37Z</time></trkpt><trkpt lat="42.599537" lon="-2.589312"><ele>1447.0</ele><time>2011-11-30T10:59:38Z</time></trkpt><trkpt lat="42.599542" lon="-2.589313"><ele>1447.0</ele><time>2011-11-30T10:59:39Z</time></trkpt><trkpt lat="42.599550" lon="-2.589315"><ele>1447.0</ele><time>2011-11-30T10:59:40Z</time></trkpt><trkpt lat="42.599555" lon="-2.589317"><ele>1447.0</ele><time>2011-11-30T10:59:41Z</time></trkpt><trkpt lat="42.599557" lon="-2.589315"><ele>1447.0</ele><time>2011-11-30T10:59:42Z</time></trkpt><trkpt lat="42.599557" lon="-2.589322"><ele>1447.0</ele><time>2011-11-30T10:59:43Z</time></trkpt><trkpt lat="42.599558" lon="-2.589330"><ele>1447.0</ele><time>2011-11-30T10:59:44Z</time></trkpt><trkpt lat="42.599562" lon="-2.589337"><ele>1447.0</ele><time>2011-11-30T10:59:45Z</time></trkpt><trkpt lat="42.599558" lon="-2.589342"><ele>1447.0</ele><time>2011-11-30T10:59:46Z</time></trkpt><trkpt lat="42.599553" lon="-2.589343"><ele>1447.0</ele><time>2011-11-30T10:59:47Z</time></trkpt><trkpt lat="42.599548" lon="-2.589343"><ele>1447.0</ele><time>2011-11-30T10:59:48Z</time></trkpt><trkpt lat="42.599540" lon="-2.589345"><ele>1447.0</ele><time>2011-11-30T10:59:49Z</time></trkpt><trkpt lat="42.599547" lon="-2.589333"><ele>1447.0</ele><time>2011-11-30T10:59:51Z</time></trkpt><trkpt lat="42.599503" lon="-2.589317"><ele>1447.0</ele><time>2011-11-30T10:59:53Z</time></trkpt><trkpt lat="42.599493" lon="-2.589312"><ele>1447.0</ele><time>2011-11-30T10:59:54Z</time></trkpt><trkpt lat="42.599487" lon="-2.589307"><ele>1447.0</ele><time>2011-11-30T10:59:55Z</time></trkpt><trkpt lat="42.599473" lon="-2.589308"><ele>1447.0</ele><time>2011-11-30T10:59:56Z</time></trkpt><trkpt lat="42.599467" lon="-2.589307"><ele>1447.0</ele><time>2011-11-30T10:59:57Z</time></trkpt><trkpt lat="42.599458" lon="-2.589300"><ele>1447.0</ele><time>2011-11-30T10:59:58Z</time></trkpt><trkpt lat="42.599495" lon="-2.589295"><ele>1447.0</ele><time>2011-11-30T10:59:59Z</time></trkpt><trkpt lat="42.599505" lon="-2.589293"><ele>1447.0</ele><time>2011-11-30T11:00:00Z</time></trkpt><trkpt lat="42.599503" lon="-2.589293"><ele>1447.0</ele><time>2011-11-30T11:00:01Z</time></trkpt><trkpt lat="42.599512" lon="-2.589295"><ele>1447.0</ele><time>2011-11-30T11:00:02Z</time></trkpt><trkpt lat="42.599510" lon="-2.589298"><ele>1447.0</ele><time>2011-11-30T11:00:03Z</time></trkpt><trkpt lat="42.599500" lon="-2.589298"><ele>1447.0</ele><time>2011-11-30T11:00:04Z</time></trkpt><trkpt lat="42.599483" lon="-2.589297"><ele>1447.0</ele><time>2011-11-30T11:00:05Z</time></trkpt><trkpt lat="42.599482" lon="-2.589292"><ele>1447.0</ele><time>2011-11-30T11:00:06Z</time></trkpt><trkpt lat="42.599473" lon="-2.589283"><ele>1447.0</ele><time>2011-11-30T11:00:07Z</time></trkpt><trkpt lat="42.599463" lon="-2.589288"><ele>1446.5</ele><time>2011-11-30T11:00:08Z</time></trkpt><trkpt lat="42.599448" lon="-2.589295"><ele>1446.5</ele><time>2011-11-30T11:00:09Z</time></trkpt><trkpt lat="42.599448" lon="-2.589298"><ele>1446.5</ele><time>2011-11-30T11:00:10Z</time></trkpt><trkpt lat="42.599440" lon="-2.589303"><ele>1446.5</ele><time>2011-11-30T11:00:11Z</time></trkpt><trkpt lat="42.599440" lon="-2.589305"><ele>1446.5</ele><time>2011-11-30T11:00:12Z</time></trkpt><trkpt lat="42.599437" lon="-2.589308"><ele>1446.5</ele><time>2011-11-30T11:00:13Z</time></trkpt><trkpt lat="42.599430" lon="-2.589317"><ele>1446.5</ele><time>2011-11-30T11:00:14Z</time></trkpt><trkpt lat="42.599423" lon="-2.589325"><ele>1446.5</ele><time>2011-11-30T11:00:15Z</time></trkpt><trkpt lat="42.599412" lon="-2.589328"><ele>1446.5</ele><time>2011-11-30T11:00:16Z</time></trkpt><trkpt lat="42.599397" lon="-2.589327"><ele>1446.5</ele><time>2011-11-30T11:00:18Z</time></trkpt><trkpt lat="42.599395" lon="-2.589328"><ele>1446.5</ele><time>2011-11-30T11:00:19Z</time></trkpt><trkpt lat="42.599393" lon="-2.589333"><ele>1446.5</ele><time>2011-11-30T11:00:20Z</time></trkpt><trkpt lat="42.599393" lon="-2.589335"><ele>1446.5</ele><time>2011-11-30T11:00:21Z</time></trkpt><trkpt lat="42.599392" lon="-2.589332"><ele>1446.5</ele><time>2011-11-30T11:00:22Z</time></trkpt><trkpt lat="42.599372" lon="-2.589347"><ele>1446.5</ele><time>2011-11-30T11:00:23Z</time></trkpt><trkpt lat="42.599375" lon="-2.589370"><ele>1446.5</ele><time>2011-11-30T11:00:24Z</time></trkpt><trkpt lat="42.599372" lon="-2.589385"><ele>1446.5</ele><time>2011-11-30T11:00:25Z</time></trkpt><trkpt lat="42.599365" lon="-2.589392"><ele>1446.5</ele><time>2011-11-30T11:00:26Z</time></trkpt><trkpt lat="42.599365" lon="-2.589378"><ele>1446.5</ele><time>2011-11-30T11:00:27Z</time></trkpt><trkpt lat="42.599358" lon="-2.589373"><ele>1446.5</ele><time>2011-11-30T11:00:28Z</time></trkpt><trkpt lat="42.599363" lon="-2.589353"><ele>1446.5</ele><time>2011-11-30T11:00:29Z</time></trkpt><trkpt lat="42.599372" lon="-2.589345"><ele>1446.5</ele><time>2011-11-30T11:00:30Z</time></trkpt><trkpt lat="42.599408" lon="-2.589392"><ele>1446.5</ele><time>2011-11-30T11:00:31Z</time></trkpt><trkpt lat="42.599420" lon="-2.589413"><ele>1446.5</ele><time>2011-11-30T11:00:32Z</time></trkpt><trkpt lat="42.599427" lon="-2.589432"><ele>1446.5</ele><time>2011-11-30T11:00:33Z</time></trkpt><trkpt lat="42.599455" lon="-2.589473"><ele>1446.5</ele><time>2011-11-30T11:00:34Z</time></trkpt><trkpt lat="42.599472" lon="-2.589495"><ele>1446.5</ele><time>2011-11-30T11:00:36Z</time></trkpt><trkpt lat="42.599482" lon="-2.589510"><ele>1446.5</ele><time>2011-11-30T11:00:37Z</time></trkpt><trkpt lat="42.599507" lon="-2.589540"><ele>1446.5</ele><time>2011-11-30T11:00:38Z</time></trkpt><trkpt lat="42.599522" lon="-2.589557"><ele>1446.5</ele><time>2011-11-30T11:00:39Z</time></trkpt><trkpt lat="42.599530" lon="-2.589570"><ele>1446.5</ele><time>2011-11-30T11:00:40Z</time></trkpt><trkpt lat="42.599537" lon="-2.589580"><ele>1446.5</ele><time>2011-11-30T11:00:41Z</time></trkpt><trkpt lat="42.599542" lon="-2.589588"><ele>1446.5</ele><time>2011-11-30T11:00:42Z</time></trkpt><trkpt lat="42.599553" lon="-2.589602"><ele>1446.5</ele><time>2011-11-30T11:00:43Z</time></trkpt><trkpt lat="42.599557" lon="-2.589612"><ele>1446.5</ele><time>2011-11-30T11:00:44Z</time></trkpt><trkpt lat="42.599558" lon="-2.589618"><ele>1446.5</ele><time>2011-11-30T11:00:45Z</time></trkpt><trkpt lat="42.599560" lon="-2.589625"><ele>1446.5</ele><time>2011-11-30T11:00:46Z</time></trkpt><trkpt lat="42.599545" lon="-2.589587"><ele>1446.5</ele><time>2011-11-30T11:00:47Z</time></trkpt><trkpt lat="42.599542" lon="-2.589577"><ele>1446.5</ele><time>2011-11-30T11:00:48Z</time></trkpt><trkpt lat="42.599538" lon="-2.589575"><ele>1446.5</ele><time>2011-11-30T11:00:50Z</time></trkpt><trkpt lat="42.599512" lon="-2.589513"><ele>1446.5</ele><time>2011-11-30T11:00:52Z</time></trkpt><trkpt lat="42.599508" lon="-2.589510"><ele>1446.5</ele><time>2011-11-30T11:00:53Z</time></trkpt><trkpt lat="42.599492" lon="-2.589467"><ele>1446.5</ele><time>2011-11-30T11:00:55Z</time></trkpt><trkpt lat="42.599485" lon="-2.589457"><ele>1446.5</ele><time>2011-11-30T11:00:56Z</time></trkpt><trkpt lat="42.599485" lon="-2.589452"><ele>1446.5</ele><time>2011-11-30T11:00:57Z</time></trkpt><trkpt lat="42.599470" lon="-2.589408"><ele>1446.5</ele><time>2011-11-30T11:00:59Z</time></trkpt><trkpt lat="42.599465" lon="-2.589400"><ele>1446.5</ele><time>2011-11-30T11:01:00Z</time></trkpt><trkpt lat="42.599462" lon="-2.589398"><ele>1446.5</ele><time>2011-11-30T11:01:01Z</time></trkpt><trkpt lat="42.599458" lon="-2.589393"><ele>1446.5</ele><time>2011-11-30T11:01:03Z</time></trkpt><trkpt lat="42.599453" lon="-2.589395"><ele>1446.5</ele><time>2011-11-30T11:01:05Z</time></trkpt><trkpt lat="42.599455" lon="-2.589415"><ele>1446.5</ele><time>2011-11-30T11:01:07Z</time></trkpt><trkpt lat="42.599457" lon="-2.589423"><ele>1446.5</ele><time>2011-11-30T11:01:08Z</time></trkpt><trkpt lat="42.599460" lon="-2.589427"><ele>1446.5</ele><time>2011-11-30T11:01:10Z</time></trkpt><trkpt lat="42.599473" lon="-2.589470"><ele>1446.5</ele><time>2011-11-30T11:01:11Z</time></trkpt><trkpt lat="42.599480" lon="-2.589487"><ele>1446.5</ele><time>2011-11-30T11:01:12Z</time></trkpt><trkpt lat="42.599483" lon="-2.589495"><ele>1446.5</ele><time>2011-11-30T11:01:13Z</time></trkpt><trkpt lat="42.599478" lon="-2.589498"><ele>1446.5</ele><time>2011-11-30T11:01:15Z</time></trkpt><trkpt lat="42.599475" lon="-2.589500"><ele>1446.5</ele><time>2011-11-30T11:01:16Z</time></trkpt><trkpt lat="42.599472" lon="-2.589503"><ele>1446.5</ele><time>2011-11-30T11:01:18Z</time></trkpt><trkpt lat="42.599458" lon="-2.589502"><ele>1446.5</ele><time>2011-11-30T11:01:19Z</time></trkpt><trkpt lat="42.599452" lon="-2.589503"><ele>1446.5</ele><time>2011-11-30T11:01:20Z</time></trkpt><trkpt lat="42.599448" lon="-2.589505"><ele>1446.5</ele><time>2011-11-30T11:01:21Z</time></trkpt><trkpt lat="42.599445" lon="-2.589507"><ele>1446.5</ele><time>2011-11-30T11:01:22Z</time></trkpt><trkpt lat="42.599423" lon="-2.589505"><ele>1446.5</ele><time>2011-11-30T11:01:27Z</time></trkpt><trkpt lat="42.599448" lon="-2.589555"><ele>1446.5</ele><time>2011-11-30T11:01:31Z</time></trkpt><trkpt lat="42.599422" lon="-2.589468"><ele>1445.0</ele><time>2011-11-30T11:01:34Z</time></trkpt><trkpt lat="42.599430" lon="-2.589480"><ele>1445.0</ele><time>2011-11-30T11:01:35Z</time></trkpt><trkpt lat="42.599437" lon="-2.589488"><ele>1445.0</ele><time>2011-11-30T11:01:36Z</time></trkpt><trkpt lat="42.599445" lon="-2.589498"><ele>1445.0</ele><time>2011-11-30T11:01:37Z</time></trkpt><trkpt lat="42.599452" lon="-2.589505"><ele>1445.0</ele><time>2011-11-30T11:01:38Z</time></trkpt><trkpt lat="42.599455" lon="-2.589513"><ele>1445.0</ele><time>2011-11-30T11:01:39Z</time></trkpt><trkpt lat="42.599457" lon="-2.589518"><ele>1445.0</ele><time>2011-11-30T11:01:40Z</time></trkpt><trkpt lat="42.599455" lon="-2.589523"><ele>1445.0</ele><time>2011-11-30T11:01:41Z</time></trkpt><trkpt lat="42.599455" lon="-2.589528"><ele>1445.0</ele><time>2011-11-30T11:01:42Z</time></trkpt><trkpt lat="42.599455" lon="-2.589530"><ele>1445.0</ele><time>2011-11-30T11:01:43Z</time></trkpt><trkpt lat="42.599438" lon="-2.589502"><ele>1445.0</ele><time>2011-11-30T11:01:44Z</time></trkpt><trkpt lat="42.599425" lon="-2.589480"><ele>1445.0</ele><time>2011-11-30T11:01:45Z</time></trkpt><trkpt lat="42.599417" lon="-2.589470"><ele>1445.0</ele><time>2011-11-30T11:01:47Z</time></trkpt><trkpt lat="42.599415" lon="-2.589468"><ele>1445.0</ele><time>2011-11-30T11:01:48Z</time></trkpt><trkpt lat="42.599427" lon="-2.589492"><ele>1445.0</ele><time>2011-11-30T11:01:49Z</time></trkpt><trkpt lat="42.599437" lon="-2.589510"><ele>1445.0</ele><time>2011-11-30T11:01:50Z</time></trkpt><trkpt lat="42.599443" lon="-2.589523"><ele>1445.0</ele><time>2011-11-30T11:01:51Z</time></trkpt><trkpt lat="42.599450" lon="-2.589533"><ele>1445.0</ele><time>2011-11-30T11:01:52Z</time></trkpt><trkpt lat="42.599452" lon="-2.589538"><ele>1445.0</ele><time>2011-11-30T11:01:53Z</time></trkpt><trkpt lat="42.599450" lon="-2.589535"><ele>1445.0</ele><time>2011-11-30T11:01:55Z</time></trkpt><trkpt lat="42.599447" lon="-2.589530"><ele>1445.0</ele><time>2011-11-30T11:01:56Z</time></trkpt><trkpt lat="42.599442" lon="-2.589532"><ele>1445.0</ele><time>2011-11-30T11:01:57Z</time></trkpt><trkpt lat="42.599435" lon="-2.589525"><ele>1445.0</ele><time>2011-11-30T11:01:58Z</time></trkpt><trkpt lat="42.599415" lon="-2.589500"><ele>1445.0</ele><time>2011-11-30T11:01:59Z</time></trkpt><trkpt lat="42.599423" lon="-2.589512"><ele>1445.0</ele><time>2011-11-30T11:02:00Z</time></trkpt><trkpt lat="42.599455" lon="-2.589553"><ele>1445.0</ele><time>2011-11-30T11:02:01Z</time></trkpt><trkpt lat="42.599463" lon="-2.589563"><ele>1445.0</ele><time>2011-11-30T11:02:02Z</time></trkpt><trkpt lat="42.599465" lon="-2.589567"><ele>1445.0</ele><time>2011-11-30T11:02:03Z</time></trkpt><trkpt lat="42.599463" lon="-2.589563"><ele>1445.0</ele><time>2011-11-30T11:02:04Z</time></trkpt><trkpt lat="42.599462" lon="-2.589550"><ele>1445.0</ele><time>2011-11-30T11:02:05Z</time></trkpt><trkpt lat="42.599457" lon="-2.589535"><ele>1445.0</ele><time>2011-11-30T11:02:06Z</time></trkpt><trkpt lat="42.599393" lon="-2.589397"><ele>1445.0</ele><time>2011-11-30T11:02:08Z</time></trkpt><trkpt lat="42.599382" lon="-2.589385"><ele>1445.0</ele><time>2011-11-30T11:02:09Z</time></trkpt><trkpt lat="42.599368" lon="-2.589372"><ele>1445.0</ele><time>2011-11-30T11:02:10Z</time></trkpt><trkpt lat="42.599363" lon="-2.589358"><ele>1445.0</ele><time>2011-11-30T11:02:11Z</time></trkpt><trkpt lat="42.599360" lon="-2.589353"><ele>1445.0</ele><time>2011-11-30T11:02:12Z</time></trkpt><trkpt lat="42.599355" lon="-2.589347"><ele>1445.0</ele><time>2011-11-30T11:02:13Z</time></trkpt><trkpt lat="42.599353" lon="-2.589343"><ele>1445.0</ele><time>2011-11-30T11:02:14Z</time></trkpt><trkpt lat="42.599352" lon="-2.589342"><ele>1445.0</ele><time>2011-11-30T11:02:15Z</time></trkpt><trkpt lat="42.599352" lon="-2.589342"><ele>1445.0</ele><time>2011-11-30T11:02:16Z</time></trkpt><trkpt lat="42.599348" lon="-2.589337"><ele>1445.0</ele><time>2011-11-30T11:02:17Z</time></trkpt><trkpt lat="42.599347" lon="-2.589335"><ele>1445.0</ele><time>2011-11-30T11:02:18Z</time></trkpt><trkpt lat="42.599345" lon="-2.589335"><ele>1445.0</ele><time>2011-11-30T11:02:19Z</time></trkpt><trkpt lat="42.599345" lon="-2.589335"><ele>1445.0</ele><time>2011-11-30T11:02:20Z</time></trkpt><trkpt lat="42.599342" lon="-2.589323"><ele>1445.0</ele><time>2011-11-30T11:02:21Z</time></trkpt><trkpt lat="42.599345" lon="-2.589320"><ele>1445.0</ele><time>2011-11-30T11:02:22Z</time></trkpt><trkpt lat="42.599347" lon="-2.589317"><ele>1445.0</ele><time>2011-11-30T11:02:23Z</time></trkpt><trkpt lat="42.599337" lon="-2.589292"><ele>1445.0</ele><time>2011-11-30T11:02:24Z</time></trkpt><trkpt lat="42.599325" lon="-2.589265"><ele>1445.0</ele><time>2011-11-30T11:02:25Z</time></trkpt><trkpt lat="42.599327" lon="-2.589248"><ele>1445.0</ele><time>2011-11-30T11:02:26Z</time></trkpt><trkpt lat="42.599323" lon="-2.589233"><ele>1445.0</ele><time>2011-11-30T11:02:27Z</time></trkpt><trkpt lat="42.599315" lon="-2.589212"><ele>1445.0</ele><time>2011-11-30T11:02:28Z</time></trkpt><trkpt lat="42.599320" lon="-2.589222"><ele>1445.0</ele><time>2011-11-30T11:02:29Z</time></trkpt><trkpt lat="42.599335" lon="-2.589225"><ele>1445.0</ele><time>2011-11-30T11:02:30Z</time></trkpt><trkpt lat="42.599342" lon="-2.589232"><ele>1445.0</ele><time>2011-11-30T11:02:31Z</time></trkpt><trkpt lat="42.599338" lon="-2.589233"><ele>1445.0</ele><time>2011-11-30T11:02:32Z</time></trkpt><trkpt lat="42.599338" lon="-2.589233"><ele>1445.0</ele><time>2011-11-30T11:02:33Z</time></trkpt><trkpt lat="42.599352" lon="-2.589230"><ele>1445.0</ele><time>2011-11-30T11:02:34Z</time></trkpt><trkpt lat="42.599353" lon="-2.589225"><ele>1445.0</ele><time>2011-11-30T11:02:35Z</time></trkpt><trkpt lat="42.599352" lon="-2.589222"><ele>1445.0</ele><time>2011-11-30T11:02:36Z</time></trkpt><trkpt lat="42.599317" lon="-2.589223"><ele>1445.0</ele><time>2011-11-30T11:02:37Z</time></trkpt><trkpt lat="42.599327" lon="-2.589290"><ele>1445.0</ele><time>2011-11-30T11:02:38Z</time></trkpt><trkpt lat="42.599332" lon="-2.589303"><ele>1445.0</ele><time>2011-11-30T11:02:39Z</time></trkpt><trkpt lat="42.599337" lon="-2.589320"><ele>1445.0</ele><time>2011-11-30T11:02:40Z</time></trkpt><trkpt lat="42.599343" lon="-2.589340"><ele>1445.0</ele><time>2011-11-30T11:02:41Z</time></trkpt><trkpt lat="42.599343" lon="-2.589343"><ele>1445.0</ele><time>2011-11-30T11:02:42Z</time></trkpt><trkpt lat="42.599345" lon="-2.589347"><ele>1445.0</ele><time>2011-11-30T11:02:43Z</time></trkpt><trkpt lat="42.599348" lon="-2.589350"><ele>1445.0</ele><time>2011-11-30T11:02:44Z</time></trkpt><trkpt lat="42.599353" lon="-2.589355"><ele>1445.0</ele><time>2011-11-30T11:02:45Z</time></trkpt><trkpt lat="42.599362" lon="-2.589358"><ele>1445.0</ele><time>2011-11-30T11:02:46Z</time></trkpt><trkpt lat="42.599365" lon="-2.589360"><ele>1445.0</ele><time>2011-11-30T11:02:47Z</time></trkpt><trkpt lat="42.599370" lon="-2.589363"><ele>1445.0</ele><time>2011-11-30T11:02:48Z</time></trkpt><trkpt lat="42.599385" lon="-2.589365"><ele>1445.0</ele><time>2011-11-30T11:02:49Z</time></trkpt><trkpt lat="42.599392" lon="-2.589365"><ele>1445.0</ele><time>2011-11-30T11:02:50Z</time></trkpt><trkpt lat="42.599395" lon="-2.589367"><ele>1445.0</ele><time>2011-11-30T11:02:51Z</time></trkpt><trkpt lat="42.599398" lon="-2.589367"><ele>1445.0</ele><time>2011-11-30T11:02:52Z</time></trkpt><trkpt lat="42.599400" lon="-2.589367"><ele>1445.0</ele><time>2011-11-30T11:02:53Z</time></trkpt><trkpt lat="42.599403" lon="-2.589368"><ele>1445.0</ele><time>2011-11-30T11:02:54Z</time></trkpt><trkpt lat="42.599408" lon="-2.589382"><ele>1445.0</ele><time>2011-11-30T11:02:55Z</time></trkpt><trkpt lat="42.599410" lon="-2.589387"><ele>1445.0</ele><time>2011-11-30T11:02:56Z</time></trkpt><trkpt lat="42.599413" lon="-2.589398"><ele>1445.0</ele><time>2011-11-30T11:02:57Z</time></trkpt><trkpt lat="42.599417" lon="-2.589412"><ele>1445.0</ele><time>2011-11-30T11:02:58Z</time></trkpt><trkpt lat="42.599420" lon="-2.589418"><ele>1445.0</ele><time>2011-11-30T11:02:59Z</time></trkpt><trkpt lat="42.599338" lon="-2.589428"><ele>1445.0</ele><time>2011-11-30T11:03:09Z</time></trkpt><trkpt lat="42.599332" lon="-2.589402"><ele>1445.0</ele><time>2011-11-30T11:03:10Z</time></trkpt><trkpt lat="42.599335" lon="-2.589365"><ele>1445.0</ele><time>2011-11-30T11:03:12Z</time></trkpt><trkpt lat="42.599393" lon="-2.589377"><ele>1444.5</ele><time>2011-11-30T11:03:13Z</time></trkpt><trkpt lat="42.599348" lon="-2.589322"><ele>1444.5</ele><time>2011-11-30T11:03:14Z</time></trkpt><trkpt lat="42.599282" lon="-2.589162"><ele>1444.5</ele><time>2011-11-30T11:03:15Z</time></trkpt><trkpt lat="42.599273" lon="-2.589142"><ele>1444.5</ele><time>2011-11-30T11:03:16Z</time></trkpt><trkpt lat="42.599273" lon="-2.589133"><ele>1444.5</ele><time>2011-11-30T11:03:17Z</time></trkpt><trkpt lat="42.599295" lon="-2.589142"><ele>1444.5</ele><time>2011-11-30T11:03:18Z</time></trkpt><trkpt lat="42.599307" lon="-2.589152"><ele>1444.5</ele><time>2011-11-30T11:03:19Z</time></trkpt><trkpt lat="42.599363" lon="-2.589202"><ele>1444.5</ele><time>2011-11-30T11:03:20Z</time></trkpt><trkpt lat="42.599310" lon="-2.589200"><ele>1444.5</ele><time>2011-11-30T11:03:21Z</time></trkpt><trkpt lat="42.599302" lon="-2.589203"><ele>1444.5</ele><time>2011-11-30T11:03:22Z</time></trkpt><trkpt lat="42.599285" lon="-2.589235"><ele>1444.5</ele><time>2011-11-30T11:03:23Z</time></trkpt><trkpt lat="42.599277" lon="-2.589245"><ele>1444.5</ele><time>2011-11-30T11:03:24Z</time></trkpt><trkpt lat="42.599270" lon="-2.589255"><ele>1444.5</ele><time>2011-11-30T11:03:25Z</time></trkpt><trkpt lat="42.599273" lon="-2.589265"><ele>1444.5</ele><time>2011-11-30T11:03:26Z</time></trkpt><trkpt lat="42.599275" lon="-2.589273"><ele>1444.5</ele><time>2011-11-30T11:03:27Z</time></trkpt><trkpt lat="42.599275" lon="-2.589280"><ele>1444.5</ele><time>2011-11-30T11:03:28Z</time></trkpt><trkpt lat="42.599275" lon="-2.589285"><ele>1444.5</ele><time>2011-11-30T11:03:29Z</time></trkpt><trkpt lat="42.599277" lon="-2.589290"><ele>1444.5</ele><time>2011-11-30T11:03:30Z</time></trkpt><trkpt lat="42.599275" lon="-2.589295"><ele>1444.5</ele><time>2011-11-30T11:03:31Z</time></trkpt><trkpt lat="42.599278" lon="-2.589297"><ele>1444.5</ele><time>2011-11-30T11:03:32Z</time></trkpt><trkpt lat="42.599348" lon="-2.589287"><ele>1444.5</ele><time>2011-11-30T11:03:34Z</time></trkpt><trkpt lat="42.599330" lon="-2.589233"><ele>1444.5</ele><time>2011-11-30T11:03:36Z</time></trkpt><trkpt lat="42.599325" lon="-2.589232"><ele>1444.5</ele><time>2011-11-30T11:03:37Z</time></trkpt><trkpt lat="42.599322" lon="-2.589235"><ele>1444.5</ele><time>2011-11-30T11:03:38Z</time></trkpt><trkpt lat="42.599317" lon="-2.589238"><ele>1444.5</ele><time>2011-11-30T11:03:39Z</time></trkpt><trkpt lat="42.599243" lon="-2.589193"><ele>1444.5</ele><time>2011-11-30T11:03:43Z</time></trkpt><trkpt lat="42.599227" lon="-2.589178"><ele>1444.5</ele><time>2011-11-30T11:03:44Z</time></trkpt><trkpt lat="42.599217" lon="-2.589175"><ele>1444.5</ele><time>2011-11-30T11:03:45Z</time></trkpt><trkpt lat="42.599215" lon="-2.589172"><ele>1444.5</ele><time>2011-11-30T11:03:46Z</time></trkpt><trkpt lat="42.599195" lon="-2.589115"><ele>1444.5</ele><time>2011-11-30T11:03:48Z</time></trkpt><trkpt lat="42.599197" lon="-2.589110"><ele>1444.5</ele><time>2011-11-30T11:03:49Z</time></trkpt><trkpt lat="42.599195" lon="-2.589108"><ele>1444.5</ele><time>2011-11-30T11:03:50Z</time></trkpt><trkpt lat="42.599162" lon="-2.589035"><ele>1444.5</ele><time>2011-11-30T11:03:52Z</time></trkpt><trkpt lat="42.599160" lon="-2.589030"><ele>1444.5</ele><time>2011-11-30T11:03:53Z</time></trkpt><trkpt lat="42.599138" lon="-2.589003"><ele>1444.5</ele><time>2011-11-30T11:03:54Z</time></trkpt><trkpt lat="42.599110" lon="-2.588942"><ele>1444.5</ele><time>2011-11-30T11:03:56Z</time></trkpt><trkpt lat="42.599108" lon="-2.588937"><ele>1444.5</ele><time>2011-11-30T11:03:57Z</time></trkpt><trkpt lat="42.599112" lon="-2.588935"><ele>1444.5</ele><time>2011-11-30T11:03:58Z</time></trkpt><trkpt lat="42.599107" lon="-2.588907"><ele>1444.5</ele><time>2011-11-30T11:03:59Z</time></trkpt><trkpt lat="42.599113" lon="-2.588905"><ele>1444.5</ele><time>2011-11-30T11:04:00Z</time></trkpt><trkpt lat="42.599122" lon="-2.588905"><ele>1444.5</ele><time>2011-11-30T11:04:01Z</time></trkpt><trkpt lat="42.599113" lon="-2.588902"><ele>1444.5</ele><time>2011-11-30T11:04:02Z</time></trkpt><trkpt lat="42.599182" lon="-2.589022"><ele>1444.5</ele><time>2011-11-30T11:04:03Z</time></trkpt><trkpt lat="42.599180" lon="-2.589013"><ele>1444.5</ele><time>2011-11-30T11:04:04Z</time></trkpt><trkpt lat="42.599178" lon="-2.589002"><ele>1444.5</ele><time>2011-11-30T11:04:05Z</time></trkpt><trkpt lat="42.599207" lon="-2.589022"><ele>1444.5</ele><time>2011-11-30T11:04:06Z</time></trkpt><trkpt lat="42.599217" lon="-2.589023"><ele>1444.5</ele><time>2011-11-30T11:04:07Z</time></trkpt><trkpt lat="42.599220" lon="-2.589022"><ele>1444.5</ele><time>2011-11-30T11:04:08Z</time></trkpt><trkpt lat="42.599228" lon="-2.589035"><ele>1444.5</ele><time>2011-11-30T11:04:09Z</time></trkpt><trkpt lat="42.599263" lon="-2.589077"><ele>1444.5</ele><time>2011-11-30T11:04:11Z</time></trkpt><trkpt lat="42.599267" lon="-2.589088"><ele>1444.5</ele><time>2011-11-30T11:04:12Z</time></trkpt><trkpt lat="42.599268" lon="-2.589098"><ele>1444.5</ele><time>2011-11-30T11:04:13Z</time></trkpt><trkpt lat="42.599273" lon="-2.589110"><ele>1444.5</ele><time>2011-11-30T11:04:14Z</time></trkpt><trkpt lat="42.599277" lon="-2.589120"><ele>1444.5</ele><time>2011-11-30T11:04:15Z</time></trkpt><trkpt lat="42.599278" lon="-2.589128"><ele>1444.5</ele><time>2011-11-30T11:04:16Z</time></trkpt><trkpt lat="42.599282" lon="-2.589137"><ele>1444.5</ele><time>2011-11-30T11:04:17Z</time></trkpt><trkpt lat="42.599290" lon="-2.589148"><ele>1444.5</ele><time>2011-11-30T11:04:18Z</time></trkpt><trkpt lat="42.599300" lon="-2.589168"><ele>1444.5</ele><time>2011-11-30T11:04:19Z</time></trkpt><trkpt lat="42.599307" lon="-2.589165"><ele>1444.5</ele><time>2011-11-30T11:04:20Z</time></trkpt><trkpt lat="42.599323" lon="-2.589188"><ele>1444.5</ele><time>2011-11-30T11:04:21Z</time></trkpt><trkpt lat="42.599343" lon="-2.589218"><ele>1444.5</ele><time>2011-11-30T11:04:22Z</time></trkpt><trkpt lat="42.599342" lon="-2.589208"><ele>1444.5</ele><time>2011-11-30T11:04:23Z</time></trkpt><trkpt lat="42.599350" lon="-2.589228"><ele>1444.5</ele><time>2011-11-30T11:04:24Z</time></trkpt><trkpt lat="42.599400" lon="-2.589307"><ele>1444.5</ele><time>2011-11-30T11:04:26Z</time></trkpt><trkpt lat="42.599410" lon="-2.589325"><ele>1444.5</ele><time>2011-11-30T11:04:27Z</time></trkpt><trkpt lat="42.599415" lon="-2.589335"><ele>1444.5</ele><time>2011-11-30T11:04:28Z</time></trkpt><trkpt lat="42.599457" lon="-2.589378"><ele>1444.5</ele><time>2011-11-30T11:04:30Z</time></trkpt><trkpt lat="42.599460" lon="-2.589390"><ele>1444.5</ele><time>2011-11-30T11:04:31Z</time></trkpt><trkpt lat="42.599458" lon="-2.589397"><ele>1444.5</ele><time>2011-11-30T11:04:32Z</time></trkpt><trkpt lat="42.599458" lon="-2.589405"><ele>1444.5</ele><time>2011-11-30T11:04:33Z</time></trkpt><trkpt lat="42.599457" lon="-2.589405"><ele>1444.5</ele><time>2011-11-30T11:04:34Z</time></trkpt><trkpt lat="42.599452" lon="-2.589402"><ele>1444.5</ele><time>2011-11-30T11:04:35Z</time></trkpt><trkpt lat="42.599448" lon="-2.589407"><ele>1444.5</ele><time>2011-11-30T11:04:36Z</time></trkpt><trkpt lat="42.599435" lon="-2.589410"><ele>1444.5</ele><time>2011-11-30T11:04:37Z</time></trkpt><trkpt lat="42.599430" lon="-2.589410"><ele>1444.5</ele><time>2011-11-30T11:04:38Z</time></trkpt><trkpt lat="42.599428" lon="-2.589408"><ele>1444.5</ele><time>2011-11-30T11:04:39Z</time></trkpt><trkpt lat="42.599427" lon="-2.589410"><ele>1444.5</ele><time>2011-11-30T11:04:40Z</time></trkpt><trkpt lat="42.599425" lon="-2.589408"><ele>1444.5</ele><time>2011-11-30T11:04:41Z</time></trkpt><trkpt lat="42.599420" lon="-2.589405"><ele>1444.5</ele><time>2011-11-30T11:04:42Z</time></trkpt><trkpt lat="42.599413" lon="-2.589398"><ele>1444.5</ele><time>2011-11-30T11:04:43Z</time></trkpt><trkpt lat="42.599402" lon="-2.589385"><ele>1444.5</ele><time>2011-11-30T11:04:44Z</time></trkpt><trkpt lat="42.599390" lon="-2.589367"><ele>1444.5</ele><time>2011-11-30T11:04:45Z</time></trkpt><trkpt lat="42.599372" lon="-2.589362"><ele>1444.5</ele><time>2011-11-30T11:04:46Z</time></trkpt><trkpt lat="42.599273" lon="-2.589285"><ele>1444.5</ele><time>2011-11-30T11:04:47Z</time></trkpt><trkpt lat="42.599263" lon="-2.589277"><ele>1442.5</ele><time>2011-11-30T11:04:48Z</time></trkpt><trkpt lat="42.599313" lon="-2.589328"><ele>1436.5</ele><time>2011-11-30T11:04:49Z</time></trkpt><trkpt lat="42.599362" lon="-2.589330"><ele>1439.5</ele><time>2011-11-30T11:04:50Z</time></trkpt><trkpt lat="42.599363" lon="-2.589327"><ele>1439.5</ele><time>2011-11-30T11:04:51Z</time></trkpt><trkpt lat="42.599353" lon="-2.589358"><ele>1439.0</ele><time>2011-11-30T11:04:52Z</time></trkpt><trkpt lat="42.599355" lon="-2.589340"><ele>1439.0</ele><time>2011-11-30T11:04:53Z</time></trkpt><trkpt lat="42.599370" lon="-2.589348"><ele>1437.5</ele><time>2011-11-30T11:04:54Z</time></trkpt><trkpt lat="42.599370" lon="-2.589343"><ele>1437.5</ele><time>2011-11-30T11:04:55Z</time></trkpt><trkpt lat="42.599370" lon="-2.589348"><ele>1437.5</ele><time>2011-11-30T11:04:56Z</time></trkpt><trkpt lat="42.599372" lon="-2.589362"><ele>1437.5</ele><time>2011-11-30T11:04:57Z</time></trkpt><trkpt lat="42.599373" lon="-2.589357"><ele>1438.0</ele><time>2011-11-30T11:04:58Z</time></trkpt><trkpt lat="42.599360" lon="-2.589337"><ele>1439.0</ele><time>2011-11-30T11:04:59Z</time></trkpt><trkpt lat="42.599362" lon="-2.589345"><ele>1439.0</ele><time>2011-11-30T11:05:00Z</time></trkpt><trkpt lat="42.599353" lon="-2.589357"><ele>1439.0</ele><time>2011-11-30T11:05:01Z</time></trkpt><trkpt lat="42.599345" lon="-2.589367"><ele>1439.0</ele><time>2011-11-30T11:05:02Z</time></trkpt><trkpt lat="42.599340" lon="-2.589373"><ele>1439.0</ele><time>2011-11-30T11:05:03Z</time></trkpt><trkpt lat="42.599337" lon="-2.589378"><ele>1439.0</ele><time>2011-11-30T11:05:04Z</time></trkpt><trkpt lat="42.599348" lon="-2.589372"><ele>1439.0</ele><time>2011-11-30T11:05:05Z</time></trkpt><trkpt lat="42.599358" lon="-2.589363"><ele>1439.0</ele><time>2011-11-30T11:05:06Z</time></trkpt><trkpt lat="42.599360" lon="-2.589363"><ele>1439.0</ele><time>2011-11-30T11:05:07Z</time></trkpt><trkpt lat="42.599368" lon="-2.589362"><ele>1439.0</ele><time>2011-11-30T11:05:08Z</time></trkpt><trkpt lat="42.599377" lon="-2.589353"><ele>1438.5</ele><time>2011-11-30T11:05:09Z</time></trkpt><trkpt lat="42.599385" lon="-2.589352"><ele>1438.5</ele><time>2011-11-30T11:05:10Z</time></trkpt><trkpt lat="42.599402" lon="-2.589357"><ele>1438.5</ele><time>2011-11-30T11:05:12Z</time></trkpt><trkpt lat="42.599400" lon="-2.589358"><ele>1438.5</ele><time>2011-11-30T11:05:13Z</time></trkpt><trkpt lat="42.599398" lon="-2.589358"><ele>1438.5</ele><time>2011-11-30T11:05:14Z</time></trkpt><trkpt lat="42.599375" lon="-2.589402"><ele>1438.5</ele><time>2011-11-30T11:05:16Z</time></trkpt><trkpt lat="42.599360" lon="-2.589403"><ele>1438.5</ele><time>2011-11-30T11:05:17Z</time></trkpt><trkpt lat="42.599308" lon="-2.589398"><ele>1437.0</ele><time>2011-11-30T11:05:18Z</time></trkpt><trkpt lat="42.599312" lon="-2.589400"><ele>1437.0</ele><time>2011-11-30T11:05:19Z</time></trkpt><trkpt lat="42.599327" lon="-2.589385"><ele>1436.5</ele><time>2011-11-30T11:05:20Z</time></trkpt><trkpt lat="42.599328" lon="-2.589387"><ele>1436.0</ele><time>2011-11-30T11:05:21Z</time></trkpt><trkpt lat="42.599332" lon="-2.589397"><ele>1436.0</ele><time>2011-11-30T11:05:22Z</time></trkpt><trkpt lat="42.599330" lon="-2.589360"><ele>1436.0</ele><time>2011-11-30T11:05:23Z</time></trkpt><trkpt lat="42.599320" lon="-2.589352"><ele>1437.0</ele><time>2011-11-30T11:05:24Z</time></trkpt><trkpt lat="42.599312" lon="-2.589357"><ele>1437.0</ele><time>2011-11-30T11:05:25Z</time></trkpt><trkpt lat="42.599293" lon="-2.589360"><ele>1437.5</ele><time>2011-11-30T11:05:26Z</time></trkpt><trkpt lat="42.599265" lon="-2.589383"><ele>1438.0</ele><time>2011-11-30T11:05:27Z</time></trkpt><trkpt lat="42.599257" lon="-2.589422"><ele>1437.5</ele><time>2011-11-30T11:05:28Z</time></trkpt><trkpt lat="42.599233" lon="-2.589262"><ele>1435.5</ele><time>2011-11-30T11:05:29Z</time></trkpt><trkpt lat="42.599217" lon="-2.589213"><ele>1434.5</ele><time>2011-11-30T11:05:30Z</time></trkpt><trkpt lat="42.599213" lon="-2.589205"><ele>1434.5</ele><time>2011-11-30T11:05:31Z</time></trkpt><trkpt lat="42.599198" lon="-2.589165"><ele>1433.5</ele><time>2011-11-30T11:05:32Z</time></trkpt><trkpt lat="42.599187" lon="-2.589138"><ele>1433.5</ele><time>2011-11-30T11:05:33Z</time></trkpt><trkpt lat="42.599180" lon="-2.589077"><ele>1431.5</ele><time>2011-11-30T11:05:34Z</time></trkpt><trkpt lat="42.599177" lon="-2.589065"><ele>1431.5</ele><time>2011-11-30T11:05:35Z</time></trkpt><trkpt lat="42.599165" lon="-2.588950"><ele>1428.5</ele><time>2011-11-30T11:05:36Z</time></trkpt><trkpt lat="42.599163" lon="-2.588923"><ele>1428.5</ele><time>2011-11-30T11:05:37Z</time></trkpt><trkpt lat="42.599165" lon="-2.588913"><ele>1428.0</ele><time>2011-11-30T11:05:38Z</time></trkpt><trkpt lat="42.599165" lon="-2.588903"><ele>1427.5</ele><time>2011-11-30T11:05:39Z</time></trkpt><trkpt lat="42.599167" lon="-2.588893"><ele>1427.0</ele><time>2011-11-30T11:05:40Z</time></trkpt><trkpt lat="42.599163" lon="-2.588878"><ele>1426.0</ele><time>2011-11-30T11:05:41Z</time></trkpt><trkpt lat="42.599163" lon="-2.588870"><ele>1425.5</ele><time>2011-11-30T11:05:42Z</time></trkpt><trkpt lat="42.599165" lon="-2.588818"><ele>1419.5</ele><time>2011-11-30T11:05:43Z</time></trkpt><trkpt lat="42.599163" lon="-2.588813"><ele>1420.0</ele><time>2011-11-30T11:05:44Z</time></trkpt><trkpt lat="42.599158" lon="-2.588808"><ele>1419.0</ele><time>2011-11-30T11:05:45Z</time></trkpt><trkpt lat="42.599162" lon="-2.588785"><ele>1417.5</ele><time>2011-11-30T11:05:46Z</time></trkpt><trkpt lat="42.599158" lon="-2.588782"><ele>1416.5</ele><time>2011-11-30T11:05:47Z</time></trkpt><trkpt lat="42.599172" lon="-2.588740"><ele>1417.5</ele><time>2011-11-30T11:05:48Z</time></trkpt><trkpt lat="42.599173" lon="-2.588732"><ele>1417.5</ele><time>2011-11-30T11:05:49Z</time></trkpt><trkpt lat="42.599178" lon="-2.588712"><ele>1416.5</ele><time>2011-11-30T11:05:50Z</time></trkpt><trkpt lat="42.599185" lon="-2.588682"><ele>1415.0</ele><time>2011-11-30T11:05:51Z</time></trkpt><trkpt lat="42.599190" lon="-2.588655"><ele>1412.0</ele><time>2011-11-30T11:05:52Z</time></trkpt><trkpt lat="42.599188" lon="-2.588643"><ele>1412.0</ele><time>2011-11-30T11:05:53Z</time></trkpt><trkpt lat="42.599302" lon="-2.588470"><ele>1414.5</ele><time>2011-11-30T11:05:54Z</time></trkpt><trkpt lat="42.599262" lon="-2.588383"><ele>1407.5</ele><time>2011-11-30T11:05:55Z</time></trkpt><trkpt lat="42.599248" lon="-2.588382"><ele>1405.5</ele><time>2011-11-30T11:05:56Z</time></trkpt><trkpt lat="42.599242" lon="-2.588383"><ele>1404.5</ele><time>2011-11-30T11:05:57Z</time></trkpt><trkpt lat="42.599238" lon="-2.588385"><ele>1403.5</ele><time>2011-11-30T11:05:58Z</time></trkpt><trkpt lat="42.599235" lon="-2.588388"><ele>1402.5</ele><time>2011-11-30T11:05:59Z</time></trkpt><trkpt lat="42.599230" lon="-2.588392"><ele>1403.0</ele><time>2011-11-30T11:06:00Z</time></trkpt><trkpt lat="42.599232" lon="-2.588402"><ele>1402.0</ele><time>2011-11-30T11:06:01Z</time></trkpt><trkpt lat="42.599230" lon="-2.588408"><ele>1401.0</ele><time>2011-11-30T11:06:02Z</time></trkpt><trkpt lat="42.599215" lon="-2.588407"><ele>1400.5</ele><time>2011-11-30T11:06:03Z</time></trkpt><trkpt lat="42.599210" lon="-2.588408"><ele>1400.0</ele><time>2011-11-30T11:06:04Z</time></trkpt><trkpt lat="42.599202" lon="-2.588413"><ele>1399.0</ele><time>2011-11-30T11:06:05Z</time></trkpt><trkpt lat="42.599205" lon="-2.588423"><ele>1397.0</ele><time>2011-11-30T11:06:06Z</time></trkpt><trkpt lat="42.599205" lon="-2.588433"><ele>1396.5</ele><time>2011-11-30T11:06:07Z</time></trkpt><trkpt lat="42.599200" lon="-2.588437"><ele>1396.5</ele><time>2011-11-30T11:06:08Z</time></trkpt><trkpt lat="42.599193" lon="-2.588440"><ele>1395.0</ele><time>2011-11-30T11:06:09Z</time></trkpt><trkpt lat="42.599122" lon="-2.588367"><ele>1393.5</ele><time>2011-11-30T11:06:10Z</time></trkpt><trkpt lat="42.599120" lon="-2.588373"><ele>1393.0</ele><time>2011-11-30T11:06:11Z</time></trkpt><trkpt lat="42.599120" lon="-2.588375"><ele>1393.0</ele><time>2011-11-30T11:06:12Z</time></trkpt><trkpt lat="42.599098" lon="-2.588333"><ele>1390.0</ele><time>2011-11-30T11:06:13Z</time></trkpt><trkpt lat="42.599047" lon="-2.588240"><ele>1386.0</ele><time>2011-11-30T11:06:14Z</time></trkpt><trkpt lat="42.599010" lon="-2.588093"><ele>1380.5</ele><time>2011-11-30T11:06:15Z</time></trkpt><trkpt lat="42.599003" lon="-2.588067"><ele>1378.5</ele><time>2011-11-30T11:06:16Z</time></trkpt><trkpt lat="42.598988" lon="-2.588038"><ele>1379.0</ele><time>2011-11-30T11:06:17Z</time></trkpt><trkpt lat="42.598987" lon="-2.588038"><ele>1379.5</ele><time>2011-11-30T11:06:18Z</time></trkpt><trkpt lat="42.598985" lon="-2.588030"><ele>1381.0</ele><time>2011-11-30T11:06:19Z</time></trkpt><trkpt lat="42.598992" lon="-2.587888"><ele>1375.5</ele><time>2011-11-30T11:06:20Z</time></trkpt><trkpt lat="42.598990" lon="-2.587873"><ele>1375.0</ele><time>2011-11-30T11:06:21Z</time></trkpt><trkpt lat="42.599002" lon="-2.587832"><ele>1369.5</ele><time>2011-11-30T11:06:22Z</time></trkpt><trkpt lat="42.599003" lon="-2.587810"><ele>1365.0</ele><time>2011-11-30T11:06:23Z</time></trkpt><trkpt lat="42.599013" lon="-2.587772"><ele>1366.5</ele><time>2011-11-30T11:06:24Z</time></trkpt><trkpt lat="42.599145" lon="-2.587465"><ele>1360.5</ele><time>2011-11-30T11:06:25Z</time></trkpt><trkpt lat="42.599140" lon="-2.587403"><ele>1353.0</ele><time>2011-11-30T11:06:26Z</time></trkpt><trkpt lat="42.599138" lon="-2.587397"><ele>1351.5</ele><time>2011-11-30T11:06:27Z</time></trkpt><trkpt lat="42.599148" lon="-2.587343"><ele>1347.0</ele><time>2011-11-30T11:06:28Z</time></trkpt><trkpt lat="42.599158" lon="-2.587290"><ele>1349.0</ele><time>2011-11-30T11:06:29Z</time></trkpt><trkpt lat="42.599183" lon="-2.587257"><ele>1350.0</ele><time>2011-11-30T11:06:31Z</time></trkpt><trkpt lat="42.599202" lon="-2.587173"><ele>1350.0</ele><time>2011-11-30T11:06:32Z</time></trkpt><trkpt lat="42.599207" lon="-2.587162"><ele>1350.0</ele><time>2011-11-30T11:06:33Z</time></trkpt><trkpt lat="42.599223" lon="-2.587093"><ele>1340.5</ele><time>2011-11-30T11:06:34Z</time></trkpt><trkpt lat="42.599242" lon="-2.587068"><ele>1335.0</ele><time>2011-11-30T11:06:35Z</time></trkpt><trkpt lat="42.599250" lon="-2.587053"><ele>1332.5</ele><time>2011-11-30T11:06:36Z</time></trkpt><trkpt lat="42.599265" lon="-2.586923"><ele>1331.5</ele><time>2011-11-30T11:06:37Z</time></trkpt><trkpt lat="42.599262" lon="-2.586917"><ele>1330.0</ele><time>2011-11-30T11:06:38Z</time></trkpt><trkpt lat="42.599277" lon="-2.586893"><ele>1326.5</ele><time>2011-11-30T11:06:39Z</time></trkpt><trkpt lat="42.599340" lon="-2.586873"><ele>1312.0</ele><time>2011-11-30T11:06:40Z</time></trkpt><trkpt lat="42.599358" lon="-2.586743"><ele>1320.0</ele><time>2011-11-30T11:06:41Z</time></trkpt><trkpt lat="42.599353" lon="-2.586748"><ele>1319.0</ele><time>2011-11-30T11:06:42Z</time></trkpt><trkpt lat="42.599382" lon="-2.586622"><ele>1328.0</ele><time>2011-11-30T11:06:43Z</time></trkpt><trkpt lat="42.599313" lon="-2.586490"><ele>1325.5</ele><time>2011-11-30T11:06:44Z</time></trkpt><trkpt lat="42.599303" lon="-2.586480"><ele>1325.5</ele><time>2011-11-30T11:06:45Z</time></trkpt><trkpt lat="42.599258" lon="-2.586130"><ele>1314.5</ele><time>2011-11-30T11:06:46Z</time></trkpt><trkpt lat="42.599237" lon="-2.586083"><ele>1307.0</ele><time>2011-11-30T11:06:47Z</time></trkpt><trkpt lat="42.599233" lon="-2.586047"><ele>1303.0</ele><time>2011-11-30T11:06:48Z</time></trkpt><trkpt lat="42.599222" lon="-2.585742"><ele>1297.0</ele><time>2011-11-30T11:06:49Z</time></trkpt><trkpt lat="42.599218" lon="-2.585737"><ele>1296.5</ele><time>2011-11-30T11:06:50Z</time></trkpt><trkpt lat="42.599220" lon="-2.585728"><ele>1296.0</ele><time>2011-11-30T11:06:51Z</time></trkpt><trkpt lat="42.599268" lon="-2.585555"><ele>1300.0</ele><time>2011-11-30T11:06:52Z</time></trkpt><trkpt lat="42.599287" lon="-2.585408"><ele>1297.5</ele><time>2011-11-30T11:06:53Z</time></trkpt><trkpt lat="42.599305" lon="-2.585343"><ele>1297.5</ele><time>2011-11-30T11:06:54Z</time></trkpt><trkpt lat="42.599308" lon="-2.585330"><ele>1297.5</ele><time>2011-11-30T11:06:55Z</time></trkpt><trkpt lat="42.599317" lon="-2.585323"><ele>1297.5</ele><time>2011-11-30T11:06:56Z</time></trkpt><trkpt lat="42.599388" lon="-2.585205"><ele>1283.5</ele><time>2011-11-30T11:06:57Z</time></trkpt><trkpt lat="42.599403" lon="-2.585117"><ele>1281.0</ele><time>2011-11-30T11:06:58Z</time></trkpt><trkpt lat="42.599405" lon="-2.585093"><ele>1280.0</ele><time>2011-11-30T11:06:59Z</time></trkpt><trkpt lat="42.599463" lon="-2.585002"><ele>1280.5</ele><time>2011-11-30T11:07:00Z</time></trkpt><trkpt lat="42.599462" lon="-2.584988"><ele>1279.5</ele><time>2011-11-30T11:07:01Z</time></trkpt><trkpt lat="42.599460" lon="-2.584980"><ele>1278.5</ele><time>2011-11-30T11:07:02Z</time></trkpt><trkpt lat="42.599470" lon="-2.584968"><ele>1279.5</ele><time>2011-11-30T11:07:03Z</time></trkpt><trkpt lat="42.599475" lon="-2.584942"><ele>1273.5</ele><time>2011-11-30T11:07:04Z</time></trkpt><trkpt lat="42.599565" lon="-2.584830"><ele>1264.5</ele><time>2011-11-30T11:07:05Z</time></trkpt><trkpt lat="42.599572" lon="-2.584802"><ele>1262.0</ele><time>2011-11-30T11:07:06Z</time></trkpt><trkpt lat="42.599565" lon="-2.584765"><ele>1259.0</ele><time>2011-11-30T11:07:07Z</time></trkpt><trkpt lat="42.599572" lon="-2.584753"><ele>1256.5</ele><time>2011-11-30T11:07:08Z</time></trkpt><trkpt lat="42.599582" lon="-2.584743"><ele>1253.0</ele><time>2011-11-30T11:07:09Z</time></trkpt><trkpt lat="42.599677" lon="-2.584653"><ele>1258.0</ele><time>2011-11-30T11:07:12Z</time></trkpt><trkpt lat="42.599740" lon="-2.584517"><ele>1243.5</ele><time>2011-11-30T11:07:13Z</time></trkpt><trkpt lat="42.599745" lon="-2.584473"><ele>1244.0</ele><time>2011-11-30T11:07:15Z</time></trkpt><trkpt lat="42.599747" lon="-2.584467"><ele>1243.5</ele><time>2011-11-30T11:07:16Z</time></trkpt><trkpt lat="42.599752" lon="-2.584442"><ele>1244.5</ele><time>2011-11-30T11:07:17Z</time></trkpt><trkpt lat="42.599747" lon="-2.584435"><ele>1244.5</ele><time>2011-11-30T11:07:18Z</time></trkpt><trkpt lat="42.599772" lon="-2.584373"><ele>1247.0</ele><time>2011-11-30T11:07:19Z</time></trkpt><trkpt lat="42.599813" lon="-2.584310"><ele>1253.5</ele><time>2011-11-30T11:07:20Z</time></trkpt><trkpt lat="42.599817" lon="-2.584290"><ele>1254.0</ele><time>2011-11-30T11:07:21Z</time></trkpt><trkpt lat="42.599820" lon="-2.584263"><ele>1255.5</ele><time>2011-11-30T11:07:22Z</time></trkpt><trkpt lat="42.599827" lon="-2.584255"><ele>1255.5</ele><time>2011-11-30T11:07:23Z</time></trkpt><trkpt lat="42.599833" lon="-2.584182"><ele>1255.5</ele><time>2011-11-30T11:07:24Z</time></trkpt><trkpt lat="42.599833" lon="-2.584162"><ele>1255.0</ele><time>2011-11-30T11:07:25Z</time></trkpt><trkpt lat="42.599923" lon="-2.584007"><ele>1268.5</ele><time>2011-11-30T11:07:26Z</time></trkpt><trkpt lat="42.599950" lon="-2.583962"><ele>1266.5</ele><time>2011-11-30T11:07:27Z</time></trkpt><trkpt lat="42.599955" lon="-2.583938"><ele>1267.0</ele><time>2011-11-30T11:07:28Z</time></trkpt><trkpt lat="42.599957" lon="-2.583902"><ele>1263.5</ele><time>2011-11-30T11:07:29Z</time></trkpt><trkpt lat="42.599962" lon="-2.583890"><ele>1261.5</ele><time>2011-11-30T11:07:30Z</time></trkpt><trkpt lat="42.599970" lon="-2.583865"><ele>1260.5</ele><time>2011-11-30T11:07:31Z</time></trkpt><trkpt lat="42.599973" lon="-2.583795"><ele>1259.5</ele><time>2011-11-30T11:07:32Z</time></trkpt><trkpt lat="42.599982" lon="-2.583785"><ele>1259.0</ele><time>2011-11-30T11:07:33Z</time></trkpt><trkpt lat="42.599982" lon="-2.583738"><ele>1254.0</ele><time>2011-11-30T11:07:34Z</time></trkpt><trkpt lat="42.599980" lon="-2.583722"><ele>1251.0</ele><time>2011-11-30T11:07:35Z</time></trkpt><trkpt lat="42.599985" lon="-2.583707"><ele>1250.5</ele><time>2011-11-30T11:07:36Z</time></trkpt><trkpt lat="42.600007" lon="-2.583662"><ele>1247.5</ele><time>2011-11-30T11:07:37Z</time></trkpt><trkpt lat="42.600007" lon="-2.583622"><ele>1243.5</ele><time>2011-11-30T11:07:38Z</time></trkpt><trkpt lat="42.600023" lon="-2.583565"><ele>1237.5</ele><time>2011-11-30T11:07:39Z</time></trkpt><trkpt lat="42.600023" lon="-2.583555"><ele>1237.0</ele><time>2011-11-30T11:07:40Z</time></trkpt><trkpt lat="42.600027" lon="-2.583543"><ele>1237.0</ele><time>2011-11-30T11:07:41Z</time></trkpt><trkpt lat="42.600043" lon="-2.583508"><ele>1236.0</ele><time>2011-11-30T11:07:42Z</time></trkpt><trkpt lat="42.600053" lon="-2.583490"><ele>1237.0</ele><time>2011-11-30T11:07:43Z</time></trkpt><trkpt lat="42.600085" lon="-2.583455"><ele>1240.0</ele><time>2011-11-30T11:07:45Z</time></trkpt><trkpt lat="42.600100" lon="-2.583438"><ele>1240.0</ele><time>2011-11-30T11:07:46Z</time></trkpt><trkpt lat="42.600097" lon="-2.583410"><ele>1237.5</ele><time>2011-11-30T11:07:47Z</time></trkpt><trkpt lat="42.600097" lon="-2.583403"><ele>1237.0</ele><time>2011-11-30T11:07:48Z</time></trkpt><trkpt lat="42.600103" lon="-2.583385"><ele>1237.5</ele><time>2011-11-30T11:07:49Z</time></trkpt><trkpt lat="42.600107" lon="-2.583375"><ele>1238.5</ele><time>2011-11-30T11:07:50Z</time></trkpt><trkpt lat="42.600107" lon="-2.583352"><ele>1239.0</ele><time>2011-11-30T11:07:51Z</time></trkpt><trkpt lat="42.600113" lon="-2.583332"><ele>1240.0</ele><time>2011-11-30T11:07:52Z</time></trkpt><trkpt lat="42.600113" lon="-2.583318"><ele>1239.5</ele><time>2011-11-30T11:07:53Z</time></trkpt><trkpt lat="42.600112" lon="-2.583303"><ele>1239.5</ele><time>2011-11-30T11:07:54Z</time></trkpt><trkpt lat="42.600110" lon="-2.583295"><ele>1239.5</ele><time>2011-11-30T11:07:55Z</time></trkpt><trkpt lat="42.600143" lon="-2.583235"><ele>1244.5</ele><time>2011-11-30T11:07:56Z</time></trkpt><trkpt lat="42.600147" lon="-2.583227"><ele>1244.5</ele><time>2011-11-30T11:07:57Z</time></trkpt><trkpt lat="42.600145" lon="-2.583185"><ele>1245.0</ele><time>2011-11-30T11:07:58Z</time></trkpt><trkpt lat="42.600147" lon="-2.583175"><ele>1245.0</ele><time>2011-11-30T11:07:59Z</time></trkpt><trkpt lat="42.600147" lon="-2.583155"><ele>1245.5</ele><time>2011-11-30T11:08:00Z</time></trkpt><trkpt lat="42.600147" lon="-2.583147"><ele>1245.5</ele><time>2011-11-30T11:08:01Z</time></trkpt><trkpt lat="42.600145" lon="-2.583140"><ele>1245.0</ele><time>2011-11-30T11:08:02Z</time></trkpt><trkpt lat="42.600148" lon="-2.583130"><ele>1245.0</ele><time>2011-11-30T11:08:03Z</time></trkpt><trkpt lat="42.600148" lon="-2.583118"><ele>1245.5</ele><time>2011-11-30T11:08:04Z</time></trkpt><trkpt lat="42.600155" lon="-2.583105"><ele>1246.5</ele><time>2011-11-30T11:08:05Z</time></trkpt><trkpt lat="42.600185" lon="-2.582942"><ele>1254.0</ele><time>2011-11-30T11:08:06Z</time></trkpt><trkpt lat="42.600187" lon="-2.582927"><ele>1254.5</ele><time>2011-11-30T11:08:07Z</time></trkpt><trkpt lat="42.600193" lon="-2.582855"><ele>1250.5</ele><time>2011-11-30T11:08:08Z</time></trkpt><trkpt lat="42.600200" lon="-2.582863"><ele>1250.0</ele><time>2011-11-30T11:08:09Z</time></trkpt><trkpt lat="42.600217" lon="-2.582860"><ele>1248.5</ele><time>2011-11-30T11:08:10Z</time></trkpt><trkpt lat="42.600235" lon="-2.582848"><ele>1246.5</ele><time>2011-11-30T11:08:11Z</time></trkpt><trkpt lat="42.600242" lon="-2.582845"><ele>1246.0</ele><time>2011-11-30T11:08:12Z</time></trkpt><trkpt lat="42.600315" lon="-2.582675"><ele>1256.5</ele><time>2011-11-30T11:08:13Z</time></trkpt><trkpt lat="42.600350" lon="-2.582632"><ele>1259.0</ele><time>2011-11-30T11:08:14Z</time></trkpt><trkpt lat="42.600358" lon="-2.582627"><ele>1259.0</ele><time>2011-11-30T11:08:15Z</time></trkpt><trkpt lat="42.600377" lon="-2.582620"><ele>1260.0</ele><time>2011-11-30T11:08:16Z</time></trkpt><trkpt lat="42.600393" lon="-2.582605"><ele>1261.0</ele><time>2011-11-30T11:08:17Z</time></trkpt><trkpt lat="42.600390" lon="-2.582600"><ele>1261.0</ele><time>2011-11-30T11:08:18Z</time></trkpt><trkpt lat="42.600453" lon="-2.582587"><ele>1265.0</ele><time>2011-11-30T11:08:19Z</time></trkpt><trkpt lat="42.600508" lon="-2.582558"><ele>1268.5</ele><time>2011-11-30T11:08:21Z</time></trkpt><trkpt lat="42.600517" lon="-2.582557"><ele>1269.0</ele><time>2011-11-30T11:08:22Z</time></trkpt><trkpt lat="42.600525" lon="-2.582557"><ele>1269.0</ele><time>2011-11-30T11:08:23Z</time></trkpt><trkpt lat="42.600535" lon="-2.582563"><ele>1269.0</ele><time>2011-11-30T11:08:24Z</time></trkpt><trkpt lat="42.600535" lon="-2.582572"><ele>1268.0</ele><time>2011-11-30T11:08:25Z</time></trkpt><trkpt lat="42.600535" lon="-2.582580"><ele>1266.5</ele><time>2011-11-30T11:08:26Z</time></trkpt><trkpt lat="42.600537" lon="-2.582585"><ele>1265.0</ele><time>2011-11-30T11:08:27Z</time></trkpt><trkpt lat="42.600540" lon="-2.582588"><ele>1264.0</ele><time>2011-11-30T11:08:28Z</time></trkpt><trkpt lat="42.600543" lon="-2.582590"><ele>1263.0</ele><time>2011-11-30T11:08:29Z</time></trkpt><trkpt lat="42.600545" lon="-2.582587"><ele>1262.0</ele><time>2011-11-30T11:08:30Z</time></trkpt><trkpt lat="42.600547" lon="-2.582583"><ele>1261.5</ele><time>2011-11-30T11:08:31Z</time></trkpt><trkpt lat="42.600548" lon="-2.582582"><ele>1261.0</ele><time>2011-11-30T11:08:32Z</time></trkpt><trkpt lat="42.600562" lon="-2.582580"><ele>1261.0</ele><time>2011-11-30T11:08:33Z</time></trkpt><trkpt lat="42.600575" lon="-2.582575"><ele>1260.5</ele><time>2011-11-30T11:08:34Z</time></trkpt><trkpt lat="42.600587" lon="-2.582570"><ele>1260.5</ele><time>2011-11-30T11:08:35Z</time></trkpt><trkpt lat="42.600592" lon="-2.582565"><ele>1260.0</ele><time>2011-11-30T11:08:36Z</time></trkpt><trkpt lat="42.600600" lon="-2.582562"><ele>1260.0</ele><time>2011-11-30T11:08:37Z</time></trkpt><trkpt lat="42.600608" lon="-2.582558"><ele>1260.0</ele><time>2011-11-30T11:08:38Z</time></trkpt><trkpt lat="42.600615" lon="-2.582553"><ele>1260.0</ele><time>2011-11-30T11:08:39Z</time></trkpt><trkpt lat="42.600627" lon="-2.582553"><ele>1259.0</ele><time>2011-11-30T11:08:40Z</time></trkpt><trkpt lat="42.600635" lon="-2.582548"><ele>1259.5</ele><time>2011-11-30T11:08:41Z</time></trkpt><trkpt lat="42.600617" lon="-2.582545"><ele>1259.0</ele><time>2011-11-30T11:08:42Z</time></trkpt><trkpt lat="42.600608" lon="-2.582540"><ele>1259.0</ele><time>2011-11-30T11:08:43Z</time></trkpt><trkpt lat="42.600600" lon="-2.582537"><ele>1259.0</ele><time>2011-11-30T11:08:44Z</time></trkpt><trkpt lat="42.600595" lon="-2.582527"><ele>1258.5</ele><time>2011-11-30T11:08:45Z</time></trkpt><trkpt lat="42.600583" lon="-2.582518"><ele>1258.0</ele><time>2011-11-30T11:08:46Z</time></trkpt><trkpt lat="42.600577" lon="-2.582525"><ele>1258.0</ele><time>2011-11-30T11:08:47Z</time></trkpt><trkpt lat="42.600568" lon="-2.582527"><ele>1258.0</ele><time>2011-11-30T11:08:48Z</time></trkpt><trkpt lat="42.600560" lon="-2.582525"><ele>1257.5</ele><time>2011-11-30T11:08:49Z</time></trkpt><trkpt lat="42.600548" lon="-2.582522"><ele>1258.0</ele><time>2011-11-30T11:08:50Z</time></trkpt><trkpt lat="42.600537" lon="-2.582518"><ele>1258.0</ele><time>2011-11-30T11:08:51Z</time></trkpt><trkpt lat="42.600528" lon="-2.582512"><ele>1258.0</ele><time>2011-11-30T11:08:52Z</time></trkpt><trkpt lat="42.600518" lon="-2.582507"><ele>1258.0</ele><time>2011-11-30T11:08:53Z</time></trkpt><trkpt lat="42.600508" lon="-2.582505"><ele>1258.0</ele><time>2011-11-30T11:08:54Z</time></trkpt><trkpt lat="42.600503" lon="-2.582507"><ele>1258.0</ele><time>2011-11-30T11:08:55Z</time></trkpt><trkpt lat="42.600493" lon="-2.582503"><ele>1258.0</ele><time>2011-11-30T11:08:56Z</time></trkpt><trkpt lat="42.600485" lon="-2.582497"><ele>1258.0</ele><time>2011-11-30T11:08:57Z</time></trkpt><trkpt lat="42.600477" lon="-2.582490"><ele>1258.0</ele><time>2011-11-30T11:08:58Z</time></trkpt><trkpt lat="42.600470" lon="-2.582475"><ele>1258.5</ele><time>2011-11-30T11:08:59Z</time></trkpt><trkpt lat="42.600465" lon="-2.582487"><ele>1258.5</ele><time>2011-11-30T11:09:00Z</time></trkpt><trkpt lat="42.600457" lon="-2.582492"><ele>1258.5</ele><time>2011-11-30T11:09:01Z</time></trkpt><trkpt lat="42.600452" lon="-2.582495"><ele>1258.5</ele><time>2011-11-30T11:09:02Z</time></trkpt><trkpt lat="42.600445" lon="-2.582498"><ele>1259.0</ele><time>2011-11-30T11:09:03Z</time></trkpt><trkpt lat="42.600438" lon="-2.582502"><ele>1259.0</ele><time>2011-11-30T11:09:04Z</time></trkpt><trkpt lat="42.600435" lon="-2.582507"><ele>1259.0</ele><time>2011-11-30T11:09:05Z</time></trkpt><trkpt lat="42.600427" lon="-2.582508"><ele>1259.5</ele><time>2011-11-30T11:09:06Z</time></trkpt><trkpt lat="42.600418" lon="-2.582517"><ele>1260.0</ele><time>2011-11-30T11:09:07Z</time></trkpt><trkpt lat="42.600402" lon="-2.582522"><ele>1259.5</ele><time>2011-11-30T11:09:08Z</time></trkpt><trkpt lat="42.600397" lon="-2.582523"><ele>1260.5</ele><time>2011-11-30T11:09:09Z</time></trkpt><trkpt lat="42.600403" lon="-2.582523"><ele>1260.0</ele><time>2011-11-30T11:09:10Z</time></trkpt><trkpt lat="42.600405" lon="-2.582532"><ele>1258.0</ele><time>2011-11-30T11:09:11Z</time></trkpt><trkpt lat="42.600415" lon="-2.582530"><ele>1258.0</ele><time>2011-11-30T11:09:12Z</time></trkpt><trkpt lat="42.600440" lon="-2.582527"><ele>1256.0</ele><time>2011-11-30T11:09:13Z</time></trkpt><trkpt lat="42.600463" lon="-2.582527"><ele>1257.0</ele><time>2011-11-30T11:09:14Z</time></trkpt><trkpt lat="42.600477" lon="-2.582518"><ele>1257.5</ele><time>2011-11-30T11:09:15Z</time></trkpt><trkpt lat="42.600485" lon="-2.582503"><ele>1257.0</ele><time>2011-11-30T11:09:16Z</time></trkpt><trkpt lat="42.600495" lon="-2.582495"><ele>1257.0</ele><time>2011-11-30T11:09:17Z</time></trkpt><trkpt lat="42.600507" lon="-2.582493"><ele>1257.5</ele><time>2011-11-30T11:09:18Z</time></trkpt><trkpt lat="42.600520" lon="-2.582492"><ele>1257.5</ele><time>2011-11-30T11:09:19Z</time></trkpt><trkpt lat="42.600535" lon="-2.582490"><ele>1258.0</ele><time>2011-11-30T11:09:20Z</time></trkpt><trkpt lat="42.600545" lon="-2.582493"><ele>1258.0</ele><time>2011-11-30T11:09:21Z</time></trkpt><trkpt lat="42.600552" lon="-2.582495"><ele>1258.0</ele><time>2011-11-30T11:09:22Z</time></trkpt><trkpt lat="42.600567" lon="-2.582488"><ele>1258.0</ele><time>2011-11-30T11:09:23Z</time></trkpt><trkpt lat="42.600572" lon="-2.582482"><ele>1258.0</ele><time>2011-11-30T11:09:24Z</time></trkpt><trkpt lat="42.600573" lon="-2.582420"><ele>1257.5</ele><time>2011-11-30T11:09:25Z</time></trkpt><trkpt lat="42.600595" lon="-2.582393"><ele>1257.0</ele><time>2011-11-30T11:09:26Z</time></trkpt><trkpt lat="42.600602" lon="-2.582393"><ele>1256.5</ele><time>2011-11-30T11:09:27Z</time></trkpt><trkpt lat="42.600612" lon="-2.582393"><ele>1256.0</ele><time>2011-11-30T11:09:28Z</time></trkpt><trkpt lat="42.600625" lon="-2.582368"><ele>1255.5</ele><time>2011-11-30T11:09:29Z</time></trkpt><trkpt lat="42.600628" lon="-2.582360"><ele>1255.0</ele><time>2011-11-30T11:09:30Z</time></trkpt><trkpt lat="42.600635" lon="-2.582353"><ele>1255.0</ele><time>2011-11-30T11:09:31Z</time></trkpt><trkpt lat="42.600642" lon="-2.582347"><ele>1255.0</ele><time>2011-11-30T11:09:32Z</time></trkpt><trkpt lat="42.600650" lon="-2.582342"><ele>1255.0</ele><time>2011-11-30T11:09:33Z</time></trkpt><trkpt lat="42.600660" lon="-2.582335"><ele>1254.5</ele><time>2011-11-30T11:09:34Z</time></trkpt><trkpt lat="42.600678" lon="-2.582302"><ele>1254.0</ele><time>2011-11-30T11:09:35Z</time></trkpt><trkpt lat="42.600678" lon="-2.582288"><ele>1254.0</ele><time>2011-11-30T11:09:36Z</time></trkpt><trkpt lat="42.600678" lon="-2.582280"><ele>1254.0</ele><time>2011-11-30T11:09:37Z</time></trkpt><trkpt lat="42.600678" lon="-2.582272"><ele>1254.0</ele><time>2011-11-30T11:09:38Z</time></trkpt><trkpt lat="42.600680" lon="-2.582263"><ele>1254.0</ele><time>2011-11-30T11:09:39Z</time></trkpt><trkpt lat="42.600678" lon="-2.582253"><ele>1254.0</ele><time>2011-11-30T11:09:40Z</time></trkpt><trkpt lat="42.600678" lon="-2.582243"><ele>1254.0</ele><time>2011-11-30T11:09:41Z</time></trkpt><trkpt lat="42.600683" lon="-2.582222"><ele>1253.5</ele><time>2011-11-30T11:09:42Z</time></trkpt><trkpt lat="42.600685" lon="-2.582212"><ele>1253.5</ele><time>2011-11-30T11:09:43Z</time></trkpt><trkpt lat="42.600705" lon="-2.582173"><ele>1254.0</ele><time>2011-11-30T11:09:44Z</time></trkpt><trkpt lat="42.600705" lon="-2.582163"><ele>1254.0</ele><time>2011-11-30T11:09:45Z</time></trkpt><trkpt lat="42.600705" lon="-2.582155"><ele>1254.0</ele><time>2011-11-30T11:09:46Z</time></trkpt><trkpt lat="42.600707" lon="-2.582147"><ele>1254.0</ele><time>2011-11-30T11:09:47Z</time></trkpt><trkpt lat="42.600705" lon="-2.582138"><ele>1253.5</ele><time>2011-11-30T11:09:48Z</time></trkpt><trkpt lat="42.600705" lon="-2.582128"><ele>1254.0</ele><time>2011-11-30T11:09:49Z</time></trkpt><trkpt lat="42.600700" lon="-2.582118"><ele>1254.0</ele><time>2011-11-30T11:09:50Z</time></trkpt><trkpt lat="42.600698" lon="-2.582112"><ele>1254.0</ele><time>2011-11-30T11:09:51Z</time></trkpt><trkpt lat="42.600693" lon="-2.582102"><ele>1253.5</ele><time>2011-11-30T11:09:52Z</time></trkpt><trkpt lat="42.600690" lon="-2.582095"><ele>1253.5</ele><time>2011-11-30T11:09:53Z</time></trkpt><trkpt lat="42.600688" lon="-2.582082"><ele>1253.0</ele><time>2011-11-30T11:09:54Z</time></trkpt><trkpt lat="42.600688" lon="-2.582065"><ele>1252.5</ele><time>2011-11-30T11:09:55Z</time></trkpt><trkpt lat="42.600690" lon="-2.582053"><ele>1252.5</ele><time>2011-11-30T11:09:56Z</time></trkpt><trkpt lat="42.600687" lon="-2.582045"><ele>1252.5</ele><time>2011-11-30T11:09:57Z</time></trkpt><trkpt lat="42.600682" lon="-2.582017"><ele>1251.5</ele><time>2011-11-30T11:09:58Z</time></trkpt><trkpt lat="42.600680" lon="-2.582003"><ele>1251.5</ele><time>2011-11-30T11:09:59Z</time></trkpt><trkpt lat="42.600677" lon="-2.581995"><ele>1251.0</ele><time>2011-11-30T11:10:00Z</time></trkpt><trkpt lat="42.600672" lon="-2.581987"><ele>1251.0</ele><time>2011-11-30T11:10:01Z</time></trkpt><trkpt lat="42.600668" lon="-2.581978"><ele>1250.5</ele><time>2011-11-30T11:10:02Z</time></trkpt><trkpt lat="42.600668" lon="-2.581967"><ele>1250.5</ele><time>2011-11-30T11:10:03Z</time></trkpt><trkpt lat="42.600670" lon="-2.581957"><ele>1250.5</ele><time>2011-11-30T11:10:04Z</time></trkpt><trkpt lat="42.600675" lon="-2.581948"><ele>1250.5</ele><time>2011-11-30T11:10:05Z</time></trkpt><trkpt lat="42.600680" lon="-2.581935"><ele>1250.0</ele><time>2011-11-30T11:10:06Z</time></trkpt><trkpt lat="42.600690" lon="-2.581927"><ele>1250.5</ele><time>2011-11-30T11:10:07Z</time></trkpt><trkpt lat="42.600695" lon="-2.581927"><ele>1250.5</ele><time>2011-11-30T11:10:08Z</time></trkpt><trkpt lat="42.600700" lon="-2.581920"><ele>1250.0</ele><time>2011-11-30T11:10:09Z</time></trkpt><trkpt lat="42.600702" lon="-2.581908"><ele>1250.0</ele><time>2011-11-30T11:10:10Z</time></trkpt><trkpt lat="42.600703" lon="-2.581898"><ele>1250.0</ele><time>2011-11-30T11:10:11Z</time></trkpt><trkpt lat="42.600705" lon="-2.581885"><ele>1250.0</ele><time>2011-11-30T11:10:12Z</time></trkpt><trkpt lat="42.600705" lon="-2.581873"><ele>1250.0</ele><time>2011-11-30T11:10:13Z</time></trkpt><trkpt lat="42.600705" lon="-2.581862"><ele>1250.0</ele><time>2011-11-30T11:10:14Z</time></trkpt><trkpt lat="42.600703" lon="-2.581848"><ele>1250.0</ele><time>2011-11-30T11:10:15Z</time></trkpt><trkpt lat="42.600698" lon="-2.581818"><ele>1249.5</ele><time>2011-11-30T11:10:17Z</time></trkpt><trkpt lat="42.600695" lon="-2.581805"><ele>1249.0</ele><time>2011-11-30T11:10:18Z</time></trkpt><trkpt lat="42.600692" lon="-2.581790"><ele>1249.0</ele><time>2011-11-30T11:10:19Z</time></trkpt><trkpt lat="42.600688" lon="-2.581777"><ele>1249.0</ele><time>2011-11-30T11:10:20Z</time></trkpt><trkpt lat="42.600685" lon="-2.581763"><ele>1249.0</ele><time>2011-11-30T11:10:21Z</time></trkpt><trkpt lat="42.600682" lon="-2.581753"><ele>1249.0</ele><time>2011-11-30T11:10:22Z</time></trkpt><trkpt lat="42.600678" lon="-2.581745"><ele>1249.0</ele><time>2011-11-30T11:10:23Z</time></trkpt><trkpt lat="42.600677" lon="-2.581735"><ele>1249.0</ele><time>2011-11-30T11:10:24Z</time></trkpt><trkpt lat="42.600678" lon="-2.581725"><ele>1249.0</ele><time>2011-11-30T11:10:25Z</time></trkpt><trkpt lat="42.600680" lon="-2.581712"><ele>1248.5</ele><time>2011-11-30T11:10:26Z</time></trkpt><trkpt lat="42.600682" lon="-2.581698"><ele>1248.5</ele><time>2011-11-30T11:10:27Z</time></trkpt><trkpt lat="42.600685" lon="-2.581687"><ele>1248.0</ele><time>2011-11-30T11:10:28Z</time></trkpt><trkpt lat="42.600685" lon="-2.581672"><ele>1247.5</ele><time>2011-11-30T11:10:29Z</time></trkpt><trkpt lat="42.600685" lon="-2.581662"><ele>1247.5</ele><time>2011-11-30T11:10:30Z</time></trkpt><trkpt lat="42.600683" lon="-2.581653"><ele>1247.0</ele><time>2011-11-30T11:10:31Z</time></trkpt><trkpt lat="42.600685" lon="-2.581645"><ele>1247.0</ele><time>2011-11-30T11:10:32Z</time></trkpt><trkpt lat="42.600683" lon="-2.581630"><ele>1247.0</ele><time>2011-11-30T11:10:33Z</time></trkpt><trkpt lat="42.600682" lon="-2.581612"><ele>1246.5</ele><time>2011-11-30T11:10:35Z</time></trkpt><trkpt lat="42.600680" lon="-2.581593"><ele>1245.5</ele><time>2011-11-30T11:10:36Z</time></trkpt><trkpt lat="42.600680" lon="-2.581575"><ele>1245.0</ele><time>2011-11-30T11:10:37Z</time></trkpt><trkpt lat="42.600682" lon="-2.581567"><ele>1244.5</ele><time>2011-11-30T11:10:38Z</time></trkpt><trkpt lat="42.600698" lon="-2.581555"><ele>1243.0</ele><time>2011-11-30T11:10:39Z</time></trkpt><trkpt lat="42.600708" lon="-2.581573"><ele>1243.0</ele><time>2011-11-30T11:10:40Z</time></trkpt><trkpt lat="42.600722" lon="-2.581535"><ele>1240.5</ele><time>2011-11-30T11:10:41Z</time></trkpt><trkpt lat="42.600743" lon="-2.581487"><ele>1237.5</ele><time>2011-11-30T11:10:42Z</time></trkpt><trkpt lat="42.600750" lon="-2.581477"><ele>1237.5</ele><time>2011-11-30T11:10:43Z</time></trkpt><trkpt lat="42.600770" lon="-2.581438"><ele>1235.5</ele><time>2011-11-30T11:10:44Z</time></trkpt><trkpt lat="42.600777" lon="-2.581422"><ele>1236.0</ele><time>2011-11-30T11:10:45Z</time></trkpt><trkpt lat="42.600782" lon="-2.581413"><ele>1236.0</ele><time>2011-11-30T11:10:46Z</time></trkpt><trkpt lat="42.600788" lon="-2.581395"><ele>1236.0</ele><time>2011-11-30T11:10:47Z</time></trkpt><trkpt lat="42.600820" lon="-2.581357"><ele>1237.5</ele><time>2011-11-30T11:10:48Z</time></trkpt><trkpt lat="42.600830" lon="-2.581345"><ele>1237.5</ele><time>2011-11-30T11:10:49Z</time></trkpt><trkpt lat="42.600842" lon="-2.581322"><ele>1237.0</ele><time>2011-11-30T11:10:50Z</time></trkpt><trkpt lat="42.600845" lon="-2.581312"><ele>1237.0</ele><time>2011-11-30T11:10:51Z</time></trkpt><trkpt lat="42.600850" lon="-2.581300"><ele>1236.5</ele><time>2011-11-30T11:10:52Z</time></trkpt><trkpt lat="42.600857" lon="-2.581288"><ele>1235.0</ele><time>2011-11-30T11:10:53Z</time></trkpt><trkpt lat="42.600863" lon="-2.581283"><ele>1235.0</ele><time>2011-11-30T11:10:54Z</time></trkpt><trkpt lat="42.600875" lon="-2.581273"><ele>1234.0</ele><time>2011-11-30T11:10:55Z</time></trkpt><trkpt lat="42.600915" lon="-2.581240"><ele>1230.5</ele><time>2011-11-30T11:10:56Z</time></trkpt><trkpt lat="42.600942" lon="-2.581235"><ele>1227.0</ele><time>2011-11-30T11:10:57Z</time></trkpt><trkpt lat="42.601008" lon="-2.581190"><ele>1225.5</ele><time>2011-11-30T11:10:58Z</time></trkpt><trkpt lat="42.601077" lon="-2.581152"><ele>1227.5</ele><time>2011-11-30T11:10:59Z</time></trkpt><trkpt lat="42.601083" lon="-2.581145"><ele>1227.5</ele><time>2011-11-30T11:11:00Z</time></trkpt><trkpt lat="42.601090" lon="-2.581143"><ele>1227.0</ele><time>2011-11-30T11:11:01Z</time></trkpt><trkpt lat="42.601110" lon="-2.581130"><ele>1229.0</ele><time>2011-11-30T11:11:02Z</time></trkpt><trkpt lat="42.601115" lon="-2.581113"><ele>1229.0</ele><time>2011-11-30T11:11:03Z</time></trkpt><trkpt lat="42.601138" lon="-2.581108"><ele>1228.0</ele><time>2011-11-30T11:11:04Z</time></trkpt><trkpt lat="42.601143" lon="-2.581115"><ele>1228.5</ele><time>2011-11-30T11:11:05Z</time></trkpt><trkpt lat="42.601150" lon="-2.581120"><ele>1228.0</ele><time>2011-11-30T11:11:06Z</time></trkpt><trkpt lat="42.601158" lon="-2.581153"><ele>1227.5</ele><time>2011-11-30T11:11:07Z</time></trkpt><trkpt lat="42.601153" lon="-2.581158"><ele>1227.0</ele><time>2011-11-30T11:11:08Z</time></trkpt><trkpt lat="42.601147" lon="-2.581173"><ele>1227.0</ele><time>2011-11-30T11:11:09Z</time></trkpt><trkpt lat="42.601142" lon="-2.581182"><ele>1226.5</ele><time>2011-11-30T11:11:10Z</time></trkpt><trkpt lat="42.601137" lon="-2.581233"><ele>1225.5</ele><time>2011-11-30T11:11:11Z</time></trkpt><trkpt lat="42.601127" lon="-2.581255"><ele>1225.0</ele><time>2011-11-30T11:11:12Z</time></trkpt><trkpt lat="42.601125" lon="-2.581298"><ele>1220.0</ele><time>2011-11-30T11:11:13Z</time></trkpt><trkpt lat="42.601127" lon="-2.581330"><ele>1220.0</ele><time>2011-11-30T11:11:14Z</time></trkpt><trkpt lat="42.601125" lon="-2.581338"><ele>1220.0</ele><time>2011-11-30T11:11:15Z</time></trkpt><trkpt lat="42.601128" lon="-2.581360"><ele>1221.0</ele><time>2011-11-30T11:11:16Z</time></trkpt><trkpt lat="42.601138" lon="-2.581415"><ele>1222.0</ele><time>2011-11-30T11:11:17Z</time></trkpt><trkpt lat="42.601130" lon="-2.581468"><ele>1221.5</ele><time>2011-11-30T11:11:18Z</time></trkpt><trkpt lat="42.601125" lon="-2.581477"><ele>1221.5</ele><time>2011-11-30T11:11:19Z</time></trkpt><trkpt lat="42.601117" lon="-2.581487"><ele>1222.5</ele><time>2011-11-30T11:11:20Z</time></trkpt><trkpt lat="42.601135" lon="-2.581492"><ele>1222.5</ele><time>2011-11-30T11:11:21Z</time></trkpt><trkpt lat="42.601118" lon="-2.581503"><ele>1223.5</ele><time>2011-11-30T11:11:22Z</time></trkpt><trkpt lat="42.601098" lon="-2.581510"><ele>1222.5</ele><time>2011-11-30T11:11:23Z</time></trkpt><trkpt lat="42.601090" lon="-2.581540"><ele>1220.0</ele><time>2011-11-30T11:11:24Z</time></trkpt><trkpt lat="42.601100" lon="-2.581547"><ele>1215.5</ele><time>2011-11-30T11:11:25Z</time></trkpt><trkpt lat="42.601098" lon="-2.581558"><ele>1213.5</ele><time>2011-11-30T11:11:26Z</time></trkpt><trkpt lat="42.601110" lon="-2.581573"><ele>1210.0</ele><time>2011-11-30T11:11:27Z</time></trkpt><trkpt lat="42.601103" lon="-2.581647"><ele>1208.5</ele><time>2011-11-30T11:11:28Z</time></trkpt><trkpt lat="42.601117" lon="-2.581752"><ele>1208.5</ele><time>2011-11-30T11:11:29Z</time></trkpt><trkpt lat="42.601130" lon="-2.581752"><ele>1207.5</ele><time>2011-11-30T11:11:30Z</time></trkpt><trkpt lat="42.601183" lon="-2.581798"><ele>1209.0</ele><time>2011-11-30T11:11:31Z</time></trkpt><trkpt lat="42.601175" lon="-2.581818"><ele>1211.5</ele><time>2011-11-30T11:11:32Z</time></trkpt><trkpt lat="42.601185" lon="-2.581825"><ele>1210.5</ele><time>2011-11-30T11:11:33Z</time></trkpt><trkpt lat="42.601283" lon="-2.581838"><ele>1205.5</ele><time>2011-11-30T11:11:34Z</time></trkpt><trkpt lat="42.601297" lon="-2.581872"><ele>1205.0</ele><time>2011-11-30T11:11:35Z</time></trkpt><trkpt lat="42.601318" lon="-2.581872"><ele>1208.0</ele><time>2011-11-30T11:11:36Z</time></trkpt><trkpt lat="42.601328" lon="-2.581867"><ele>1208.5</ele><time>2011-11-30T11:11:37Z</time></trkpt><trkpt lat="42.601333" lon="-2.581867"><ele>1209.5</ele><time>2011-11-30T11:11:38Z</time></trkpt><trkpt lat="42.601365" lon="-2.581860"><ele>1213.0</ele><time>2011-11-30T11:11:39Z</time></trkpt><trkpt lat="42.601392" lon="-2.581820"><ele>1217.0</ele><time>2011-11-30T11:11:41Z</time></trkpt><trkpt lat="42.601395" lon="-2.581810"><ele>1218.0</ele><time>2011-11-30T11:11:42Z</time></trkpt><trkpt lat="42.601398" lon="-2.581797"><ele>1218.5</ele><time>2011-11-30T11:11:43Z</time></trkpt><trkpt lat="42.601397" lon="-2.581793"><ele>1218.5</ele><time>2011-11-30T11:11:44Z</time></trkpt><trkpt lat="42.601412" lon="-2.581785"><ele>1220.0</ele><time>2011-11-30T11:11:45Z</time></trkpt><trkpt lat="42.601420" lon="-2.581780"><ele>1219.0</ele><time>2011-11-30T11:11:46Z</time></trkpt><trkpt lat="42.601423" lon="-2.581783"><ele>1217.5</ele><time>2011-11-30T11:11:47Z</time></trkpt><trkpt lat="42.601433" lon="-2.581773"><ele>1218.5</ele><time>2011-11-30T11:11:48Z</time></trkpt><trkpt lat="42.601440" lon="-2.581772"><ele>1218.0</ele><time>2011-11-30T11:11:49Z</time></trkpt><trkpt lat="42.601453" lon="-2.581748"><ele>1215.5</ele><time>2011-11-30T11:11:50Z</time></trkpt><trkpt lat="42.601448" lon="-2.581747"><ele>1213.5</ele><time>2011-11-30T11:11:51Z</time></trkpt><trkpt lat="42.601437" lon="-2.581758"><ele>1210.5</ele><time>2011-11-30T11:11:52Z</time></trkpt><trkpt lat="42.601455" lon="-2.581738"><ele>1213.0</ele><time>2011-11-30T11:11:53Z</time></trkpt><trkpt lat="42.601458" lon="-2.581730"><ele>1213.0</ele><time>2011-11-30T11:11:54Z</time></trkpt><trkpt lat="42.601467" lon="-2.581717"><ele>1213.5</ele><time>2011-11-30T11:11:55Z</time></trkpt><trkpt lat="42.601473" lon="-2.581703"><ele>1214.5</ele><time>2011-11-30T11:11:56Z</time></trkpt><trkpt lat="42.601498" lon="-2.581660"><ele>1215.5</ele><time>2011-11-30T11:11:57Z</time></trkpt><trkpt lat="42.601502" lon="-2.581655"><ele>1215.0</ele><time>2011-11-30T11:11:58Z</time></trkpt><trkpt lat="42.601515" lon="-2.581633"><ele>1214.0</ele><time>2011-11-30T11:11:59Z</time></trkpt><trkpt lat="42.601482" lon="-2.581660"><ele>1205.5</ele><time>2011-11-30T11:12:00Z</time></trkpt><trkpt lat="42.601482" lon="-2.581663"><ele>1203.5</ele><time>2011-11-30T11:12:01Z</time></trkpt><trkpt lat="42.601495" lon="-2.581658"><ele>1202.0</ele><time>2011-11-30T11:12:02Z</time></trkpt><trkpt lat="42.601502" lon="-2.581665"><ele>1202.0</ele><time>2011-11-30T11:12:03Z</time></trkpt><trkpt lat="42.601498" lon="-2.581697"><ele>1198.5</ele><time>2011-11-30T11:12:04Z</time></trkpt><trkpt lat="42.601502" lon="-2.581703"><ele>1199.0</ele><time>2011-11-30T11:12:05Z</time></trkpt><trkpt lat="42.601498" lon="-2.581717"><ele>1199.0</ele><time>2011-11-30T11:12:06Z</time></trkpt><trkpt lat="42.601492" lon="-2.581733"><ele>1197.0</ele><time>2011-11-30T11:12:07Z</time></trkpt><trkpt lat="42.601477" lon="-2.581753"><ele>1196.0</ele><time>2011-11-30T11:12:08Z</time></trkpt><trkpt lat="42.601463" lon="-2.581772"><ele>1196.0</ele><time>2011-11-30T11:12:09Z</time></trkpt><trkpt lat="42.601472" lon="-2.581782"><ele>1196.0</ele><time>2011-11-30T11:12:10Z</time></trkpt><trkpt lat="42.601462" lon="-2.581800"><ele>1196.5</ele><time>2011-11-30T11:12:11Z</time></trkpt><trkpt lat="42.601468" lon="-2.581818"><ele>1197.0</ele><time>2011-11-30T11:12:12Z</time></trkpt><trkpt lat="42.601475" lon="-2.581825"><ele>1197.0</ele><time>2011-11-30T11:12:13Z</time></trkpt><trkpt lat="42.601497" lon="-2.581822"><ele>1197.5</ele><time>2011-11-30T11:12:14Z</time></trkpt><trkpt lat="42.601510" lon="-2.581823"><ele>1198.5</ele><time>2011-11-30T11:12:15Z</time></trkpt><trkpt lat="42.601520" lon="-2.581823"><ele>1199.5</ele><time>2011-11-30T11:12:16Z</time></trkpt><trkpt lat="42.601555" lon="-2.581825"><ele>1198.5</ele><time>2011-11-30T11:12:17Z</time></trkpt><trkpt lat="42.601568" lon="-2.581812"><ele>1199.5</ele><time>2011-11-30T11:12:18Z</time></trkpt><trkpt lat="42.601575" lon="-2.581805"><ele>1199.5</ele><time>2011-11-30T11:12:19Z</time></trkpt><trkpt lat="42.601598" lon="-2.581780"><ele>1201.0</ele><time>2011-11-30T11:12:20Z</time></trkpt><trkpt lat="42.601618" lon="-2.581760"><ele>1203.0</ele><time>2011-11-30T11:12:21Z</time></trkpt><trkpt lat="42.601628" lon="-2.581752"><ele>1202.0</ele><time>2011-11-30T11:12:22Z</time></trkpt><trkpt lat="42.601665" lon="-2.581775"><ele>1201.0</ele><time>2011-11-30T11:12:23Z</time></trkpt><trkpt lat="42.601673" lon="-2.581775"><ele>1200.0</ele><time>2011-11-30T11:12:24Z</time></trkpt><trkpt lat="42.601702" lon="-2.581768"><ele>1201.0</ele><time>2011-11-30T11:12:25Z</time></trkpt><trkpt lat="42.601722" lon="-2.581768"><ele>1202.0</ele><time>2011-11-30T11:12:26Z</time></trkpt><trkpt lat="42.601747" lon="-2.581812"><ele>1194.5</ele><time>2011-11-30T11:12:27Z</time></trkpt><trkpt lat="42.601752" lon="-2.581827"><ele>1193.5</ele><time>2011-11-30T11:12:28Z</time></trkpt><trkpt lat="42.601765" lon="-2.581862"><ele>1189.5</ele><time>2011-11-30T11:12:29Z</time></trkpt><trkpt lat="42.601787" lon="-2.581912"><ele>1191.5</ele><time>2011-11-30T11:12:30Z</time></trkpt><trkpt lat="42.601783" lon="-2.581908"><ele>1192.0</ele><time>2011-11-30T11:12:31Z</time></trkpt><trkpt lat="42.601775" lon="-2.581915"><ele>1191.0</ele><time>2011-11-30T11:12:32Z</time></trkpt><trkpt lat="42.601768" lon="-2.581923"><ele>1190.0</ele><time>2011-11-30T11:12:33Z</time></trkpt><trkpt lat="42.601768" lon="-2.581927"><ele>1189.5</ele><time>2011-11-30T11:12:34Z</time></trkpt><trkpt lat="42.601783" lon="-2.581913"><ele>1191.5</ele><time>2011-11-30T11:12:35Z</time></trkpt><trkpt lat="42.601812" lon="-2.581883"><ele>1195.5</ele><time>2011-11-30T11:12:36Z</time></trkpt><trkpt lat="42.601838" lon="-2.581837"><ele>1197.5</ele><time>2011-11-30T11:12:37Z</time></trkpt><trkpt lat="42.601828" lon="-2.581812"><ele>1194.0</ele><time>2011-11-30T11:12:38Z</time></trkpt><trkpt lat="42.601825" lon="-2.581802"><ele>1193.5</ele><time>2011-11-30T11:12:39Z</time></trkpt><trkpt lat="42.601825" lon="-2.581743"><ele>1193.0</ele><time>2011-11-30T11:12:40Z</time></trkpt><trkpt lat="42.601850" lon="-2.581697"><ele>1193.5</ele><time>2011-11-30T11:12:41Z</time></trkpt><trkpt lat="42.601865" lon="-2.581673"><ele>1192.5</ele><time>2011-11-30T11:12:42Z</time></trkpt><trkpt lat="42.601865" lon="-2.581663"><ele>1193.5</ele><time>2011-11-30T11:12:43Z</time></trkpt><trkpt lat="42.601842" lon="-2.581648"><ele>1190.0</ele><time>2011-11-30T11:12:44Z</time></trkpt><trkpt lat="42.601813" lon="-2.581608"><ele>1187.5</ele><time>2011-11-30T11:12:45Z</time></trkpt><trkpt lat="42.601813" lon="-2.581623"><ele>1186.5</ele><time>2011-11-30T11:12:46Z</time></trkpt><trkpt lat="42.601813" lon="-2.581627"><ele>1186.5</ele><time>2011-11-30T11:12:47Z</time></trkpt><trkpt lat="42.601813" lon="-2.581643"><ele>1186.0</ele><time>2011-11-30T11:12:48Z</time></trkpt><trkpt lat="42.601827" lon="-2.581688"><ele>1182.5</ele><time>2011-11-30T11:12:49Z</time></trkpt><trkpt lat="42.601838" lon="-2.581682"><ele>1182.5</ele><time>2011-11-30T11:12:50Z</time></trkpt><trkpt lat="42.601845" lon="-2.581675"><ele>1182.5</ele><time>2011-11-30T11:12:51Z</time></trkpt><trkpt lat="42.601848" lon="-2.581672"><ele>1182.0</ele><time>2011-11-30T11:12:52Z</time></trkpt><trkpt lat="42.601860" lon="-2.581662"><ele>1183.0</ele><time>2011-11-30T11:12:53Z</time></trkpt><trkpt lat="42.601867" lon="-2.581655"><ele>1182.5</ele><time>2011-11-30T11:12:54Z</time></trkpt><trkpt lat="42.601860" lon="-2.581647"><ele>1179.5</ele><time>2011-11-30T11:12:55Z</time></trkpt><trkpt lat="42.601867" lon="-2.581633"><ele>1177.0</ele><time>2011-11-30T11:12:56Z</time></trkpt><trkpt lat="42.601870" lon="-2.581623"><ele>1177.0</ele><time>2011-11-30T11:12:57Z</time></trkpt><trkpt lat="42.601877" lon="-2.581608"><ele>1178.5</ele><time>2011-11-30T11:12:58Z</time></trkpt><trkpt lat="42.601877" lon="-2.581588"><ele>1178.5</ele><time>2011-11-30T11:12:59Z</time></trkpt><trkpt lat="42.601888" lon="-2.581570"><ele>1180.5</ele><time>2011-11-30T11:13:00Z</time></trkpt><trkpt lat="42.601898" lon="-2.581555"><ele>1181.5</ele><time>2011-11-30T11:13:01Z</time></trkpt><trkpt lat="42.601938" lon="-2.581500"><ele>1186.5</ele><time>2011-11-30T11:13:03Z</time></trkpt><trkpt lat="42.601965" lon="-2.581478"><ele>1188.5</ele><time>2011-11-30T11:13:04Z</time></trkpt><trkpt lat="42.601988" lon="-2.581437"><ele>1189.0</ele><time>2011-11-30T11:13:05Z</time></trkpt><trkpt lat="42.601995" lon="-2.581425"><ele>1189.5</ele><time>2011-11-30T11:13:06Z</time></trkpt><trkpt lat="42.602017" lon="-2.581380"><ele>1189.5</ele><time>2011-11-30T11:13:07Z</time></trkpt><trkpt lat="42.602052" lon="-2.581342"><ele>1192.5</ele><time>2011-11-30T11:13:08Z</time></trkpt><trkpt lat="42.602070" lon="-2.581327"><ele>1194.0</ele><time>2011-11-30T11:13:09Z</time></trkpt><trkpt lat="42.602075" lon="-2.581320"><ele>1194.0</ele><time>2011-11-30T11:13:10Z</time></trkpt><trkpt lat="42.602112" lon="-2.581265"><ele>1193.0</ele><time>2011-11-30T11:13:11Z</time></trkpt><trkpt lat="42.602122" lon="-2.581258"><ele>1191.5</ele><time>2011-11-30T11:13:12Z</time></trkpt><trkpt lat="42.602117" lon="-2.581238"><ele>1190.0</ele><time>2011-11-30T11:13:13Z</time></trkpt><trkpt lat="42.602125" lon="-2.581220"><ele>1189.5</ele><time>2011-11-30T11:13:14Z</time></trkpt><trkpt lat="42.602152" lon="-2.581192"><ele>1191.0</ele><time>2011-11-30T11:13:15Z</time></trkpt><trkpt lat="42.602200" lon="-2.581132"><ele>1195.5</ele><time>2011-11-30T11:13:16Z</time></trkpt><trkpt lat="42.602215" lon="-2.581097"><ele>1193.0</ele><time>2011-11-30T11:13:17Z</time></trkpt><trkpt lat="42.602267" lon="-2.581033"><ele>1195.0</ele><time>2011-11-30T11:13:18Z</time></trkpt><trkpt lat="42.602258" lon="-2.581013"><ele>1185.5</ele><time>2011-11-30T11:13:19Z</time></trkpt><trkpt lat="42.602275" lon="-2.581007"><ele>1182.0</ele><time>2011-11-30T11:13:20Z</time></trkpt><trkpt lat="42.602288" lon="-2.580997"><ele>1181.5</ele><time>2011-11-30T11:13:21Z</time></trkpt><trkpt lat="42.602303" lon="-2.580997"><ele>1180.0</ele><time>2011-11-30T11:13:23Z</time></trkpt><trkpt lat="42.602308" lon="-2.580992"><ele>1179.5</ele><time>2011-11-30T11:13:24Z</time></trkpt><trkpt lat="42.602338" lon="-2.580970"><ele>1177.0</ele><time>2011-11-30T11:13:25Z</time></trkpt><trkpt lat="42.602343" lon="-2.580962"><ele>1176.5</ele><time>2011-11-30T11:13:26Z</time></trkpt><trkpt lat="42.602350" lon="-2.580955"><ele>1175.5</ele><time>2011-11-30T11:13:27Z</time></trkpt><trkpt lat="42.602358" lon="-2.580945"><ele>1173.0</ele><time>2011-11-30T11:13:28Z</time></trkpt><trkpt lat="42.602360" lon="-2.580938"><ele>1172.5</ele><time>2011-11-30T11:13:29Z</time></trkpt><trkpt lat="42.602365" lon="-2.580930"><ele>1171.5</ele><time>2011-11-30T11:13:30Z</time></trkpt><trkpt lat="42.602402" lon="-2.580902"><ele>1174.5</ele><time>2011-11-30T11:13:32Z</time></trkpt><trkpt lat="42.602408" lon="-2.580887"><ele>1173.5</ele><time>2011-11-30T11:13:33Z</time></trkpt><trkpt lat="42.602417" lon="-2.580875"><ele>1173.0</ele><time>2011-11-30T11:13:34Z</time></trkpt><trkpt lat="42.602432" lon="-2.580863"><ele>1173.0</ele><time>2011-11-30T11:13:35Z</time></trkpt><trkpt lat="42.602425" lon="-2.580858"><ele>1168.0</ele><time>2011-11-30T11:13:36Z</time></trkpt><trkpt lat="42.602438" lon="-2.580840"><ele>1167.0</ele><time>2011-11-30T11:13:37Z</time></trkpt><trkpt lat="42.602450" lon="-2.580817"><ele>1163.5</ele><time>2011-11-30T11:13:38Z</time></trkpt><trkpt lat="42.602477" lon="-2.580773"><ele>1161.5</ele><time>2011-11-30T11:13:39Z</time></trkpt><trkpt lat="42.602485" lon="-2.580765"><ele>1161.5</ele><time>2011-11-30T11:13:40Z</time></trkpt><trkpt lat="42.602492" lon="-2.580747"><ele>1159.5</ele><time>2011-11-30T11:13:41Z</time></trkpt><trkpt lat="42.602515" lon="-2.580725"><ele>1158.5</ele><time>2011-11-30T11:13:42Z</time></trkpt><trkpt lat="42.602523" lon="-2.580723"><ele>1158.5</ele><time>2011-11-30T11:13:43Z</time></trkpt><trkpt lat="42.602520" lon="-2.580718"><ele>1157.0</ele><time>2011-11-30T11:13:44Z</time></trkpt><trkpt lat="42.602530" lon="-2.580707"><ele>1157.0</ele><time>2011-11-30T11:13:45Z</time></trkpt><trkpt lat="42.602530" lon="-2.580700"><ele>1156.0</ele><time>2011-11-30T11:13:46Z</time></trkpt><trkpt lat="42.602535" lon="-2.580692"><ele>1156.0</ele><time>2011-11-30T11:13:47Z</time></trkpt><trkpt lat="42.602533" lon="-2.580688"><ele>1155.0</ele><time>2011-11-30T11:13:48Z</time></trkpt><trkpt lat="42.602533" lon="-2.580682"><ele>1154.5</ele><time>2011-11-30T11:13:49Z</time></trkpt><trkpt lat="42.602532" lon="-2.580677"><ele>1153.0</ele><time>2011-11-30T11:13:50Z</time></trkpt><trkpt lat="42.602588" lon="-2.580593"><ele>1156.5</ele><time>2011-11-30T11:13:51Z</time></trkpt><trkpt lat="42.602600" lon="-2.580578"><ele>1157.5</ele><time>2011-11-30T11:13:52Z</time></trkpt><trkpt lat="42.602618" lon="-2.580555"><ele>1160.0</ele><time>2011-11-30T11:13:53Z</time></trkpt><trkpt lat="42.602617" lon="-2.580547"><ele>1160.0</ele><time>2011-11-30T11:13:54Z</time></trkpt><trkpt lat="42.602625" lon="-2.580533"><ele>1161.0</ele><time>2011-11-30T11:13:55Z</time></trkpt><trkpt lat="42.602630" lon="-2.580512"><ele>1159.5</ele><time>2011-11-30T11:13:56Z</time></trkpt><trkpt lat="42.602652" lon="-2.580477"><ele>1160.5</ele><time>2011-11-30T11:13:57Z</time></trkpt><trkpt lat="42.602658" lon="-2.580448"><ele>1160.0</ele><time>2011-11-30T11:13:58Z</time></trkpt><trkpt lat="42.602668" lon="-2.580435"><ele>1161.0</ele><time>2011-11-30T11:13:59Z</time></trkpt><trkpt lat="42.602693" lon="-2.580368"><ele>1164.0</ele><time>2011-11-30T11:14:00Z</time></trkpt><trkpt lat="42.602723" lon="-2.580332"><ele>1166.5</ele><time>2011-11-30T11:14:01Z</time></trkpt><trkpt lat="42.602727" lon="-2.580317"><ele>1167.0</ele><time>2011-11-30T11:14:02Z</time></trkpt><trkpt lat="42.602727" lon="-2.580307"><ele>1167.0</ele><time>2011-11-30T11:14:03Z</time></trkpt><trkpt lat="42.602727" lon="-2.580298"><ele>1167.0</ele><time>2011-11-30T11:14:04Z</time></trkpt><trkpt lat="42.602723" lon="-2.580293"><ele>1166.0</ele><time>2011-11-30T11:14:05Z</time></trkpt><trkpt lat="42.602723" lon="-2.580282"><ele>1166.0</ele><time>2011-11-30T11:14:06Z</time></trkpt><trkpt lat="42.602723" lon="-2.580270"><ele>1165.0</ele><time>2011-11-30T11:14:07Z</time></trkpt><trkpt lat="42.602727" lon="-2.580262"><ele>1165.5</ele><time>2011-11-30T11:14:08Z</time></trkpt><trkpt lat="42.602732" lon="-2.580253"><ele>1166.0</ele><time>2011-11-30T11:14:09Z</time></trkpt><trkpt lat="42.602730" lon="-2.580250"><ele>1164.5</ele><time>2011-11-30T11:14:10Z</time></trkpt><trkpt lat="42.602738" lon="-2.580242"><ele>1164.5</ele><time>2011-11-30T11:14:11Z</time></trkpt><trkpt lat="42.602795" lon="-2.580202"><ele>1165.5</ele><time>2011-11-30T11:14:12Z</time></trkpt><trkpt lat="42.602810" lon="-2.580197"><ele>1164.0</ele><time>2011-11-30T11:14:13Z</time></trkpt><trkpt lat="42.602818" lon="-2.580202"><ele>1164.0</ele><time>2011-11-30T11:14:14Z</time></trkpt><trkpt lat="42.602813" lon="-2.580208"><ele>1164.0</ele><time>2011-11-30T11:14:15Z</time></trkpt><trkpt lat="42.602838" lon="-2.580190"><ele>1164.5</ele><time>2011-11-30T11:14:16Z</time></trkpt><trkpt lat="42.602857" lon="-2.580192"><ele>1160.5</ele><time>2011-11-30T11:14:17Z</time></trkpt><trkpt lat="42.602868" lon="-2.580203"><ele>1158.5</ele><time>2011-11-30T11:14:18Z</time></trkpt><trkpt lat="42.602915" lon="-2.580187"><ele>1156.0</ele><time>2011-11-30T11:14:19Z</time></trkpt><trkpt lat="42.602910" lon="-2.580192"><ele>1154.5</ele><time>2011-11-30T11:14:20Z</time></trkpt><trkpt lat="42.602940" lon="-2.580177"><ele>1153.0</ele><time>2011-11-30T11:14:21Z</time></trkpt><trkpt lat="42.602948" lon="-2.580170"><ele>1153.0</ele><time>2011-11-30T11:14:22Z</time></trkpt><trkpt lat="42.602983" lon="-2.580145"><ele>1154.5</ele><time>2011-11-30T11:14:23Z</time></trkpt><trkpt lat="42.602992" lon="-2.580105"><ele>1154.0</ele><time>2011-11-30T11:14:24Z</time></trkpt><trkpt lat="42.603007" lon="-2.580110"><ele>1155.5</ele><time>2011-11-30T11:14:25Z</time></trkpt><trkpt lat="42.603017" lon="-2.580102"><ele>1156.0</ele><time>2011-11-30T11:14:22Z</time></trkpt><trkpt lat="42.603028" lon="-2.580087"><ele>1155.5</ele><time>2011-11-30T11:14:24Z</time></trkpt><trkpt lat="42.603153" lon="-2.579933"><ele>1157.0</ele><time>2011-11-30T11:14:25Z</time></trkpt><trkpt lat="42.603187" lon="-2.579892"><ele>1159.0</ele><time>2011-11-30T11:14:26Z</time></trkpt><trkpt lat="42.603178" lon="-2.579888"><ele>1158.0</ele><time>2011-11-30T11:14:27Z</time></trkpt><trkpt lat="42.603185" lon="-2.579902"><ele>1154.5</ele><time>2011-11-30T11:14:28Z</time></trkpt><trkpt lat="42.603205" lon="-2.579930"><ele>1151.0</ele><time>2011-11-30T11:14:29Z</time></trkpt><trkpt lat="42.603213" lon="-2.579935"><ele>1150.5</ele><time>2011-11-30T11:14:30Z</time></trkpt><trkpt lat="42.603222" lon="-2.579933"><ele>1150.5</ele><time>2011-11-30T11:14:31Z</time></trkpt><trkpt lat="42.603230" lon="-2.579940"><ele>1149.5</ele><time>2011-11-30T11:14:32Z</time></trkpt><trkpt lat="42.603248" lon="-2.579937"><ele>1148.5</ele><time>2011-11-30T11:14:33Z</time></trkpt><trkpt lat="42.603262" lon="-2.579933"><ele>1148.0</ele><time>2011-11-30T11:14:34Z</time></trkpt><trkpt lat="42.603268" lon="-2.579927"><ele>1147.5</ele><time>2011-11-30T11:14:35Z</time></trkpt><trkpt lat="42.603285" lon="-2.579920"><ele>1147.5</ele><time>2011-11-30T11:14:36Z</time></trkpt><trkpt lat="42.603297" lon="-2.579910"><ele>1147.0</ele><time>2011-11-30T11:14:37Z</time></trkpt><trkpt lat="42.603302" lon="-2.579903"><ele>1147.0</ele><time>2011-11-30T11:14:38Z</time></trkpt><trkpt lat="42.603310" lon="-2.579898"><ele>1146.5</ele><time>2011-11-30T11:14:39Z</time></trkpt><trkpt lat="42.603322" lon="-2.579890"><ele>1147.0</ele><time>2011-11-30T11:14:40Z</time></trkpt><trkpt lat="42.603330" lon="-2.579885"><ele>1146.5</ele><time>2011-11-30T11:14:41Z</time></trkpt><trkpt lat="42.603347" lon="-2.579880"><ele>1147.5</ele><time>2011-11-30T11:14:42Z</time></trkpt><trkpt lat="42.603363" lon="-2.579865"><ele>1146.0</ele><time>2011-11-30T11:14:43Z</time></trkpt><trkpt lat="42.603368" lon="-2.579850"><ele>1144.0</ele><time>2011-11-30T11:14:44Z</time></trkpt><trkpt lat="42.603377" lon="-2.579835"><ele>1139.5</ele><time>2011-11-30T11:14:45Z</time></trkpt><trkpt lat="42.603400" lon="-2.579817"><ele>1139.0</ele><time>2011-11-30T11:14:46Z</time></trkpt><trkpt lat="42.603427" lon="-2.579807"><ele>1141.5</ele><time>2011-11-30T11:14:47Z</time></trkpt><trkpt lat="42.603427" lon="-2.579805"><ele>1140.5</ele><time>2011-11-30T11:14:48Z</time></trkpt><trkpt lat="42.603430" lon="-2.579800"><ele>1141.0</ele><time>2011-11-30T11:14:49Z</time></trkpt><trkpt lat="42.603457" lon="-2.579703"><ele>1138.0</ele><time>2011-11-30T11:14:50Z</time></trkpt><trkpt lat="42.603445" lon="-2.579715"><ele>1139.0</ele><time>2011-11-30T11:14:51Z</time></trkpt><trkpt lat="42.603450" lon="-2.579715"><ele>1138.0</ele><time>2011-11-30T11:14:52Z</time></trkpt><trkpt lat="42.603445" lon="-2.579717"><ele>1138.0</ele><time>2011-11-30T11:14:53Z</time></trkpt><trkpt lat="42.603453" lon="-2.579708"><ele>1137.5</ele><time>2011-11-30T11:14:54Z</time></trkpt><trkpt lat="42.603463" lon="-2.579700"><ele>1137.5</ele><time>2011-11-30T11:14:55Z</time></trkpt><trkpt lat="42.603488" lon="-2.579672"><ele>1139.5</ele><time>2011-11-30T11:14:56Z</time></trkpt><trkpt lat="42.603493" lon="-2.579665"><ele>1140.0</ele><time>2011-11-30T11:14:57Z</time></trkpt><trkpt lat="42.603500" lon="-2.579660"><ele>1139.5</ele><time>2011-11-30T11:14:58Z</time></trkpt><trkpt lat="42.603510" lon="-2.579660"><ele>1139.5</ele><time>2011-11-30T11:14:59Z</time></trkpt><trkpt lat="42.603573" lon="-2.579650"><ele>1136.0</ele><time>2011-11-30T11:15:00Z</time></trkpt><trkpt lat="42.603598" lon="-2.579652"><ele>1134.0</ele><time>2011-11-30T11:15:01Z</time></trkpt><trkpt lat="42.603600" lon="-2.579660"><ele>1133.5</ele><time>2011-11-30T11:15:02Z</time></trkpt><trkpt lat="42.603608" lon="-2.579660"><ele>1132.0</ele><time>2011-11-30T11:15:03Z</time></trkpt><trkpt lat="42.603620" lon="-2.579670"><ele>1128.0</ele><time>2011-11-30T11:15:04Z</time></trkpt><trkpt lat="42.603583" lon="-2.579693"><ele>1124.5</ele><time>2011-11-30T11:15:05Z</time></trkpt><trkpt lat="42.603592" lon="-2.579698"><ele>1124.5</ele><time>2011-11-30T11:15:07Z</time></trkpt><trkpt lat="42.603618" lon="-2.579748"><ele>1124.5</ele><time>2011-11-30T11:15:08Z</time></trkpt><trkpt lat="42.603632" lon="-2.579743"><ele>1126.0</ele><time>2011-11-30T11:15:09Z</time></trkpt><trkpt lat="42.603740" lon="-2.579702"><ele>1132.0</ele><time>2011-11-30T11:15:11Z</time></trkpt><trkpt lat="42.603752" lon="-2.579700"><ele>1131.5</ele><time>2011-11-30T11:15:12Z</time></trkpt><trkpt lat="42.603760" lon="-2.579702"><ele>1131.5</ele><time>2011-11-30T11:15:13Z</time></trkpt><trkpt lat="42.603735" lon="-2.579700"><ele>1132.0</ele><time>2011-11-30T11:15:15Z</time></trkpt><trkpt lat="42.603737" lon="-2.579717"><ele>1132.0</ele><time>2011-11-30T11:15:16Z</time></trkpt><trkpt lat="42.603743" lon="-2.579723"><ele>1130.5</ele><time>2011-11-30T11:15:17Z</time></trkpt><trkpt lat="42.603727" lon="-2.579792"><ele>1131.0</ele><time>2011-11-30T11:15:18Z</time></trkpt><trkpt lat="42.603752" lon="-2.579818"><ele>1126.5</ele><time>2011-11-30T11:15:19Z</time></trkpt><trkpt lat="42.603760" lon="-2.579815"><ele>1125.0</ele><time>2011-11-30T11:15:20Z</time></trkpt><trkpt lat="42.603760" lon="-2.579828"><ele>1126.0</ele><time>2011-11-30T11:15:21Z</time></trkpt><trkpt lat="42.603773" lon="-2.579817"><ele>1118.5</ele><time>2011-11-30T11:15:22Z</time></trkpt><trkpt lat="42.603785" lon="-2.579833"><ele>1117.5</ele><time>2011-11-30T11:15:23Z</time></trkpt><trkpt lat="42.603817" lon="-2.579865"><ele>1119.0</ele><time>2011-11-30T11:15:24Z</time></trkpt><trkpt lat="42.603863" lon="-2.579843"><ele>1113.5</ele><time>2011-11-30T11:15:25Z</time></trkpt><trkpt lat="42.603883" lon="-2.579837"><ele>1114.5</ele><time>2011-11-30T11:15:26Z</time></trkpt><trkpt lat="42.603885" lon="-2.579828"><ele>1114.0</ele><time>2011-11-30T11:15:27Z</time></trkpt><trkpt lat="42.603902" lon="-2.579825"><ele>1114.0</ele><time>2011-11-30T11:15:28Z</time></trkpt><trkpt lat="42.603915" lon="-2.579815"><ele>1114.0</ele><time>2011-11-30T11:15:29Z</time></trkpt><trkpt lat="42.603970" lon="-2.579785"><ele>1116.0</ele><time>2011-11-30T11:15:30Z</time></trkpt><trkpt lat="42.603987" lon="-2.579782"><ele>1115.5</ele><time>2011-11-30T11:15:31Z</time></trkpt><trkpt lat="42.604010" lon="-2.579777"><ele>1116.0</ele><time>2011-11-30T11:15:32Z</time></trkpt><trkpt lat="42.604020" lon="-2.579765"><ele>1116.0</ele><time>2011-11-30T11:15:33Z</time></trkpt><trkpt lat="42.604028" lon="-2.579760"><ele>1115.5</ele><time>2011-11-30T11:15:34Z</time></trkpt><trkpt lat="42.604030" lon="-2.579750"><ele>1115.0</ele><time>2011-11-30T11:15:35Z</time></trkpt><trkpt lat="42.604052" lon="-2.579733"><ele>1117.0</ele><time>2011-11-30T11:15:36Z</time></trkpt><trkpt lat="42.604065" lon="-2.579723"><ele>1118.5</ele><time>2011-11-30T11:15:37Z</time></trkpt><trkpt lat="42.604077" lon="-2.579713"><ele>1119.5</ele><time>2011-11-30T11:15:38Z</time></trkpt><trkpt lat="42.604102" lon="-2.579693"><ele>1116.5</ele><time>2011-11-30T11:15:39Z</time></trkpt><trkpt lat="42.604123" lon="-2.579677"><ele>1118.5</ele><time>2011-11-30T11:15:40Z</time></trkpt><trkpt lat="42.604133" lon="-2.579668"><ele>1119.0</ele><time>2011-11-30T11:15:41Z</time></trkpt><trkpt lat="42.604150" lon="-2.579655"><ele>1120.0</ele><time>2011-11-30T11:15:42Z</time></trkpt><trkpt lat="42.604163" lon="-2.579642"><ele>1121.0</ele><time>2011-11-30T11:15:43Z</time></trkpt><trkpt lat="42.604172" lon="-2.579630"><ele>1120.5</ele><time>2011-11-30T11:15:44Z</time></trkpt><trkpt lat="42.604175" lon="-2.579622"><ele>1120.5</ele><time>2011-11-30T11:15:45Z</time></trkpt><trkpt lat="42.604188" lon="-2.579615"><ele>1121.0</ele><time>2011-11-30T11:15:46Z</time></trkpt><trkpt lat="42.604198" lon="-2.579605"><ele>1121.5</ele><time>2011-11-30T11:15:47Z</time></trkpt><trkpt lat="42.604195" lon="-2.579605"><ele>1119.0</ele><time>2011-11-30T11:15:48Z</time></trkpt><trkpt lat="42.604208" lon="-2.579582"><ele>1117.0</ele><time>2011-11-30T11:15:49Z</time></trkpt><trkpt lat="42.604222" lon="-2.579552"><ele>1114.5</ele><time>2011-11-30T11:15:50Z</time></trkpt><trkpt lat="42.604223" lon="-2.579540"><ele>1115.0</ele><time>2011-11-30T11:15:51Z</time></trkpt><trkpt lat="42.604247" lon="-2.579545"><ele>1116.5</ele><time>2011-11-30T11:15:52Z</time></trkpt><trkpt lat="42.604253" lon="-2.579545"><ele>1114.0</ele><time>2011-11-30T11:15:53Z</time></trkpt><trkpt lat="42.604250" lon="-2.579547"><ele>1113.5</ele><time>2011-11-30T11:15:54Z</time></trkpt><trkpt lat="42.604245" lon="-2.579557"><ele>1114.0</ele><time>2011-11-30T11:15:55Z</time></trkpt><trkpt lat="42.604237" lon="-2.579562"><ele>1111.5</ele><time>2011-11-30T11:15:56Z</time></trkpt><trkpt lat="42.604255" lon="-2.579662"><ele>1111.0</ele><time>2011-11-30T11:15:57Z</time></trkpt><trkpt lat="42.604260" lon="-2.579688"><ele>1109.5</ele><time>2011-11-30T11:15:58Z</time></trkpt><trkpt lat="42.604257" lon="-2.579703"><ele>1108.5</ele><time>2011-11-30T11:15:59Z</time></trkpt><trkpt lat="42.604258" lon="-2.579742"><ele>1109.5</ele><time>2011-11-30T11:16:00Z</time></trkpt><trkpt lat="42.604263" lon="-2.579905"><ele>1112.5</ele><time>2011-11-30T11:16:01Z</time></trkpt><trkpt lat="42.604263" lon="-2.579938"><ele>1113.0</ele><time>2011-11-30T11:16:02Z</time></trkpt><trkpt lat="42.604257" lon="-2.579955"><ele>1111.5</ele><time>2011-11-30T11:16:03Z</time></trkpt><trkpt lat="42.604253" lon="-2.579972"><ele>1112.0</ele><time>2011-11-30T11:16:04Z</time></trkpt><trkpt lat="42.604248" lon="-2.579983"><ele>1112.0</ele><time>2011-11-30T11:16:05Z</time></trkpt><trkpt lat="42.604262" lon="-2.580002"><ele>1111.5</ele><time>2011-11-30T11:16:06Z</time></trkpt><trkpt lat="42.604265" lon="-2.580015"><ele>1110.5</ele><time>2011-11-30T11:16:07Z</time></trkpt><trkpt lat="42.604253" lon="-2.580022"><ele>1111.0</ele><time>2011-11-30T11:16:08Z</time></trkpt><trkpt lat="42.604235" lon="-2.580038"><ele>1112.5</ele><time>2011-11-30T11:16:09Z</time></trkpt><trkpt lat="42.604255" lon="-2.580063"><ele>1110.5</ele><time>2011-11-30T11:16:10Z</time></trkpt><trkpt lat="42.604252" lon="-2.580088"><ele>1109.5</ele><time>2011-11-30T11:16:11Z</time></trkpt><trkpt lat="42.604245" lon="-2.580103"><ele>1110.0</ele><time>2011-11-30T11:16:12Z</time></trkpt><trkpt lat="42.604232" lon="-2.580128"><ele>1111.0</ele><time>2011-11-30T11:16:13Z</time></trkpt><trkpt lat="42.604225" lon="-2.580175"><ele>1113.5</ele><time>2011-11-30T11:16:14Z</time></trkpt><trkpt lat="42.604258" lon="-2.580197"><ele>1111.5</ele><time>2011-11-30T11:16:16Z</time></trkpt><trkpt lat="42.604267" lon="-2.580207"><ele>1109.5</ele><time>2011-11-30T11:16:17Z</time></trkpt><trkpt lat="42.604267" lon="-2.580223"><ele>1110.0</ele><time>2011-11-30T11:16:18Z</time></trkpt><trkpt lat="42.604258" lon="-2.580228"><ele>1110.0</ele><time>2011-11-30T11:16:19Z</time></trkpt><trkpt lat="42.604277" lon="-2.580240"><ele>1107.5</ele><time>2011-11-30T11:16:20Z</time></trkpt><trkpt lat="42.604280" lon="-2.580250"><ele>1107.0</ele><time>2011-11-30T11:16:21Z</time></trkpt><trkpt lat="42.604287" lon="-2.580252"><ele>1105.0</ele><time>2011-11-30T11:16:22Z</time></trkpt><trkpt lat="42.604302" lon="-2.580268"><ele>1099.5</ele><time>2011-11-30T11:16:23Z</time></trkpt><trkpt lat="42.604295" lon="-2.580292"><ele>1103.0</ele><time>2011-11-30T11:16:24Z</time></trkpt><trkpt lat="42.604295" lon="-2.580303"><ele>1103.5</ele><time>2011-11-30T11:16:25Z</time></trkpt><trkpt lat="42.604307" lon="-2.580307"><ele>1103.0</ele><time>2011-11-30T11:16:26Z</time></trkpt><trkpt lat="42.604317" lon="-2.580320"><ele>1103.5</ele><time>2011-11-30T11:16:27Z</time></trkpt><trkpt lat="42.604317" lon="-2.580355"><ele>1103.5</ele><time>2011-11-30T11:16:28Z</time></trkpt><trkpt lat="42.604312" lon="-2.580385"><ele>1098.0</ele><time>2011-11-30T11:16:29Z</time></trkpt><trkpt lat="42.604317" lon="-2.580405"><ele>1094.0</ele><time>2011-11-30T11:16:30Z</time></trkpt><trkpt lat="42.604318" lon="-2.580417"><ele>1092.5</ele><time>2011-11-30T11:16:31Z</time></trkpt><trkpt lat="42.604318" lon="-2.580432"><ele>1091.5</ele><time>2011-11-30T11:16:32Z</time></trkpt><trkpt lat="42.604328" lon="-2.580468"><ele>1091.5</ele><time>2011-11-30T11:16:33Z</time></trkpt><trkpt lat="42.604367" lon="-2.580537"><ele>1088.0</ele><time>2011-11-30T11:16:34Z</time></trkpt><trkpt lat="42.604378" lon="-2.580545"><ele>1087.5</ele><time>2011-11-30T11:16:35Z</time></trkpt><trkpt lat="42.604387" lon="-2.580550"><ele>1087.0</ele><time>2011-11-30T11:16:36Z</time></trkpt><trkpt lat="42.604393" lon="-2.580565"><ele>1087.0</ele><time>2011-11-30T11:16:37Z</time></trkpt><trkpt lat="42.604402" lon="-2.580582"><ele>1087.0</ele><time>2011-11-30T11:16:38Z</time></trkpt><trkpt lat="42.604412" lon="-2.580590"><ele>1087.0</ele><time>2011-11-30T11:16:39Z</time></trkpt><trkpt lat="42.604425" lon="-2.580595"><ele>1087.0</ele><time>2011-11-30T11:16:40Z</time></trkpt><trkpt lat="42.604412" lon="-2.580613"><ele>1088.5</ele><time>2011-11-30T11:16:41Z</time></trkpt><trkpt lat="42.604402" lon="-2.580632"><ele>1090.5</ele><time>2011-11-30T11:16:42Z</time></trkpt><trkpt lat="42.604420" lon="-2.580643"><ele>1091.0</ele><time>2011-11-30T11:16:43Z</time></trkpt><trkpt lat="42.604428" lon="-2.580652"><ele>1091.5</ele><time>2011-11-30T11:16:44Z</time></trkpt><trkpt lat="42.604480" lon="-2.580670"><ele>1094.0</ele><time>2011-11-30T11:16:45Z</time></trkpt><trkpt lat="42.604540" lon="-2.580682"><ele>1094.0</ele><time>2011-11-30T11:16:46Z</time></trkpt><trkpt lat="42.604548" lon="-2.580675"><ele>1094.5</ele><time>2011-11-30T11:16:47Z</time></trkpt><trkpt lat="42.604578" lon="-2.580672"><ele>1094.5</ele><time>2011-11-30T11:16:48Z</time></trkpt><trkpt lat="42.604595" lon="-2.580655"><ele>1094.0</ele><time>2011-11-30T11:16:49Z</time></trkpt><trkpt lat="42.604622" lon="-2.580658"><ele>1095.5</ele><time>2011-11-30T11:16:50Z</time></trkpt><trkpt lat="42.604640" lon="-2.580652"><ele>1095.5</ele><time>2011-11-30T11:16:51Z</time></trkpt><trkpt lat="42.604660" lon="-2.580653"><ele>1095.5</ele><time>2011-11-30T11:16:52Z</time></trkpt><trkpt lat="42.604677" lon="-2.580645"><ele>1094.5</ele><time>2011-11-30T11:16:53Z</time></trkpt><trkpt lat="42.604693" lon="-2.580650"><ele>1094.5</ele><time>2011-11-30T11:16:54Z</time></trkpt><trkpt lat="42.604712" lon="-2.580652"><ele>1094.5</ele><time>2011-11-30T11:16:55Z</time></trkpt><trkpt lat="42.604732" lon="-2.580650"><ele>1095.0</ele><time>2011-11-30T11:16:56Z</time></trkpt><trkpt lat="42.604755" lon="-2.580648"><ele>1095.0</ele><time>2011-11-30T11:16:57Z</time></trkpt><trkpt lat="42.604807" lon="-2.580640"><ele>1095.0</ele><time>2011-11-30T11:16:58Z</time></trkpt><trkpt lat="42.604818" lon="-2.580637"><ele>1095.5</ele><time>2011-11-30T11:16:59Z</time></trkpt><trkpt lat="42.604865" lon="-2.580628"><ele>1095.0</ele><time>2011-11-30T11:17:00Z</time></trkpt><trkpt lat="42.604883" lon="-2.580637"><ele>1094.5</ele><time>2011-11-30T11:17:01Z</time></trkpt><trkpt lat="42.604892" lon="-2.580638"><ele>1094.0</ele><time>2011-11-30T11:17:02Z</time></trkpt><trkpt lat="42.604897" lon="-2.580648"><ele>1094.5</ele><time>2011-11-30T11:17:03Z</time></trkpt><trkpt lat="42.604913" lon="-2.580655"><ele>1094.5</ele><time>2011-11-30T11:17:04Z</time></trkpt><trkpt lat="42.604933" lon="-2.580670"><ele>1094.5</ele><time>2011-11-30T11:17:05Z</time></trkpt><trkpt lat="42.604940" lon="-2.580670"><ele>1094.5</ele><time>2011-11-30T11:17:06Z</time></trkpt><trkpt lat="42.604955" lon="-2.580673"><ele>1094.0</ele><time>2011-11-30T11:17:07Z</time></trkpt><trkpt lat="42.604962" lon="-2.580670"><ele>1093.5</ele><time>2011-11-30T11:17:08Z</time></trkpt><trkpt lat="42.604978" lon="-2.580675"><ele>1093.0</ele><time>2011-11-30T11:17:09Z</time></trkpt><trkpt lat="42.604988" lon="-2.580675"><ele>1093.5</ele><time>2011-11-30T11:17:10Z</time></trkpt><trkpt lat="42.604997" lon="-2.580677"><ele>1093.5</ele><time>2011-11-30T11:17:11Z</time></trkpt><trkpt lat="42.605017" lon="-2.580683"><ele>1093.0</ele><time>2011-11-30T11:17:12Z</time></trkpt><trkpt lat="42.605032" lon="-2.580687"><ele>1093.0</ele><time>2011-11-30T11:17:13Z</time></trkpt><trkpt lat="42.605105" lon="-2.580712"><ele>1090.5</ele><time>2011-11-30T11:17:14Z</time></trkpt><trkpt lat="42.605122" lon="-2.580708"><ele>1090.5</ele><time>2011-11-30T11:17:15Z</time></trkpt><trkpt lat="42.605145" lon="-2.580723"><ele>1088.5</ele><time>2011-11-30T11:17:16Z</time></trkpt><trkpt lat="42.605160" lon="-2.580727"><ele>1088.0</ele><time>2011-11-30T11:17:17Z</time></trkpt><trkpt lat="42.605188" lon="-2.580738"><ele>1087.0</ele><time>2011-11-30T11:17:18Z</time></trkpt><trkpt lat="42.605192" lon="-2.580752"><ele>1088.5</ele><time>2011-11-30T11:17:19Z</time></trkpt><trkpt lat="42.605208" lon="-2.580747"><ele>1087.5</ele><time>2011-11-30T11:17:20Z</time></trkpt><trkpt lat="42.605228" lon="-2.580763"><ele>1086.5</ele><time>2011-11-30T11:17:21Z</time></trkpt><trkpt lat="42.605270" lon="-2.580790"><ele>1086.0</ele><time>2011-11-30T11:17:22Z</time></trkpt><trkpt lat="42.605288" lon="-2.580803"><ele>1085.0</ele><time>2011-11-30T11:17:23Z</time></trkpt><trkpt lat="42.605300" lon="-2.580812"><ele>1085.0</ele><time>2011-11-30T11:17:24Z</time></trkpt><trkpt lat="42.605332" lon="-2.580828"><ele>1084.0</ele><time>2011-11-30T11:17:25Z</time></trkpt><trkpt lat="42.605352" lon="-2.580832"><ele>1083.5</ele><time>2011-11-30T11:17:26Z</time></trkpt><trkpt lat="42.605377" lon="-2.580832"><ele>1083.0</ele><time>2011-11-30T11:17:27Z</time></trkpt><trkpt lat="42.605395" lon="-2.580835"><ele>1083.5</ele><time>2011-11-30T11:17:28Z</time></trkpt><trkpt lat="42.605405" lon="-2.580835"><ele>1084.0</ele><time>2011-11-30T11:17:29Z</time></trkpt><trkpt lat="42.605418" lon="-2.580857"><ele>1084.0</ele><time>2011-11-30T11:17:30Z</time></trkpt><trkpt lat="42.605415" lon="-2.580853"><ele>1084.0</ele><time>2011-11-30T11:17:31Z</time></trkpt><trkpt lat="42.605390" lon="-2.580852"><ele>1085.5</ele><time>2011-11-30T11:17:32Z</time></trkpt><trkpt lat="42.605423" lon="-2.580850"><ele>1083.5</ele><time>2011-11-30T11:17:34Z</time></trkpt><trkpt lat="42.605433" lon="-2.580858"><ele>1083.0</ele><time>2011-11-30T11:17:35Z</time></trkpt><trkpt lat="42.605432" lon="-2.580862"><ele>1082.0</ele><time>2011-11-30T11:17:36Z</time></trkpt><trkpt lat="42.605447" lon="-2.580870"><ele>1081.5</ele><time>2011-11-30T11:17:37Z</time></trkpt><trkpt lat="42.605455" lon="-2.580872"><ele>1081.5</ele><time>2011-11-30T11:17:38Z</time></trkpt><trkpt lat="42.605463" lon="-2.580872"><ele>1082.0</ele><time>2011-11-30T11:17:39Z</time></trkpt><trkpt lat="42.605523" lon="-2.580972"><ele>1077.0</ele><time>2011-11-30T11:17:40Z</time></trkpt><trkpt lat="42.605533" lon="-2.580955"><ele>1077.0</ele><time>2011-11-30T11:17:41Z</time></trkpt><trkpt lat="42.605550" lon="-2.580947"><ele>1079.5</ele><time>2011-11-30T11:17:42Z</time></trkpt><trkpt lat="42.605598" lon="-2.580938"><ele>1079.5</ele><time>2011-11-30T11:17:43Z</time></trkpt><trkpt lat="42.605617" lon="-2.580942"><ele>1081.0</ele><time>2011-11-30T11:17:44Z</time></trkpt><trkpt lat="42.605622" lon="-2.580962"><ele>1082.0</ele><time>2011-11-30T11:17:45Z</time></trkpt><trkpt lat="42.605630" lon="-2.580960"><ele>1081.5</ele><time>2011-11-30T11:17:46Z</time></trkpt><trkpt lat="42.605622" lon="-2.581002"><ele>1073.0</ele><time>2011-11-30T11:17:47Z</time></trkpt><trkpt lat="42.605615" lon="-2.581000"><ele>1071.5</ele><time>2011-11-30T11:17:48Z</time></trkpt><trkpt lat="42.605647" lon="-2.581072"><ele>1077.5</ele><time>2011-11-30T11:17:50Z</time></trkpt><trkpt lat="42.605655" lon="-2.581077"><ele>1077.5</ele><time>2011-11-30T11:17:51Z</time></trkpt><trkpt lat="42.605687" lon="-2.581095"><ele>1074.0</ele><time>2011-11-30T11:17:52Z</time></trkpt><trkpt lat="42.605722" lon="-2.581150"><ele>1077.0</ele><time>2011-11-30T11:17:53Z</time></trkpt><trkpt lat="42.605775" lon="-2.581198"><ele>1074.5</ele><time>2011-11-30T11:17:54Z</time></trkpt><trkpt lat="42.605787" lon="-2.581235"><ele>1074.0</ele><time>2011-11-30T11:17:55Z</time></trkpt><trkpt lat="42.605802" lon="-2.581263"><ele>1074.0</ele><time>2011-11-30T11:17:56Z</time></trkpt><trkpt lat="42.605795" lon="-2.581260"><ele>1073.0</ele><time>2011-11-30T11:17:57Z</time></trkpt><trkpt lat="42.605840" lon="-2.581307"><ele>1070.5</ele><time>2011-11-30T11:17:58Z</time></trkpt><trkpt lat="42.605848" lon="-2.581323"><ele>1070.5</ele><time>2011-11-30T11:17:59Z</time></trkpt><trkpt lat="42.605858" lon="-2.581343"><ele>1070.5</ele><time>2011-11-30T11:18:00Z</time></trkpt><trkpt lat="42.605873" lon="-2.581378"><ele>1069.0</ele><time>2011-11-30T11:18:01Z</time></trkpt><trkpt lat="42.605907" lon="-2.581443"><ele>1067.5</ele><time>2011-11-30T11:18:02Z</time></trkpt><trkpt lat="42.605923" lon="-2.581487"><ele>1067.5</ele><time>2011-11-30T11:18:03Z</time></trkpt><trkpt lat="42.605938" lon="-2.581592"><ele>1060.5</ele><time>2011-11-30T11:18:04Z</time></trkpt><trkpt lat="42.605933" lon="-2.581602"><ele>1060.0</ele><time>2011-11-30T11:18:05Z</time></trkpt><trkpt lat="42.605943" lon="-2.581620"><ele>1059.5</ele><time>2011-11-30T11:18:06Z</time></trkpt><trkpt lat="42.605938" lon="-2.581628"><ele>1059.5</ele><time>2011-11-30T11:18:07Z</time></trkpt><trkpt lat="42.605923" lon="-2.581640"><ele>1060.0</ele><time>2011-11-30T11:18:08Z</time></trkpt><trkpt lat="42.605917" lon="-2.581645"><ele>1059.5</ele><time>2011-11-30T11:18:09Z</time></trkpt><trkpt lat="42.605910" lon="-2.581655"><ele>1060.5</ele><time>2011-11-30T11:18:10Z</time></trkpt><trkpt lat="42.605903" lon="-2.581660"><ele>1060.0</ele><time>2011-11-30T11:18:11Z</time></trkpt><trkpt lat="42.605887" lon="-2.581668"><ele>1059.0</ele><time>2011-11-30T11:18:12Z</time></trkpt><trkpt lat="42.605870" lon="-2.581678"><ele>1059.0</ele><time>2011-11-30T11:18:13Z</time></trkpt><trkpt lat="42.605845" lon="-2.581712"><ele>1056.0</ele><time>2011-11-30T11:18:14Z</time></trkpt><trkpt lat="42.605840" lon="-2.581728"><ele>1057.0</ele><time>2011-11-30T11:18:15Z</time></trkpt><trkpt lat="42.605830" lon="-2.581743"><ele>1057.5</ele><time>2011-11-30T11:18:16Z</time></trkpt><trkpt lat="42.605790" lon="-2.581763"><ele>1052.5</ele><time>2011-11-30T11:18:17Z</time></trkpt><trkpt lat="42.605775" lon="-2.581772"><ele>1052.0</ele><time>2011-11-30T11:18:18Z</time></trkpt><trkpt lat="42.605747" lon="-2.581787"><ele>1047.5</ele><time>2011-11-30T11:18:19Z</time></trkpt><trkpt lat="42.605750" lon="-2.581802"><ele>1046.0</ele><time>2011-11-30T11:18:20Z</time></trkpt><trkpt lat="42.605742" lon="-2.581893"><ele>1046.0</ele><time>2011-11-30T11:18:21Z</time></trkpt><trkpt lat="42.605740" lon="-2.581915"><ele>1049.0</ele><time>2011-11-30T11:18:22Z</time></trkpt><trkpt lat="42.605743" lon="-2.581940"><ele>1052.0</ele><time>2011-11-30T11:18:23Z</time></trkpt><trkpt lat="42.605750" lon="-2.581940"><ele>1051.5</ele><time>2011-11-30T11:18:24Z</time></trkpt><trkpt lat="42.605733" lon="-2.581975"><ele>1051.0</ele><time>2011-11-30T11:18:25Z</time></trkpt><trkpt lat="42.605748" lon="-2.581985"><ele>1050.5</ele><time>2011-11-30T11:18:26Z</time></trkpt><trkpt lat="42.605755" lon="-2.581990"><ele>1050.5</ele><time>2011-11-30T11:18:27Z</time></trkpt><trkpt lat="42.605790" lon="-2.582130"><ele>1048.0</ele><time>2011-11-30T11:18:28Z</time></trkpt><trkpt lat="42.605798" lon="-2.582132"><ele>1047.5</ele><time>2011-11-30T11:18:29Z</time></trkpt><trkpt lat="42.605805" lon="-2.582128"><ele>1047.0</ele><time>2011-11-30T11:18:30Z</time></trkpt><trkpt lat="42.605822" lon="-2.582138"><ele>1046.0</ele><time>2011-11-30T11:18:31Z</time></trkpt><trkpt lat="42.605827" lon="-2.582133"><ele>1044.0</ele><time>2011-11-30T11:18:32Z</time></trkpt><trkpt lat="42.605848" lon="-2.582137"><ele>1045.5</ele><time>2011-11-30T11:18:33Z</time></trkpt><trkpt lat="42.605848" lon="-2.582140"><ele>1046.0</ele><time>2011-11-30T11:18:34Z</time></trkpt><trkpt lat="42.605865" lon="-2.582153"><ele>1044.5</ele><time>2011-11-30T11:18:35Z</time></trkpt><trkpt lat="42.605915" lon="-2.582165"><ele>1042.5</ele><time>2011-11-30T11:18:36Z</time></trkpt><trkpt lat="42.605927" lon="-2.582163"><ele>1041.5</ele><time>2011-11-30T11:18:37Z</time></trkpt><trkpt lat="42.605935" lon="-2.582178"><ele>1044.0</ele><time>2011-11-30T11:18:38Z</time></trkpt><trkpt lat="42.606015" lon="-2.582185"><ele>1043.5</ele><time>2011-11-30T11:18:39Z</time></trkpt><trkpt lat="42.606035" lon="-2.582185"><ele>1044.0</ele><time>2011-11-30T11:18:40Z</time></trkpt><trkpt lat="42.606092" lon="-2.582182"><ele>1043.5</ele><time>2011-11-30T11:18:41Z</time></trkpt><trkpt lat="42.606107" lon="-2.582183"><ele>1044.5</ele><time>2011-11-30T11:18:42Z</time></trkpt><trkpt lat="42.606125" lon="-2.582173"><ele>1044.0</ele><time>2011-11-30T11:18:43Z</time></trkpt><trkpt lat="42.606115" lon="-2.582163"><ele>1043.0</ele><time>2011-11-30T11:18:44Z</time></trkpt><trkpt lat="42.606143" lon="-2.582180"><ele>1042.5</ele><time>2011-11-30T11:18:45Z</time></trkpt><trkpt lat="42.606175" lon="-2.582192"><ele>1041.5</ele><time>2011-11-30T11:18:47Z</time></trkpt><trkpt lat="42.606203" lon="-2.582198"><ele>1040.0</ele><time>2011-11-30T11:18:48Z</time></trkpt><trkpt lat="42.606222" lon="-2.582217"><ele>1039.5</ele><time>2011-11-30T11:18:49Z</time></trkpt><trkpt lat="42.606233" lon="-2.582230"><ele>1040.0</ele><time>2011-11-30T11:18:50Z</time></trkpt><trkpt lat="42.606242" lon="-2.582243"><ele>1039.0</ele><time>2011-11-30T11:18:51Z</time></trkpt><trkpt lat="42.606248" lon="-2.582258"><ele>1038.5</ele><time>2011-11-30T11:18:52Z</time></trkpt><trkpt lat="42.606263" lon="-2.582272"><ele>1038.0</ele><time>2011-11-30T11:18:53Z</time></trkpt><trkpt lat="42.606280" lon="-2.582280"><ele>1039.0</ele><time>2011-11-30T11:18:54Z</time></trkpt><trkpt lat="42.606278" lon="-2.582295"><ele>1039.0</ele><time>2011-11-30T11:18:55Z</time></trkpt><trkpt lat="42.606278" lon="-2.582313"><ele>1039.0</ele><time>2011-11-30T11:18:56Z</time></trkpt><trkpt lat="42.606285" lon="-2.582325"><ele>1040.0</ele><time>2011-11-30T11:18:57Z</time></trkpt><trkpt lat="42.606288" lon="-2.582337"><ele>1040.5</ele><time>2011-11-30T11:18:58Z</time></trkpt><trkpt lat="42.606278" lon="-2.582357"><ele>1041.0</ele><time>2011-11-30T11:18:59Z</time></trkpt><trkpt lat="42.606270" lon="-2.582402"><ele>1039.0</ele><time>2011-11-30T11:19:00Z</time></trkpt><trkpt lat="42.606268" lon="-2.582415"><ele>1040.0</ele><time>2011-11-30T11:19:01Z</time></trkpt><trkpt lat="42.606278" lon="-2.582420"><ele>1038.0</ele><time>2011-11-30T11:19:02Z</time></trkpt><trkpt lat="42.606273" lon="-2.582428"><ele>1038.0</ele><time>2011-11-30T11:19:03Z</time></trkpt><trkpt lat="42.606282" lon="-2.582458"><ele>1038.0</ele><time>2011-11-30T11:19:04Z</time></trkpt><trkpt lat="42.606278" lon="-2.582478"><ele>1037.5</ele><time>2011-11-30T11:19:05Z</time></trkpt><trkpt lat="42.606290" lon="-2.582480"><ele>1037.0</ele><time>2011-11-30T11:19:06Z</time></trkpt><trkpt lat="42.606298" lon="-2.582498"><ele>1036.5</ele><time>2011-11-30T11:19:07Z</time></trkpt><trkpt lat="42.606305" lon="-2.582505"><ele>1036.0</ele><time>2011-11-30T11:19:08Z</time></trkpt><trkpt lat="42.606310" lon="-2.582523"><ele>1037.5</ele><time>2011-11-30T11:19:09Z</time></trkpt><trkpt lat="42.606318" lon="-2.582537"><ele>1039.0</ele><time>2011-11-30T11:19:10Z</time></trkpt><trkpt lat="42.606322" lon="-2.582573"><ele>1037.5</ele><time>2011-11-30T11:19:11Z</time></trkpt><trkpt lat="42.606315" lon="-2.582587"><ele>1038.5</ele><time>2011-11-30T11:19:12Z</time></trkpt><trkpt lat="42.606318" lon="-2.582593"><ele>1038.5</ele><time>2011-11-30T11:19:13Z</time></trkpt><trkpt lat="42.606262" lon="-2.582728"><ele>1046.0</ele><time>2011-11-30T11:19:14Z</time></trkpt><trkpt lat="42.606215" lon="-2.582788"><ele>1043.0</ele><time>2011-11-30T11:19:15Z</time></trkpt><trkpt lat="42.606195" lon="-2.582810"><ele>1042.0</ele><time>2011-11-30T11:19:16Z</time></trkpt><trkpt lat="42.606202" lon="-2.582810"><ele>1040.0</ele><time>2011-11-30T11:19:17Z</time></trkpt><trkpt lat="42.606212" lon="-2.582875"><ele>1043.0</ele><time>2011-11-30T11:19:18Z</time></trkpt><trkpt lat="42.606232" lon="-2.582893"><ele>1036.0</ele><time>2011-11-30T11:19:19Z</time></trkpt><trkpt lat="42.606232" lon="-2.582895"><ele>1033.0</ele><time>2011-11-30T11:19:20Z</time></trkpt><trkpt lat="42.606257" lon="-2.582913"><ele>1029.0</ele><time>2011-11-30T11:19:21Z</time></trkpt><trkpt lat="42.606268" lon="-2.582930"><ele>1025.0</ele><time>2011-11-30T11:19:22Z</time></trkpt><trkpt lat="42.606265" lon="-2.582938"><ele>1025.0</ele><time>2011-11-30T11:19:23Z</time></trkpt><trkpt lat="42.606312" lon="-2.583033"><ele>1026.0</ele><time>2011-11-30T11:19:25Z</time></trkpt><trkpt lat="42.606325" lon="-2.583047"><ele>1025.5</ele><time>2011-11-30T11:19:26Z</time></trkpt><trkpt lat="42.606325" lon="-2.583062"><ele>1027.0</ele><time>2011-11-30T11:19:27Z</time></trkpt><trkpt lat="42.606323" lon="-2.583067"><ele>1027.5</ele><time>2011-11-30T11:19:28Z</time></trkpt><trkpt lat="42.606335" lon="-2.583080"><ele>1029.5</ele><time>2011-11-30T11:19:29Z</time></trkpt><trkpt lat="42.606328" lon="-2.583095"><ele>1034.0</ele><time>2011-11-30T11:19:30Z</time></trkpt><trkpt lat="42.606360" lon="-2.583097"><ele>1032.5</ele><time>2011-11-30T11:19:31Z</time></trkpt><trkpt lat="42.606408" lon="-2.583113"><ele>1031.5</ele><time>2011-11-30T11:19:33Z</time></trkpt><trkpt lat="42.606470" lon="-2.583140"><ele>1027.5</ele><time>2011-11-30T11:19:34Z</time></trkpt><trkpt lat="42.606488" lon="-2.583162"><ele>1026.0</ele><time>2011-11-30T11:19:35Z</time></trkpt><trkpt lat="42.606488" lon="-2.583177"><ele>1026.5</ele><time>2011-11-30T11:19:36Z</time></trkpt><trkpt lat="42.606502" lon="-2.583192"><ele>1026.0</ele><time>2011-11-30T11:19:37Z</time></trkpt><trkpt lat="42.606487" lon="-2.583220"><ele>1028.0</ele><time>2011-11-30T11:19:38Z</time></trkpt><trkpt lat="42.606503" lon="-2.583252"><ele>1029.0</ele><time>2011-11-30T11:19:39Z</time></trkpt><trkpt lat="42.606512" lon="-2.583272"><ele>1029.5</ele><time>2011-11-30T11:19:40Z</time></trkpt><trkpt lat="42.606527" lon="-2.583287"><ele>1028.5</ele><time>2011-11-30T11:19:41Z</time></trkpt><trkpt lat="42.606540" lon="-2.583302"><ele>1023.0</ele><time>2011-11-30T11:19:42Z</time></trkpt><trkpt lat="42.606530" lon="-2.583315"><ele>1022.0</ele><time>2011-11-30T11:19:43Z</time></trkpt><trkpt lat="42.606528" lon="-2.583317"><ele>1018.5</ele><time>2011-11-30T11:19:44Z</time></trkpt><trkpt lat="42.606548" lon="-2.583328"><ele>1016.5</ele><time>2011-11-30T11:19:45Z</time></trkpt><trkpt lat="42.606568" lon="-2.583335"><ele>1014.5</ele><time>2011-11-30T11:19:46Z</time></trkpt><trkpt lat="42.606597" lon="-2.583313"><ele>1007.0</ele><time>2011-11-30T11:19:47Z</time></trkpt><trkpt lat="42.606600" lon="-2.583313"><ele>1002.5</ele><time>2011-11-30T11:19:48Z</time></trkpt><trkpt lat="42.606623" lon="-2.583347"><ele>1003.5</ele><time>2011-11-30T11:19:50Z</time></trkpt><trkpt lat="42.606635" lon="-2.583368"><ele>1003.5</ele><time>2011-11-30T11:19:51Z</time></trkpt><trkpt lat="42.606708" lon="-2.583493"><ele>1008.0</ele><time>2011-11-30T11:19:52Z</time></trkpt><trkpt lat="42.606690" lon="-2.583578"><ele>1018.5</ele><time>2011-11-30T11:19:53Z</time></trkpt><trkpt lat="42.606700" lon="-2.583600"><ele>1020.0</ele><time>2011-11-30T11:19:54Z</time></trkpt><trkpt lat="42.606707" lon="-2.583615"><ele>1018.5</ele><time>2011-11-30T11:19:55Z</time></trkpt><trkpt lat="42.606762" lon="-2.583628"><ele>1016.0</ele><time>2011-11-30T11:19:56Z</time></trkpt><trkpt lat="42.606762" lon="-2.583622"><ele>1014.5</ele><time>2011-11-30T11:19:57Z</time></trkpt><trkpt lat="42.606782" lon="-2.583615"><ele>1012.5</ele><time>2011-11-30T11:19:58Z</time></trkpt><trkpt lat="42.606847" lon="-2.583620"><ele>1011.5</ele><time>2011-11-30T11:20:00Z</time></trkpt><trkpt lat="42.606858" lon="-2.583617"><ele>1010.5</ele><time>2011-11-30T11:20:01Z</time></trkpt><trkpt lat="42.606880" lon="-2.583613"><ele>1007.5</ele><time>2011-11-30T11:20:02Z</time></trkpt><trkpt lat="42.606965" lon="-2.583598"><ele>1002.5</ele><time>2011-11-30T11:20:03Z</time></trkpt><trkpt lat="42.606983" lon="-2.583603"><ele>1001.0</ele><time>2011-11-30T11:20:04Z</time></trkpt><trkpt lat="42.607022" lon="-2.583580"><ele>999.0</ele><time>2011-11-30T11:20:05Z</time></trkpt><trkpt lat="42.607070" lon="-2.583555"><ele>1000.5</ele><time>2011-11-30T11:20:06Z</time></trkpt><trkpt lat="42.607080" lon="-2.583557"><ele>1001.0</ele><time>2011-11-30T11:20:07Z</time></trkpt><trkpt lat="42.607168" lon="-2.583523"><ele>997.5</ele><time>2011-11-30T11:20:08Z</time></trkpt><trkpt lat="42.607182" lon="-2.583518"><ele>997.0</ele><time>2011-11-30T11:20:09Z</time></trkpt><trkpt lat="42.607237" lon="-2.583502"><ele>994.0</ele><time>2011-11-30T11:20:10Z</time></trkpt><trkpt lat="42.607267" lon="-2.583493"><ele>993.0</ele><time>2011-11-30T11:20:11Z</time></trkpt><trkpt lat="42.607290" lon="-2.583485"><ele>993.5</ele><time>2011-11-30T11:20:12Z</time></trkpt><trkpt lat="42.607333" lon="-2.583465"><ele>991.5</ele><time>2011-11-30T11:20:13Z</time></trkpt><trkpt lat="42.607398" lon="-2.583455"><ele>989.5</ele><time>2011-11-30T11:20:15Z</time></trkpt><trkpt lat="42.607425" lon="-2.583435"><ele>989.5</ele><time>2011-11-30T11:20:16Z</time></trkpt><trkpt lat="42.607440" lon="-2.583432"><ele>987.5</ele><time>2011-11-30T11:20:17Z</time></trkpt><trkpt lat="42.607463" lon="-2.583428"><ele>988.0</ele><time>2011-11-30T11:20:18Z</time></trkpt><trkpt lat="42.607513" lon="-2.583427"><ele>992.0</ele><time>2011-11-30T11:20:19Z</time></trkpt><trkpt lat="42.607567" lon="-2.583437"><ele>993.5</ele><time>2011-11-30T11:20:21Z</time></trkpt><trkpt lat="42.607582" lon="-2.583450"><ele>995.5</ele><time>2011-11-30T11:20:22Z</time></trkpt><trkpt lat="42.607587" lon="-2.583462"><ele>995.0</ele><time>2011-11-30T11:20:23Z</time></trkpt><trkpt lat="42.607617" lon="-2.583455"><ele>989.0</ele><time>2011-11-30T11:20:25Z</time></trkpt><trkpt lat="42.607623" lon="-2.583467"><ele>988.0</ele><time>2011-11-30T11:20:26Z</time></trkpt><trkpt lat="42.607632" lon="-2.583478"><ele>989.0</ele><time>2011-11-30T11:20:27Z</time></trkpt><trkpt lat="42.607637" lon="-2.583490"><ele>988.5</ele><time>2011-11-30T11:20:28Z</time></trkpt><trkpt lat="42.607638" lon="-2.583503"><ele>988.5</ele><time>2011-11-30T11:20:29Z</time></trkpt><trkpt lat="42.607640" lon="-2.583515"><ele>987.5</ele><time>2011-11-30T11:20:30Z</time></trkpt><trkpt lat="42.607635" lon="-2.583532"><ele>988.5</ele><time>2011-11-30T11:20:31Z</time></trkpt><trkpt lat="42.607625" lon="-2.583552"><ele>989.0</ele><time>2011-11-30T11:20:32Z</time></trkpt><trkpt lat="42.607622" lon="-2.583568"><ele>990.0</ele><time>2011-11-30T11:20:33Z</time></trkpt><trkpt lat="42.607612" lon="-2.583582"><ele>991.0</ele><time>2011-11-30T11:20:34Z</time></trkpt><trkpt lat="42.607613" lon="-2.583643"><ele>991.5</ele><time>2011-11-30T11:20:35Z</time></trkpt><trkpt lat="42.607645" lon="-2.583663"><ele>990.5</ele><time>2011-11-30T11:20:37Z</time></trkpt><trkpt lat="42.607647" lon="-2.583673"><ele>991.0</ele><time>2011-11-30T11:20:38Z</time></trkpt><trkpt lat="42.607645" lon="-2.583683"><ele>991.0</ele><time>2011-11-30T11:20:39Z</time></trkpt><trkpt lat="42.607640" lon="-2.583713"><ele>991.0</ele><time>2011-11-30T11:20:40Z</time></trkpt><trkpt lat="42.607637" lon="-2.583723"><ele>991.0</ele><time>2011-11-30T11:20:41Z</time></trkpt><trkpt lat="42.607648" lon="-2.583753"><ele>991.0</ele><time>2011-11-30T11:20:42Z</time></trkpt><trkpt lat="42.607638" lon="-2.583755"><ele>991.0</ele><time>2011-11-30T11:20:43Z</time></trkpt><trkpt lat="42.607668" lon="-2.583823"><ele>996.5</ele><time>2011-11-30T11:20:44Z</time></trkpt><trkpt lat="42.607668" lon="-2.583842"><ele>997.0</ele><time>2011-11-30T11:20:45Z</time></trkpt><trkpt lat="42.607673" lon="-2.583852"><ele>998.0</ele><time>2011-11-30T11:20:46Z</time></trkpt><trkpt lat="42.607790" lon="-2.583838"><ele>989.5</ele><time>2011-11-30T11:20:47Z</time></trkpt><trkpt lat="42.607805" lon="-2.583838"><ele>989.0</ele><time>2011-11-30T11:20:48Z</time></trkpt><trkpt lat="42.607815" lon="-2.583823"><ele>987.5</ele><time>2011-11-30T11:20:49Z</time></trkpt><trkpt lat="42.607845" lon="-2.583825"><ele>987.5</ele><time>2011-11-30T11:20:50Z</time></trkpt><trkpt lat="42.607870" lon="-2.583822"><ele>986.0</ele><time>2011-11-30T11:20:51Z</time></trkpt><trkpt lat="42.607880" lon="-2.583822"><ele>985.5</ele><time>2011-11-30T11:20:52Z</time></trkpt><trkpt lat="42.607900" lon="-2.583818"><ele>986.5</ele><time>2011-11-30T11:20:53Z</time></trkpt><trkpt lat="42.607912" lon="-2.583815"><ele>986.5</ele><time>2011-11-30T11:20:54Z</time></trkpt><trkpt lat="42.607940" lon="-2.583817"><ele>987.5</ele><time>2011-11-30T11:20:55Z</time></trkpt><trkpt lat="42.607947" lon="-2.583825"><ele>986.0</ele><time>2011-11-30T11:20:56Z</time></trkpt><trkpt lat="42.607983" lon="-2.583833"><ele>984.5</ele><time>2011-11-30T11:20:57Z</time></trkpt><trkpt lat="42.607990" lon="-2.583838"><ele>984.0</ele><time>2011-11-30T11:20:58Z</time></trkpt><trkpt lat="42.607982" lon="-2.583802"><ele>982.0</ele><time>2011-11-30T11:20:59Z</time></trkpt><trkpt lat="42.607987" lon="-2.583812"><ele>982.0</ele><time>2011-11-30T11:21:00Z</time></trkpt><trkpt lat="42.607988" lon="-2.583808"><ele>982.0</ele><time>2011-11-30T11:21:01Z</time></trkpt><trkpt lat="42.607998" lon="-2.583860"><ele>982.0</ele><time>2011-11-30T11:21:02Z</time></trkpt><trkpt lat="42.608032" lon="-2.583850"><ele>983.5</ele><time>2011-11-30T11:21:04Z</time></trkpt><trkpt lat="42.608168" lon="-2.583832"><ele>974.0</ele><time>2011-11-30T11:21:05Z</time></trkpt><trkpt lat="42.608175" lon="-2.583825"><ele>973.0</ele><time>2011-11-30T11:21:06Z</time></trkpt><trkpt lat="42.608183" lon="-2.583822"><ele>973.0</ele><time>2011-11-30T11:21:07Z</time></trkpt><trkpt lat="42.608202" lon="-2.583812"><ele>971.5</ele><time>2011-11-30T11:21:08Z</time></trkpt><trkpt lat="42.608255" lon="-2.583803"><ele>971.5</ele><time>2011-11-30T11:21:09Z</time></trkpt><trkpt lat="42.608267" lon="-2.583797"><ele>972.5</ele><time>2011-11-30T11:21:10Z</time></trkpt><trkpt lat="42.608285" lon="-2.583790"><ele>973.5</ele><time>2011-11-30T11:21:11Z</time></trkpt><trkpt lat="42.608317" lon="-2.583755"><ele>968.0</ele><time>2011-11-30T11:21:12Z</time></trkpt><trkpt lat="42.608335" lon="-2.583738"><ele>966.5</ele><time>2011-11-30T11:21:13Z</time></trkpt><trkpt lat="42.608347" lon="-2.583730"><ele>966.5</ele><time>2011-11-30T11:21:14Z</time></trkpt><trkpt lat="42.608357" lon="-2.583727"><ele>966.5</ele><time>2011-11-30T11:21:15Z</time></trkpt><trkpt lat="42.608365" lon="-2.583717"><ele>966.5</ele><time>2011-11-30T11:21:16Z</time></trkpt><trkpt lat="42.608390" lon="-2.583695"><ele>966.5</ele><time>2011-11-30T11:21:17Z</time></trkpt><trkpt lat="42.608395" lon="-2.583687"><ele>966.0</ele><time>2011-11-30T11:21:18Z</time></trkpt><trkpt lat="42.608400" lon="-2.583677"><ele>966.0</ele><time>2011-11-30T11:21:19Z</time></trkpt><trkpt lat="42.608408" lon="-2.583668"><ele>965.5</ele><time>2011-11-30T11:21:20Z</time></trkpt><trkpt lat="42.608415" lon="-2.583657"><ele>965.5</ele><time>2011-11-30T11:21:21Z</time></trkpt><trkpt lat="42.608422" lon="-2.583653"><ele>965.0</ele><time>2011-11-30T11:21:22Z</time></trkpt><trkpt lat="42.608447" lon="-2.583637"><ele>962.0</ele><time>2011-11-30T11:21:23Z</time></trkpt><trkpt lat="42.608455" lon="-2.583635"><ele>962.0</ele><time>2011-11-30T11:21:24Z</time></trkpt><trkpt lat="42.608483" lon="-2.583613"><ele>964.0</ele><time>2011-11-30T11:21:25Z</time></trkpt><trkpt lat="42.608497" lon="-2.583612"><ele>964.0</ele><time>2011-11-30T11:21:26Z</time></trkpt><trkpt lat="42.608513" lon="-2.583610"><ele>965.0</ele><time>2011-11-30T11:21:27Z</time></trkpt><trkpt lat="42.608525" lon="-2.583612"><ele>965.5</ele><time>2011-11-30T11:21:28Z</time></trkpt><trkpt lat="42.608542" lon="-2.583617"><ele>966.0</ele><time>2011-11-30T11:21:29Z</time></trkpt><trkpt lat="42.608557" lon="-2.583625"><ele>965.5</ele><time>2011-11-30T11:21:30Z</time></trkpt><trkpt lat="42.608577" lon="-2.583642"><ele>965.5</ele><time>2011-11-30T11:21:31Z</time></trkpt><trkpt lat="42.608583" lon="-2.583652"><ele>965.0</ele><time>2011-11-30T11:21:32Z</time></trkpt><trkpt lat="42.608602" lon="-2.583668"><ele>963.5</ele><time>2011-11-30T11:21:33Z</time></trkpt><trkpt lat="42.608610" lon="-2.583672"><ele>963.0</ele><time>2011-11-30T11:21:34Z</time></trkpt><trkpt lat="42.608613" lon="-2.583685"><ele>963.0</ele><time>2011-11-30T11:21:35Z</time></trkpt><trkpt lat="42.608623" lon="-2.583708"><ele>961.0</ele><time>2011-11-30T11:21:36Z</time></trkpt><trkpt lat="42.608637" lon="-2.583725"><ele>961.0</ele><time>2011-11-30T11:21:37Z</time></trkpt><trkpt lat="42.608657" lon="-2.583743"><ele>961.5</ele><time>2011-11-30T11:21:38Z</time></trkpt><trkpt lat="42.608683" lon="-2.583788"><ele>962.0</ele><time>2011-11-30T11:21:39Z</time></trkpt><trkpt lat="42.608702" lon="-2.583807"><ele>962.0</ele><time>2011-11-30T11:21:39Z</time></trkpt><trkpt lat="42.608725" lon="-2.583828"><ele>962.5</ele><time>2011-11-30T11:21:41Z</time></trkpt><trkpt lat="42.608745" lon="-2.583858"><ele>961.5</ele><time>2011-11-30T11:21:42Z</time></trkpt><trkpt lat="42.608743" lon="-2.583872"><ele>961.5</ele><time>2011-11-30T11:21:43Z</time></trkpt><trkpt lat="42.608742" lon="-2.583883"><ele>958.5</ele><time>2011-11-30T11:21:44Z</time></trkpt><trkpt lat="42.608748" lon="-2.583898"><ele>958.5</ele><time>2011-11-30T11:21:45Z</time></trkpt><trkpt lat="42.608755" lon="-2.583917"><ele>957.0</ele><time>2011-11-30T11:21:46Z</time></trkpt><trkpt lat="42.608758" lon="-2.583938"><ele>956.0</ele><time>2011-11-30T11:21:47Z</time></trkpt><trkpt lat="42.608765" lon="-2.583955"><ele>954.0</ele><time>2011-11-30T11:21:48Z</time></trkpt><trkpt lat="42.608775" lon="-2.583977"><ele>954.5</ele><time>2011-11-30T11:21:49Z</time></trkpt><trkpt lat="42.608777" lon="-2.583993"><ele>954.0</ele><time>2011-11-30T11:21:50Z</time></trkpt><trkpt lat="42.608785" lon="-2.584000"><ele>953.0</ele><time>2011-11-30T11:21:51Z</time></trkpt><trkpt lat="42.608800" lon="-2.584012"><ele>953.5</ele><time>2011-11-30T11:21:52Z</time></trkpt><trkpt lat="42.608805" lon="-2.584025"><ele>952.5</ele><time>2011-11-30T11:21:53Z</time></trkpt><trkpt lat="42.608815" lon="-2.584052"><ele>954.0</ele><time>2011-11-30T11:21:54Z</time></trkpt><trkpt lat="42.608820" lon="-2.584062"><ele>952.5</ele><time>2011-11-30T11:21:55Z</time></trkpt><trkpt lat="42.608823" lon="-2.584075"><ele>952.5</ele><time>2011-11-30T11:21:56Z</time></trkpt><trkpt lat="42.608822" lon="-2.584098"><ele>953.0</ele><time>2011-11-30T11:21:57Z</time></trkpt><trkpt lat="42.608833" lon="-2.584113"><ele>952.5</ele><time>2011-11-30T11:21:58Z</time></trkpt><trkpt lat="42.608818" lon="-2.584123"><ele>953.0</ele><time>2011-11-30T11:21:59Z</time></trkpt><trkpt lat="42.608798" lon="-2.584133"><ele>953.5</ele><time>2011-11-30T11:22:00Z</time></trkpt><trkpt lat="42.608788" lon="-2.584153"><ele>952.5</ele><time>2011-11-30T11:22:01Z</time></trkpt><trkpt lat="42.608777" lon="-2.584203"><ele>953.0</ele><time>2011-11-30T11:22:02Z</time></trkpt><trkpt lat="42.608800" lon="-2.584223"><ele>950.5</ele><time>2011-11-30T11:22:02Z</time></trkpt><trkpt lat="42.608812" lon="-2.584242"><ele>950.5</ele><time>2011-11-30T11:22:04Z</time></trkpt><trkpt lat="42.608830" lon="-2.584307"><ele>951.5</ele><time>2011-11-30T11:22:05Z</time></trkpt><trkpt lat="42.608828" lon="-2.584335"><ele>954.0</ele><time>2011-11-30T11:22:06Z</time></trkpt><trkpt lat="42.608842" lon="-2.584358"><ele>952.5</ele><time>2011-11-30T11:22:07Z</time></trkpt><trkpt lat="42.608837" lon="-2.584380"><ele>953.5</ele><time>2011-11-30T11:22:08Z</time></trkpt><trkpt lat="42.608828" lon="-2.584405"><ele>954.5</ele><time>2011-11-30T11:22:09Z</time></trkpt><trkpt lat="42.608823" lon="-2.584417"><ele>954.5</ele><time>2011-11-30T11:22:10Z</time></trkpt><trkpt lat="42.608818" lon="-2.584430"><ele>955.5</ele><time>2011-11-30T11:22:11Z</time></trkpt><trkpt lat="42.608793" lon="-2.584493"><ele>960.0</ele><time>2011-11-30T11:22:13Z</time></trkpt><trkpt lat="42.608787" lon="-2.584503"><ele>960.5</ele><time>2011-11-30T11:22:14Z</time></trkpt><trkpt lat="42.608742" lon="-2.584570"><ele>964.0</ele><time>2011-11-30T11:22:15Z</time></trkpt><trkpt lat="42.608760" lon="-2.584595"><ele>963.0</ele><time>2011-11-30T11:22:17Z</time></trkpt><trkpt lat="42.608753" lon="-2.584622"><ele>962.5</ele><time>2011-11-30T11:22:18Z</time></trkpt><trkpt lat="42.608737" lon="-2.584638"><ele>964.0</ele><time>2011-11-30T11:22:19Z</time></trkpt><trkpt lat="42.608740" lon="-2.584650"><ele>959.0</ele><time>2011-11-30T11:22:20Z</time></trkpt><trkpt lat="42.608728" lon="-2.584662"><ele>959.0</ele><time>2011-11-30T11:22:21Z</time></trkpt><trkpt lat="42.608723" lon="-2.584675"><ele>959.5</ele><time>2011-11-30T11:22:22Z</time></trkpt><trkpt lat="42.608713" lon="-2.584685"><ele>959.5</ele><time>2011-11-30T11:22:23Z</time></trkpt><trkpt lat="42.608718" lon="-2.584688"><ele>958.5</ele><time>2011-11-30T11:22:24Z</time></trkpt><trkpt lat="42.608728" lon="-2.584697"><ele>957.5</ele><time>2011-11-30T11:22:25Z</time></trkpt><trkpt lat="42.608728" lon="-2.584708"><ele>957.0</ele><time>2011-11-30T11:22:26Z</time></trkpt><trkpt lat="42.608742" lon="-2.584748"><ele>953.0</ele><time>2011-11-30T11:22:26Z</time></trkpt><trkpt lat="42.608725" lon="-2.584758"><ele>951.5</ele><time>2011-11-30T11:22:27Z</time></trkpt><trkpt lat="42.608713" lon="-2.584768"><ele>950.0</ele><time>2011-11-30T11:22:29Z</time></trkpt><trkpt lat="42.608710" lon="-2.584797"><ele>952.0</ele><time>2011-11-30T11:22:30Z</time></trkpt><trkpt lat="42.608695" lon="-2.584838"><ele>953.0</ele><time>2011-11-30T11:22:32Z</time></trkpt><trkpt lat="42.608682" lon="-2.584835"><ele>951.0</ele><time>2011-11-30T11:22:33Z</time></trkpt><trkpt lat="42.608688" lon="-2.584845"><ele>950.0</ele><time>2011-11-30T11:22:34Z</time></trkpt><trkpt lat="42.608670" lon="-2.584852"><ele>950.0</ele><time>2011-11-30T11:22:35Z</time></trkpt><trkpt lat="42.608670" lon="-2.584890"><ele>953.5</ele><time>2011-11-30T11:22:36Z</time></trkpt><trkpt lat="42.608705" lon="-2.584997"><ele>952.0</ele><time>2011-11-30T11:22:37Z</time></trkpt><trkpt lat="42.608742" lon="-2.585017"><ele>949.0</ele><time>2011-11-30T11:22:39Z</time></trkpt><trkpt lat="42.608800" lon="-2.585053"><ele>941.5</ele><time>2011-11-30T11:22:41Z</time></trkpt><trkpt lat="42.608808" lon="-2.585065"><ele>940.0</ele><time>2011-11-30T11:22:42Z</time></trkpt><trkpt lat="42.608835" lon="-2.585085"><ele>936.5</ele><time>2011-11-30T11:22:43Z</time></trkpt><trkpt lat="42.608833" lon="-2.585098"><ele>937.0</ele><time>2011-11-30T11:22:44Z</time></trkpt><trkpt lat="42.608888" lon="-2.585135"><ele>936.5</ele><time>2011-11-30T11:22:46Z</time></trkpt><trkpt lat="42.608887" lon="-2.585147"><ele>936.5</ele><time>2011-11-30T11:22:47Z</time></trkpt><trkpt lat="42.608887" lon="-2.585162"><ele>937.0</ele><time>2011-11-30T11:22:48Z</time></trkpt><trkpt lat="42.608868" lon="-2.585178"><ele>935.5</ele><time>2011-11-30T11:22:49Z</time></trkpt><trkpt lat="42.608855" lon="-2.585190"><ele>935.0</ele><time>2011-11-30T11:22:50Z</time></trkpt><trkpt lat="42.608850" lon="-2.585208"><ele>935.5</ele><time>2011-11-30T11:22:51Z</time></trkpt><trkpt lat="42.608848" lon="-2.585233"><ele>936.0</ele><time>2011-11-30T11:22:52Z</time></trkpt><trkpt lat="42.608840" lon="-2.585247"><ele>935.5</ele><time>2011-11-30T11:22:53Z</time></trkpt><trkpt lat="42.608858" lon="-2.585317"><ele>939.0</ele><time>2011-11-30T11:22:55Z</time></trkpt><trkpt lat="42.608883" lon="-2.585403"><ele>940.5</ele><time>2011-11-30T11:22:56Z</time></trkpt><trkpt lat="42.608888" lon="-2.585438"><ele>942.0</ele><time>2011-11-30T11:22:57Z</time></trkpt><trkpt lat="42.608898" lon="-2.585458"><ele>942.0</ele><time>2011-11-30T11:22:58Z</time></trkpt><trkpt lat="42.608892" lon="-2.585467"><ele>941.5</ele><time>2011-11-30T11:22:59Z</time></trkpt><trkpt lat="42.608863" lon="-2.585513"><ele>939.0</ele><time>2011-11-30T11:23:00Z</time></trkpt><trkpt lat="42.608888" lon="-2.585578"><ele>938.5</ele><time>2011-11-30T11:23:01Z</time></trkpt><trkpt lat="42.608897" lon="-2.585582"><ele>936.5</ele><time>2011-11-30T11:23:02Z</time></trkpt><trkpt lat="42.608913" lon="-2.585588"><ele>936.0</ele><time>2011-11-30T11:23:03Z</time></trkpt><trkpt lat="42.608923" lon="-2.585588"><ele>935.0</ele><time>2011-11-30T11:23:04Z</time></trkpt><trkpt lat="42.608963" lon="-2.585612"><ele>934.0</ele><time>2011-11-30T11:23:05Z</time></trkpt><trkpt lat="42.608970" lon="-2.585612"><ele>933.0</ele><time>2011-11-30T11:23:06Z</time></trkpt><trkpt lat="42.609007" lon="-2.585657"><ele>931.5</ele><time>2011-11-30T11:23:07Z</time></trkpt><trkpt lat="42.609007" lon="-2.585678"><ele>932.5</ele><time>2011-11-30T11:23:08Z</time></trkpt><trkpt lat="42.609018" lon="-2.585685"><ele>928.0</ele><time>2011-11-30T11:23:09Z</time></trkpt><trkpt lat="42.609058" lon="-2.585750"><ele>926.5</ele><time>2011-11-30T11:23:10Z</time></trkpt><trkpt lat="42.609087" lon="-2.585768"><ele>926.5</ele><time>2011-11-30T11:23:11Z</time></trkpt><trkpt lat="42.609107" lon="-2.585793"><ele>927.5</ele><time>2011-11-30T11:23:12Z</time></trkpt><trkpt lat="42.609100" lon="-2.585802"><ele>928.0</ele><time>2011-11-30T11:23:13Z</time></trkpt><trkpt lat="42.609122" lon="-2.585803"><ele>928.0</ele><time>2011-11-30T11:23:14Z</time></trkpt><trkpt lat="42.609172" lon="-2.585820"><ele>927.5</ele><time>2011-11-30T11:23:16Z</time></trkpt><trkpt lat="42.609182" lon="-2.585815"><ele>927.0</ele><time>2011-11-30T11:23:17Z</time></trkpt><trkpt lat="42.609188" lon="-2.585812"><ele>926.5</ele><time>2011-11-30T11:23:18Z</time></trkpt><trkpt lat="42.609185" lon="-2.585797"><ele>924.5</ele><time>2011-11-30T11:23:19Z</time></trkpt><trkpt lat="42.609202" lon="-2.585800"><ele>924.5</ele><time>2011-11-30T11:23:20Z</time></trkpt><trkpt lat="42.609215" lon="-2.585790"><ele>924.0</ele><time>2011-11-30T11:23:21Z</time></trkpt><trkpt lat="42.609227" lon="-2.585783"><ele>923.0</ele><time>2011-11-30T11:23:22Z</time></trkpt><trkpt lat="42.609238" lon="-2.585802"><ele>925.0</ele><time>2011-11-30T11:23:23Z</time></trkpt><trkpt lat="42.609242" lon="-2.585802"><ele>925.5</ele><time>2011-11-30T11:23:24Z</time></trkpt><trkpt lat="42.609252" lon="-2.585803"><ele>925.5</ele><time>2011-11-30T11:23:25Z</time></trkpt><trkpt lat="42.609262" lon="-2.585807"><ele>926.0</ele><time>2011-11-30T11:23:26Z</time></trkpt><trkpt lat="42.609267" lon="-2.585812"><ele>926.0</ele><time>2011-11-30T11:23:27Z</time></trkpt><trkpt lat="42.609277" lon="-2.585817"><ele>926.5</ele><time>2011-11-30T11:23:28Z</time></trkpt><trkpt lat="42.609293" lon="-2.585823"><ele>927.5</ele><time>2011-11-30T11:23:29Z</time></trkpt><trkpt lat="42.609315" lon="-2.585830"><ele>929.0</ele><time>2011-11-30T11:23:30Z</time></trkpt><trkpt lat="42.609337" lon="-2.585830"><ele>929.5</ele><time>2011-11-30T11:23:31Z</time></trkpt><trkpt lat="42.609350" lon="-2.585828"><ele>930.0</ele><time>2011-11-30T11:23:32Z</time></trkpt><trkpt lat="42.609360" lon="-2.585823"><ele>930.5</ele><time>2011-11-30T11:23:33Z</time></trkpt><trkpt lat="42.609373" lon="-2.585823"><ele>931.5</ele><time>2011-11-30T11:23:34Z</time></trkpt><trkpt lat="42.609383" lon="-2.585820"><ele>931.5</ele><time>2011-11-30T11:23:35Z</time></trkpt><trkpt lat="42.609392" lon="-2.585815"><ele>931.5</ele><time>2011-11-30T11:23:36Z</time></trkpt><trkpt lat="42.609397" lon="-2.585808"><ele>931.5</ele><time>2011-11-30T11:23:37Z</time></trkpt><trkpt lat="42.609400" lon="-2.585802"><ele>931.5</ele><time>2011-11-30T11:23:38Z</time></trkpt><trkpt lat="42.609410" lon="-2.585800"><ele>931.0</ele><time>2011-11-30T11:23:39Z</time></trkpt><trkpt lat="42.609412" lon="-2.585792"><ele>931.5</ele><time>2011-11-30T11:23:40Z</time></trkpt><trkpt lat="42.609418" lon="-2.585782"><ele>932.0</ele><time>2011-11-30T11:23:41Z</time></trkpt><trkpt lat="42.609417" lon="-2.585775"><ele>931.0</ele><time>2011-11-30T11:23:42Z</time></trkpt><trkpt lat="42.609422" lon="-2.585763"><ele>930.5</ele><time>2011-11-30T11:23:43Z</time></trkpt><trkpt lat="42.609422" lon="-2.585753"><ele>930.0</ele><time>2011-11-30T11:23:44Z</time></trkpt><trkpt lat="42.609423" lon="-2.585745"><ele>929.0</ele><time>2011-11-30T11:23:45Z</time></trkpt><trkpt lat="42.609427" lon="-2.585737"><ele>928.5</ele><time>2011-11-30T11:23:46Z</time></trkpt><trkpt lat="42.609430" lon="-2.585728"><ele>927.5</ele><time>2011-11-30T11:23:47Z</time></trkpt><trkpt lat="42.609433" lon="-2.585723"><ele>927.5</ele><time>2011-11-30T11:23:48Z</time></trkpt><trkpt lat="42.609437" lon="-2.585712"><ele>927.0</ele><time>2011-11-30T11:23:49Z</time></trkpt><trkpt lat="42.609445" lon="-2.585703"><ele>927.0</ele><time>2011-11-30T11:23:50Z</time></trkpt><trkpt lat="42.609448" lon="-2.585695"><ele>927.0</ele><time>2011-11-30T11:23:51Z</time></trkpt><trkpt lat="42.609455" lon="-2.585683"><ele>927.5</ele><time>2011-11-30T11:23:52Z</time></trkpt><trkpt lat="42.609463" lon="-2.585673"><ele>927.0</ele><time>2011-11-30T11:23:53Z</time></trkpt><trkpt lat="42.609467" lon="-2.585668"><ele>926.5</ele><time>2011-11-30T11:23:54Z</time></trkpt><trkpt lat="42.609467" lon="-2.585655"><ele>925.5</ele><time>2011-11-30T11:23:55Z</time></trkpt><trkpt lat="42.609513" lon="-2.585628"><ele>925.0</ele><time>2011-11-30T11:23:56Z</time></trkpt><trkpt lat="42.609578" lon="-2.585603"><ele>923.0</ele><time>2011-11-30T11:23:56Z</time></trkpt><trkpt lat="42.609617" lon="-2.585592"><ele>922.5</ele><time>2011-11-30T11:23:58Z</time></trkpt><trkpt lat="42.609637" lon="-2.585590"><ele>923.5</ele><time>2011-11-30T11:23:59Z</time></trkpt><trkpt lat="42.609643" lon="-2.585582"><ele>922.5</ele><time>2011-11-30T11:24:01Z</time></trkpt><trkpt lat="42.609707" lon="-2.585558"><ele>921.0</ele><time>2011-11-30T11:24:02Z</time></trkpt><trkpt lat="42.609718" lon="-2.585553"><ele>921.0</ele><time>2011-11-30T11:24:02Z</time></trkpt><trkpt lat="42.609725" lon="-2.585538"><ele>919.5</ele><time>2011-11-30T11:24:03Z</time></trkpt><trkpt lat="42.609728" lon="-2.585525"><ele>919.5</ele><time>2011-11-30T11:24:05Z</time></trkpt><trkpt lat="42.609730" lon="-2.585512"><ele>919.0</ele><time>2011-11-30T11:24:06Z</time></trkpt><trkpt lat="42.609742" lon="-2.585498"><ele>919.5</ele><time>2011-11-30T11:24:06Z</time></trkpt><trkpt lat="42.609748" lon="-2.585488"><ele>919.0</ele><time>2011-11-30T11:24:07Z</time></trkpt><trkpt lat="42.609753" lon="-2.585475"><ele>918.5</ele><time>2011-11-30T11:24:08Z</time></trkpt><trkpt lat="42.609767" lon="-2.585470"><ele>919.0</ele><time>2011-11-30T11:24:09Z</time></trkpt><trkpt lat="42.609772" lon="-2.585447"><ele>917.5</ele><time>2011-11-30T11:24:10Z</time></trkpt><trkpt lat="42.609773" lon="-2.585433"><ele>917.0</ele><time>2011-11-30T11:24:11Z</time></trkpt><trkpt lat="42.609782" lon="-2.585422"><ele>917.0</ele><time>2011-11-30T11:24:12Z</time></trkpt><trkpt lat="42.609788" lon="-2.585408"><ele>917.0</ele><time>2011-11-30T11:24:13Z</time></trkpt><trkpt lat="42.609802" lon="-2.585398"><ele>917.0</ele><time>2011-11-30T11:24:14Z</time></trkpt><trkpt lat="42.609813" lon="-2.585377"><ele>916.0</ele><time>2011-11-30T11:24:15Z</time></trkpt><trkpt lat="42.609823" lon="-2.585368"><ele>915.0</ele><time>2011-11-30T11:24:16Z</time></trkpt><trkpt lat="42.609835" lon="-2.585362"><ele>915.0</ele><time>2011-11-30T11:24:17Z</time></trkpt><trkpt lat="42.609842" lon="-2.585352"><ele>914.5</ele><time>2011-11-30T11:24:18Z</time></trkpt><trkpt lat="42.609848" lon="-2.585338"><ele>914.0</ele><time>2011-11-30T11:24:19Z</time></trkpt><trkpt lat="42.609852" lon="-2.585323"><ele>913.5</ele><time>2011-11-30T11:24:20Z</time></trkpt><trkpt lat="42.609868" lon="-2.585310"><ele>914.0</ele><time>2011-11-30T11:24:21Z</time></trkpt><trkpt lat="42.609885" lon="-2.585303"><ele>914.5</ele><time>2011-11-30T11:24:22Z</time></trkpt><trkpt lat="42.609905" lon="-2.585290"><ele>914.5</ele><time>2011-11-30T11:24:23Z</time></trkpt><trkpt lat="42.609915" lon="-2.585285"><ele>914.0</ele><time>2011-11-30T11:24:24Z</time></trkpt><trkpt lat="42.609920" lon="-2.585273"><ele>914.0</ele><time>2011-11-30T11:24:25Z</time></trkpt><trkpt lat="42.609925" lon="-2.585268"><ele>913.0</ele><time>2011-11-30T11:24:26Z</time></trkpt><trkpt lat="42.609962" lon="-2.585248"><ele>910.5</ele><time>2011-11-30T11:24:27Z</time></trkpt><trkpt lat="42.609977" lon="-2.585227"><ele>908.5</ele><time>2011-11-30T11:24:29Z</time></trkpt><trkpt lat="42.609983" lon="-2.585213"><ele>907.0</ele><time>2011-11-30T11:24:30Z</time></trkpt><trkpt lat="42.609995" lon="-2.585195"><ele>907.5</ele><time>2011-11-30T11:24:31Z</time></trkpt><trkpt lat="42.610003" lon="-2.585202"><ele>907.5</ele><time>2011-11-30T11:24:32Z</time></trkpt><trkpt lat="42.610012" lon="-2.585193"><ele>907.5</ele><time>2011-11-30T11:24:33Z</time></trkpt><trkpt lat="42.610023" lon="-2.585177"><ele>907.0</ele><time>2011-11-30T11:24:34Z</time></trkpt><trkpt lat="42.610033" lon="-2.585160"><ele>907.0</ele><time>2011-11-30T11:24:35Z</time></trkpt><trkpt lat="42.610038" lon="-2.585152"><ele>906.0</ele><time>2011-11-30T11:24:36Z</time></trkpt><trkpt lat="42.610060" lon="-2.585143"><ele>905.0</ele><time>2011-11-30T11:24:37Z</time></trkpt><trkpt lat="42.610070" lon="-2.585137"><ele>904.5</ele><time>2011-11-30T11:24:38Z</time></trkpt><trkpt lat="42.610092" lon="-2.585123"><ele>904.0</ele><time>2011-11-30T11:24:39Z</time></trkpt><trkpt lat="42.610100" lon="-2.585115"><ele>904.0</ele><time>2011-11-30T11:24:39Z</time></trkpt><trkpt lat="42.610107" lon="-2.585105"><ele>903.5</ele><time>2011-11-30T11:24:41Z</time></trkpt><trkpt lat="42.610112" lon="-2.585098"><ele>903.0</ele><time>2011-11-30T11:24:41Z</time></trkpt><trkpt lat="42.610118" lon="-2.585078"><ele>900.0</ele><time>2011-11-30T11:24:42Z</time></trkpt><trkpt lat="42.610122" lon="-2.585070"><ele>899.5</ele><time>2011-11-30T11:24:43Z</time></trkpt><trkpt lat="42.610143" lon="-2.585060"><ele>899.5</ele><time>2011-11-30T11:24:44Z</time></trkpt><trkpt lat="42.610152" lon="-2.585043"><ele>899.5</ele><time>2011-11-30T11:24:45Z</time></trkpt><trkpt lat="42.610162" lon="-2.585020"><ele>900.5</ele><time>2011-11-30T11:24:46Z</time></trkpt><trkpt lat="42.610170" lon="-2.584995"><ele>901.0</ele><time>2011-11-30T11:24:47Z</time></trkpt><trkpt lat="42.610180" lon="-2.584985"><ele>901.0</ele><time>2011-11-30T11:24:48Z</time></trkpt><trkpt lat="42.610192" lon="-2.584958"><ele>902.0</ele><time>2011-11-30T11:24:49Z</time></trkpt><trkpt lat="42.610198" lon="-2.584940"><ele>902.5</ele><time>2011-11-30T11:24:50Z</time></trkpt><trkpt lat="42.610203" lon="-2.584923"><ele>902.0</ele><time>2011-11-30T11:24:51Z</time></trkpt><trkpt lat="42.610210" lon="-2.584902"><ele>902.0</ele><time>2011-11-30T11:24:52Z</time></trkpt><trkpt lat="42.610218" lon="-2.584888"><ele>901.5</ele><time>2011-11-30T11:24:53Z</time></trkpt><trkpt lat="42.610225" lon="-2.584873"><ele>901.0</ele><time>2011-11-30T11:24:54Z</time></trkpt><trkpt lat="42.610232" lon="-2.584853"><ele>901.5</ele><time>2011-11-30T11:24:55Z</time></trkpt><trkpt lat="42.610237" lon="-2.584835"><ele>901.5</ele><time>2011-11-30T11:24:56Z</time></trkpt><trkpt lat="42.610248" lon="-2.584823"><ele>902.0</ele><time>2011-11-30T11:24:57Z</time></trkpt><trkpt lat="42.610258" lon="-2.584812"><ele>901.5</ele><time>2011-11-30T11:24:58Z</time></trkpt><trkpt lat="42.610265" lon="-2.584800"><ele>901.5</ele><time>2011-11-30T11:24:59Z</time></trkpt><trkpt lat="42.610282" lon="-2.584795"><ele>901.5</ele><time>2011-11-30T11:25:00Z</time></trkpt><trkpt lat="42.610285" lon="-2.584787"><ele>901.0</ele><time>2011-11-30T11:25:01Z</time></trkpt><trkpt lat="42.610292" lon="-2.584772"><ele>901.0</ele><time>2011-11-30T11:25:02Z</time></trkpt><trkpt lat="42.610292" lon="-2.584758"><ele>900.0</ele><time>2011-11-30T11:25:03Z</time></trkpt><trkpt lat="42.610293" lon="-2.584745"><ele>899.5</ele><time>2011-11-30T11:25:04Z</time></trkpt><trkpt lat="42.610312" lon="-2.584723"><ele>901.5</ele><time>2011-11-30T11:25:05Z</time></trkpt><trkpt lat="42.610315" lon="-2.584708"><ele>901.5</ele><time>2011-11-30T11:25:06Z</time></trkpt><trkpt lat="42.610318" lon="-2.584695"><ele>902.0</ele><time>2011-11-30T11:25:07Z</time></trkpt><trkpt lat="42.610322" lon="-2.584687"><ele>901.5</ele><time>2011-11-30T11:25:08Z</time></trkpt><trkpt lat="42.610323" lon="-2.584677"><ele>901.5</ele><time>2011-11-30T11:25:09Z</time></trkpt><trkpt lat="42.610318" lon="-2.584663"><ele>901.0</ele><time>2011-11-30T11:25:10Z</time></trkpt><trkpt lat="42.610320" lon="-2.584648"><ele>901.0</ele><time>2011-11-30T11:25:11Z</time></trkpt><trkpt lat="42.610318" lon="-2.584635"><ele>901.0</ele><time>2011-11-30T11:25:12Z</time></trkpt><trkpt lat="42.610323" lon="-2.584620"><ele>901.5</ele><time>2011-11-30T11:25:13Z</time></trkpt><trkpt lat="42.610325" lon="-2.584605"><ele>901.0</ele><time>2011-11-30T11:25:14Z</time></trkpt><trkpt lat="42.610325" lon="-2.584592"><ele>901.5</ele><time>2011-11-30T11:25:15Z</time></trkpt><trkpt lat="42.610328" lon="-2.584582"><ele>901.0</ele><time>2011-11-30T11:25:16Z</time></trkpt><trkpt lat="42.610323" lon="-2.584570"><ele>902.5</ele><time>2011-11-30T11:25:17Z</time></trkpt><trkpt lat="42.610320" lon="-2.584557"><ele>902.5</ele><time>2011-11-30T11:25:18Z</time></trkpt><trkpt lat="42.610308" lon="-2.584533"><ele>902.0</ele><time>2011-11-30T11:25:19Z</time></trkpt><trkpt lat="42.610312" lon="-2.584520"><ele>901.5</ele><time>2011-11-30T11:25:20Z</time></trkpt><trkpt lat="42.610342" lon="-2.584493"><ele>903.0</ele><time>2011-11-30T11:25:22Z</time></trkpt><trkpt lat="42.610342" lon="-2.584482"><ele>902.5</ele><time>2011-11-30T11:25:23Z</time></trkpt><trkpt lat="42.610347" lon="-2.584468"><ele>903.0</ele><time>2011-11-30T11:25:24Z</time></trkpt><trkpt lat="42.610352" lon="-2.584458"><ele>903.0</ele><time>2011-11-30T11:25:25Z</time></trkpt><trkpt lat="42.610357" lon="-2.584450"><ele>903.0</ele><time>2011-11-30T11:25:26Z</time></trkpt><trkpt lat="42.610365" lon="-2.584435"><ele>902.0</ele><time>2011-11-30T11:25:27Z</time></trkpt><trkpt lat="42.610372" lon="-2.584427"><ele>901.5</ele><time>2011-11-30T11:25:28Z</time></trkpt><trkpt lat="42.610375" lon="-2.584415"><ele>901.0</ele><time>2011-11-30T11:25:29Z</time></trkpt><trkpt lat="42.610387" lon="-2.584407"><ele>901.0</ele><time>2011-11-30T11:25:30Z</time></trkpt><trkpt lat="42.610393" lon="-2.584398"><ele>900.5</ele><time>2011-11-30T11:25:31Z</time></trkpt><trkpt lat="42.610403" lon="-2.584380"><ele>900.5</ele><time>2011-11-30T11:25:32Z</time></trkpt><trkpt lat="42.610407" lon="-2.584367"><ele>899.5</ele><time>2011-11-30T11:25:33Z</time></trkpt><trkpt lat="42.610420" lon="-2.584348"><ele>899.5</ele><time>2011-11-30T11:25:34Z</time></trkpt><trkpt lat="42.610428" lon="-2.584337"><ele>899.0</ele><time>2011-11-30T11:25:35Z</time></trkpt><trkpt lat="42.610440" lon="-2.584323"><ele>899.5</ele><time>2011-11-30T11:25:36Z</time></trkpt><trkpt lat="42.610445" lon="-2.584308"><ele>899.0</ele><time>2011-11-30T11:25:37Z</time></trkpt><trkpt lat="42.610453" lon="-2.584295"><ele>899.5</ele><time>2011-11-30T11:25:38Z</time></trkpt><trkpt lat="42.610467" lon="-2.584282"><ele>900.0</ele><time>2011-11-30T11:25:39Z</time></trkpt><trkpt lat="42.610480" lon="-2.584270"><ele>900.5</ele><time>2011-11-30T11:25:40Z</time></trkpt><trkpt lat="42.610488" lon="-2.584253"><ele>900.5</ele><time>2011-11-30T11:25:41Z</time></trkpt><trkpt lat="42.610492" lon="-2.584240"><ele>900.5</ele><time>2011-11-30T11:25:42Z</time></trkpt><trkpt lat="42.610500" lon="-2.584227"><ele>900.5</ele><time>2011-11-30T11:25:43Z</time></trkpt><trkpt lat="42.610505" lon="-2.584215"><ele>900.5</ele><time>2011-11-30T11:25:44Z</time></trkpt><trkpt lat="42.610513" lon="-2.584203"><ele>900.5</ele><time>2011-11-30T11:25:45Z</time></trkpt><trkpt lat="42.610518" lon="-2.584195"><ele>900.0</ele><time>2011-11-30T11:25:46Z</time></trkpt><trkpt lat="42.610555" lon="-2.584187"><ele>901.5</ele><time>2011-11-30T11:25:47Z</time></trkpt><trkpt lat="42.610565" lon="-2.584177"><ele>901.5</ele><time>2011-11-30T11:25:48Z</time></trkpt><trkpt lat="42.610575" lon="-2.584163"><ele>901.5</ele><time>2011-11-30T11:25:49Z</time></trkpt><trkpt lat="42.610583" lon="-2.584152"><ele>901.0</ele><time>2011-11-30T11:25:50Z</time></trkpt><trkpt lat="42.610592" lon="-2.584138"><ele>901.0</ele><time>2011-11-30T11:25:51Z</time></trkpt><trkpt lat="42.610600" lon="-2.584125"><ele>901.0</ele><time>2011-11-30T11:25:52Z</time></trkpt><trkpt lat="42.610605" lon="-2.584113"><ele>901.0</ele><time>2011-11-30T11:25:53Z</time></trkpt><trkpt lat="42.610612" lon="-2.584100"><ele>901.0</ele><time>2011-11-30T11:25:54Z</time></trkpt><trkpt lat="42.610615" lon="-2.584088"><ele>900.5</ele><time>2011-11-30T11:25:55Z</time></trkpt><trkpt lat="42.610660" lon="-2.584070"><ele>902.5</ele><time>2011-11-30T11:25:57Z</time></trkpt><trkpt lat="42.610667" lon="-2.584058"><ele>902.5</ele><time>2011-11-30T11:25:58Z</time></trkpt><trkpt lat="42.610670" lon="-2.584047"><ele>902.0</ele><time>2011-11-30T11:25:59Z</time></trkpt><trkpt lat="42.610673" lon="-2.584035"><ele>901.5</ele><time>2011-11-30T11:26:00Z</time></trkpt><trkpt lat="42.610677" lon="-2.584022"><ele>900.5</ele><time>2011-11-30T11:26:01Z</time></trkpt><trkpt lat="42.610678" lon="-2.584007"><ele>900.0</ele><time>2011-11-30T11:26:02Z</time></trkpt><trkpt lat="42.610718" lon="-2.583985"><ele>901.5</ele><time>2011-11-30T11:26:04Z</time></trkpt><trkpt lat="42.610725" lon="-2.583972"><ele>901.5</ele><time>2011-11-30T11:26:05Z</time></trkpt><trkpt lat="42.610728" lon="-2.583958"><ele>901.0</ele><time>2011-11-30T11:26:06Z</time></trkpt><trkpt lat="42.610732" lon="-2.583947"><ele>900.5</ele><time>2011-11-30T11:26:07Z</time></trkpt><trkpt lat="42.610733" lon="-2.583933"><ele>900.0</ele><time>2011-11-30T11:26:08Z</time></trkpt><trkpt lat="42.610738" lon="-2.583922"><ele>899.5</ele><time>2011-11-30T11:26:09Z</time></trkpt><trkpt lat="42.610743" lon="-2.583908"><ele>899.0</ele><time>2011-11-30T11:26:10Z</time></trkpt><trkpt lat="42.610748" lon="-2.583897"><ele>899.0</ele><time>2011-11-30T11:26:11Z</time></trkpt><trkpt lat="42.610753" lon="-2.583883"><ele>899.0</ele><time>2011-11-30T11:26:12Z</time></trkpt><trkpt lat="42.610758" lon="-2.583870"><ele>898.5</ele><time>2011-11-30T11:26:13Z</time></trkpt><trkpt lat="42.610760" lon="-2.583858"><ele>898.0</ele><time>2011-11-30T11:26:14Z</time></trkpt><trkpt lat="42.610767" lon="-2.583850"><ele>897.5</ele><time>2011-11-30T11:26:15Z</time></trkpt><trkpt lat="42.610778" lon="-2.583840"><ele>898.0</ele><time>2011-11-30T11:26:16Z</time></trkpt><trkpt lat="42.610783" lon="-2.583828"><ele>897.5</ele><time>2011-11-30T11:26:17Z</time></trkpt><trkpt lat="42.610788" lon="-2.583817"><ele>897.5</ele><time>2011-11-30T11:26:18Z</time></trkpt><trkpt lat="42.610793" lon="-2.583802"><ele>897.0</ele><time>2011-11-30T11:26:19Z</time></trkpt><trkpt lat="42.610797" lon="-2.583790"><ele>897.0</ele><time>2011-11-30T11:26:20Z</time></trkpt><trkpt lat="42.610803" lon="-2.583778"><ele>896.5</ele><time>2011-11-30T11:26:21Z</time></trkpt><trkpt lat="42.610810" lon="-2.583767"><ele>896.5</ele><time>2011-11-30T11:26:22Z</time></trkpt><trkpt lat="42.610815" lon="-2.583757"><ele>896.5</ele><time>2011-11-30T11:26:23Z</time></trkpt><trkpt lat="42.610828" lon="-2.583748"><ele>897.0</ele><time>2011-11-30T11:26:24Z</time></trkpt><trkpt lat="42.610843" lon="-2.583737"><ele>897.0</ele><time>2011-11-30T11:26:25Z</time></trkpt><trkpt lat="42.610850" lon="-2.583725"><ele>897.0</ele><time>2011-11-30T11:26:26Z</time></trkpt><trkpt lat="42.610862" lon="-2.583715"><ele>898.0</ele><time>2011-11-30T11:26:27Z</time></trkpt><trkpt lat="42.610882" lon="-2.583708"><ele>899.0</ele><time>2011-11-30T11:26:28Z</time></trkpt><trkpt lat="42.610890" lon="-2.583697"><ele>899.0</ele><time>2011-11-30T11:26:29Z</time></trkpt><trkpt lat="42.610897" lon="-2.583688"><ele>899.0</ele><time>2011-11-30T11:26:30Z</time></trkpt><trkpt lat="42.610905" lon="-2.583673"><ele>898.0</ele><time>2011-11-30T11:26:31Z</time></trkpt><trkpt lat="42.610912" lon="-2.583663"><ele>897.5</ele><time>2011-11-30T11:26:32Z</time></trkpt><trkpt lat="42.610925" lon="-2.583657"><ele>898.0</ele><time>2011-11-30T11:26:33Z</time></trkpt><trkpt lat="42.610935" lon="-2.583648"><ele>898.0</ele><time>2011-11-30T11:26:34Z</time></trkpt><trkpt lat="42.610938" lon="-2.583640"><ele>897.5</ele><time>2011-11-30T11:26:35Z</time></trkpt><trkpt lat="42.610942" lon="-2.583630"><ele>897.0</ele><time>2011-11-30T11:26:36Z</time></trkpt><trkpt lat="42.610955" lon="-2.583625"><ele>897.0</ele><time>2011-11-30T11:26:37Z</time></trkpt><trkpt lat="42.610967" lon="-2.583622"><ele>897.0</ele><time>2011-11-30T11:26:38Z</time></trkpt><trkpt lat="42.610977" lon="-2.583617"><ele>897.0</ele><time>2011-11-30T11:26:39Z</time></trkpt><trkpt lat="42.610987" lon="-2.583603"><ele>896.0</ele><time>2011-11-30T11:26:40Z</time></trkpt><trkpt lat="42.610995" lon="-2.583597"><ele>896.0</ele><time>2011-11-30T11:26:41Z</time></trkpt><trkpt lat="42.611005" lon="-2.583593"><ele>895.5</ele><time>2011-11-30T11:26:42Z</time></trkpt><trkpt lat="42.611020" lon="-2.583588"><ele>896.0</ele><time>2011-11-30T11:26:43Z</time></trkpt><trkpt lat="42.611027" lon="-2.583582"><ele>895.5</ele><time>2011-11-30T11:26:44Z</time></trkpt><trkpt lat="42.611035" lon="-2.583573"><ele>895.5</ele><time>2011-11-30T11:26:45Z</time></trkpt><trkpt lat="42.611047" lon="-2.583568"><ele>895.0</ele><time>2011-11-30T11:26:46Z</time></trkpt><trkpt lat="42.611060" lon="-2.583560"><ele>895.5</ele><time>2011-11-30T11:26:47Z</time></trkpt><trkpt lat="42.611073" lon="-2.583555"><ele>895.5</ele><time>2011-11-30T11:26:48Z</time></trkpt><trkpt lat="42.611088" lon="-2.583548"><ele>895.5</ele><time>2011-11-30T11:26:49Z</time></trkpt><trkpt lat="42.611098" lon="-2.583543"><ele>895.5</ele><time>2011-11-30T11:26:50Z</time></trkpt><trkpt lat="42.611112" lon="-2.583538"><ele>895.5</ele><time>2011-11-30T11:26:51Z</time></trkpt><trkpt lat="42.611127" lon="-2.583532"><ele>895.5</ele><time>2011-11-30T11:26:52Z</time></trkpt><trkpt lat="42.611138" lon="-2.583523"><ele>895.5</ele><time>2011-11-30T11:26:53Z</time></trkpt><trkpt lat="42.611155" lon="-2.583518"><ele>896.0</ele><time>2011-11-30T11:26:54Z</time></trkpt><trkpt lat="42.611167" lon="-2.583510"><ele>895.5</ele><time>2011-11-30T11:26:55Z</time></trkpt><trkpt lat="42.611180" lon="-2.583505"><ele>896.0</ele><time>2011-11-30T11:26:56Z</time></trkpt><trkpt lat="42.611192" lon="-2.583498"><ele>896.0</ele><time>2011-11-30T11:26:57Z</time></trkpt><trkpt lat="42.611203" lon="-2.583492"><ele>896.0</ele><time>2011-11-30T11:26:58Z</time></trkpt><trkpt lat="42.611222" lon="-2.583485"><ele>896.0</ele><time>2011-11-30T11:26:59Z</time></trkpt><trkpt lat="42.611297" lon="-2.583492"><ele>900.0</ele><time>2011-11-30T11:27:01Z</time></trkpt><trkpt lat="42.611315" lon="-2.583488"><ele>900.5</ele><time>2011-11-30T11:27:02Z</time></trkpt><trkpt lat="42.611327" lon="-2.583483"><ele>900.0</ele><time>2011-11-30T11:27:03Z</time></trkpt><trkpt lat="42.611340" lon="-2.583477"><ele>900.0</ele><time>2011-11-30T11:27:04Z</time></trkpt><trkpt lat="42.611353" lon="-2.583473"><ele>900.0</ele><time>2011-11-30T11:27:05Z</time></trkpt><trkpt lat="42.611372" lon="-2.583472"><ele>900.5</ele><time>2011-11-30T11:27:06Z</time></trkpt><trkpt lat="42.611387" lon="-2.583468"><ele>900.5</ele><time>2011-11-30T11:27:07Z</time></trkpt><trkpt lat="42.611400" lon="-2.583465"><ele>900.5</ele><time>2011-11-30T11:27:08Z</time></trkpt><trkpt lat="42.611415" lon="-2.583462"><ele>900.5</ele><time>2011-11-30T11:27:09Z</time></trkpt><trkpt lat="42.611427" lon="-2.583458"><ele>900.5</ele><time>2011-11-30T11:27:10Z</time></trkpt><trkpt lat="42.611443" lon="-2.583457"><ele>900.5</ele><time>2011-11-30T11:27:11Z</time></trkpt><trkpt lat="42.611460" lon="-2.583455"><ele>901.0</ele><time>2011-11-30T11:27:12Z</time></trkpt><trkpt lat="42.611473" lon="-2.583450"><ele>901.0</ele><time>2011-11-30T11:27:13Z</time></trkpt><trkpt lat="42.611487" lon="-2.583447"><ele>901.5</ele><time>2011-11-30T11:27:14Z</time></trkpt><trkpt lat="42.611500" lon="-2.583447"><ele>901.0</ele><time>2011-11-30T11:27:15Z</time></trkpt><trkpt lat="42.611512" lon="-2.583447"><ele>901.0</ele><time>2011-11-30T11:27:16Z</time></trkpt><trkpt lat="42.611523" lon="-2.583443"><ele>901.0</ele><time>2011-11-30T11:27:17Z</time></trkpt><trkpt lat="42.611535" lon="-2.583442"><ele>901.0</ele><time>2011-11-30T11:27:18Z</time></trkpt><trkpt lat="42.611547" lon="-2.583438"><ele>901.0</ele><time>2011-11-30T11:27:19Z</time></trkpt><trkpt lat="42.611558" lon="-2.583437"><ele>900.5</ele><time>2011-11-30T11:27:20Z</time></trkpt><trkpt lat="42.611568" lon="-2.583433"><ele>900.5</ele><time>2011-11-30T11:27:21Z</time></trkpt><trkpt lat="42.611580" lon="-2.583433"><ele>900.0</ele><time>2011-11-30T11:27:22Z</time></trkpt><trkpt lat="42.611592" lon="-2.583433"><ele>900.0</ele><time>2011-11-30T11:27:23Z</time></trkpt><trkpt lat="42.611603" lon="-2.583430"><ele>900.0</ele><time>2011-11-30T11:27:24Z</time></trkpt><trkpt lat="42.611617" lon="-2.583430"><ele>900.0</ele><time>2011-11-30T11:27:25Z</time></trkpt><trkpt lat="42.611623" lon="-2.583428"><ele>899.0</ele><time>2011-11-30T11:27:26Z</time></trkpt><trkpt lat="42.611630" lon="-2.583427"><ele>898.5</ele><time>2011-11-30T11:27:27Z</time></trkpt><trkpt lat="42.611640" lon="-2.583427"><ele>898.5</ele><time>2011-11-30T11:27:28Z</time></trkpt><trkpt lat="42.611652" lon="-2.583425"><ele>898.5</ele><time>2011-11-30T11:27:29Z</time></trkpt><trkpt lat="42.611662" lon="-2.583423"><ele>898.5</ele><time>2011-11-30T11:27:30Z</time></trkpt><trkpt lat="42.611672" lon="-2.583423"><ele>898.0</ele><time>2011-11-30T11:27:31Z</time></trkpt><trkpt lat="42.611678" lon="-2.583423"><ele>898.0</ele><time>2011-11-30T11:27:32Z</time></trkpt><trkpt lat="42.611692" lon="-2.583415"><ele>896.5</ele><time>2011-11-30T11:27:33Z</time></trkpt><trkpt lat="42.611700" lon="-2.583415"><ele>896.0</ele><time>2011-11-30T11:27:34Z</time></trkpt><trkpt lat="42.611708" lon="-2.583418"><ele>896.0</ele><time>2011-11-30T11:27:35Z</time></trkpt><trkpt lat="42.611717" lon="-2.583420"><ele>896.0</ele><time>2011-11-30T11:27:36Z</time></trkpt><trkpt lat="42.611728" lon="-2.583427"><ele>895.5</ele><time>2011-11-30T11:27:37Z</time></trkpt><trkpt lat="42.611740" lon="-2.583430"><ele>895.5</ele><time>2011-11-30T11:27:38Z</time></trkpt><trkpt lat="42.611752" lon="-2.583435"><ele>896.0</ele><time>2011-11-30T11:27:39Z</time></trkpt><trkpt lat="42.611765" lon="-2.583438"><ele>896.0</ele><time>2011-11-30T11:27:40Z</time></trkpt><trkpt lat="42.611775" lon="-2.583442"><ele>895.5</ele><time>2011-11-30T11:27:41Z</time></trkpt><trkpt lat="42.611787" lon="-2.583443"><ele>895.5</ele><time>2011-11-30T11:27:42Z</time></trkpt><trkpt lat="42.611803" lon="-2.583445"><ele>895.0</ele><time>2011-11-30T11:27:43Z</time></trkpt><trkpt lat="42.611813" lon="-2.583447"><ele>894.5</ele><time>2011-11-30T11:27:44Z</time></trkpt><trkpt lat="42.611825" lon="-2.583447"><ele>894.0</ele><time>2011-11-30T11:27:45Z</time></trkpt><trkpt lat="42.611837" lon="-2.583448"><ele>894.0</ele><time>2011-11-30T11:27:46Z</time></trkpt><trkpt lat="42.611847" lon="-2.583450"><ele>893.5</ele><time>2011-11-30T11:27:47Z</time></trkpt><trkpt lat="42.611860" lon="-2.583453"><ele>893.5</ele><time>2011-11-30T11:27:48Z</time></trkpt><trkpt lat="42.611870" lon="-2.583453"><ele>893.5</ele><time>2011-11-30T11:27:49Z</time></trkpt><trkpt lat="42.611878" lon="-2.583453"><ele>893.0</ele><time>2011-11-30T11:27:50Z</time></trkpt><trkpt lat="42.611888" lon="-2.583455"><ele>893.0</ele><time>2011-11-30T11:27:51Z</time></trkpt><trkpt lat="42.611898" lon="-2.583458"><ele>893.0</ele><time>2011-11-30T11:27:52Z</time></trkpt><trkpt lat="42.611908" lon="-2.583463"><ele>893.0</ele><time>2011-11-30T11:27:53Z</time></trkpt><trkpt lat="42.611918" lon="-2.583465"><ele>892.5</ele><time>2011-11-30T11:27:54Z</time></trkpt><trkpt lat="42.611928" lon="-2.583468"><ele>892.5</ele><time>2011-11-30T11:27:55Z</time></trkpt><trkpt lat="42.611938" lon="-2.583470"><ele>892.0</ele><time>2011-11-30T11:27:56Z</time></trkpt><trkpt lat="42.611950" lon="-2.583472"><ele>892.0</ele><time>2011-11-30T11:27:57Z</time></trkpt><trkpt lat="42.611958" lon="-2.583473"><ele>892.0</ele><time>2011-11-30T11:27:58Z</time></trkpt><trkpt lat="42.611967" lon="-2.583477"><ele>892.0</ele><time>2011-11-30T11:27:59Z</time></trkpt><trkpt lat="42.611973" lon="-2.583478"><ele>891.5</ele><time>2011-11-30T11:28:00Z</time></trkpt><trkpt lat="42.611980" lon="-2.583480"><ele>890.5</ele><time>2011-11-30T11:28:01Z</time></trkpt><trkpt lat="42.611988" lon="-2.583480"><ele>890.5</ele><time>2011-11-30T11:28:02Z</time></trkpt><trkpt lat="42.611998" lon="-2.583480"><ele>890.5</ele><time>2011-11-30T11:28:03Z</time></trkpt><trkpt lat="42.612007" lon="-2.583482"><ele>891.0</ele><time>2011-11-30T11:28:04Z</time></trkpt><trkpt lat="42.612017" lon="-2.583483"><ele>891.0</ele><time>2011-11-30T11:28:05Z</time></trkpt><trkpt lat="42.612023" lon="-2.583485"><ele>890.5</ele><time>2011-11-30T11:28:06Z</time></trkpt><trkpt lat="42.612033" lon="-2.583487"><ele>890.0</ele><time>2011-11-30T11:28:07Z</time></trkpt><trkpt lat="42.612043" lon="-2.583488"><ele>890.0</ele><time>2011-11-30T11:28:08Z</time></trkpt><trkpt lat="42.612055" lon="-2.583492"><ele>890.5</ele><time>2011-11-30T11:28:09Z</time></trkpt><trkpt lat="42.612065" lon="-2.583493"><ele>890.5</ele><time>2011-11-30T11:28:10Z</time></trkpt><trkpt lat="42.612073" lon="-2.583493"><ele>890.5</ele><time>2011-11-30T11:28:11Z</time></trkpt><trkpt lat="42.612085" lon="-2.583495"><ele>890.0</ele><time>2011-11-30T11:28:12Z</time></trkpt><trkpt lat="42.612093" lon="-2.583497"><ele>889.5</ele><time>2011-11-30T11:28:13Z</time></trkpt><trkpt lat="42.612102" lon="-2.583500"><ele>889.5</ele><time>2011-11-30T11:28:14Z</time></trkpt><trkpt lat="42.612110" lon="-2.583505"><ele>889.5</ele><time>2011-11-30T11:28:15Z</time></trkpt><trkpt lat="42.612117" lon="-2.583505"><ele>889.0</ele><time>2011-11-30T11:28:16Z</time></trkpt><trkpt lat="42.612125" lon="-2.583507"><ele>889.0</ele><time>2011-11-30T11:28:17Z</time></trkpt><trkpt lat="42.612132" lon="-2.583508"><ele>888.5</ele><time>2011-11-30T11:28:18Z</time></trkpt><trkpt lat="42.612138" lon="-2.583510"><ele>888.5</ele><time>2011-11-30T11:28:19Z</time></trkpt><trkpt lat="42.612145" lon="-2.583513"><ele>888.0</ele><time>2011-11-30T11:28:20Z</time></trkpt><trkpt lat="42.612157" lon="-2.583520"><ele>887.5</ele><time>2011-11-30T11:28:21Z</time></trkpt><trkpt lat="42.612165" lon="-2.583520"><ele>887.0</ele><time>2011-11-30T11:28:22Z</time></trkpt><trkpt lat="42.612175" lon="-2.583523"><ele>887.0</ele><time>2011-11-30T11:28:23Z</time></trkpt><trkpt lat="42.612185" lon="-2.583527"><ele>887.0</ele><time>2011-11-30T11:28:24Z</time></trkpt><trkpt lat="42.612193" lon="-2.583530"><ele>887.0</ele><time>2011-11-30T11:28:25Z</time></trkpt><trkpt lat="42.612203" lon="-2.583537"><ele>886.5</ele><time>2011-11-30T11:28:26Z</time></trkpt><trkpt lat="42.612215" lon="-2.583537"><ele>886.0</ele><time>2011-11-30T11:28:27Z</time></trkpt><trkpt lat="42.612223" lon="-2.583538"><ele>886.0</ele><time>2011-11-30T11:28:28Z</time></trkpt><trkpt lat="42.612230" lon="-2.583540"><ele>886.0</ele><time>2011-11-30T11:28:29Z</time></trkpt><trkpt lat="42.612238" lon="-2.583542"><ele>886.0</ele><time>2011-11-30T11:28:30Z</time></trkpt><trkpt lat="42.612247" lon="-2.583545"><ele>886.0</ele><time>2011-11-30T11:28:31Z</time></trkpt><trkpt lat="42.612257" lon="-2.583548"><ele>885.5</ele><time>2011-11-30T11:28:32Z</time></trkpt><trkpt lat="42.612268" lon="-2.583553"><ele>885.5</ele><time>2011-11-30T11:28:33Z</time></trkpt><trkpt lat="42.612277" lon="-2.583557"><ele>884.5</ele><time>2011-11-30T11:28:34Z</time></trkpt><trkpt lat="42.612287" lon="-2.583562"><ele>884.5</ele><time>2011-11-30T11:28:35Z</time></trkpt><trkpt lat="42.612298" lon="-2.583567"><ele>883.5</ele><time>2011-11-30T11:28:36Z</time></trkpt><trkpt lat="42.612312" lon="-2.583572"><ele>883.5</ele><time>2011-11-30T11:28:37Z</time></trkpt><trkpt lat="42.612320" lon="-2.583577"><ele>883.5</ele><time>2011-11-30T11:28:38Z</time></trkpt><trkpt lat="42.612332" lon="-2.583583"><ele>883.0</ele><time>2011-11-30T11:28:39Z</time></trkpt><trkpt lat="42.612343" lon="-2.583588"><ele>883.0</ele><time>2011-11-30T11:28:40Z</time></trkpt><trkpt lat="42.612353" lon="-2.583592"><ele>882.5</ele><time>2011-11-30T11:28:41Z</time></trkpt><trkpt lat="42.612363" lon="-2.583595"><ele>881.5</ele><time>2011-11-30T11:28:42Z</time></trkpt><trkpt lat="42.612372" lon="-2.583597"><ele>880.5</ele><time>2011-11-30T11:28:43Z</time></trkpt><trkpt lat="42.612382" lon="-2.583598"><ele>880.0</ele><time>2011-11-30T11:28:44Z</time></trkpt><trkpt lat="42.612390" lon="-2.583602"><ele>879.5</ele><time>2011-11-30T11:28:45Z</time></trkpt><trkpt lat="42.612403" lon="-2.583605"><ele>879.5</ele><time>2011-11-30T11:28:46Z</time></trkpt><trkpt lat="42.612412" lon="-2.583608"><ele>879.0</ele><time>2011-11-30T11:28:47Z</time></trkpt><trkpt lat="42.612422" lon="-2.583610"><ele>878.5</ele><time>2011-11-30T11:28:48Z</time></trkpt><trkpt lat="42.612432" lon="-2.583613"><ele>878.0</ele><time>2011-11-30T11:28:49Z</time></trkpt><trkpt lat="42.612442" lon="-2.583613"><ele>877.5</ele><time>2011-11-30T11:28:50Z</time></trkpt><trkpt lat="42.612452" lon="-2.583617"><ele>877.0</ele><time>2011-11-30T11:28:51Z</time></trkpt><trkpt lat="42.612463" lon="-2.583618"><ele>876.5</ele><time>2011-11-30T11:28:52Z</time></trkpt><trkpt lat="42.612472" lon="-2.583620"><ele>876.0</ele><time>2011-11-30T11:28:53Z</time></trkpt><trkpt lat="42.612482" lon="-2.583622"><ele>875.5</ele><time>2011-11-30T11:28:54Z</time></trkpt><trkpt lat="42.612495" lon="-2.583623"><ele>875.0</ele><time>2011-11-30T11:28:55Z</time></trkpt><trkpt lat="42.612507" lon="-2.583625"><ele>874.5</ele><time>2011-11-30T11:28:56Z</time></trkpt><trkpt lat="42.612517" lon="-2.583627"><ele>874.5</ele><time>2011-11-30T11:28:57Z</time></trkpt><trkpt lat="42.612528" lon="-2.583628"><ele>874.0</ele><time>2011-11-30T11:28:58Z</time></trkpt><trkpt lat="42.612540" lon="-2.583628"><ele>873.5</ele><time>2011-11-30T11:28:59Z</time></trkpt><trkpt lat="42.612552" lon="-2.583632"><ele>873.0</ele><time>2011-11-30T11:29:00Z</time></trkpt><trkpt lat="42.612562" lon="-2.583633"><ele>873.0</ele><time>2011-11-30T11:29:01Z</time></trkpt><trkpt lat="42.612575" lon="-2.583635"><ele>872.5</ele><time>2011-11-30T11:29:02Z</time></trkpt><trkpt lat="42.612588" lon="-2.583637"><ele>872.5</ele><time>2011-11-30T11:29:03Z</time></trkpt><trkpt lat="42.612598" lon="-2.583637"><ele>872.5</ele><time>2011-11-30T11:29:04Z</time></trkpt><trkpt lat="42.612613" lon="-2.583637"><ele>872.5</ele><time>2011-11-30T11:29:05Z</time></trkpt><trkpt lat="42.612625" lon="-2.583637"><ele>872.0</ele><time>2011-11-30T11:29:06Z</time></trkpt><trkpt lat="42.612638" lon="-2.583640"><ele>872.0</ele><time>2011-11-30T11:29:07Z</time></trkpt><trkpt lat="42.612650" lon="-2.583640"><ele>872.0</ele><time>2011-11-30T11:29:08Z</time></trkpt><trkpt lat="42.612663" lon="-2.583643"><ele>871.5</ele><time>2011-11-30T11:29:09Z</time></trkpt><trkpt lat="42.612680" lon="-2.583643"><ele>872.0</ele><time>2011-11-30T11:29:10Z</time></trkpt><trkpt lat="42.612690" lon="-2.583645"><ele>871.5</ele><time>2011-11-30T11:29:12Z</time></trkpt><trkpt lat="42.612707" lon="-2.583648"><ele>871.5</ele><time>2011-11-30T11:29:13Z</time></trkpt><trkpt lat="42.612720" lon="-2.583648"><ele>871.5</ele><time>2011-11-30T11:29:13Z</time></trkpt><trkpt lat="42.612732" lon="-2.583647"><ele>871.0</ele><time>2011-11-30T11:29:14Z</time></trkpt><trkpt lat="42.612743" lon="-2.583645"><ele>871.0</ele><time>2011-11-30T11:29:15Z</time></trkpt><trkpt lat="42.612753" lon="-2.583642"><ele>870.5</ele><time>2011-11-30T11:29:16Z</time></trkpt><trkpt lat="42.612768" lon="-2.583643"><ele>870.0</ele><time>2011-11-30T11:29:17Z</time></trkpt><trkpt lat="42.612787" lon="-2.583643"><ele>870.0</ele><time>2011-11-30T11:29:18Z</time></trkpt><trkpt lat="42.612798" lon="-2.583643"><ele>870.0</ele><time>2011-11-30T11:29:19Z</time></trkpt><trkpt lat="42.612808" lon="-2.583643"><ele>869.5</ele><time>2011-11-30T11:29:20Z</time></trkpt><trkpt lat="42.612822" lon="-2.583643"><ele>869.0</ele><time>2011-11-30T11:29:23Z</time></trkpt><trkpt lat="42.612865" lon="-2.583648"><ele>869.0</ele><time>2011-11-30T11:29:24Z</time></trkpt><trkpt lat="42.612877" lon="-2.583648"><ele>869.0</ele><time>2011-11-30T11:29:25Z</time></trkpt><trkpt lat="42.612892" lon="-2.583650"><ele>868.5</ele><time>2011-11-30T11:29:26Z</time></trkpt><trkpt lat="42.612907" lon="-2.583652"><ele>868.5</ele><time>2011-11-30T11:29:27Z</time></trkpt><trkpt lat="42.612922" lon="-2.583653"><ele>868.5</ele><time>2011-11-30T11:29:28Z</time></trkpt><trkpt lat="42.612935" lon="-2.583655"><ele>868.5</ele><time>2011-11-30T11:29:29Z</time></trkpt><trkpt lat="42.612945" lon="-2.583657"><ele>868.0</ele><time>2011-11-30T11:29:30Z</time></trkpt><trkpt lat="42.612955" lon="-2.583657"><ele>868.0</ele><time>2011-11-30T11:29:31Z</time></trkpt><trkpt lat="42.612965" lon="-2.583655"><ele>867.5</ele><time>2011-11-30T11:29:32Z</time></trkpt><trkpt lat="42.612977" lon="-2.583655"><ele>867.5</ele><time>2011-11-30T11:29:33Z</time></trkpt><trkpt lat="42.612988" lon="-2.583658"><ele>867.0</ele><time>2011-11-30T11:29:34Z</time></trkpt><trkpt lat="42.612998" lon="-2.583658"><ele>867.0</ele><time>2011-11-30T11:29:35Z</time></trkpt><trkpt lat="42.613007" lon="-2.583658"><ele>866.5</ele><time>2011-11-30T11:29:36Z</time></trkpt><trkpt lat="42.613018" lon="-2.583660"><ele>866.5</ele><time>2011-11-30T11:29:37Z</time></trkpt><trkpt lat="42.613027" lon="-2.583663"><ele>866.0</ele><time>2011-11-30T11:29:38Z</time></trkpt><trkpt lat="42.613035" lon="-2.583665"><ele>865.5</ele><time>2011-11-30T11:29:39Z</time></trkpt><trkpt lat="42.613045" lon="-2.583667"><ele>865.0</ele><time>2011-11-30T11:29:40Z</time></trkpt><trkpt lat="42.613055" lon="-2.583670"><ele>865.0</ele><time>2011-11-30T11:29:41Z</time></trkpt><trkpt lat="42.613065" lon="-2.583672"><ele>864.5</ele><time>2011-11-30T11:29:42Z</time></trkpt><trkpt lat="42.613077" lon="-2.583675"><ele>864.5</ele><time>2011-11-30T11:29:43Z</time></trkpt><trkpt lat="42.613088" lon="-2.583678"><ele>864.5</ele><time>2011-11-30T11:29:44Z</time></trkpt><trkpt lat="42.613098" lon="-2.583683"><ele>864.5</ele><time>2011-11-30T11:29:46Z</time></trkpt><trkpt lat="42.613112" lon="-2.583687"><ele>864.0</ele><time>2011-11-30T11:29:46Z</time></trkpt><trkpt lat="42.613123" lon="-2.583688"><ele>864.0</ele><time>2011-11-30T11:29:47Z</time></trkpt><trkpt lat="42.613135" lon="-2.583693"><ele>864.0</ele><time>2011-11-30T11:29:48Z</time></trkpt><trkpt lat="42.613148" lon="-2.583698"><ele>864.0</ele><time>2011-11-30T11:29:50Z</time></trkpt><trkpt lat="42.613163" lon="-2.583703"><ele>864.0</ele><time>2011-11-30T11:29:50Z</time></trkpt><trkpt lat="42.613172" lon="-2.583705"><ele>864.0</ele><time>2011-11-30T11:29:51Z</time></trkpt><trkpt lat="42.613185" lon="-2.583710"><ele>863.5</ele><time>2011-11-30T11:29:52Z</time></trkpt><trkpt lat="42.613195" lon="-2.583712"><ele>863.0</ele><time>2011-11-30T11:29:53Z</time></trkpt><trkpt lat="42.613207" lon="-2.583713"><ele>863.0</ele><time>2011-11-30T11:29:54Z</time></trkpt><trkpt lat="42.613218" lon="-2.583717"><ele>863.0</ele><time>2011-11-30T11:29:55Z</time></trkpt><trkpt lat="42.613232" lon="-2.583723"><ele>863.0</ele><time>2011-11-30T11:29:56Z</time></trkpt><trkpt lat="42.613245" lon="-2.583727"><ele>863.0</ele><time>2011-11-30T11:29:57Z</time></trkpt><trkpt lat="42.613258" lon="-2.583730"><ele>863.0</ele><time>2011-11-30T11:29:58Z</time></trkpt><trkpt lat="42.613270" lon="-2.583735"><ele>863.0</ele><time>2011-11-30T11:29:59Z</time></trkpt><trkpt lat="42.613282" lon="-2.583740"><ele>862.5</ele><time>2011-11-30T11:30:00Z</time></trkpt><trkpt lat="42.613292" lon="-2.583748"><ele>862.5</ele><time>2011-11-30T11:30:01Z</time></trkpt><trkpt lat="42.613302" lon="-2.583755"><ele>862.5</ele><time>2011-11-30T11:30:02Z</time></trkpt><trkpt lat="42.613312" lon="-2.583763"><ele>862.5</ele><time>2011-11-30T11:30:03Z</time></trkpt><trkpt lat="42.613322" lon="-2.583770"><ele>862.5</ele><time>2011-11-30T11:30:04Z</time></trkpt><trkpt lat="42.613332" lon="-2.583777"><ele>862.5</ele><time>2011-11-30T11:30:05Z</time></trkpt><trkpt lat="42.613343" lon="-2.583783"><ele>862.5</ele><time>2011-11-30T11:30:08Z</time></trkpt><trkpt lat="42.613353" lon="-2.583788"><ele>862.5</ele><time>2011-11-30T11:30:08Z</time></trkpt><trkpt lat="42.613365" lon="-2.583795"><ele>862.5</ele><time>2011-11-30T11:30:09Z</time></trkpt><trkpt lat="42.613377" lon="-2.583800"><ele>862.0</ele><time>2011-11-30T11:30:10Z</time></trkpt><trkpt lat="42.613388" lon="-2.583807"><ele>862.0</ele><time>2011-11-30T11:30:11Z</time></trkpt><trkpt lat="42.613398" lon="-2.583813"><ele>862.0</ele><time>2011-11-30T11:30:12Z</time></trkpt><trkpt lat="42.613410" lon="-2.583818"><ele>862.0</ele><time>2011-11-30T11:30:13Z</time></trkpt><trkpt lat="42.613420" lon="-2.583823"><ele>861.5</ele><time>2011-11-30T11:30:14Z</time></trkpt><trkpt lat="42.613430" lon="-2.583828"><ele>861.5</ele><time>2011-11-30T11:30:15Z</time></trkpt><trkpt lat="42.613440" lon="-2.583835"><ele>861.5</ele><time>2011-11-30T11:30:16Z</time></trkpt><trkpt lat="42.613448" lon="-2.583842"><ele>861.5</ele><time>2011-11-30T11:30:17Z</time></trkpt><trkpt lat="42.613458" lon="-2.583848"><ele>861.5</ele><time>2011-11-30T11:30:18Z</time></trkpt><trkpt lat="42.613467" lon="-2.583853"><ele>861.5</ele><time>2011-11-30T11:30:19Z</time></trkpt><trkpt lat="42.613477" lon="-2.583860"><ele>861.5</ele><time>2011-11-30T11:30:20Z</time></trkpt><trkpt lat="42.613487" lon="-2.583867"><ele>861.5</ele><time>2011-11-30T11:30:21Z</time></trkpt><trkpt lat="42.613497" lon="-2.583875"><ele>861.5</ele><time>2011-11-30T11:30:22Z</time></trkpt><trkpt lat="42.613508" lon="-2.583880"><ele>861.5</ele><time>2011-11-30T11:30:23Z</time></trkpt><trkpt lat="42.613518" lon="-2.583887"><ele>861.5</ele><time>2011-11-30T11:30:24Z</time></trkpt><trkpt lat="42.613528" lon="-2.583895"><ele>861.5</ele><time>2011-11-30T11:30:25Z</time></trkpt><trkpt lat="42.613535" lon="-2.583912"><ele>862.0</ele><time>2011-11-30T11:30:26Z</time></trkpt><trkpt lat="42.613545" lon="-2.583920"><ele>862.0</ele><time>2011-11-30T11:30:27Z</time></trkpt><trkpt lat="42.613555" lon="-2.583927"><ele>862.0</ele><time>2011-11-30T11:30:28Z</time></trkpt><trkpt lat="42.613565" lon="-2.583935"><ele>861.5</ele><time>2011-11-30T11:30:29Z</time></trkpt><trkpt lat="42.613573" lon="-2.583942"><ele>862.0</ele><time>2011-11-30T11:30:30Z</time></trkpt><trkpt lat="42.613597" lon="-2.583958"><ele>862.5</ele><time>2011-11-30T11:30:31Z</time></trkpt><trkpt lat="42.613607" lon="-2.583967"><ele>862.0</ele><time>2011-11-30T11:30:33Z</time></trkpt><trkpt lat="42.613618" lon="-2.583977"><ele>862.0</ele><time>2011-11-30T11:30:34Z</time></trkpt><trkpt lat="42.613628" lon="-2.583985"><ele>862.0</ele><time>2011-11-30T11:30:35Z</time></trkpt><trkpt lat="42.613637" lon="-2.583990"><ele>862.0</ele><time>2011-11-30T11:30:36Z</time></trkpt><trkpt lat="42.613647" lon="-2.583998"><ele>862.0</ele><time>2011-11-30T11:30:37Z</time></trkpt><trkpt lat="42.613653" lon="-2.584010"><ele>862.5</ele><time>2011-11-30T11:30:38Z</time></trkpt><trkpt lat="42.613665" lon="-2.584017"><ele>861.5</ele><time>2011-11-30T11:30:39Z</time></trkpt><trkpt lat="42.613677" lon="-2.584020"><ele>861.0</ele><time>2011-11-30T11:30:40Z</time></trkpt><trkpt lat="42.613683" lon="-2.584030"><ele>861.5</ele><time>2011-11-30T11:30:41Z</time></trkpt><trkpt lat="42.613690" lon="-2.584040"><ele>861.5</ele><time>2011-11-30T11:30:42Z</time></trkpt><trkpt lat="42.613698" lon="-2.584048"><ele>861.5</ele><time>2011-11-30T11:30:43Z</time></trkpt><trkpt lat="42.613705" lon="-2.584060"><ele>861.5</ele><time>2011-11-30T11:30:44Z</time></trkpt><trkpt lat="42.613712" lon="-2.584070"><ele>862.0</ele><time>2011-11-30T11:30:45Z</time></trkpt><trkpt lat="42.613720" lon="-2.584078"><ele>861.5</ele><time>2011-11-30T11:30:46Z</time></trkpt><trkpt lat="42.613728" lon="-2.584088"><ele>861.5</ele><time>2011-11-30T11:30:47Z</time></trkpt><trkpt lat="42.613735" lon="-2.584100"><ele>861.5</ele><time>2011-11-30T11:30:48Z</time></trkpt><trkpt lat="42.613742" lon="-2.584110"><ele>861.5</ele><time>2011-11-30T11:30:49Z</time></trkpt><trkpt lat="42.613747" lon="-2.584122"><ele>861.5</ele><time>2011-11-30T11:30:50Z</time></trkpt><trkpt lat="42.613752" lon="-2.584137"><ele>861.5</ele><time>2011-11-30T11:30:51Z</time></trkpt><trkpt lat="42.613755" lon="-2.584153"><ele>861.5</ele><time>2011-11-30T11:30:52Z</time></trkpt><trkpt lat="42.613758" lon="-2.584163"><ele>861.0</ele><time>2011-11-30T11:30:53Z</time></trkpt><trkpt lat="42.613767" lon="-2.584180"><ele>861.5</ele><time>2011-11-30T11:30:54Z</time></trkpt><trkpt lat="42.613773" lon="-2.584192"><ele>861.0</ele><time>2011-11-30T11:30:55Z</time></trkpt><trkpt lat="42.613768" lon="-2.584188"><ele>859.0</ele><time>2011-11-30T11:30:56Z</time></trkpt><trkpt lat="42.613773" lon="-2.584195"><ele>858.5</ele><time>2011-11-30T11:30:57Z</time></trkpt><trkpt lat="42.613780" lon="-2.584203"><ele>857.5</ele><time>2011-11-30T11:30:58Z</time></trkpt><trkpt lat="42.613785" lon="-2.584213"><ele>857.5</ele><time>2011-11-30T11:30:59Z</time></trkpt><trkpt lat="42.613793" lon="-2.584225"><ele>857.5</ele><time>2011-11-30T11:31:00Z</time></trkpt><trkpt lat="42.613800" lon="-2.584238"><ele>857.0</ele><time>2011-11-30T11:31:01Z</time></trkpt><trkpt lat="42.613808" lon="-2.584250"><ele>857.0</ele><time>2011-11-30T11:31:02Z</time></trkpt><trkpt lat="42.613817" lon="-2.584262"><ele>856.5</ele><time>2011-11-30T11:31:03Z</time></trkpt><trkpt lat="42.613823" lon="-2.584278"><ele>856.0</ele><time>2011-11-30T11:31:04Z</time></trkpt><trkpt lat="42.613830" lon="-2.584292"><ele>856.0</ele><time>2011-11-30T11:31:05Z</time></trkpt><trkpt lat="42.613837" lon="-2.584305"><ele>856.0</ele><time>2011-11-30T11:31:06Z</time></trkpt><trkpt lat="42.613855" lon="-2.584343"><ele>855.0</ele><time>2011-11-30T11:31:07Z</time></trkpt><trkpt lat="42.613867" lon="-2.584362"><ele>855.0</ele><time>2011-11-30T11:31:08Z</time></trkpt><trkpt lat="42.613877" lon="-2.584373"><ele>854.5</ele><time>2011-11-30T11:31:09Z</time></trkpt><trkpt lat="42.613882" lon="-2.584400"><ele>854.5</ele><time>2011-11-30T11:31:10Z</time></trkpt><trkpt lat="42.613890" lon="-2.584415"><ele>854.0</ele><time>2011-11-30T11:31:11Z</time></trkpt><trkpt lat="42.613898" lon="-2.584428"><ele>854.0</ele><time>2011-11-30T11:31:12Z</time></trkpt><trkpt lat="42.613907" lon="-2.584445"><ele>854.0</ele><time>2011-11-30T11:31:13Z</time></trkpt><trkpt lat="42.613913" lon="-2.584462"><ele>854.0</ele><time>2011-11-30T11:31:14Z</time></trkpt><trkpt lat="42.613923" lon="-2.584475"><ele>854.0</ele><time>2011-11-30T11:31:15Z</time></trkpt><trkpt lat="42.613933" lon="-2.584488"><ele>853.5</ele><time>2011-11-30T11:31:16Z</time></trkpt><trkpt lat="42.613943" lon="-2.584502"><ele>853.5</ele><time>2011-11-30T11:31:17Z</time></trkpt><trkpt lat="42.613953" lon="-2.584515"><ele>853.0</ele><time>2011-11-30T11:31:18Z</time></trkpt><trkpt lat="42.613965" lon="-2.584525"><ele>853.0</ele><time>2011-11-30T11:31:19Z</time></trkpt><trkpt lat="42.613973" lon="-2.584538"><ele>853.0</ele><time>2011-11-30T11:31:20Z</time></trkpt><trkpt lat="42.613983" lon="-2.584550"><ele>852.5</ele><time>2011-11-30T11:31:21Z</time></trkpt><trkpt lat="42.613995" lon="-2.584562"><ele>852.5</ele><time>2011-11-30T11:31:22Z</time></trkpt><trkpt lat="42.614008" lon="-2.584570"><ele>852.5</ele><time>2011-11-30T11:31:23Z</time></trkpt><trkpt lat="42.614020" lon="-2.584578"><ele>852.0</ele><time>2011-11-30T11:31:24Z</time></trkpt><trkpt lat="42.614032" lon="-2.584585"><ele>851.5</ele><time>2011-11-30T11:31:25Z</time></trkpt><trkpt lat="42.614045" lon="-2.584590"><ele>851.5</ele><time>2011-11-30T11:31:26Z</time></trkpt><trkpt lat="42.614055" lon="-2.584595"><ele>851.5</ele><time>2011-11-30T11:31:27Z</time></trkpt><trkpt lat="42.614065" lon="-2.584600"><ele>851.0</ele><time>2011-11-30T11:31:28Z</time></trkpt><trkpt lat="42.614077" lon="-2.584603"><ele>851.0</ele><time>2011-11-30T11:31:29Z</time></trkpt><trkpt lat="42.614087" lon="-2.584607"><ele>850.5</ele><time>2011-11-30T11:31:30Z</time></trkpt><trkpt lat="42.614098" lon="-2.584605"><ele>850.5</ele><time>2011-11-30T11:31:31Z</time></trkpt><trkpt lat="42.614108" lon="-2.584603"><ele>850.0</ele><time>2011-11-30T11:31:32Z</time></trkpt><trkpt lat="42.614122" lon="-2.584602"><ele>850.0</ele><time>2011-11-30T11:31:33Z</time></trkpt><trkpt lat="42.614132" lon="-2.584595"><ele>849.5</ele><time>2011-11-30T11:31:34Z</time></trkpt><trkpt lat="42.614142" lon="-2.584590"><ele>849.0</ele><time>2011-11-30T11:31:35Z</time></trkpt><trkpt lat="42.614153" lon="-2.584583"><ele>848.5</ele><time>2011-11-30T11:31:36Z</time></trkpt><trkpt lat="42.614165" lon="-2.584577"><ele>848.0</ele><time>2011-11-30T11:31:37Z</time></trkpt><trkpt lat="42.614177" lon="-2.584568"><ele>848.0</ele><time>2011-11-30T11:31:38Z</time></trkpt><trkpt lat="42.614188" lon="-2.584562"><ele>847.5</ele><time>2011-11-30T11:31:39Z</time></trkpt><trkpt lat="42.614198" lon="-2.584553"><ele>847.0</ele><time>2011-11-30T11:31:40Z</time></trkpt><trkpt lat="42.614210" lon="-2.584547"><ele>847.0</ele><time>2011-11-30T11:31:41Z</time></trkpt><trkpt lat="42.614220" lon="-2.584538"><ele>847.0</ele><time>2011-11-30T11:31:42Z</time></trkpt><trkpt lat="42.614230" lon="-2.584527"><ele>846.5</ele><time>2011-11-30T11:31:43Z</time></trkpt><trkpt lat="42.614240" lon="-2.584518"><ele>846.5</ele><time>2011-11-30T11:31:44Z</time></trkpt><trkpt lat="42.614250" lon="-2.584508"><ele>846.5</ele><time>2011-11-30T11:31:45Z</time></trkpt><trkpt lat="42.614260" lon="-2.584502"><ele>846.5</ele><time>2011-11-30T11:31:46Z</time></trkpt><trkpt lat="42.614270" lon="-2.584492"><ele>846.5</ele><time>2011-11-30T11:31:47Z</time></trkpt><trkpt lat="42.614280" lon="-2.584482"><ele>846.5</ele><time>2011-11-30T11:31:48Z</time></trkpt><trkpt lat="42.614288" lon="-2.584472"><ele>846.0</ele><time>2011-11-30T11:31:49Z</time></trkpt><trkpt lat="42.614300" lon="-2.584465"><ele>846.0</ele><time>2011-11-30T11:31:50Z</time></trkpt><trkpt lat="42.614308" lon="-2.584457"><ele>845.5</ele><time>2011-11-30T11:31:51Z</time></trkpt><trkpt lat="42.614320" lon="-2.584448"><ele>845.5</ele><time>2011-11-30T11:31:52Z</time></trkpt><trkpt lat="42.614330" lon="-2.584442"><ele>845.5</ele><time>2011-11-30T11:31:53Z</time></trkpt><trkpt lat="42.614340" lon="-2.584432"><ele>845.0</ele><time>2011-11-30T11:31:54Z</time></trkpt><trkpt lat="42.614352" lon="-2.584425"><ele>845.5</ele><time>2011-11-30T11:31:55Z</time></trkpt><trkpt lat="42.614363" lon="-2.584418"><ele>845.0</ele><time>2011-11-30T11:31:56Z</time></trkpt><trkpt lat="42.614377" lon="-2.584413"><ele>845.0</ele><time>2011-11-30T11:31:57Z</time></trkpt><trkpt lat="42.614390" lon="-2.584407"><ele>845.0</ele><time>2011-11-30T11:31:58Z</time></trkpt><trkpt lat="42.614402" lon="-2.584398"><ele>845.0</ele><time>2011-11-30T11:31:59Z</time></trkpt><trkpt lat="42.614417" lon="-2.584392"><ele>845.0</ele><time>2011-11-30T11:32:00Z</time></trkpt><trkpt lat="42.614430" lon="-2.584387"><ele>845.5</ele><time>2011-11-30T11:32:01Z</time></trkpt><trkpt lat="42.614442" lon="-2.584382"><ele>845.5</ele><time>2011-11-30T11:32:02Z</time></trkpt><trkpt lat="42.614457" lon="-2.584377"><ele>845.5</ele><time>2011-11-30T11:32:03Z</time></trkpt><trkpt lat="42.614470" lon="-2.584373"><ele>845.5</ele><time>2011-11-30T11:32:04Z</time></trkpt><trkpt lat="42.614487" lon="-2.584372"><ele>846.0</ele><time>2011-11-30T11:32:05Z</time></trkpt><trkpt lat="42.614502" lon="-2.584368"><ele>846.5</ele><time>2011-11-30T11:32:06Z</time></trkpt><trkpt lat="42.614518" lon="-2.584367"><ele>846.5</ele><time>2011-11-30T11:32:07Z</time></trkpt><trkpt lat="42.614535" lon="-2.584367"><ele>847.0</ele><time>2011-11-30T11:32:08Z</time></trkpt><trkpt lat="42.614547" lon="-2.584365"><ele>847.0</ele><time>2011-11-30T11:32:09Z</time></trkpt><trkpt lat="42.614560" lon="-2.584365"><ele>847.0</ele><time>2011-11-30T11:32:10Z</time></trkpt><trkpt lat="42.614573" lon="-2.584363"><ele>847.0</ele><time>2011-11-30T11:32:11Z</time></trkpt><trkpt lat="42.614585" lon="-2.584362"><ele>847.0</ele><time>2011-11-30T11:32:12Z</time></trkpt><trkpt lat="42.614600" lon="-2.584362"><ele>847.0</ele><time>2011-11-30T11:32:13Z</time></trkpt><trkpt lat="42.614612" lon="-2.584362"><ele>847.0</ele><time>2011-11-30T11:32:14Z</time></trkpt><trkpt lat="42.614623" lon="-2.584362"><ele>847.0</ele><time>2011-11-30T11:32:15Z</time></trkpt><trkpt lat="42.614637" lon="-2.584362"><ele>847.0</ele><time>2011-11-30T11:32:16Z</time></trkpt><trkpt lat="42.614648" lon="-2.584362"><ele>847.0</ele><time>2011-11-30T11:32:17Z</time></trkpt><trkpt lat="42.614662" lon="-2.584365"><ele>847.0</ele><time>2011-11-30T11:32:18Z</time></trkpt><trkpt lat="42.614673" lon="-2.584367"><ele>847.0</ele><time>2011-11-30T11:32:19Z</time></trkpt><trkpt lat="42.614682" lon="-2.584368"><ele>847.0</ele><time>2011-11-30T11:32:20Z</time></trkpt><trkpt lat="42.614693" lon="-2.584373"><ele>847.0</ele><time>2011-11-30T11:32:21Z</time></trkpt><trkpt lat="42.614700" lon="-2.584373"><ele>847.0</ele><time>2011-11-30T11:32:22Z</time></trkpt><trkpt lat="42.614712" lon="-2.584375"><ele>847.0</ele><time>2011-11-30T11:32:23Z</time></trkpt><trkpt lat="42.614723" lon="-2.584377"><ele>847.0</ele><time>2011-11-30T11:32:24Z</time></trkpt><trkpt lat="42.614735" lon="-2.584380"><ele>847.0</ele><time>2011-11-30T11:32:25Z</time></trkpt><trkpt lat="42.614747" lon="-2.584383"><ele>846.5</ele><time>2011-11-30T11:32:26Z</time></trkpt><trkpt lat="42.614758" lon="-2.584388"><ele>846.5</ele><time>2011-11-30T11:32:27Z</time></trkpt><trkpt lat="42.614770" lon="-2.584390"><ele>846.5</ele><time>2011-11-30T11:32:28Z</time></trkpt><trkpt lat="42.614782" lon="-2.584395"><ele>846.5</ele><time>2011-11-30T11:32:29Z</time></trkpt><trkpt lat="42.614792" lon="-2.584400"><ele>846.5</ele><time>2011-11-30T11:32:30Z</time></trkpt><trkpt lat="42.614802" lon="-2.584403"><ele>846.5</ele><time>2011-11-30T11:32:31Z</time></trkpt><trkpt lat="42.614813" lon="-2.584407"><ele>846.5</ele><time>2011-11-30T11:32:32Z</time></trkpt><trkpt lat="42.614827" lon="-2.584410"><ele>846.0</ele><time>2011-11-30T11:32:33Z</time></trkpt><trkpt lat="42.614837" lon="-2.584415"><ele>846.0</ele><time>2011-11-30T11:32:34Z</time></trkpt><trkpt lat="42.614847" lon="-2.584418"><ele>846.0</ele><time>2011-11-30T11:32:35Z</time></trkpt><trkpt lat="42.614862" lon="-2.584425"><ele>846.0</ele><time>2011-11-30T11:32:36Z</time></trkpt><trkpt lat="42.614873" lon="-2.584428"><ele>845.5</ele><time>2011-11-30T11:32:37Z</time></trkpt><trkpt lat="42.614885" lon="-2.584433"><ele>845.5</ele><time>2011-11-30T11:32:38Z</time></trkpt><trkpt lat="42.614898" lon="-2.584438"><ele>845.5</ele><time>2011-11-30T11:32:39Z</time></trkpt><trkpt lat="42.614908" lon="-2.584443"><ele>845.0</ele><time>2011-11-30T11:32:40Z</time></trkpt><trkpt lat="42.614922" lon="-2.584448"><ele>845.0</ele><time>2011-11-30T11:32:41Z</time></trkpt><trkpt lat="42.614933" lon="-2.584453"><ele>845.0</ele><time>2011-11-30T11:32:42Z</time></trkpt><trkpt lat="42.614948" lon="-2.584460"><ele>845.0</ele><time>2011-11-30T11:32:43Z</time></trkpt><trkpt lat="42.614962" lon="-2.584465"><ele>845.0</ele><time>2011-11-30T11:32:44Z</time></trkpt><trkpt lat="42.614973" lon="-2.584472"><ele>845.0</ele><time>2011-11-30T11:32:45Z</time></trkpt><trkpt lat="42.614983" lon="-2.584480"><ele>845.0</ele><time>2011-11-30T11:32:46Z</time></trkpt><trkpt lat="42.615010" lon="-2.584492"><ele>845.5</ele><time>2011-11-30T11:32:47Z</time></trkpt><trkpt lat="42.615022" lon="-2.584497"><ele>845.5</ele><time>2011-11-30T11:32:48Z</time></trkpt><trkpt lat="42.615035" lon="-2.584500"><ele>845.5</ele><time>2011-11-30T11:32:49Z</time></trkpt><trkpt lat="42.615047" lon="-2.584507"><ele>845.5</ele><time>2011-11-30T11:32:50Z</time></trkpt><trkpt lat="42.615057" lon="-2.584510"><ele>845.0</ele><time>2011-11-30T11:32:51Z</time></trkpt><trkpt lat="42.615068" lon="-2.584517"><ele>845.0</ele><time>2011-11-30T11:32:52Z</time></trkpt><trkpt lat="42.615078" lon="-2.584520"><ele>844.5</ele><time>2011-11-30T11:32:53Z</time></trkpt><trkpt lat="42.615092" lon="-2.584523"><ele>845.0</ele><time>2011-11-30T11:32:54Z</time></trkpt><trkpt lat="42.615105" lon="-2.584525"><ele>844.5</ele><time>2011-11-30T11:32:55Z</time></trkpt><trkpt lat="42.615118" lon="-2.584530"><ele>844.5</ele><time>2011-11-30T11:32:56Z</time></trkpt><trkpt lat="42.615130" lon="-2.584532"><ele>844.5</ele><time>2011-11-30T11:32:57Z</time></trkpt><trkpt lat="42.615140" lon="-2.584535"><ele>844.0</ele><time>2011-11-30T11:32:58Z</time></trkpt><trkpt lat="42.615152" lon="-2.584540"><ele>844.0</ele><time>2011-11-30T11:32:59Z</time></trkpt><trkpt lat="42.615163" lon="-2.584543"><ele>844.0</ele><time>2011-11-30T11:33:00Z</time></trkpt><trkpt lat="42.615177" lon="-2.584547"><ele>844.0</ele><time>2011-11-30T11:33:01Z</time></trkpt><trkpt lat="42.615185" lon="-2.584545"><ele>842.5</ele><time>2011-11-30T11:33:02Z</time></trkpt><trkpt lat="42.615195" lon="-2.584547"><ele>842.5</ele><time>2011-11-30T11:33:03Z</time></trkpt><trkpt lat="42.615207" lon="-2.584548"><ele>842.5</ele><time>2011-11-30T11:33:04Z</time></trkpt><trkpt lat="42.615217" lon="-2.584548"><ele>842.0</ele><time>2011-11-30T11:33:05Z</time></trkpt><trkpt lat="42.615228" lon="-2.584552"><ele>842.0</ele><time>2011-11-30T11:33:06Z</time></trkpt><trkpt lat="42.615240" lon="-2.584552"><ele>842.0</ele><time>2011-11-30T11:33:07Z</time></trkpt><trkpt lat="42.615250" lon="-2.584552"><ele>841.5</ele><time>2011-11-30T11:33:08Z</time></trkpt><trkpt lat="42.615262" lon="-2.584552"><ele>841.5</ele><time>2011-11-30T11:33:09Z</time></trkpt><trkpt lat="42.615275" lon="-2.584553"><ele>841.5</ele><time>2011-11-30T11:33:10Z</time></trkpt><trkpt lat="42.615287" lon="-2.584555"><ele>842.0</ele><time>2011-11-30T11:33:11Z</time></trkpt><trkpt lat="42.615298" lon="-2.584555"><ele>841.5</ele><time>2011-11-30T11:33:12Z</time></trkpt><trkpt lat="42.615308" lon="-2.584555"><ele>841.5</ele><time>2011-11-30T11:33:13Z</time></trkpt><trkpt lat="42.615322" lon="-2.584555"><ele>841.5</ele><time>2011-11-30T11:33:14Z</time></trkpt><trkpt lat="42.615332" lon="-2.584557"><ele>841.0</ele><time>2011-11-30T11:33:15Z</time></trkpt><trkpt lat="42.615345" lon="-2.584558"><ele>841.0</ele><time>2011-11-30T11:33:16Z</time></trkpt><trkpt lat="42.615365" lon="-2.584562"><ele>841.5</ele><time>2011-11-30T11:33:17Z</time></trkpt><trkpt lat="42.615382" lon="-2.584563"><ele>842.0</ele><time>2011-11-30T11:33:18Z</time></trkpt><trkpt lat="42.615392" lon="-2.584565"><ele>841.5</ele><time>2011-11-30T11:33:19Z</time></trkpt><trkpt lat="42.615402" lon="-2.584565"><ele>841.5</ele><time>2011-11-30T11:33:20Z</time></trkpt><trkpt lat="42.615453" lon="-2.584582"><ele>843.0</ele><time>2011-11-30T11:33:22Z</time></trkpt><trkpt lat="42.615462" lon="-2.584580"><ele>843.0</ele><time>2011-11-30T11:33:23Z</time></trkpt><trkpt lat="42.615472" lon="-2.584578"><ele>842.5</ele><time>2011-11-30T11:33:24Z</time></trkpt><trkpt lat="42.615485" lon="-2.584578"><ele>843.0</ele><time>2011-11-30T11:33:25Z</time></trkpt><trkpt lat="42.615500" lon="-2.584582"><ele>843.0</ele><time>2011-11-30T11:33:26Z</time></trkpt><trkpt lat="42.615515" lon="-2.584585"><ele>843.0</ele><time>2011-11-30T11:33:27Z</time></trkpt><trkpt lat="42.615532" lon="-2.584588"><ele>843.0</ele><time>2011-11-30T11:33:28Z</time></trkpt><trkpt lat="42.615550" lon="-2.584592"><ele>843.5</ele><time>2011-11-30T11:33:29Z</time></trkpt><trkpt lat="42.615563" lon="-2.584595"><ele>843.5</ele><time>2011-11-30T11:33:30Z</time></trkpt><trkpt lat="42.615577" lon="-2.584595"><ele>843.5</ele><time>2011-11-30T11:33:31Z</time></trkpt><trkpt lat="42.615588" lon="-2.584598"><ele>843.5</ele><time>2011-11-30T11:33:32Z</time></trkpt><trkpt lat="42.615600" lon="-2.584598"><ele>843.5</ele><time>2011-11-30T11:33:33Z</time></trkpt><trkpt lat="42.615612" lon="-2.584600"><ele>843.5</ele><time>2011-11-30T11:33:34Z</time></trkpt><trkpt lat="42.615623" lon="-2.584602"><ele>843.0</ele><time>2011-11-30T11:33:35Z</time></trkpt><trkpt lat="42.615635" lon="-2.584603"><ele>843.0</ele><time>2011-11-30T11:33:36Z</time></trkpt><trkpt lat="42.615645" lon="-2.584605"><ele>843.0</ele><time>2011-11-30T11:33:37Z</time></trkpt><trkpt lat="42.615655" lon="-2.584605"><ele>843.0</ele><time>2011-11-30T11:33:38Z</time></trkpt><trkpt lat="42.615667" lon="-2.584607"><ele>843.0</ele><time>2011-11-30T11:33:39Z</time></trkpt><trkpt lat="42.615677" lon="-2.584608"><ele>843.0</ele><time>2011-11-30T11:33:40Z</time></trkpt><trkpt lat="42.615687" lon="-2.584608"><ele>842.5</ele><time>2011-11-30T11:33:41Z</time></trkpt><trkpt lat="42.615698" lon="-2.584612"><ele>842.5</ele><time>2011-11-30T11:33:42Z</time></trkpt><trkpt lat="42.615710" lon="-2.584613"><ele>842.0</ele><time>2011-11-30T11:33:43Z</time></trkpt><trkpt lat="42.615720" lon="-2.584613"><ele>842.0</ele><time>2011-11-30T11:33:44Z</time></trkpt><trkpt lat="42.615730" lon="-2.584617"><ele>841.5</ele><time>2011-11-30T11:33:45Z</time></trkpt><trkpt lat="42.615742" lon="-2.584618"><ele>841.5</ele><time>2011-11-30T11:33:46Z</time></trkpt><trkpt lat="42.615755" lon="-2.584622"><ele>841.0</ele><time>2011-11-30T11:33:47Z</time></trkpt><trkpt lat="42.615768" lon="-2.584622"><ele>841.0</ele><time>2011-11-30T11:33:48Z</time></trkpt><trkpt lat="42.615782" lon="-2.584625"><ele>841.0</ele><time>2011-11-30T11:33:49Z</time></trkpt><trkpt lat="42.615795" lon="-2.584627"><ele>841.0</ele><time>2011-11-30T11:33:50Z</time></trkpt><trkpt lat="42.615808" lon="-2.584630"><ele>841.0</ele><time>2011-11-30T11:33:51Z</time></trkpt><trkpt lat="42.615822" lon="-2.584632"><ele>841.0</ele><time>2011-11-30T11:33:52Z</time></trkpt><trkpt lat="42.615837" lon="-2.584635"><ele>840.5</ele><time>2011-11-30T11:33:53Z</time></trkpt><trkpt lat="42.615852" lon="-2.584640"><ele>841.0</ele><time>2011-11-30T11:33:54Z</time></trkpt><trkpt lat="42.615868" lon="-2.584647"><ele>841.0</ele><time>2011-11-30T11:33:55Z</time></trkpt><trkpt lat="42.615887" lon="-2.584650"><ele>841.5</ele><time>2011-11-30T11:33:56Z</time></trkpt><trkpt lat="42.615897" lon="-2.584648"><ele>841.5</ele><time>2011-11-30T11:33:57Z</time></trkpt><trkpt lat="42.615910" lon="-2.584652"><ele>841.5</ele><time>2011-11-30T11:33:58Z</time></trkpt><trkpt lat="42.615923" lon="-2.584657"><ele>841.5</ele><time>2011-11-30T11:33:59Z</time></trkpt><trkpt lat="42.615935" lon="-2.584658"><ele>841.5</ele><time>2011-11-30T11:34:00Z</time></trkpt><trkpt lat="42.615947" lon="-2.584658"><ele>841.0</ele><time>2011-11-30T11:34:01Z</time></trkpt><trkpt lat="42.615957" lon="-2.584658"><ele>840.5</ele><time>2011-11-30T11:34:02Z</time></trkpt><trkpt lat="42.615967" lon="-2.584660"><ele>840.0</ele><time>2011-11-30T11:34:03Z</time></trkpt><trkpt lat="42.615977" lon="-2.584662"><ele>839.5</ele><time>2011-11-30T11:34:04Z</time></trkpt><trkpt lat="42.615988" lon="-2.584663"><ele>839.5</ele><time>2011-11-30T11:34:05Z</time></trkpt><trkpt lat="42.616002" lon="-2.584667"><ele>839.5</ele><time>2011-11-30T11:34:06Z</time></trkpt><trkpt lat="42.616015" lon="-2.584670"><ele>839.5</ele><time>2011-11-30T11:34:07Z</time></trkpt><trkpt lat="42.616027" lon="-2.584672"><ele>839.0</ele><time>2011-11-30T11:34:08Z</time></trkpt><trkpt lat="42.616038" lon="-2.584675"><ele>839.0</ele><time>2011-11-30T11:34:09Z</time></trkpt><trkpt lat="42.616052" lon="-2.584677"><ele>839.0</ele><time>2011-11-30T11:34:10Z</time></trkpt><trkpt lat="42.616063" lon="-2.584682"><ele>838.5</ele><time>2011-11-30T11:34:11Z</time></trkpt><trkpt lat="42.616075" lon="-2.584683"><ele>838.5</ele><time>2011-11-30T11:34:12Z</time></trkpt><trkpt lat="42.616087" lon="-2.584685"><ele>838.0</ele><time>2011-11-30T11:34:13Z</time></trkpt><trkpt lat="42.616095" lon="-2.584687"><ele>837.5</ele><time>2011-11-30T11:34:14Z</time></trkpt><trkpt lat="42.616107" lon="-2.584688"><ele>837.5</ele><time>2011-11-30T11:34:15Z</time></trkpt><trkpt lat="42.616117" lon="-2.584690"><ele>837.5</ele><time>2011-11-30T11:34:16Z</time></trkpt><trkpt lat="42.616125" lon="-2.584690"><ele>837.0</ele><time>2011-11-30T11:34:17Z</time></trkpt><trkpt lat="42.616133" lon="-2.584693"><ele>836.5</ele><time>2011-11-30T11:34:18Z</time></trkpt><trkpt lat="42.616143" lon="-2.584693"><ele>836.5</ele><time>2011-11-30T11:34:19Z</time></trkpt><trkpt lat="42.616155" lon="-2.584695"><ele>836.5</ele><time>2011-11-30T11:34:20Z</time></trkpt><trkpt lat="42.616170" lon="-2.584698"><ele>836.5</ele><time>2011-11-30T11:34:21Z</time></trkpt><trkpt lat="42.616183" lon="-2.584702"><ele>836.5</ele><time>2011-11-30T11:34:22Z</time></trkpt><trkpt lat="42.616197" lon="-2.584703"><ele>836.5</ele><time>2011-11-30T11:34:23Z</time></trkpt><trkpt lat="42.616210" lon="-2.584707"><ele>836.5</ele><time>2011-11-30T11:34:24Z</time></trkpt><trkpt lat="42.616223" lon="-2.584708"><ele>836.5</ele><time>2011-11-30T11:34:25Z</time></trkpt><trkpt lat="42.616237" lon="-2.584712"><ele>836.0</ele><time>2011-11-30T11:34:26Z</time></trkpt><trkpt lat="42.616250" lon="-2.584715"><ele>836.0</ele><time>2011-11-30T11:34:27Z</time></trkpt><trkpt lat="42.616263" lon="-2.584718"><ele>836.0</ele><time>2011-11-30T11:34:28Z</time></trkpt><trkpt lat="42.616280" lon="-2.584722"><ele>836.5</ele><time>2011-11-30T11:34:29Z</time></trkpt><trkpt lat="42.616293" lon="-2.584725"><ele>836.0</ele><time>2011-11-30T11:34:30Z</time></trkpt><trkpt lat="42.616305" lon="-2.584730"><ele>836.0</ele><time>2011-11-30T11:34:31Z</time></trkpt><trkpt lat="42.616317" lon="-2.584732"><ele>836.0</ele><time>2011-11-30T11:34:32Z</time></trkpt><trkpt lat="42.616330" lon="-2.584735"><ele>836.0</ele><time>2011-11-30T11:34:33Z</time></trkpt><trkpt lat="42.616342" lon="-2.584738"><ele>836.0</ele><time>2011-11-30T11:34:34Z</time></trkpt><trkpt lat="42.616355" lon="-2.584743"><ele>836.0</ele><time>2011-11-30T11:34:35Z</time></trkpt><trkpt lat="42.616370" lon="-2.584747"><ele>836.0</ele><time>2011-11-30T11:34:36Z</time></trkpt><trkpt lat="42.616388" lon="-2.584752"><ele>836.5</ele><time>2011-11-30T11:34:37Z</time></trkpt><trkpt lat="42.616400" lon="-2.584753"><ele>836.5</ele><time>2011-11-30T11:34:38Z</time></trkpt><trkpt lat="42.616415" lon="-2.584757"><ele>836.0</ele><time>2011-11-30T11:34:39Z</time></trkpt><trkpt lat="42.616427" lon="-2.584762"><ele>836.0</ele><time>2011-11-30T11:34:40Z</time></trkpt><trkpt lat="42.616440" lon="-2.584765"><ele>836.0</ele><time>2011-11-30T11:34:41Z</time></trkpt><trkpt lat="42.616453" lon="-2.584767"><ele>836.0</ele><time>2011-11-30T11:34:42Z</time></trkpt><trkpt lat="42.616467" lon="-2.584768"><ele>836.0</ele><time>2011-11-30T11:34:43Z</time></trkpt><trkpt lat="42.616480" lon="-2.584770"><ele>835.5</ele><time>2011-11-30T11:34:44Z</time></trkpt><trkpt lat="42.616495" lon="-2.584773"><ele>835.5</ele><time>2011-11-30T11:34:45Z</time></trkpt><trkpt lat="42.616508" lon="-2.584775"><ele>835.5</ele><time>2011-11-30T11:34:46Z</time></trkpt><trkpt lat="42.616523" lon="-2.584778"><ele>835.0</ele><time>2011-11-30T11:34:47Z</time></trkpt><trkpt lat="42.616537" lon="-2.584783"><ele>835.0</ele><time>2011-11-30T11:34:48Z</time></trkpt><trkpt lat="42.616552" lon="-2.584785"><ele>835.0</ele><time>2011-11-30T11:34:49Z</time></trkpt><trkpt lat="42.616565" lon="-2.584788"><ele>835.5</ele><time>2011-11-30T11:34:50Z</time></trkpt><trkpt lat="42.616577" lon="-2.584787"><ele>835.0</ele><time>2011-11-30T11:34:51Z</time></trkpt><trkpt lat="42.616587" lon="-2.584787"><ele>835.0</ele><time>2011-11-30T11:34:52Z</time></trkpt><trkpt lat="42.616598" lon="-2.584790"><ele>834.5</ele><time>2011-11-30T11:34:53Z</time></trkpt><trkpt lat="42.616610" lon="-2.584793"><ele>834.5</ele><time>2011-11-30T11:34:54Z</time></trkpt><trkpt lat="42.616623" lon="-2.584800"><ele>834.5</ele><time>2011-11-30T11:34:55Z</time></trkpt><trkpt lat="42.616635" lon="-2.584803"><ele>834.0</ele><time>2011-11-30T11:34:56Z</time></trkpt><trkpt lat="42.616647" lon="-2.584805"><ele>834.0</ele><time>2011-11-30T11:34:57Z</time></trkpt><trkpt lat="42.616660" lon="-2.584807"><ele>834.0</ele><time>2011-11-30T11:34:58Z</time></trkpt><trkpt lat="42.616673" lon="-2.584810"><ele>834.0</ele><time>2011-11-30T11:34:59Z</time></trkpt><trkpt lat="42.616687" lon="-2.584813"><ele>834.0</ele><time>2011-11-30T11:35:00Z</time></trkpt><trkpt lat="42.616698" lon="-2.584817"><ele>833.5</ele><time>2011-11-30T11:35:01Z</time></trkpt><trkpt lat="42.616710" lon="-2.584822"><ele>833.5</ele><time>2011-11-30T11:35:02Z</time></trkpt><trkpt lat="42.616723" lon="-2.584825"><ele>833.5</ele><time>2011-11-30T11:35:03Z</time></trkpt><trkpt lat="42.616735" lon="-2.584828"><ele>833.5</ele><time>2011-11-30T11:35:04Z</time></trkpt><trkpt lat="42.616747" lon="-2.584830"><ele>833.5</ele><time>2011-11-30T11:35:05Z</time></trkpt><trkpt lat="42.616760" lon="-2.584835"><ele>833.5</ele><time>2011-11-30T11:35:06Z</time></trkpt><trkpt lat="42.616780" lon="-2.584838"><ele>833.0</ele><time>2011-11-30T11:35:07Z</time></trkpt><trkpt lat="42.616795" lon="-2.584842"><ele>833.0</ele><time>2011-11-30T11:35:08Z</time></trkpt><trkpt lat="42.616807" lon="-2.584847"><ele>833.0</ele><time>2011-11-30T11:35:09Z</time></trkpt><trkpt lat="42.616822" lon="-2.584848"><ele>833.0</ele><time>2011-11-30T11:35:10Z</time></trkpt><trkpt lat="42.616833" lon="-2.584850"><ele>833.0</ele><time>2011-11-30T11:35:11Z</time></trkpt><trkpt lat="42.616847" lon="-2.584855"><ele>833.0</ele><time>2011-11-30T11:35:12Z</time></trkpt><trkpt lat="42.616862" lon="-2.584860"><ele>833.0</ele><time>2011-11-30T11:35:13Z</time></trkpt><trkpt lat="42.616877" lon="-2.584865"><ele>833.0</ele><time>2011-11-30T11:35:14Z</time></trkpt><trkpt lat="42.616893" lon="-2.584870"><ele>833.5</ele><time>2011-11-30T11:35:15Z</time></trkpt><trkpt lat="42.616907" lon="-2.584872"><ele>833.5</ele><time>2011-11-30T11:35:16Z</time></trkpt><trkpt lat="42.616918" lon="-2.584875"><ele>833.5</ele><time>2011-11-30T11:35:17Z</time></trkpt><trkpt lat="42.616932" lon="-2.584880"><ele>833.5</ele><time>2011-11-30T11:35:18Z</time></trkpt><trkpt lat="42.616943" lon="-2.584882"><ele>833.0</ele><time>2011-11-30T11:35:19Z</time></trkpt><trkpt lat="42.616955" lon="-2.584885"><ele>833.0</ele><time>2011-11-30T11:35:20Z</time></trkpt><trkpt lat="42.616965" lon="-2.584887"><ele>833.0</ele><time>2011-11-30T11:35:21Z</time></trkpt><trkpt lat="42.616975" lon="-2.584890"><ele>832.5</ele><time>2011-11-30T11:35:22Z</time></trkpt><trkpt lat="42.616982" lon="-2.584887"><ele>832.5</ele><time>2011-11-30T11:35:23Z</time></trkpt><trkpt lat="42.616997" lon="-2.584892"><ele>832.5</ele><time>2011-11-30T11:35:24Z</time></trkpt><trkpt lat="42.617012" lon="-2.584897"><ele>832.5</ele><time>2011-11-30T11:35:25Z</time></trkpt><trkpt lat="42.617027" lon="-2.584897"><ele>832.5</ele><time>2011-11-30T11:35:26Z</time></trkpt><trkpt lat="42.617037" lon="-2.584905"><ele>832.0</ele><time>2011-11-30T11:35:27Z</time></trkpt><trkpt lat="42.617050" lon="-2.584907"><ele>832.0</ele><time>2011-11-30T11:35:28Z</time></trkpt><trkpt lat="42.617062" lon="-2.584908"><ele>832.0</ele><time>2011-11-30T11:35:29Z</time></trkpt><trkpt lat="42.617072" lon="-2.584913"><ele>831.5</ele><time>2011-11-30T11:35:30Z</time></trkpt><trkpt lat="42.617085" lon="-2.584917"><ele>831.5</ele><time>2011-11-30T11:35:31Z</time></trkpt><trkpt lat="42.617097" lon="-2.584920"><ele>831.5</ele><time>2011-11-30T11:35:32Z</time></trkpt><trkpt lat="42.617110" lon="-2.584925"><ele>832.0</ele><time>2011-11-30T11:35:33Z</time></trkpt><trkpt lat="42.617123" lon="-2.584928"><ele>831.5</ele><time>2011-11-30T11:35:34Z</time></trkpt><trkpt lat="42.617135" lon="-2.584933"><ele>831.5</ele><time>2011-11-30T11:35:35Z</time></trkpt><trkpt lat="42.617148" lon="-2.584933"><ele>831.0</ele><time>2011-11-30T11:35:36Z</time></trkpt><trkpt lat="42.617158" lon="-2.584937"><ele>831.0</ele><time>2011-11-30T11:35:37Z</time></trkpt><trkpt lat="42.617170" lon="-2.584942"><ele>831.0</ele><time>2011-11-30T11:35:38Z</time></trkpt><trkpt lat="42.617183" lon="-2.584945"><ele>831.0</ele><time>2011-11-30T11:35:39Z</time></trkpt><trkpt lat="42.617193" lon="-2.584947"><ele>830.5</ele><time>2011-11-30T11:35:40Z</time></trkpt><trkpt lat="42.617208" lon="-2.584948"><ele>831.0</ele><time>2011-11-30T11:35:41Z</time></trkpt><trkpt lat="42.617223" lon="-2.584952"><ele>831.0</ele><time>2011-11-30T11:35:42Z</time></trkpt><trkpt lat="42.617237" lon="-2.584955"><ele>831.0</ele><time>2011-11-30T11:35:43Z</time></trkpt><trkpt lat="42.617250" lon="-2.584958"><ele>831.0</ele><time>2011-11-30T11:35:44Z</time></trkpt><trkpt lat="42.617263" lon="-2.584965"><ele>831.0</ele><time>2011-11-30T11:35:45Z</time></trkpt><trkpt lat="42.617277" lon="-2.584968"><ele>831.0</ele><time>2011-11-30T11:35:46Z</time></trkpt><trkpt lat="42.617288" lon="-2.584970"><ele>830.5</ele><time>2011-11-30T11:35:47Z</time></trkpt><trkpt lat="42.617302" lon="-2.584973"><ele>830.5</ele><time>2011-11-30T11:35:48Z</time></trkpt><trkpt lat="42.617312" lon="-2.584977"><ele>830.0</ele><time>2011-11-30T11:35:49Z</time></trkpt><trkpt lat="42.617325" lon="-2.584980"><ele>830.0</ele><time>2011-11-30T11:35:50Z</time></trkpt><trkpt lat="42.617335" lon="-2.584982"><ele>830.0</ele><time>2011-11-30T11:35:51Z</time></trkpt><trkpt lat="42.617348" lon="-2.584985"><ele>830.0</ele><time>2011-11-30T11:35:52Z</time></trkpt><trkpt lat="42.617362" lon="-2.584987"><ele>830.0</ele><time>2011-11-30T11:35:53Z</time></trkpt><trkpt lat="42.617372" lon="-2.584987"><ele>829.5</ele><time>2011-11-30T11:35:54Z</time></trkpt><trkpt lat="42.617397" lon="-2.584992"><ele>829.5</ele><time>2011-11-30T11:35:56Z</time></trkpt><trkpt lat="42.617425" lon="-2.584993"><ele>829.0</ele><time>2011-11-30T11:35:58Z</time></trkpt><trkpt lat="42.617452" lon="-2.584997"><ele>828.5</ele><time>2011-11-30T11:36:00Z</time></trkpt><trkpt lat="42.617475" lon="-2.585002"><ele>828.5</ele><time>2011-11-30T11:36:02Z</time></trkpt><trkpt lat="42.617490" lon="-2.585005"><ele>828.5</ele><time>2011-11-30T11:36:03Z</time></trkpt><trkpt lat="42.617503" lon="-2.585010"><ele>828.5</ele><time>2011-11-30T11:36:04Z</time></trkpt><trkpt lat="42.617515" lon="-2.585012"><ele>828.5</ele><time>2011-11-30T11:36:05Z</time></trkpt><trkpt lat="42.617528" lon="-2.585012"><ele>828.5</ele><time>2011-11-30T11:36:06Z</time></trkpt><trkpt lat="42.617542" lon="-2.585017"><ele>828.5</ele><time>2011-11-30T11:36:07Z</time></trkpt><trkpt lat="42.617553" lon="-2.585020"><ele>828.0</ele><time>2011-11-30T11:36:08Z</time></trkpt><trkpt lat="42.617563" lon="-2.585020"><ele>828.0</ele><time>2011-11-30T11:36:09Z</time></trkpt><trkpt lat="42.617580" lon="-2.585022"><ele>828.0</ele><time>2011-11-30T11:36:10Z</time></trkpt><trkpt lat="42.617597" lon="-2.585025"><ele>828.0</ele><time>2011-11-30T11:36:11Z</time></trkpt><trkpt lat="42.617610" lon="-2.585028"><ele>828.0</ele><time>2011-11-30T11:36:12Z</time></trkpt><trkpt lat="42.617625" lon="-2.585032"><ele>828.5</ele><time>2011-11-30T11:36:13Z</time></trkpt><trkpt lat="42.617638" lon="-2.585032"><ele>828.0</ele><time>2011-11-30T11:36:14Z</time></trkpt><trkpt lat="42.617652" lon="-2.585033"><ele>828.0</ele><time>2011-11-30T11:36:15Z</time></trkpt><trkpt lat="42.617668" lon="-2.585038"><ele>828.5</ele><time>2011-11-30T11:36:16Z</time></trkpt><trkpt lat="42.617683" lon="-2.585042"><ele>828.5</ele><time>2011-11-30T11:36:17Z</time></trkpt><trkpt lat="42.617698" lon="-2.585043"><ele>828.5</ele><time>2011-11-30T11:36:18Z</time></trkpt><trkpt lat="42.617715" lon="-2.585047"><ele>828.5</ele><time>2011-11-30T11:36:19Z</time></trkpt><trkpt lat="42.617730" lon="-2.585048"><ele>828.5</ele><time>2011-11-30T11:36:20Z</time></trkpt><trkpt lat="42.617743" lon="-2.585050"><ele>828.5</ele><time>2011-11-30T11:36:21Z</time></trkpt><trkpt lat="42.617757" lon="-2.585048"><ele>828.5</ele><time>2011-11-30T11:36:22Z</time></trkpt><trkpt lat="42.617772" lon="-2.585047"><ele>828.5</ele><time>2011-11-30T11:36:23Z</time></trkpt><trkpt lat="42.617785" lon="-2.585042"><ele>828.5</ele><time>2011-11-30T11:36:24Z</time></trkpt><trkpt lat="42.617797" lon="-2.585040"><ele>828.5</ele><time>2011-11-30T11:36:25Z</time></trkpt><trkpt lat="42.617813" lon="-2.585040"><ele>829.0</ele><time>2011-11-30T11:36:26Z</time></trkpt><trkpt lat="42.617825" lon="-2.585040"><ele>829.0</ele><time>2011-11-30T11:36:27Z</time></trkpt><trkpt lat="42.617838" lon="-2.585038"><ele>828.5</ele><time>2011-11-30T11:36:28Z</time></trkpt><trkpt lat="42.617852" lon="-2.585035"><ele>828.5</ele><time>2011-11-30T11:36:29Z</time></trkpt><trkpt lat="42.617862" lon="-2.585032"><ele>828.0</ele><time>2011-11-30T11:36:30Z</time></trkpt><trkpt lat="42.617887" lon="-2.585025"><ele>827.5</ele><time>2011-11-30T11:36:32Z</time></trkpt><trkpt lat="42.617900" lon="-2.585022"><ele>827.5</ele><time>2011-11-30T11:36:33Z</time></trkpt><trkpt lat="42.617912" lon="-2.585022"><ele>827.5</ele><time>2011-11-30T11:36:34Z</time></trkpt><trkpt lat="42.617925" lon="-2.585022"><ele>827.0</ele><time>2011-11-30T11:36:35Z</time></trkpt><trkpt lat="42.617937" lon="-2.585018"><ele>827.0</ele><time>2011-11-30T11:36:36Z</time></trkpt><trkpt lat="42.617947" lon="-2.585013"><ele>827.0</ele><time>2011-11-30T11:36:37Z</time></trkpt><trkpt lat="42.617960" lon="-2.585012"><ele>826.5</ele><time>2011-11-30T11:36:38Z</time></trkpt><trkpt lat="42.617973" lon="-2.585012"><ele>826.5</ele><time>2011-11-30T11:36:39Z</time></trkpt><trkpt lat="42.617988" lon="-2.585010"><ele>826.5</ele><time>2011-11-30T11:36:40Z</time></trkpt><trkpt lat="42.618002" lon="-2.585010"><ele>826.5</ele><time>2011-11-30T11:36:41Z</time></trkpt><trkpt lat="42.618015" lon="-2.585007"><ele>826.5</ele><time>2011-11-30T11:36:42Z</time></trkpt><trkpt lat="42.618030" lon="-2.585005"><ele>826.5</ele><time>2011-11-30T11:36:43Z</time></trkpt><trkpt lat="42.618043" lon="-2.585003"><ele>826.5</ele><time>2011-11-30T11:36:44Z</time></trkpt><trkpt lat="42.618062" lon="-2.585003"><ele>826.5</ele><time>2011-11-30T11:36:45Z</time></trkpt><trkpt lat="42.618077" lon="-2.585003"><ele>826.5</ele><time>2011-11-30T11:36:46Z</time></trkpt><trkpt lat="42.618088" lon="-2.585000"><ele>826.5</ele><time>2011-11-30T11:36:47Z</time></trkpt><trkpt lat="42.618102" lon="-2.585000"><ele>826.5</ele><time>2011-11-30T11:36:48Z</time></trkpt><trkpt lat="42.618113" lon="-2.584998"><ele>826.0</ele><time>2011-11-30T11:36:49Z</time></trkpt><trkpt lat="42.618123" lon="-2.584995"><ele>826.0</ele><time>2011-11-30T11:36:50Z</time></trkpt><trkpt lat="42.618140" lon="-2.584995"><ele>826.0</ele><time>2011-11-30T11:36:51Z</time></trkpt><trkpt lat="42.618155" lon="-2.584993"><ele>826.0</ele><time>2011-11-30T11:36:52Z</time></trkpt><trkpt lat="42.618170" lon="-2.584993"><ele>826.0</ele><time>2011-11-30T11:36:53Z</time></trkpt><trkpt lat="42.618183" lon="-2.584993"><ele>826.0</ele><time>2011-11-30T11:36:54Z</time></trkpt><trkpt lat="42.618197" lon="-2.584993"><ele>825.5</ele><time>2011-11-30T11:36:55Z</time></trkpt><trkpt lat="42.618208" lon="-2.584992"><ele>825.5</ele><time>2011-11-30T11:36:56Z</time></trkpt><trkpt lat="42.618218" lon="-2.584990"><ele>825.0</ele><time>2011-11-30T11:36:57Z</time></trkpt><trkpt lat="42.618232" lon="-2.584990"><ele>825.0</ele><time>2011-11-30T11:36:58Z</time></trkpt><trkpt lat="42.618245" lon="-2.584990"><ele>825.0</ele><time>2011-11-30T11:36:59Z</time></trkpt><trkpt lat="42.618257" lon="-2.584988"><ele>825.0</ele><time>2011-11-30T11:37:00Z</time></trkpt><trkpt lat="42.618270" lon="-2.584987"><ele>824.5</ele><time>2011-11-30T11:37:01Z</time></trkpt><trkpt lat="42.618282" lon="-2.584985"><ele>824.5</ele><time>2011-11-30T11:37:02Z</time></trkpt><trkpt lat="42.618297" lon="-2.584985"><ele>824.5</ele><time>2011-11-30T11:37:03Z</time></trkpt><trkpt lat="42.618307" lon="-2.584982"><ele>824.5</ele><time>2011-11-30T11:37:04Z</time></trkpt><trkpt lat="42.618315" lon="-2.584978"><ele>824.0</ele><time>2011-11-30T11:37:05Z</time></trkpt><trkpt lat="42.618327" lon="-2.584975"><ele>824.0</ele><time>2011-11-30T11:37:06Z</time></trkpt><trkpt lat="42.618338" lon="-2.584975"><ele>824.0</ele><time>2011-11-30T11:37:07Z</time></trkpt><trkpt lat="42.618352" lon="-2.584973"><ele>823.5</ele><time>2011-11-30T11:37:08Z</time></trkpt><trkpt lat="42.618367" lon="-2.584973"><ele>823.5</ele><time>2011-11-30T11:37:09Z</time></trkpt><trkpt lat="42.618380" lon="-2.584972"><ele>823.5</ele><time>2011-11-30T11:37:10Z</time></trkpt><trkpt lat="42.618393" lon="-2.584968"><ele>823.0</ele><time>2011-11-30T11:37:11Z</time></trkpt><trkpt lat="42.618405" lon="-2.584967"><ele>823.0</ele><time>2011-11-30T11:37:12Z</time></trkpt><trkpt lat="42.618417" lon="-2.584965"><ele>823.0</ele><time>2011-11-30T11:37:13Z</time></trkpt><trkpt lat="42.618430" lon="-2.584962"><ele>822.5</ele><time>2011-11-30T11:37:14Z</time></trkpt><trkpt lat="42.618442" lon="-2.584960"><ele>822.5</ele><time>2011-11-30T11:37:15Z</time></trkpt><trkpt lat="42.618452" lon="-2.584958"><ele>822.0</ele><time>2011-11-30T11:37:16Z</time></trkpt><trkpt lat="42.618463" lon="-2.584957"><ele>822.0</ele><time>2011-11-30T11:37:17Z</time></trkpt><trkpt lat="42.618475" lon="-2.584955"><ele>821.5</ele><time>2011-11-30T11:37:18Z</time></trkpt><trkpt lat="42.618487" lon="-2.584952"><ele>821.0</ele><time>2011-11-30T11:37:19Z</time></trkpt><trkpt lat="42.618513" lon="-2.584950"><ele>821.0</ele><time>2011-11-30T11:37:21Z</time></trkpt><trkpt lat="42.618525" lon="-2.584948"><ele>820.5</ele><time>2011-11-30T11:37:22Z</time></trkpt><trkpt lat="42.618537" lon="-2.584947"><ele>820.5</ele><time>2011-11-30T11:37:23Z</time></trkpt><trkpt lat="42.618550" lon="-2.584947"><ele>820.5</ele><time>2011-11-30T11:37:24Z</time></trkpt><trkpt lat="42.618563" lon="-2.584945"><ele>820.0</ele><time>2011-11-30T11:37:25Z</time></trkpt><trkpt lat="42.618577" lon="-2.584942"><ele>820.0</ele><time>2011-11-30T11:37:26Z</time></trkpt><trkpt lat="42.618592" lon="-2.584940"><ele>820.0</ele><time>2011-11-30T11:37:27Z</time></trkpt><trkpt lat="42.618605" lon="-2.584940"><ele>820.0</ele><time>2011-11-30T11:37:28Z</time></trkpt><trkpt lat="42.618615" lon="-2.584938"><ele>819.5</ele><time>2011-11-30T11:37:29Z</time></trkpt><trkpt lat="42.618628" lon="-2.584937"><ele>819.0</ele><time>2011-11-30T11:37:30Z</time></trkpt><trkpt lat="42.618642" lon="-2.584935"><ele>819.0</ele><time>2011-11-30T11:37:31Z</time></trkpt><trkpt lat="42.618655" lon="-2.584933"><ele>819.0</ele><time>2011-11-30T11:37:32Z</time></trkpt><trkpt lat="42.618667" lon="-2.584932"><ele>819.0</ele><time>2011-11-30T11:37:33Z</time></trkpt><trkpt lat="42.618680" lon="-2.584932"><ele>818.5</ele><time>2011-11-30T11:37:34Z</time></trkpt><trkpt lat="42.618697" lon="-2.584930"><ele>818.5</ele><time>2011-11-30T11:37:35Z</time></trkpt><trkpt lat="42.618710" lon="-2.584928"><ele>818.5</ele><time>2011-11-30T11:37:36Z</time></trkpt><trkpt lat="42.618723" lon="-2.584927"><ele>818.5</ele><time>2011-11-30T11:37:37Z</time></trkpt><trkpt lat="42.618737" lon="-2.584925"><ele>818.5</ele><time>2011-11-30T11:37:38Z</time></trkpt><trkpt lat="42.618750" lon="-2.584923"><ele>818.5</ele><time>2011-11-30T11:37:39Z</time></trkpt><trkpt lat="42.618763" lon="-2.584923"><ele>818.5</ele><time>2011-11-30T11:37:40Z</time></trkpt><trkpt lat="42.618777" lon="-2.584920"><ele>818.0</ele><time>2011-11-30T11:37:41Z</time></trkpt><trkpt lat="42.618793" lon="-2.584920"><ele>818.0</ele><time>2011-11-30T11:37:42Z</time></trkpt><trkpt lat="42.618808" lon="-2.584918"><ele>818.0</ele><time>2011-11-30T11:37:43Z</time></trkpt><trkpt lat="42.618823" lon="-2.584917"><ele>818.0</ele><time>2011-11-30T11:37:44Z</time></trkpt><trkpt lat="42.618840" lon="-2.584917"><ele>818.5</ele><time>2011-11-30T11:37:45Z</time></trkpt><trkpt lat="42.618857" lon="-2.584917"><ele>818.5</ele><time>2011-11-30T11:37:46Z</time></trkpt><trkpt lat="42.618872" lon="-2.584915"><ele>818.5</ele><time>2011-11-30T11:37:47Z</time></trkpt><trkpt lat="42.618887" lon="-2.584913"><ele>818.5</ele><time>2011-11-30T11:37:48Z</time></trkpt><trkpt lat="42.618903" lon="-2.584913"><ele>819.0</ele><time>2011-11-30T11:37:49Z</time></trkpt><trkpt lat="42.618922" lon="-2.584912"><ele>819.0</ele><time>2011-11-30T11:37:50Z</time></trkpt><trkpt lat="42.618942" lon="-2.584913"><ele>819.5</ele><time>2011-11-30T11:37:51Z</time></trkpt><trkpt lat="42.618955" lon="-2.584912"><ele>819.5</ele><time>2011-11-30T11:37:52Z</time></trkpt><trkpt lat="42.618972" lon="-2.584913"><ele>819.5</ele><time>2011-11-30T11:37:53Z</time></trkpt><trkpt lat="42.618990" lon="-2.584912"><ele>820.0</ele><time>2011-11-30T11:37:54Z</time></trkpt><trkpt lat="42.619008" lon="-2.584912"><ele>820.0</ele><time>2011-11-30T11:37:55Z</time></trkpt><trkpt lat="42.619022" lon="-2.584908"><ele>820.0</ele><time>2011-11-30T11:37:56Z</time></trkpt><trkpt lat="42.619037" lon="-2.584908"><ele>820.5</ele><time>2011-11-30T11:37:57Z</time></trkpt><trkpt lat="42.619053" lon="-2.584907"><ele>820.5</ele><time>2011-11-30T11:37:58Z</time></trkpt><trkpt lat="42.619065" lon="-2.584905"><ele>820.5</ele><time>2011-11-30T11:37:59Z</time></trkpt><trkpt lat="42.619080" lon="-2.584905"><ele>821.0</ele><time>2011-11-30T11:38:00Z</time></trkpt><trkpt lat="42.619093" lon="-2.584905"><ele>821.0</ele><time>2011-11-30T11:38:01Z</time></trkpt><trkpt lat="42.619105" lon="-2.584905"><ele>821.0</ele><time>2011-11-30T11:38:02Z</time></trkpt><trkpt lat="42.619118" lon="-2.584903"><ele>821.0</ele><time>2011-11-30T11:38:03Z</time></trkpt><trkpt lat="42.619132" lon="-2.584902"><ele>821.0</ele><time>2011-11-30T11:38:04Z</time></trkpt><trkpt lat="42.619147" lon="-2.584900"><ele>821.0</ele><time>2011-11-30T11:38:05Z</time></trkpt><trkpt lat="42.619158" lon="-2.584898"><ele>821.0</ele><time>2011-11-30T11:38:06Z</time></trkpt><trkpt lat="42.619170" lon="-2.584895"><ele>820.5</ele><time>2011-11-30T11:38:07Z</time></trkpt><trkpt lat="42.619183" lon="-2.584893"><ele>821.0</ele><time>2011-11-30T11:38:08Z</time></trkpt><trkpt lat="42.619195" lon="-2.584893"><ele>821.0</ele><time>2011-11-30T11:38:09Z</time></trkpt><trkpt lat="42.619203" lon="-2.584890"><ele>820.5</ele><time>2011-11-30T11:38:10Z</time></trkpt><trkpt lat="42.619215" lon="-2.584887"><ele>820.5</ele><time>2011-11-30T11:38:11Z</time></trkpt><trkpt lat="42.619230" lon="-2.584885"><ele>820.5</ele><time>2011-11-30T11:38:12Z</time></trkpt><trkpt lat="42.619243" lon="-2.584883"><ele>820.5</ele><time>2011-11-30T11:38:13Z</time></trkpt><trkpt lat="42.619252" lon="-2.584880"><ele>820.0</ele><time>2011-11-30T11:38:14Z</time></trkpt><trkpt lat="42.619265" lon="-2.584877"><ele>820.0</ele><time>2011-11-30T11:38:15Z</time></trkpt><trkpt lat="42.619277" lon="-2.584877"><ele>820.0</ele><time>2011-11-30T11:38:16Z</time></trkpt><trkpt lat="42.619290" lon="-2.584877"><ele>820.0</ele><time>2011-11-30T11:38:17Z</time></trkpt><trkpt lat="42.619303" lon="-2.584877"><ele>820.0</ele><time>2011-11-30T11:38:18Z</time></trkpt><trkpt lat="42.619318" lon="-2.584875"><ele>820.0</ele><time>2011-11-30T11:38:19Z</time></trkpt><trkpt lat="42.619330" lon="-2.584873"><ele>820.0</ele><time>2011-11-30T11:38:20Z</time></trkpt><trkpt lat="42.619343" lon="-2.584873"><ele>820.0</ele><time>2011-11-30T11:38:21Z</time></trkpt><trkpt lat="42.619357" lon="-2.584872"><ele>819.5</ele><time>2011-11-30T11:38:22Z</time></trkpt><trkpt lat="42.619368" lon="-2.584870"><ele>819.5</ele><time>2011-11-30T11:38:23Z</time></trkpt><trkpt lat="42.619380" lon="-2.584868"><ele>819.5</ele><time>2011-11-30T11:38:24Z</time></trkpt><trkpt lat="42.619392" lon="-2.584868"><ele>819.5</ele><time>2011-11-30T11:38:25Z</time></trkpt><trkpt lat="42.619402" lon="-2.584865"><ele>819.0</ele><time>2011-11-30T11:38:26Z</time></trkpt><trkpt lat="42.619413" lon="-2.584863"><ele>819.0</ele><time>2011-11-30T11:38:27Z</time></trkpt><trkpt lat="42.619428" lon="-2.584862"><ele>819.0</ele><time>2011-11-30T11:38:28Z</time></trkpt><trkpt lat="42.619442" lon="-2.584860"><ele>818.5</ele><time>2011-11-30T11:38:29Z</time></trkpt><trkpt lat="42.619453" lon="-2.584860"><ele>818.5</ele><time>2011-11-30T11:38:30Z</time></trkpt><trkpt lat="42.619468" lon="-2.584857"><ele>818.5</ele><time>2011-11-30T11:38:31Z</time></trkpt><trkpt lat="42.619482" lon="-2.584857"><ele>818.5</ele><time>2011-11-30T11:38:32Z</time></trkpt><trkpt lat="42.619493" lon="-2.584855"><ele>818.5</ele><time>2011-11-30T11:38:33Z</time></trkpt><trkpt lat="42.619505" lon="-2.584853"><ele>818.0</ele><time>2011-11-30T11:38:34Z</time></trkpt><trkpt lat="42.619510" lon="-2.584850"><ele>817.5</ele><time>2011-11-30T11:38:35Z</time></trkpt><trkpt lat="42.619517" lon="-2.584847"><ele>817.5</ele><time>2011-11-30T11:38:36Z</time></trkpt><trkpt lat="42.619525" lon="-2.584845"><ele>817.0</ele><time>2011-11-30T11:38:37Z</time></trkpt><trkpt lat="42.619535" lon="-2.584842"><ele>816.5</ele><time>2011-11-30T11:38:38Z</time></trkpt><trkpt lat="42.619547" lon="-2.584840"><ele>816.5</ele><time>2011-11-30T11:38:39Z</time></trkpt><trkpt lat="42.619558" lon="-2.584837"><ele>816.5</ele><time>2011-11-30T11:38:40Z</time></trkpt><trkpt lat="42.619572" lon="-2.584837"><ele>816.5</ele><time>2011-11-30T11:38:41Z</time></trkpt><trkpt lat="42.619585" lon="-2.584833"><ele>816.5</ele><time>2011-11-30T11:38:42Z</time></trkpt><trkpt lat="42.619595" lon="-2.584835"><ele>816.5</ele><time>2011-11-30T11:38:43Z</time></trkpt><trkpt lat="42.619610" lon="-2.584835"><ele>816.5</ele><time>2011-11-30T11:38:44Z</time></trkpt><trkpt lat="42.619625" lon="-2.584837"><ele>816.5</ele><time>2011-11-30T11:38:45Z</time></trkpt><trkpt lat="42.619637" lon="-2.584835"><ele>816.5</ele><time>2011-11-30T11:38:46Z</time></trkpt><trkpt lat="42.619652" lon="-2.584837"><ele>816.5</ele><time>2011-11-30T11:38:47Z</time></trkpt><trkpt lat="42.619663" lon="-2.584833"><ele>816.5</ele><time>2011-11-30T11:38:48Z</time></trkpt><trkpt lat="42.619677" lon="-2.584830"><ele>816.0</ele><time>2011-11-30T11:38:49Z</time></trkpt><trkpt lat="42.619688" lon="-2.584828"><ele>816.0</ele><time>2011-11-30T11:38:50Z</time></trkpt><trkpt lat="42.619702" lon="-2.584828"><ele>816.0</ele><time>2011-11-30T11:38:51Z</time></trkpt><trkpt lat="42.619713" lon="-2.584825"><ele>816.0</ele><time>2011-11-30T11:38:52Z</time></trkpt><trkpt lat="42.619727" lon="-2.584823"><ele>816.0</ele><time>2011-11-30T11:38:53Z</time></trkpt><trkpt lat="42.619737" lon="-2.584820"><ele>816.0</ele><time>2011-11-30T11:38:54Z</time></trkpt><trkpt lat="42.619755" lon="-2.584820"><ele>816.5</ele><time>2011-11-30T11:38:55Z</time></trkpt><trkpt lat="42.619767" lon="-2.584818"><ele>816.0</ele><time>2011-11-30T11:38:56Z</time></trkpt><trkpt lat="42.619780" lon="-2.584818"><ele>816.0</ele><time>2011-11-30T11:38:57Z</time></trkpt><trkpt lat="42.619792" lon="-2.584815"><ele>816.5</ele><time>2011-11-30T11:38:58Z</time></trkpt><trkpt lat="42.619803" lon="-2.584812"><ele>816.0</ele><time>2011-11-30T11:38:59Z</time></trkpt><trkpt lat="42.619815" lon="-2.584810"><ele>816.0</ele><time>2011-11-30T11:39:00Z</time></trkpt><trkpt lat="42.619828" lon="-2.584808"><ele>816.0</ele><time>2011-11-30T11:39:01Z</time></trkpt><trkpt lat="42.619840" lon="-2.584808"><ele>816.0</ele><time>2011-11-30T11:39:02Z</time></trkpt><trkpt lat="42.619852" lon="-2.584807"><ele>816.0</ele><time>2011-11-30T11:39:03Z</time></trkpt><trkpt lat="42.619863" lon="-2.584807"><ele>815.5</ele><time>2011-11-30T11:39:04Z</time></trkpt><trkpt lat="42.619875" lon="-2.584805"><ele>815.5</ele><time>2011-11-30T11:39:05Z</time></trkpt><trkpt lat="42.619885" lon="-2.584803"><ele>815.5</ele><time>2011-11-30T11:39:06Z</time></trkpt><trkpt lat="42.619897" lon="-2.584803"><ele>815.5</ele><time>2011-11-30T11:39:07Z</time></trkpt><trkpt lat="42.619908" lon="-2.584803"><ele>815.0</ele><time>2011-11-30T11:39:08Z</time></trkpt><trkpt lat="42.619918" lon="-2.584802"><ele>815.0</ele><time>2011-11-30T11:39:09Z</time></trkpt><trkpt lat="42.619930" lon="-2.584800"><ele>815.0</ele><time>2011-11-30T11:39:10Z</time></trkpt><trkpt lat="42.619942" lon="-2.584802"><ele>815.0</ele><time>2011-11-30T11:39:11Z</time></trkpt><trkpt lat="42.619953" lon="-2.584800"><ele>814.5</ele><time>2011-11-30T11:39:12Z</time></trkpt><trkpt lat="42.619962" lon="-2.584798"><ele>814.0</ele><time>2011-11-30T11:39:13Z</time></trkpt><trkpt lat="42.619973" lon="-2.584798"><ele>814.0</ele><time>2011-11-30T11:39:14Z</time></trkpt><trkpt lat="42.619987" lon="-2.584797"><ele>813.5</ele><time>2011-11-30T11:39:15Z</time></trkpt><trkpt lat="42.620002" lon="-2.584797"><ele>813.5</ele><time>2011-11-30T11:39:16Z</time></trkpt><trkpt lat="42.620015" lon="-2.584793"><ele>813.5</ele><time>2011-11-30T11:39:17Z</time></trkpt><trkpt lat="42.620028" lon="-2.584795"><ele>814.0</ele><time>2011-11-30T11:39:18Z</time></trkpt><trkpt lat="42.620042" lon="-2.584793"><ele>814.0</ele><time>2011-11-30T11:39:19Z</time></trkpt><trkpt lat="42.620057" lon="-2.584793"><ele>814.0</ele><time>2011-11-30T11:39:20Z</time></trkpt><trkpt lat="42.620073" lon="-2.584795"><ele>814.5</ele><time>2011-11-30T11:39:21Z</time></trkpt><trkpt lat="42.620087" lon="-2.584795"><ele>814.5</ele><time>2011-11-30T11:39:22Z</time></trkpt><trkpt lat="42.620100" lon="-2.584793"><ele>814.5</ele><time>2011-11-30T11:39:23Z</time></trkpt><trkpt lat="42.620112" lon="-2.584792"><ele>814.5</ele><time>2011-11-30T11:39:24Z</time></trkpt><trkpt lat="42.620125" lon="-2.584792"><ele>814.0</ele><time>2011-11-30T11:39:25Z</time></trkpt><trkpt lat="42.620140" lon="-2.584792"><ele>814.0</ele><time>2011-11-30T11:39:26Z</time></trkpt><trkpt lat="42.620152" lon="-2.584792"><ele>814.0</ele><time>2011-11-30T11:39:27Z</time></trkpt><trkpt lat="42.620167" lon="-2.584790"><ele>814.0</ele><time>2011-11-30T11:39:28Z</time></trkpt><trkpt lat="42.620182" lon="-2.584788"><ele>814.0</ele><time>2011-11-30T11:39:29Z</time></trkpt><trkpt lat="42.620195" lon="-2.584787"><ele>814.0</ele><time>2011-11-30T11:39:30Z</time></trkpt><trkpt lat="42.620208" lon="-2.584785"><ele>814.0</ele><time>2011-11-30T11:39:31Z</time></trkpt><trkpt lat="42.620220" lon="-2.584782"><ele>814.0</ele><time>2011-11-30T11:39:32Z</time></trkpt><trkpt lat="42.620233" lon="-2.584782"><ele>814.0</ele><time>2011-11-30T11:39:33Z</time></trkpt><trkpt lat="42.620247" lon="-2.584780"><ele>814.0</ele><time>2011-11-30T11:39:34Z</time></trkpt><trkpt lat="42.620258" lon="-2.584777"><ele>813.5</ele><time>2011-11-30T11:39:35Z</time></trkpt><trkpt lat="42.620273" lon="-2.584775"><ele>814.0</ele><time>2011-11-30T11:39:36Z</time></trkpt><trkpt lat="42.620287" lon="-2.584775"><ele>814.0</ele><time>2011-11-30T11:39:37Z</time></trkpt><trkpt lat="42.620300" lon="-2.584772"><ele>814.0</ele><time>2011-11-30T11:39:38Z</time></trkpt><trkpt lat="42.620313" lon="-2.584772"><ele>814.0</ele><time>2011-11-30T11:39:39Z</time></trkpt><trkpt lat="42.620328" lon="-2.584773"><ele>814.5</ele><time>2011-11-30T11:39:40Z</time></trkpt><trkpt lat="42.620340" lon="-2.584772"><ele>814.0</ele><time>2011-11-30T11:39:41Z</time></trkpt><trkpt lat="42.620355" lon="-2.584772"><ele>814.0</ele><time>2011-11-30T11:39:42Z</time></trkpt><trkpt lat="42.620368" lon="-2.584772"><ele>814.0</ele><time>2011-11-30T11:39:43Z</time></trkpt><trkpt lat="42.620385" lon="-2.584770"><ele>814.0</ele><time>2011-11-30T11:39:44Z</time></trkpt><trkpt lat="42.620398" lon="-2.584768"><ele>814.0</ele><time>2011-11-30T11:39:45Z</time></trkpt><trkpt lat="42.620410" lon="-2.584767"><ele>814.0</ele><time>2011-11-30T11:39:46Z</time></trkpt><trkpt lat="42.620423" lon="-2.584767"><ele>814.0</ele><time>2011-11-30T11:39:47Z</time></trkpt><trkpt lat="42.620437" lon="-2.584763"><ele>813.5</ele><time>2011-11-30T11:39:48Z</time></trkpt><trkpt lat="42.620452" lon="-2.584763"><ele>813.5</ele><time>2011-11-30T11:39:49Z</time></trkpt><trkpt lat="42.620470" lon="-2.584765"><ele>814.0</ele><time>2011-11-30T11:39:50Z</time></trkpt><trkpt lat="42.620485" lon="-2.584762"><ele>814.5</ele><time>2011-11-30T11:39:51Z</time></trkpt><trkpt lat="42.620498" lon="-2.584758"><ele>814.0</ele><time>2011-11-30T11:39:52Z</time></trkpt><trkpt lat="42.620515" lon="-2.584760"><ele>814.5</ele><time>2011-11-30T11:39:53Z</time></trkpt><trkpt lat="42.620530" lon="-2.584757"><ele>814.5</ele><time>2011-11-30T11:39:54Z</time></trkpt><trkpt lat="42.620545" lon="-2.584753"><ele>814.0</ele><time>2011-11-30T11:39:55Z</time></trkpt><trkpt lat="42.620555" lon="-2.584752"><ele>814.0</ele><time>2011-11-30T11:39:56Z</time></trkpt><trkpt lat="42.620568" lon="-2.584750"><ele>813.5</ele><time>2011-11-30T11:39:57Z</time></trkpt><trkpt lat="42.620583" lon="-2.584750"><ele>813.5</ele><time>2011-11-30T11:39:58Z</time></trkpt><trkpt lat="42.620598" lon="-2.584748"><ele>814.0</ele><time>2011-11-30T11:39:59Z</time></trkpt><trkpt lat="42.620612" lon="-2.584747"><ele>814.0</ele><time>2011-11-30T11:40:00Z</time></trkpt><trkpt lat="42.620627" lon="-2.584745"><ele>814.0</ele><time>2011-11-30T11:40:01Z</time></trkpt><trkpt lat="42.620640" lon="-2.584742"><ele>814.0</ele><time>2011-11-30T11:40:02Z</time></trkpt><trkpt lat="42.620652" lon="-2.584738"><ele>813.5</ele><time>2011-11-30T11:40:03Z</time></trkpt><trkpt lat="42.620667" lon="-2.584735"><ele>813.5</ele><time>2011-11-30T11:40:04Z</time></trkpt><trkpt lat="42.620677" lon="-2.584733"><ele>813.5</ele><time>2011-11-30T11:40:05Z</time></trkpt><trkpt lat="42.620690" lon="-2.584732"><ele>813.0</ele><time>2011-11-30T11:40:06Z</time></trkpt><trkpt lat="42.620703" lon="-2.584730"><ele>813.0</ele><time>2011-11-30T11:40:07Z</time></trkpt><trkpt lat="42.620717" lon="-2.584728"><ele>813.0</ele><time>2011-11-30T11:40:08Z</time></trkpt><trkpt lat="42.620728" lon="-2.584725"><ele>812.5</ele><time>2011-11-30T11:40:09Z</time></trkpt><trkpt lat="42.620742" lon="-2.584722"><ele>812.5</ele><time>2011-11-30T11:40:10Z</time></trkpt><trkpt lat="42.620752" lon="-2.584718"><ele>812.0</ele><time>2011-11-30T11:40:11Z</time></trkpt><trkpt lat="42.620763" lon="-2.584713"><ele>811.5</ele><time>2011-11-30T11:40:12Z</time></trkpt><trkpt lat="42.620777" lon="-2.584713"><ele>811.5</ele><time>2011-11-30T11:40:13Z</time></trkpt><trkpt lat="42.620790" lon="-2.584712"><ele>811.5</ele><time>2011-11-30T11:40:14Z</time></trkpt><trkpt lat="42.620805" lon="-2.584710"><ele>811.5</ele><time>2011-11-30T11:40:15Z</time></trkpt><trkpt lat="42.620818" lon="-2.584708"><ele>811.5</ele><time>2011-11-30T11:40:16Z</time></trkpt><trkpt lat="42.620832" lon="-2.584707"><ele>811.0</ele><time>2011-11-30T11:40:17Z</time></trkpt><trkpt lat="42.620845" lon="-2.584703"><ele>811.0</ele><time>2011-11-30T11:40:18Z</time></trkpt><trkpt lat="42.620858" lon="-2.584703"><ele>811.5</ele><time>2011-11-30T11:40:19Z</time></trkpt><trkpt lat="42.620872" lon="-2.584703"><ele>811.0</ele><time>2011-11-30T11:40:20Z</time></trkpt><trkpt lat="42.620883" lon="-2.584702"><ele>811.0</ele><time>2011-11-30T11:40:21Z</time></trkpt><trkpt lat="42.620897" lon="-2.584700"><ele>811.0</ele><time>2011-11-30T11:40:22Z</time></trkpt><trkpt lat="42.620910" lon="-2.584697"><ele>810.5</ele><time>2011-11-30T11:40:23Z</time></trkpt><trkpt lat="42.620920" lon="-2.584693"><ele>810.5</ele><time>2011-11-30T11:40:24Z</time></trkpt><trkpt lat="42.620933" lon="-2.584692"><ele>810.0</ele><time>2011-11-30T11:40:25Z</time></trkpt><trkpt lat="42.620945" lon="-2.584688"><ele>810.0</ele><time>2011-11-30T11:40:26Z</time></trkpt><trkpt lat="42.620958" lon="-2.584690"><ele>810.0</ele><time>2011-11-30T11:40:27Z</time></trkpt><trkpt lat="42.620972" lon="-2.584688"><ele>810.0</ele><time>2011-11-30T11:40:28Z</time></trkpt><trkpt lat="42.620982" lon="-2.584685"><ele>809.5</ele><time>2011-11-30T11:40:29Z</time></trkpt><trkpt lat="42.620995" lon="-2.584683"><ele>809.5</ele><time>2011-11-30T11:40:30Z</time></trkpt><trkpt lat="42.621005" lon="-2.584682"><ele>809.5</ele><time>2011-11-30T11:40:31Z</time></trkpt><trkpt lat="42.621017" lon="-2.584680"><ele>809.0</ele><time>2011-11-30T11:40:32Z</time></trkpt><trkpt lat="42.621028" lon="-2.584678"><ele>809.0</ele><time>2011-11-30T11:40:33Z</time></trkpt><trkpt lat="42.621040" lon="-2.584677"><ele>809.0</ele><time>2011-11-30T11:40:34Z</time></trkpt><trkpt lat="42.621052" lon="-2.584673"><ele>809.0</ele><time>2011-11-30T11:40:35Z</time></trkpt><trkpt lat="42.621063" lon="-2.584672"><ele>808.5</ele><time>2011-11-30T11:40:36Z</time></trkpt><trkpt lat="42.621077" lon="-2.584673"><ele>808.5</ele><time>2011-11-30T11:40:37Z</time></trkpt><trkpt lat="42.621088" lon="-2.584670"><ele>808.5</ele><time>2011-11-30T11:40:38Z</time></trkpt><trkpt lat="42.621100" lon="-2.584665"><ele>808.0</ele><time>2011-11-30T11:40:39Z</time></trkpt><trkpt lat="42.621112" lon="-2.584662"><ele>808.0</ele><time>2011-11-30T11:40:40Z</time></trkpt><trkpt lat="42.621122" lon="-2.584660"><ele>807.5</ele><time>2011-11-30T11:40:41Z</time></trkpt><trkpt lat="42.621133" lon="-2.584658"><ele>807.5</ele><time>2011-11-30T11:40:42Z</time></trkpt><trkpt lat="42.621143" lon="-2.584658"><ele>807.0</ele><time>2011-11-30T11:40:43Z</time></trkpt><trkpt lat="42.621153" lon="-2.584662"><ele>807.5</ele><time>2011-11-30T11:40:44Z</time></trkpt><trkpt lat="42.621170" lon="-2.584662"><ele>807.5</ele><time>2011-11-30T11:40:45Z</time></trkpt><trkpt lat="42.621187" lon="-2.584660"><ele>808.0</ele><time>2011-11-30T11:40:46Z</time></trkpt><trkpt lat="42.621203" lon="-2.584658"><ele>808.5</ele><time>2011-11-30T11:40:47Z</time></trkpt><trkpt lat="42.621217" lon="-2.584657"><ele>808.0</ele><time>2011-11-30T11:40:48Z</time></trkpt><trkpt lat="42.621228" lon="-2.584658"><ele>808.5</ele><time>2011-11-30T11:40:49Z</time></trkpt><trkpt lat="42.621242" lon="-2.584660"><ele>808.5</ele><time>2011-11-30T11:40:50Z</time></trkpt><trkpt lat="42.621253" lon="-2.584658"><ele>808.0</ele><time>2011-11-30T11:40:51Z</time></trkpt><trkpt lat="42.621263" lon="-2.584657"><ele>807.5</ele><time>2011-11-30T11:40:52Z</time></trkpt><trkpt lat="42.621273" lon="-2.584655"><ele>807.5</ele><time>2011-11-30T11:40:53Z</time></trkpt><trkpt lat="42.621287" lon="-2.584657"><ele>807.5</ele><time>2011-11-30T11:40:54Z</time></trkpt><trkpt lat="42.621298" lon="-2.584653"><ele>807.5</ele><time>2011-11-30T11:40:55Z</time></trkpt><trkpt lat="42.621310" lon="-2.584650"><ele>807.0</ele><time>2011-11-30T11:40:56Z</time></trkpt><trkpt lat="42.621322" lon="-2.584643"><ele>807.0</ele><time>2011-11-30T11:40:57Z</time></trkpt><trkpt lat="42.621332" lon="-2.584642"><ele>806.5</ele><time>2011-11-30T11:40:58Z</time></trkpt><trkpt lat="42.621345" lon="-2.584645"><ele>807.0</ele><time>2011-11-30T11:40:59Z</time></trkpt><trkpt lat="42.621360" lon="-2.584645"><ele>807.0</ele><time>2011-11-30T11:41:00Z</time></trkpt><trkpt lat="42.621373" lon="-2.584642"><ele>807.0</ele><time>2011-11-30T11:41:01Z</time></trkpt><trkpt lat="42.621387" lon="-2.584640"><ele>806.5</ele><time>2011-11-30T11:41:02Z</time></trkpt><trkpt lat="42.621400" lon="-2.584637"><ele>806.5</ele><time>2011-11-30T11:41:03Z</time></trkpt><trkpt lat="42.621412" lon="-2.584633"><ele>806.5</ele><time>2011-11-30T11:41:04Z</time></trkpt><trkpt lat="42.621425" lon="-2.584630"><ele>806.0</ele><time>2011-11-30T11:41:05Z</time></trkpt><trkpt lat="42.621438" lon="-2.584630"><ele>806.0</ele><time>2011-11-30T11:41:06Z</time></trkpt><trkpt lat="42.621452" lon="-2.584628"><ele>806.0</ele><time>2011-11-30T11:41:07Z</time></trkpt><trkpt lat="42.621463" lon="-2.584625"><ele>805.5</ele><time>2011-11-30T11:41:08Z</time></trkpt><trkpt lat="42.621475" lon="-2.584623"><ele>805.5</ele><time>2011-11-30T11:41:09Z</time></trkpt><trkpt lat="42.621488" lon="-2.584622"><ele>805.5</ele><time>2011-11-30T11:41:10Z</time></trkpt><trkpt lat="42.621498" lon="-2.584618"><ele>805.0</ele><time>2011-11-30T11:41:11Z</time></trkpt><trkpt lat="42.621508" lon="-2.584615"><ele>805.0</ele><time>2011-11-30T11:41:12Z</time></trkpt><trkpt lat="42.621518" lon="-2.584613"><ele>804.5</ele><time>2011-11-30T11:41:13Z</time></trkpt><trkpt lat="42.621532" lon="-2.584613"><ele>804.5</ele><time>2011-11-30T11:41:14Z</time></trkpt><trkpt lat="42.621543" lon="-2.584613"><ele>804.5</ele><time>2011-11-30T11:41:15Z</time></trkpt><trkpt lat="42.621555" lon="-2.584612"><ele>804.5</ele><time>2011-11-30T11:41:16Z</time></trkpt><trkpt lat="42.621567" lon="-2.584608"><ele>804.0</ele><time>2011-11-30T11:41:17Z</time></trkpt><trkpt lat="42.621578" lon="-2.584608"><ele>803.5</ele><time>2011-11-30T11:41:18Z</time></trkpt><trkpt lat="42.621590" lon="-2.584608"><ele>803.5</ele><time>2011-11-30T11:41:19Z</time></trkpt><trkpt lat="42.621600" lon="-2.584607"><ele>803.0</ele><time>2011-11-30T11:41:20Z</time></trkpt><trkpt lat="42.621610" lon="-2.584602"><ele>802.5</ele><time>2011-11-30T11:41:21Z</time></trkpt><trkpt lat="42.621620" lon="-2.584598"><ele>802.0</ele><time>2011-11-30T11:41:22Z</time></trkpt><trkpt lat="42.621632" lon="-2.584597"><ele>802.0</ele><time>2011-11-30T11:41:23Z</time></trkpt><trkpt lat="42.621643" lon="-2.584593"><ele>801.5</ele><time>2011-11-30T11:41:24Z</time></trkpt><trkpt lat="42.621653" lon="-2.584590"><ele>801.5</ele><time>2011-11-30T11:41:25Z</time></trkpt><trkpt lat="42.621662" lon="-2.584587"><ele>800.5</ele><time>2011-11-30T11:41:26Z</time></trkpt><trkpt lat="42.621672" lon="-2.584583"><ele>800.0</ele><time>2011-11-30T11:41:27Z</time></trkpt><trkpt lat="42.621683" lon="-2.584582"><ele>800.0</ele><time>2011-11-30T11:41:28Z</time></trkpt><trkpt lat="42.621697" lon="-2.584580"><ele>800.0</ele><time>2011-11-30T11:41:29Z</time></trkpt><trkpt lat="42.621708" lon="-2.584578"><ele>800.0</ele><time>2011-11-30T11:41:30Z</time></trkpt><trkpt lat="42.621722" lon="-2.584580"><ele>800.0</ele><time>2011-11-30T11:41:31Z</time></trkpt><trkpt lat="42.621737" lon="-2.584580"><ele>800.0</ele><time>2011-11-30T11:41:32Z</time></trkpt><trkpt lat="42.621747" lon="-2.584578"><ele>799.5</ele><time>2011-11-30T11:41:33Z</time></trkpt><trkpt lat="42.621757" lon="-2.584578"><ele>799.5</ele><time>2011-11-30T11:41:34Z</time></trkpt><trkpt lat="42.621768" lon="-2.584577"><ele>799.5</ele><time>2011-11-30T11:41:35Z</time></trkpt><trkpt lat="42.621782" lon="-2.584577"><ele>799.5</ele><time>2011-11-30T11:41:36Z</time></trkpt><trkpt lat="42.621793" lon="-2.584575"><ele>799.5</ele><time>2011-11-30T11:41:37Z</time></trkpt><trkpt lat="42.621807" lon="-2.584572"><ele>799.5</ele><time>2011-11-30T11:41:38Z</time></trkpt><trkpt lat="42.621820" lon="-2.584568"><ele>799.5</ele><time>2011-11-30T11:41:39Z</time></trkpt><trkpt lat="42.621833" lon="-2.584568"><ele>799.5</ele><time>2011-11-30T11:41:40Z</time></trkpt><trkpt lat="42.621848" lon="-2.584568"><ele>799.5</ele><time>2011-11-30T11:41:41Z</time></trkpt><trkpt lat="42.621860" lon="-2.584567"><ele>799.5</ele><time>2011-11-30T11:41:42Z</time></trkpt><trkpt lat="42.621875" lon="-2.584568"><ele>800.0</ele><time>2011-11-30T11:41:43Z</time></trkpt><trkpt lat="42.621888" lon="-2.584570"><ele>799.5</ele><time>2011-11-30T11:41:44Z</time></trkpt><trkpt lat="42.621900" lon="-2.584568"><ele>799.5</ele><time>2011-11-30T11:41:45Z</time></trkpt><trkpt lat="42.621910" lon="-2.584570"><ele>799.5</ele><time>2011-11-30T11:41:46Z</time></trkpt><trkpt lat="42.621920" lon="-2.584570"><ele>799.0</ele><time>2011-11-30T11:41:47Z</time></trkpt><trkpt lat="42.621930" lon="-2.584568"><ele>799.0</ele><time>2011-11-30T11:41:48Z</time></trkpt><trkpt lat="42.621942" lon="-2.584565"><ele>798.5</ele><time>2011-11-30T11:41:49Z</time></trkpt><trkpt lat="42.621958" lon="-2.584565"><ele>798.5</ele><time>2011-11-30T11:41:50Z</time></trkpt><trkpt lat="42.621968" lon="-2.584563"><ele>798.5</ele><time>2011-11-30T11:41:51Z</time></trkpt><trkpt lat="42.621980" lon="-2.584560"><ele>798.0</ele><time>2011-11-30T11:41:52Z</time></trkpt><trkpt lat="42.621993" lon="-2.584557"><ele>798.0</ele><time>2011-11-30T11:41:53Z</time></trkpt><trkpt lat="42.622008" lon="-2.584557"><ele>798.0</ele><time>2011-11-30T11:41:54Z</time></trkpt><trkpt lat="42.622023" lon="-2.584555"><ele>798.0</ele><time>2011-11-30T11:41:55Z</time></trkpt><trkpt lat="42.622037" lon="-2.584553"><ele>798.0</ele><time>2011-11-30T11:41:56Z</time></trkpt><trkpt lat="42.622050" lon="-2.584552"><ele>798.0</ele><time>2011-11-30T11:41:57Z</time></trkpt><trkpt lat="42.622062" lon="-2.584548"><ele>798.0</ele><time>2011-11-30T11:41:58Z</time></trkpt><trkpt lat="42.622073" lon="-2.584545"><ele>798.0</ele><time>2011-11-30T11:41:59Z</time></trkpt><trkpt lat="42.622085" lon="-2.584542"><ele>797.5</ele><time>2011-11-30T11:42:00Z</time></trkpt><trkpt lat="42.622098" lon="-2.584540"><ele>797.5</ele><time>2011-11-30T11:42:01Z</time></trkpt><trkpt lat="42.622110" lon="-2.584535"><ele>797.5</ele><time>2011-11-30T11:42:02Z</time></trkpt><trkpt lat="42.622123" lon="-2.584532"><ele>797.5</ele><time>2011-11-30T11:42:03Z</time></trkpt><trkpt lat="42.622137" lon="-2.584527"><ele>797.5</ele><time>2011-11-30T11:42:04Z</time></trkpt><trkpt lat="42.622152" lon="-2.584523"><ele>797.5</ele><time>2011-11-30T11:42:05Z</time></trkpt><trkpt lat="42.622163" lon="-2.584520"><ele>797.5</ele><time>2011-11-30T11:42:06Z</time></trkpt><trkpt lat="42.622172" lon="-2.584513"><ele>797.0</ele><time>2011-11-30T11:42:07Z</time></trkpt><trkpt lat="42.622190" lon="-2.584508"><ele>797.5</ele><time>2011-11-30T11:42:08Z</time></trkpt><trkpt lat="42.622200" lon="-2.584500"><ele>797.5</ele><time>2011-11-30T11:42:09Z</time></trkpt><trkpt lat="42.622213" lon="-2.584493"><ele>797.5</ele><time>2011-11-30T11:42:10Z</time></trkpt><trkpt lat="42.622223" lon="-2.584488"><ele>797.0</ele><time>2011-11-30T11:42:11Z</time></trkpt><trkpt lat="42.622235" lon="-2.584483"><ele>797.0</ele><time>2011-11-30T11:42:12Z</time></trkpt><trkpt lat="42.622247" lon="-2.584477"><ele>797.0</ele><time>2011-11-30T11:42:13Z</time></trkpt><trkpt lat="42.622257" lon="-2.584470"><ele>796.5</ele><time>2011-11-30T11:42:14Z</time></trkpt><trkpt lat="42.622263" lon="-2.584458"><ele>796.0</ele><time>2011-11-30T11:42:15Z</time></trkpt><trkpt lat="42.622275" lon="-2.584450"><ele>796.0</ele><time>2011-11-30T11:42:16Z</time></trkpt><trkpt lat="42.622295" lon="-2.584443"><ele>796.0</ele><time>2011-11-30T11:42:17Z</time></trkpt><trkpt lat="42.622303" lon="-2.584435"><ele>796.0</ele><time>2011-11-30T11:42:18Z</time></trkpt><trkpt lat="42.622315" lon="-2.584428"><ele>795.5</ele><time>2011-11-30T11:42:19Z</time></trkpt><trkpt lat="42.622327" lon="-2.584418"><ele>795.5</ele><time>2011-11-30T11:42:20Z</time></trkpt><trkpt lat="42.622345" lon="-2.584412"><ele>795.5</ele><time>2011-11-30T11:42:21Z</time></trkpt><trkpt lat="42.622358" lon="-2.584405"><ele>795.5</ele><time>2011-11-30T11:42:22Z</time></trkpt><trkpt lat="42.622367" lon="-2.584392"><ele>795.5</ele><time>2011-11-30T11:42:23Z</time></trkpt><trkpt lat="42.622372" lon="-2.584378"><ele>795.0</ele><time>2011-11-30T11:42:24Z</time></trkpt><trkpt lat="42.622373" lon="-2.584363"><ele>794.5</ele><time>2011-11-30T11:42:25Z</time></trkpt><trkpt lat="42.622382" lon="-2.584352"><ele>794.0</ele><time>2011-11-30T11:42:26Z</time></trkpt><trkpt lat="42.622387" lon="-2.584338"><ele>793.5</ele><time>2011-11-30T11:42:27Z</time></trkpt><trkpt lat="42.622390" lon="-2.584323"><ele>793.0</ele><time>2011-11-30T11:42:28Z</time></trkpt><trkpt lat="42.622400" lon="-2.584308"><ele>793.0</ele><time>2011-11-30T11:42:29Z</time></trkpt><trkpt lat="42.622408" lon="-2.584297"><ele>793.0</ele><time>2011-11-30T11:42:30Z</time></trkpt><trkpt lat="42.622420" lon="-2.584288"><ele>793.0</ele><time>2011-11-30T11:42:31Z</time></trkpt><trkpt lat="42.622430" lon="-2.584278"><ele>793.0</ele><time>2011-11-30T11:42:32Z</time></trkpt><trkpt lat="42.622440" lon="-2.584267"><ele>793.0</ele><time>2011-11-30T11:42:33Z</time></trkpt><trkpt lat="42.622450" lon="-2.584253"><ele>793.0</ele><time>2011-11-30T11:42:34Z</time></trkpt><trkpt lat="42.622463" lon="-2.584242"><ele>793.5</ele><time>2011-11-30T11:42:35Z</time></trkpt><trkpt lat="42.622475" lon="-2.584233"><ele>793.5</ele><time>2011-11-30T11:42:36Z</time></trkpt><trkpt lat="42.622483" lon="-2.584220"><ele>793.5</ele><time>2011-11-30T11:42:37Z</time></trkpt><trkpt lat="42.622492" lon="-2.584208"><ele>794.0</ele><time>2011-11-30T11:42:38Z</time></trkpt><trkpt lat="42.622508" lon="-2.584202"><ele>794.0</ele><time>2011-11-30T11:42:39Z</time></trkpt><trkpt lat="42.622525" lon="-2.584197"><ele>794.5</ele><time>2011-11-30T11:42:40Z</time></trkpt><trkpt lat="42.622528" lon="-2.584187"><ele>794.5</ele><time>2011-11-30T11:42:41Z</time></trkpt><trkpt lat="42.622533" lon="-2.584178"><ele>794.0</ele><time>2011-11-30T11:42:42Z</time></trkpt><trkpt lat="42.622538" lon="-2.584170"><ele>793.5</ele><time>2011-11-30T11:42:43Z</time></trkpt><trkpt lat="42.622550" lon="-2.584165"><ele>793.5</ele><time>2011-11-30T11:42:44Z</time></trkpt><trkpt lat="42.622553" lon="-2.584158"><ele>793.0</ele><time>2011-11-30T11:42:45Z</time></trkpt><trkpt lat="42.622558" lon="-2.584152"><ele>792.5</ele><time>2011-11-30T11:42:46Z</time></trkpt><trkpt lat="42.622563" lon="-2.584143"><ele>792.0</ele><time>2011-11-30T11:42:47Z</time></trkpt><trkpt lat="42.622568" lon="-2.584135"><ele>791.5</ele><time>2011-11-30T11:42:48Z</time></trkpt><trkpt lat="42.622577" lon="-2.584128"><ele>791.0</ele><time>2011-11-30T11:42:49Z</time></trkpt><trkpt lat="42.622590" lon="-2.584125"><ele>791.0</ele><time>2011-11-30T11:42:50Z</time></trkpt><trkpt lat="42.622605" lon="-2.584123"><ele>791.5</ele><time>2011-11-30T11:42:51Z</time></trkpt><trkpt lat="42.622615" lon="-2.584118"><ele>791.5</ele><time>2011-11-30T11:42:52Z</time></trkpt><trkpt lat="42.622625" lon="-2.584115"><ele>791.5</ele><time>2011-11-30T11:42:53Z</time></trkpt><trkpt lat="42.622637" lon="-2.584112"><ele>791.5</ele><time>2011-11-30T11:42:54Z</time></trkpt><trkpt lat="42.622643" lon="-2.584110"><ele>791.0</ele><time>2011-11-30T11:42:55Z</time></trkpt><trkpt lat="42.622642" lon="-2.584098"><ele>791.0</ele><time>2011-11-30T11:42:56Z</time></trkpt><trkpt lat="42.622650" lon="-2.584095"><ele>791.0</ele><time>2011-11-30T11:42:57Z</time></trkpt><trkpt lat="42.622662" lon="-2.584093"><ele>791.5</ele><time>2011-11-30T11:42:58Z</time></trkpt><trkpt lat="42.622673" lon="-2.584090"><ele>791.5</ele><time>2011-11-30T11:42:59Z</time></trkpt><trkpt lat="42.622685" lon="-2.584087"><ele>792.0</ele><time>2011-11-30T11:43:00Z</time></trkpt><trkpt lat="42.622698" lon="-2.584083"><ele>792.0</ele><time>2011-11-30T11:43:01Z</time></trkpt><trkpt lat="42.622707" lon="-2.584078"><ele>792.0</ele><time>2011-11-30T11:43:02Z</time></trkpt><trkpt lat="42.622728" lon="-2.584080"><ele>792.5</ele><time>2011-11-30T11:43:03Z</time></trkpt><trkpt lat="42.622752" lon="-2.584080"><ele>793.0</ele><time>2011-11-30T11:43:04Z</time></trkpt><trkpt lat="42.622767" lon="-2.584078"><ele>793.0</ele><time>2011-11-30T11:43:05Z</time></trkpt><trkpt lat="42.622787" lon="-2.584078"><ele>794.0</ele><time>2011-11-30T11:43:06Z</time></trkpt><trkpt lat="42.622797" lon="-2.584075"><ele>794.0</ele><time>2011-11-30T11:43:07Z</time></trkpt><trkpt lat="42.622805" lon="-2.584070"><ele>794.0</ele><time>2011-11-30T11:43:08Z</time></trkpt><trkpt lat="42.622813" lon="-2.584067"><ele>794.0</ele><time>2011-11-30T11:43:09Z</time></trkpt><trkpt lat="42.622807" lon="-2.584055"><ele>793.0</ele><time>2011-11-30T11:43:10Z</time></trkpt><trkpt lat="42.622820" lon="-2.584055"><ele>792.5</ele><time>2011-11-30T11:43:11Z</time></trkpt><trkpt lat="42.622832" lon="-2.584055"><ele>793.0</ele><time>2011-11-30T11:43:12Z</time></trkpt><trkpt lat="42.622845" lon="-2.584053"><ele>792.5</ele><time>2011-11-30T11:43:13Z</time></trkpt><trkpt lat="42.622855" lon="-2.584050"><ele>792.5</ele><time>2011-11-30T11:43:14Z</time></trkpt><trkpt lat="42.622867" lon="-2.584045"><ele>792.5</ele><time>2011-11-30T11:43:15Z</time></trkpt><trkpt lat="42.622920" lon="-2.584030"><ele>795.5</ele><time>2011-11-30T11:43:16Z</time></trkpt><trkpt lat="42.622933" lon="-2.584028"><ele>795.0</ele><time>2011-11-30T11:43:17Z</time></trkpt><trkpt lat="42.622947" lon="-2.584025"><ele>795.0</ele><time>2011-11-30T11:43:18Z</time></trkpt><trkpt lat="42.622965" lon="-2.584023"><ele>794.5</ele><time>2011-11-30T11:43:19Z</time></trkpt><trkpt lat="42.622978" lon="-2.584018"><ele>794.5</ele><time>2011-11-30T11:43:20Z</time></trkpt><trkpt lat="42.622992" lon="-2.584015"><ele>794.5</ele><time>2011-11-30T11:43:21Z</time></trkpt><trkpt lat="42.623005" lon="-2.584015"><ele>794.5</ele><time>2011-11-30T11:43:22Z</time></trkpt><trkpt lat="42.623020" lon="-2.584017"><ele>794.0</ele><time>2011-11-30T11:43:23Z</time></trkpt><trkpt lat="42.623035" lon="-2.584015"><ele>794.0</ele><time>2011-11-30T11:43:24Z</time></trkpt><trkpt lat="42.623090" lon="-2.584025"><ele>795.0</ele><time>2011-11-30T11:43:25Z</time></trkpt><trkpt lat="42.623098" lon="-2.584027"><ele>795.5</ele><time>2011-11-30T11:43:26Z</time></trkpt><trkpt lat="42.623110" lon="-2.584032"><ele>795.5</ele><time>2011-11-30T11:43:27Z</time></trkpt><trkpt lat="42.623123" lon="-2.584035"><ele>795.5</ele><time>2011-11-30T11:43:28Z</time></trkpt><trkpt lat="42.623132" lon="-2.584038"><ele>796.0</ele><time>2011-11-30T11:43:29Z</time></trkpt><trkpt lat="42.623143" lon="-2.584042"><ele>795.5</ele><time>2011-11-30T11:43:30Z</time></trkpt><trkpt lat="42.623165" lon="-2.584047"><ele>794.5</ele><time>2011-11-30T11:43:31Z</time></trkpt><trkpt lat="42.623190" lon="-2.584042"><ele>793.0</ele><time>2011-11-30T11:43:32Z</time></trkpt><trkpt lat="42.623203" lon="-2.584058"><ele>793.5</ele><time>2011-11-30T11:43:33Z</time></trkpt><trkpt lat="42.623193" lon="-2.584060"><ele>795.0</ele><time>2011-11-30T11:43:34Z</time></trkpt><trkpt lat="42.623215" lon="-2.584070"><ele>795.5</ele><time>2011-11-30T11:43:35Z</time></trkpt><trkpt lat="42.623227" lon="-2.584077"><ele>796.0</ele><time>2011-11-30T11:43:36Z</time></trkpt><trkpt lat="42.623245" lon="-2.584083"><ele>796.0</ele><time>2011-11-30T11:43:37Z</time></trkpt><trkpt lat="42.623317" lon="-2.584087"><ele>792.0</ele><time>2011-11-30T11:43:38Z</time></trkpt><trkpt lat="42.623338" lon="-2.584098"><ele>791.5</ele><time>2011-11-30T11:43:39Z</time></trkpt><trkpt lat="42.623360" lon="-2.584107"><ele>791.0</ele><time>2011-11-30T11:43:40Z</time></trkpt><trkpt lat="42.623385" lon="-2.584115"><ele>790.0</ele><time>2011-11-30T11:43:41Z</time></trkpt><trkpt lat="42.623397" lon="-2.584123"><ele>790.0</ele><time>2011-11-30T11:43:42Z</time></trkpt><trkpt lat="42.623405" lon="-2.584128"><ele>790.0</ele><time>2011-11-30T11:43:43Z</time></trkpt><trkpt lat="42.623420" lon="-2.584135"><ele>790.0</ele><time>2011-11-30T11:43:44Z</time></trkpt><trkpt lat="42.623437" lon="-2.584142"><ele>790.5</ele><time>2011-11-30T11:43:45Z</time></trkpt><trkpt lat="42.623453" lon="-2.584150"><ele>791.0</ele><time>2011-11-30T11:43:46Z</time></trkpt><trkpt lat="42.623470" lon="-2.584158"><ele>791.0</ele><time>2011-11-30T11:43:47Z</time></trkpt><trkpt lat="42.623493" lon="-2.584172"><ele>792.0</ele><time>2011-11-30T11:43:48Z</time></trkpt><trkpt lat="42.623508" lon="-2.584177"><ele>792.0</ele><time>2011-11-30T11:43:49Z</time></trkpt><trkpt lat="42.623523" lon="-2.584185"><ele>792.5</ele><time>2011-11-30T11:43:50Z</time></trkpt><trkpt lat="42.623537" lon="-2.584192"><ele>792.5</ele><time>2011-11-30T11:43:51Z</time></trkpt><trkpt lat="42.623548" lon="-2.584195"><ele>792.5</ele><time>2011-11-30T11:43:52Z</time></trkpt><trkpt lat="42.623563" lon="-2.584198"><ele>793.0</ele><time>2011-11-30T11:43:53Z</time></trkpt><trkpt lat="42.623577" lon="-2.584207"><ele>793.0</ele><time>2011-11-30T11:43:54Z</time></trkpt><trkpt lat="42.623588" lon="-2.584208"><ele>793.0</ele><time>2011-11-30T11:43:55Z</time></trkpt><trkpt lat="42.623598" lon="-2.584212"><ele>793.0</ele><time>2011-11-30T11:43:56Z</time></trkpt><trkpt lat="42.623612" lon="-2.584215"><ele>793.0</ele><time>2011-11-30T11:43:57Z</time></trkpt><trkpt lat="42.623627" lon="-2.584218"><ele>793.0</ele><time>2011-11-30T11:43:58Z</time></trkpt><trkpt lat="42.623622" lon="-2.584213"><ele>791.5</ele><time>2011-11-30T11:43:59Z</time></trkpt><trkpt lat="42.623655" lon="-2.584222"><ele>791.5</ele><time>2011-11-30T11:44:00Z</time></trkpt><trkpt lat="42.623665" lon="-2.584222"><ele>791.5</ele><time>2011-11-30T11:44:01Z</time></trkpt><trkpt lat="42.623675" lon="-2.584220"><ele>791.0</ele><time>2011-11-30T11:44:02Z</time></trkpt><trkpt lat="42.623688" lon="-2.584223"><ele>792.0</ele><time>2011-11-30T11:44:03Z</time></trkpt><trkpt lat="42.623698" lon="-2.584225"><ele>793.0</ele><time>2011-11-30T11:44:04Z</time></trkpt><trkpt lat="42.623760" lon="-2.584255"><ele>797.5</ele><time>2011-11-30T11:44:06Z</time></trkpt><trkpt lat="42.623812" lon="-2.584270"><ele>800.0</ele><time>2011-11-30T11:44:08Z</time></trkpt><trkpt lat="42.623835" lon="-2.584273"><ele>801.0</ele><time>2011-11-30T11:44:09Z</time></trkpt><trkpt lat="42.623843" lon="-2.584275"><ele>801.0</ele><time>2011-11-30T11:44:10Z</time></trkpt><trkpt lat="42.623865" lon="-2.584282"><ele>801.0</ele><time>2011-11-30T11:44:11Z</time></trkpt><trkpt lat="42.623877" lon="-2.584285"><ele>801.0</ele><time>2011-11-30T11:44:12Z</time></trkpt><trkpt lat="42.623913" lon="-2.584298"><ele>803.5</ele><time>2011-11-30T11:44:14Z</time></trkpt><trkpt lat="42.623925" lon="-2.584300"><ele>803.0</ele><time>2011-11-30T11:44:15Z</time></trkpt><trkpt lat="42.623945" lon="-2.584303"><ele>804.0</ele><time>2011-11-30T11:44:16Z</time></trkpt><trkpt lat="42.623955" lon="-2.584305"><ele>804.5</ele><time>2011-11-30T11:44:17Z</time></trkpt><trkpt lat="42.623960" lon="-2.584307"><ele>805.0</ele><time>2011-11-30T11:44:18Z</time></trkpt><trkpt lat="42.623972" lon="-2.584312"><ele>805.0</ele><time>2011-11-30T11:44:19Z</time></trkpt><trkpt lat="42.623983" lon="-2.584315"><ele>805.0</ele><time>2011-11-30T11:44:20Z</time></trkpt><trkpt lat="42.623998" lon="-2.584317"><ele>804.5</ele><time>2011-11-30T11:44:21Z</time></trkpt><trkpt lat="42.624013" lon="-2.584322"><ele>804.5</ele><time>2011-11-30T11:44:22Z</time></trkpt><trkpt lat="42.624030" lon="-2.584325"><ele>804.0</ele><time>2011-11-30T11:44:23Z</time></trkpt><trkpt lat="42.624045" lon="-2.584328"><ele>804.0</ele><time>2011-11-30T11:44:24Z</time></trkpt><trkpt lat="42.624060" lon="-2.584330"><ele>803.5</ele><time>2011-11-30T11:44:25Z</time></trkpt><trkpt lat="42.624073" lon="-2.584328"><ele>803.5</ele><time>2011-11-30T11:44:26Z</time></trkpt><trkpt lat="42.624087" lon="-2.584325"><ele>803.0</ele><time>2011-11-30T11:44:27Z</time></trkpt><trkpt lat="42.624103" lon="-2.584323"><ele>803.0</ele><time>2011-11-30T11:44:28Z</time></trkpt><trkpt lat="42.624118" lon="-2.584315"><ele>803.0</ele><time>2011-11-30T11:44:29Z</time></trkpt><trkpt lat="42.624133" lon="-2.584308"><ele>802.5</ele><time>2011-11-30T11:44:30Z</time></trkpt><trkpt lat="42.624148" lon="-2.584302"><ele>802.5</ele><time>2011-11-30T11:44:31Z</time></trkpt><trkpt lat="42.624162" lon="-2.584295"><ele>802.5</ele><time>2011-11-30T11:44:32Z</time></trkpt><trkpt lat="42.624175" lon="-2.584288"><ele>802.5</ele><time>2011-11-30T11:44:33Z</time></trkpt><trkpt lat="42.624188" lon="-2.584282"><ele>802.5</ele><time>2011-11-30T11:44:34Z</time></trkpt><trkpt lat="42.624200" lon="-2.584277"><ele>802.5</ele><time>2011-11-30T11:44:35Z</time></trkpt><trkpt lat="42.624212" lon="-2.584273"><ele>802.0</ele><time>2011-11-30T11:44:36Z</time></trkpt><trkpt lat="42.624222" lon="-2.584272"><ele>802.0</ele><time>2011-11-30T11:44:37Z</time></trkpt><trkpt lat="42.624230" lon="-2.584268"><ele>802.0</ele><time>2011-11-30T11:44:38Z</time></trkpt><trkpt lat="42.624240" lon="-2.584262"><ele>801.5</ele><time>2011-11-30T11:44:39Z</time></trkpt><trkpt lat="42.624252" lon="-2.584257"><ele>801.5</ele><time>2011-11-30T11:44:40Z</time></trkpt><trkpt lat="42.624263" lon="-2.584250"><ele>801.5</ele><time>2011-11-30T11:44:41Z</time></trkpt><trkpt lat="42.624273" lon="-2.584247"><ele>801.5</ele><time>2011-11-30T11:44:42Z</time></trkpt><trkpt lat="42.624287" lon="-2.584242"><ele>801.0</ele><time>2011-11-30T11:44:43Z</time></trkpt><trkpt lat="42.624298" lon="-2.584238"><ele>801.0</ele><time>2011-11-30T11:44:44Z</time></trkpt><trkpt lat="42.624307" lon="-2.584238"><ele>801.0</ele><time>2011-11-30T11:44:45Z</time></trkpt><trkpt lat="42.624317" lon="-2.584242"><ele>801.5</ele><time>2011-11-30T11:44:46Z</time></trkpt><trkpt lat="42.624323" lon="-2.584252"><ele>801.5</ele><time>2011-11-30T11:44:47Z</time></trkpt><trkpt lat="42.624332" lon="-2.584260"><ele>801.5</ele><time>2011-11-30T11:44:48Z</time></trkpt><trkpt lat="42.624337" lon="-2.584273"><ele>802.0</ele><time>2011-11-30T11:44:49Z</time></trkpt><trkpt lat="42.624350" lon="-2.584288"><ele>803.0</ele><time>2011-11-30T11:44:50Z</time></trkpt><trkpt lat="42.624387" lon="-2.584297"><ele>801.5</ele><time>2011-11-30T11:44:51Z</time></trkpt><trkpt lat="42.624402" lon="-2.584292"><ele>799.5</ele><time>2011-11-30T11:44:52Z</time></trkpt><trkpt lat="42.624410" lon="-2.584288"><ele>799.5</ele><time>2011-11-30T11:44:53Z</time></trkpt><trkpt lat="42.624420" lon="-2.584283"><ele>799.5</ele><time>2011-11-30T11:44:54Z</time></trkpt><trkpt lat="42.624432" lon="-2.584282"><ele>799.5</ele><time>2011-11-30T11:44:55Z</time></trkpt><trkpt lat="42.624443" lon="-2.584283"><ele>799.5</ele><time>2011-11-30T11:44:56Z</time></trkpt><trkpt lat="42.624455" lon="-2.584287"><ele>800.0</ele><time>2011-11-30T11:44:57Z</time></trkpt><trkpt lat="42.624468" lon="-2.584288"><ele>800.0</ele><time>2011-11-30T11:44:58Z</time></trkpt><trkpt lat="42.624482" lon="-2.584288"><ele>800.5</ele><time>2011-11-30T11:44:59Z</time></trkpt><trkpt lat="42.624492" lon="-2.584292"><ele>800.5</ele><time>2011-11-30T11:45:00Z</time></trkpt><trkpt lat="42.624502" lon="-2.584295"><ele>801.0</ele><time>2011-11-30T11:45:01Z</time></trkpt><trkpt lat="42.624512" lon="-2.584298"><ele>801.0</ele><time>2011-11-30T11:45:02Z</time></trkpt><trkpt lat="42.624522" lon="-2.584303"><ele>801.0</ele><time>2011-11-30T11:45:03Z</time></trkpt><trkpt lat="42.624532" lon="-2.584308"><ele>801.5</ele><time>2011-11-30T11:45:04Z</time></trkpt><trkpt lat="42.624543" lon="-2.584312"><ele>801.5</ele><time>2011-11-30T11:45:05Z</time></trkpt><trkpt lat="42.624553" lon="-2.584318"><ele>802.0</ele><time>2011-11-30T11:45:06Z</time></trkpt><trkpt lat="42.624565" lon="-2.584322"><ele>802.5</ele><time>2011-11-30T11:45:07Z</time></trkpt><trkpt lat="42.624575" lon="-2.584325"><ele>802.5</ele><time>2011-11-30T11:45:08Z</time></trkpt><trkpt lat="42.624587" lon="-2.584332"><ele>802.5</ele><time>2011-11-30T11:45:09Z</time></trkpt><trkpt lat="42.624597" lon="-2.584337"><ele>802.5</ele><time>2011-11-30T11:45:10Z</time></trkpt><trkpt lat="42.624608" lon="-2.584342"><ele>802.5</ele><time>2011-11-30T11:45:11Z</time></trkpt><trkpt lat="42.624622" lon="-2.584347"><ele>803.0</ele><time>2011-11-30T11:45:12Z</time></trkpt><trkpt lat="42.624632" lon="-2.584352"><ele>803.0</ele><time>2011-11-30T11:45:13Z</time></trkpt><trkpt lat="42.624642" lon="-2.584357"><ele>803.0</ele><time>2011-11-30T11:45:14Z</time></trkpt><trkpt lat="42.624652" lon="-2.584360"><ele>803.0</ele><time>2011-11-30T11:45:15Z</time></trkpt><trkpt lat="42.624663" lon="-2.584365"><ele>803.0</ele><time>2011-11-30T11:45:16Z</time></trkpt><trkpt lat="42.624675" lon="-2.584370"><ele>803.0</ele><time>2011-11-30T11:45:17Z</time></trkpt><trkpt lat="42.624687" lon="-2.584372"><ele>803.0</ele><time>2011-11-30T11:45:18Z</time></trkpt><trkpt lat="42.624698" lon="-2.584377"><ele>802.5</ele><time>2011-11-30T11:45:19Z</time></trkpt><trkpt lat="42.624710" lon="-2.584383"><ele>802.5</ele><time>2011-11-30T11:45:20Z</time></trkpt><trkpt lat="42.624722" lon="-2.584390"><ele>802.5</ele><time>2011-11-30T11:45:21Z</time></trkpt><trkpt lat="42.624733" lon="-2.584397"><ele>802.5</ele><time>2011-11-30T11:45:22Z</time></trkpt><trkpt lat="42.624743" lon="-2.584403"><ele>802.5</ele><time>2011-11-30T11:45:23Z</time></trkpt><trkpt lat="42.624753" lon="-2.584410"><ele>803.0</ele><time>2011-11-30T11:45:24Z</time></trkpt><trkpt lat="42.624770" lon="-2.584410"><ele>802.0</ele><time>2011-11-30T11:45:25Z</time></trkpt><trkpt lat="42.624782" lon="-2.584413"><ele>802.0</ele><time>2011-11-30T11:45:26Z</time></trkpt><trkpt lat="42.624793" lon="-2.584415"><ele>801.5</ele><time>2011-11-30T11:45:27Z</time></trkpt><trkpt lat="42.624805" lon="-2.584417"><ele>801.5</ele><time>2011-11-30T11:45:28Z</time></trkpt><trkpt lat="42.624820" lon="-2.584415"><ele>801.0</ele><time>2011-11-30T11:45:29Z</time></trkpt><trkpt lat="42.624835" lon="-2.584417"><ele>800.5</ele><time>2011-11-30T11:45:30Z</time></trkpt><trkpt lat="42.624850" lon="-2.584418"><ele>800.5</ele><time>2011-11-30T11:45:31Z</time></trkpt><trkpt lat="42.624862" lon="-2.584418"><ele>800.5</ele><time>2011-11-30T11:45:32Z</time></trkpt><trkpt lat="42.624875" lon="-2.584423"><ele>800.5</ele><time>2011-11-30T11:45:33Z</time></trkpt><trkpt lat="42.624883" lon="-2.584428"><ele>801.5</ele><time>2011-11-30T11:45:34Z</time></trkpt><trkpt lat="42.624892" lon="-2.584428"><ele>802.0</ele><time>2011-11-30T11:45:35Z</time></trkpt><trkpt lat="42.624902" lon="-2.584432"><ele>802.5</ele><time>2011-11-30T11:45:36Z</time></trkpt><trkpt lat="42.624912" lon="-2.584433"><ele>802.5</ele><time>2011-11-30T11:45:37Z</time></trkpt><trkpt lat="42.624922" lon="-2.584432"><ele>803.0</ele><time>2011-11-30T11:45:38Z</time></trkpt><trkpt lat="42.624932" lon="-2.584430"><ele>803.0</ele><time>2011-11-30T11:45:39Z</time></trkpt><trkpt lat="42.624943" lon="-2.584428"><ele>802.5</ele><time>2011-11-30T11:45:40Z</time></trkpt><trkpt lat="42.624955" lon="-2.584427"><ele>802.0</ele><time>2011-11-30T11:45:41Z</time></trkpt><trkpt lat="42.624963" lon="-2.584423"><ele>802.0</ele><time>2011-11-30T11:45:42Z</time></trkpt><trkpt lat="42.624975" lon="-2.584418"><ele>801.5</ele><time>2011-11-30T11:45:43Z</time></trkpt><trkpt lat="42.624987" lon="-2.584413"><ele>801.0</ele><time>2011-11-30T11:45:44Z</time></trkpt><trkpt lat="42.625000" lon="-2.584410"><ele>801.0</ele><time>2011-11-30T11:45:45Z</time></trkpt><trkpt lat="42.625008" lon="-2.584403"><ele>800.0</ele><time>2011-11-30T11:45:46Z</time></trkpt><trkpt lat="42.625022" lon="-2.584400"><ele>800.0</ele><time>2011-11-30T11:45:47Z</time></trkpt><trkpt lat="42.625037" lon="-2.584397"><ele>800.0</ele><time>2011-11-30T11:45:48Z</time></trkpt><trkpt lat="42.625047" lon="-2.584392"><ele>800.5</ele><time>2011-11-30T11:45:49Z</time></trkpt><trkpt lat="42.625055" lon="-2.584388"><ele>800.5</ele><time>2011-11-30T11:45:50Z</time></trkpt><trkpt lat="42.625065" lon="-2.584388"><ele>800.5</ele><time>2011-11-30T11:45:51Z</time></trkpt><trkpt lat="42.625077" lon="-2.584387"><ele>801.0</ele><time>2011-11-30T11:45:52Z</time></trkpt><trkpt lat="42.625090" lon="-2.584387"><ele>802.0</ele><time>2011-11-30T11:45:53Z</time></trkpt><trkpt lat="42.625100" lon="-2.584383"><ele>802.0</ele><time>2011-11-30T11:45:54Z</time></trkpt><trkpt lat="42.625115" lon="-2.584380"><ele>803.0</ele><time>2011-11-30T11:45:55Z</time></trkpt><trkpt lat="42.625127" lon="-2.584377"><ele>803.0</ele><time>2011-11-30T11:45:56Z</time></trkpt><trkpt lat="42.625137" lon="-2.584375"><ele>803.0</ele><time>2011-11-30T11:45:57Z</time></trkpt><trkpt lat="42.625150" lon="-2.584373"><ele>803.0</ele><time>2011-11-30T11:45:58Z</time></trkpt><trkpt lat="42.625163" lon="-2.584370"><ele>803.5</ele><time>2011-11-30T11:45:59Z</time></trkpt><trkpt lat="42.625177" lon="-2.584367"><ele>803.5</ele><time>2011-11-30T11:46:00Z</time></trkpt><trkpt lat="42.625190" lon="-2.584363"><ele>803.0</ele><time>2011-11-30T11:46:01Z</time></trkpt><trkpt lat="42.625200" lon="-2.584358"><ele>803.0</ele><time>2011-11-30T11:46:02Z</time></trkpt><trkpt lat="42.625212" lon="-2.584357"><ele>803.0</ele><time>2011-11-30T11:46:03Z</time></trkpt><trkpt lat="42.625222" lon="-2.584352"><ele>803.0</ele><time>2011-11-30T11:46:04Z</time></trkpt><trkpt lat="42.625233" lon="-2.584348"><ele>802.5</ele><time>2011-11-30T11:46:05Z</time></trkpt><trkpt lat="42.625243" lon="-2.584347"><ele>802.5</ele><time>2011-11-30T11:46:06Z</time></trkpt><trkpt lat="42.625253" lon="-2.584343"><ele>802.0</ele><time>2011-11-30T11:46:07Z</time></trkpt><trkpt lat="42.625263" lon="-2.584338"><ele>801.5</ele><time>2011-11-30T11:46:08Z</time></trkpt><trkpt lat="42.625280" lon="-2.584330"><ele>800.0</ele><time>2011-11-30T11:46:09Z</time></trkpt><trkpt lat="42.625290" lon="-2.584330"><ele>799.0</ele><time>2011-11-30T11:46:10Z</time></trkpt><trkpt lat="42.625300" lon="-2.584333"><ele>798.5</ele><time>2011-11-30T11:46:11Z</time></trkpt><trkpt lat="42.625313" lon="-2.584335"><ele>798.0</ele><time>2011-11-30T11:46:12Z</time></trkpt><trkpt lat="42.625327" lon="-2.584335"><ele>797.0</ele><time>2011-11-30T11:46:13Z</time></trkpt><trkpt lat="42.625342" lon="-2.584335"><ele>796.5</ele><time>2011-11-30T11:46:14Z</time></trkpt><trkpt lat="42.625352" lon="-2.584335"><ele>796.5</ele><time>2011-11-30T11:46:15Z</time></trkpt><trkpt lat="42.625365" lon="-2.584338"><ele>796.0</ele><time>2011-11-30T11:46:16Z</time></trkpt><trkpt lat="42.625378" lon="-2.584337"><ele>795.5</ele><time>2011-11-30T11:46:17Z</time></trkpt><trkpt lat="42.625385" lon="-2.584338"><ele>796.0</ele><time>2011-11-30T11:46:18Z</time></trkpt><trkpt lat="42.625393" lon="-2.584323"><ele>799.0</ele><time>2011-11-30T11:46:19Z</time></trkpt><trkpt lat="42.625410" lon="-2.584320"><ele>800.0</ele><time>2011-11-30T11:46:20Z</time></trkpt><trkpt lat="42.625415" lon="-2.584320"><ele>800.0</ele><time>2011-11-30T11:46:21Z</time></trkpt><trkpt lat="42.625430" lon="-2.584325"><ele>801.0</ele><time>2011-11-30T11:46:22Z</time></trkpt><trkpt lat="42.625438" lon="-2.584330"><ele>801.0</ele><time>2011-11-30T11:46:23Z</time></trkpt><trkpt lat="42.625452" lon="-2.584345"><ele>800.0</ele><time>2011-11-30T11:46:24Z</time></trkpt><trkpt lat="42.625465" lon="-2.584343"><ele>801.0</ele><time>2011-11-30T11:46:25Z</time></trkpt><trkpt lat="42.625477" lon="-2.584338"><ele>802.5</ele><time>2011-11-30T11:46:26Z</time></trkpt><trkpt lat="42.625485" lon="-2.584340"><ele>802.0</ele><time>2011-11-30T11:46:27Z</time></trkpt><trkpt lat="42.625492" lon="-2.584338"><ele>802.0</ele><time>2011-11-30T11:46:28Z</time></trkpt><trkpt lat="42.625522" lon="-2.584342"><ele>802.0</ele><time>2011-11-30T11:46:29Z</time></trkpt><trkpt lat="42.625530" lon="-2.584347"><ele>802.0</ele><time>2011-11-30T11:46:30Z</time></trkpt><trkpt lat="42.625542" lon="-2.584352"><ele>801.5</ele><time>2011-11-30T11:46:31Z</time></trkpt><trkpt lat="42.625550" lon="-2.584353"><ele>801.0</ele><time>2011-11-30T11:46:32Z</time></trkpt><trkpt lat="42.625560" lon="-2.584357"><ele>801.0</ele><time>2011-11-30T11:46:33Z</time></trkpt><trkpt lat="42.625573" lon="-2.584363"><ele>801.5</ele><time>2011-11-30T11:46:34Z</time></trkpt><trkpt lat="42.625590" lon="-2.584368"><ele>801.0</ele><time>2011-11-30T11:46:35Z</time></trkpt><trkpt lat="42.625602" lon="-2.584373"><ele>799.5</ele><time>2011-11-30T11:46:36Z</time></trkpt><trkpt lat="42.625670" lon="-2.584410"><ele>800.5</ele><time>2011-11-30T11:46:37Z</time></trkpt><trkpt lat="42.625668" lon="-2.584390"><ele>801.0</ele><time>2011-11-30T11:46:38Z</time></trkpt><trkpt lat="42.625667" lon="-2.584370"><ele>801.5</ele><time>2011-11-30T11:46:39Z</time></trkpt><trkpt lat="42.625667" lon="-2.584353"><ele>801.0</ele><time>2011-11-30T11:46:40Z</time></trkpt><trkpt lat="42.625665" lon="-2.584337"><ele>800.0</ele><time>2011-11-30T11:46:41Z</time></trkpt><trkpt lat="42.625667" lon="-2.584317"><ele>799.0</ele><time>2011-11-30T11:46:42Z</time></trkpt><trkpt lat="42.625668" lon="-2.584295"><ele>798.0</ele><time>2011-11-30T11:46:43Z</time></trkpt><trkpt lat="42.625668" lon="-2.584278"><ele>797.0</ele><time>2011-11-30T11:46:44Z</time></trkpt><trkpt lat="42.625665" lon="-2.584260"><ele>797.0</ele><time>2011-11-30T11:46:45Z</time></trkpt><trkpt lat="42.625667" lon="-2.584240"><ele>797.5</ele><time>2011-11-30T11:46:46Z</time></trkpt><trkpt lat="42.625655" lon="-2.584220"><ele>800.5</ele><time>2011-11-30T11:46:47Z</time></trkpt><trkpt lat="42.625652" lon="-2.584203"><ele>801.5</ele><time>2011-11-30T11:46:48Z</time></trkpt><trkpt lat="42.625652" lon="-2.584187"><ele>802.0</ele><time>2011-11-30T11:46:49Z</time></trkpt><trkpt lat="42.625650" lon="-2.584170"><ele>802.5</ele><time>2011-11-30T11:46:50Z</time></trkpt><trkpt lat="42.625647" lon="-2.584153"><ele>802.5</ele><time>2011-11-30T11:46:51Z</time></trkpt><trkpt lat="42.625642" lon="-2.584142"><ele>802.5</ele><time>2011-11-30T11:46:52Z</time></trkpt><trkpt lat="42.625642" lon="-2.584130"><ele>802.0</ele><time>2011-11-30T11:46:53Z</time></trkpt><trkpt lat="42.625643" lon="-2.584115"><ele>802.0</ele><time>2011-11-30T11:46:54Z</time></trkpt><trkpt lat="42.625648" lon="-2.584107"><ele>802.0</ele><time>2011-11-30T11:46:55Z</time></trkpt><trkpt lat="42.625652" lon="-2.584095"><ele>801.5</ele><time>2011-11-30T11:46:56Z</time></trkpt><trkpt lat="42.625653" lon="-2.584082"><ele>800.5</ele><time>2011-11-30T11:46:57Z</time></trkpt><trkpt lat="42.625653" lon="-2.584068"><ele>800.5</ele><time>2011-11-30T11:46:58Z</time></trkpt><trkpt lat="42.625658" lon="-2.584057"><ele>799.5</ele><time>2011-11-30T11:46:59Z</time></trkpt><trkpt lat="42.625662" lon="-2.584042"><ele>799.5</ele><time>2011-11-30T11:47:00Z</time></trkpt><trkpt lat="42.625668" lon="-2.584028"><ele>796.5</ele><time>2011-11-30T11:47:01Z</time></trkpt><trkpt lat="42.625670" lon="-2.584037"><ele>795.5</ele><time>2011-11-30T11:47:02Z</time></trkpt><trkpt lat="42.625675" lon="-2.584033"><ele>792.5</ele><time>2011-11-30T11:47:03Z</time></trkpt><trkpt lat="42.625682" lon="-2.584022"><ele>792.0</ele><time>2011-11-30T11:47:04Z</time></trkpt><trkpt lat="42.625690" lon="-2.584013"><ele>792.0</ele><time>2011-11-30T11:47:05Z</time></trkpt><trkpt lat="42.625730" lon="-2.583980"><ele>792.5</ele><time>2011-11-30T11:47:06Z</time></trkpt><trkpt lat="42.625700" lon="-2.583992"><ele>796.0</ele><time>2011-11-30T11:47:07Z</time></trkpt><trkpt lat="42.625713" lon="-2.583987"><ele>794.5</ele><time>2011-11-30T11:47:08Z</time></trkpt></trkseg></trk></gpx>